<?xml version="1.0" encoding="UTF-8" standalone="no" ?>
<gpx xmlns="http://www.topografix.com/GPX/1/1" xmlns:xsi="http://www.w3.org/2001/XMLSchema-instance" xsi:schemaLocation="http://www.topografix.com/GPX/1/1 http://www.topografix.com/GPX/1/1/gpx.xsd" version="1.1" creator="VisuGPX - https://www.visugpx.com">
  <metadata>
    <name>Murles_08082020</name>
  </metadata>
  <trk>
    <name><![CDATA[Move]]></name>
    <trkseg>
      <trkpt lat="43.68996" lon="3.746">
        <ele>194.30000305176</ele>
        <time>2020-08-08T05:58:46.000Z</time>
      </trkpt>
      <trkpt lat="43.69" lon="3.746">
        <ele>193.69999694824</ele>
        <time>2020-08-08T05:59:03.000Z</time>
      </trkpt>
      <trkpt lat="43.69001" lon="3.746">
        <ele>193.98567989727</ele>
        <time>2020-08-08T05:59:08.000Z</time>
      </trkpt>
      <trkpt lat="43.68995" lon="3.74599">
        <ele>192</ele>
        <time>2020-08-08T06:01:29.000Z</time>
      </trkpt>
      <trkpt lat="43.68995" lon="3.74599">
        <ele>192</ele>
        <time>2020-08-08T06:01:30.000Z</time>
      </trkpt>
      <trkpt lat="43.68994" lon="3.74599">
        <ele>191.98828252398</ele>
        <time>2020-08-08T06:01:34.000Z</time>
      </trkpt>
      <trkpt lat="43.68997" lon="3.74597">
        <ele>190.86147179751</ele>
        <time>2020-08-08T06:03:01.000Z</time>
      </trkpt>
      <trkpt lat="43.68997" lon="3.74598">
        <ele>190.0202266949</ele>
        <time>2020-08-08T06:03:08.000Z</time>
      </trkpt>
      <trkpt lat="43.68995" lon="3.74591">
        <ele>191.86395869692</ele>
        <time>2020-08-08T06:04:45.000Z</time>
      </trkpt>
      <trkpt lat="43.68997" lon="3.74587">
        <ele>191.45786719443</ele>
        <time>2020-08-08T06:04:47.000Z</time>
      </trkpt>
      <trkpt lat="43.68999" lon="3.74586">
        <ele>191.25482144319</ele>
        <time>2020-08-08T06:04:48.000Z</time>
      </trkpt>
      <trkpt lat="43.69" lon="3.74585">
        <ele>191.05177569195</ele>
        <time>2020-08-08T06:04:49.000Z</time>
      </trkpt>
      <trkpt lat="43.69002" lon="3.74584">
        <ele>190.8487299407</ele>
        <time>2020-08-08T06:04:50.000Z</time>
      </trkpt>
      <trkpt lat="43.69004" lon="3.74583">
        <ele>190.64568418946</ele>
        <time>2020-08-08T06:04:51.000Z</time>
      </trkpt>
      <trkpt lat="43.69006" lon="3.74584">
        <ele>190.44263843822</ele>
        <time>2020-08-08T06:04:52.000Z</time>
      </trkpt>
      <trkpt lat="43.69009" lon="3.74585">
        <ele>190.23959268697</ele>
        <time>2020-08-08T06:04:53.000Z</time>
      </trkpt>
      <trkpt lat="43.69011" lon="3.74587">
        <ele>190.03654693573</ele>
        <time>2020-08-08T06:04:54.000Z</time>
      </trkpt>
      <trkpt lat="43.69013" lon="3.7459">
        <ele>190</ele>
        <time>2020-08-08T06:04:55.000Z</time>
      </trkpt>
      <trkpt lat="43.69015" lon="3.74593">
        <ele>190</ele>
        <time>2020-08-08T06:04:56.000Z</time>
      </trkpt>
      <trkpt lat="43.69018" lon="3.74596">
        <ele>190</ele>
        <time>2020-08-08T06:04:57.000Z</time>
      </trkpt>
      <trkpt lat="43.69021" lon="3.74599">
        <ele>190</ele>
        <time>2020-08-08T06:04:58.000Z</time>
      </trkpt>
      <trkpt lat="43.69025" lon="3.74601">
        <ele>190</ele>
        <time>2020-08-08T06:04:59.000Z</time>
      </trkpt>
      <trkpt lat="43.69028" lon="3.74601">
        <ele>190</ele>
        <time>2020-08-08T06:05:00.000Z</time>
      </trkpt>
      <trkpt lat="43.69031" lon="3.746">
        <ele>190</ele>
        <time>2020-08-08T06:05:01.000Z</time>
      </trkpt>
      <trkpt lat="43.69035" lon="3.74599">
        <ele>190</ele>
        <time>2020-08-08T06:05:02.000Z</time>
      </trkpt>
      <trkpt lat="43.69037" lon="3.74596">
        <ele>190</ele>
        <time>2020-08-08T06:05:03.000Z</time>
      </trkpt>
      <trkpt lat="43.6904" lon="3.74594">
        <ele>190</ele>
        <time>2020-08-08T06:05:04.000Z</time>
      </trkpt>
      <trkpt lat="43.69043" lon="3.74592">
        <ele>190</ele>
        <time>2020-08-08T06:05:05.000Z</time>
      </trkpt>
      <trkpt lat="43.69045" lon="3.74591">
        <ele>190</ele>
        <time>2020-08-08T06:05:06.000Z</time>
      </trkpt>
      <trkpt lat="43.69048" lon="3.74589">
        <ele>190</ele>
        <time>2020-08-08T06:05:07.000Z</time>
      </trkpt>
      <trkpt lat="43.69051" lon="3.74587">
        <ele>190</ele>
        <time>2020-08-08T06:05:08.000Z</time>
      </trkpt>
      <trkpt lat="43.69053" lon="3.74585">
        <ele>190</ele>
        <time>2020-08-08T06:05:09.000Z</time>
      </trkpt>
      <trkpt lat="43.69055" lon="3.74584">
        <ele>190</ele>
        <time>2020-08-08T06:05:10.000Z</time>
      </trkpt>
      <trkpt lat="43.69058" lon="3.74584">
        <ele>190</ele>
        <time>2020-08-08T06:05:11.000Z</time>
      </trkpt>
      <trkpt lat="43.6906" lon="3.74584">
        <ele>190</ele>
        <time>2020-08-08T06:05:12.000Z</time>
      </trkpt>
      <trkpt lat="43.69063" lon="3.74586">
        <ele>190</ele>
        <time>2020-08-08T06:05:13.000Z</time>
      </trkpt>
      <trkpt lat="43.69065" lon="3.74588">
        <ele>190</ele>
        <time>2020-08-08T06:05:14.000Z</time>
      </trkpt>
      <trkpt lat="43.69067" lon="3.74592">
        <ele>190</ele>
        <time>2020-08-08T06:05:15.000Z</time>
      </trkpt>
      <trkpt lat="43.69069" lon="3.74596">
        <ele>190</ele>
        <time>2020-08-08T06:05:16.000Z</time>
      </trkpt>
      <trkpt lat="43.6907" lon="3.74601">
        <ele>190</ele>
        <time>2020-08-08T06:05:17.000Z</time>
      </trkpt>
      <trkpt lat="43.6907" lon="3.74606">
        <ele>190</ele>
        <time>2020-08-08T06:05:18.000Z</time>
      </trkpt>
      <trkpt lat="43.6907" lon="3.74611">
        <ele>190</ele>
        <time>2020-08-08T06:05:19.000Z</time>
      </trkpt>
      <trkpt lat="43.6907" lon="3.74616">
        <ele>190</ele>
        <time>2020-08-08T06:05:20.000Z</time>
      </trkpt>
      <trkpt lat="43.6907" lon="3.74621">
        <ele>190</ele>
        <time>2020-08-08T06:05:21.000Z</time>
      </trkpt>
      <trkpt lat="43.6907" lon="3.74625">
        <ele>190</ele>
        <time>2020-08-08T06:05:22.000Z</time>
      </trkpt>
      <trkpt lat="43.69071" lon="3.7463">
        <ele>190</ele>
        <time>2020-08-08T06:05:23.000Z</time>
      </trkpt>
      <trkpt lat="43.69072" lon="3.74634">
        <ele>190</ele>
        <time>2020-08-08T06:05:24.000Z</time>
      </trkpt>
      <trkpt lat="43.69072" lon="3.74639">
        <ele>190.09127405454</ele>
        <time>2020-08-08T06:05:25.000Z</time>
      </trkpt>
      <trkpt lat="43.69073" lon="3.74643">
        <ele>190.19157486067</ele>
        <time>2020-08-08T06:05:26.000Z</time>
      </trkpt>
      <trkpt lat="43.69074" lon="3.74647">
        <ele>190.2918756668</ele>
        <time>2020-08-08T06:05:27.000Z</time>
      </trkpt>
      <trkpt lat="43.69076" lon="3.74651">
        <ele>190.39217647293</ele>
        <time>2020-08-08T06:05:28.000Z</time>
      </trkpt>
      <trkpt lat="43.69077" lon="3.74655">
        <ele>190.49247727906</ele>
        <time>2020-08-08T06:05:29.000Z</time>
      </trkpt>
      <trkpt lat="43.69078" lon="3.74659">
        <ele>190.59277808519</ele>
        <time>2020-08-08T06:05:30.000Z</time>
      </trkpt>
      <trkpt lat="43.69078" lon="3.74663">
        <ele>190.69307889132</ele>
        <time>2020-08-08T06:05:31.000Z</time>
      </trkpt>
      <trkpt lat="43.6908" lon="3.74667">
        <ele>190.79337969745</ele>
        <time>2020-08-08T06:05:32.000Z</time>
      </trkpt>
      <trkpt lat="43.69081" lon="3.74671">
        <ele>190.89368050358</ele>
        <time>2020-08-08T06:05:33.000Z</time>
      </trkpt>
      <trkpt lat="43.69082" lon="3.74675">
        <ele>190.99398130971</ele>
        <time>2020-08-08T06:05:34.000Z</time>
      </trkpt>
      <trkpt lat="43.69083" lon="3.74679">
        <ele>191</ele>
        <time>2020-08-08T06:05:35.000Z</time>
      </trkpt>
      <trkpt lat="43.69085" lon="3.74683">
        <ele>191</ele>
        <time>2020-08-08T06:05:36.000Z</time>
      </trkpt>
      <trkpt lat="43.69086" lon="3.74687">
        <ele>191</ele>
        <time>2020-08-08T06:05:37.000Z</time>
      </trkpt>
      <trkpt lat="43.69088" lon="3.74691">
        <ele>191</ele>
        <time>2020-08-08T06:05:38.000Z</time>
      </trkpt>
      <trkpt lat="43.69089" lon="3.74695">
        <ele>191</ele>
        <time>2020-08-08T06:05:39.000Z</time>
      </trkpt>
      <trkpt lat="43.69091" lon="3.74699">
        <ele>191</ele>
        <time>2020-08-08T06:05:40.000Z</time>
      </trkpt>
      <trkpt lat="43.69093" lon="3.74703">
        <ele>191</ele>
        <time>2020-08-08T06:05:41.000Z</time>
      </trkpt>
      <trkpt lat="43.69095" lon="3.74707">
        <ele>191</ele>
        <time>2020-08-08T06:05:42.000Z</time>
      </trkpt>
      <trkpt lat="43.69097" lon="3.74711">
        <ele>191</ele>
        <time>2020-08-08T06:05:43.000Z</time>
      </trkpt>
      <trkpt lat="43.69098" lon="3.74715">
        <ele>191.04595470001</ele>
        <time>2020-08-08T06:05:44.000Z</time>
      </trkpt>
      <trkpt lat="43.691" lon="3.74719">
        <ele>191.24575496368</ele>
        <time>2020-08-08T06:05:45.000Z</time>
      </trkpt>
      <trkpt lat="43.69102" lon="3.74723">
        <ele>191.44555522735</ele>
        <time>2020-08-08T06:05:46.000Z</time>
      </trkpt>
      <trkpt lat="43.69103" lon="3.74726">
        <ele>191.64535549102</ele>
        <time>2020-08-08T06:05:47.000Z</time>
      </trkpt>
      <trkpt lat="43.69105" lon="3.7473">
        <ele>191.8451557547</ele>
        <time>2020-08-08T06:05:48.000Z</time>
      </trkpt>
      <trkpt lat="43.69106" lon="3.74734">
        <ele>192.04495601837</ele>
        <time>2020-08-08T06:05:49.000Z</time>
      </trkpt>
      <trkpt lat="43.69108" lon="3.74737">
        <ele>192.24475628204</ele>
        <time>2020-08-08T06:05:50.000Z</time>
      </trkpt>
      <trkpt lat="43.69109" lon="3.74741">
        <ele>192.44455654571</ele>
        <time>2020-08-08T06:05:51.000Z</time>
      </trkpt>
      <trkpt lat="43.6911" lon="3.74744">
        <ele>192.64435680938</ele>
        <time>2020-08-08T06:05:52.000Z</time>
      </trkpt>
      <trkpt lat="43.69111" lon="3.74747">
        <ele>192.84415707306</ele>
        <time>2020-08-08T06:05:53.000Z</time>
      </trkpt>
      <trkpt lat="43.69112" lon="3.7475">
        <ele>193.04404531122</ele>
        <time>2020-08-08T06:05:54.000Z</time>
      </trkpt>
      <trkpt lat="43.69113" lon="3.74753">
        <ele>193.24424544729</ele>
        <time>2020-08-08T06:05:55.000Z</time>
      </trkpt>
      <trkpt lat="43.69115" lon="3.74756">
        <ele>193.44444558336</ele>
        <time>2020-08-08T06:05:56.000Z</time>
      </trkpt>
      <trkpt lat="43.69117" lon="3.74758">
        <ele>193.64464571943</ele>
        <time>2020-08-08T06:05:57.000Z</time>
      </trkpt>
      <trkpt lat="43.69119" lon="3.74761">
        <ele>193.84484585551</ele>
        <time>2020-08-08T06:05:58.000Z</time>
      </trkpt>
      <trkpt lat="43.69121" lon="3.74763">
        <ele>194.04504599158</ele>
        <time>2020-08-08T06:05:59.000Z</time>
      </trkpt>
      <trkpt lat="43.69123" lon="3.74766">
        <ele>194.24524612765</ele>
        <time>2020-08-08T06:06:00.000Z</time>
      </trkpt>
      <trkpt lat="43.69125" lon="3.74768">
        <ele>194.44544626372</ele>
        <time>2020-08-08T06:06:01.000Z</time>
      </trkpt>
      <trkpt lat="43.69127" lon="3.7477">
        <ele>194.64564639979</ele>
        <time>2020-08-08T06:06:02.000Z</time>
      </trkpt>
      <trkpt lat="43.6913" lon="3.74773">
        <ele>194.84584653587</ele>
        <time>2020-08-08T06:06:03.000Z</time>
      </trkpt>
      <trkpt lat="43.69132" lon="3.74775">
        <ele>195.02300032</ele>
        <time>2020-08-08T06:06:04.000Z</time>
      </trkpt>
      <trkpt lat="43.69134" lon="3.74777">
        <ele>195.12300032</ele>
        <time>2020-08-08T06:06:05.000Z</time>
      </trkpt>
      <trkpt lat="43.69136" lon="3.74779">
        <ele>195.22300032</ele>
        <time>2020-08-08T06:06:06.000Z</time>
      </trkpt>
      <trkpt lat="43.69138" lon="3.74781">
        <ele>195.32300032</ele>
        <time>2020-08-08T06:06:07.000Z</time>
      </trkpt>
      <trkpt lat="43.69141" lon="3.74783">
        <ele>195.42300032</ele>
        <time>2020-08-08T06:06:08.000Z</time>
      </trkpt>
      <trkpt lat="43.69143" lon="3.74785">
        <ele>195.52300032</ele>
        <time>2020-08-08T06:06:09.000Z</time>
      </trkpt>
      <trkpt lat="43.69145" lon="3.74788">
        <ele>195.62300032</ele>
        <time>2020-08-08T06:06:10.000Z</time>
      </trkpt>
      <trkpt lat="43.69147" lon="3.7479">
        <ele>195.72300032</ele>
        <time>2020-08-08T06:06:11.000Z</time>
      </trkpt>
      <trkpt lat="43.69149" lon="3.74792">
        <ele>195.82300032</ele>
        <time>2020-08-08T06:06:12.000Z</time>
      </trkpt>
      <trkpt lat="43.69151" lon="3.74794">
        <ele>195.92300032</ele>
        <time>2020-08-08T06:06:13.000Z</time>
      </trkpt>
      <trkpt lat="43.69153" lon="3.74797">
        <ele>196.02300032</ele>
        <time>2020-08-08T06:06:14.000Z</time>
      </trkpt>
      <trkpt lat="43.69155" lon="3.74799">
        <ele>196.12300032</ele>
        <time>2020-08-08T06:06:15.000Z</time>
      </trkpt>
      <trkpt lat="43.69157" lon="3.74802">
        <ele>196.22300032</ele>
        <time>2020-08-08T06:06:16.000Z</time>
      </trkpt>
      <trkpt lat="43.6916" lon="3.74804">
        <ele>196.32300032</ele>
        <time>2020-08-08T06:06:17.000Z</time>
      </trkpt>
      <trkpt lat="43.69162" lon="3.74807">
        <ele>196.42300032</ele>
        <time>2020-08-08T06:06:18.000Z</time>
      </trkpt>
      <trkpt lat="43.69164" lon="3.74809">
        <ele>196.52300032</ele>
        <time>2020-08-08T06:06:19.000Z</time>
      </trkpt>
      <trkpt lat="43.69166" lon="3.74811">
        <ele>196.62300032</ele>
        <time>2020-08-08T06:06:20.000Z</time>
      </trkpt>
      <trkpt lat="43.69168" lon="3.74813">
        <ele>196.72300032</ele>
        <time>2020-08-08T06:06:21.000Z</time>
      </trkpt>
      <trkpt lat="43.69169" lon="3.74815">
        <ele>196.82300032</ele>
        <time>2020-08-08T06:06:22.000Z</time>
      </trkpt>
      <trkpt lat="43.69171" lon="3.74816">
        <ele>196.92300032</ele>
        <time>2020-08-08T06:06:23.000Z</time>
      </trkpt>
      <trkpt lat="43.69173" lon="3.74818">
        <ele>197.02300032</ele>
        <time>2020-08-08T06:06:24.000Z</time>
      </trkpt>
      <trkpt lat="43.69174" lon="3.7482">
        <ele>197.12300032</ele>
        <time>2020-08-08T06:06:25.000Z</time>
      </trkpt>
      <trkpt lat="43.69176" lon="3.74822">
        <ele>197.22300032</ele>
        <time>2020-08-08T06:06:26.000Z</time>
      </trkpt>
      <trkpt lat="43.69177" lon="3.74824">
        <ele>197.32300032</ele>
        <time>2020-08-08T06:06:27.000Z</time>
      </trkpt>
      <trkpt lat="43.69178" lon="3.74827">
        <ele>197.42300032</ele>
        <time>2020-08-08T06:06:28.000Z</time>
      </trkpt>
      <trkpt lat="43.6918" lon="3.74829">
        <ele>197.52300032</ele>
        <time>2020-08-08T06:06:29.000Z</time>
      </trkpt>
      <trkpt lat="43.69181" lon="3.74832">
        <ele>197.62300032</ele>
        <time>2020-08-08T06:06:30.000Z</time>
      </trkpt>
      <trkpt lat="43.69182" lon="3.74835">
        <ele>197.72300032</ele>
        <time>2020-08-08T06:06:31.000Z</time>
      </trkpt>
      <trkpt lat="43.69184" lon="3.74837">
        <ele>197.82300032</ele>
        <time>2020-08-08T06:06:32.000Z</time>
      </trkpt>
      <trkpt lat="43.69185" lon="3.74839">
        <ele>197.92300032</ele>
        <time>2020-08-08T06:06:33.000Z</time>
      </trkpt>
      <trkpt lat="43.69185" lon="3.7484">
        <ele>198</ele>
        <time>2020-08-08T06:06:40.000Z</time>
      </trkpt>
      <trkpt lat="43.69187" lon="3.74852">
        <ele>198.09826001171</ele>
        <time>2020-08-08T06:07:09.000Z</time>
      </trkpt>
      <trkpt lat="43.69188" lon="3.74856">
        <ele>198.20061419058</ele>
        <time>2020-08-08T06:07:10.000Z</time>
      </trkpt>
      <trkpt lat="43.69189" lon="3.7486">
        <ele>198.30296836945</ele>
        <time>2020-08-08T06:07:11.000Z</time>
      </trkpt>
      <trkpt lat="43.6919" lon="3.74864">
        <ele>198.40532254831</ele>
        <time>2020-08-08T06:07:12.000Z</time>
      </trkpt>
      <trkpt lat="43.6919" lon="3.74869">
        <ele>198.50767672718</ele>
        <time>2020-08-08T06:07:13.000Z</time>
      </trkpt>
      <trkpt lat="43.6919" lon="3.74873">
        <ele>198.61003090605</ele>
        <time>2020-08-08T06:07:14.000Z</time>
      </trkpt>
      <trkpt lat="43.69191" lon="3.74878">
        <ele>198.71238508492</ele>
        <time>2020-08-08T06:07:15.000Z</time>
      </trkpt>
      <trkpt lat="43.69191" lon="3.74882">
        <ele>198.81473926378</ele>
        <time>2020-08-08T06:07:16.000Z</time>
      </trkpt>
      <trkpt lat="43.69191" lon="3.74887">
        <ele>198.91709344265</ele>
        <time>2020-08-08T06:07:17.000Z</time>
      </trkpt>
      <trkpt lat="43.69191" lon="3.74891">
        <ele>199.01853870911</ele>
        <time>2020-08-08T06:07:18.000Z</time>
      </trkpt>
      <trkpt lat="43.69191" lon="3.74896">
        <ele>199.11610921902</ele>
        <time>2020-08-08T06:07:19.000Z</time>
      </trkpt>
      <trkpt lat="43.6919" lon="3.749">
        <ele>199.21367972894</ele>
        <time>2020-08-08T06:07:20.000Z</time>
      </trkpt>
      <trkpt lat="43.69189" lon="3.74904">
        <ele>199.31125023885</ele>
        <time>2020-08-08T06:07:21.000Z</time>
      </trkpt>
      <trkpt lat="43.69189" lon="3.74908">
        <ele>199.40882074877</ele>
        <time>2020-08-08T06:07:22.000Z</time>
      </trkpt>
      <trkpt lat="43.69188" lon="3.74912">
        <ele>199.50639125868</ele>
        <time>2020-08-08T06:07:23.000Z</time>
      </trkpt>
      <trkpt lat="43.69188" lon="3.74917">
        <ele>199.6039617686</ele>
        <time>2020-08-08T06:07:24.000Z</time>
      </trkpt>
      <trkpt lat="43.69188" lon="3.74921">
        <ele>199.70153227851</ele>
        <time>2020-08-08T06:07:25.000Z</time>
      </trkpt>
      <trkpt lat="43.69189" lon="3.74926">
        <ele>199.79910278842</ele>
        <time>2020-08-08T06:07:26.000Z</time>
      </trkpt>
      <trkpt lat="43.6919" lon="3.7493">
        <ele>199.89667329834</ele>
        <time>2020-08-08T06:07:27.000Z</time>
      </trkpt>
      <trkpt lat="43.69192" lon="3.74933">
        <ele>199.99424380825</ele>
        <time>2020-08-08T06:07:28.000Z</time>
      </trkpt>
      <trkpt lat="43.69193" lon="3.74937">
        <ele>200.0965033992</ele>
        <time>2020-08-08T06:07:29.000Z</time>
      </trkpt>
      <trkpt lat="43.69195" lon="3.7494">
        <ele>200.19905696662</ele>
        <time>2020-08-08T06:07:30.000Z</time>
      </trkpt>
      <trkpt lat="43.69197" lon="3.74944">
        <ele>200.30161053404</ele>
        <time>2020-08-08T06:07:31.000Z</time>
      </trkpt>
      <trkpt lat="43.69199" lon="3.74947">
        <ele>200.40416410146</ele>
        <time>2020-08-08T06:07:32.000Z</time>
      </trkpt>
      <trkpt lat="43.69201" lon="3.7495">
        <ele>200.50671766888</ele>
        <time>2020-08-08T06:07:33.000Z</time>
      </trkpt>
      <trkpt lat="43.69203" lon="3.74952">
        <ele>200.6092712363</ele>
        <time>2020-08-08T06:07:34.000Z</time>
      </trkpt>
      <trkpt lat="43.69205" lon="3.74955">
        <ele>200.71182480372</ele>
        <time>2020-08-08T06:07:35.000Z</time>
      </trkpt>
      <trkpt lat="43.69206" lon="3.74958">
        <ele>200.81437837114</ele>
        <time>2020-08-08T06:07:36.000Z</time>
      </trkpt>
      <trkpt lat="43.69208" lon="3.7496">
        <ele>200.91693193856</ele>
        <time>2020-08-08T06:07:37.000Z</time>
      </trkpt>
      <trkpt lat="43.6921" lon="3.74963">
        <ele>201</ele>
        <time>2020-08-08T06:07:38.000Z</time>
      </trkpt>
      <trkpt lat="43.69212" lon="3.74965">
        <ele>201</ele>
        <time>2020-08-08T06:07:39.000Z</time>
      </trkpt>
      <trkpt lat="43.69213" lon="3.74967">
        <ele>201</ele>
        <time>2020-08-08T06:07:40.000Z</time>
      </trkpt>
      <trkpt lat="43.69215" lon="3.7497">
        <ele>201</ele>
        <time>2020-08-08T06:07:41.000Z</time>
      </trkpt>
      <trkpt lat="43.69217" lon="3.74972">
        <ele>201</ele>
        <time>2020-08-08T06:07:42.000Z</time>
      </trkpt>
      <trkpt lat="43.69218" lon="3.74975">
        <ele>201</ele>
        <time>2020-08-08T06:07:43.000Z</time>
      </trkpt>
      <trkpt lat="43.69219" lon="3.74978">
        <ele>201</ele>
        <time>2020-08-08T06:07:44.000Z</time>
      </trkpt>
      <trkpt lat="43.69221" lon="3.74981">
        <ele>201</ele>
        <time>2020-08-08T06:07:45.000Z</time>
      </trkpt>
      <trkpt lat="43.69222" lon="3.74983">
        <ele>201</ele>
        <time>2020-08-08T06:07:46.000Z</time>
      </trkpt>
      <trkpt lat="43.69224" lon="3.74985">
        <ele>201</ele>
        <time>2020-08-08T06:07:47.000Z</time>
      </trkpt>
      <trkpt lat="43.69225" lon="3.74987">
        <ele>201.02300032</ele>
        <time>2020-08-08T06:07:48.000Z</time>
      </trkpt>
      <trkpt lat="43.69227" lon="3.74989">
        <ele>201.12300032</ele>
        <time>2020-08-08T06:07:49.000Z</time>
      </trkpt>
      <trkpt lat="43.69229" lon="3.74991">
        <ele>201.22300032</ele>
        <time>2020-08-08T06:07:50.000Z</time>
      </trkpt>
      <trkpt lat="43.69231" lon="3.74993">
        <ele>201.32300032</ele>
        <time>2020-08-08T06:07:51.000Z</time>
      </trkpt>
      <trkpt lat="43.69232" lon="3.74995">
        <ele>201.42300032</ele>
        <time>2020-08-08T06:07:52.000Z</time>
      </trkpt>
      <trkpt lat="43.69234" lon="3.74997">
        <ele>201.52300032</ele>
        <time>2020-08-08T06:07:53.000Z</time>
      </trkpt>
      <trkpt lat="43.69236" lon="3.74999">
        <ele>201.62300032</ele>
        <time>2020-08-08T06:07:54.000Z</time>
      </trkpt>
      <trkpt lat="43.69238" lon="3.75001">
        <ele>201.72300032</ele>
        <time>2020-08-08T06:07:55.000Z</time>
      </trkpt>
      <trkpt lat="43.6924" lon="3.75003">
        <ele>201.82300032</ele>
        <time>2020-08-08T06:07:56.000Z</time>
      </trkpt>
      <trkpt lat="43.69241" lon="3.75005">
        <ele>201.92300032</ele>
        <time>2020-08-08T06:07:57.000Z</time>
      </trkpt>
      <trkpt lat="43.69243" lon="3.75007">
        <ele>202.02300032</ele>
        <time>2020-08-08T06:07:58.000Z</time>
      </trkpt>
      <trkpt lat="43.69245" lon="3.75009">
        <ele>202.12300032</ele>
        <time>2020-08-08T06:07:59.000Z</time>
      </trkpt>
      <trkpt lat="43.69247" lon="3.75011">
        <ele>202.22300032</ele>
        <time>2020-08-08T06:08:00.000Z</time>
      </trkpt>
      <trkpt lat="43.69248" lon="3.75013">
        <ele>202.32300032</ele>
        <time>2020-08-08T06:08:01.000Z</time>
      </trkpt>
      <trkpt lat="43.6925" lon="3.75016">
        <ele>202.42300032</ele>
        <time>2020-08-08T06:08:02.000Z</time>
      </trkpt>
      <trkpt lat="43.69251" lon="3.75019">
        <ele>202.52300032</ele>
        <time>2020-08-08T06:08:03.000Z</time>
      </trkpt>
      <trkpt lat="43.69253" lon="3.75022">
        <ele>202.62300032</ele>
        <time>2020-08-08T06:08:04.000Z</time>
      </trkpt>
      <trkpt lat="43.69254" lon="3.75025">
        <ele>202.72300032</ele>
        <time>2020-08-08T06:08:05.000Z</time>
      </trkpt>
      <trkpt lat="43.69255" lon="3.75028">
        <ele>202.82300032</ele>
        <time>2020-08-08T06:08:06.000Z</time>
      </trkpt>
      <trkpt lat="43.69256" lon="3.75032">
        <ele>202.92300032</ele>
        <time>2020-08-08T06:08:07.000Z</time>
      </trkpt>
      <trkpt lat="43.69256" lon="3.75035">
        <ele>203.02300032</ele>
        <time>2020-08-08T06:08:08.000Z</time>
      </trkpt>
      <trkpt lat="43.69257" lon="3.75039">
        <ele>203.12300032</ele>
        <time>2020-08-08T06:08:09.000Z</time>
      </trkpt>
      <trkpt lat="43.69257" lon="3.75043">
        <ele>203.22300032</ele>
        <time>2020-08-08T06:08:10.000Z</time>
      </trkpt>
      <trkpt lat="43.69258" lon="3.75046">
        <ele>203.32300032</ele>
        <time>2020-08-08T06:08:11.000Z</time>
      </trkpt>
      <trkpt lat="43.69258" lon="3.7505">
        <ele>203.42300032</ele>
        <time>2020-08-08T06:08:12.000Z</time>
      </trkpt>
      <trkpt lat="43.69258" lon="3.75053">
        <ele>203.52300032</ele>
        <time>2020-08-08T06:08:13.000Z</time>
      </trkpt>
      <trkpt lat="43.69258" lon="3.75056">
        <ele>203.62300032</ele>
        <time>2020-08-08T06:08:14.000Z</time>
      </trkpt>
      <trkpt lat="43.69258" lon="3.7506">
        <ele>203.72300032</ele>
        <time>2020-08-08T06:08:15.000Z</time>
      </trkpt>
      <trkpt lat="43.69258" lon="3.75063">
        <ele>203.82300032</ele>
        <time>2020-08-08T06:08:16.000Z</time>
      </trkpt>
      <trkpt lat="43.69257" lon="3.75067">
        <ele>203.92300032</ele>
        <time>2020-08-08T06:08:17.000Z</time>
      </trkpt>
      <trkpt lat="43.69257" lon="3.7507">
        <ele>204.04536549405</ele>
        <time>2020-08-08T06:08:18.000Z</time>
      </trkpt>
      <trkpt lat="43.69257" lon="3.75074">
        <ele>204.24260402834</ele>
        <time>2020-08-08T06:08:19.000Z</time>
      </trkpt>
      <trkpt lat="43.69257" lon="3.75077">
        <ele>204.43984256262</ele>
        <time>2020-08-08T06:08:20.000Z</time>
      </trkpt>
      <trkpt lat="43.69257" lon="3.7508">
        <ele>204.63708109691</ele>
        <time>2020-08-08T06:08:21.000Z</time>
      </trkpt>
      <trkpt lat="43.69257" lon="3.75083">
        <ele>204.8343196312</ele>
        <time>2020-08-08T06:08:22.000Z</time>
      </trkpt>
      <trkpt lat="43.69257" lon="3.75086">
        <ele>205.03155816549</ele>
        <time>2020-08-08T06:08:23.000Z</time>
      </trkpt>
      <trkpt lat="43.69257" lon="3.75089">
        <ele>205.22879669977</ele>
        <time>2020-08-08T06:08:24.000Z</time>
      </trkpt>
      <trkpt lat="43.69257" lon="3.75092">
        <ele>205.42603523406</ele>
        <time>2020-08-08T06:08:25.000Z</time>
      </trkpt>
      <trkpt lat="43.69258" lon="3.75096">
        <ele>205.82051230263</ele>
        <time>2020-08-08T06:08:27.000Z</time>
      </trkpt>
      <trkpt lat="43.69259" lon="3.751">
        <ele>206</ele>
        <time>2020-08-08T06:08:29.000Z</time>
      </trkpt>
      <trkpt lat="43.69261" lon="3.75103">
        <ele>206</ele>
        <time>2020-08-08T06:08:31.000Z</time>
      </trkpt>
      <trkpt lat="43.69263" lon="3.75107">
        <ele>206</ele>
        <time>2020-08-08T06:08:33.000Z</time>
      </trkpt>
      <trkpt lat="43.69265" lon="3.75111">
        <ele>206</ele>
        <time>2020-08-08T06:08:35.000Z</time>
      </trkpt>
      <trkpt lat="43.69267" lon="3.75114">
        <ele>206</ele>
        <time>2020-08-08T06:08:37.000Z</time>
      </trkpt>
      <trkpt lat="43.69269" lon="3.75116">
        <ele>206.12300032</ele>
        <time>2020-08-08T06:08:39.000Z</time>
      </trkpt>
      <trkpt lat="43.69272" lon="3.75117">
        <ele>206.32300032</ele>
        <time>2020-08-08T06:08:41.000Z</time>
      </trkpt>
      <trkpt lat="43.69274" lon="3.7512">
        <ele>206.52300032</ele>
        <time>2020-08-08T06:08:43.000Z</time>
      </trkpt>
      <trkpt lat="43.69276" lon="3.75124">
        <ele>206.72300032</ele>
        <time>2020-08-08T06:08:45.000Z</time>
      </trkpt>
      <trkpt lat="43.69278" lon="3.75126">
        <ele>206.92300032</ele>
        <time>2020-08-08T06:08:47.000Z</time>
      </trkpt>
      <trkpt lat="43.69279" lon="3.75128">
        <ele>207.11965011673</ele>
        <time>2020-08-08T06:08:49.000Z</time>
      </trkpt>
      <trkpt lat="43.69281" lon="3.75131">
        <ele>207.31420264591</ele>
        <time>2020-08-08T06:08:51.000Z</time>
      </trkpt>
      <trkpt lat="43.69283" lon="3.75134">
        <ele>207.5087551751</ele>
        <time>2020-08-08T06:08:53.000Z</time>
      </trkpt>
      <trkpt lat="43.69284" lon="3.75137">
        <ele>207.70330770428</ele>
        <time>2020-08-08T06:08:55.000Z</time>
      </trkpt>
      <trkpt lat="43.69286" lon="3.7514">
        <ele>207.89786023346</ele>
        <time>2020-08-08T06:08:57.000Z</time>
      </trkpt>
      <trkpt lat="43.69289" lon="3.75144">
        <ele>208.09773695473</ele>
        <time>2020-08-08T06:08:59.000Z</time>
      </trkpt>
      <trkpt lat="43.6929" lon="3.75146">
        <ele>208.20061761317</ele>
        <time>2020-08-08T06:09:00.000Z</time>
      </trkpt>
      <trkpt lat="43.69293" lon="3.7515">
        <ele>208.40637893004</ele>
        <time>2020-08-08T06:09:02.000Z</time>
      </trkpt>
      <trkpt lat="43.69294" lon="3.75153">
        <ele>208.50925958848</ele>
        <time>2020-08-08T06:09:03.000Z</time>
      </trkpt>
      <trkpt lat="43.69295" lon="3.75156">
        <ele>208.71502090535</ele>
        <time>2020-08-08T06:09:05.000Z</time>
      </trkpt>
      <trkpt lat="43.69295" lon="3.75154">
        <ele>210.02367954714</ele>
        <time>2020-08-08T06:09:12.000Z</time>
      </trkpt>
      <trkpt lat="43.69305" lon="3.75166">
        <ele>214.10510236735</ele>
        <time>2020-08-08T06:10:37.000Z</time>
      </trkpt>
      <trkpt lat="43.69307" lon="3.75169">
        <ele>214.309184</ele>
        <time>2020-08-08T06:10:39.000Z</time>
      </trkpt>
      <trkpt lat="43.69308" lon="3.75172">
        <ele>214.51326563265</ele>
        <time>2020-08-08T06:10:41.000Z</time>
      </trkpt>
      <trkpt lat="43.6931" lon="3.75176">
        <ele>214.71734726531</ele>
        <time>2020-08-08T06:10:43.000Z</time>
      </trkpt>
      <trkpt lat="43.69311" lon="3.75179">
        <ele>214.92142889796</ele>
        <time>2020-08-08T06:10:45.000Z</time>
      </trkpt>
      <trkpt lat="43.69313" lon="3.75183">
        <ele>215.23930023346</ele>
        <time>2020-08-08T06:10:47.000Z</time>
      </trkpt>
      <trkpt lat="43.69314" lon="3.75186">
        <ele>215.62840529183</ele>
        <time>2020-08-08T06:10:49.000Z</time>
      </trkpt>
      <trkpt lat="43.69315" lon="3.7519">
        <ele>216.0175103502</ele>
        <time>2020-08-08T06:10:51.000Z</time>
      </trkpt>
      <trkpt lat="43.69316" lon="3.75193">
        <ele>216.40661540856</ele>
        <time>2020-08-08T06:10:53.000Z</time>
      </trkpt>
      <trkpt lat="43.69318" lon="3.75196">
        <ele>216.79572046693</ele>
        <time>2020-08-08T06:10:55.000Z</time>
      </trkpt>
      <trkpt lat="43.69319" lon="3.75199">
        <ele>217.19547390946</ele>
        <time>2020-08-08T06:10:57.000Z</time>
      </trkpt>
      <trkpt lat="43.6932" lon="3.75203">
        <ele>217.60699654321</ele>
        <time>2020-08-08T06:10:59.000Z</time>
      </trkpt>
      <trkpt lat="43.69321" lon="3.75206">
        <ele>218.01851917696</ele>
        <time>2020-08-08T06:11:01.000Z</time>
      </trkpt>
      <trkpt lat="43.69322" lon="3.75209">
        <ele>218.4300418107</ele>
        <time>2020-08-08T06:11:03.000Z</time>
      </trkpt>
      <trkpt lat="43.69323" lon="3.75212">
        <ele>218.84156444444</ele>
        <time>2020-08-08T06:11:05.000Z</time>
      </trkpt>
      <trkpt lat="43.69324" lon="3.75216">
        <ele>219.24600064</ele>
        <time>2020-08-08T06:11:07.000Z</time>
      </trkpt>
      <trkpt lat="43.69324" lon="3.75219">
        <ele>219.64600064</ele>
        <time>2020-08-08T06:11:09.000Z</time>
      </trkpt>
      <trkpt lat="43.69325" lon="3.75223">
        <ele>220.04600064</ele>
        <time>2020-08-08T06:11:11.000Z</time>
      </trkpt>
      <trkpt lat="43.69326" lon="3.75226">
        <ele>220.44600064</ele>
        <time>2020-08-08T06:11:13.000Z</time>
      </trkpt>
      <trkpt lat="43.69327" lon="3.75229">
        <ele>220.84600064</ele>
        <time>2020-08-08T06:11:15.000Z</time>
      </trkpt>
      <trkpt lat="43.69329" lon="3.75233">
        <ele>221.24600064</ele>
        <time>2020-08-08T06:11:17.000Z</time>
      </trkpt>
      <trkpt lat="43.6933" lon="3.75236">
        <ele>221.64600064</ele>
        <time>2020-08-08T06:11:19.000Z</time>
      </trkpt>
      <trkpt lat="43.69331" lon="3.7524">
        <ele>222.04600064</ele>
        <time>2020-08-08T06:11:21.000Z</time>
      </trkpt>
      <trkpt lat="43.69333" lon="3.75243">
        <ele>222.44600064</ele>
        <time>2020-08-08T06:11:23.000Z</time>
      </trkpt>
      <trkpt lat="43.69334" lon="3.75247">
        <ele>222.84600064</ele>
        <time>2020-08-08T06:11:25.000Z</time>
      </trkpt>
      <trkpt lat="43.69335" lon="3.75251">
        <ele>223.24600064</ele>
        <time>2020-08-08T06:11:27.000Z</time>
      </trkpt>
      <trkpt lat="43.69336" lon="3.75254">
        <ele>223.64600064</ele>
        <time>2020-08-08T06:11:29.000Z</time>
      </trkpt>
      <trkpt lat="43.69338" lon="3.75258">
        <ele>224.04600064</ele>
        <time>2020-08-08T06:11:31.000Z</time>
      </trkpt>
      <trkpt lat="43.69339" lon="3.75262">
        <ele>224.44600064</ele>
        <time>2020-08-08T06:11:33.000Z</time>
      </trkpt>
      <trkpt lat="43.6934" lon="3.75267">
        <ele>224.84600064</ele>
        <time>2020-08-08T06:11:35.000Z</time>
      </trkpt>
      <trkpt lat="43.69342" lon="3.75271">
        <ele>225.12300032</ele>
        <time>2020-08-08T06:11:37.000Z</time>
      </trkpt>
      <trkpt lat="43.69343" lon="3.75275">
        <ele>225.32300032</ele>
        <time>2020-08-08T06:11:39.000Z</time>
      </trkpt>
      <trkpt lat="43.69345" lon="3.7528">
        <ele>225.52300032</ele>
        <time>2020-08-08T06:11:41.000Z</time>
      </trkpt>
      <trkpt lat="43.69346" lon="3.75284">
        <ele>225.72300032</ele>
        <time>2020-08-08T06:11:43.000Z</time>
      </trkpt>
      <trkpt lat="43.69347" lon="3.75289">
        <ele>225.92300032</ele>
        <time>2020-08-08T06:11:45.000Z</time>
      </trkpt>
      <trkpt lat="43.69348" lon="3.75294">
        <ele>226.12300032</ele>
        <time>2020-08-08T06:11:47.000Z</time>
      </trkpt>
      <trkpt lat="43.69348" lon="3.75296">
        <ele>226.22300032</ele>
        <time>2020-08-08T06:11:48.000Z</time>
      </trkpt>
      <trkpt lat="43.69348" lon="3.75299">
        <ele>226.32300032</ele>
        <time>2020-08-08T06:11:49.000Z</time>
      </trkpt>
      <trkpt lat="43.69349" lon="3.75301">
        <ele>226.42300032</ele>
        <time>2020-08-08T06:11:50.000Z</time>
      </trkpt>
      <trkpt lat="43.6935" lon="3.75306">
        <ele>226.62300032</ele>
        <time>2020-08-08T06:11:52.000Z</time>
      </trkpt>
      <trkpt lat="43.6935" lon="3.7531">
        <ele>226.82300032</ele>
        <time>2020-08-08T06:11:54.000Z</time>
      </trkpt>
      <trkpt lat="43.6935" lon="3.75309">
        <ele>227.02193802179</ele>
        <time>2020-08-08T06:12:00.000Z</time>
      </trkpt>
      <trkpt lat="43.69348" lon="3.75296">
        <ele>229.06999005048</ele>
        <time>2020-08-08T06:13:11.000Z</time>
      </trkpt>
      <trkpt lat="43.69348" lon="3.75293">
        <ele>229.1760345532</ele>
        <time>2020-08-08T06:13:12.000Z</time>
      </trkpt>
      <trkpt lat="43.69349" lon="3.7529">
        <ele>229.28207905592</ele>
        <time>2020-08-08T06:13:13.000Z</time>
      </trkpt>
      <trkpt lat="43.6935" lon="3.75288">
        <ele>229.38812355864</ele>
        <time>2020-08-08T06:13:14.000Z</time>
      </trkpt>
      <trkpt lat="43.69351" lon="3.75286">
        <ele>229.49416806136</ele>
        <time>2020-08-08T06:13:15.000Z</time>
      </trkpt>
      <trkpt lat="43.69353" lon="3.75285">
        <ele>229.60021256409</ele>
        <time>2020-08-08T06:13:16.000Z</time>
      </trkpt>
      <trkpt lat="43.69356" lon="3.75285">
        <ele>229.70625706681</ele>
        <time>2020-08-08T06:13:17.000Z</time>
      </trkpt>
      <trkpt lat="43.69359" lon="3.75285">
        <ele>229.81230156953</ele>
        <time>2020-08-08T06:13:18.000Z</time>
      </trkpt>
      <trkpt lat="43.69362" lon="3.75285">
        <ele>229.91834607225</ele>
        <time>2020-08-08T06:13:19.000Z</time>
      </trkpt>
      <trkpt lat="43.69365" lon="3.75285">
        <ele>230</ele>
        <time>2020-08-08T06:13:20.000Z</time>
      </trkpt>
      <trkpt lat="43.69368" lon="3.75285">
        <ele>230</ele>
        <time>2020-08-08T06:13:21.000Z</time>
      </trkpt>
      <trkpt lat="43.69371" lon="3.75284">
        <ele>230</ele>
        <time>2020-08-08T06:13:22.000Z</time>
      </trkpt>
      <trkpt lat="43.69373" lon="3.75284">
        <ele>230</ele>
        <time>2020-08-08T06:13:23.000Z</time>
      </trkpt>
      <trkpt lat="43.69376" lon="3.75284">
        <ele>230</ele>
        <time>2020-08-08T06:13:24.000Z</time>
      </trkpt>
      <trkpt lat="43.69378" lon="3.75284">
        <ele>230</ele>
        <time>2020-08-08T06:13:25.000Z</time>
      </trkpt>
      <trkpt lat="43.6938" lon="3.75284">
        <ele>230</ele>
        <time>2020-08-08T06:13:26.000Z</time>
      </trkpt>
      <trkpt lat="43.69382" lon="3.75284">
        <ele>230</ele>
        <time>2020-08-08T06:13:27.000Z</time>
      </trkpt>
      <trkpt lat="43.69385" lon="3.75284">
        <ele>230</ele>
        <time>2020-08-08T06:13:28.000Z</time>
      </trkpt>
      <trkpt lat="43.69387" lon="3.75283">
        <ele>230</ele>
        <time>2020-08-08T06:13:29.000Z</time>
      </trkpt>
      <trkpt lat="43.6939" lon="3.75283">
        <ele>230</ele>
        <time>2020-08-08T06:13:30.000Z</time>
      </trkpt>
      <trkpt lat="43.69392" lon="3.75282">
        <ele>230</ele>
        <time>2020-08-08T06:13:31.000Z</time>
      </trkpt>
      <trkpt lat="43.69394" lon="3.75282">
        <ele>230</ele>
        <time>2020-08-08T06:13:32.000Z</time>
      </trkpt>
      <trkpt lat="43.69396" lon="3.75282">
        <ele>230</ele>
        <time>2020-08-08T06:13:33.000Z</time>
      </trkpt>
      <trkpt lat="43.69398" lon="3.75282">
        <ele>230</ele>
        <time>2020-08-08T06:13:34.000Z</time>
      </trkpt>
      <trkpt lat="43.69401" lon="3.75282">
        <ele>230</ele>
        <time>2020-08-08T06:13:35.000Z</time>
      </trkpt>
      <trkpt lat="43.69403" lon="3.75281">
        <ele>230</ele>
        <time>2020-08-08T06:13:36.000Z</time>
      </trkpt>
      <trkpt lat="43.69406" lon="3.7528">
        <ele>230</ele>
        <time>2020-08-08T06:13:37.000Z</time>
      </trkpt>
      <trkpt lat="43.69409" lon="3.7528">
        <ele>230</ele>
        <time>2020-08-08T06:13:38.000Z</time>
      </trkpt>
      <trkpt lat="43.69413" lon="3.75281">
        <ele>230</ele>
        <time>2020-08-08T06:13:39.000Z</time>
      </trkpt>
      <trkpt lat="43.69416" lon="3.75281">
        <ele>230</ele>
        <time>2020-08-08T06:13:40.000Z</time>
      </trkpt>
      <trkpt lat="43.69419" lon="3.75281">
        <ele>230</ele>
        <time>2020-08-08T06:13:41.000Z</time>
      </trkpt>
      <trkpt lat="43.69421" lon="3.7528">
        <ele>230</ele>
        <time>2020-08-08T06:13:42.000Z</time>
      </trkpt>
      <trkpt lat="43.69424" lon="3.75279">
        <ele>230</ele>
        <time>2020-08-08T06:13:43.000Z</time>
      </trkpt>
      <trkpt lat="43.69426" lon="3.75278">
        <ele>230</ele>
        <time>2020-08-08T06:13:44.000Z</time>
      </trkpt>
      <trkpt lat="43.69429" lon="3.75278">
        <ele>230</ele>
        <time>2020-08-08T06:13:45.000Z</time>
      </trkpt>
      <trkpt lat="43.69431" lon="3.75278">
        <ele>230</ele>
        <time>2020-08-08T06:13:46.000Z</time>
      </trkpt>
      <trkpt lat="43.69434" lon="3.75277">
        <ele>230</ele>
        <time>2020-08-08T06:13:47.000Z</time>
      </trkpt>
      <trkpt lat="43.69437" lon="3.75276">
        <ele>230</ele>
        <time>2020-08-08T06:13:48.000Z</time>
      </trkpt>
      <trkpt lat="43.6944" lon="3.75276">
        <ele>230</ele>
        <time>2020-08-08T06:13:49.000Z</time>
      </trkpt>
      <trkpt lat="43.69443" lon="3.75276">
        <ele>229.97699968</ele>
        <time>2020-08-08T06:13:50.000Z</time>
      </trkpt>
      <trkpt lat="43.69446" lon="3.75276">
        <ele>229.87699968</ele>
        <time>2020-08-08T06:13:51.000Z</time>
      </trkpt>
      <trkpt lat="43.69449" lon="3.75275">
        <ele>229.77699968</ele>
        <time>2020-08-08T06:13:52.000Z</time>
      </trkpt>
      <trkpt lat="43.69452" lon="3.75275">
        <ele>229.67699968</ele>
        <time>2020-08-08T06:13:53.000Z</time>
      </trkpt>
      <trkpt lat="43.69455" lon="3.75276">
        <ele>229.57699968</ele>
        <time>2020-08-08T06:13:54.000Z</time>
      </trkpt>
      <trkpt lat="43.69458" lon="3.75277">
        <ele>229.47699968</ele>
        <time>2020-08-08T06:13:55.000Z</time>
      </trkpt>
      <trkpt lat="43.69461" lon="3.75278">
        <ele>229.37699968</ele>
        <time>2020-08-08T06:13:56.000Z</time>
      </trkpt>
      <trkpt lat="43.69463" lon="3.75277">
        <ele>229.27699968</ele>
        <time>2020-08-08T06:13:57.000Z</time>
      </trkpt>
      <trkpt lat="43.69465" lon="3.75276">
        <ele>229.17699968</ele>
        <time>2020-08-08T06:13:58.000Z</time>
      </trkpt>
      <trkpt lat="43.69468" lon="3.75275">
        <ele>229.07699968</ele>
        <time>2020-08-08T06:13:59.000Z</time>
      </trkpt>
      <trkpt lat="43.69471" lon="3.75274">
        <ele>229.02237385214</ele>
        <time>2020-08-08T06:14:00.000Z</time>
      </trkpt>
      <trkpt lat="43.69473" lon="3.75273">
        <ele>229.11965011673</ele>
        <time>2020-08-08T06:14:01.000Z</time>
      </trkpt>
      <trkpt lat="43.69475" lon="3.75272">
        <ele>229.21692638132</ele>
        <time>2020-08-08T06:14:02.000Z</time>
      </trkpt>
      <trkpt lat="43.69477" lon="3.75271">
        <ele>229.31420264591</ele>
        <time>2020-08-08T06:14:03.000Z</time>
      </trkpt>
      <trkpt lat="43.69479" lon="3.7527">
        <ele>229.41147891051</ele>
        <time>2020-08-08T06:14:04.000Z</time>
      </trkpt>
      <trkpt lat="43.69481" lon="3.75269">
        <ele>229.5087551751</ele>
        <time>2020-08-08T06:14:05.000Z</time>
      </trkpt>
      <trkpt lat="43.69484" lon="3.75269">
        <ele>229.70330770428</ele>
        <time>2020-08-08T06:14:07.000Z</time>
      </trkpt>
      <trkpt lat="43.69487" lon="3.75268">
        <ele>229.89786023346</ele>
        <time>2020-08-08T06:14:09.000Z</time>
      </trkpt>
      <trkpt lat="43.6949" lon="3.75267">
        <ele>229.99513649805</ele>
        <time>2020-08-08T06:14:10.000Z</time>
      </trkpt>
      <trkpt lat="43.69493" lon="3.75266">
        <ele>230.09773695473</ele>
        <time>2020-08-08T06:14:11.000Z</time>
      </trkpt>
      <trkpt lat="43.69497" lon="3.75265">
        <ele>230.20061761317</ele>
        <time>2020-08-08T06:14:12.000Z</time>
      </trkpt>
      <trkpt lat="43.695" lon="3.75264">
        <ele>230.30349827161</ele>
        <time>2020-08-08T06:14:13.000Z</time>
      </trkpt>
      <trkpt lat="43.69503" lon="3.75264">
        <ele>230.40637893004</ele>
        <time>2020-08-08T06:14:14.000Z</time>
      </trkpt>
      <trkpt lat="43.69506" lon="3.75263">
        <ele>230.50925958848</ele>
        <time>2020-08-08T06:14:15.000Z</time>
      </trkpt>
      <trkpt lat="43.69508" lon="3.75262">
        <ele>230.61214024691</ele>
        <time>2020-08-08T06:14:16.000Z</time>
      </trkpt>
      <trkpt lat="43.69511" lon="3.75262">
        <ele>230.71502090535</ele>
        <time>2020-08-08T06:14:17.000Z</time>
      </trkpt>
      <trkpt lat="43.69514" lon="3.75262">
        <ele>230.81790156379</ele>
        <time>2020-08-08T06:14:18.000Z</time>
      </trkpt>
      <trkpt lat="43.69517" lon="3.75262">
        <ele>230.92078222222</ele>
        <time>2020-08-08T06:14:19.000Z</time>
      </trkpt>
      <trkpt lat="43.6952" lon="3.75263">
        <ele>231</ele>
        <time>2020-08-08T06:14:20.000Z</time>
      </trkpt>
      <trkpt lat="43.69522" lon="3.75263">
        <ele>231</ele>
        <time>2020-08-08T06:14:21.000Z</time>
      </trkpt>
      <trkpt lat="43.69524" lon="3.75262">
        <ele>231</ele>
        <time>2020-08-08T06:14:22.000Z</time>
      </trkpt>
      <trkpt lat="43.69526" lon="3.75262">
        <ele>231</ele>
        <time>2020-08-08T06:14:23.000Z</time>
      </trkpt>
      <trkpt lat="43.69528" lon="3.75262">
        <ele>231</ele>
        <time>2020-08-08T06:14:24.000Z</time>
      </trkpt>
      <trkpt lat="43.6953" lon="3.75263">
        <ele>231</ele>
        <time>2020-08-08T06:14:25.000Z</time>
      </trkpt>
      <trkpt lat="43.69532" lon="3.75263">
        <ele>231</ele>
        <time>2020-08-08T06:14:26.000Z</time>
      </trkpt>
      <trkpt lat="43.69535" lon="3.75263">
        <ele>231</ele>
        <time>2020-08-08T06:14:27.000Z</time>
      </trkpt>
      <trkpt lat="43.69536" lon="3.75262">
        <ele>231</ele>
        <time>2020-08-08T06:14:28.000Z</time>
      </trkpt>
      <trkpt lat="43.69539" lon="3.75261">
        <ele>231</ele>
        <time>2020-08-08T06:14:29.000Z</time>
      </trkpt>
      <trkpt lat="43.69541" lon="3.75261">
        <ele>231</ele>
        <time>2020-08-08T06:14:30.000Z</time>
      </trkpt>
      <trkpt lat="43.69543" lon="3.7526">
        <ele>231</ele>
        <time>2020-08-08T06:14:31.000Z</time>
      </trkpt>
      <trkpt lat="43.69546" lon="3.75259">
        <ele>231</ele>
        <time>2020-08-08T06:14:32.000Z</time>
      </trkpt>
      <trkpt lat="43.69548" lon="3.75258">
        <ele>231</ele>
        <time>2020-08-08T06:14:33.000Z</time>
      </trkpt>
      <trkpt lat="43.6955" lon="3.75257">
        <ele>231</ele>
        <time>2020-08-08T06:14:34.000Z</time>
      </trkpt>
      <trkpt lat="43.69552" lon="3.75257">
        <ele>231</ele>
        <time>2020-08-08T06:14:35.000Z</time>
      </trkpt>
      <trkpt lat="43.69555" lon="3.75256">
        <ele>231</ele>
        <time>2020-08-08T06:14:37.000Z</time>
      </trkpt>
      <trkpt lat="43.69557" lon="3.75255">
        <ele>231</ele>
        <time>2020-08-08T06:14:38.000Z</time>
      </trkpt>
      <trkpt lat="43.6956" lon="3.75253">
        <ele>231</ele>
        <time>2020-08-08T06:14:39.000Z</time>
      </trkpt>
      <trkpt lat="43.69563" lon="3.75252">
        <ele>231.00508614942</ele>
        <time>2020-08-08T06:14:40.000Z</time>
      </trkpt>
      <trkpt lat="43.69566" lon="3.75251">
        <ele>231.10681564857</ele>
        <time>2020-08-08T06:14:41.000Z</time>
      </trkpt>
      <trkpt lat="43.69569" lon="3.75251">
        <ele>231.20854514771</ele>
        <time>2020-08-08T06:14:42.000Z</time>
      </trkpt>
      <trkpt lat="43.69572" lon="3.7525">
        <ele>231.31027464686</ele>
        <time>2020-08-08T06:14:43.000Z</time>
      </trkpt>
      <trkpt lat="43.69575" lon="3.75249">
        <ele>231.41200414601</ele>
        <time>2020-08-08T06:14:44.000Z</time>
      </trkpt>
      <trkpt lat="43.69577" lon="3.75249">
        <ele>231.51373364515</ele>
        <time>2020-08-08T06:14:45.000Z</time>
      </trkpt>
      <trkpt lat="43.6958" lon="3.75248">
        <ele>231.6154631443</ele>
        <time>2020-08-08T06:14:46.000Z</time>
      </trkpt>
      <trkpt lat="43.69583" lon="3.75248">
        <ele>231.71719264344</ele>
        <time>2020-08-08T06:14:47.000Z</time>
      </trkpt>
      <trkpt lat="43.69585" lon="3.75248">
        <ele>231.81892214259</ele>
        <time>2020-08-08T06:14:48.000Z</time>
      </trkpt>
      <trkpt lat="43.69588" lon="3.75248">
        <ele>231.92065164173</ele>
        <time>2020-08-08T06:14:49.000Z</time>
      </trkpt>
      <trkpt lat="43.69591" lon="3.75248">
        <ele>232.02202265561</ele>
        <time>2020-08-08T06:14:50.000Z</time>
      </trkpt>
      <trkpt lat="43.69594" lon="3.75248">
        <ele>232.12212272364</ele>
        <time>2020-08-08T06:14:51.000Z</time>
      </trkpt>
      <trkpt lat="43.69597" lon="3.75247">
        <ele>232.22222279168</ele>
        <time>2020-08-08T06:14:52.000Z</time>
      </trkpt>
      <trkpt lat="43.696" lon="3.75247">
        <ele>232.32232285972</ele>
        <time>2020-08-08T06:14:53.000Z</time>
      </trkpt>
      <trkpt lat="43.69603" lon="3.75247">
        <ele>232.42242292775</ele>
        <time>2020-08-08T06:14:54.000Z</time>
      </trkpt>
      <trkpt lat="43.69606" lon="3.75246">
        <ele>232.52252299579</ele>
        <time>2020-08-08T06:14:55.000Z</time>
      </trkpt>
      <trkpt lat="43.69609" lon="3.75246">
        <ele>232.62262306382</ele>
        <time>2020-08-08T06:14:56.000Z</time>
      </trkpt>
      <trkpt lat="43.69612" lon="3.75245">
        <ele>232.72272313186</ele>
        <time>2020-08-08T06:14:57.000Z</time>
      </trkpt>
      <trkpt lat="43.69614" lon="3.75244">
        <ele>232.8228231999</ele>
        <time>2020-08-08T06:14:58.000Z</time>
      </trkpt>
      <trkpt lat="43.69617" lon="3.75242">
        <ele>232.92292326793</ele>
        <time>2020-08-08T06:14:59.000Z</time>
      </trkpt>
      <trkpt lat="43.69619" lon="3.75241">
        <ele>232.97699968</ele>
        <time>2020-08-08T06:15:00.000Z</time>
      </trkpt>
      <trkpt lat="43.69622" lon="3.75241">
        <ele>232.87699968</ele>
        <time>2020-08-08T06:15:01.000Z</time>
      </trkpt>
      <trkpt lat="43.69625" lon="3.7524">
        <ele>232.77699968</ele>
        <time>2020-08-08T06:15:02.000Z</time>
      </trkpt>
      <trkpt lat="43.69628" lon="3.7524">
        <ele>232.67699968</ele>
        <time>2020-08-08T06:15:03.000Z</time>
      </trkpt>
      <trkpt lat="43.69631" lon="3.75239">
        <ele>232.57699968</ele>
        <time>2020-08-08T06:15:04.000Z</time>
      </trkpt>
      <trkpt lat="43.69634" lon="3.75238">
        <ele>232.47699968</ele>
        <time>2020-08-08T06:15:05.000Z</time>
      </trkpt>
      <trkpt lat="43.69637" lon="3.75238">
        <ele>232.37699968</ele>
        <time>2020-08-08T06:15:06.000Z</time>
      </trkpt>
      <trkpt lat="43.6964" lon="3.75238">
        <ele>232.27699968</ele>
        <time>2020-08-08T06:15:07.000Z</time>
      </trkpt>
      <trkpt lat="43.69643" lon="3.75237">
        <ele>232.17699968</ele>
        <time>2020-08-08T06:15:08.000Z</time>
      </trkpt>
      <trkpt lat="43.69646" lon="3.75237">
        <ele>232.07699968</ele>
        <time>2020-08-08T06:15:09.000Z</time>
      </trkpt>
      <trkpt lat="43.69649" lon="3.75236">
        <ele>231.97699968</ele>
        <time>2020-08-08T06:15:10.000Z</time>
      </trkpt>
      <trkpt lat="43.69652" lon="3.75236">
        <ele>231.87699968</ele>
        <time>2020-08-08T06:15:11.000Z</time>
      </trkpt>
      <trkpt lat="43.69655" lon="3.75237">
        <ele>231.77699968</ele>
        <time>2020-08-08T06:15:12.000Z</time>
      </trkpt>
      <trkpt lat="43.69658" lon="3.75237">
        <ele>231.67699968</ele>
        <time>2020-08-08T06:15:13.000Z</time>
      </trkpt>
      <trkpt lat="43.69661" lon="3.75238">
        <ele>231.57699968</ele>
        <time>2020-08-08T06:15:14.000Z</time>
      </trkpt>
      <trkpt lat="43.69664" lon="3.75238">
        <ele>231.47699968</ele>
        <time>2020-08-08T06:15:15.000Z</time>
      </trkpt>
      <trkpt lat="43.69667" lon="3.75239">
        <ele>231.37699968</ele>
        <time>2020-08-08T06:15:16.000Z</time>
      </trkpt>
      <trkpt lat="43.6967" lon="3.7524">
        <ele>231.27699968</ele>
        <time>2020-08-08T06:15:17.000Z</time>
      </trkpt>
      <trkpt lat="43.69672" lon="3.75241">
        <ele>231.17699968</ele>
        <time>2020-08-08T06:15:18.000Z</time>
      </trkpt>
      <trkpt lat="43.69675" lon="3.75242">
        <ele>231.07699968</ele>
        <time>2020-08-08T06:15:19.000Z</time>
      </trkpt>
      <trkpt lat="43.69678" lon="3.75243">
        <ele>230.97699968</ele>
        <time>2020-08-08T06:15:20.000Z</time>
      </trkpt>
      <trkpt lat="43.6968" lon="3.75243">
        <ele>230.87699968</ele>
        <time>2020-08-08T06:15:21.000Z</time>
      </trkpt>
      <trkpt lat="43.69684" lon="3.75244">
        <ele>230.77699968</ele>
        <time>2020-08-08T06:15:22.000Z</time>
      </trkpt>
      <trkpt lat="43.69687" lon="3.75244">
        <ele>230.67699968</ele>
        <time>2020-08-08T06:15:23.000Z</time>
      </trkpt>
      <trkpt lat="43.6969" lon="3.75244">
        <ele>230.57699968</ele>
        <time>2020-08-08T06:15:24.000Z</time>
      </trkpt>
      <trkpt lat="43.69693" lon="3.75244">
        <ele>230.47699968</ele>
        <time>2020-08-08T06:15:25.000Z</time>
      </trkpt>
      <trkpt lat="43.69696" lon="3.75244">
        <ele>230.37699968</ele>
        <time>2020-08-08T06:15:26.000Z</time>
      </trkpt>
      <trkpt lat="43.69698" lon="3.75244">
        <ele>230.27699968</ele>
        <time>2020-08-08T06:15:27.000Z</time>
      </trkpt>
      <trkpt lat="43.69701" lon="3.75245">
        <ele>230.17699968</ele>
        <time>2020-08-08T06:15:28.000Z</time>
      </trkpt>
      <trkpt lat="43.69705" lon="3.75245">
        <ele>230.07699968</ele>
        <time>2020-08-08T06:15:29.000Z</time>
      </trkpt>
      <trkpt lat="43.69708" lon="3.75246">
        <ele>229.97699968</ele>
        <time>2020-08-08T06:15:30.000Z</time>
      </trkpt>
      <trkpt lat="43.6971" lon="3.75246">
        <ele>229.87699968</ele>
        <time>2020-08-08T06:15:31.000Z</time>
      </trkpt>
      <trkpt lat="43.69713" lon="3.75246">
        <ele>229.77699968</ele>
        <time>2020-08-08T06:15:32.000Z</time>
      </trkpt>
      <trkpt lat="43.69715" lon="3.75246">
        <ele>229.67699968</ele>
        <time>2020-08-08T06:15:33.000Z</time>
      </trkpt>
      <trkpt lat="43.69718" lon="3.75245">
        <ele>229.57699968</ele>
        <time>2020-08-08T06:15:34.000Z</time>
      </trkpt>
      <trkpt lat="43.6972" lon="3.75244">
        <ele>229.47699968</ele>
        <time>2020-08-08T06:15:35.000Z</time>
      </trkpt>
      <trkpt lat="43.69723" lon="3.75244">
        <ele>229.37699968</ele>
        <time>2020-08-08T06:15:36.000Z</time>
      </trkpt>
      <trkpt lat="43.69725" lon="3.75244">
        <ele>229.27699968</ele>
        <time>2020-08-08T06:15:37.000Z</time>
      </trkpt>
      <trkpt lat="43.69727" lon="3.75245">
        <ele>229.17699968</ele>
        <time>2020-08-08T06:15:38.000Z</time>
      </trkpt>
      <trkpt lat="43.6973" lon="3.75245">
        <ele>229.07699968</ele>
        <time>2020-08-08T06:15:39.000Z</time>
      </trkpt>
      <trkpt lat="43.69732" lon="3.75246">
        <ele>229</ele>
        <time>2020-08-08T06:15:40.000Z</time>
      </trkpt>
      <trkpt lat="43.69734" lon="3.75246">
        <ele>229</ele>
        <time>2020-08-08T06:15:41.000Z</time>
      </trkpt>
      <trkpt lat="43.69738" lon="3.75246">
        <ele>229</ele>
        <time>2020-08-08T06:15:43.000Z</time>
      </trkpt>
      <trkpt lat="43.6974" lon="3.75246">
        <ele>229</ele>
        <time>2020-08-08T06:15:44.000Z</time>
      </trkpt>
      <trkpt lat="43.69743" lon="3.75248">
        <ele>229</ele>
        <time>2020-08-08T06:15:46.000Z</time>
      </trkpt>
      <trkpt lat="43.69745" lon="3.75248">
        <ele>229</ele>
        <time>2020-08-08T06:15:48.000Z</time>
      </trkpt>
      <trkpt lat="43.69748" lon="3.75249">
        <ele>229</ele>
        <time>2020-08-08T06:15:50.000Z</time>
      </trkpt>
      <trkpt lat="43.69751" lon="3.7525">
        <ele>229</ele>
        <time>2020-08-08T06:15:52.000Z</time>
      </trkpt>
      <trkpt lat="43.69755" lon="3.75252">
        <ele>229</ele>
        <time>2020-08-08T06:15:54.000Z</time>
      </trkpt>
      <trkpt lat="43.69757" lon="3.75252">
        <ele>229</ele>
        <time>2020-08-08T06:15:55.000Z</time>
      </trkpt>
      <trkpt lat="43.69759" lon="3.75253">
        <ele>229</ele>
        <time>2020-08-08T06:15:56.000Z</time>
      </trkpt>
      <trkpt lat="43.69761" lon="3.75253">
        <ele>229</ele>
        <time>2020-08-08T06:15:57.000Z</time>
      </trkpt>
      <trkpt lat="43.69762" lon="3.75253">
        <ele>229</ele>
        <time>2020-08-08T06:15:58.000Z</time>
      </trkpt>
      <trkpt lat="43.69764" lon="3.75253">
        <ele>229</ele>
        <time>2020-08-08T06:15:59.000Z</time>
      </trkpt>
      <trkpt lat="43.69766" lon="3.75253">
        <ele>229.02300032</ele>
        <time>2020-08-08T06:16:00.000Z</time>
      </trkpt>
      <trkpt lat="43.69768" lon="3.75253">
        <ele>229.12300032</ele>
        <time>2020-08-08T06:16:01.000Z</time>
      </trkpt>
      <trkpt lat="43.69771" lon="3.75253">
        <ele>229.22300032</ele>
        <time>2020-08-08T06:16:02.000Z</time>
      </trkpt>
      <trkpt lat="43.69772" lon="3.75253">
        <ele>229.32300032</ele>
        <time>2020-08-08T06:16:03.000Z</time>
      </trkpt>
      <trkpt lat="43.69774" lon="3.75253">
        <ele>229.42300032</ele>
        <time>2020-08-08T06:16:04.000Z</time>
      </trkpt>
      <trkpt lat="43.69777" lon="3.75252">
        <ele>229.52300032</ele>
        <time>2020-08-08T06:16:05.000Z</time>
      </trkpt>
      <trkpt lat="43.69779" lon="3.75252">
        <ele>229.62300032</ele>
        <time>2020-08-08T06:16:06.000Z</time>
      </trkpt>
      <trkpt lat="43.69781" lon="3.75251">
        <ele>229.72300032</ele>
        <time>2020-08-08T06:16:07.000Z</time>
      </trkpt>
      <trkpt lat="43.69783" lon="3.75251">
        <ele>229.82300032</ele>
        <time>2020-08-08T06:16:08.000Z</time>
      </trkpt>
      <trkpt lat="43.69785" lon="3.7525">
        <ele>229.92300032</ele>
        <time>2020-08-08T06:16:09.000Z</time>
      </trkpt>
      <trkpt lat="43.69788" lon="3.7525">
        <ele>230.02300032</ele>
        <time>2020-08-08T06:16:10.000Z</time>
      </trkpt>
      <trkpt lat="43.6979" lon="3.75249">
        <ele>230.12300032</ele>
        <time>2020-08-08T06:16:11.000Z</time>
      </trkpt>
      <trkpt lat="43.69793" lon="3.75248">
        <ele>230.22300032</ele>
        <time>2020-08-08T06:16:12.000Z</time>
      </trkpt>
      <trkpt lat="43.69795" lon="3.75246">
        <ele>230.32300032</ele>
        <time>2020-08-08T06:16:13.000Z</time>
      </trkpt>
      <trkpt lat="43.69797" lon="3.75245">
        <ele>230.42300032</ele>
        <time>2020-08-08T06:16:14.000Z</time>
      </trkpt>
      <trkpt lat="43.698" lon="3.75245">
        <ele>230.52300032</ele>
        <time>2020-08-08T06:16:15.000Z</time>
      </trkpt>
      <trkpt lat="43.69802" lon="3.75245">
        <ele>230.62300032</ele>
        <time>2020-08-08T06:16:16.000Z</time>
      </trkpt>
      <trkpt lat="43.69805" lon="3.75245">
        <ele>230.72300032</ele>
        <time>2020-08-08T06:16:17.000Z</time>
      </trkpt>
      <trkpt lat="43.69808" lon="3.75244">
        <ele>230.82300032</ele>
        <time>2020-08-08T06:16:18.000Z</time>
      </trkpt>
      <trkpt lat="43.6981" lon="3.75244">
        <ele>230.92300032</ele>
        <time>2020-08-08T06:16:19.000Z</time>
      </trkpt>
      <trkpt lat="43.69812" lon="3.75244">
        <ele>231.03190059668</ele>
        <time>2020-08-08T06:16:20.000Z</time>
      </trkpt>
      <trkpt lat="43.69814" lon="3.75245">
        <ele>231.17059691344</ele>
        <time>2020-08-08T06:16:21.000Z</time>
      </trkpt>
      <trkpt lat="43.69816" lon="3.75245">
        <ele>232</ele>
        <time>2020-08-08T06:16:28.000Z</time>
      </trkpt>
      <trkpt lat="43.69825" lon="3.75244">
        <ele>232</ele>
        <time>2020-08-08T06:16:33.000Z</time>
      </trkpt>
      <trkpt lat="43.69827" lon="3.75243">
        <ele>232</ele>
        <time>2020-08-08T06:16:34.000Z</time>
      </trkpt>
      <trkpt lat="43.69829" lon="3.75242">
        <ele>232</ele>
        <time>2020-08-08T06:16:35.000Z</time>
      </trkpt>
      <trkpt lat="43.69831" lon="3.75242">
        <ele>232</ele>
        <time>2020-08-08T06:16:36.000Z</time>
      </trkpt>
      <trkpt lat="43.69833" lon="3.75242">
        <ele>232</ele>
        <time>2020-08-08T06:16:37.000Z</time>
      </trkpt>
      <trkpt lat="43.69836" lon="3.75242">
        <ele>232</ele>
        <time>2020-08-08T06:16:38.000Z</time>
      </trkpt>
      <trkpt lat="43.69839" lon="3.75242">
        <ele>232</ele>
        <time>2020-08-08T06:16:39.000Z</time>
      </trkpt>
      <trkpt lat="43.69842" lon="3.75242">
        <ele>232</ele>
        <time>2020-08-08T06:16:40.000Z</time>
      </trkpt>
      <trkpt lat="43.69845" lon="3.75242">
        <ele>232</ele>
        <time>2020-08-08T06:16:41.000Z</time>
      </trkpt>
      <trkpt lat="43.69848" lon="3.75242">
        <ele>232</ele>
        <time>2020-08-08T06:16:42.000Z</time>
      </trkpt>
      <trkpt lat="43.69851" lon="3.75242">
        <ele>232</ele>
        <time>2020-08-08T06:16:43.000Z</time>
      </trkpt>
      <trkpt lat="43.69854" lon="3.75242">
        <ele>232</ele>
        <time>2020-08-08T06:16:44.000Z</time>
      </trkpt>
      <trkpt lat="43.69857" lon="3.75242">
        <ele>232</ele>
        <time>2020-08-08T06:16:45.000Z</time>
      </trkpt>
      <trkpt lat="43.6986" lon="3.75242">
        <ele>232</ele>
        <time>2020-08-08T06:16:46.000Z</time>
      </trkpt>
      <trkpt lat="43.69864" lon="3.75242">
        <ele>232</ele>
        <time>2020-08-08T06:16:47.000Z</time>
      </trkpt>
      <trkpt lat="43.69867" lon="3.75242">
        <ele>232</ele>
        <time>2020-08-08T06:16:48.000Z</time>
      </trkpt>
      <trkpt lat="43.69869" lon="3.75242">
        <ele>232</ele>
        <time>2020-08-08T06:16:49.000Z</time>
      </trkpt>
      <trkpt lat="43.69872" lon="3.75243">
        <ele>232</ele>
        <time>2020-08-08T06:16:50.000Z</time>
      </trkpt>
      <trkpt lat="43.69875" lon="3.75244">
        <ele>232</ele>
        <time>2020-08-08T06:16:51.000Z</time>
      </trkpt>
      <trkpt lat="43.69878" lon="3.75244">
        <ele>232</ele>
        <time>2020-08-08T06:16:52.000Z</time>
      </trkpt>
      <trkpt lat="43.69882" lon="3.75245">
        <ele>232</ele>
        <time>2020-08-08T06:16:53.000Z</time>
      </trkpt>
      <trkpt lat="43.69885" lon="3.75247">
        <ele>232</ele>
        <time>2020-08-08T06:16:54.000Z</time>
      </trkpt>
      <trkpt lat="43.69888" lon="3.75248">
        <ele>232</ele>
        <time>2020-08-08T06:16:55.000Z</time>
      </trkpt>
      <trkpt lat="43.69891" lon="3.75249">
        <ele>232</ele>
        <time>2020-08-08T06:16:56.000Z</time>
      </trkpt>
      <trkpt lat="43.69894" lon="3.7525">
        <ele>232</ele>
        <time>2020-08-08T06:16:57.000Z</time>
      </trkpt>
      <trkpt lat="43.69897" lon="3.75251">
        <ele>232</ele>
        <time>2020-08-08T06:16:58.000Z</time>
      </trkpt>
      <trkpt lat="43.699" lon="3.75251">
        <ele>232</ele>
        <time>2020-08-08T06:16:59.000Z</time>
      </trkpt>
      <trkpt lat="43.69903" lon="3.75252">
        <ele>232</ele>
        <time>2020-08-08T06:17:00.000Z</time>
      </trkpt>
      <trkpt lat="43.69906" lon="3.75252">
        <ele>232</ele>
        <time>2020-08-08T06:17:01.000Z</time>
      </trkpt>
      <trkpt lat="43.69909" lon="3.75252">
        <ele>232</ele>
        <time>2020-08-08T06:17:02.000Z</time>
      </trkpt>
      <trkpt lat="43.69912" lon="3.75252">
        <ele>231.90226304527</ele>
        <time>2020-08-08T06:17:03.000Z</time>
      </trkpt>
      <trkpt lat="43.69915" lon="3.75252">
        <ele>231.79938238683</ele>
        <time>2020-08-08T06:17:04.000Z</time>
      </trkpt>
      <trkpt lat="43.69918" lon="3.75251">
        <ele>231.69650172839</ele>
        <time>2020-08-08T06:17:05.000Z</time>
      </trkpt>
      <trkpt lat="43.69921" lon="3.75251">
        <ele>231.59362106996</ele>
        <time>2020-08-08T06:17:06.000Z</time>
      </trkpt>
      <trkpt lat="43.69923" lon="3.75251">
        <ele>231.49074041152</ele>
        <time>2020-08-08T06:17:07.000Z</time>
      </trkpt>
      <trkpt lat="43.69925" lon="3.7525">
        <ele>231.38785975309</ele>
        <time>2020-08-08T06:17:08.000Z</time>
      </trkpt>
      <trkpt lat="43.69928" lon="3.7525">
        <ele>231.28497909465</ele>
        <time>2020-08-08T06:17:09.000Z</time>
      </trkpt>
      <trkpt lat="43.69931" lon="3.7525">
        <ele>231.18209843621</ele>
        <time>2020-08-08T06:17:10.000Z</time>
      </trkpt>
      <trkpt lat="43.69934" lon="3.75249">
        <ele>231.07921777778</ele>
        <time>2020-08-08T06:17:11.000Z</time>
      </trkpt>
      <trkpt lat="43.69937" lon="3.75249">
        <ele>231</ele>
        <time>2020-08-08T06:17:12.000Z</time>
      </trkpt>
      <trkpt lat="43.69939" lon="3.75249">
        <ele>231</ele>
        <time>2020-08-08T06:17:13.000Z</time>
      </trkpt>
      <trkpt lat="43.69942" lon="3.75249">
        <ele>231</ele>
        <time>2020-08-08T06:17:14.000Z</time>
      </trkpt>
      <trkpt lat="43.69944" lon="3.75249">
        <ele>231</ele>
        <time>2020-08-08T06:17:15.000Z</time>
      </trkpt>
      <trkpt lat="43.69946" lon="3.75249">
        <ele>231</ele>
        <time>2020-08-08T06:17:16.000Z</time>
      </trkpt>
      <trkpt lat="43.69948" lon="3.75249">
        <ele>231</ele>
        <time>2020-08-08T06:17:17.000Z</time>
      </trkpt>
      <trkpt lat="43.69951" lon="3.75249">
        <ele>231</ele>
        <time>2020-08-08T06:17:18.000Z</time>
      </trkpt>
      <trkpt lat="43.69954" lon="3.75249">
        <ele>231</ele>
        <time>2020-08-08T06:17:19.000Z</time>
      </trkpt>
      <trkpt lat="43.69957" lon="3.75249">
        <ele>231</ele>
        <time>2020-08-08T06:17:20.000Z</time>
      </trkpt>
      <trkpt lat="43.6996" lon="3.7525">
        <ele>231</ele>
        <time>2020-08-08T06:17:21.000Z</time>
      </trkpt>
      <trkpt lat="43.69963" lon="3.7525">
        <ele>231</ele>
        <time>2020-08-08T06:17:22.000Z</time>
      </trkpt>
      <trkpt lat="43.69966" lon="3.7525">
        <ele>231</ele>
        <time>2020-08-08T06:17:23.000Z</time>
      </trkpt>
      <trkpt lat="43.69969" lon="3.75249">
        <ele>231</ele>
        <time>2020-08-08T06:17:24.000Z</time>
      </trkpt>
      <trkpt lat="43.69972" lon="3.75249">
        <ele>231</ele>
        <time>2020-08-08T06:17:25.000Z</time>
      </trkpt>
      <trkpt lat="43.69975" lon="3.7525">
        <ele>231</ele>
        <time>2020-08-08T06:17:26.000Z</time>
      </trkpt>
      <trkpt lat="43.69978" lon="3.7525">
        <ele>231</ele>
        <time>2020-08-08T06:17:27.000Z</time>
      </trkpt>
      <trkpt lat="43.6998" lon="3.75251">
        <ele>231</ele>
        <time>2020-08-08T06:17:28.000Z</time>
      </trkpt>
      <trkpt lat="43.69982" lon="3.7525">
        <ele>231</ele>
        <time>2020-08-08T06:17:29.000Z</time>
      </trkpt>
      <trkpt lat="43.69984" lon="3.75251">
        <ele>231</ele>
        <time>2020-08-08T06:17:30.000Z</time>
      </trkpt>
      <trkpt lat="43.69986" lon="3.75252">
        <ele>231</ele>
        <time>2020-08-08T06:17:31.000Z</time>
      </trkpt>
      <trkpt lat="43.69988" lon="3.75253">
        <ele>231</ele>
        <time>2020-08-08T06:17:32.000Z</time>
      </trkpt>
      <trkpt lat="43.6999" lon="3.75254">
        <ele>231</ele>
        <time>2020-08-08T06:17:33.000Z</time>
      </trkpt>
      <trkpt lat="43.69992" lon="3.75254">
        <ele>231</ele>
        <time>2020-08-08T06:17:34.000Z</time>
      </trkpt>
      <trkpt lat="43.69994" lon="3.75254">
        <ele>231</ele>
        <time>2020-08-08T06:17:35.000Z</time>
      </trkpt>
      <trkpt lat="43.69996" lon="3.75254">
        <ele>231</ele>
        <time>2020-08-08T06:17:36.000Z</time>
      </trkpt>
      <trkpt lat="43.69998" lon="3.75253">
        <ele>231</ele>
        <time>2020-08-08T06:17:37.000Z</time>
      </trkpt>
      <trkpt lat="43.7" lon="3.75254">
        <ele>231</ele>
        <time>2020-08-08T06:17:38.000Z</time>
      </trkpt>
      <trkpt lat="43.70003" lon="3.75255">
        <ele>231</ele>
        <time>2020-08-08T06:17:39.000Z</time>
      </trkpt>
      <trkpt lat="43.70005" lon="3.75257">
        <ele>231</ele>
        <time>2020-08-08T06:17:40.000Z</time>
      </trkpt>
      <trkpt lat="43.70007" lon="3.75258">
        <ele>231</ele>
        <time>2020-08-08T06:17:41.000Z</time>
      </trkpt>
      <trkpt lat="43.7001" lon="3.7526">
        <ele>231</ele>
        <time>2020-08-08T06:17:42.000Z</time>
      </trkpt>
      <trkpt lat="43.70013" lon="3.75262">
        <ele>231</ele>
        <time>2020-08-08T06:17:43.000Z</time>
      </trkpt>
      <trkpt lat="43.70015" lon="3.75264">
        <ele>231</ele>
        <time>2020-08-08T06:17:44.000Z</time>
      </trkpt>
      <trkpt lat="43.70017" lon="3.75265">
        <ele>231</ele>
        <time>2020-08-08T06:17:45.000Z</time>
      </trkpt>
      <trkpt lat="43.7002" lon="3.75267">
        <ele>231</ele>
        <time>2020-08-08T06:17:46.000Z</time>
      </trkpt>
      <trkpt lat="43.70022" lon="3.75269">
        <ele>231</ele>
        <time>2020-08-08T06:17:47.000Z</time>
      </trkpt>
      <trkpt lat="43.70025" lon="3.7527">
        <ele>231</ele>
        <time>2020-08-08T06:17:48.000Z</time>
      </trkpt>
      <trkpt lat="43.70027" lon="3.75272">
        <ele>231</ele>
        <time>2020-08-08T06:17:49.000Z</time>
      </trkpt>
      <trkpt lat="43.7003" lon="3.75275">
        <ele>231</ele>
        <time>2020-08-08T06:17:50.000Z</time>
      </trkpt>
      <trkpt lat="43.70032" lon="3.75276">
        <ele>231</ele>
        <time>2020-08-08T06:17:51.000Z</time>
      </trkpt>
      <trkpt lat="43.70035" lon="3.75278">
        <ele>231.02300032</ele>
        <time>2020-08-08T06:17:52.000Z</time>
      </trkpt>
      <trkpt lat="43.70038" lon="3.7528">
        <ele>231.12300032</ele>
        <time>2020-08-08T06:17:53.000Z</time>
      </trkpt>
      <trkpt lat="43.7004" lon="3.75282">
        <ele>231.22300032</ele>
        <time>2020-08-08T06:17:54.000Z</time>
      </trkpt>
      <trkpt lat="43.70043" lon="3.75284">
        <ele>231.32300032</ele>
        <time>2020-08-08T06:17:55.000Z</time>
      </trkpt>
      <trkpt lat="43.70046" lon="3.75285">
        <ele>231.42300032</ele>
        <time>2020-08-08T06:17:56.000Z</time>
      </trkpt>
      <trkpt lat="43.70049" lon="3.75287">
        <ele>231.52300032</ele>
        <time>2020-08-08T06:17:57.000Z</time>
      </trkpt>
      <trkpt lat="43.70051" lon="3.75289">
        <ele>231.62300032</ele>
        <time>2020-08-08T06:17:58.000Z</time>
      </trkpt>
      <trkpt lat="43.70054" lon="3.7529">
        <ele>231.72300032</ele>
        <time>2020-08-08T06:17:59.000Z</time>
      </trkpt>
      <trkpt lat="43.70057" lon="3.75292">
        <ele>231.82300032</ele>
        <time>2020-08-08T06:18:00.000Z</time>
      </trkpt>
      <trkpt lat="43.7006" lon="3.75294">
        <ele>231.92300032</ele>
        <time>2020-08-08T06:18:01.000Z</time>
      </trkpt>
      <trkpt lat="43.70062" lon="3.75295">
        <ele>232</ele>
        <time>2020-08-08T06:18:02.000Z</time>
      </trkpt>
      <trkpt lat="43.70065" lon="3.75297">
        <ele>232</ele>
        <time>2020-08-08T06:18:03.000Z</time>
      </trkpt>
      <trkpt lat="43.70068" lon="3.75298">
        <ele>232</ele>
        <time>2020-08-08T06:18:04.000Z</time>
      </trkpt>
      <trkpt lat="43.7007" lon="3.753">
        <ele>232</ele>
        <time>2020-08-08T06:18:05.000Z</time>
      </trkpt>
      <trkpt lat="43.70073" lon="3.75301">
        <ele>232</ele>
        <time>2020-08-08T06:18:06.000Z</time>
      </trkpt>
      <trkpt lat="43.70076" lon="3.75302">
        <ele>232</ele>
        <time>2020-08-08T06:18:07.000Z</time>
      </trkpt>
      <trkpt lat="43.70079" lon="3.75304">
        <ele>232</ele>
        <time>2020-08-08T06:18:08.000Z</time>
      </trkpt>
      <trkpt lat="43.70082" lon="3.75305">
        <ele>232</ele>
        <time>2020-08-08T06:18:09.000Z</time>
      </trkpt>
      <trkpt lat="43.70085" lon="3.75307">
        <ele>232</ele>
        <time>2020-08-08T06:18:10.000Z</time>
      </trkpt>
      <trkpt lat="43.70088" lon="3.75308">
        <ele>232</ele>
        <time>2020-08-08T06:18:11.000Z</time>
      </trkpt>
      <trkpt lat="43.70091" lon="3.75309">
        <ele>232</ele>
        <time>2020-08-08T06:18:12.000Z</time>
      </trkpt>
      <trkpt lat="43.70094" lon="3.7531">
        <ele>232</ele>
        <time>2020-08-08T06:18:13.000Z</time>
      </trkpt>
      <trkpt lat="43.70097" lon="3.75311">
        <ele>232</ele>
        <time>2020-08-08T06:18:14.000Z</time>
      </trkpt>
      <trkpt lat="43.70099" lon="3.75312">
        <ele>232</ele>
        <time>2020-08-08T06:18:15.000Z</time>
      </trkpt>
      <trkpt lat="43.70102" lon="3.75314">
        <ele>232</ele>
        <time>2020-08-08T06:18:16.000Z</time>
      </trkpt>
      <trkpt lat="43.70105" lon="3.75315">
        <ele>232</ele>
        <time>2020-08-08T06:18:17.000Z</time>
      </trkpt>
      <trkpt lat="43.70108" lon="3.75317">
        <ele>232</ele>
        <time>2020-08-08T06:18:18.000Z</time>
      </trkpt>
      <trkpt lat="43.70111" lon="3.75318">
        <ele>232</ele>
        <time>2020-08-08T06:18:19.000Z</time>
      </trkpt>
      <trkpt lat="43.70114" lon="3.7532">
        <ele>232</ele>
        <time>2020-08-08T06:18:20.000Z</time>
      </trkpt>
      <trkpt lat="43.70116" lon="3.75321">
        <ele>232</ele>
        <time>2020-08-08T06:18:21.000Z</time>
      </trkpt>
      <trkpt lat="43.70119" lon="3.75323">
        <ele>232</ele>
        <time>2020-08-08T06:18:22.000Z</time>
      </trkpt>
      <trkpt lat="43.70122" lon="3.75325">
        <ele>232</ele>
        <time>2020-08-08T06:18:23.000Z</time>
      </trkpt>
      <trkpt lat="43.70125" lon="3.75326">
        <ele>232</ele>
        <time>2020-08-08T06:18:24.000Z</time>
      </trkpt>
      <trkpt lat="43.70128" lon="3.75328">
        <ele>232</ele>
        <time>2020-08-08T06:18:25.000Z</time>
      </trkpt>
      <trkpt lat="43.70131" lon="3.7533">
        <ele>232</ele>
        <time>2020-08-08T06:18:26.000Z</time>
      </trkpt>
      <trkpt lat="43.70134" lon="3.75331">
        <ele>232</ele>
        <time>2020-08-08T06:18:27.000Z</time>
      </trkpt>
      <trkpt lat="43.70136" lon="3.75332">
        <ele>232</ele>
        <time>2020-08-08T06:18:28.000Z</time>
      </trkpt>
      <trkpt lat="43.70139" lon="3.75333">
        <ele>232</ele>
        <time>2020-08-08T06:18:29.000Z</time>
      </trkpt>
      <trkpt lat="43.70142" lon="3.75334">
        <ele>232</ele>
        <time>2020-08-08T06:18:30.000Z</time>
      </trkpt>
      <trkpt lat="43.70145" lon="3.75335">
        <ele>232</ele>
        <time>2020-08-08T06:18:31.000Z</time>
      </trkpt>
      <trkpt lat="43.70148" lon="3.75337">
        <ele>232</ele>
        <time>2020-08-08T06:18:32.000Z</time>
      </trkpt>
      <trkpt lat="43.70151" lon="3.75338">
        <ele>232.09400859504</ele>
        <time>2020-08-08T06:18:33.000Z</time>
      </trkpt>
      <trkpt lat="43.70153" lon="3.7534">
        <ele>232.19731438017</ele>
        <time>2020-08-08T06:18:34.000Z</time>
      </trkpt>
      <trkpt lat="43.70156" lon="3.75342">
        <ele>232.30062016529</ele>
        <time>2020-08-08T06:18:35.000Z</time>
      </trkpt>
      <trkpt lat="43.70158" lon="3.75345">
        <ele>232.40392595041</ele>
        <time>2020-08-08T06:18:36.000Z</time>
      </trkpt>
      <trkpt lat="43.7016" lon="3.75347">
        <ele>232.50723173554</ele>
        <time>2020-08-08T06:18:37.000Z</time>
      </trkpt>
      <trkpt lat="43.70162" lon="3.75349">
        <ele>232.61053752066</ele>
        <time>2020-08-08T06:18:38.000Z</time>
      </trkpt>
      <trkpt lat="43.70164" lon="3.75352">
        <ele>232.71384330578</ele>
        <time>2020-08-08T06:18:39.000Z</time>
      </trkpt>
      <trkpt lat="43.70167" lon="3.75354">
        <ele>232.81714909091</ele>
        <time>2020-08-08T06:18:40.000Z</time>
      </trkpt>
      <trkpt lat="43.70169" lon="3.75356">
        <ele>232.92045487603</ele>
        <time>2020-08-08T06:18:41.000Z</time>
      </trkpt>
      <trkpt lat="43.70172" lon="3.75358">
        <ele>233</ele>
        <time>2020-08-08T06:18:42.000Z</time>
      </trkpt>
      <trkpt lat="43.70174" lon="3.7536">
        <ele>233</ele>
        <time>2020-08-08T06:18:43.000Z</time>
      </trkpt>
      <trkpt lat="43.70176" lon="3.75362">
        <ele>233</ele>
        <time>2020-08-08T06:18:44.000Z</time>
      </trkpt>
      <trkpt lat="43.70179" lon="3.75364">
        <ele>233</ele>
        <time>2020-08-08T06:18:45.000Z</time>
      </trkpt>
      <trkpt lat="43.70181" lon="3.75367">
        <ele>233</ele>
        <time>2020-08-08T06:18:46.000Z</time>
      </trkpt>
      <trkpt lat="43.70183" lon="3.75369">
        <ele>233</ele>
        <time>2020-08-08T06:18:47.000Z</time>
      </trkpt>
      <trkpt lat="43.70185" lon="3.75372">
        <ele>233</ele>
        <time>2020-08-08T06:18:48.000Z</time>
      </trkpt>
      <trkpt lat="43.70187" lon="3.75376">
        <ele>233</ele>
        <time>2020-08-08T06:18:49.000Z</time>
      </trkpt>
      <trkpt lat="43.70189" lon="3.75379">
        <ele>233</ele>
        <time>2020-08-08T06:18:50.000Z</time>
      </trkpt>
      <trkpt lat="43.7019" lon="3.75383">
        <ele>233</ele>
        <time>2020-08-08T06:18:51.000Z</time>
      </trkpt>
      <trkpt lat="43.70192" lon="3.75386">
        <ele>233.01907662651</ele>
        <time>2020-08-08T06:18:52.000Z</time>
      </trkpt>
      <trkpt lat="43.70194" lon="3.75389">
        <ele>233.11947823293</ele>
        <time>2020-08-08T06:18:53.000Z</time>
      </trkpt>
      <trkpt lat="43.70196" lon="3.75392">
        <ele>233.21987983936</ele>
        <time>2020-08-08T06:18:54.000Z</time>
      </trkpt>
      <trkpt lat="43.70198" lon="3.75395">
        <ele>233.32028144578</ele>
        <time>2020-08-08T06:18:55.000Z</time>
      </trkpt>
      <trkpt lat="43.70199" lon="3.75399">
        <ele>233.42068305221</ele>
        <time>2020-08-08T06:18:56.000Z</time>
      </trkpt>
      <trkpt lat="43.70201" lon="3.75402">
        <ele>233.52108465864</ele>
        <time>2020-08-08T06:18:57.000Z</time>
      </trkpt>
      <trkpt lat="43.70203" lon="3.75405">
        <ele>233.62148626506</ele>
        <time>2020-08-08T06:18:58.000Z</time>
      </trkpt>
      <trkpt lat="43.70205" lon="3.75408">
        <ele>233.72188787149</ele>
        <time>2020-08-08T06:18:59.000Z</time>
      </trkpt>
      <trkpt lat="43.70207" lon="3.75412">
        <ele>233.82228947791</ele>
        <time>2020-08-08T06:19:00.000Z</time>
      </trkpt>
      <trkpt lat="43.70209" lon="3.75415">
        <ele>233.92269108434</ele>
        <time>2020-08-08T06:19:01.000Z</time>
      </trkpt>
      <trkpt lat="43.70211" lon="3.75418">
        <ele>234</ele>
        <time>2020-08-08T06:19:02.000Z</time>
      </trkpt>
      <trkpt lat="43.70213" lon="3.75421">
        <ele>234</ele>
        <time>2020-08-08T06:19:03.000Z</time>
      </trkpt>
      <trkpt lat="43.70215" lon="3.75424">
        <ele>234</ele>
        <time>2020-08-08T06:19:04.000Z</time>
      </trkpt>
      <trkpt lat="43.70218" lon="3.75427">
        <ele>234</ele>
        <time>2020-08-08T06:19:05.000Z</time>
      </trkpt>
      <trkpt lat="43.70219" lon="3.7543">
        <ele>234</ele>
        <time>2020-08-08T06:19:06.000Z</time>
      </trkpt>
      <trkpt lat="43.70221" lon="3.75433">
        <ele>234</ele>
        <time>2020-08-08T06:19:07.000Z</time>
      </trkpt>
      <trkpt lat="43.70223" lon="3.75436">
        <ele>234</ele>
        <time>2020-08-08T06:19:08.000Z</time>
      </trkpt>
      <trkpt lat="43.70225" lon="3.75439">
        <ele>234</ele>
        <time>2020-08-08T06:19:09.000Z</time>
      </trkpt>
      <trkpt lat="43.70227" lon="3.75443">
        <ele>234</ele>
        <time>2020-08-08T06:19:10.000Z</time>
      </trkpt>
      <trkpt lat="43.70228" lon="3.75446">
        <ele>234</ele>
        <time>2020-08-08T06:19:11.000Z</time>
      </trkpt>
      <trkpt lat="43.7023" lon="3.75449">
        <ele>234</ele>
        <time>2020-08-08T06:19:12.000Z</time>
      </trkpt>
      <trkpt lat="43.70231" lon="3.75453">
        <ele>234</ele>
        <time>2020-08-08T06:19:13.000Z</time>
      </trkpt>
      <trkpt lat="43.70233" lon="3.75456">
        <ele>234</ele>
        <time>2020-08-08T06:19:14.000Z</time>
      </trkpt>
      <trkpt lat="43.70235" lon="3.7546">
        <ele>234</ele>
        <time>2020-08-08T06:19:15.000Z</time>
      </trkpt>
      <trkpt lat="43.70237" lon="3.75463">
        <ele>234</ele>
        <time>2020-08-08T06:19:16.000Z</time>
      </trkpt>
      <trkpt lat="43.70239" lon="3.75466">
        <ele>234</ele>
        <time>2020-08-08T06:19:17.000Z</time>
      </trkpt>
      <trkpt lat="43.70241" lon="3.7547">
        <ele>234</ele>
        <time>2020-08-08T06:19:18.000Z</time>
      </trkpt>
      <trkpt lat="43.70243" lon="3.75472">
        <ele>234</ele>
        <time>2020-08-08T06:19:19.000Z</time>
      </trkpt>
      <trkpt lat="43.70244" lon="3.75475">
        <ele>234</ele>
        <time>2020-08-08T06:19:20.000Z</time>
      </trkpt>
      <trkpt lat="43.70246" lon="3.75479">
        <ele>234</ele>
        <time>2020-08-08T06:19:21.000Z</time>
      </trkpt>
      <trkpt lat="43.70248" lon="3.75482">
        <ele>234.02290868526</ele>
        <time>2020-08-08T06:19:22.000Z</time>
      </trkpt>
      <trkpt lat="43.7025" lon="3.75485">
        <ele>234.12251027888</ele>
        <time>2020-08-08T06:19:23.000Z</time>
      </trkpt>
      <trkpt lat="43.70252" lon="3.75488">
        <ele>234.22211187251</ele>
        <time>2020-08-08T06:19:24.000Z</time>
      </trkpt>
      <trkpt lat="43.70254" lon="3.75492">
        <ele>234.32171346614</ele>
        <time>2020-08-08T06:19:25.000Z</time>
      </trkpt>
      <trkpt lat="43.70255" lon="3.75495">
        <ele>234.42131505976</ele>
        <time>2020-08-08T06:19:26.000Z</time>
      </trkpt>
      <trkpt lat="43.70257" lon="3.75498">
        <ele>234.52091665339</ele>
        <time>2020-08-08T06:19:27.000Z</time>
      </trkpt>
      <trkpt lat="43.70258" lon="3.75502">
        <ele>234.62051824701</ele>
        <time>2020-08-08T06:19:28.000Z</time>
      </trkpt>
      <trkpt lat="43.7026" lon="3.75505">
        <ele>234.72011984064</ele>
        <time>2020-08-08T06:19:29.000Z</time>
      </trkpt>
      <trkpt lat="43.70261" lon="3.75509">
        <ele>234.81972143426</ele>
        <time>2020-08-08T06:19:30.000Z</time>
      </trkpt>
      <trkpt lat="43.70262" lon="3.75513">
        <ele>234.91932302789</ele>
        <time>2020-08-08T06:19:31.000Z</time>
      </trkpt>
      <trkpt lat="43.70264" lon="3.75517">
        <ele>235.01907662651</ele>
        <time>2020-08-08T06:19:32.000Z</time>
      </trkpt>
      <trkpt lat="43.70265" lon="3.7552">
        <ele>235.11947823293</ele>
        <time>2020-08-08T06:19:33.000Z</time>
      </trkpt>
      <trkpt lat="43.70266" lon="3.75524">
        <ele>235.21987983936</ele>
        <time>2020-08-08T06:19:34.000Z</time>
      </trkpt>
      <trkpt lat="43.70267" lon="3.75527">
        <ele>235.32028144578</ele>
        <time>2020-08-08T06:19:35.000Z</time>
      </trkpt>
      <trkpt lat="43.70268" lon="3.7553">
        <ele>235.42068305221</ele>
        <time>2020-08-08T06:19:36.000Z</time>
      </trkpt>
      <trkpt lat="43.7027" lon="3.75534">
        <ele>235.52108465864</ele>
        <time>2020-08-08T06:19:37.000Z</time>
      </trkpt>
      <trkpt lat="43.70271" lon="3.75537">
        <ele>235.62148626506</ele>
        <time>2020-08-08T06:19:38.000Z</time>
      </trkpt>
      <trkpt lat="43.70273" lon="3.75539">
        <ele>235.72188787149</ele>
        <time>2020-08-08T06:19:39.000Z</time>
      </trkpt>
      <trkpt lat="43.70275" lon="3.75542">
        <ele>235.82228947791</ele>
        <time>2020-08-08T06:19:40.000Z</time>
      </trkpt>
      <trkpt lat="43.70276" lon="3.75545">
        <ele>235.92269108434</ele>
        <time>2020-08-08T06:19:41.000Z</time>
      </trkpt>
      <trkpt lat="43.70278" lon="3.75548">
        <ele>236</ele>
        <time>2020-08-08T06:19:42.000Z</time>
      </trkpt>
      <trkpt lat="43.7028" lon="3.75551">
        <ele>236</ele>
        <time>2020-08-08T06:19:43.000Z</time>
      </trkpt>
      <trkpt lat="43.70282" lon="3.75553">
        <ele>236</ele>
        <time>2020-08-08T06:19:44.000Z</time>
      </trkpt>
      <trkpt lat="43.70284" lon="3.75556">
        <ele>236</ele>
        <time>2020-08-08T06:19:45.000Z</time>
      </trkpt>
      <trkpt lat="43.70286" lon="3.75558">
        <ele>236</ele>
        <time>2020-08-08T06:19:46.000Z</time>
      </trkpt>
      <trkpt lat="43.70288" lon="3.7556">
        <ele>236</ele>
        <time>2020-08-08T06:19:47.000Z</time>
      </trkpt>
      <trkpt lat="43.7029" lon="3.75563">
        <ele>236</ele>
        <time>2020-08-08T06:19:48.000Z</time>
      </trkpt>
      <trkpt lat="43.70292" lon="3.75565">
        <ele>236</ele>
        <time>2020-08-08T06:19:49.000Z</time>
      </trkpt>
      <trkpt lat="43.70294" lon="3.75567">
        <ele>236</ele>
        <time>2020-08-08T06:19:50.000Z</time>
      </trkpt>
      <trkpt lat="43.70296" lon="3.75569">
        <ele>236</ele>
        <time>2020-08-08T06:19:51.000Z</time>
      </trkpt>
      <trkpt lat="43.70298" lon="3.75571">
        <ele>236.02235208799</ele>
        <time>2020-08-08T06:19:52.000Z</time>
      </trkpt>
      <trkpt lat="43.703" lon="3.75573">
        <ele>236.11953372716</ele>
        <time>2020-08-08T06:19:53.000Z</time>
      </trkpt>
      <trkpt lat="43.70303" lon="3.75575">
        <ele>236.21671536633</ele>
        <time>2020-08-08T06:19:54.000Z</time>
      </trkpt>
      <trkpt lat="43.70305" lon="3.75576">
        <ele>236.3138970055</ele>
        <time>2020-08-08T06:19:55.000Z</time>
      </trkpt>
      <trkpt lat="43.70308" lon="3.75578">
        <ele>236.41107864467</ele>
        <time>2020-08-08T06:19:56.000Z</time>
      </trkpt>
      <trkpt lat="43.7031" lon="3.7558">
        <ele>236.50826028384</ele>
        <time>2020-08-08T06:19:57.000Z</time>
      </trkpt>
      <trkpt lat="43.70313" lon="3.75581">
        <ele>236.60544192301</ele>
        <time>2020-08-08T06:19:58.000Z</time>
      </trkpt>
      <trkpt lat="43.70315" lon="3.75583">
        <ele>236.70262356218</ele>
        <time>2020-08-08T06:19:59.000Z</time>
      </trkpt>
      <trkpt lat="43.70317" lon="3.75585">
        <ele>236.79980520135</ele>
        <time>2020-08-08T06:20:00.000Z</time>
      </trkpt>
      <trkpt lat="43.7032" lon="3.75586">
        <ele>236.89698684052</ele>
        <time>2020-08-08T06:20:01.000Z</time>
      </trkpt>
      <trkpt lat="43.70322" lon="3.75588">
        <ele>236.99416847969</ele>
        <time>2020-08-08T06:20:02.000Z</time>
      </trkpt>
      <trkpt lat="43.70324" lon="3.7559">
        <ele>237.09680685163</ele>
        <time>2020-08-08T06:20:03.000Z</time>
      </trkpt>
      <trkpt lat="43.70327" lon="3.75592">
        <ele>237.19979356519</ele>
        <time>2020-08-08T06:20:04.000Z</time>
      </trkpt>
      <trkpt lat="43.70329" lon="3.75594">
        <ele>237.30278027875</ele>
        <time>2020-08-08T06:20:05.000Z</time>
      </trkpt>
      <trkpt lat="43.70331" lon="3.75596">
        <ele>237.40576699231</ele>
        <time>2020-08-08T06:20:06.000Z</time>
      </trkpt>
      <trkpt lat="43.70333" lon="3.75598">
        <ele>237.50875370587</ele>
        <time>2020-08-08T06:20:07.000Z</time>
      </trkpt>
      <trkpt lat="43.70336" lon="3.756">
        <ele>237.61174041943</ele>
        <time>2020-08-08T06:20:08.000Z</time>
      </trkpt>
      <trkpt lat="43.70338" lon="3.75602">
        <ele>237.71472713299</ele>
        <time>2020-08-08T06:20:09.000Z</time>
      </trkpt>
      <trkpt lat="43.70341" lon="3.75604">
        <ele>237.81771384655</ele>
        <time>2020-08-08T06:20:10.000Z</time>
      </trkpt>
      <trkpt lat="43.70343" lon="3.75606">
        <ele>237.92070056012</ele>
        <time>2020-08-08T06:20:11.000Z</time>
      </trkpt>
      <trkpt lat="43.70346" lon="3.75607">
        <ele>238.02220108108</ele>
        <time>2020-08-08T06:20:12.000Z</time>
      </trkpt>
      <trkpt lat="43.70348" lon="3.75609">
        <ele>238.11872617761</ele>
        <time>2020-08-08T06:20:13.000Z</time>
      </trkpt>
      <trkpt lat="43.70351" lon="3.7561">
        <ele>238.21525127413</ele>
        <time>2020-08-08T06:20:14.000Z</time>
      </trkpt>
      <trkpt lat="43.70354" lon="3.75611">
        <ele>238.31177637066</ele>
        <time>2020-08-08T06:20:15.000Z</time>
      </trkpt>
      <trkpt lat="43.70356" lon="3.75612">
        <ele>238.40830146718</ele>
        <time>2020-08-08T06:20:16.000Z</time>
      </trkpt>
      <trkpt lat="43.70359" lon="3.75613">
        <ele>238.50482656371</ele>
        <time>2020-08-08T06:20:17.000Z</time>
      </trkpt>
      <trkpt lat="43.70361" lon="3.75614">
        <ele>238.60135166023</ele>
        <time>2020-08-08T06:20:18.000Z</time>
      </trkpt>
      <trkpt lat="43.70363" lon="3.75616">
        <ele>238.69787675676</ele>
        <time>2020-08-08T06:20:19.000Z</time>
      </trkpt>
      <trkpt lat="43.70366" lon="3.75617">
        <ele>238.79440185328</ele>
        <time>2020-08-08T06:20:20.000Z</time>
      </trkpt>
      <trkpt lat="43.70368" lon="3.75618">
        <ele>238.89092694981</ele>
        <time>2020-08-08T06:20:21.000Z</time>
      </trkpt>
      <trkpt lat="43.70371" lon="3.7562">
        <ele>238.98745204633</ele>
        <time>2020-08-08T06:20:22.000Z</time>
      </trkpt>
      <trkpt lat="43.70373" lon="3.75621">
        <ele>239.09024929461</ele>
        <time>2020-08-08T06:20:23.000Z</time>
      </trkpt>
      <trkpt lat="43.70375" lon="3.75623">
        <ele>239.19398373444</ele>
        <time>2020-08-08T06:20:24.000Z</time>
      </trkpt>
      <trkpt lat="43.70377" lon="3.75625">
        <ele>239.29771817427</ele>
        <time>2020-08-08T06:20:25.000Z</time>
      </trkpt>
      <trkpt lat="43.70379" lon="3.75627">
        <ele>239.40145261411</ele>
        <time>2020-08-08T06:20:26.000Z</time>
      </trkpt>
      <trkpt lat="43.70382" lon="3.75628">
        <ele>239.50518705394</ele>
        <time>2020-08-08T06:20:27.000Z</time>
      </trkpt>
      <trkpt lat="43.70384" lon="3.7563">
        <ele>239.60892149378</ele>
        <time>2020-08-08T06:20:28.000Z</time>
      </trkpt>
      <trkpt lat="43.70386" lon="3.75632">
        <ele>239.71265593361</ele>
        <time>2020-08-08T06:20:29.000Z</time>
      </trkpt>
      <trkpt lat="43.70388" lon="3.75634">
        <ele>239.81639037344</ele>
        <time>2020-08-08T06:20:30.000Z</time>
      </trkpt>
      <trkpt lat="43.7039" lon="3.75636">
        <ele>239.92012481328</ele>
        <time>2020-08-08T06:20:31.000Z</time>
      </trkpt>
      <trkpt lat="43.70392" lon="3.75637">
        <ele>240.02297735</ele>
        <time>2020-08-08T06:20:32.000Z</time>
      </trkpt>
      <trkpt lat="43.70394" lon="3.75639">
        <ele>240.12287748184</ele>
        <time>2020-08-08T06:20:33.000Z</time>
      </trkpt>
      <trkpt lat="43.70396" lon="3.75641">
        <ele>240.22277761367</ele>
        <time>2020-08-08T06:20:34.000Z</time>
      </trkpt>
      <trkpt lat="43.70398" lon="3.75643">
        <ele>240.32267774551</ele>
        <time>2020-08-08T06:20:35.000Z</time>
      </trkpt>
      <trkpt lat="43.704" lon="3.75645">
        <ele>240.42257787735</ele>
        <time>2020-08-08T06:20:36.000Z</time>
      </trkpt>
      <trkpt lat="43.70401" lon="3.75648">
        <ele>240.52247800918</ele>
        <time>2020-08-08T06:20:37.000Z</time>
      </trkpt>
      <trkpt lat="43.70403" lon="3.7565">
        <ele>240.62237814102</ele>
        <time>2020-08-08T06:20:38.000Z</time>
      </trkpt>
      <trkpt lat="43.70404" lon="3.75652">
        <ele>240.72227827286</ele>
        <time>2020-08-08T06:20:39.000Z</time>
      </trkpt>
      <trkpt lat="43.70406" lon="3.75655">
        <ele>240.82217840469</ele>
        <time>2020-08-08T06:20:40.000Z</time>
      </trkpt>
      <trkpt lat="43.70407" lon="3.75657">
        <ele>240.92207853653</ele>
        <time>2020-08-08T06:20:41.000Z</time>
      </trkpt>
      <trkpt lat="43.70408" lon="3.7566">
        <ele>241.02202265561</ele>
        <time>2020-08-08T06:20:42.000Z</time>
      </trkpt>
      <trkpt lat="43.7041" lon="3.75663">
        <ele>241.12212272364</ele>
        <time>2020-08-08T06:20:43.000Z</time>
      </trkpt>
      <trkpt lat="43.70411" lon="3.75666">
        <ele>241.22222279168</ele>
        <time>2020-08-08T06:20:44.000Z</time>
      </trkpt>
      <trkpt lat="43.70411" lon="3.75669">
        <ele>241.32232285972</ele>
        <time>2020-08-08T06:20:45.000Z</time>
      </trkpt>
      <trkpt lat="43.70412" lon="3.75672">
        <ele>241.42242292775</ele>
        <time>2020-08-08T06:20:46.000Z</time>
      </trkpt>
      <trkpt lat="43.70413" lon="3.75674">
        <ele>241.52252299579</ele>
        <time>2020-08-08T06:20:47.000Z</time>
      </trkpt>
      <trkpt lat="43.70414" lon="3.75677">
        <ele>241.62262306382</ele>
        <time>2020-08-08T06:20:48.000Z</time>
      </trkpt>
      <trkpt lat="43.70415" lon="3.7568">
        <ele>241.72272313186</ele>
        <time>2020-08-08T06:20:49.000Z</time>
      </trkpt>
      <trkpt lat="43.70416" lon="3.75682">
        <ele>241.8228231999</ele>
        <time>2020-08-08T06:20:50.000Z</time>
      </trkpt>
      <trkpt lat="43.70418" lon="3.75685">
        <ele>241.92292326793</ele>
        <time>2020-08-08T06:20:51.000Z</time>
      </trkpt>
      <trkpt lat="43.70419" lon="3.75687">
        <ele>242.04600064</ele>
        <time>2020-08-08T06:20:52.000Z</time>
      </trkpt>
      <trkpt lat="43.70421" lon="3.7569">
        <ele>242.24600064</ele>
        <time>2020-08-08T06:20:53.000Z</time>
      </trkpt>
      <trkpt lat="43.70423" lon="3.75693">
        <ele>242.44600064</ele>
        <time>2020-08-08T06:20:54.000Z</time>
      </trkpt>
      <trkpt lat="43.70424" lon="3.75696">
        <ele>242.64600064</ele>
        <time>2020-08-08T06:20:55.000Z</time>
      </trkpt>
      <trkpt lat="43.70426" lon="3.75699">
        <ele>242.84600064</ele>
        <time>2020-08-08T06:20:56.000Z</time>
      </trkpt>
      <trkpt lat="43.70427" lon="3.75701">
        <ele>243.04600064</ele>
        <time>2020-08-08T06:20:57.000Z</time>
      </trkpt>
      <trkpt lat="43.70429" lon="3.75704">
        <ele>243.24600064</ele>
        <time>2020-08-08T06:20:58.000Z</time>
      </trkpt>
      <trkpt lat="43.7043" lon="3.75707">
        <ele>243.44600064</ele>
        <time>2020-08-08T06:20:59.000Z</time>
      </trkpt>
      <trkpt lat="43.70432" lon="3.75709">
        <ele>243.64600064</ele>
        <time>2020-08-08T06:21:00.000Z</time>
      </trkpt>
      <trkpt lat="43.70433" lon="3.75712">
        <ele>243.84600064</ele>
        <time>2020-08-08T06:21:01.000Z</time>
      </trkpt>
      <trkpt lat="43.70434" lon="3.75715">
        <ele>244.02300032</ele>
        <time>2020-08-08T06:21:02.000Z</time>
      </trkpt>
      <trkpt lat="43.70436" lon="3.75717">
        <ele>244.12300032</ele>
        <time>2020-08-08T06:21:03.000Z</time>
      </trkpt>
      <trkpt lat="43.70437" lon="3.7572">
        <ele>244.22300032</ele>
        <time>2020-08-08T06:21:04.000Z</time>
      </trkpt>
      <trkpt lat="43.70438" lon="3.75722">
        <ele>244.32300032</ele>
        <time>2020-08-08T06:21:05.000Z</time>
      </trkpt>
      <trkpt lat="43.7044" lon="3.75724">
        <ele>244.42300032</ele>
        <time>2020-08-08T06:21:06.000Z</time>
      </trkpt>
      <trkpt lat="43.70441" lon="3.75727">
        <ele>244.52300032</ele>
        <time>2020-08-08T06:21:07.000Z</time>
      </trkpt>
      <trkpt lat="43.70443" lon="3.75729">
        <ele>244.62300032</ele>
        <time>2020-08-08T06:21:08.000Z</time>
      </trkpt>
      <trkpt lat="43.70445" lon="3.75731">
        <ele>244.72300032</ele>
        <time>2020-08-08T06:21:09.000Z</time>
      </trkpt>
      <trkpt lat="43.70446" lon="3.75733">
        <ele>244.82300032</ele>
        <time>2020-08-08T06:21:10.000Z</time>
      </trkpt>
      <trkpt lat="43.70448" lon="3.75735">
        <ele>244.92300032</ele>
        <time>2020-08-08T06:21:11.000Z</time>
      </trkpt>
      <trkpt lat="43.7045" lon="3.75737">
        <ele>245.02300032</ele>
        <time>2020-08-08T06:21:12.000Z</time>
      </trkpt>
      <trkpt lat="43.70452" lon="3.75739">
        <ele>245.12300032</ele>
        <time>2020-08-08T06:21:13.000Z</time>
      </trkpt>
      <trkpt lat="43.70454" lon="3.75741">
        <ele>245.22300032</ele>
        <time>2020-08-08T06:21:14.000Z</time>
      </trkpt>
      <trkpt lat="43.70456" lon="3.75743">
        <ele>245.32300032</ele>
        <time>2020-08-08T06:21:15.000Z</time>
      </trkpt>
      <trkpt lat="43.70458" lon="3.75744">
        <ele>245.42300032</ele>
        <time>2020-08-08T06:21:16.000Z</time>
      </trkpt>
      <trkpt lat="43.7046" lon="3.75746">
        <ele>245.52300032</ele>
        <time>2020-08-08T06:21:17.000Z</time>
      </trkpt>
      <trkpt lat="43.70462" lon="3.75747">
        <ele>245.62300032</ele>
        <time>2020-08-08T06:21:18.000Z</time>
      </trkpt>
      <trkpt lat="43.70465" lon="3.75748">
        <ele>245.72300032</ele>
        <time>2020-08-08T06:21:19.000Z</time>
      </trkpt>
      <trkpt lat="43.70467" lon="3.75749">
        <ele>245.82300032</ele>
        <time>2020-08-08T06:21:20.000Z</time>
      </trkpt>
      <trkpt lat="43.70469" lon="3.7575">
        <ele>245.92300032</ele>
        <time>2020-08-08T06:21:21.000Z</time>
      </trkpt>
      <trkpt lat="43.70471" lon="3.75751">
        <ele>246.02300032</ele>
        <time>2020-08-08T06:21:22.000Z</time>
      </trkpt>
      <trkpt lat="43.70473" lon="3.75752">
        <ele>246.12300032</ele>
        <time>2020-08-08T06:21:23.000Z</time>
      </trkpt>
      <trkpt lat="43.70475" lon="3.75753">
        <ele>246.22300032</ele>
        <time>2020-08-08T06:21:24.000Z</time>
      </trkpt>
      <trkpt lat="43.70478" lon="3.75754">
        <ele>246.32300032</ele>
        <time>2020-08-08T06:21:25.000Z</time>
      </trkpt>
      <trkpt lat="43.7048" lon="3.75755">
        <ele>246.42300032</ele>
        <time>2020-08-08T06:21:26.000Z</time>
      </trkpt>
      <trkpt lat="43.70482" lon="3.75755">
        <ele>246.52300032</ele>
        <time>2020-08-08T06:21:27.000Z</time>
      </trkpt>
      <trkpt lat="43.70485" lon="3.75756">
        <ele>246.62300032</ele>
        <time>2020-08-08T06:21:28.000Z</time>
      </trkpt>
      <trkpt lat="43.70487" lon="3.75757">
        <ele>246.72300032</ele>
        <time>2020-08-08T06:21:29.000Z</time>
      </trkpt>
      <trkpt lat="43.70489" lon="3.75759">
        <ele>246.82300032</ele>
        <time>2020-08-08T06:21:30.000Z</time>
      </trkpt>
      <trkpt lat="43.70492" lon="3.7576">
        <ele>246.92300032</ele>
        <time>2020-08-08T06:21:31.000Z</time>
      </trkpt>
      <trkpt lat="43.70494" lon="3.75762">
        <ele>247.02300032</ele>
        <time>2020-08-08T06:21:32.000Z</time>
      </trkpt>
      <trkpt lat="43.70496" lon="3.75764">
        <ele>247.12300032</ele>
        <time>2020-08-08T06:21:33.000Z</time>
      </trkpt>
      <trkpt lat="43.70498" lon="3.75765">
        <ele>247.22300032</ele>
        <time>2020-08-08T06:21:34.000Z</time>
      </trkpt>
      <trkpt lat="43.705" lon="3.75767">
        <ele>247.32300032</ele>
        <time>2020-08-08T06:21:35.000Z</time>
      </trkpt>
      <trkpt lat="43.70502" lon="3.75769">
        <ele>247.42300032</ele>
        <time>2020-08-08T06:21:36.000Z</time>
      </trkpt>
      <trkpt lat="43.70505" lon="3.75771">
        <ele>247.52300032</ele>
        <time>2020-08-08T06:21:37.000Z</time>
      </trkpt>
      <trkpt lat="43.70507" lon="3.75773">
        <ele>247.62300032</ele>
        <time>2020-08-08T06:21:38.000Z</time>
      </trkpt>
      <trkpt lat="43.70509" lon="3.75775">
        <ele>247.72300032</ele>
        <time>2020-08-08T06:21:39.000Z</time>
      </trkpt>
      <trkpt lat="43.70511" lon="3.75776">
        <ele>247.82300032</ele>
        <time>2020-08-08T06:21:40.000Z</time>
      </trkpt>
      <trkpt lat="43.70513" lon="3.75778">
        <ele>247.92300032</ele>
        <time>2020-08-08T06:21:41.000Z</time>
      </trkpt>
      <trkpt lat="43.70515" lon="3.7578">
        <ele>248.02300032</ele>
        <time>2020-08-08T06:21:42.000Z</time>
      </trkpt>
      <trkpt lat="43.70517" lon="3.75782">
        <ele>248.12300032</ele>
        <time>2020-08-08T06:21:43.000Z</time>
      </trkpt>
      <trkpt lat="43.70519" lon="3.75784">
        <ele>248.22300032</ele>
        <time>2020-08-08T06:21:44.000Z</time>
      </trkpt>
      <trkpt lat="43.70521" lon="3.75786">
        <ele>248.32300032</ele>
        <time>2020-08-08T06:21:45.000Z</time>
      </trkpt>
      <trkpt lat="43.70522" lon="3.75789">
        <ele>248.42300032</ele>
        <time>2020-08-08T06:21:46.000Z</time>
      </trkpt>
      <trkpt lat="43.70524" lon="3.75791">
        <ele>248.52300032</ele>
        <time>2020-08-08T06:21:47.000Z</time>
      </trkpt>
      <trkpt lat="43.70526" lon="3.75793">
        <ele>248.62300032</ele>
        <time>2020-08-08T06:21:48.000Z</time>
      </trkpt>
      <trkpt lat="43.70527" lon="3.75795">
        <ele>248.72300032</ele>
        <time>2020-08-08T06:21:49.000Z</time>
      </trkpt>
      <trkpt lat="43.70528" lon="3.75798">
        <ele>248.82300032</ele>
        <time>2020-08-08T06:21:50.000Z</time>
      </trkpt>
      <trkpt lat="43.7053" lon="3.758">
        <ele>248.92300032</ele>
        <time>2020-08-08T06:21:51.000Z</time>
      </trkpt>
      <trkpt lat="43.70531" lon="3.75803">
        <ele>249.02228713178</ele>
        <time>2020-08-08T06:21:52.000Z</time>
      </trkpt>
      <trkpt lat="43.70533" lon="3.75805">
        <ele>249.11918635659</ele>
        <time>2020-08-08T06:21:53.000Z</time>
      </trkpt>
      <trkpt lat="43.70534" lon="3.75808">
        <ele>249.21608558139</ele>
        <time>2020-08-08T06:21:54.000Z</time>
      </trkpt>
      <trkpt lat="43.70536" lon="3.7581">
        <ele>249.3129848062</ele>
        <time>2020-08-08T06:21:55.000Z</time>
      </trkpt>
      <trkpt lat="43.70537" lon="3.75812">
        <ele>249.40988403101</ele>
        <time>2020-08-08T06:21:56.000Z</time>
      </trkpt>
      <trkpt lat="43.70539" lon="3.75814">
        <ele>249.50678325581</ele>
        <time>2020-08-08T06:21:57.000Z</time>
      </trkpt>
      <trkpt lat="43.70541" lon="3.75816">
        <ele>249.60368248062</ele>
        <time>2020-08-08T06:21:58.000Z</time>
      </trkpt>
      <trkpt lat="43.70543" lon="3.75818">
        <ele>249.70058170543</ele>
        <time>2020-08-08T06:21:59.000Z</time>
      </trkpt>
      <trkpt lat="43.70545" lon="3.75819">
        <ele>249.79748093023</ele>
        <time>2020-08-08T06:22:00.000Z</time>
      </trkpt>
      <trkpt lat="43.70547" lon="3.7582">
        <ele>249.89438015504</ele>
        <time>2020-08-08T06:22:01.000Z</time>
      </trkpt>
      <trkpt lat="43.70548" lon="3.75822">
        <ele>249.99127937984</ele>
        <time>2020-08-08T06:22:02.000Z</time>
      </trkpt>
      <trkpt lat="43.7055" lon="3.75823">
        <ele>250.18801719008</ele>
        <time>2020-08-08T06:22:03.000Z</time>
      </trkpt>
      <trkpt lat="43.70553" lon="3.75825">
        <ele>250.60124033058</ele>
        <time>2020-08-08T06:22:05.000Z</time>
      </trkpt>
      <trkpt lat="43.70556" lon="3.75827">
        <ele>251.01446347107</ele>
        <time>2020-08-08T06:22:07.000Z</time>
      </trkpt>
      <trkpt lat="43.70559" lon="3.7583">
        <ele>251.42768661157</ele>
        <time>2020-08-08T06:22:09.000Z</time>
      </trkpt>
      <trkpt lat="43.7056" lon="3.75832">
        <ele>251.63429818182</ele>
        <time>2020-08-08T06:22:10.000Z</time>
      </trkpt>
      <trkpt lat="43.70561" lon="3.75834">
        <ele>251.84090975207</ele>
        <time>2020-08-08T06:22:11.000Z</time>
      </trkpt>
      <trkpt lat="43.70563" lon="3.75837">
        <ele>252.04541026299</ele>
        <time>2020-08-08T06:22:12.000Z</time>
      </trkpt>
      <trkpt lat="43.70564" lon="3.7584">
        <ele>252.24284344212</ele>
        <time>2020-08-08T06:22:13.000Z</time>
      </trkpt>
      <trkpt lat="43.70564" lon="3.75843">
        <ele>252.44027662126</ele>
        <time>2020-08-08T06:22:14.000Z</time>
      </trkpt>
      <trkpt lat="43.70565" lon="3.75846">
        <ele>252.63770980039</ele>
        <time>2020-08-08T06:22:15.000Z</time>
      </trkpt>
      <trkpt lat="43.70566" lon="3.75848">
        <ele>252.83514297953</ele>
        <time>2020-08-08T06:22:16.000Z</time>
      </trkpt>
      <trkpt lat="43.70567" lon="3.75851">
        <ele>253.03257615866</ele>
        <time>2020-08-08T06:22:17.000Z</time>
      </trkpt>
      <trkpt lat="43.70568" lon="3.75854">
        <ele>253.2300093378</ele>
        <time>2020-08-08T06:22:18.000Z</time>
      </trkpt>
      <trkpt lat="43.70568" lon="3.75857">
        <ele>253.42744251694</ele>
        <time>2020-08-08T06:22:19.000Z</time>
      </trkpt>
      <trkpt lat="43.70569" lon="3.7586">
        <ele>253.62487569607</ele>
        <time>2020-08-08T06:22:20.000Z</time>
      </trkpt>
      <trkpt lat="43.7057" lon="3.75863">
        <ele>253.82230887521</ele>
        <time>2020-08-08T06:22:21.000Z</time>
      </trkpt>
      <trkpt lat="43.70571" lon="3.75867">
        <ele>254.01013107368</ele>
        <time>2020-08-08T06:22:22.000Z</time>
      </trkpt>
      <trkpt lat="43.70572" lon="3.7587">
        <ele>254.11144829482</ele>
        <time>2020-08-08T06:22:23.000Z</time>
      </trkpt>
      <trkpt lat="43.70572" lon="3.75873">
        <ele>254.21276551596</ele>
        <time>2020-08-08T06:22:24.000Z</time>
      </trkpt>
      <trkpt lat="43.70573" lon="3.75877">
        <ele>254.3140827371</ele>
        <time>2020-08-08T06:22:25.000Z</time>
      </trkpt>
      <trkpt lat="43.70574" lon="3.7588">
        <ele>254.41539995824</ele>
        <time>2020-08-08T06:22:26.000Z</time>
      </trkpt>
      <trkpt lat="43.70575" lon="3.75883">
        <ele>254.51671717938</ele>
        <time>2020-08-08T06:22:27.000Z</time>
      </trkpt>
      <trkpt lat="43.70576" lon="3.75886">
        <ele>254.61803440052</ele>
        <time>2020-08-08T06:22:28.000Z</time>
      </trkpt>
      <trkpt lat="43.70578" lon="3.75889">
        <ele>254.71935162166</ele>
        <time>2020-08-08T06:22:29.000Z</time>
      </trkpt>
      <trkpt lat="43.70579" lon="3.75892">
        <ele>254.8206688428</ele>
        <time>2020-08-08T06:22:30.000Z</time>
      </trkpt>
      <trkpt lat="43.7058" lon="3.75895">
        <ele>254.92198606394</ele>
        <time>2020-08-08T06:22:31.000Z</time>
      </trkpt>
      <trkpt lat="43.70582" lon="3.75898">
        <ele>255.02290868526</ele>
        <time>2020-08-08T06:22:32.000Z</time>
      </trkpt>
      <trkpt lat="43.70583" lon="3.75901">
        <ele>255.12251027888</ele>
        <time>2020-08-08T06:22:33.000Z</time>
      </trkpt>
      <trkpt lat="43.70585" lon="3.75904">
        <ele>255.22211187251</ele>
        <time>2020-08-08T06:22:34.000Z</time>
      </trkpt>
      <trkpt lat="43.70587" lon="3.75907">
        <ele>255.32171346614</ele>
        <time>2020-08-08T06:22:35.000Z</time>
      </trkpt>
      <trkpt lat="43.70588" lon="3.7591">
        <ele>255.42131505976</ele>
        <time>2020-08-08T06:22:36.000Z</time>
      </trkpt>
      <trkpt lat="43.7059" lon="3.75914">
        <ele>255.52091665339</ele>
        <time>2020-08-08T06:22:37.000Z</time>
      </trkpt>
      <trkpt lat="43.70591" lon="3.75917">
        <ele>255.62051824701</ele>
        <time>2020-08-08T06:22:38.000Z</time>
      </trkpt>
      <trkpt lat="43.70592" lon="3.75921">
        <ele>255.72011984064</ele>
        <time>2020-08-08T06:22:39.000Z</time>
      </trkpt>
      <trkpt lat="43.70593" lon="3.75925">
        <ele>255.81972143426</ele>
        <time>2020-08-08T06:22:40.000Z</time>
      </trkpt>
      <trkpt lat="43.70594" lon="3.75929">
        <ele>255.91932302789</ele>
        <time>2020-08-08T06:22:41.000Z</time>
      </trkpt>
      <trkpt lat="43.70595" lon="3.75934">
        <ele>256.01907662651</ele>
        <time>2020-08-08T06:22:42.000Z</time>
      </trkpt>
      <trkpt lat="43.70596" lon="3.75938">
        <ele>256.11947823293</ele>
        <time>2020-08-08T06:22:43.000Z</time>
      </trkpt>
      <trkpt lat="43.70597" lon="3.75943">
        <ele>256.21987983936</ele>
        <time>2020-08-08T06:22:44.000Z</time>
      </trkpt>
      <trkpt lat="43.70597" lon="3.75948">
        <ele>256.32028144578</ele>
        <time>2020-08-08T06:22:45.000Z</time>
      </trkpt>
      <trkpt lat="43.70598" lon="3.75953">
        <ele>256.42068305221</ele>
        <time>2020-08-08T06:22:46.000Z</time>
      </trkpt>
      <trkpt lat="43.70598" lon="3.75958">
        <ele>256.52108465864</ele>
        <time>2020-08-08T06:22:47.000Z</time>
      </trkpt>
      <trkpt lat="43.70599" lon="3.75963">
        <ele>256.62148626506</ele>
        <time>2020-08-08T06:22:48.000Z</time>
      </trkpt>
      <trkpt lat="43.706" lon="3.75968">
        <ele>256.72188787149</ele>
        <time>2020-08-08T06:22:49.000Z</time>
      </trkpt>
      <trkpt lat="43.706" lon="3.75972">
        <ele>256.82228947791</ele>
        <time>2020-08-08T06:22:50.000Z</time>
      </trkpt>
      <trkpt lat="43.70601" lon="3.75976">
        <ele>256.92269108434</ele>
        <time>2020-08-08T06:22:51.000Z</time>
      </trkpt>
      <trkpt lat="43.70602" lon="3.75981">
        <ele>257</ele>
        <time>2020-08-08T06:22:52.000Z</time>
      </trkpt>
      <trkpt lat="43.70603" lon="3.75985">
        <ele>257</ele>
        <time>2020-08-08T06:22:53.000Z</time>
      </trkpt>
      <trkpt lat="43.70605" lon="3.75989">
        <ele>257</ele>
        <time>2020-08-08T06:22:54.000Z</time>
      </trkpt>
      <trkpt lat="43.70607" lon="3.75993">
        <ele>257</ele>
        <time>2020-08-08T06:22:55.000Z</time>
      </trkpt>
      <trkpt lat="43.70609" lon="3.75997">
        <ele>257</ele>
        <time>2020-08-08T06:22:56.000Z</time>
      </trkpt>
      <trkpt lat="43.70611" lon="3.76001">
        <ele>257</ele>
        <time>2020-08-08T06:22:57.000Z</time>
      </trkpt>
      <trkpt lat="43.70612" lon="3.76004">
        <ele>257</ele>
        <time>2020-08-08T06:22:58.000Z</time>
      </trkpt>
      <trkpt lat="43.70614" lon="3.76007">
        <ele>257</ele>
        <time>2020-08-08T06:22:59.000Z</time>
      </trkpt>
      <trkpt lat="43.70615" lon="3.7601">
        <ele>257</ele>
        <time>2020-08-08T06:23:00.000Z</time>
      </trkpt>
      <trkpt lat="43.70616" lon="3.76012">
        <ele>257</ele>
        <time>2020-08-08T06:23:01.000Z</time>
      </trkpt>
      <trkpt lat="43.70616" lon="3.76015">
        <ele>257.018555</ele>
        <time>2020-08-08T06:23:02.000Z</time>
      </trkpt>
      <trkpt lat="43.70616" lon="3.76018">
        <ele>257.11621125</ele>
        <time>2020-08-08T06:23:03.000Z</time>
      </trkpt>
      <trkpt lat="43.70615" lon="3.76022">
        <ele>257.2138675</ele>
        <time>2020-08-08T06:23:04.000Z</time>
      </trkpt>
      <trkpt lat="43.70614" lon="3.76025">
        <ele>257.31152375</ele>
        <time>2020-08-08T06:23:05.000Z</time>
      </trkpt>
      <trkpt lat="43.70613" lon="3.76028">
        <ele>257.40918</ele>
        <time>2020-08-08T06:23:06.000Z</time>
      </trkpt>
      <trkpt lat="43.70613" lon="3.76032">
        <ele>257.50683625</ele>
        <time>2020-08-08T06:23:07.000Z</time>
      </trkpt>
      <trkpt lat="43.70613" lon="3.76036">
        <ele>257.6044925</ele>
        <time>2020-08-08T06:23:08.000Z</time>
      </trkpt>
      <trkpt lat="43.70613" lon="3.7604">
        <ele>257.70214875</ele>
        <time>2020-08-08T06:23:09.000Z</time>
      </trkpt>
      <trkpt lat="43.70614" lon="3.76044">
        <ele>257.799805</ele>
        <time>2020-08-08T06:23:10.000Z</time>
      </trkpt>
      <trkpt lat="43.70614" lon="3.76047">
        <ele>257.89746125</ele>
        <time>2020-08-08T06:23:11.000Z</time>
      </trkpt>
      <trkpt lat="43.70615" lon="3.76051">
        <ele>257.9951175</ele>
        <time>2020-08-08T06:23:12.000Z</time>
      </trkpt>
      <trkpt lat="43.70617" lon="3.76055">
        <ele>258.09773695473</ele>
        <time>2020-08-08T06:23:13.000Z</time>
      </trkpt>
      <trkpt lat="43.70618" lon="3.76058">
        <ele>258.20061761317</ele>
        <time>2020-08-08T06:23:14.000Z</time>
      </trkpt>
      <trkpt lat="43.70619" lon="3.76062">
        <ele>258.30349827161</ele>
        <time>2020-08-08T06:23:15.000Z</time>
      </trkpt>
      <trkpt lat="43.7062" lon="3.76066">
        <ele>258.40637893004</ele>
        <time>2020-08-08T06:23:16.000Z</time>
      </trkpt>
      <trkpt lat="43.70621" lon="3.7607">
        <ele>258.50925958848</ele>
        <time>2020-08-08T06:23:17.000Z</time>
      </trkpt>
      <trkpt lat="43.70622" lon="3.76073">
        <ele>258.61214024691</ele>
        <time>2020-08-08T06:23:18.000Z</time>
      </trkpt>
      <trkpt lat="43.70623" lon="3.76077">
        <ele>258.71502090535</ele>
        <time>2020-08-08T06:23:19.000Z</time>
      </trkpt>
      <trkpt lat="43.70623" lon="3.76081">
        <ele>258.81790156379</ele>
        <time>2020-08-08T06:23:20.000Z</time>
      </trkpt>
      <trkpt lat="43.70623" lon="3.76084">
        <ele>258.92078222222</ele>
        <time>2020-08-08T06:23:21.000Z</time>
      </trkpt>
      <trkpt lat="43.70623" lon="3.76088">
        <ele>259.02300032</ele>
        <time>2020-08-08T06:23:22.000Z</time>
      </trkpt>
      <trkpt lat="43.70624" lon="3.76091">
        <ele>259.12300032</ele>
        <time>2020-08-08T06:23:23.000Z</time>
      </trkpt>
      <trkpt lat="43.70624" lon="3.76095">
        <ele>259.22300032</ele>
        <time>2020-08-08T06:23:24.000Z</time>
      </trkpt>
      <trkpt lat="43.70625" lon="3.76098">
        <ele>259.32300032</ele>
        <time>2020-08-08T06:23:25.000Z</time>
      </trkpt>
      <trkpt lat="43.70626" lon="3.76102">
        <ele>259.42300032</ele>
        <time>2020-08-08T06:23:26.000Z</time>
      </trkpt>
      <trkpt lat="43.70627" lon="3.76105">
        <ele>259.52300032</ele>
        <time>2020-08-08T06:23:27.000Z</time>
      </trkpt>
      <trkpt lat="43.70628" lon="3.76109">
        <ele>259.62300032</ele>
        <time>2020-08-08T06:23:28.000Z</time>
      </trkpt>
      <trkpt lat="43.70628" lon="3.76113">
        <ele>259.72300032</ele>
        <time>2020-08-08T06:23:29.000Z</time>
      </trkpt>
      <trkpt lat="43.70629" lon="3.76116">
        <ele>259.82300032</ele>
        <time>2020-08-08T06:23:30.000Z</time>
      </trkpt>
      <trkpt lat="43.7063" lon="3.76119">
        <ele>259.92300032</ele>
        <time>2020-08-08T06:23:31.000Z</time>
      </trkpt>
      <trkpt lat="43.70631" lon="3.76122">
        <ele>260</ele>
        <time>2020-08-08T06:23:32.000Z</time>
      </trkpt>
      <trkpt lat="43.70632" lon="3.76125">
        <ele>260</ele>
        <time>2020-08-08T06:23:33.000Z</time>
      </trkpt>
      <trkpt lat="43.70632" lon="3.76129">
        <ele>260</ele>
        <time>2020-08-08T06:23:34.000Z</time>
      </trkpt>
      <trkpt lat="43.70633" lon="3.76132">
        <ele>260</ele>
        <time>2020-08-08T06:23:35.000Z</time>
      </trkpt>
      <trkpt lat="43.70634" lon="3.76135">
        <ele>260</ele>
        <time>2020-08-08T06:23:36.000Z</time>
      </trkpt>
      <trkpt lat="43.70634" lon="3.76139">
        <ele>260</ele>
        <time>2020-08-08T06:23:37.000Z</time>
      </trkpt>
      <trkpt lat="43.70634" lon="3.76142">
        <ele>260</ele>
        <time>2020-08-08T06:23:38.000Z</time>
      </trkpt>
      <trkpt lat="43.70634" lon="3.76146">
        <ele>260</ele>
        <time>2020-08-08T06:23:39.000Z</time>
      </trkpt>
      <trkpt lat="43.70634" lon="3.76149">
        <ele>260</ele>
        <time>2020-08-08T06:23:40.000Z</time>
      </trkpt>
      <trkpt lat="43.70634" lon="3.76152">
        <ele>260</ele>
        <time>2020-08-08T06:23:41.000Z</time>
      </trkpt>
      <trkpt lat="43.70634" lon="3.76155">
        <ele>260.02104177702</ele>
        <time>2020-08-08T06:23:42.000Z</time>
      </trkpt>
      <trkpt lat="43.70634" lon="3.76159">
        <ele>260.12124224208</ele>
        <time>2020-08-08T06:23:43.000Z</time>
      </trkpt>
      <trkpt lat="43.70634" lon="3.76161">
        <ele>260.22144270714</ele>
        <time>2020-08-08T06:23:44.000Z</time>
      </trkpt>
      <trkpt lat="43.70634" lon="3.76164">
        <ele>260.3216431722</ele>
        <time>2020-08-08T06:23:45.000Z</time>
      </trkpt>
      <trkpt lat="43.70634" lon="3.76167">
        <ele>260.42184363725</ele>
        <time>2020-08-08T06:23:46.000Z</time>
      </trkpt>
      <trkpt lat="43.70634" lon="3.7617">
        <ele>260.52204410231</ele>
        <time>2020-08-08T06:23:47.000Z</time>
      </trkpt>
      <trkpt lat="43.70634" lon="3.76173">
        <ele>260.62224456737</ele>
        <time>2020-08-08T06:23:48.000Z</time>
      </trkpt>
      <trkpt lat="43.70634" lon="3.76176">
        <ele>260.72244503243</ele>
        <time>2020-08-08T06:23:49.000Z</time>
      </trkpt>
      <trkpt lat="43.70634" lon="3.76179">
        <ele>260.82264549749</ele>
        <time>2020-08-08T06:23:50.000Z</time>
      </trkpt>
      <trkpt lat="43.70634" lon="3.76181">
        <ele>260.92284596255</ele>
        <time>2020-08-08T06:23:51.000Z</time>
      </trkpt>
      <trkpt lat="43.70634" lon="3.76184">
        <ele>261.02300032</ele>
        <time>2020-08-08T06:23:52.000Z</time>
      </trkpt>
      <trkpt lat="43.70633" lon="3.76187">
        <ele>261.12300032</ele>
        <time>2020-08-08T06:23:53.000Z</time>
      </trkpt>
      <trkpt lat="43.70633" lon="3.7619">
        <ele>261.22300032</ele>
        <time>2020-08-08T06:23:54.000Z</time>
      </trkpt>
      <trkpt lat="43.70632" lon="3.76193">
        <ele>261.32300032</ele>
        <time>2020-08-08T06:23:55.000Z</time>
      </trkpt>
      <trkpt lat="43.70632" lon="3.76196">
        <ele>261.42300032</ele>
        <time>2020-08-08T06:23:56.000Z</time>
      </trkpt>
      <trkpt lat="43.70632" lon="3.76199">
        <ele>261.52300032</ele>
        <time>2020-08-08T06:23:57.000Z</time>
      </trkpt>
      <trkpt lat="43.70632" lon="3.76201">
        <ele>261.62300032</ele>
        <time>2020-08-08T06:23:58.000Z</time>
      </trkpt>
      <trkpt lat="43.70632" lon="3.76204">
        <ele>261.72300032</ele>
        <time>2020-08-08T06:23:59.000Z</time>
      </trkpt>
      <trkpt lat="43.70632" lon="3.76207">
        <ele>261.82300032</ele>
        <time>2020-08-08T06:24:00.000Z</time>
      </trkpt>
      <trkpt lat="43.70632" lon="3.76209">
        <ele>261.92300032</ele>
        <time>2020-08-08T06:24:01.000Z</time>
      </trkpt>
      <trkpt lat="43.70632" lon="3.76212">
        <ele>262.02300032</ele>
        <time>2020-08-08T06:24:02.000Z</time>
      </trkpt>
      <trkpt lat="43.70631" lon="3.76217">
        <ele>262.22300032</ele>
        <time>2020-08-08T06:24:04.000Z</time>
      </trkpt>
      <trkpt lat="43.70631" lon="3.76219">
        <ele>262.32300032</ele>
        <time>2020-08-08T06:24:05.000Z</time>
      </trkpt>
      <trkpt lat="43.7063" lon="3.76224">
        <ele>262.52300032</ele>
        <time>2020-08-08T06:24:07.000Z</time>
      </trkpt>
      <trkpt lat="43.70629" lon="3.76229">
        <ele>262.72300032</ele>
        <time>2020-08-08T06:24:09.000Z</time>
      </trkpt>
      <trkpt lat="43.70628" lon="3.76233">
        <ele>262.92300032</ele>
        <time>2020-08-08T06:24:11.000Z</time>
      </trkpt>
      <trkpt lat="43.70627" lon="3.76237">
        <ele>263.24600064</ele>
        <time>2020-08-08T06:24:13.000Z</time>
      </trkpt>
      <trkpt lat="43.70626" lon="3.76242">
        <ele>263.64600064</ele>
        <time>2020-08-08T06:24:15.000Z</time>
      </trkpt>
      <trkpt lat="43.70625" lon="3.76247">
        <ele>264.04600064</ele>
        <time>2020-08-08T06:24:17.000Z</time>
      </trkpt>
      <trkpt lat="43.70623" lon="3.76251">
        <ele>264.44600064</ele>
        <time>2020-08-08T06:24:19.000Z</time>
      </trkpt>
      <trkpt lat="43.70621" lon="3.76255">
        <ele>264.84600064</ele>
        <time>2020-08-08T06:24:21.000Z</time>
      </trkpt>
      <trkpt lat="43.70619" lon="3.76258">
        <ele>265.24094065494</ele>
        <time>2020-08-08T06:24:23.000Z</time>
      </trkpt>
      <trkpt lat="43.70616" lon="3.76262">
        <ele>265.63271305837</ele>
        <time>2020-08-08T06:24:25.000Z</time>
      </trkpt>
      <trkpt lat="43.70615" lon="3.76264">
        <ele>265.82859926008</ele>
        <time>2020-08-08T06:24:26.000Z</time>
      </trkpt>
      <trkpt lat="43.70614" lon="3.76266">
        <ele>266.0244854618</ele>
        <time>2020-08-08T06:24:27.000Z</time>
      </trkpt>
      <trkpt lat="43.70612" lon="3.76268">
        <ele>266.22037166351</ele>
        <time>2020-08-08T06:24:28.000Z</time>
      </trkpt>
      <trkpt lat="43.70611" lon="3.7627">
        <ele>266.41625786522</ele>
        <time>2020-08-08T06:24:29.000Z</time>
      </trkpt>
      <trkpt lat="43.70611" lon="3.76273">
        <ele>266.61214406694</ele>
        <time>2020-08-08T06:24:30.000Z</time>
      </trkpt>
      <trkpt lat="43.7061" lon="3.76276">
        <ele>266.80803026865</ele>
        <time>2020-08-08T06:24:31.000Z</time>
      </trkpt>
      <trkpt lat="43.7061" lon="3.7628">
        <ele>267.00204224919</ele>
        <time>2020-08-08T06:24:32.000Z</time>
      </trkpt>
      <trkpt lat="43.7061" lon="3.76283">
        <ele>267.10418739532</ele>
        <time>2020-08-08T06:24:33.000Z</time>
      </trkpt>
      <trkpt lat="43.7061" lon="3.76287">
        <ele>267.20633254145</ele>
        <time>2020-08-08T06:24:34.000Z</time>
      </trkpt>
      <trkpt lat="43.7061" lon="3.7629">
        <ele>267.30847768758</ele>
        <time>2020-08-08T06:24:35.000Z</time>
      </trkpt>
      <trkpt lat="43.7061" lon="3.76293">
        <ele>267.41062283371</ele>
        <time>2020-08-08T06:24:36.000Z</time>
      </trkpt>
      <trkpt lat="43.70611" lon="3.76296">
        <ele>267.51276797983</ele>
        <time>2020-08-08T06:24:37.000Z</time>
      </trkpt>
      <trkpt lat="43.70612" lon="3.76299">
        <ele>267.61491312596</ele>
        <time>2020-08-08T06:24:38.000Z</time>
      </trkpt>
      <trkpt lat="43.70613" lon="3.76302">
        <ele>267.71705827209</ele>
        <time>2020-08-08T06:24:39.000Z</time>
      </trkpt>
      <trkpt lat="43.70614" lon="3.76305">
        <ele>267.81920341822</ele>
        <time>2020-08-08T06:24:40.000Z</time>
      </trkpt>
      <trkpt lat="43.70614" lon="3.76308">
        <ele>267.92134856435</ele>
        <time>2020-08-08T06:24:41.000Z</time>
      </trkpt>
      <trkpt lat="43.70615" lon="3.76311">
        <ele>268.02300032</ele>
        <time>2020-08-08T06:24:42.000Z</time>
      </trkpt>
      <trkpt lat="43.70615" lon="3.76314">
        <ele>268.12300032</ele>
        <time>2020-08-08T06:24:43.000Z</time>
      </trkpt>
      <trkpt lat="43.70616" lon="3.76318">
        <ele>268.22300032</ele>
        <time>2020-08-08T06:24:44.000Z</time>
      </trkpt>
      <trkpt lat="43.70616" lon="3.76321">
        <ele>268.32300032</ele>
        <time>2020-08-08T06:24:45.000Z</time>
      </trkpt>
      <trkpt lat="43.70617" lon="3.76325">
        <ele>268.42300032</ele>
        <time>2020-08-08T06:24:46.000Z</time>
      </trkpt>
      <trkpt lat="43.70617" lon="3.76328">
        <ele>268.52300032</ele>
        <time>2020-08-08T06:24:47.000Z</time>
      </trkpt>
      <trkpt lat="43.70618" lon="3.76331">
        <ele>268.62300032</ele>
        <time>2020-08-08T06:24:48.000Z</time>
      </trkpt>
      <trkpt lat="43.70619" lon="3.76334">
        <ele>268.72300032</ele>
        <time>2020-08-08T06:24:49.000Z</time>
      </trkpt>
      <trkpt lat="43.70619" lon="3.76337">
        <ele>268.82300032</ele>
        <time>2020-08-08T06:24:50.000Z</time>
      </trkpt>
      <trkpt lat="43.7062" lon="3.7634">
        <ele>268.92300032</ele>
        <time>2020-08-08T06:24:51.000Z</time>
      </trkpt>
      <trkpt lat="43.70619" lon="3.76344">
        <ele>269.02300032</ele>
        <time>2020-08-08T06:24:52.000Z</time>
      </trkpt>
      <trkpt lat="43.70619" lon="3.76347">
        <ele>269.12300032</ele>
        <time>2020-08-08T06:24:53.000Z</time>
      </trkpt>
      <trkpt lat="43.70619" lon="3.7635">
        <ele>269.22300032</ele>
        <time>2020-08-08T06:24:54.000Z</time>
      </trkpt>
      <trkpt lat="43.70618" lon="3.76353">
        <ele>269.32300032</ele>
        <time>2020-08-08T06:24:55.000Z</time>
      </trkpt>
      <trkpt lat="43.70618" lon="3.76357">
        <ele>269.42300032</ele>
        <time>2020-08-08T06:24:56.000Z</time>
      </trkpt>
      <trkpt lat="43.70617" lon="3.76361">
        <ele>269.52300032</ele>
        <time>2020-08-08T06:24:57.000Z</time>
      </trkpt>
      <trkpt lat="43.70617" lon="3.76365">
        <ele>269.62300032</ele>
        <time>2020-08-08T06:24:58.000Z</time>
      </trkpt>
      <trkpt lat="43.70616" lon="3.76369">
        <ele>269.72300032</ele>
        <time>2020-08-08T06:24:59.000Z</time>
      </trkpt>
      <trkpt lat="43.70616" lon="3.76373">
        <ele>269.82300032</ele>
        <time>2020-08-08T06:25:00.000Z</time>
      </trkpt>
      <trkpt lat="43.70616" lon="3.76377">
        <ele>269.92300032</ele>
        <time>2020-08-08T06:25:01.000Z</time>
      </trkpt>
      <trkpt lat="43.70615" lon="3.76381">
        <ele>270</ele>
        <time>2020-08-08T06:25:02.000Z</time>
      </trkpt>
      <trkpt lat="43.70614" lon="3.76385">
        <ele>270</ele>
        <time>2020-08-08T06:25:03.000Z</time>
      </trkpt>
      <trkpt lat="43.70613" lon="3.76389">
        <ele>270</ele>
        <time>2020-08-08T06:25:04.000Z</time>
      </trkpt>
      <trkpt lat="43.70612" lon="3.76394">
        <ele>270</ele>
        <time>2020-08-08T06:25:05.000Z</time>
      </trkpt>
      <trkpt lat="43.70611" lon="3.76398">
        <ele>270</ele>
        <time>2020-08-08T06:25:06.000Z</time>
      </trkpt>
      <trkpt lat="43.7061" lon="3.76402">
        <ele>270</ele>
        <time>2020-08-08T06:25:07.000Z</time>
      </trkpt>
      <trkpt lat="43.7061" lon="3.76406">
        <ele>270</ele>
        <time>2020-08-08T06:25:08.000Z</time>
      </trkpt>
      <trkpt lat="43.70611" lon="3.76409">
        <ele>270</ele>
        <time>2020-08-08T06:25:09.000Z</time>
      </trkpt>
      <trkpt lat="43.70612" lon="3.76413">
        <ele>270</ele>
        <time>2020-08-08T06:25:10.000Z</time>
      </trkpt>
      <trkpt lat="43.70613" lon="3.76416">
        <ele>270</ele>
        <time>2020-08-08T06:25:11.000Z</time>
      </trkpt>
      <trkpt lat="43.70615" lon="3.76419">
        <ele>270.02290868526</ele>
        <time>2020-08-08T06:25:12.000Z</time>
      </trkpt>
      <trkpt lat="43.70616" lon="3.76422">
        <ele>270.12251027888</ele>
        <time>2020-08-08T06:25:13.000Z</time>
      </trkpt>
      <trkpt lat="43.70617" lon="3.76426">
        <ele>270.22211187251</ele>
        <time>2020-08-08T06:25:14.000Z</time>
      </trkpt>
      <trkpt lat="43.70619" lon="3.76429">
        <ele>270.32171346614</ele>
        <time>2020-08-08T06:25:15.000Z</time>
      </trkpt>
      <trkpt lat="43.7062" lon="3.76432">
        <ele>270.42131505976</ele>
        <time>2020-08-08T06:25:16.000Z</time>
      </trkpt>
      <trkpt lat="43.70622" lon="3.76435">
        <ele>270.52091665339</ele>
        <time>2020-08-08T06:25:17.000Z</time>
      </trkpt>
      <trkpt lat="43.70623" lon="3.76438">
        <ele>270.62051824701</ele>
        <time>2020-08-08T06:25:18.000Z</time>
      </trkpt>
      <trkpt lat="43.70624" lon="3.76441">
        <ele>270.72011984064</ele>
        <time>2020-08-08T06:25:19.000Z</time>
      </trkpt>
      <trkpt lat="43.70624" lon="3.76445">
        <ele>270.81972143426</ele>
        <time>2020-08-08T06:25:20.000Z</time>
      </trkpt>
      <trkpt lat="43.70625" lon="3.76449">
        <ele>270.91932302789</ele>
        <time>2020-08-08T06:25:21.000Z</time>
      </trkpt>
      <trkpt lat="43.70625" lon="3.76453">
        <ele>271</ele>
        <time>2020-08-08T06:25:22.000Z</time>
      </trkpt>
      <trkpt lat="43.70625" lon="3.76457">
        <ele>271</ele>
        <time>2020-08-08T06:25:23.000Z</time>
      </trkpt>
      <trkpt lat="43.70625" lon="3.76461">
        <ele>271</ele>
        <time>2020-08-08T06:25:24.000Z</time>
      </trkpt>
      <trkpt lat="43.70625" lon="3.76465">
        <ele>271</ele>
        <time>2020-08-08T06:25:25.000Z</time>
      </trkpt>
      <trkpt lat="43.70625" lon="3.76468">
        <ele>271</ele>
        <time>2020-08-08T06:25:26.000Z</time>
      </trkpt>
      <trkpt lat="43.70625" lon="3.76472">
        <ele>271</ele>
        <time>2020-08-08T06:25:27.000Z</time>
      </trkpt>
      <trkpt lat="43.70625" lon="3.76476">
        <ele>271</ele>
        <time>2020-08-08T06:25:28.000Z</time>
      </trkpt>
      <trkpt lat="43.70626" lon="3.7648">
        <ele>271</ele>
        <time>2020-08-08T06:25:29.000Z</time>
      </trkpt>
      <trkpt lat="43.70627" lon="3.76484">
        <ele>271</ele>
        <time>2020-08-08T06:25:30.000Z</time>
      </trkpt>
      <trkpt lat="43.70628" lon="3.76487">
        <ele>271</ele>
        <time>2020-08-08T06:25:31.000Z</time>
      </trkpt>
      <trkpt lat="43.70629" lon="3.76491">
        <ele>271</ele>
        <time>2020-08-08T06:25:32.000Z</time>
      </trkpt>
      <trkpt lat="43.70629" lon="3.76495">
        <ele>271.09371829508</ele>
        <time>2020-08-08T06:25:33.000Z</time>
      </trkpt>
      <trkpt lat="43.7063" lon="3.76499">
        <ele>271.19341928782</ele>
        <time>2020-08-08T06:25:34.000Z</time>
      </trkpt>
      <trkpt lat="43.7063" lon="3.76503">
        <ele>271.29312028055</ele>
        <time>2020-08-08T06:25:35.000Z</time>
      </trkpt>
      <trkpt lat="43.70629" lon="3.76508">
        <ele>271.39282127329</ele>
        <time>2020-08-08T06:25:36.000Z</time>
      </trkpt>
      <trkpt lat="43.70628" lon="3.76512">
        <ele>271.49252226602</ele>
        <time>2020-08-08T06:25:37.000Z</time>
      </trkpt>
      <trkpt lat="43.70627" lon="3.76516">
        <ele>271.59222325876</ele>
        <time>2020-08-08T06:25:38.000Z</time>
      </trkpt>
      <trkpt lat="43.70627" lon="3.7652">
        <ele>271.69192425149</ele>
        <time>2020-08-08T06:25:39.000Z</time>
      </trkpt>
      <trkpt lat="43.70627" lon="3.76525">
        <ele>271.79162524423</ele>
        <time>2020-08-08T06:25:40.000Z</time>
      </trkpt>
      <trkpt lat="43.70627" lon="3.76529">
        <ele>271.89132623696</ele>
        <time>2020-08-08T06:25:41.000Z</time>
      </trkpt>
      <trkpt lat="43.70627" lon="3.76533">
        <ele>271.9910272297</ele>
        <time>2020-08-08T06:25:42.000Z</time>
      </trkpt>
      <trkpt lat="43.70628" lon="3.76537">
        <ele>272</ele>
        <time>2020-08-08T06:25:43.000Z</time>
      </trkpt>
      <trkpt lat="43.70629" lon="3.76541">
        <ele>272</ele>
        <time>2020-08-08T06:25:44.000Z</time>
      </trkpt>
      <trkpt lat="43.70629" lon="3.76545">
        <ele>272</ele>
        <time>2020-08-08T06:25:45.000Z</time>
      </trkpt>
      <trkpt lat="43.7063" lon="3.76549">
        <ele>272</ele>
        <time>2020-08-08T06:25:46.000Z</time>
      </trkpt>
      <trkpt lat="43.7063" lon="3.76553">
        <ele>272</ele>
        <time>2020-08-08T06:25:47.000Z</time>
      </trkpt>
      <trkpt lat="43.70631" lon="3.76557">
        <ele>272</ele>
        <time>2020-08-08T06:25:48.000Z</time>
      </trkpt>
      <trkpt lat="43.70632" lon="3.76561">
        <ele>272</ele>
        <time>2020-08-08T06:25:49.000Z</time>
      </trkpt>
      <trkpt lat="43.70634" lon="3.76564">
        <ele>272</ele>
        <time>2020-08-08T06:25:50.000Z</time>
      </trkpt>
      <trkpt lat="43.70636" lon="3.76568">
        <ele>272</ele>
        <time>2020-08-08T06:25:51.000Z</time>
      </trkpt>
      <trkpt lat="43.70637" lon="3.76571">
        <ele>271.97711413131</ele>
        <time>2020-08-08T06:25:52.000Z</time>
      </trkpt>
      <trkpt lat="43.70639" lon="3.76575">
        <ele>271.8776117388</ele>
        <time>2020-08-08T06:25:53.000Z</time>
      </trkpt>
      <trkpt lat="43.7064" lon="3.76579">
        <ele>271.77810934628</ele>
        <time>2020-08-08T06:25:54.000Z</time>
      </trkpt>
      <trkpt lat="43.70641" lon="3.76582">
        <ele>271.67860695377</ele>
        <time>2020-08-08T06:25:55.000Z</time>
      </trkpt>
      <trkpt lat="43.70642" lon="3.76586">
        <ele>271.57910456125</ele>
        <time>2020-08-08T06:25:56.000Z</time>
      </trkpt>
      <trkpt lat="43.70643" lon="3.76589">
        <ele>271.47960216874</ele>
        <time>2020-08-08T06:25:57.000Z</time>
      </trkpt>
      <trkpt lat="43.70644" lon="3.76593">
        <ele>271.38009977622</ele>
        <time>2020-08-08T06:25:58.000Z</time>
      </trkpt>
      <trkpt lat="43.70646" lon="3.76596">
        <ele>271.28059738371</ele>
        <time>2020-08-08T06:25:59.000Z</time>
      </trkpt>
      <trkpt lat="43.70648" lon="3.766">
        <ele>271.18109499119</ele>
        <time>2020-08-08T06:26:00.000Z</time>
      </trkpt>
      <trkpt lat="43.7065" lon="3.76603">
        <ele>271.08159259868</ele>
        <time>2020-08-08T06:26:01.000Z</time>
      </trkpt>
      <trkpt lat="43.70651" lon="3.76607">
        <ele>271</ele>
        <time>2020-08-08T06:26:02.000Z</time>
      </trkpt>
      <trkpt lat="43.70652" lon="3.7661">
        <ele>271</ele>
        <time>2020-08-08T06:26:03.000Z</time>
      </trkpt>
      <trkpt lat="43.70653" lon="3.76614">
        <ele>271</ele>
        <time>2020-08-08T06:26:04.000Z</time>
      </trkpt>
      <trkpt lat="43.70653" lon="3.76618">
        <ele>271</ele>
        <time>2020-08-08T06:26:05.000Z</time>
      </trkpt>
      <trkpt lat="43.70653" lon="3.76622">
        <ele>271</ele>
        <time>2020-08-08T06:26:06.000Z</time>
      </trkpt>
      <trkpt lat="43.70653" lon="3.76627">
        <ele>271</ele>
        <time>2020-08-08T06:26:07.000Z</time>
      </trkpt>
      <trkpt lat="43.70653" lon="3.76632">
        <ele>271</ele>
        <time>2020-08-08T06:26:08.000Z</time>
      </trkpt>
      <trkpt lat="43.70652" lon="3.76637">
        <ele>271</ele>
        <time>2020-08-08T06:26:09.000Z</time>
      </trkpt>
      <trkpt lat="43.7065" lon="3.76642">
        <ele>271</ele>
        <time>2020-08-08T06:26:10.000Z</time>
      </trkpt>
      <trkpt lat="43.70649" lon="3.76646">
        <ele>271</ele>
        <time>2020-08-08T06:26:11.000Z</time>
      </trkpt>
      <trkpt lat="43.70647" lon="3.7665">
        <ele>270.97762614786</ele>
        <time>2020-08-08T06:26:12.000Z</time>
      </trkpt>
      <trkpt lat="43.70645" lon="3.76654">
        <ele>270.88034988327</ele>
        <time>2020-08-08T06:26:13.000Z</time>
      </trkpt>
      <trkpt lat="43.70643" lon="3.76658">
        <ele>270.78307361868</ele>
        <time>2020-08-08T06:26:14.000Z</time>
      </trkpt>
      <trkpt lat="43.7064" lon="3.76662">
        <ele>270.68579735409</ele>
        <time>2020-08-08T06:26:15.000Z</time>
      </trkpt>
      <trkpt lat="43.70637" lon="3.76665">
        <ele>270.58852108949</ele>
        <time>2020-08-08T06:26:16.000Z</time>
      </trkpt>
      <trkpt lat="43.70635" lon="3.76668">
        <ele>270.4912448249</ele>
        <time>2020-08-08T06:26:17.000Z</time>
      </trkpt>
      <trkpt lat="43.70633" lon="3.76672">
        <ele>270.39396856031</ele>
        <time>2020-08-08T06:26:18.000Z</time>
      </trkpt>
      <trkpt lat="43.70631" lon="3.76676">
        <ele>270.29669229572</ele>
        <time>2020-08-08T06:26:19.000Z</time>
      </trkpt>
      <trkpt lat="43.70629" lon="3.7668">
        <ele>270.19941603113</ele>
        <time>2020-08-08T06:26:20.000Z</time>
      </trkpt>
      <trkpt lat="43.70627" lon="3.76684">
        <ele>270.10213976654</ele>
        <time>2020-08-08T06:26:21.000Z</time>
      </trkpt>
      <trkpt lat="43.70626" lon="3.76688">
        <ele>270.00486350195</ele>
        <time>2020-08-08T06:26:22.000Z</time>
      </trkpt>
      <trkpt lat="43.70625" lon="3.76693">
        <ele>269.90226304527</ele>
        <time>2020-08-08T06:26:23.000Z</time>
      </trkpt>
      <trkpt lat="43.70624" lon="3.76697">
        <ele>269.79938238683</ele>
        <time>2020-08-08T06:26:24.000Z</time>
      </trkpt>
      <trkpt lat="43.70623" lon="3.76701">
        <ele>269.69650172839</ele>
        <time>2020-08-08T06:26:25.000Z</time>
      </trkpt>
      <trkpt lat="43.70621" lon="3.76704">
        <ele>269.59362106996</ele>
        <time>2020-08-08T06:26:26.000Z</time>
      </trkpt>
      <trkpt lat="43.70619" lon="3.76707">
        <ele>269.49074041152</ele>
        <time>2020-08-08T06:26:27.000Z</time>
      </trkpt>
      <trkpt lat="43.70616" lon="3.76709">
        <ele>269.38785975309</ele>
        <time>2020-08-08T06:26:28.000Z</time>
      </trkpt>
      <trkpt lat="43.70614" lon="3.76711">
        <ele>269.28497909465</ele>
        <time>2020-08-08T06:26:29.000Z</time>
      </trkpt>
      <trkpt lat="43.70611" lon="3.76713">
        <ele>269.18209843621</ele>
        <time>2020-08-08T06:26:30.000Z</time>
      </trkpt>
      <trkpt lat="43.70609" lon="3.76716">
        <ele>269.07921777778</ele>
        <time>2020-08-08T06:26:31.000Z</time>
      </trkpt>
      <trkpt lat="43.70607" lon="3.76718">
        <ele>268.95399936</ele>
        <time>2020-08-08T06:26:32.000Z</time>
      </trkpt>
      <trkpt lat="43.70605" lon="3.76721">
        <ele>268.75399936</ele>
        <time>2020-08-08T06:26:33.000Z</time>
      </trkpt>
      <trkpt lat="43.70604" lon="3.76724">
        <ele>268.55399936</ele>
        <time>2020-08-08T06:26:34.000Z</time>
      </trkpt>
      <trkpt lat="43.70604" lon="3.76727">
        <ele>268.35399936</ele>
        <time>2020-08-08T06:26:35.000Z</time>
      </trkpt>
      <trkpt lat="43.70604" lon="3.7673">
        <ele>268.15399936</ele>
        <time>2020-08-08T06:26:36.000Z</time>
      </trkpt>
      <trkpt lat="43.70605" lon="3.76734">
        <ele>267.95399936</ele>
        <time>2020-08-08T06:26:37.000Z</time>
      </trkpt>
      <trkpt lat="43.70606" lon="3.7674">
        <ele>267.75399936</ele>
        <time>2020-08-08T06:26:38.000Z</time>
      </trkpt>
      <trkpt lat="43.70608" lon="3.76745">
        <ele>267.55399936</ele>
        <time>2020-08-08T06:26:39.000Z</time>
      </trkpt>
      <trkpt lat="43.70612" lon="3.76749">
        <ele>267.35399936</ele>
        <time>2020-08-08T06:26:40.000Z</time>
      </trkpt>
      <trkpt lat="43.70615" lon="3.76753">
        <ele>267.15399936</ele>
        <time>2020-08-08T06:26:41.000Z</time>
      </trkpt>
      <trkpt lat="43.70619" lon="3.76756">
        <ele>266.93099904</ele>
        <time>2020-08-08T06:26:42.000Z</time>
      </trkpt>
      <trkpt lat="43.70623" lon="3.76759">
        <ele>266.63099904</ele>
        <time>2020-08-08T06:26:43.000Z</time>
      </trkpt>
      <trkpt lat="43.70627" lon="3.76762">
        <ele>266.33099904</ele>
        <time>2020-08-08T06:26:44.000Z</time>
      </trkpt>
      <trkpt lat="43.70631" lon="3.76766">
        <ele>266.03099904</ele>
        <time>2020-08-08T06:26:45.000Z</time>
      </trkpt>
      <trkpt lat="43.70635" lon="3.76769">
        <ele>265.73099904</ele>
        <time>2020-08-08T06:26:46.000Z</time>
      </trkpt>
      <trkpt lat="43.7064" lon="3.76772">
        <ele>265.43099904</ele>
        <time>2020-08-08T06:26:47.000Z</time>
      </trkpt>
      <trkpt lat="43.70644" lon="3.76774">
        <ele>265.13099904</ele>
        <time>2020-08-08T06:26:48.000Z</time>
      </trkpt>
      <trkpt lat="43.70648" lon="3.76775">
        <ele>264.83099904</ele>
        <time>2020-08-08T06:26:49.000Z</time>
      </trkpt>
      <trkpt lat="43.70652" lon="3.76776">
        <ele>264.53099904</ele>
        <time>2020-08-08T06:26:50.000Z</time>
      </trkpt>
      <trkpt lat="43.70656" lon="3.76777">
        <ele>264.23099904</ele>
        <time>2020-08-08T06:26:51.000Z</time>
      </trkpt>
      <trkpt lat="43.70659" lon="3.76777">
        <ele>263.93099904</ele>
        <time>2020-08-08T06:26:52.000Z</time>
      </trkpt>
      <trkpt lat="43.70661" lon="3.76777">
        <ele>263.63099904</ele>
        <time>2020-08-08T06:26:53.000Z</time>
      </trkpt>
      <trkpt lat="43.70663" lon="3.76778">
        <ele>263.33099904</ele>
        <time>2020-08-08T06:26:54.000Z</time>
      </trkpt>
      <trkpt lat="43.70666" lon="3.76778">
        <ele>263.03099904</ele>
        <time>2020-08-08T06:26:55.000Z</time>
      </trkpt>
      <trkpt lat="43.70668" lon="3.76779">
        <ele>262.73099904</ele>
        <time>2020-08-08T06:26:56.000Z</time>
      </trkpt>
      <trkpt lat="43.70671" lon="3.7678">
        <ele>262.43099904</ele>
        <time>2020-08-08T06:26:57.000Z</time>
      </trkpt>
      <trkpt lat="43.70674" lon="3.76781">
        <ele>262.13099904</ele>
        <time>2020-08-08T06:26:58.000Z</time>
      </trkpt>
      <trkpt lat="43.70677" lon="3.76783">
        <ele>261.83099904</ele>
        <time>2020-08-08T06:26:59.000Z</time>
      </trkpt>
      <trkpt lat="43.70681" lon="3.76784">
        <ele>261.53099904</ele>
        <time>2020-08-08T06:27:00.000Z</time>
      </trkpt>
      <trkpt lat="43.70685" lon="3.76785">
        <ele>261.23099904</ele>
        <time>2020-08-08T06:27:01.000Z</time>
      </trkpt>
      <trkpt lat="43.70689" lon="3.76785">
        <ele>260.95399936</ele>
        <time>2020-08-08T06:27:02.000Z</time>
      </trkpt>
      <trkpt lat="43.70693" lon="3.76786">
        <ele>260.75399936</ele>
        <time>2020-08-08T06:27:03.000Z</time>
      </trkpt>
      <trkpt lat="43.70697" lon="3.76786">
        <ele>260.55399936</ele>
        <time>2020-08-08T06:27:04.000Z</time>
      </trkpt>
      <trkpt lat="43.70701" lon="3.76786">
        <ele>260.35399936</ele>
        <time>2020-08-08T06:27:05.000Z</time>
      </trkpt>
      <trkpt lat="43.70705" lon="3.76785">
        <ele>260.15399936</ele>
        <time>2020-08-08T06:27:06.000Z</time>
      </trkpt>
      <trkpt lat="43.70709" lon="3.76785">
        <ele>259.95399936</ele>
        <time>2020-08-08T06:27:07.000Z</time>
      </trkpt>
      <trkpt lat="43.70712" lon="3.76785">
        <ele>259.75399936</ele>
        <time>2020-08-08T06:27:08.000Z</time>
      </trkpt>
      <trkpt lat="43.70716" lon="3.76785">
        <ele>259.55399936</ele>
        <time>2020-08-08T06:27:09.000Z</time>
      </trkpt>
      <trkpt lat="43.70719" lon="3.76785">
        <ele>259.35399936</ele>
        <time>2020-08-08T06:27:10.000Z</time>
      </trkpt>
      <trkpt lat="43.70722" lon="3.76785">
        <ele>259.15399936</ele>
        <time>2020-08-08T06:27:11.000Z</time>
      </trkpt>
      <trkpt lat="43.70724" lon="3.76785">
        <ele>258.90799872</ele>
        <time>2020-08-08T06:27:12.000Z</time>
      </trkpt>
      <trkpt lat="43.70726" lon="3.76786">
        <ele>258.50799872</ele>
        <time>2020-08-08T06:27:13.000Z</time>
      </trkpt>
      <trkpt lat="43.70729" lon="3.76787">
        <ele>258.10799872</ele>
        <time>2020-08-08T06:27:14.000Z</time>
      </trkpt>
      <trkpt lat="43.70731" lon="3.76788">
        <ele>257.70799872</ele>
        <time>2020-08-08T06:27:15.000Z</time>
      </trkpt>
      <trkpt lat="43.70733" lon="3.7679">
        <ele>257.30799872</ele>
        <time>2020-08-08T06:27:16.000Z</time>
      </trkpt>
      <trkpt lat="43.70735" lon="3.76792">
        <ele>256.90799872</ele>
        <time>2020-08-08T06:27:17.000Z</time>
      </trkpt>
      <trkpt lat="43.70738" lon="3.76795">
        <ele>256.50799872</ele>
        <time>2020-08-08T06:27:18.000Z</time>
      </trkpt>
      <trkpt lat="43.70741" lon="3.76798">
        <ele>256.10799872</ele>
        <time>2020-08-08T06:27:19.000Z</time>
      </trkpt>
      <trkpt lat="43.70743" lon="3.768">
        <ele>255.70799872</ele>
        <time>2020-08-08T06:27:20.000Z</time>
      </trkpt>
      <trkpt lat="43.70745" lon="3.76803">
        <ele>255.30799872</ele>
        <time>2020-08-08T06:27:21.000Z</time>
      </trkpt>
      <trkpt lat="43.70747" lon="3.76805">
        <ele>254.93099904</ele>
        <time>2020-08-08T06:27:22.000Z</time>
      </trkpt>
      <trkpt lat="43.7075" lon="3.76806">
        <ele>254.63099904</ele>
        <time>2020-08-08T06:27:23.000Z</time>
      </trkpt>
      <trkpt lat="43.70751" lon="3.76808">
        <ele>254.33099904</ele>
        <time>2020-08-08T06:27:24.000Z</time>
      </trkpt>
      <trkpt lat="43.70753" lon="3.76811">
        <ele>254.03099904</ele>
        <time>2020-08-08T06:27:25.000Z</time>
      </trkpt>
      <trkpt lat="43.70754" lon="3.76814">
        <ele>253.73099904</ele>
        <time>2020-08-08T06:27:26.000Z</time>
      </trkpt>
      <trkpt lat="43.70756" lon="3.76816">
        <ele>253.43099904</ele>
        <time>2020-08-08T06:27:27.000Z</time>
      </trkpt>
      <trkpt lat="43.70758" lon="3.76819">
        <ele>253.13099904</ele>
        <time>2020-08-08T06:27:28.000Z</time>
      </trkpt>
      <trkpt lat="43.7076" lon="3.76822">
        <ele>252.83099904</ele>
        <time>2020-08-08T06:27:29.000Z</time>
      </trkpt>
      <trkpt lat="43.70769" lon="3.7683">
        <ele>251.75905934506</ele>
        <time>2020-08-08T06:27:33.000Z</time>
      </trkpt>
      <trkpt lat="43.70774" lon="3.76841">
        <ele>250.9755145382</ele>
        <time>2020-08-08T06:27:37.000Z</time>
      </trkpt>
      <trkpt lat="43.70774" lon="3.76844">
        <ele>250.77962833649</ele>
        <time>2020-08-08T06:27:38.000Z</time>
      </trkpt>
      <trkpt lat="43.70775" lon="3.76852">
        <ele>250.38785593306</ele>
        <time>2020-08-08T06:27:40.000Z</time>
      </trkpt>
      <trkpt lat="43.70775" lon="3.76865">
        <ele>249.79162520936</ele>
        <time>2020-08-08T06:27:43.000Z</time>
      </trkpt>
      <trkpt lat="43.70774" lon="3.76869">
        <ele>249.5873349171</ele>
        <time>2020-08-08T06:27:44.000Z</time>
      </trkpt>
      <trkpt lat="43.70773" lon="3.76874">
        <ele>249.38304462485</ele>
        <time>2020-08-08T06:27:45.000Z</time>
      </trkpt>
      <trkpt lat="43.70773" lon="3.76878">
        <ele>249.17875433259</ele>
        <time>2020-08-08T06:27:46.000Z</time>
      </trkpt>
      <trkpt lat="43.70772" lon="3.76883">
        <ele>248.97446404033</ele>
        <time>2020-08-08T06:27:47.000Z</time>
      </trkpt>
      <trkpt lat="43.70772" lon="3.76887">
        <ele>248.77017374808</ele>
        <time>2020-08-08T06:27:48.000Z</time>
      </trkpt>
      <trkpt lat="43.70772" lon="3.76891">
        <ele>248.56588345582</ele>
        <time>2020-08-08T06:27:49.000Z</time>
      </trkpt>
      <trkpt lat="43.70772" lon="3.76897">
        <ele>248.36159316356</ele>
        <time>2020-08-08T06:27:50.000Z</time>
      </trkpt>
      <trkpt lat="43.70771" lon="3.76902">
        <ele>248.15730287131</ele>
        <time>2020-08-08T06:27:51.000Z</time>
      </trkpt>
      <trkpt lat="43.70771" lon="3.76906">
        <ele>247.95399936</ele>
        <time>2020-08-08T06:27:52.000Z</time>
      </trkpt>
      <trkpt lat="43.7077" lon="3.7691">
        <ele>247.75399936</ele>
        <time>2020-08-08T06:27:53.000Z</time>
      </trkpt>
      <trkpt lat="43.7077" lon="3.76915">
        <ele>247.55399936</ele>
        <time>2020-08-08T06:27:54.000Z</time>
      </trkpt>
      <trkpt lat="43.70769" lon="3.76919">
        <ele>247.35399936</ele>
        <time>2020-08-08T06:27:55.000Z</time>
      </trkpt>
      <trkpt lat="43.70769" lon="3.76923">
        <ele>247.15399936</ele>
        <time>2020-08-08T06:27:56.000Z</time>
      </trkpt>
      <trkpt lat="43.7077" lon="3.76928">
        <ele>246.95399936</ele>
        <time>2020-08-08T06:27:57.000Z</time>
      </trkpt>
      <trkpt lat="43.7077" lon="3.76933">
        <ele>246.75399936</ele>
        <time>2020-08-08T06:27:58.000Z</time>
      </trkpt>
      <trkpt lat="43.70771" lon="3.76937">
        <ele>246.55399936</ele>
        <time>2020-08-08T06:27:59.000Z</time>
      </trkpt>
      <trkpt lat="43.70772" lon="3.76942">
        <ele>246.35399936</ele>
        <time>2020-08-08T06:28:00.000Z</time>
      </trkpt>
      <trkpt lat="43.70773" lon="3.76946">
        <ele>246.15399936</ele>
        <time>2020-08-08T06:28:01.000Z</time>
      </trkpt>
      <trkpt lat="43.70774" lon="3.7695">
        <ele>245.8849984</ele>
        <time>2020-08-08T06:28:02.000Z</time>
      </trkpt>
      <trkpt lat="43.70775" lon="3.76954">
        <ele>245.3849984</ele>
        <time>2020-08-08T06:28:03.000Z</time>
      </trkpt>
      <trkpt lat="43.70776" lon="3.76958">
        <ele>244.8849984</ele>
        <time>2020-08-08T06:28:04.000Z</time>
      </trkpt>
      <trkpt lat="43.70779" lon="3.76966">
        <ele>243.8849984</ele>
        <time>2020-08-08T06:28:06.000Z</time>
      </trkpt>
      <trkpt lat="43.70782" lon="3.76969">
        <ele>243.3849984</ele>
        <time>2020-08-08T06:28:07.000Z</time>
      </trkpt>
      <trkpt lat="43.70784" lon="3.76972">
        <ele>242.8849984</ele>
        <time>2020-08-08T06:28:08.000Z</time>
      </trkpt>
      <trkpt lat="43.70789" lon="3.7698">
        <ele>241.3849984</ele>
        <time>2020-08-08T06:28:11.000Z</time>
      </trkpt>
      <trkpt lat="43.70791" lon="3.76982">
        <ele>240.91050459144</ele>
        <time>2020-08-08T06:28:12.000Z</time>
      </trkpt>
      <trkpt lat="43.70793" lon="3.76985">
        <ele>240.52139953307</ele>
        <time>2020-08-08T06:28:13.000Z</time>
      </trkpt>
      <trkpt lat="43.70795" lon="3.76987">
        <ele>240.13229447471</ele>
        <time>2020-08-08T06:28:14.000Z</time>
      </trkpt>
      <trkpt lat="43.70798" lon="3.76989">
        <ele>239.74318941634</ele>
        <time>2020-08-08T06:28:15.000Z</time>
      </trkpt>
      <trkpt lat="43.708" lon="3.76991">
        <ele>239.35408435798</ele>
        <time>2020-08-08T06:28:16.000Z</time>
      </trkpt>
      <trkpt lat="43.70802" lon="3.76992">
        <ele>238.96497929961</ele>
        <time>2020-08-08T06:28:17.000Z</time>
      </trkpt>
      <trkpt lat="43.70804" lon="3.76994">
        <ele>238.57587424125</ele>
        <time>2020-08-08T06:28:18.000Z</time>
      </trkpt>
      <trkpt lat="43.70806" lon="3.76995">
        <ele>238.18676918288</ele>
        <time>2020-08-08T06:28:19.000Z</time>
      </trkpt>
      <trkpt lat="43.70808" lon="3.76996">
        <ele>237.79766412451</ele>
        <time>2020-08-08T06:28:20.000Z</time>
      </trkpt>
      <trkpt lat="43.70812" lon="3.76996">
        <ele>237.01945400778</ele>
        <time>2020-08-08T06:28:22.000Z</time>
      </trkpt>
      <trkpt lat="43.70814" lon="3.76994">
        <ele>236.80452609054</ele>
        <time>2020-08-08T06:28:23.000Z</time>
      </trkpt>
      <trkpt lat="43.70816" lon="3.76991">
        <ele>236.59876477366</ele>
        <time>2020-08-08T06:28:24.000Z</time>
      </trkpt>
      <trkpt lat="43.70818" lon="3.76988">
        <ele>236.39300345679</ele>
        <time>2020-08-08T06:28:25.000Z</time>
      </trkpt>
      <trkpt lat="43.70819" lon="3.76985">
        <ele>236.18724213992</ele>
        <time>2020-08-08T06:28:26.000Z</time>
      </trkpt>
      <trkpt lat="43.7082" lon="3.76982">
        <ele>235.98148082304</ele>
        <time>2020-08-08T06:28:27.000Z</time>
      </trkpt>
      <trkpt lat="43.70822" lon="3.76978">
        <ele>235.77571950617</ele>
        <time>2020-08-08T06:28:28.000Z</time>
      </trkpt>
      <trkpt lat="43.70823" lon="3.76975">
        <ele>235.5699581893</ele>
        <time>2020-08-08T06:28:29.000Z</time>
      </trkpt>
      <trkpt lat="43.70824" lon="3.76972">
        <ele>235.36419687243</ele>
        <time>2020-08-08T06:28:30.000Z</time>
      </trkpt>
      <trkpt lat="43.70825" lon="3.76969">
        <ele>235.15843555556</ele>
        <time>2020-08-08T06:28:31.000Z</time>
      </trkpt>
      <trkpt lat="43.70827" lon="3.76966">
        <ele>234.93099904</ele>
        <time>2020-08-08T06:28:32.000Z</time>
      </trkpt>
      <trkpt lat="43.70828" lon="3.76963">
        <ele>234.63099904</ele>
        <time>2020-08-08T06:28:33.000Z</time>
      </trkpt>
      <trkpt lat="43.70829" lon="3.7696">
        <ele>234.33099904</ele>
        <time>2020-08-08T06:28:34.000Z</time>
      </trkpt>
      <trkpt lat="43.7083" lon="3.76957">
        <ele>234.03099904</ele>
        <time>2020-08-08T06:28:35.000Z</time>
      </trkpt>
      <trkpt lat="43.70832" lon="3.76954">
        <ele>233.73099904</ele>
        <time>2020-08-08T06:28:36.000Z</time>
      </trkpt>
      <trkpt lat="43.70833" lon="3.76951">
        <ele>233.43099904</ele>
        <time>2020-08-08T06:28:37.000Z</time>
      </trkpt>
      <trkpt lat="43.70835" lon="3.76948">
        <ele>233.13099904</ele>
        <time>2020-08-08T06:28:38.000Z</time>
      </trkpt>
      <trkpt lat="43.70836" lon="3.76945">
        <ele>232.83099904</ele>
        <time>2020-08-08T06:28:39.000Z</time>
      </trkpt>
      <trkpt lat="43.70837" lon="3.76942">
        <ele>232.53099904</ele>
        <time>2020-08-08T06:28:40.000Z</time>
      </trkpt>
      <trkpt lat="43.70839" lon="3.76939">
        <ele>232.23099904</ele>
        <time>2020-08-08T06:28:41.000Z</time>
      </trkpt>
      <trkpt lat="43.7084" lon="3.76936">
        <ele>232</ele>
        <time>2020-08-08T06:28:42.000Z</time>
      </trkpt>
      <trkpt lat="43.70842" lon="3.76934">
        <ele>232</ele>
        <time>2020-08-08T06:28:43.000Z</time>
      </trkpt>
      <trkpt lat="43.70844" lon="3.76931">
        <ele>232</ele>
        <time>2020-08-08T06:28:44.000Z</time>
      </trkpt>
      <trkpt lat="43.70846" lon="3.76929">
        <ele>232</ele>
        <time>2020-08-08T06:28:45.000Z</time>
      </trkpt>
      <trkpt lat="43.70847" lon="3.76927">
        <ele>232</ele>
        <time>2020-08-08T06:28:46.000Z</time>
      </trkpt>
      <trkpt lat="43.70849" lon="3.76925">
        <ele>232</ele>
        <time>2020-08-08T06:28:47.000Z</time>
      </trkpt>
      <trkpt lat="43.70851" lon="3.76923">
        <ele>232</ele>
        <time>2020-08-08T06:28:48.000Z</time>
      </trkpt>
      <trkpt lat="43.70853" lon="3.76922">
        <ele>232</ele>
        <time>2020-08-08T06:28:49.000Z</time>
      </trkpt>
      <trkpt lat="43.70855" lon="3.7692">
        <ele>232</ele>
        <time>2020-08-08T06:28:50.000Z</time>
      </trkpt>
      <trkpt lat="43.70858" lon="3.7692">
        <ele>232</ele>
        <time>2020-08-08T06:28:51.000Z</time>
      </trkpt>
      <trkpt lat="43.7086" lon="3.76919">
        <ele>232.02237385214</ele>
        <time>2020-08-08T06:28:52.000Z</time>
      </trkpt>
      <trkpt lat="43.70862" lon="3.76918">
        <ele>232.11965011673</ele>
        <time>2020-08-08T06:28:53.000Z</time>
      </trkpt>
      <trkpt lat="43.70864" lon="3.76917">
        <ele>232.21692638132</ele>
        <time>2020-08-08T06:28:54.000Z</time>
      </trkpt>
      <trkpt lat="43.70867" lon="3.76917">
        <ele>232.31420264591</ele>
        <time>2020-08-08T06:28:55.000Z</time>
      </trkpt>
      <trkpt lat="43.70869" lon="3.76917">
        <ele>232.41147891051</ele>
        <time>2020-08-08T06:28:56.000Z</time>
      </trkpt>
      <trkpt lat="43.70872" lon="3.76917">
        <ele>232.5087551751</ele>
        <time>2020-08-08T06:28:57.000Z</time>
      </trkpt>
      <trkpt lat="43.70874" lon="3.76917">
        <ele>232.60603143969</ele>
        <time>2020-08-08T06:28:58.000Z</time>
      </trkpt>
      <trkpt lat="43.70877" lon="3.76917">
        <ele>232.70330770428</ele>
        <time>2020-08-08T06:28:59.000Z</time>
      </trkpt>
      <trkpt lat="43.70879" lon="3.76916">
        <ele>232.80058396887</ele>
        <time>2020-08-08T06:29:00.000Z</time>
      </trkpt>
      <trkpt lat="43.70882" lon="3.76916">
        <ele>232.89786023346</ele>
        <time>2020-08-08T06:29:01.000Z</time>
      </trkpt>
      <trkpt lat="43.70885" lon="3.76917">
        <ele>232.99513649805</ele>
        <time>2020-08-08T06:29:02.000Z</time>
      </trkpt>
      <trkpt lat="43.70887" lon="3.76916">
        <ele>232.90226304527</ele>
        <time>2020-08-08T06:29:03.000Z</time>
      </trkpt>
      <trkpt lat="43.7089" lon="3.76916">
        <ele>232.79938238683</ele>
        <time>2020-08-08T06:29:04.000Z</time>
      </trkpt>
      <trkpt lat="43.70892" lon="3.76916">
        <ele>232.69650172839</ele>
        <time>2020-08-08T06:29:05.000Z</time>
      </trkpt>
      <trkpt lat="43.70895" lon="3.76916">
        <ele>232.59362106996</ele>
        <time>2020-08-08T06:29:06.000Z</time>
      </trkpt>
      <trkpt lat="43.70897" lon="3.76916">
        <ele>232.49074041152</ele>
        <time>2020-08-08T06:29:07.000Z</time>
      </trkpt>
      <trkpt lat="43.70899" lon="3.76915">
        <ele>232.38785975309</ele>
        <time>2020-08-08T06:29:08.000Z</time>
      </trkpt>
      <trkpt lat="43.70902" lon="3.76915">
        <ele>232.28497909465</ele>
        <time>2020-08-08T06:29:09.000Z</time>
      </trkpt>
      <trkpt lat="43.70904" lon="3.76914">
        <ele>232.18209843621</ele>
        <time>2020-08-08T06:29:10.000Z</time>
      </trkpt>
      <trkpt lat="43.70906" lon="3.76914">
        <ele>232.07921777778</ele>
        <time>2020-08-08T06:29:11.000Z</time>
      </trkpt>
      <trkpt lat="43.70908" lon="3.76914">
        <ele>232</ele>
        <time>2020-08-08T06:29:12.000Z</time>
      </trkpt>
      <trkpt lat="43.70911" lon="3.76913">
        <ele>232</ele>
        <time>2020-08-08T06:29:13.000Z</time>
      </trkpt>
      <trkpt lat="43.70913" lon="3.76913">
        <ele>232</ele>
        <time>2020-08-08T06:29:14.000Z</time>
      </trkpt>
      <trkpt lat="43.70915" lon="3.76913">
        <ele>232</ele>
        <time>2020-08-08T06:29:15.000Z</time>
      </trkpt>
      <trkpt lat="43.70917" lon="3.76913">
        <ele>232</ele>
        <time>2020-08-08T06:29:16.000Z</time>
      </trkpt>
      <trkpt lat="43.7092" lon="3.76913">
        <ele>232</ele>
        <time>2020-08-08T06:29:17.000Z</time>
      </trkpt>
      <trkpt lat="43.70922" lon="3.76912">
        <ele>232</ele>
        <time>2020-08-08T06:29:18.000Z</time>
      </trkpt>
      <trkpt lat="43.70924" lon="3.76912">
        <ele>232</ele>
        <time>2020-08-08T06:29:19.000Z</time>
      </trkpt>
      <trkpt lat="43.70927" lon="3.76912">
        <ele>232</ele>
        <time>2020-08-08T06:29:20.000Z</time>
      </trkpt>
      <trkpt lat="43.70929" lon="3.76912">
        <ele>232</ele>
        <time>2020-08-08T06:29:21.000Z</time>
      </trkpt>
      <trkpt lat="43.70932" lon="3.76912">
        <ele>232</ele>
        <time>2020-08-08T06:29:22.000Z</time>
      </trkpt>
      <trkpt lat="43.70934" lon="3.76912">
        <ele>232</ele>
        <time>2020-08-08T06:29:23.000Z</time>
      </trkpt>
      <trkpt lat="43.70937" lon="3.76912">
        <ele>232</ele>
        <time>2020-08-08T06:29:24.000Z</time>
      </trkpt>
      <trkpt lat="43.70939" lon="3.76912">
        <ele>232</ele>
        <time>2020-08-08T06:29:25.000Z</time>
      </trkpt>
      <trkpt lat="43.70941" lon="3.76912">
        <ele>232</ele>
        <time>2020-08-08T06:29:26.000Z</time>
      </trkpt>
      <trkpt lat="43.70944" lon="3.76912">
        <ele>232</ele>
        <time>2020-08-08T06:29:27.000Z</time>
      </trkpt>
      <trkpt lat="43.70946" lon="3.76912">
        <ele>232</ele>
        <time>2020-08-08T06:29:28.000Z</time>
      </trkpt>
      <trkpt lat="43.70948" lon="3.76912">
        <ele>232</ele>
        <time>2020-08-08T06:29:29.000Z</time>
      </trkpt>
      <trkpt lat="43.70951" lon="3.76912">
        <ele>232</ele>
        <time>2020-08-08T06:29:30.000Z</time>
      </trkpt>
      <trkpt lat="43.70953" lon="3.76912">
        <ele>232</ele>
        <time>2020-08-08T06:29:31.000Z</time>
      </trkpt>
      <trkpt lat="43.70955" lon="3.76912">
        <ele>232</ele>
        <time>2020-08-08T06:29:32.000Z</time>
      </trkpt>
      <trkpt lat="43.70957" lon="3.76912">
        <ele>232</ele>
        <time>2020-08-08T06:29:33.000Z</time>
      </trkpt>
      <trkpt lat="43.70959" lon="3.76911">
        <ele>232</ele>
        <time>2020-08-08T06:29:34.000Z</time>
      </trkpt>
      <trkpt lat="43.70962" lon="3.7691">
        <ele>232</ele>
        <time>2020-08-08T06:29:35.000Z</time>
      </trkpt>
      <trkpt lat="43.70964" lon="3.76909">
        <ele>232</ele>
        <time>2020-08-08T06:29:36.000Z</time>
      </trkpt>
      <trkpt lat="43.70966" lon="3.76909">
        <ele>232</ele>
        <time>2020-08-08T06:29:37.000Z</time>
      </trkpt>
      <trkpt lat="43.70968" lon="3.76908">
        <ele>232</ele>
        <time>2020-08-08T06:29:38.000Z</time>
      </trkpt>
      <trkpt lat="43.7097" lon="3.76907">
        <ele>232</ele>
        <time>2020-08-08T06:29:39.000Z</time>
      </trkpt>
      <trkpt lat="43.70972" lon="3.76906">
        <ele>232</ele>
        <time>2020-08-08T06:29:40.000Z</time>
      </trkpt>
      <trkpt lat="43.70974" lon="3.76905">
        <ele>232</ele>
        <time>2020-08-08T06:29:41.000Z</time>
      </trkpt>
      <trkpt lat="43.70976" lon="3.76904">
        <ele>232</ele>
        <time>2020-08-08T06:29:42.000Z</time>
      </trkpt>
      <trkpt lat="43.70978" lon="3.76904">
        <ele>232</ele>
        <time>2020-08-08T06:29:43.000Z</time>
      </trkpt>
      <trkpt lat="43.70981" lon="3.76903">
        <ele>232</ele>
        <time>2020-08-08T06:29:44.000Z</time>
      </trkpt>
      <trkpt lat="43.70983" lon="3.76902">
        <ele>232</ele>
        <time>2020-08-08T06:29:45.000Z</time>
      </trkpt>
      <trkpt lat="43.70985" lon="3.76901">
        <ele>232</ele>
        <time>2020-08-08T06:29:46.000Z</time>
      </trkpt>
      <trkpt lat="43.70987" lon="3.769">
        <ele>232</ele>
        <time>2020-08-08T06:29:47.000Z</time>
      </trkpt>
      <trkpt lat="43.70989" lon="3.76899">
        <ele>232</ele>
        <time>2020-08-08T06:29:48.000Z</time>
      </trkpt>
      <trkpt lat="43.70992" lon="3.76898">
        <ele>232</ele>
        <time>2020-08-08T06:29:49.000Z</time>
      </trkpt>
      <trkpt lat="43.70994" lon="3.76897">
        <ele>232</ele>
        <time>2020-08-08T06:29:50.000Z</time>
      </trkpt>
      <trkpt lat="43.70996" lon="3.76896">
        <ele>232</ele>
        <time>2020-08-08T06:29:51.000Z</time>
      </trkpt>
      <trkpt lat="43.70999" lon="3.76895">
        <ele>232</ele>
        <time>2020-08-08T06:29:52.000Z</time>
      </trkpt>
      <trkpt lat="43.71001" lon="3.76894">
        <ele>232</ele>
        <time>2020-08-08T06:29:53.000Z</time>
      </trkpt>
      <trkpt lat="43.71003" lon="3.76893">
        <ele>232</ele>
        <time>2020-08-08T06:29:54.000Z</time>
      </trkpt>
      <trkpt lat="43.71005" lon="3.76892">
        <ele>232</ele>
        <time>2020-08-08T06:29:55.000Z</time>
      </trkpt>
      <trkpt lat="43.71007" lon="3.7689">
        <ele>232</ele>
        <time>2020-08-08T06:29:56.000Z</time>
      </trkpt>
      <trkpt lat="43.71009" lon="3.76889">
        <ele>232</ele>
        <time>2020-08-08T06:29:57.000Z</time>
      </trkpt>
      <trkpt lat="43.71011" lon="3.76888">
        <ele>232</ele>
        <time>2020-08-08T06:29:58.000Z</time>
      </trkpt>
      <trkpt lat="43.71013" lon="3.76886">
        <ele>232</ele>
        <time>2020-08-08T06:29:59.000Z</time>
      </trkpt>
      <trkpt lat="43.71015" lon="3.76884">
        <ele>232</ele>
        <time>2020-08-08T06:30:00.000Z</time>
      </trkpt>
      <trkpt lat="43.71016" lon="3.76882">
        <ele>232</ele>
        <time>2020-08-08T06:30:01.000Z</time>
      </trkpt>
      <trkpt lat="43.71018" lon="3.76881">
        <ele>232</ele>
        <time>2020-08-08T06:30:02.000Z</time>
      </trkpt>
      <trkpt lat="43.71019" lon="3.76879">
        <ele>232</ele>
        <time>2020-08-08T06:30:03.000Z</time>
      </trkpt>
      <trkpt lat="43.71021" lon="3.76877">
        <ele>232</ele>
        <time>2020-08-08T06:30:04.000Z</time>
      </trkpt>
      <trkpt lat="43.71023" lon="3.76874">
        <ele>232</ele>
        <time>2020-08-08T06:30:05.000Z</time>
      </trkpt>
      <trkpt lat="43.71024" lon="3.76872">
        <ele>232</ele>
        <time>2020-08-08T06:30:06.000Z</time>
      </trkpt>
      <trkpt lat="43.71026" lon="3.7687">
        <ele>232</ele>
        <time>2020-08-08T06:30:07.000Z</time>
      </trkpt>
      <trkpt lat="43.71027" lon="3.76867">
        <ele>232</ele>
        <time>2020-08-08T06:30:08.000Z</time>
      </trkpt>
      <trkpt lat="43.71029" lon="3.76865">
        <ele>232</ele>
        <time>2020-08-08T06:30:09.000Z</time>
      </trkpt>
      <trkpt lat="43.7103" lon="3.76863">
        <ele>232</ele>
        <time>2020-08-08T06:30:10.000Z</time>
      </trkpt>
      <trkpt lat="43.71031" lon="3.7686">
        <ele>232</ele>
        <time>2020-08-08T06:30:11.000Z</time>
      </trkpt>
      <trkpt lat="43.71032" lon="3.76858">
        <ele>232.02295439652</ele>
        <time>2020-08-08T06:30:12.000Z</time>
      </trkpt>
      <trkpt lat="43.71033" lon="3.76856">
        <ele>232.12275473197</ele>
        <time>2020-08-08T06:30:13.000Z</time>
      </trkpt>
      <trkpt lat="43.71035" lon="3.76853">
        <ele>232.22255506743</ele>
        <time>2020-08-08T06:30:14.000Z</time>
      </trkpt>
      <trkpt lat="43.71036" lon="3.76851">
        <ele>232.32235540289</ele>
        <time>2020-08-08T06:30:15.000Z</time>
      </trkpt>
      <trkpt lat="43.71037" lon="3.76848">
        <ele>232.42215573834</ele>
        <time>2020-08-08T06:30:16.000Z</time>
      </trkpt>
      <trkpt lat="43.71038" lon="3.76846">
        <ele>232.5219560738</ele>
        <time>2020-08-08T06:30:17.000Z</time>
      </trkpt>
      <trkpt lat="43.7104" lon="3.76843">
        <ele>232.62175640926</ele>
        <time>2020-08-08T06:30:18.000Z</time>
      </trkpt>
      <trkpt lat="43.71041" lon="3.76841">
        <ele>232.72155674471</ele>
        <time>2020-08-08T06:30:19.000Z</time>
      </trkpt>
      <trkpt lat="43.71042" lon="3.76838">
        <ele>232.82135708017</ele>
        <time>2020-08-08T06:30:20.000Z</time>
      </trkpt>
      <trkpt lat="43.71043" lon="3.76836">
        <ele>232.92115741563</ele>
        <time>2020-08-08T06:30:21.000Z</time>
      </trkpt>
      <trkpt lat="43.71044" lon="3.76834">
        <ele>233.02104177702</ele>
        <time>2020-08-08T06:30:22.000Z</time>
      </trkpt>
      <trkpt lat="43.71045" lon="3.76831">
        <ele>233.12124224208</ele>
        <time>2020-08-08T06:30:23.000Z</time>
      </trkpt>
      <trkpt lat="43.71047" lon="3.76828">
        <ele>233.22144270714</ele>
        <time>2020-08-08T06:30:24.000Z</time>
      </trkpt>
      <trkpt lat="43.71048" lon="3.76826">
        <ele>233.3216431722</ele>
        <time>2020-08-08T06:30:25.000Z</time>
      </trkpt>
      <trkpt lat="43.71049" lon="3.76823">
        <ele>233.42184363725</ele>
        <time>2020-08-08T06:30:26.000Z</time>
      </trkpt>
      <trkpt lat="43.7105" lon="3.7682">
        <ele>233.52204410231</ele>
        <time>2020-08-08T06:30:27.000Z</time>
      </trkpt>
      <trkpt lat="43.71051" lon="3.76817">
        <ele>233.62224456737</ele>
        <time>2020-08-08T06:30:28.000Z</time>
      </trkpt>
      <trkpt lat="43.71052" lon="3.76814">
        <ele>233.72244503243</ele>
        <time>2020-08-08T06:30:29.000Z</time>
      </trkpt>
      <trkpt lat="43.71053" lon="3.76812">
        <ele>233.82264549749</ele>
        <time>2020-08-08T06:30:30.000Z</time>
      </trkpt>
      <trkpt lat="43.71054" lon="3.76809">
        <ele>233.92284596255</ele>
        <time>2020-08-08T06:30:31.000Z</time>
      </trkpt>
      <trkpt lat="43.71055" lon="3.76806">
        <ele>234.02300032</ele>
        <time>2020-08-08T06:30:32.000Z</time>
      </trkpt>
      <trkpt lat="43.71056" lon="3.76802">
        <ele>234.12300032</ele>
        <time>2020-08-08T06:30:33.000Z</time>
      </trkpt>
      <trkpt lat="43.71057" lon="3.76799">
        <ele>234.22300032</ele>
        <time>2020-08-08T06:30:34.000Z</time>
      </trkpt>
      <trkpt lat="43.71057" lon="3.76796">
        <ele>234.32300032</ele>
        <time>2020-08-08T06:30:35.000Z</time>
      </trkpt>
      <trkpt lat="43.71058" lon="3.76793">
        <ele>234.42300032</ele>
        <time>2020-08-08T06:30:36.000Z</time>
      </trkpt>
      <trkpt lat="43.71059" lon="3.76791">
        <ele>234.52300032</ele>
        <time>2020-08-08T06:30:37.000Z</time>
      </trkpt>
      <trkpt lat="43.71059" lon="3.76788">
        <ele>234.62300032</ele>
        <time>2020-08-08T06:30:38.000Z</time>
      </trkpt>
      <trkpt lat="43.7106" lon="3.76785">
        <ele>234.72300032</ele>
        <time>2020-08-08T06:30:39.000Z</time>
      </trkpt>
      <trkpt lat="43.7106" lon="3.76782">
        <ele>234.82300032</ele>
        <time>2020-08-08T06:30:40.000Z</time>
      </trkpt>
      <trkpt lat="43.71061" lon="3.76779">
        <ele>234.92300032</ele>
        <time>2020-08-08T06:30:41.000Z</time>
      </trkpt>
      <trkpt lat="43.71061" lon="3.76776">
        <ele>235.04457426357</ele>
        <time>2020-08-08T06:30:42.000Z</time>
      </trkpt>
      <trkpt lat="43.71062" lon="3.76773">
        <ele>235.23837271318</ele>
        <time>2020-08-08T06:30:43.000Z</time>
      </trkpt>
      <trkpt lat="43.71062" lon="3.7677">
        <ele>235.43217116279</ele>
        <time>2020-08-08T06:30:44.000Z</time>
      </trkpt>
      <trkpt lat="43.71063" lon="3.76767">
        <ele>235.6259696124</ele>
        <time>2020-08-08T06:30:45.000Z</time>
      </trkpt>
      <trkpt lat="43.71063" lon="3.76764">
        <ele>235.81976806201</ele>
        <time>2020-08-08T06:30:46.000Z</time>
      </trkpt>
      <trkpt lat="43.71063" lon="3.76761">
        <ele>236.01356651163</ele>
        <time>2020-08-08T06:30:47.000Z</time>
      </trkpt>
      <trkpt lat="43.71064" lon="3.76758">
        <ele>236.20736496124</ele>
        <time>2020-08-08T06:30:48.000Z</time>
      </trkpt>
      <trkpt lat="43.71065" lon="3.76755">
        <ele>236.40116341085</ele>
        <time>2020-08-08T06:30:49.000Z</time>
      </trkpt>
      <trkpt lat="43.71065" lon="3.76752">
        <ele>236.59496186046</ele>
        <time>2020-08-08T06:30:50.000Z</time>
      </trkpt>
      <trkpt lat="43.71066" lon="3.76749">
        <ele>236.78876031008</ele>
        <time>2020-08-08T06:30:51.000Z</time>
      </trkpt>
      <trkpt lat="43.71066" lon="3.76746">
        <ele>236.98255875969</ele>
        <time>2020-08-08T06:30:52.000Z</time>
      </trkpt>
      <trkpt lat="43.71066" lon="3.76743">
        <ele>237.09400859504</ele>
        <time>2020-08-08T06:30:53.000Z</time>
      </trkpt>
      <trkpt lat="43.71067" lon="3.7674">
        <ele>237.19731438017</ele>
        <time>2020-08-08T06:30:54.000Z</time>
      </trkpt>
      <trkpt lat="43.71067" lon="3.76737">
        <ele>237.30062016529</ele>
        <time>2020-08-08T06:30:55.000Z</time>
      </trkpt>
      <trkpt lat="43.71068" lon="3.76734">
        <ele>237.40392595041</ele>
        <time>2020-08-08T06:30:56.000Z</time>
      </trkpt>
      <trkpt lat="43.71069" lon="3.76731">
        <ele>237.50723173554</ele>
        <time>2020-08-08T06:30:57.000Z</time>
      </trkpt>
      <trkpt lat="43.7107" lon="3.76728">
        <ele>237.61053752066</ele>
        <time>2020-08-08T06:30:58.000Z</time>
      </trkpt>
      <trkpt lat="43.7107" lon="3.76725">
        <ele>237.71384330578</ele>
        <time>2020-08-08T06:30:59.000Z</time>
      </trkpt>
      <trkpt lat="43.71071" lon="3.76722">
        <ele>237.81714909091</ele>
        <time>2020-08-08T06:31:00.000Z</time>
      </trkpt>
      <trkpt lat="43.71072" lon="3.76719">
        <ele>237.92045487603</ele>
        <time>2020-08-08T06:31:01.000Z</time>
      </trkpt>
      <trkpt lat="43.71073" lon="3.76716">
        <ele>238.04595470001</ele>
        <time>2020-08-08T06:31:02.000Z</time>
      </trkpt>
      <trkpt lat="43.71073" lon="3.76713">
        <ele>238.24575496368</ele>
        <time>2020-08-08T06:31:03.000Z</time>
      </trkpt>
      <trkpt lat="43.71074" lon="3.76709">
        <ele>238.44555522735</ele>
        <time>2020-08-08T06:31:04.000Z</time>
      </trkpt>
      <trkpt lat="43.71075" lon="3.76706">
        <ele>238.64535549102</ele>
        <time>2020-08-08T06:31:05.000Z</time>
      </trkpt>
      <trkpt lat="43.71076" lon="3.76703">
        <ele>238.8451557547</ele>
        <time>2020-08-08T06:31:06.000Z</time>
      </trkpt>
      <trkpt lat="43.71077" lon="3.767">
        <ele>239.04495601837</ele>
        <time>2020-08-08T06:31:07.000Z</time>
      </trkpt>
      <trkpt lat="43.71078" lon="3.76697">
        <ele>239.24475628204</ele>
        <time>2020-08-08T06:31:08.000Z</time>
      </trkpt>
      <trkpt lat="43.71079" lon="3.76694">
        <ele>239.44455654571</ele>
        <time>2020-08-08T06:31:09.000Z</time>
      </trkpt>
      <trkpt lat="43.71079" lon="3.76691">
        <ele>239.64435680938</ele>
        <time>2020-08-08T06:31:10.000Z</time>
      </trkpt>
      <trkpt lat="43.7108" lon="3.76689">
        <ele>239.84415707306</ele>
        <time>2020-08-08T06:31:11.000Z</time>
      </trkpt>
      <trkpt lat="43.71081" lon="3.76686">
        <ele>240.02202265561</ele>
        <time>2020-08-08T06:31:12.000Z</time>
      </trkpt>
      <trkpt lat="43.71082" lon="3.76683">
        <ele>240.12212272364</ele>
        <time>2020-08-08T06:31:13.000Z</time>
      </trkpt>
      <trkpt lat="43.71083" lon="3.7668">
        <ele>240.22222279168</ele>
        <time>2020-08-08T06:31:14.000Z</time>
      </trkpt>
      <trkpt lat="43.71084" lon="3.76678">
        <ele>240.32232285972</ele>
        <time>2020-08-08T06:31:15.000Z</time>
      </trkpt>
      <trkpt lat="43.71085" lon="3.76674">
        <ele>240.42242292775</ele>
        <time>2020-08-08T06:31:16.000Z</time>
      </trkpt>
      <trkpt lat="43.71085" lon="3.76671">
        <ele>240.52252299579</ele>
        <time>2020-08-08T06:31:17.000Z</time>
      </trkpt>
      <trkpt lat="43.71086" lon="3.76668">
        <ele>240.62262306382</ele>
        <time>2020-08-08T06:31:18.000Z</time>
      </trkpt>
      <trkpt lat="43.71087" lon="3.76665">
        <ele>240.72272313186</ele>
        <time>2020-08-08T06:31:19.000Z</time>
      </trkpt>
      <trkpt lat="43.71087" lon="3.76662">
        <ele>240.8228231999</ele>
        <time>2020-08-08T06:31:20.000Z</time>
      </trkpt>
      <trkpt lat="43.71088" lon="3.76659">
        <ele>240.92292326793</ele>
        <time>2020-08-08T06:31:21.000Z</time>
      </trkpt>
      <trkpt lat="43.71088" lon="3.76656">
        <ele>241.02300032</ele>
        <time>2020-08-08T06:31:22.000Z</time>
      </trkpt>
      <trkpt lat="43.71089" lon="3.76652">
        <ele>241.12300032</ele>
        <time>2020-08-08T06:31:23.000Z</time>
      </trkpt>
      <trkpt lat="43.71089" lon="3.7665">
        <ele>241.22300032</ele>
        <time>2020-08-08T06:31:24.000Z</time>
      </trkpt>
      <trkpt lat="43.7109" lon="3.76647">
        <ele>241.32300032</ele>
        <time>2020-08-08T06:31:25.000Z</time>
      </trkpt>
      <trkpt lat="43.7109" lon="3.76644">
        <ele>241.42300032</ele>
        <time>2020-08-08T06:31:26.000Z</time>
      </trkpt>
      <trkpt lat="43.7109" lon="3.76641">
        <ele>241.52300032</ele>
        <time>2020-08-08T06:31:27.000Z</time>
      </trkpt>
      <trkpt lat="43.71091" lon="3.76638">
        <ele>241.62300032</ele>
        <time>2020-08-08T06:31:28.000Z</time>
      </trkpt>
      <trkpt lat="43.71092" lon="3.76634">
        <ele>241.72300032</ele>
        <time>2020-08-08T06:31:29.000Z</time>
      </trkpt>
      <trkpt lat="43.71092" lon="3.76631">
        <ele>241.82300032</ele>
        <time>2020-08-08T06:31:30.000Z</time>
      </trkpt>
      <trkpt lat="43.71093" lon="3.76628">
        <ele>241.92300032</ele>
        <time>2020-08-08T06:31:31.000Z</time>
      </trkpt>
      <trkpt lat="43.71093" lon="3.76625">
        <ele>242.02300032</ele>
        <time>2020-08-08T06:31:32.000Z</time>
      </trkpt>
      <trkpt lat="43.71093" lon="3.76622">
        <ele>242.12300032</ele>
        <time>2020-08-08T06:31:33.000Z</time>
      </trkpt>
      <trkpt lat="43.71094" lon="3.76619">
        <ele>242.22300032</ele>
        <time>2020-08-08T06:31:34.000Z</time>
      </trkpt>
      <trkpt lat="43.71094" lon="3.76616">
        <ele>242.32300032</ele>
        <time>2020-08-08T06:31:35.000Z</time>
      </trkpt>
      <trkpt lat="43.71094" lon="3.76612">
        <ele>242.42300032</ele>
        <time>2020-08-08T06:31:36.000Z</time>
      </trkpt>
      <trkpt lat="43.71094" lon="3.76609">
        <ele>242.52300032</ele>
        <time>2020-08-08T06:31:37.000Z</time>
      </trkpt>
      <trkpt lat="43.71095" lon="3.76605">
        <ele>242.62300032</ele>
        <time>2020-08-08T06:31:38.000Z</time>
      </trkpt>
      <trkpt lat="43.71095" lon="3.76602">
        <ele>242.72300032</ele>
        <time>2020-08-08T06:31:39.000Z</time>
      </trkpt>
      <trkpt lat="43.71096" lon="3.76599">
        <ele>242.82300032</ele>
        <time>2020-08-08T06:31:40.000Z</time>
      </trkpt>
      <trkpt lat="43.71097" lon="3.76595">
        <ele>242.92300032</ele>
        <time>2020-08-08T06:31:41.000Z</time>
      </trkpt>
      <trkpt lat="43.71098" lon="3.76591">
        <ele>243.02300032</ele>
        <time>2020-08-08T06:31:42.000Z</time>
      </trkpt>
      <trkpt lat="43.71099" lon="3.76587">
        <ele>243.12300032</ele>
        <time>2020-08-08T06:31:43.000Z</time>
      </trkpt>
      <trkpt lat="43.711" lon="3.76583">
        <ele>243.22300032</ele>
        <time>2020-08-08T06:31:44.000Z</time>
      </trkpt>
      <trkpt lat="43.71101" lon="3.76579">
        <ele>243.32300032</ele>
        <time>2020-08-08T06:31:45.000Z</time>
      </trkpt>
      <trkpt lat="43.71103" lon="3.76576">
        <ele>243.42300032</ele>
        <time>2020-08-08T06:31:46.000Z</time>
      </trkpt>
      <trkpt lat="43.71104" lon="3.76573">
        <ele>243.52300032</ele>
        <time>2020-08-08T06:31:47.000Z</time>
      </trkpt>
      <trkpt lat="43.71105" lon="3.7657">
        <ele>243.62300032</ele>
        <time>2020-08-08T06:31:48.000Z</time>
      </trkpt>
      <trkpt lat="43.71107" lon="3.76568">
        <ele>243.72300032</ele>
        <time>2020-08-08T06:31:49.000Z</time>
      </trkpt>
      <trkpt lat="43.71108" lon="3.76565">
        <ele>243.82300032</ele>
        <time>2020-08-08T06:31:50.000Z</time>
      </trkpt>
      <trkpt lat="43.71109" lon="3.76561">
        <ele>243.92300032</ele>
        <time>2020-08-08T06:31:51.000Z</time>
      </trkpt>
      <trkpt lat="43.7111" lon="3.76558">
        <ele>244.04600064</ele>
        <time>2020-08-08T06:31:52.000Z</time>
      </trkpt>
      <trkpt lat="43.71111" lon="3.76555">
        <ele>244.24600064</ele>
        <time>2020-08-08T06:31:53.000Z</time>
      </trkpt>
      <trkpt lat="43.71112" lon="3.76551">
        <ele>244.44600064</ele>
        <time>2020-08-08T06:31:54.000Z</time>
      </trkpt>
      <trkpt lat="43.71113" lon="3.76548">
        <ele>244.64600064</ele>
        <time>2020-08-08T06:31:55.000Z</time>
      </trkpt>
      <trkpt lat="43.71114" lon="3.76545">
        <ele>244.84600064</ele>
        <time>2020-08-08T06:31:56.000Z</time>
      </trkpt>
      <trkpt lat="43.71115" lon="3.76542">
        <ele>245.04600064</ele>
        <time>2020-08-08T06:31:57.000Z</time>
      </trkpt>
      <trkpt lat="43.71115" lon="3.76539">
        <ele>245.24600064</ele>
        <time>2020-08-08T06:31:58.000Z</time>
      </trkpt>
      <trkpt lat="43.71117" lon="3.76535">
        <ele>245.44600064</ele>
        <time>2020-08-08T06:31:59.000Z</time>
      </trkpt>
      <trkpt lat="43.71117" lon="3.76532">
        <ele>245.64600064</ele>
        <time>2020-08-08T06:32:00.000Z</time>
      </trkpt>
      <trkpt lat="43.71118" lon="3.76528">
        <ele>245.84600064</ele>
        <time>2020-08-08T06:32:01.000Z</time>
      </trkpt>
      <trkpt lat="43.71119" lon="3.76525">
        <ele>246.04600064</ele>
        <time>2020-08-08T06:32:02.000Z</time>
      </trkpt>
      <trkpt lat="43.71119" lon="3.76521">
        <ele>246.24600064</ele>
        <time>2020-08-08T06:32:03.000Z</time>
      </trkpt>
      <trkpt lat="43.7112" lon="3.76518">
        <ele>246.44600064</ele>
        <time>2020-08-08T06:32:04.000Z</time>
      </trkpt>
      <trkpt lat="43.7112" lon="3.76515">
        <ele>246.64600064</ele>
        <time>2020-08-08T06:32:05.000Z</time>
      </trkpt>
      <trkpt lat="43.71121" lon="3.76513">
        <ele>246.84600064</ele>
        <time>2020-08-08T06:32:06.000Z</time>
      </trkpt>
      <trkpt lat="43.71123" lon="3.7651">
        <ele>247.04600064</ele>
        <time>2020-08-08T06:32:07.000Z</time>
      </trkpt>
      <trkpt lat="43.71124" lon="3.76507">
        <ele>247.24600064</ele>
        <time>2020-08-08T06:32:08.000Z</time>
      </trkpt>
      <trkpt lat="43.71126" lon="3.76504">
        <ele>247.44600064</ele>
        <time>2020-08-08T06:32:09.000Z</time>
      </trkpt>
      <trkpt lat="43.71128" lon="3.76502">
        <ele>247.64600064</ele>
        <time>2020-08-08T06:32:10.000Z</time>
      </trkpt>
      <trkpt lat="43.7113" lon="3.765">
        <ele>247.84600064</ele>
        <time>2020-08-08T06:32:11.000Z</time>
      </trkpt>
      <trkpt lat="43.71133" lon="3.76498">
        <ele>248</ele>
        <time>2020-08-08T06:32:12.000Z</time>
      </trkpt>
      <trkpt lat="43.71135" lon="3.76497">
        <ele>248</ele>
        <time>2020-08-08T06:32:13.000Z</time>
      </trkpt>
      <trkpt lat="43.71137" lon="3.76495">
        <ele>248</ele>
        <time>2020-08-08T06:32:14.000Z</time>
      </trkpt>
      <trkpt lat="43.71139" lon="3.76493">
        <ele>248</ele>
        <time>2020-08-08T06:32:15.000Z</time>
      </trkpt>
      <trkpt lat="43.71141" lon="3.76491">
        <ele>248</ele>
        <time>2020-08-08T06:32:16.000Z</time>
      </trkpt>
      <trkpt lat="43.71142" lon="3.76489">
        <ele>248</ele>
        <time>2020-08-08T06:32:17.000Z</time>
      </trkpt>
      <trkpt lat="43.71144" lon="3.76486">
        <ele>248</ele>
        <time>2020-08-08T06:32:18.000Z</time>
      </trkpt>
      <trkpt lat="43.71144" lon="3.76484">
        <ele>248</ele>
        <time>2020-08-08T06:32:19.000Z</time>
      </trkpt>
      <trkpt lat="43.71145" lon="3.76481">
        <ele>248</ele>
        <time>2020-08-08T06:32:20.000Z</time>
      </trkpt>
      <trkpt lat="43.71145" lon="3.76479">
        <ele>248</ele>
        <time>2020-08-08T06:32:21.000Z</time>
      </trkpt>
      <trkpt lat="43.71144" lon="3.76475">
        <ele>248.24600064</ele>
        <time>2020-08-08T06:32:23.000Z</time>
      </trkpt>
      <trkpt lat="43.71143" lon="3.76471">
        <ele>248.64600064</ele>
        <time>2020-08-08T06:32:25.000Z</time>
      </trkpt>
      <trkpt lat="43.71142" lon="3.76466">
        <ele>249.04600064</ele>
        <time>2020-08-08T06:32:27.000Z</time>
      </trkpt>
      <trkpt lat="43.71141" lon="3.76464">
        <ele>249.24600064</ele>
        <time>2020-08-08T06:32:28.000Z</time>
      </trkpt>
      <trkpt lat="43.7114" lon="3.76459">
        <ele>249.64600064</ele>
        <time>2020-08-08T06:32:30.000Z</time>
      </trkpt>
      <trkpt lat="43.7114" lon="3.76456">
        <ele>249.84600064</ele>
        <time>2020-08-08T06:32:31.000Z</time>
      </trkpt>
      <trkpt lat="43.71139" lon="3.76453">
        <ele>250.02237385214</ele>
        <time>2020-08-08T06:32:32.000Z</time>
      </trkpt>
      <trkpt lat="43.71138" lon="3.76449">
        <ele>250.21692638132</ele>
        <time>2020-08-08T06:32:34.000Z</time>
      </trkpt>
      <trkpt lat="43.71137" lon="3.76444">
        <ele>250.41147891051</ele>
        <time>2020-08-08T06:32:36.000Z</time>
      </trkpt>
      <trkpt lat="43.71136" lon="3.7644">
        <ele>250.60603143969</ele>
        <time>2020-08-08T06:32:38.000Z</time>
      </trkpt>
      <trkpt lat="43.71135" lon="3.76436">
        <ele>250.80058396887</ele>
        <time>2020-08-08T06:32:40.000Z</time>
      </trkpt>
      <trkpt lat="43.71134" lon="3.76433">
        <ele>250.99513649805</ele>
        <time>2020-08-08T06:32:42.000Z</time>
      </trkpt>
      <trkpt lat="43.71134" lon="3.76429">
        <ele>251.19837259056</ele>
        <time>2020-08-08T06:32:44.000Z</time>
      </trkpt>
      <trkpt lat="43.71133" lon="3.76426">
        <ele>251.40183132392</ele>
        <time>2020-08-08T06:32:46.000Z</time>
      </trkpt>
      <trkpt lat="43.71131" lon="3.76422">
        <ele>251.60529005728</ele>
        <time>2020-08-08T06:32:48.000Z</time>
      </trkpt>
      <trkpt lat="43.71131" lon="3.76418">
        <ele>251.80874879064</ele>
        <time>2020-08-08T06:32:50.000Z</time>
      </trkpt>
      <trkpt lat="43.71132" lon="3.76414">
        <ele>252.01208459604</ele>
        <time>2020-08-08T06:32:52.000Z</time>
      </trkpt>
      <trkpt lat="43.71135" lon="3.76413">
        <ele>252.21349453003</ele>
        <time>2020-08-08T06:32:54.000Z</time>
      </trkpt>
      <trkpt lat="43.71139" lon="3.76413">
        <ele>252.41490446402</ele>
        <time>2020-08-08T06:32:56.000Z</time>
      </trkpt>
      <trkpt lat="43.71141" lon="3.76413">
        <ele>252.51560943101</ele>
        <time>2020-08-08T06:32:57.000Z</time>
      </trkpt>
      <trkpt lat="43.71143" lon="3.76414">
        <ele>252.61631439801</ele>
        <time>2020-08-08T06:32:58.000Z</time>
      </trkpt>
      <trkpt lat="43.71144" lon="3.76415">
        <ele>252.717019365</ele>
        <time>2020-08-08T06:32:59.000Z</time>
      </trkpt>
      <trkpt lat="43.71146" lon="3.76417">
        <ele>252.817724332</ele>
        <time>2020-08-08T06:33:00.000Z</time>
      </trkpt>
      <trkpt lat="43.71148" lon="3.76418">
        <ele>252.91842929899</ele>
        <time>2020-08-08T06:33:01.000Z</time>
      </trkpt>
      <trkpt lat="43.7115" lon="3.76419">
        <ele>253</ele>
        <time>2020-08-08T06:33:02.000Z</time>
      </trkpt>
      <trkpt lat="43.71152" lon="3.7642">
        <ele>253</ele>
        <time>2020-08-08T06:33:03.000Z</time>
      </trkpt>
      <trkpt lat="43.71154" lon="3.7642">
        <ele>253</ele>
        <time>2020-08-08T06:33:04.000Z</time>
      </trkpt>
      <trkpt lat="43.71156" lon="3.7642">
        <ele>253</ele>
        <time>2020-08-08T06:33:05.000Z</time>
      </trkpt>
      <trkpt lat="43.71159" lon="3.76419">
        <ele>253</ele>
        <time>2020-08-08T06:33:06.000Z</time>
      </trkpt>
      <trkpt lat="43.71162" lon="3.76419">
        <ele>253</ele>
        <time>2020-08-08T06:33:07.000Z</time>
      </trkpt>
      <trkpt lat="43.71164" lon="3.76418">
        <ele>253</ele>
        <time>2020-08-08T06:33:08.000Z</time>
      </trkpt>
      <trkpt lat="43.71167" lon="3.76418">
        <ele>253</ele>
        <time>2020-08-08T06:33:09.000Z</time>
      </trkpt>
      <trkpt lat="43.71169" lon="3.76418">
        <ele>253</ele>
        <time>2020-08-08T06:33:10.000Z</time>
      </trkpt>
      <trkpt lat="43.71172" lon="3.76418">
        <ele>253</ele>
        <time>2020-08-08T06:33:11.000Z</time>
      </trkpt>
      <trkpt lat="43.71174" lon="3.76417">
        <ele>253</ele>
        <time>2020-08-08T06:33:12.000Z</time>
      </trkpt>
      <trkpt lat="43.71177" lon="3.76417">
        <ele>253</ele>
        <time>2020-08-08T06:33:13.000Z</time>
      </trkpt>
      <trkpt lat="43.71179" lon="3.76416">
        <ele>253</ele>
        <time>2020-08-08T06:33:14.000Z</time>
      </trkpt>
      <trkpt lat="43.71182" lon="3.76415">
        <ele>253</ele>
        <time>2020-08-08T06:33:15.000Z</time>
      </trkpt>
      <trkpt lat="43.71184" lon="3.76414">
        <ele>253</ele>
        <time>2020-08-08T06:33:16.000Z</time>
      </trkpt>
      <trkpt lat="43.71186" lon="3.76413">
        <ele>253</ele>
        <time>2020-08-08T06:33:17.000Z</time>
      </trkpt>
      <trkpt lat="43.71188" lon="3.76412">
        <ele>253</ele>
        <time>2020-08-08T06:33:18.000Z</time>
      </trkpt>
      <trkpt lat="43.7119" lon="3.7641">
        <ele>253</ele>
        <time>2020-08-08T06:33:19.000Z</time>
      </trkpt>
      <trkpt lat="43.71192" lon="3.76408">
        <ele>253</ele>
        <time>2020-08-08T06:33:20.000Z</time>
      </trkpt>
      <trkpt lat="43.71195" lon="3.76407">
        <ele>253</ele>
        <time>2020-08-08T06:33:21.000Z</time>
      </trkpt>
      <trkpt lat="43.71197" lon="3.76405">
        <ele>253.02300032</ele>
        <time>2020-08-08T06:33:22.000Z</time>
      </trkpt>
      <trkpt lat="43.71199" lon="3.76405">
        <ele>253.12300032</ele>
        <time>2020-08-08T06:33:23.000Z</time>
      </trkpt>
      <trkpt lat="43.71202" lon="3.76404">
        <ele>253.22300032</ele>
        <time>2020-08-08T06:33:24.000Z</time>
      </trkpt>
      <trkpt lat="43.71205" lon="3.76403">
        <ele>253.32300032</ele>
        <time>2020-08-08T06:33:25.000Z</time>
      </trkpt>
      <trkpt lat="43.71207" lon="3.76403">
        <ele>253.42300032</ele>
        <time>2020-08-08T06:33:26.000Z</time>
      </trkpt>
      <trkpt lat="43.7121" lon="3.76403">
        <ele>253.52300032</ele>
        <time>2020-08-08T06:33:27.000Z</time>
      </trkpt>
      <trkpt lat="43.71212" lon="3.76402">
        <ele>253.62300032</ele>
        <time>2020-08-08T06:33:28.000Z</time>
      </trkpt>
      <trkpt lat="43.71215" lon="3.76401">
        <ele>253.72300032</ele>
        <time>2020-08-08T06:33:29.000Z</time>
      </trkpt>
      <trkpt lat="43.71217" lon="3.764">
        <ele>253.82300032</ele>
        <time>2020-08-08T06:33:30.000Z</time>
      </trkpt>
      <trkpt lat="43.71219" lon="3.76399">
        <ele>253.92300032</ele>
        <time>2020-08-08T06:33:31.000Z</time>
      </trkpt>
      <trkpt lat="43.71222" lon="3.76397">
        <ele>254.02300032</ele>
        <time>2020-08-08T06:33:32.000Z</time>
      </trkpt>
      <trkpt lat="43.71224" lon="3.76396">
        <ele>254.12300032</ele>
        <time>2020-08-08T06:33:33.000Z</time>
      </trkpt>
      <trkpt lat="43.71226" lon="3.76394">
        <ele>254.22300032</ele>
        <time>2020-08-08T06:33:34.000Z</time>
      </trkpt>
      <trkpt lat="43.71229" lon="3.76392">
        <ele>254.32300032</ele>
        <time>2020-08-08T06:33:35.000Z</time>
      </trkpt>
      <trkpt lat="43.71231" lon="3.7639">
        <ele>254.42300032</ele>
        <time>2020-08-08T06:33:36.000Z</time>
      </trkpt>
      <trkpt lat="43.71233" lon="3.76387">
        <ele>254.52300032</ele>
        <time>2020-08-08T06:33:37.000Z</time>
      </trkpt>
      <trkpt lat="43.71235" lon="3.76385">
        <ele>254.62300032</ele>
        <time>2020-08-08T06:33:38.000Z</time>
      </trkpt>
      <trkpt lat="43.71237" lon="3.76382">
        <ele>254.72300032</ele>
        <time>2020-08-08T06:33:39.000Z</time>
      </trkpt>
      <trkpt lat="43.71239" lon="3.76379">
        <ele>254.82300032</ele>
        <time>2020-08-08T06:33:40.000Z</time>
      </trkpt>
      <trkpt lat="43.71241" lon="3.76377">
        <ele>254.92300032</ele>
        <time>2020-08-08T06:33:41.000Z</time>
      </trkpt>
      <trkpt lat="43.71243" lon="3.76374">
        <ele>255.02300032</ele>
        <time>2020-08-08T06:33:42.000Z</time>
      </trkpt>
      <trkpt lat="43.71245" lon="3.76372">
        <ele>255.12300032</ele>
        <time>2020-08-08T06:33:43.000Z</time>
      </trkpt>
      <trkpt lat="43.71247" lon="3.76369">
        <ele>255.22300032</ele>
        <time>2020-08-08T06:33:44.000Z</time>
      </trkpt>
      <trkpt lat="43.71249" lon="3.76367">
        <ele>255.32300032</ele>
        <time>2020-08-08T06:33:45.000Z</time>
      </trkpt>
      <trkpt lat="43.71252" lon="3.76364">
        <ele>255.42300032</ele>
        <time>2020-08-08T06:33:46.000Z</time>
      </trkpt>
      <trkpt lat="43.71254" lon="3.76361">
        <ele>255.52300032</ele>
        <time>2020-08-08T06:33:47.000Z</time>
      </trkpt>
      <trkpt lat="43.71255" lon="3.76358">
        <ele>255.62300032</ele>
        <time>2020-08-08T06:33:48.000Z</time>
      </trkpt>
      <trkpt lat="43.71257" lon="3.76355">
        <ele>255.72300032</ele>
        <time>2020-08-08T06:33:49.000Z</time>
      </trkpt>
      <trkpt lat="43.71259" lon="3.76352">
        <ele>255.82300032</ele>
        <time>2020-08-08T06:33:50.000Z</time>
      </trkpt>
      <trkpt lat="43.7126" lon="3.76348">
        <ele>255.92300032</ele>
        <time>2020-08-08T06:33:51.000Z</time>
      </trkpt>
      <trkpt lat="43.71261" lon="3.76345">
        <ele>256.04581737052</ele>
        <time>2020-08-08T06:33:52.000Z</time>
      </trkpt>
      <trkpt lat="43.71262" lon="3.76341">
        <ele>256.24502055777</ele>
        <time>2020-08-08T06:33:53.000Z</time>
      </trkpt>
      <trkpt lat="43.71263" lon="3.76338">
        <ele>256.44422374502</ele>
        <time>2020-08-08T06:33:54.000Z</time>
      </trkpt>
      <trkpt lat="43.71264" lon="3.76334">
        <ele>256.64342693227</ele>
        <time>2020-08-08T06:33:55.000Z</time>
      </trkpt>
      <trkpt lat="43.71266" lon="3.76331">
        <ele>256.84263011952</ele>
        <time>2020-08-08T06:33:56.000Z</time>
      </trkpt>
      <trkpt lat="43.71267" lon="3.76328">
        <ele>257.04183330677</ele>
        <time>2020-08-08T06:33:57.000Z</time>
      </trkpt>
      <trkpt lat="43.71269" lon="3.76325">
        <ele>257.24103649402</ele>
        <time>2020-08-08T06:33:58.000Z</time>
      </trkpt>
      <trkpt lat="43.7127" lon="3.76322">
        <ele>257.44023968127</ele>
        <time>2020-08-08T06:33:59.000Z</time>
      </trkpt>
      <trkpt lat="43.71271" lon="3.76319">
        <ele>257.63944286853</ele>
        <time>2020-08-08T06:34:00.000Z</time>
      </trkpt>
      <trkpt lat="43.71272" lon="3.76316">
        <ele>257.83864605578</ele>
        <time>2020-08-08T06:34:01.000Z</time>
      </trkpt>
      <trkpt lat="43.71274" lon="3.76313">
        <ele>258.01898132046</ele>
        <time>2020-08-08T06:34:02.000Z</time>
      </trkpt>
      <trkpt lat="43.71275" lon="3.76309">
        <ele>258.11888132455</ele>
        <time>2020-08-08T06:34:03.000Z</time>
      </trkpt>
      <trkpt lat="43.71276" lon="3.76306">
        <ele>258.21878132864</ele>
        <time>2020-08-08T06:34:04.000Z</time>
      </trkpt>
      <trkpt lat="43.71277" lon="3.76302">
        <ele>258.31868133273</ele>
        <time>2020-08-08T06:34:05.000Z</time>
      </trkpt>
      <trkpt lat="43.71278" lon="3.76299">
        <ele>258.41858133683</ele>
        <time>2020-08-08T06:34:06.000Z</time>
      </trkpt>
      <trkpt lat="43.71279" lon="3.76296">
        <ele>258.51848134092</ele>
        <time>2020-08-08T06:34:07.000Z</time>
      </trkpt>
      <trkpt lat="43.7128" lon="3.76293">
        <ele>258.61838134501</ele>
        <time>2020-08-08T06:34:08.000Z</time>
      </trkpt>
      <trkpt lat="43.71281" lon="3.7629">
        <ele>258.7182813491</ele>
        <time>2020-08-08T06:34:09.000Z</time>
      </trkpt>
      <trkpt lat="43.71281" lon="3.76287">
        <ele>258.81818135319</ele>
        <time>2020-08-08T06:34:10.000Z</time>
      </trkpt>
      <trkpt lat="43.71282" lon="3.76284">
        <ele>258.91808135729</ele>
        <time>2020-08-08T06:34:11.000Z</time>
      </trkpt>
      <trkpt lat="43.71283" lon="3.76281">
        <ele>259.0180898265</ele>
        <time>2020-08-08T06:34:12.000Z</time>
      </trkpt>
      <trkpt lat="43.71284" lon="3.76278">
        <ele>259.11859243603</ele>
        <time>2020-08-08T06:34:13.000Z</time>
      </trkpt>
      <trkpt lat="43.71285" lon="3.76275">
        <ele>259.21909504556</ele>
        <time>2020-08-08T06:34:14.000Z</time>
      </trkpt>
      <trkpt lat="43.71286" lon="3.76272">
        <ele>259.31959765509</ele>
        <time>2020-08-08T06:34:15.000Z</time>
      </trkpt>
      <trkpt lat="43.71288" lon="3.7627">
        <ele>259.42010026462</ele>
        <time>2020-08-08T06:34:16.000Z</time>
      </trkpt>
      <trkpt lat="43.71289" lon="3.76267">
        <ele>259.52060287415</ele>
        <time>2020-08-08T06:34:17.000Z</time>
      </trkpt>
      <trkpt lat="43.71291" lon="3.76264">
        <ele>259.62110548368</ele>
        <time>2020-08-08T06:34:18.000Z</time>
      </trkpt>
      <trkpt lat="43.71293" lon="3.76262">
        <ele>259.72160809321</ele>
        <time>2020-08-08T06:34:19.000Z</time>
      </trkpt>
      <trkpt lat="43.71295" lon="3.76259">
        <ele>259.82211070274</ele>
        <time>2020-08-08T06:34:20.000Z</time>
      </trkpt>
      <trkpt lat="43.71296" lon="3.76257">
        <ele>259.92261331227</ele>
        <time>2020-08-08T06:34:21.000Z</time>
      </trkpt>
      <trkpt lat="43.71298" lon="3.76255">
        <ele>260</ele>
        <time>2020-08-08T06:34:22.000Z</time>
      </trkpt>
      <trkpt lat="43.713" lon="3.76253">
        <ele>260</ele>
        <time>2020-08-08T06:34:23.000Z</time>
      </trkpt>
      <trkpt lat="43.71302" lon="3.7625">
        <ele>260</ele>
        <time>2020-08-08T06:34:24.000Z</time>
      </trkpt>
      <trkpt lat="43.71304" lon="3.76248">
        <ele>260</ele>
        <time>2020-08-08T06:34:25.000Z</time>
      </trkpt>
      <trkpt lat="43.71306" lon="3.76246">
        <ele>260</ele>
        <time>2020-08-08T06:34:26.000Z</time>
      </trkpt>
      <trkpt lat="43.71308" lon="3.76243">
        <ele>260</ele>
        <time>2020-08-08T06:34:27.000Z</time>
      </trkpt>
      <trkpt lat="43.7131" lon="3.76241">
        <ele>260</ele>
        <time>2020-08-08T06:34:28.000Z</time>
      </trkpt>
      <trkpt lat="43.71312" lon="3.76238">
        <ele>260</ele>
        <time>2020-08-08T06:34:29.000Z</time>
      </trkpt>
      <trkpt lat="43.71314" lon="3.76235">
        <ele>260</ele>
        <time>2020-08-08T06:34:30.000Z</time>
      </trkpt>
      <trkpt lat="43.71316" lon="3.76232">
        <ele>260</ele>
        <time>2020-08-08T06:34:31.000Z</time>
      </trkpt>
      <trkpt lat="43.71317" lon="3.76229">
        <ele>260.02300032</ele>
        <time>2020-08-08T06:34:32.000Z</time>
      </trkpt>
      <trkpt lat="43.71319" lon="3.76226">
        <ele>260.12300032</ele>
        <time>2020-08-08T06:34:33.000Z</time>
      </trkpt>
      <trkpt lat="43.71321" lon="3.76223">
        <ele>260.22300032</ele>
        <time>2020-08-08T06:34:34.000Z</time>
      </trkpt>
      <trkpt lat="43.71322" lon="3.7622">
        <ele>260.32300032</ele>
        <time>2020-08-08T06:34:35.000Z</time>
      </trkpt>
      <trkpt lat="43.71323" lon="3.76217">
        <ele>260.42300032</ele>
        <time>2020-08-08T06:34:36.000Z</time>
      </trkpt>
      <trkpt lat="43.71325" lon="3.76214">
        <ele>260.52300032</ele>
        <time>2020-08-08T06:34:37.000Z</time>
      </trkpt>
      <trkpt lat="43.71326" lon="3.76211">
        <ele>260.62300032</ele>
        <time>2020-08-08T06:34:38.000Z</time>
      </trkpt>
      <trkpt lat="43.71327" lon="3.76208">
        <ele>260.72300032</ele>
        <time>2020-08-08T06:34:39.000Z</time>
      </trkpt>
      <trkpt lat="43.71328" lon="3.76206">
        <ele>260.82300032</ele>
        <time>2020-08-08T06:34:40.000Z</time>
      </trkpt>
      <trkpt lat="43.71329" lon="3.76203">
        <ele>260.92300032</ele>
        <time>2020-08-08T06:34:41.000Z</time>
      </trkpt>
      <trkpt lat="43.7133" lon="3.762">
        <ele>261.02300032</ele>
        <time>2020-08-08T06:34:42.000Z</time>
      </trkpt>
      <trkpt lat="43.71331" lon="3.76197">
        <ele>261.12300032</ele>
        <time>2020-08-08T06:34:43.000Z</time>
      </trkpt>
      <trkpt lat="43.71332" lon="3.76194">
        <ele>261.22300032</ele>
        <time>2020-08-08T06:34:44.000Z</time>
      </trkpt>
      <trkpt lat="43.71333" lon="3.76191">
        <ele>261.32300032</ele>
        <time>2020-08-08T06:34:45.000Z</time>
      </trkpt>
      <trkpt lat="43.71333" lon="3.76188">
        <ele>261.42300032</ele>
        <time>2020-08-08T06:34:46.000Z</time>
      </trkpt>
      <trkpt lat="43.71334" lon="3.76185">
        <ele>261.52300032</ele>
        <time>2020-08-08T06:34:47.000Z</time>
      </trkpt>
      <trkpt lat="43.71334" lon="3.76182">
        <ele>261.62300032</ele>
        <time>2020-08-08T06:34:48.000Z</time>
      </trkpt>
      <trkpt lat="43.71335" lon="3.76179">
        <ele>261.72300032</ele>
        <time>2020-08-08T06:34:49.000Z</time>
      </trkpt>
      <trkpt lat="43.71335" lon="3.76176">
        <ele>261.82300032</ele>
        <time>2020-08-08T06:34:50.000Z</time>
      </trkpt>
      <trkpt lat="43.71336" lon="3.76173">
        <ele>261.92300032</ele>
        <time>2020-08-08T06:34:51.000Z</time>
      </trkpt>
      <trkpt lat="43.71336" lon="3.76171">
        <ele>262.02300032</ele>
        <time>2020-08-08T06:34:52.000Z</time>
      </trkpt>
      <trkpt lat="43.71337" lon="3.76168">
        <ele>262.12300032</ele>
        <time>2020-08-08T06:34:53.000Z</time>
      </trkpt>
      <trkpt lat="43.71338" lon="3.76165">
        <ele>262.22300032</ele>
        <time>2020-08-08T06:34:54.000Z</time>
      </trkpt>
      <trkpt lat="43.71339" lon="3.76163">
        <ele>262.32300032</ele>
        <time>2020-08-08T06:34:55.000Z</time>
      </trkpt>
      <trkpt lat="43.7134" lon="3.7616">
        <ele>262.42300032</ele>
        <time>2020-08-08T06:34:56.000Z</time>
      </trkpt>
      <trkpt lat="43.71342" lon="3.76158">
        <ele>262.52300032</ele>
        <time>2020-08-08T06:34:57.000Z</time>
      </trkpt>
      <trkpt lat="43.71343" lon="3.76156">
        <ele>262.62300032</ele>
        <time>2020-08-08T06:34:58.000Z</time>
      </trkpt>
      <trkpt lat="43.71345" lon="3.76154">
        <ele>262.72300032</ele>
        <time>2020-08-08T06:34:59.000Z</time>
      </trkpt>
      <trkpt lat="43.71346" lon="3.76151">
        <ele>262.82300032</ele>
        <time>2020-08-08T06:35:00.000Z</time>
      </trkpt>
      <trkpt lat="43.71348" lon="3.76149">
        <ele>262.92300032</ele>
        <time>2020-08-08T06:35:01.000Z</time>
      </trkpt>
      <trkpt lat="43.7135" lon="3.76147">
        <ele>263.02300032</ele>
        <time>2020-08-08T06:35:02.000Z</time>
      </trkpt>
      <trkpt lat="43.71351" lon="3.76145">
        <ele>263.12300032</ele>
        <time>2020-08-08T06:35:03.000Z</time>
      </trkpt>
      <trkpt lat="43.71353" lon="3.76142">
        <ele>263.22300032</ele>
        <time>2020-08-08T06:35:04.000Z</time>
      </trkpt>
      <trkpt lat="43.71355" lon="3.7614">
        <ele>263.32300032</ele>
        <time>2020-08-08T06:35:05.000Z</time>
      </trkpt>
      <trkpt lat="43.71357" lon="3.76137">
        <ele>263.42300032</ele>
        <time>2020-08-08T06:35:06.000Z</time>
      </trkpt>
      <trkpt lat="43.71359" lon="3.76135">
        <ele>263.52300032</ele>
        <time>2020-08-08T06:35:07.000Z</time>
      </trkpt>
      <trkpt lat="43.7136" lon="3.76132">
        <ele>263.62300032</ele>
        <time>2020-08-08T06:35:08.000Z</time>
      </trkpt>
      <trkpt lat="43.71362" lon="3.7613">
        <ele>263.72300032</ele>
        <time>2020-08-08T06:35:09.000Z</time>
      </trkpt>
      <trkpt lat="43.71365" lon="3.76129">
        <ele>263.82300032</ele>
        <time>2020-08-08T06:35:10.000Z</time>
      </trkpt>
      <trkpt lat="43.71367" lon="3.76127">
        <ele>263.92300032</ele>
        <time>2020-08-08T06:35:11.000Z</time>
      </trkpt>
      <trkpt lat="43.71369" lon="3.76125">
        <ele>264.02290868526</ele>
        <time>2020-08-08T06:35:12.000Z</time>
      </trkpt>
      <trkpt lat="43.71371" lon="3.76123">
        <ele>264.12251027888</ele>
        <time>2020-08-08T06:35:13.000Z</time>
      </trkpt>
      <trkpt lat="43.71373" lon="3.76121">
        <ele>264.22211187251</ele>
        <time>2020-08-08T06:35:14.000Z</time>
      </trkpt>
      <trkpt lat="43.71375" lon="3.76119">
        <ele>264.32171346614</ele>
        <time>2020-08-08T06:35:15.000Z</time>
      </trkpt>
      <trkpt lat="43.71377" lon="3.76117">
        <ele>264.42131505976</ele>
        <time>2020-08-08T06:35:16.000Z</time>
      </trkpt>
      <trkpt lat="43.7138" lon="3.76115">
        <ele>264.52091665339</ele>
        <time>2020-08-08T06:35:17.000Z</time>
      </trkpt>
      <trkpt lat="43.71382" lon="3.76113">
        <ele>264.62051824701</ele>
        <time>2020-08-08T06:35:18.000Z</time>
      </trkpt>
      <trkpt lat="43.71384" lon="3.76111">
        <ele>264.72011984064</ele>
        <time>2020-08-08T06:35:19.000Z</time>
      </trkpt>
      <trkpt lat="43.71386" lon="3.7611">
        <ele>264.81972143426</ele>
        <time>2020-08-08T06:35:20.000Z</time>
      </trkpt>
      <trkpt lat="43.71389" lon="3.76108">
        <ele>264.91932302789</ele>
        <time>2020-08-08T06:35:21.000Z</time>
      </trkpt>
      <trkpt lat="43.71391" lon="3.76106">
        <ele>265.01907662651</ele>
        <time>2020-08-08T06:35:22.000Z</time>
      </trkpt>
      <trkpt lat="43.71394" lon="3.76104">
        <ele>265.11947823293</ele>
        <time>2020-08-08T06:35:23.000Z</time>
      </trkpt>
      <trkpt lat="43.71397" lon="3.76103">
        <ele>265.21987983936</ele>
        <time>2020-08-08T06:35:24.000Z</time>
      </trkpt>
      <trkpt lat="43.71399" lon="3.76102">
        <ele>265.32028144578</ele>
        <time>2020-08-08T06:35:25.000Z</time>
      </trkpt>
      <trkpt lat="43.71402" lon="3.76102">
        <ele>265.42068305221</ele>
        <time>2020-08-08T06:35:26.000Z</time>
      </trkpt>
      <trkpt lat="43.71405" lon="3.76101">
        <ele>265.52108465864</ele>
        <time>2020-08-08T06:35:27.000Z</time>
      </trkpt>
      <trkpt lat="43.71408" lon="3.76101">
        <ele>265.62148626506</ele>
        <time>2020-08-08T06:35:28.000Z</time>
      </trkpt>
      <trkpt lat="43.71411" lon="3.761">
        <ele>265.72188787149</ele>
        <time>2020-08-08T06:35:29.000Z</time>
      </trkpt>
      <trkpt lat="43.71414" lon="3.76099">
        <ele>265.82228947791</ele>
        <time>2020-08-08T06:35:30.000Z</time>
      </trkpt>
      <trkpt lat="43.71416" lon="3.76098">
        <ele>265.92269108434</ele>
        <time>2020-08-08T06:35:31.000Z</time>
      </trkpt>
      <trkpt lat="43.71419" lon="3.76096">
        <ele>266.02290868526</ele>
        <time>2020-08-08T06:35:32.000Z</time>
      </trkpt>
      <trkpt lat="43.71421" lon="3.76094">
        <ele>266.12251027888</ele>
        <time>2020-08-08T06:35:33.000Z</time>
      </trkpt>
      <trkpt lat="43.71424" lon="3.76091">
        <ele>266.22211187251</ele>
        <time>2020-08-08T06:35:34.000Z</time>
      </trkpt>
      <trkpt lat="43.71426" lon="3.76089">
        <ele>266.32171346614</ele>
        <time>2020-08-08T06:35:35.000Z</time>
      </trkpt>
      <trkpt lat="43.71428" lon="3.76086">
        <ele>266.42131505976</ele>
        <time>2020-08-08T06:35:36.000Z</time>
      </trkpt>
      <trkpt lat="43.71431" lon="3.76084">
        <ele>266.52091665339</ele>
        <time>2020-08-08T06:35:37.000Z</time>
      </trkpt>
      <trkpt lat="43.71433" lon="3.76082">
        <ele>266.62051824701</ele>
        <time>2020-08-08T06:35:38.000Z</time>
      </trkpt>
      <trkpt lat="43.71436" lon="3.7608">
        <ele>266.72011984064</ele>
        <time>2020-08-08T06:35:39.000Z</time>
      </trkpt>
      <trkpt lat="43.71439" lon="3.76079">
        <ele>266.81972143426</ele>
        <time>2020-08-08T06:35:40.000Z</time>
      </trkpt>
      <trkpt lat="43.71441" lon="3.76077">
        <ele>266.91932302789</ele>
        <time>2020-08-08T06:35:41.000Z</time>
      </trkpt>
      <trkpt lat="43.71444" lon="3.76076">
        <ele>267</ele>
        <time>2020-08-08T06:35:42.000Z</time>
      </trkpt>
      <trkpt lat="43.71447" lon="3.76074">
        <ele>267</ele>
        <time>2020-08-08T06:35:43.000Z</time>
      </trkpt>
      <trkpt lat="43.7145" lon="3.76072">
        <ele>267</ele>
        <time>2020-08-08T06:35:44.000Z</time>
      </trkpt>
      <trkpt lat="43.71452" lon="3.76071">
        <ele>267</ele>
        <time>2020-08-08T06:35:45.000Z</time>
      </trkpt>
      <trkpt lat="43.71455" lon="3.76069">
        <ele>267</ele>
        <time>2020-08-08T06:35:46.000Z</time>
      </trkpt>
      <trkpt lat="43.71458" lon="3.76067">
        <ele>267</ele>
        <time>2020-08-08T06:35:47.000Z</time>
      </trkpt>
      <trkpt lat="43.71461" lon="3.76065">
        <ele>267</ele>
        <time>2020-08-08T06:35:48.000Z</time>
      </trkpt>
      <trkpt lat="43.71464" lon="3.76063">
        <ele>267</ele>
        <time>2020-08-08T06:35:49.000Z</time>
      </trkpt>
      <trkpt lat="43.71467" lon="3.7606">
        <ele>267</ele>
        <time>2020-08-08T06:35:50.000Z</time>
      </trkpt>
      <trkpt lat="43.71469" lon="3.76058">
        <ele>267</ele>
        <time>2020-08-08T06:35:51.000Z</time>
      </trkpt>
      <trkpt lat="43.71472" lon="3.76056">
        <ele>267</ele>
        <time>2020-08-08T06:35:52.000Z</time>
      </trkpt>
      <trkpt lat="43.71475" lon="3.76054">
        <ele>267</ele>
        <time>2020-08-08T06:35:53.000Z</time>
      </trkpt>
      <trkpt lat="43.71477" lon="3.76052">
        <ele>267</ele>
        <time>2020-08-08T06:35:54.000Z</time>
      </trkpt>
      <trkpt lat="43.7148" lon="3.76051">
        <ele>267</ele>
        <time>2020-08-08T06:35:55.000Z</time>
      </trkpt>
      <trkpt lat="43.71483" lon="3.76048">
        <ele>267</ele>
        <time>2020-08-08T06:35:56.000Z</time>
      </trkpt>
      <trkpt lat="43.71485" lon="3.76046">
        <ele>267</ele>
        <time>2020-08-08T06:35:57.000Z</time>
      </trkpt>
      <trkpt lat="43.71488" lon="3.76044">
        <ele>267</ele>
        <time>2020-08-08T06:35:58.000Z</time>
      </trkpt>
      <trkpt lat="43.71491" lon="3.76042">
        <ele>267</ele>
        <time>2020-08-08T06:35:59.000Z</time>
      </trkpt>
      <trkpt lat="43.71494" lon="3.7604">
        <ele>267</ele>
        <time>2020-08-08T06:36:00.000Z</time>
      </trkpt>
      <trkpt lat="43.71496" lon="3.76037">
        <ele>267</ele>
        <time>2020-08-08T06:36:01.000Z</time>
      </trkpt>
      <trkpt lat="43.71499" lon="3.76035">
        <ele>266.97709131474</ele>
        <time>2020-08-08T06:36:02.000Z</time>
      </trkpt>
      <trkpt lat="43.71502" lon="3.76032">
        <ele>266.87748972112</ele>
        <time>2020-08-08T06:36:03.000Z</time>
      </trkpt>
      <trkpt lat="43.71505" lon="3.7603">
        <ele>266.77788812749</ele>
        <time>2020-08-08T06:36:04.000Z</time>
      </trkpt>
      <trkpt lat="43.71508" lon="3.76027">
        <ele>266.67828653386</ele>
        <time>2020-08-08T06:36:05.000Z</time>
      </trkpt>
      <trkpt lat="43.71512" lon="3.76025">
        <ele>266.57868494024</ele>
        <time>2020-08-08T06:36:06.000Z</time>
      </trkpt>
      <trkpt lat="43.71515" lon="3.76022">
        <ele>266.47908334661</ele>
        <time>2020-08-08T06:36:07.000Z</time>
      </trkpt>
      <trkpt lat="43.71518" lon="3.7602">
        <ele>266.37948175299</ele>
        <time>2020-08-08T06:36:08.000Z</time>
      </trkpt>
      <trkpt lat="43.71521" lon="3.76018">
        <ele>266.27988015936</ele>
        <time>2020-08-08T06:36:09.000Z</time>
      </trkpt>
      <trkpt lat="43.71524" lon="3.76016">
        <ele>266.18027856574</ele>
        <time>2020-08-08T06:36:10.000Z</time>
      </trkpt>
      <trkpt lat="43.71526" lon="3.76014">
        <ele>266.08067697211</ele>
        <time>2020-08-08T06:36:11.000Z</time>
      </trkpt>
      <trkpt lat="43.71529" lon="3.76012">
        <ele>266</ele>
        <time>2020-08-08T06:36:12.000Z</time>
      </trkpt>
      <trkpt lat="43.71532" lon="3.76009">
        <ele>266</ele>
        <time>2020-08-08T06:36:13.000Z</time>
      </trkpt>
      <trkpt lat="43.71535" lon="3.76006">
        <ele>266</ele>
        <time>2020-08-08T06:36:14.000Z</time>
      </trkpt>
      <trkpt lat="43.71537" lon="3.76004">
        <ele>266</ele>
        <time>2020-08-08T06:36:15.000Z</time>
      </trkpt>
      <trkpt lat="43.7154" lon="3.76001">
        <ele>266</ele>
        <time>2020-08-08T06:36:16.000Z</time>
      </trkpt>
      <trkpt lat="43.71542" lon="3.75999">
        <ele>266</ele>
        <time>2020-08-08T06:36:17.000Z</time>
      </trkpt>
      <trkpt lat="43.71544" lon="3.75997">
        <ele>266</ele>
        <time>2020-08-08T06:36:18.000Z</time>
      </trkpt>
      <trkpt lat="43.71546" lon="3.75995">
        <ele>266</ele>
        <time>2020-08-08T06:36:20.000Z</time>
      </trkpt>
      <trkpt lat="43.71546" lon="3.75995">
        <ele>267.02312747594</ele>
        <time>2020-08-08T06:36:26.000Z</time>
      </trkpt>
      <trkpt lat="43.71553" lon="3.75986">
        <ele>267.9896442423</ele>
        <time>2020-08-08T06:36:54.000Z</time>
      </trkpt>
      <trkpt lat="43.71555" lon="3.75985">
        <ele>267.92041550588</ele>
        <time>2020-08-08T06:36:55.000Z</time>
      </trkpt>
      <trkpt lat="43.71557" lon="3.75983">
        <ele>267.80507512442</ele>
        <time>2020-08-08T06:36:56.000Z</time>
      </trkpt>
      <trkpt lat="43.71559" lon="3.7598">
        <ele>267.5743943615</ele>
        <time>2020-08-08T06:36:58.000Z</time>
      </trkpt>
      <trkpt lat="43.71558" lon="3.75978">
        <ele>267</ele>
        <time>2020-08-08T06:37:03.000Z</time>
      </trkpt>
      <trkpt lat="43.71559" lon="3.75974">
        <ele>267</ele>
        <time>2020-08-08T06:37:06.000Z</time>
      </trkpt>
      <trkpt lat="43.71561" lon="3.7597">
        <ele>267.22035774164</ele>
        <time>2020-08-08T06:37:08.000Z</time>
      </trkpt>
      <trkpt lat="43.71561" lon="3.75967">
        <ele>267.44407154833</ele>
        <time>2020-08-08T06:37:10.000Z</time>
      </trkpt>
      <trkpt lat="43.71561" lon="3.75966">
        <ele>268</ele>
        <time>2020-08-08T06:37:15.000Z</time>
      </trkpt>
      <trkpt lat="43.71561" lon="3.75955">
        <ele>268.09805921207</ele>
        <time>2020-08-08T06:37:41.000Z</time>
      </trkpt>
      <trkpt lat="43.71561" lon="3.75952">
        <ele>268.30234923723</ele>
        <time>2020-08-08T06:37:43.000Z</time>
      </trkpt>
      <trkpt lat="43.71561" lon="3.75948">
        <ele>268.60878427496</ele>
        <time>2020-08-08T06:37:46.000Z</time>
      </trkpt>
      <trkpt lat="43.71561" lon="3.75945">
        <ele>268.81307430012</ele>
        <time>2020-08-08T06:37:48.000Z</time>
      </trkpt>
      <trkpt lat="43.71562" lon="3.75942">
        <ele>269</ele>
        <time>2020-08-08T06:37:50.000Z</time>
      </trkpt>
      <trkpt lat="43.71562" lon="3.7594">
        <ele>269</ele>
        <time>2020-08-08T06:37:52.000Z</time>
      </trkpt>
      <trkpt lat="43.71563" lon="3.75936">
        <ele>269</ele>
        <time>2020-08-08T06:37:55.000Z</time>
      </trkpt>
      <trkpt lat="43.71563" lon="3.75934">
        <ele>269</ele>
        <time>2020-08-08T06:37:57.000Z</time>
      </trkpt>
      <trkpt lat="43.71563" lon="3.7593">
        <ele>269</ele>
        <time>2020-08-08T06:38:00.000Z</time>
      </trkpt>
      <trkpt lat="43.71563" lon="3.75929">
        <ele>268.99747347145</ele>
        <time>2020-08-08T06:38:06.000Z</time>
      </trkpt>
      <trkpt lat="43.71564" lon="3.75919">
        <ele>267.99289307383</ele>
        <time>2020-08-08T06:40:44.000Z</time>
      </trkpt>
      <trkpt lat="43.71565" lon="3.75915">
        <ele>267.78984732259</ele>
        <time>2020-08-08T06:40:46.000Z</time>
      </trkpt>
      <trkpt lat="43.71565" lon="3.75912">
        <ele>267.68832444697</ele>
        <time>2020-08-08T06:40:47.000Z</time>
      </trkpt>
      <trkpt lat="43.71566" lon="3.75909">
        <ele>267.58680157135</ele>
        <time>2020-08-08T06:40:48.000Z</time>
      </trkpt>
      <trkpt lat="43.71566" lon="3.75906">
        <ele>267.48527869573</ele>
        <time>2020-08-08T06:40:49.000Z</time>
      </trkpt>
      <trkpt lat="43.71566" lon="3.75902">
        <ele>267.3837558201</ele>
        <time>2020-08-08T06:40:50.000Z</time>
      </trkpt>
      <trkpt lat="43.71566" lon="3.75899">
        <ele>267.28223294448</ele>
        <time>2020-08-08T06:40:51.000Z</time>
      </trkpt>
      <trkpt lat="43.71566" lon="3.75895">
        <ele>267.18071006886</ele>
        <time>2020-08-08T06:40:52.000Z</time>
      </trkpt>
      <trkpt lat="43.71566" lon="3.75892">
        <ele>267.07918719324</ele>
        <time>2020-08-08T06:40:53.000Z</time>
      </trkpt>
      <trkpt lat="43.71566" lon="3.7589">
        <ele>267</ele>
        <time>2020-08-08T06:40:54.000Z</time>
      </trkpt>
      <trkpt lat="43.71566" lon="3.75887">
        <ele>267</ele>
        <time>2020-08-08T06:40:55.000Z</time>
      </trkpt>
      <trkpt lat="43.71566" lon="3.75884">
        <ele>267</ele>
        <time>2020-08-08T06:40:56.000Z</time>
      </trkpt>
      <trkpt lat="43.71566" lon="3.75879">
        <ele>267</ele>
        <time>2020-08-08T06:40:58.000Z</time>
      </trkpt>
      <trkpt lat="43.71565" lon="3.75876">
        <ele>267</ele>
        <time>2020-08-08T06:41:00.000Z</time>
      </trkpt>
      <trkpt lat="43.71564" lon="3.75873">
        <ele>267</ele>
        <time>2020-08-08T06:41:02.000Z</time>
      </trkpt>
      <trkpt lat="43.71564" lon="3.7587">
        <ele>267</ele>
        <time>2020-08-08T06:41:08.000Z</time>
      </trkpt>
      <trkpt lat="43.71564" lon="3.75868">
        <ele>267</ele>
        <time>2020-08-08T06:41:10.000Z</time>
      </trkpt>
      <trkpt lat="43.71564" lon="3.75864">
        <ele>267</ele>
        <time>2020-08-08T06:41:13.000Z</time>
      </trkpt>
      <trkpt lat="43.71564" lon="3.75861">
        <ele>267</ele>
        <time>2020-08-08T06:41:15.000Z</time>
      </trkpt>
      <trkpt lat="43.71563" lon="3.75858">
        <ele>267</ele>
        <time>2020-08-08T06:41:17.000Z</time>
      </trkpt>
      <trkpt lat="43.71563" lon="3.75855">
        <ele>267</ele>
        <time>2020-08-08T06:41:19.000Z</time>
      </trkpt>
      <trkpt lat="43.71562" lon="3.75851">
        <ele>267</ele>
        <time>2020-08-08T06:41:21.000Z</time>
      </trkpt>
      <trkpt lat="43.71562" lon="3.75848">
        <ele>267</ele>
        <time>2020-08-08T06:41:23.000Z</time>
      </trkpt>
      <trkpt lat="43.71562" lon="3.75844">
        <ele>266.87699968</ele>
        <time>2020-08-08T06:41:25.000Z</time>
      </trkpt>
      <trkpt lat="43.71562" lon="3.75841">
        <ele>266.67699968</ele>
        <time>2020-08-08T06:41:27.000Z</time>
      </trkpt>
      <trkpt lat="43.71561" lon="3.75838">
        <ele>266.47699968</ele>
        <time>2020-08-08T06:41:29.000Z</time>
      </trkpt>
      <trkpt lat="43.71561" lon="3.75835">
        <ele>266.27699968</ele>
        <time>2020-08-08T06:41:31.000Z</time>
      </trkpt>
      <trkpt lat="43.71561" lon="3.75833">
        <ele>267</ele>
        <time>2020-08-08T06:41:38.000Z</time>
      </trkpt>
      <trkpt lat="43.71561" lon="3.75829">
        <ele>267</ele>
        <time>2020-08-08T06:41:56.000Z</time>
      </trkpt>
      <trkpt lat="43.71561" lon="3.75826">
        <ele>266.90041094072</ele>
        <time>2020-08-08T06:41:57.000Z</time>
      </trkpt>
      <trkpt lat="43.7156" lon="3.75824">
        <ele>266.79774146874</ele>
        <time>2020-08-08T06:41:58.000Z</time>
      </trkpt>
      <trkpt lat="43.7156" lon="3.75821">
        <ele>266.69507199676</ele>
        <time>2020-08-08T06:41:59.000Z</time>
      </trkpt>
      <trkpt lat="43.7156" lon="3.75818">
        <ele>266.59240252478</ele>
        <time>2020-08-08T06:42:00.000Z</time>
      </trkpt>
      <trkpt lat="43.7156" lon="3.75815">
        <ele>266.4897330528</ele>
        <time>2020-08-08T06:42:01.000Z</time>
      </trkpt>
      <trkpt lat="43.7156" lon="3.75811">
        <ele>266.28439410884</ele>
        <time>2020-08-08T06:42:03.000Z</time>
      </trkpt>
      <trkpt lat="43.71559" lon="3.75809">
        <ele>266.18172463686</ele>
        <time>2020-08-08T06:42:04.000Z</time>
      </trkpt>
      <trkpt lat="43.71558" lon="3.75806">
        <ele>266.07905516488</ele>
        <time>2020-08-08T06:42:05.000Z</time>
      </trkpt>
      <trkpt lat="43.71558" lon="3.75803">
        <ele>266</ele>
        <time>2020-08-08T06:42:06.000Z</time>
      </trkpt>
      <trkpt lat="43.71557" lon="3.75798">
        <ele>266</ele>
        <time>2020-08-08T06:42:08.000Z</time>
      </trkpt>
      <trkpt lat="43.71557" lon="3.75796">
        <ele>266</ele>
        <time>2020-08-08T06:42:09.000Z</time>
      </trkpt>
      <trkpt lat="43.71556" lon="3.75793">
        <ele>266</ele>
        <time>2020-08-08T06:42:10.000Z</time>
      </trkpt>
      <trkpt lat="43.71556" lon="3.7579">
        <ele>266</ele>
        <time>2020-08-08T06:42:11.000Z</time>
      </trkpt>
      <trkpt lat="43.71556" lon="3.75788">
        <ele>266</ele>
        <time>2020-08-08T06:42:12.000Z</time>
      </trkpt>
      <trkpt lat="43.71555" lon="3.75785">
        <ele>266</ele>
        <time>2020-08-08T06:42:13.000Z</time>
      </trkpt>
      <trkpt lat="43.71555" lon="3.75783">
        <ele>266</ele>
        <time>2020-08-08T06:42:14.000Z</time>
      </trkpt>
      <trkpt lat="43.71554" lon="3.7578">
        <ele>266</ele>
        <time>2020-08-08T06:42:15.000Z</time>
      </trkpt>
      <trkpt lat="43.71553" lon="3.75776">
        <ele>266.12300032</ele>
        <time>2020-08-08T06:42:17.000Z</time>
      </trkpt>
      <trkpt lat="43.71553" lon="3.75773">
        <ele>266.22300032</ele>
        <time>2020-08-08T06:42:18.000Z</time>
      </trkpt>
      <trkpt lat="43.71553" lon="3.7577">
        <ele>266.32300032</ele>
        <time>2020-08-08T06:42:19.000Z</time>
      </trkpt>
      <trkpt lat="43.71553" lon="3.75767">
        <ele>266.42300032</ele>
        <time>2020-08-08T06:42:20.000Z</time>
      </trkpt>
      <trkpt lat="43.71553" lon="3.75763">
        <ele>266.62300032</ele>
        <time>2020-08-08T06:42:22.000Z</time>
      </trkpt>
      <trkpt lat="43.71553" lon="3.75757">
        <ele>266.82300032</ele>
        <time>2020-08-08T06:42:24.000Z</time>
      </trkpt>
      <trkpt lat="43.71553" lon="3.75755">
        <ele>266.92300032</ele>
        <time>2020-08-08T06:42:25.000Z</time>
      </trkpt>
      <trkpt lat="43.71553" lon="3.75752">
        <ele>267</ele>
        <time>2020-08-08T06:42:26.000Z</time>
      </trkpt>
      <trkpt lat="43.71553" lon="3.75749">
        <ele>267</ele>
        <time>2020-08-08T06:42:27.000Z</time>
      </trkpt>
      <trkpt lat="43.71553" lon="3.75746">
        <ele>267</ele>
        <time>2020-08-08T06:42:28.000Z</time>
      </trkpt>
      <trkpt lat="43.71553" lon="3.75743">
        <ele>267</ele>
        <time>2020-08-08T06:42:29.000Z</time>
      </trkpt>
      <trkpt lat="43.71553" lon="3.75739">
        <ele>267</ele>
        <time>2020-08-08T06:42:30.000Z</time>
      </trkpt>
      <trkpt lat="43.71554" lon="3.75736">
        <ele>267</ele>
        <time>2020-08-08T06:42:31.000Z</time>
      </trkpt>
      <trkpt lat="43.71553" lon="3.75733">
        <ele>267</ele>
        <time>2020-08-08T06:42:32.000Z</time>
      </trkpt>
      <trkpt lat="43.71553" lon="3.7573">
        <ele>267</ele>
        <time>2020-08-08T06:42:33.000Z</time>
      </trkpt>
      <trkpt lat="43.71553" lon="3.75727">
        <ele>267</ele>
        <time>2020-08-08T06:42:34.000Z</time>
      </trkpt>
      <trkpt lat="43.71553" lon="3.75724">
        <ele>267</ele>
        <time>2020-08-08T06:42:35.000Z</time>
      </trkpt>
      <trkpt lat="43.71553" lon="3.75722">
        <ele>266.9819101735</ele>
        <time>2020-08-08T06:42:36.000Z</time>
      </trkpt>
      <trkpt lat="43.71554" lon="3.75717">
        <ele>266.78090495444</ele>
        <time>2020-08-08T06:42:38.000Z</time>
      </trkpt>
      <trkpt lat="43.71553" lon="3.75714">
        <ele>266.68040234491</ele>
        <time>2020-08-08T06:42:39.000Z</time>
      </trkpt>
      <trkpt lat="43.71553" lon="3.75711">
        <ele>266.57989973538</ele>
        <time>2020-08-08T06:42:40.000Z</time>
      </trkpt>
      <trkpt lat="43.71553" lon="3.75708">
        <ele>266.47939712585</ele>
        <time>2020-08-08T06:42:41.000Z</time>
      </trkpt>
      <trkpt lat="43.71553" lon="3.75705">
        <ele>266.37889451632</ele>
        <time>2020-08-08T06:42:42.000Z</time>
      </trkpt>
      <trkpt lat="43.71553" lon="3.75702">
        <ele>266.27839190679</ele>
        <time>2020-08-08T06:42:43.000Z</time>
      </trkpt>
      <trkpt lat="43.71553" lon="3.75699">
        <ele>266.17788929726</ele>
        <time>2020-08-08T06:42:44.000Z</time>
      </trkpt>
      <trkpt lat="43.71553" lon="3.75696">
        <ele>266.07738668773</ele>
        <time>2020-08-08T06:42:45.000Z</time>
      </trkpt>
      <trkpt lat="43.71553" lon="3.75691">
        <ele>266.12300032</ele>
        <time>2020-08-08T06:42:47.000Z</time>
      </trkpt>
      <trkpt lat="43.71552" lon="3.75688">
        <ele>266.22300032</ele>
        <time>2020-08-08T06:42:48.000Z</time>
      </trkpt>
      <trkpt lat="43.71552" lon="3.75686">
        <ele>266.32300032</ele>
        <time>2020-08-08T06:42:49.000Z</time>
      </trkpt>
      <trkpt lat="43.71552" lon="3.75683">
        <ele>266.42300032</ele>
        <time>2020-08-08T06:42:50.000Z</time>
      </trkpt>
      <trkpt lat="43.71551" lon="3.75681">
        <ele>266.52300032</ele>
        <time>2020-08-08T06:42:51.000Z</time>
      </trkpt>
      <trkpt lat="43.71551" lon="3.75676">
        <ele>266.72300032</ele>
        <time>2020-08-08T06:42:53.000Z</time>
      </trkpt>
      <trkpt lat="43.71551" lon="3.75672">
        <ele>266.92300032</ele>
        <time>2020-08-08T06:42:55.000Z</time>
      </trkpt>
      <trkpt lat="43.71551" lon="3.75667">
        <ele>267</ele>
        <time>2020-08-08T06:42:57.000Z</time>
      </trkpt>
      <trkpt lat="43.7155" lon="3.75664">
        <ele>267</ele>
        <time>2020-08-08T06:42:58.000Z</time>
      </trkpt>
      <trkpt lat="43.7155" lon="3.75661">
        <ele>267</ele>
        <time>2020-08-08T06:42:59.000Z</time>
      </trkpt>
      <trkpt lat="43.7155" lon="3.75658">
        <ele>267</ele>
        <time>2020-08-08T06:43:00.000Z</time>
      </trkpt>
      <trkpt lat="43.71549" lon="3.75655">
        <ele>267</ele>
        <time>2020-08-08T06:43:01.000Z</time>
      </trkpt>
      <trkpt lat="43.71549" lon="3.75652">
        <ele>267</ele>
        <time>2020-08-08T06:43:02.000Z</time>
      </trkpt>
      <trkpt lat="43.71548" lon="3.75648">
        <ele>267</ele>
        <time>2020-08-08T06:43:04.000Z</time>
      </trkpt>
      <trkpt lat="43.71547" lon="3.75643">
        <ele>266.97702265</ele>
        <time>2020-08-08T06:43:06.000Z</time>
      </trkpt>
      <trkpt lat="43.71547" lon="3.7564">
        <ele>266.87712251816</ele>
        <time>2020-08-08T06:43:07.000Z</time>
      </trkpt>
      <trkpt lat="43.71546" lon="3.75636">
        <ele>266.77722238632</ele>
        <time>2020-08-08T06:43:08.000Z</time>
      </trkpt>
      <trkpt lat="43.71545" lon="3.75633">
        <ele>266.67732225449</ele>
        <time>2020-08-08T06:43:09.000Z</time>
      </trkpt>
      <trkpt lat="43.71544" lon="3.7563">
        <ele>266.57742212265</ele>
        <time>2020-08-08T06:43:10.000Z</time>
      </trkpt>
      <trkpt lat="43.71544" lon="3.75627">
        <ele>266.47752199082</ele>
        <time>2020-08-08T06:43:11.000Z</time>
      </trkpt>
      <trkpt lat="43.71543" lon="3.75625">
        <ele>266.37762185898</ele>
        <time>2020-08-08T06:43:12.000Z</time>
      </trkpt>
      <trkpt lat="43.71542" lon="3.75622">
        <ele>266.27772172714</ele>
        <time>2020-08-08T06:43:13.000Z</time>
      </trkpt>
      <trkpt lat="43.71541" lon="3.7562">
        <ele>266.17782159531</ele>
        <time>2020-08-08T06:43:14.000Z</time>
      </trkpt>
      <trkpt lat="43.7154" lon="3.75617">
        <ele>266.07792146347</ele>
        <time>2020-08-08T06:43:15.000Z</time>
      </trkpt>
      <trkpt lat="43.71539" lon="3.75612">
        <ele>266</ele>
        <time>2020-08-08T06:43:17.000Z</time>
      </trkpt>
      <trkpt lat="43.71538" lon="3.7561">
        <ele>266</ele>
        <time>2020-08-08T06:43:18.000Z</time>
      </trkpt>
      <trkpt lat="43.71537" lon="3.75607">
        <ele>266</ele>
        <time>2020-08-08T06:43:19.000Z</time>
      </trkpt>
      <trkpt lat="43.71536" lon="3.75603">
        <ele>266</ele>
        <time>2020-08-08T06:43:20.000Z</time>
      </trkpt>
      <trkpt lat="43.71536" lon="3.75599">
        <ele>266</ele>
        <time>2020-08-08T06:43:21.000Z</time>
      </trkpt>
      <trkpt lat="43.71535" lon="3.75596">
        <ele>266</ele>
        <time>2020-08-08T06:43:22.000Z</time>
      </trkpt>
      <trkpt lat="43.71535" lon="3.75593">
        <ele>266</ele>
        <time>2020-08-08T06:43:23.000Z</time>
      </trkpt>
      <trkpt lat="43.71535" lon="3.7559">
        <ele>266</ele>
        <time>2020-08-08T06:43:24.000Z</time>
      </trkpt>
      <trkpt lat="43.71535" lon="3.75587">
        <ele>266</ele>
        <time>2020-08-08T06:43:25.000Z</time>
      </trkpt>
      <trkpt lat="43.71535" lon="3.75583">
        <ele>266</ele>
        <time>2020-08-08T06:43:26.000Z</time>
      </trkpt>
      <trkpt lat="43.71534" lon="3.75579">
        <ele>266</ele>
        <time>2020-08-08T06:43:27.000Z</time>
      </trkpt>
      <trkpt lat="43.71534" lon="3.75576">
        <ele>266</ele>
        <time>2020-08-08T06:43:28.000Z</time>
      </trkpt>
      <trkpt lat="43.71534" lon="3.75573">
        <ele>266</ele>
        <time>2020-08-08T06:43:29.000Z</time>
      </trkpt>
      <trkpt lat="43.71534" lon="3.75569">
        <ele>266</ele>
        <time>2020-08-08T06:43:30.000Z</time>
      </trkpt>
      <trkpt lat="43.71534" lon="3.75566">
        <ele>266</ele>
        <time>2020-08-08T06:43:31.000Z</time>
      </trkpt>
      <trkpt lat="43.71534" lon="3.75563">
        <ele>266</ele>
        <time>2020-08-08T06:43:32.000Z</time>
      </trkpt>
      <trkpt lat="43.71535" lon="3.75558">
        <ele>266</ele>
        <time>2020-08-08T06:43:34.000Z</time>
      </trkpt>
      <trkpt lat="43.71534" lon="3.75555">
        <ele>266</ele>
        <time>2020-08-08T06:43:35.000Z</time>
      </trkpt>
      <trkpt lat="43.71534" lon="3.75552">
        <ele>266</ele>
        <time>2020-08-08T06:43:36.000Z</time>
      </trkpt>
      <trkpt lat="43.71534" lon="3.75549">
        <ele>266</ele>
        <time>2020-08-08T06:43:37.000Z</time>
      </trkpt>
      <trkpt lat="43.71533" lon="3.75547">
        <ele>266</ele>
        <time>2020-08-08T06:43:38.000Z</time>
      </trkpt>
      <trkpt lat="43.71533" lon="3.75544">
        <ele>266</ele>
        <time>2020-08-08T06:43:39.000Z</time>
      </trkpt>
      <trkpt lat="43.71533" lon="3.75541">
        <ele>266</ele>
        <time>2020-08-08T06:43:40.000Z</time>
      </trkpt>
      <trkpt lat="43.71532" lon="3.75539">
        <ele>266</ele>
        <time>2020-08-08T06:43:41.000Z</time>
      </trkpt>
      <trkpt lat="43.71531" lon="3.75535">
        <ele>266</ele>
        <time>2020-08-08T06:43:43.000Z</time>
      </trkpt>
      <trkpt lat="43.71531" lon="3.75531">
        <ele>266</ele>
        <time>2020-08-08T06:43:45.000Z</time>
      </trkpt>
      <trkpt lat="43.71531" lon="3.75527">
        <ele>265.88052176707</ele>
        <time>2020-08-08T06:43:47.000Z</time>
      </trkpt>
      <trkpt lat="43.7153" lon="3.75524">
        <ele>265.67971855422</ele>
        <time>2020-08-08T06:43:49.000Z</time>
      </trkpt>
      <trkpt lat="43.7153" lon="3.75521">
        <ele>265.47891534136</ele>
        <time>2020-08-08T06:43:51.000Z</time>
      </trkpt>
      <trkpt lat="43.71529" lon="3.75516">
        <ele>265.27811212851</ele>
        <time>2020-08-08T06:43:53.000Z</time>
      </trkpt>
      <trkpt lat="43.71529" lon="3.75513">
        <ele>265.07730891566</ele>
        <time>2020-08-08T06:43:55.000Z</time>
      </trkpt>
      <trkpt lat="43.71528" lon="3.75511">
        <ele>264.70714514286</ele>
        <time>2020-08-08T06:44:00.000Z</time>
      </trkpt>
      <trkpt lat="43.71528" lon="3.75508">
        <ele>263.79345655195</ele>
        <time>2020-08-08T06:44:03.000Z</time>
      </trkpt>
      <trkpt lat="43.71526" lon="3.75504">
        <ele>263.17995921797</ele>
        <time>2020-08-08T06:44:06.000Z</time>
      </trkpt>
      <trkpt lat="43.71525" lon="3.75502">
        <ele>262.56646188398</ele>
        <time>2020-08-08T06:44:09.000Z</time>
      </trkpt>
      <trkpt lat="43.71524" lon="3.75499">
        <ele>262.15746366133</ele>
        <time>2020-08-08T06:44:11.000Z</time>
      </trkpt>
      <trkpt lat="43.71523" lon="3.75497">
        <ele>262</ele>
        <time>2020-08-08T06:44:14.000Z</time>
      </trkpt>
      <trkpt lat="43.71522" lon="3.75494">
        <ele>262</ele>
        <time>2020-08-08T06:44:16.000Z</time>
      </trkpt>
      <trkpt lat="43.71521" lon="3.75491">
        <ele>262</ele>
        <time>2020-08-08T06:44:19.000Z</time>
      </trkpt>
      <trkpt lat="43.7152" lon="3.75488">
        <ele>262</ele>
        <time>2020-08-08T06:44:22.000Z</time>
      </trkpt>
      <trkpt lat="43.71519" lon="3.75485">
        <ele>261.69650172839</ele>
        <time>2020-08-08T06:44:25.000Z</time>
      </trkpt>
      <trkpt lat="43.71518" lon="3.75482">
        <ele>261.38785975309</ele>
        <time>2020-08-08T06:44:28.000Z</time>
      </trkpt>
      <trkpt lat="43.71518" lon="3.7548">
        <ele>260.99785108559</ele>
        <time>2020-08-08T06:44:35.000Z</time>
      </trkpt>
      <trkpt lat="43.71517" lon="3.75471">
        <ele>260.0311489474</ele>
        <time>2020-08-08T06:44:44.000Z</time>
      </trkpt>
      <trkpt lat="43.71517" lon="3.75469">
        <ele>259.92608296625</ele>
        <time>2020-08-08T06:44:45.000Z</time>
      </trkpt>
      <trkpt lat="43.71516" lon="3.75465">
        <ele>259.71488951034</ele>
        <time>2020-08-08T06:44:47.000Z</time>
      </trkpt>
      <trkpt lat="43.71515" lon="3.75463">
        <ele>259.60929278239</ele>
        <time>2020-08-08T06:44:48.000Z</time>
      </trkpt>
      <trkpt lat="43.71515" lon="3.7546">
        <ele>259.50369605443</ele>
        <time>2020-08-08T06:44:49.000Z</time>
      </trkpt>
      <trkpt lat="43.71515" lon="3.75457">
        <ele>259.29250259852</ele>
        <time>2020-08-08T06:44:51.000Z</time>
      </trkpt>
      <trkpt lat="43.71514" lon="3.75453">
        <ele>259.08130914261</ele>
        <time>2020-08-08T06:44:53.000Z</time>
      </trkpt>
      <trkpt lat="43.71514" lon="3.7545">
        <ele>258.88081364341</ele>
        <time>2020-08-08T06:44:55.000Z</time>
      </trkpt>
      <trkpt lat="43.71514" lon="3.75447">
        <ele>258.39631751938</ele>
        <time>2020-08-08T06:45:00.000Z</time>
      </trkpt>
      <trkpt lat="43.71514" lon="3.75442">
        <ele>258.20251906977</ele>
        <time>2020-08-08T06:45:02.000Z</time>
      </trkpt>
      <trkpt lat="43.71513" lon="3.75439">
        <ele>258.10561984496</ele>
        <time>2020-08-08T06:45:03.000Z</time>
      </trkpt>
      <trkpt lat="43.71513" lon="3.75436">
        <ele>258.00872062015</ele>
        <time>2020-08-08T06:45:04.000Z</time>
      </trkpt>
      <trkpt lat="43.71513" lon="3.75434">
        <ele>258</ele>
        <time>2020-08-08T06:45:05.000Z</time>
      </trkpt>
      <trkpt lat="43.71514" lon="3.75431">
        <ele>258</ele>
        <time>2020-08-08T06:45:06.000Z</time>
      </trkpt>
      <trkpt lat="43.71514" lon="3.75426">
        <ele>258</ele>
        <time>2020-08-08T06:45:08.000Z</time>
      </trkpt>
      <trkpt lat="43.71514" lon="3.75423">
        <ele>258</ele>
        <time>2020-08-08T06:45:10.000Z</time>
      </trkpt>
      <trkpt lat="43.71514" lon="3.7542">
        <ele>258</ele>
        <time>2020-08-08T06:45:15.000Z</time>
      </trkpt>
      <trkpt lat="43.71514" lon="3.75416">
        <ele>258</ele>
        <time>2020-08-08T06:45:18.000Z</time>
      </trkpt>
      <trkpt lat="43.71514" lon="3.75413">
        <ele>258</ele>
        <time>2020-08-08T06:45:20.000Z</time>
      </trkpt>
      <trkpt lat="43.71514" lon="3.75409">
        <ele>258</ele>
        <time>2020-08-08T06:45:23.000Z</time>
      </trkpt>
      <trkpt lat="43.71514" lon="3.75406">
        <ele>257.77699968</ele>
        <time>2020-08-08T06:45:26.000Z</time>
      </trkpt>
      <trkpt lat="43.71514" lon="3.75404">
        <ele>257.57699968</ele>
        <time>2020-08-08T06:45:28.000Z</time>
      </trkpt>
      <trkpt lat="43.71514" lon="3.75401">
        <ele>257.37699968</ele>
        <time>2020-08-08T06:45:30.000Z</time>
      </trkpt>
      <trkpt lat="43.71514" lon="3.75398">
        <ele>257.17699968</ele>
        <time>2020-08-08T06:45:32.000Z</time>
      </trkpt>
      <trkpt lat="43.71514" lon="3.75397">
        <ele>257</ele>
        <time>2020-08-08T06:45:37.000Z</time>
      </trkpt>
      <trkpt lat="43.71514" lon="3.75389">
        <ele>257</ele>
        <time>2020-08-08T06:45:42.000Z</time>
      </trkpt>
      <trkpt lat="43.71514" lon="3.75387">
        <ele>256.9270615997</ele>
        <time>2020-08-08T06:45:43.000Z</time>
      </trkpt>
      <trkpt lat="43.71514" lon="3.75383">
        <ele>256.71564496619</ele>
        <time>2020-08-08T06:45:45.000Z</time>
      </trkpt>
      <trkpt lat="43.71514" lon="3.7538">
        <ele>256.50422833267</ele>
        <time>2020-08-08T06:45:47.000Z</time>
      </trkpt>
      <trkpt lat="43.71514" lon="3.75377">
        <ele>256.29281169915</ele>
        <time>2020-08-08T06:45:49.000Z</time>
      </trkpt>
      <trkpt lat="43.71514" lon="3.75375">
        <ele>255.97766960611</ele>
        <time>2020-08-08T06:45:52.000Z</time>
      </trkpt>
      <trkpt lat="43.71514" lon="3.75371">
        <ele>255.58932033285</ele>
        <time>2020-08-08T06:45:56.000Z</time>
      </trkpt>
      <trkpt lat="43.71514" lon="3.75367">
        <ele>255.39514569622</ele>
        <time>2020-08-08T06:45:58.000Z</time>
      </trkpt>
      <trkpt lat="43.71514" lon="3.75362">
        <ele>255.20097105959</ele>
        <time>2020-08-08T06:46:00.000Z</time>
      </trkpt>
      <trkpt lat="43.71515" lon="3.7536">
        <ele>254.8774217903</ele>
        <time>2020-08-08T06:46:06.000Z</time>
      </trkpt>
      <trkpt lat="43.7151" lon="3.75347">
        <ele>252</ele>
        <time>2020-08-08T06:46:25.000Z</time>
      </trkpt>
      <trkpt lat="43.71509" lon="3.75344">
        <ele>252</ele>
        <time>2020-08-08T06:46:26.000Z</time>
      </trkpt>
      <trkpt lat="43.71508" lon="3.75342">
        <ele>252</ele>
        <time>2020-08-08T06:46:27.000Z</time>
      </trkpt>
      <trkpt lat="43.71506" lon="3.75339">
        <ele>252</ele>
        <time>2020-08-08T06:46:28.000Z</time>
      </trkpt>
      <trkpt lat="43.71504" lon="3.75337">
        <ele>252</ele>
        <time>2020-08-08T06:46:29.000Z</time>
      </trkpt>
      <trkpt lat="43.71502" lon="3.75335">
        <ele>252</ele>
        <time>2020-08-08T06:46:30.000Z</time>
      </trkpt>
      <trkpt lat="43.715" lon="3.75333">
        <ele>252</ele>
        <time>2020-08-08T06:46:31.000Z</time>
      </trkpt>
      <trkpt lat="43.71498" lon="3.75331">
        <ele>252</ele>
        <time>2020-08-08T06:46:32.000Z</time>
      </trkpt>
      <trkpt lat="43.71497" lon="3.75329">
        <ele>252</ele>
        <time>2020-08-08T06:46:33.000Z</time>
      </trkpt>
      <trkpt lat="43.71495" lon="3.75326">
        <ele>252</ele>
        <time>2020-08-08T06:46:34.000Z</time>
      </trkpt>
      <trkpt lat="43.71494" lon="3.75325">
        <ele>252</ele>
        <time>2020-08-08T06:46:35.000Z</time>
      </trkpt>
      <trkpt lat="43.71492" lon="3.75323">
        <ele>252</ele>
        <time>2020-08-08T06:46:36.000Z</time>
      </trkpt>
      <trkpt lat="43.7149" lon="3.75321">
        <ele>252</ele>
        <time>2020-08-08T06:46:37.000Z</time>
      </trkpt>
      <trkpt lat="43.71488" lon="3.75318">
        <ele>252</ele>
        <time>2020-08-08T06:46:39.000Z</time>
      </trkpt>
      <trkpt lat="43.71486" lon="3.75316">
        <ele>252</ele>
        <time>2020-08-08T06:46:41.000Z</time>
      </trkpt>
      <trkpt lat="43.71483" lon="3.75316">
        <ele>252</ele>
        <time>2020-08-08T06:46:43.000Z</time>
      </trkpt>
      <trkpt lat="43.7148" lon="3.75318">
        <ele>251.90412397798</ele>
        <time>2020-08-08T06:46:45.000Z</time>
      </trkpt>
      <trkpt lat="43.71478" lon="3.75319">
        <ele>251.80103112645</ele>
        <time>2020-08-08T06:46:46.000Z</time>
      </trkpt>
      <trkpt lat="43.71477" lon="3.7532">
        <ele>251.69793827493</ele>
        <time>2020-08-08T06:46:47.000Z</time>
      </trkpt>
      <trkpt lat="43.71475" lon="3.75321">
        <ele>251.5948454234</ele>
        <time>2020-08-08T06:46:48.000Z</time>
      </trkpt>
      <trkpt lat="43.71472" lon="3.75323">
        <ele>251.38865972035</ele>
        <time>2020-08-08T06:46:50.000Z</time>
      </trkpt>
      <trkpt lat="43.7147" lon="3.75324">
        <ele>251.28556686883</ele>
        <time>2020-08-08T06:46:51.000Z</time>
      </trkpt>
      <trkpt lat="43.71467" lon="3.75325">
        <ele>251.07938116578</ele>
        <time>2020-08-08T06:46:53.000Z</time>
      </trkpt>
      <trkpt lat="43.71464" lon="3.75326">
        <ele>251</ele>
        <time>2020-08-08T06:46:55.000Z</time>
      </trkpt>
      <trkpt lat="43.71462" lon="3.75326">
        <ele>251</ele>
        <time>2020-08-08T06:46:56.000Z</time>
      </trkpt>
      <trkpt lat="43.7146" lon="3.75326">
        <ele>251</ele>
        <time>2020-08-08T06:46:57.000Z</time>
      </trkpt>
      <trkpt lat="43.71458" lon="3.75327">
        <ele>251</ele>
        <time>2020-08-08T06:46:58.000Z</time>
      </trkpt>
      <trkpt lat="43.71456" lon="3.75327">
        <ele>251</ele>
        <time>2020-08-08T06:46:59.000Z</time>
      </trkpt>
      <trkpt lat="43.71454" lon="3.75327">
        <ele>251</ele>
        <time>2020-08-08T06:47:00.000Z</time>
      </trkpt>
      <trkpt lat="43.71452" lon="3.75328">
        <ele>251</ele>
        <time>2020-08-08T06:47:01.000Z</time>
      </trkpt>
      <trkpt lat="43.7145" lon="3.75328">
        <ele>251</ele>
        <time>2020-08-08T06:47:02.000Z</time>
      </trkpt>
      <trkpt lat="43.71447" lon="3.75329">
        <ele>251</ele>
        <time>2020-08-08T06:47:03.000Z</time>
      </trkpt>
      <trkpt lat="43.71445" lon="3.75329">
        <ele>251</ele>
        <time>2020-08-08T06:47:04.000Z</time>
      </trkpt>
      <trkpt lat="43.71443" lon="3.75329">
        <ele>250.90412397798</ele>
        <time>2020-08-08T06:47:05.000Z</time>
      </trkpt>
      <trkpt lat="43.71441" lon="3.75329">
        <ele>250.80103112645</ele>
        <time>2020-08-08T06:47:06.000Z</time>
      </trkpt>
      <trkpt lat="43.71439" lon="3.7533">
        <ele>250.69793827493</ele>
        <time>2020-08-08T06:47:07.000Z</time>
      </trkpt>
      <trkpt lat="43.71436" lon="3.75331">
        <ele>250.5948454234</ele>
        <time>2020-08-08T06:47:08.000Z</time>
      </trkpt>
      <trkpt lat="43.71434" lon="3.75333">
        <ele>250.49175257188</ele>
        <time>2020-08-08T06:47:09.000Z</time>
      </trkpt>
      <trkpt lat="43.7143" lon="3.75333">
        <ele>250.38865972035</ele>
        <time>2020-08-08T06:47:10.000Z</time>
      </trkpt>
      <trkpt lat="43.71427" lon="3.75333">
        <ele>250.28556686883</ele>
        <time>2020-08-08T06:47:11.000Z</time>
      </trkpt>
      <trkpt lat="43.71424" lon="3.75332">
        <ele>250.1824740173</ele>
        <time>2020-08-08T06:47:12.000Z</time>
      </trkpt>
      <trkpt lat="43.71421" lon="3.75332">
        <ele>250.07938116578</ele>
        <time>2020-08-08T06:47:13.000Z</time>
      </trkpt>
      <trkpt lat="43.71419" lon="3.75331">
        <ele>250</ele>
        <time>2020-08-08T06:47:14.000Z</time>
      </trkpt>
      <trkpt lat="43.71416" lon="3.75331">
        <ele>250</ele>
        <time>2020-08-08T06:47:15.000Z</time>
      </trkpt>
      <trkpt lat="43.71414" lon="3.7533">
        <ele>250</ele>
        <time>2020-08-08T06:47:16.000Z</time>
      </trkpt>
      <trkpt lat="43.71412" lon="3.7533">
        <ele>250</ele>
        <time>2020-08-08T06:47:17.000Z</time>
      </trkpt>
      <trkpt lat="43.71409" lon="3.75329">
        <ele>250</ele>
        <time>2020-08-08T06:47:18.000Z</time>
      </trkpt>
      <trkpt lat="43.71407" lon="3.75328">
        <ele>250</ele>
        <time>2020-08-08T06:47:19.000Z</time>
      </trkpt>
      <trkpt lat="43.71404" lon="3.75327">
        <ele>250</ele>
        <time>2020-08-08T06:47:20.000Z</time>
      </trkpt>
      <trkpt lat="43.71401" lon="3.75326">
        <ele>250</ele>
        <time>2020-08-08T06:47:21.000Z</time>
      </trkpt>
      <trkpt lat="43.71399" lon="3.75326">
        <ele>250</ele>
        <time>2020-08-08T06:47:22.000Z</time>
      </trkpt>
      <trkpt lat="43.71396" lon="3.75325">
        <ele>250</ele>
        <time>2020-08-08T06:47:23.000Z</time>
      </trkpt>
      <trkpt lat="43.71394" lon="3.75325">
        <ele>249.97722742037</ele>
        <time>2020-08-08T06:47:24.000Z</time>
      </trkpt>
      <trkpt lat="43.71391" lon="3.75324">
        <ele>249.87821758212</ele>
        <time>2020-08-08T06:47:25.000Z</time>
      </trkpt>
      <trkpt lat="43.71389" lon="3.75325">
        <ele>249.77920774387</ele>
        <time>2020-08-08T06:47:26.000Z</time>
      </trkpt>
      <trkpt lat="43.71387" lon="3.75325">
        <ele>249.68019790562</ele>
        <time>2020-08-08T06:47:27.000Z</time>
      </trkpt>
      <trkpt lat="43.71386" lon="3.75326">
        <ele>249.58118806737</ele>
        <time>2020-08-08T06:47:28.000Z</time>
      </trkpt>
      <trkpt lat="43.71384" lon="3.75327">
        <ele>249.48217822911</ele>
        <time>2020-08-08T06:47:29.000Z</time>
      </trkpt>
      <trkpt lat="43.71382" lon="3.75328">
        <ele>249.38316839086</ele>
        <time>2020-08-08T06:47:30.000Z</time>
      </trkpt>
      <trkpt lat="43.7138" lon="3.75329">
        <ele>249.28415855261</ele>
        <time>2020-08-08T06:47:31.000Z</time>
      </trkpt>
      <trkpt lat="43.71378" lon="3.7533">
        <ele>249.18514871436</ele>
        <time>2020-08-08T06:47:32.000Z</time>
      </trkpt>
      <trkpt lat="43.71377" lon="3.75331">
        <ele>249.08613887611</ele>
        <time>2020-08-08T06:47:33.000Z</time>
      </trkpt>
      <trkpt lat="43.71375" lon="3.75331">
        <ele>248.98686900161</ele>
        <time>2020-08-08T06:47:34.000Z</time>
      </trkpt>
      <trkpt lat="43.71372" lon="3.75332">
        <ele>248.8858588353</ele>
        <time>2020-08-08T06:47:35.000Z</time>
      </trkpt>
      <trkpt lat="43.7137" lon="3.75333">
        <ele>248.78484866899</ele>
        <time>2020-08-08T06:47:36.000Z</time>
      </trkpt>
      <trkpt lat="43.71367" lon="3.75335">
        <ele>248.58282833637</ele>
        <time>2020-08-08T06:47:38.000Z</time>
      </trkpt>
      <trkpt lat="43.71366" lon="3.75338">
        <ele>248.48181817006</ele>
        <time>2020-08-08T06:47:39.000Z</time>
      </trkpt>
      <trkpt lat="43.71364" lon="3.75339">
        <ele>248.38080800375</ele>
        <time>2020-08-08T06:47:40.000Z</time>
      </trkpt>
      <trkpt lat="43.71361" lon="3.75342">
        <ele>248.17878767114</ele>
        <time>2020-08-08T06:47:42.000Z</time>
      </trkpt>
      <trkpt lat="43.71359" lon="3.75344">
        <ele>248.07777750483</ele>
        <time>2020-08-08T06:47:43.000Z</time>
      </trkpt>
      <trkpt lat="43.71358" lon="3.75346">
        <ele>247.97699968</ele>
        <time>2020-08-08T06:47:44.000Z</time>
      </trkpt>
      <trkpt lat="43.71356" lon="3.75349">
        <ele>247.87699968</ele>
        <time>2020-08-08T06:47:45.000Z</time>
      </trkpt>
      <trkpt lat="43.71355" lon="3.75351">
        <ele>247.77699968</ele>
        <time>2020-08-08T06:47:46.000Z</time>
      </trkpt>
      <trkpt lat="43.71355" lon="3.75353">
        <ele>247.67699968</ele>
        <time>2020-08-08T06:47:47.000Z</time>
      </trkpt>
      <trkpt lat="43.71354" lon="3.75356">
        <ele>247.57699968</ele>
        <time>2020-08-08T06:47:48.000Z</time>
      </trkpt>
      <trkpt lat="43.71353" lon="3.75359">
        <ele>247.47699968</ele>
        <time>2020-08-08T06:47:49.000Z</time>
      </trkpt>
      <trkpt lat="43.71352" lon="3.75362">
        <ele>247.37699968</ele>
        <time>2020-08-08T06:47:50.000Z</time>
      </trkpt>
      <trkpt lat="43.71351" lon="3.75365">
        <ele>247.27699968</ele>
        <time>2020-08-08T06:47:51.000Z</time>
      </trkpt>
      <trkpt lat="43.71349" lon="3.75369">
        <ele>247.17699968</ele>
        <time>2020-08-08T06:47:52.000Z</time>
      </trkpt>
      <trkpt lat="43.71348" lon="3.75372">
        <ele>247.07699968</ele>
        <time>2020-08-08T06:47:53.000Z</time>
      </trkpt>
      <trkpt lat="43.71346" lon="3.75375">
        <ele>246.97709131474</ele>
        <time>2020-08-08T06:47:54.000Z</time>
      </trkpt>
      <trkpt lat="43.71344" lon="3.75379">
        <ele>246.87748972112</ele>
        <time>2020-08-08T06:47:55.000Z</time>
      </trkpt>
      <trkpt lat="43.71343" lon="3.75381">
        <ele>246.77788812749</ele>
        <time>2020-08-08T06:47:56.000Z</time>
      </trkpt>
      <trkpt lat="43.71341" lon="3.75384">
        <ele>246.67828653386</ele>
        <time>2020-08-08T06:47:57.000Z</time>
      </trkpt>
      <trkpt lat="43.7134" lon="3.75387">
        <ele>246.57868494024</ele>
        <time>2020-08-08T06:47:58.000Z</time>
      </trkpt>
      <trkpt lat="43.71339" lon="3.7539">
        <ele>246.47908334661</ele>
        <time>2020-08-08T06:47:59.000Z</time>
      </trkpt>
      <trkpt lat="43.71338" lon="3.75393">
        <ele>246.37948175299</ele>
        <time>2020-08-08T06:48:00.000Z</time>
      </trkpt>
      <trkpt lat="43.71336" lon="3.75395">
        <ele>246.27988015936</ele>
        <time>2020-08-08T06:48:01.000Z</time>
      </trkpt>
      <trkpt lat="43.71334" lon="3.75395">
        <ele>246</ele>
        <time>2020-08-08T06:48:08.000Z</time>
      </trkpt>
      <trkpt lat="43.71333" lon="3.75396">
        <ele>245.95640327398</ele>
        <time>2020-08-08T06:48:10.000Z</time>
      </trkpt>
      <trkpt lat="43.71325" lon="3.75399">
        <ele>244</ele>
        <time>2020-08-08T06:48:43.000Z</time>
      </trkpt>
      <trkpt lat="43.71325" lon="3.75399">
        <ele>244</ele>
        <time>2020-08-08T06:48:49.000Z</time>
      </trkpt>
      <trkpt lat="43.71321" lon="3.75397">
        <ele>243.01220853722</ele>
        <time>2020-08-08T06:49:16.000Z</time>
      </trkpt>
      <trkpt lat="43.7132" lon="3.75395">
        <ele>243</ele>
        <time>2020-08-08T06:49:18.000Z</time>
      </trkpt>
      <trkpt lat="43.7132" lon="3.75395">
        <ele>243</ele>
        <time>2020-08-08T06:49:24.000Z</time>
      </trkpt>
      <trkpt lat="43.71315" lon="3.75394">
        <ele>243</ele>
        <time>2020-08-08T06:49:55.000Z</time>
      </trkpt>
      <trkpt lat="43.71314" lon="3.75394">
        <ele>243</ele>
        <time>2020-08-08T06:49:57.000Z</time>
      </trkpt>
      <trkpt lat="43.71312" lon="3.75393">
        <ele>243</ele>
        <time>2020-08-08T06:49:59.000Z</time>
      </trkpt>
      <trkpt lat="43.7131" lon="3.75394">
        <ele>243</ele>
        <time>2020-08-08T06:50:03.000Z</time>
      </trkpt>
      <trkpt lat="43.71308" lon="3.75394">
        <ele>243</ele>
        <time>2020-08-08T06:50:06.000Z</time>
      </trkpt>
      <trkpt lat="43.71306" lon="3.75394">
        <ele>243</ele>
        <time>2020-08-08T06:50:09.000Z</time>
      </trkpt>
      <trkpt lat="43.71304" lon="3.75394">
        <ele>243</ele>
        <time>2020-08-08T06:50:12.000Z</time>
      </trkpt>
      <trkpt lat="43.71301" lon="3.75393">
        <ele>243</ele>
        <time>2020-08-08T06:50:14.000Z</time>
      </trkpt>
      <trkpt lat="43.71299" lon="3.75393">
        <ele>243</ele>
        <time>2020-08-08T06:50:16.000Z</time>
      </trkpt>
      <trkpt lat="43.71296" lon="3.75394">
        <ele>243</ele>
        <time>2020-08-08T06:50:18.000Z</time>
      </trkpt>
      <trkpt lat="43.71293" lon="3.75395">
        <ele>243</ele>
        <time>2020-08-08T06:50:20.000Z</time>
      </trkpt>
      <trkpt lat="43.71291" lon="3.75396">
        <ele>243</ele>
        <time>2020-08-08T06:50:22.000Z</time>
      </trkpt>
      <trkpt lat="43.71289" lon="3.75398">
        <ele>243</ele>
        <time>2020-08-08T06:50:25.000Z</time>
      </trkpt>
      <trkpt lat="43.71289" lon="3.75398">
        <ele>242.96366526152</ele>
        <time>2020-08-08T06:50:30.000Z</time>
      </trkpt>
      <trkpt lat="43.71281" lon="3.75396">
        <ele>242.01579812267</ele>
        <time>2020-08-08T06:50:48.000Z</time>
      </trkpt>
      <trkpt lat="43.7128" lon="3.75395">
        <ele>242</ele>
        <time>2020-08-08T06:50:49.000Z</time>
      </trkpt>
      <trkpt lat="43.71278" lon="3.75395">
        <ele>242</ele>
        <time>2020-08-08T06:50:50.000Z</time>
      </trkpt>
      <trkpt lat="43.71276" lon="3.75393">
        <ele>242</ele>
        <time>2020-08-08T06:50:51.000Z</time>
      </trkpt>
      <trkpt lat="43.71274" lon="3.75392">
        <ele>242</ele>
        <time>2020-08-08T06:50:52.000Z</time>
      </trkpt>
      <trkpt lat="43.71271" lon="3.75391">
        <ele>242</ele>
        <time>2020-08-08T06:50:53.000Z</time>
      </trkpt>
      <trkpt lat="43.71269" lon="3.7539">
        <ele>242</ele>
        <time>2020-08-08T06:50:54.000Z</time>
      </trkpt>
      <trkpt lat="43.71267" lon="3.75389">
        <ele>242</ele>
        <time>2020-08-08T06:50:55.000Z</time>
      </trkpt>
      <trkpt lat="43.71265" lon="3.75389">
        <ele>242</ele>
        <time>2020-08-08T06:50:56.000Z</time>
      </trkpt>
      <trkpt lat="43.71263" lon="3.75388">
        <ele>242</ele>
        <time>2020-08-08T06:50:57.000Z</time>
      </trkpt>
      <trkpt lat="43.7126" lon="3.75388">
        <ele>241.88034988327</ele>
        <time>2020-08-08T06:50:59.000Z</time>
      </trkpt>
      <trkpt lat="43.71257" lon="3.75388">
        <ele>241.68579735409</ele>
        <time>2020-08-08T06:51:01.000Z</time>
      </trkpt>
      <trkpt lat="43.71253" lon="3.75388">
        <ele>241.4912448249</ele>
        <time>2020-08-08T06:51:03.000Z</time>
      </trkpt>
      <trkpt lat="43.71251" lon="3.75388">
        <ele>241.39396856031</ele>
        <time>2020-08-08T06:51:04.000Z</time>
      </trkpt>
      <trkpt lat="43.71249" lon="3.75389">
        <ele>241.19941603113</ele>
        <time>2020-08-08T06:51:06.000Z</time>
      </trkpt>
      <trkpt lat="43.71246" lon="3.7539">
        <ele>241.00486350195</ele>
        <time>2020-08-08T06:51:08.000Z</time>
      </trkpt>
      <trkpt lat="43.71246" lon="3.7539">
        <ele>240.92711456757</ele>
        <time>2020-08-08T06:51:14.000Z</time>
      </trkpt>
      <trkpt lat="43.71242" lon="3.75391">
        <ele>240.05247818307</ele>
        <time>2020-08-08T06:51:20.000Z</time>
      </trkpt>
      <trkpt lat="43.7124" lon="3.75392">
        <ele>239.93297838298</ele>
        <time>2020-08-08T06:51:21.000Z</time>
      </trkpt>
      <trkpt lat="43.71238" lon="3.75392">
        <ele>239.72021242553</ele>
        <time>2020-08-08T06:51:23.000Z</time>
      </trkpt>
      <trkpt lat="43.71236" lon="3.75393">
        <ele>239.50744646808</ele>
        <time>2020-08-08T06:51:25.000Z</time>
      </trkpt>
      <trkpt lat="43.71234" lon="3.75393">
        <ele>239.18829753191</ele>
        <time>2020-08-08T06:51:28.000Z</time>
      </trkpt>
      <trkpt lat="43.71232" lon="3.75394">
        <ele>239</ele>
        <time>2020-08-08T06:51:32.000Z</time>
      </trkpt>
      <trkpt lat="43.71228" lon="3.75395">
        <ele>239.09866395845</ele>
        <time>2020-08-08T06:51:37.000Z</time>
      </trkpt>
      <trkpt lat="43.71225" lon="3.75395">
        <ele>239.30421387189</ele>
        <time>2020-08-08T06:51:39.000Z</time>
      </trkpt>
      <trkpt lat="43.71224" lon="3.75396">
        <ele>239.50976378533</ele>
        <time>2020-08-08T06:51:41.000Z</time>
      </trkpt>
      <trkpt lat="43.71221" lon="3.75396">
        <ele>239.81808865549</ele>
        <time>2020-08-08T06:51:44.000Z</time>
      </trkpt>
      <trkpt lat="43.71219" lon="3.75396">
        <ele>239.97699968</ele>
        <time>2020-08-08T06:51:46.000Z</time>
      </trkpt>
      <trkpt lat="43.71217" lon="3.75396">
        <ele>239.67699968</ele>
        <time>2020-08-08T06:51:49.000Z</time>
      </trkpt>
      <trkpt lat="43.71215" lon="3.75396">
        <ele>239.37699968</ele>
        <time>2020-08-08T06:51:52.000Z</time>
      </trkpt>
      <trkpt lat="43.71211" lon="3.75396">
        <ele>239.17699968</ele>
        <time>2020-08-08T06:51:54.000Z</time>
      </trkpt>
      <trkpt lat="43.71208" lon="3.75396">
        <ele>238.97699968</ele>
        <time>2020-08-08T06:51:56.000Z</time>
      </trkpt>
      <trkpt lat="43.71205" lon="3.75396">
        <ele>238.77699968</ele>
        <time>2020-08-08T06:51:58.000Z</time>
      </trkpt>
      <trkpt lat="43.71202" lon="3.75395">
        <ele>238.57699968</ele>
        <time>2020-08-08T06:52:00.000Z</time>
      </trkpt>
      <trkpt lat="43.712" lon="3.75393">
        <ele>238.07699968</ele>
        <time>2020-08-08T06:52:05.000Z</time>
      </trkpt>
      <trkpt lat="43.71198" lon="3.75391">
        <ele>238</ele>
        <time>2020-08-08T06:52:07.000Z</time>
      </trkpt>
      <trkpt lat="43.71195" lon="3.7539">
        <ele>238</ele>
        <time>2020-08-08T06:52:09.000Z</time>
      </trkpt>
      <trkpt lat="43.71193" lon="3.75388">
        <ele>238</ele>
        <time>2020-08-08T06:52:11.000Z</time>
      </trkpt>
      <trkpt lat="43.71189" lon="3.75387">
        <ele>238</ele>
        <time>2020-08-08T06:52:13.000Z</time>
      </trkpt>
      <trkpt lat="43.71186" lon="3.75385">
        <ele>238</ele>
        <time>2020-08-08T06:52:15.000Z</time>
      </trkpt>
      <trkpt lat="43.71184" lon="3.75383">
        <ele>238</ele>
        <time>2020-08-08T06:52:17.000Z</time>
      </trkpt>
      <trkpt lat="43.71182" lon="3.7538">
        <ele>238</ele>
        <time>2020-08-08T06:52:19.000Z</time>
      </trkpt>
      <trkpt lat="43.71181" lon="3.75379">
        <ele>238</ele>
        <time>2020-08-08T06:52:21.000Z</time>
      </trkpt>
      <trkpt lat="43.71178" lon="3.75376">
        <ele>238</ele>
        <time>2020-08-08T06:52:23.000Z</time>
      </trkpt>
      <trkpt lat="43.71176" lon="3.75375">
        <ele>238</ele>
        <time>2020-08-08T06:52:24.000Z</time>
      </trkpt>
      <trkpt lat="43.71174" lon="3.75374">
        <ele>238</ele>
        <time>2020-08-08T06:52:25.000Z</time>
      </trkpt>
      <trkpt lat="43.71172" lon="3.75372">
        <ele>238</ele>
        <time>2020-08-08T06:52:26.000Z</time>
      </trkpt>
      <trkpt lat="43.7117" lon="3.75372">
        <ele>238</ele>
        <time>2020-08-08T06:52:27.000Z</time>
      </trkpt>
      <trkpt lat="43.71168" lon="3.75371">
        <ele>238</ele>
        <time>2020-08-08T06:52:28.000Z</time>
      </trkpt>
      <trkpt lat="43.71165" lon="3.7537">
        <ele>238</ele>
        <time>2020-08-08T06:52:30.000Z</time>
      </trkpt>
      <trkpt lat="43.71162" lon="3.75369">
        <ele>238</ele>
        <time>2020-08-08T06:52:32.000Z</time>
      </trkpt>
      <trkpt lat="43.7116" lon="3.75368">
        <ele>238</ele>
        <time>2020-08-08T06:52:33.000Z</time>
      </trkpt>
      <trkpt lat="43.71158" lon="3.75368">
        <ele>238</ele>
        <time>2020-08-08T06:52:34.000Z</time>
      </trkpt>
      <trkpt lat="43.71156" lon="3.75367">
        <ele>238</ele>
        <time>2020-08-08T06:52:35.000Z</time>
      </trkpt>
      <trkpt lat="43.71153" lon="3.75367">
        <ele>237.97699968</ele>
        <time>2020-08-08T06:52:36.000Z</time>
      </trkpt>
      <trkpt lat="43.7115" lon="3.75366">
        <ele>237.87699968</ele>
        <time>2020-08-08T06:52:37.000Z</time>
      </trkpt>
      <trkpt lat="43.71148" lon="3.75365">
        <ele>237.77699968</ele>
        <time>2020-08-08T06:52:38.000Z</time>
      </trkpt>
      <trkpt lat="43.71145" lon="3.75365">
        <ele>237.67699968</ele>
        <time>2020-08-08T06:52:39.000Z</time>
      </trkpt>
      <trkpt lat="43.71143" lon="3.75364">
        <ele>237.57699968</ele>
        <time>2020-08-08T06:52:40.000Z</time>
      </trkpt>
      <trkpt lat="43.7114" lon="3.75364">
        <ele>237.47699968</ele>
        <time>2020-08-08T06:52:41.000Z</time>
      </trkpt>
      <trkpt lat="43.71138" lon="3.75364">
        <ele>237.37699968</ele>
        <time>2020-08-08T06:52:42.000Z</time>
      </trkpt>
      <trkpt lat="43.71136" lon="3.75363">
        <ele>237.27699968</ele>
        <time>2020-08-08T06:52:43.000Z</time>
      </trkpt>
      <trkpt lat="43.71133" lon="3.75363">
        <ele>237.17699968</ele>
        <time>2020-08-08T06:52:44.000Z</time>
      </trkpt>
      <trkpt lat="43.71132" lon="3.75362">
        <ele>237.07699968</ele>
        <time>2020-08-08T06:52:45.000Z</time>
      </trkpt>
      <trkpt lat="43.71129" lon="3.75361">
        <ele>236.97699968</ele>
        <time>2020-08-08T06:52:46.000Z</time>
      </trkpt>
      <trkpt lat="43.71127" lon="3.7536">
        <ele>236.87699968</ele>
        <time>2020-08-08T06:52:47.000Z</time>
      </trkpt>
      <trkpt lat="43.71125" lon="3.75359">
        <ele>236.77699968</ele>
        <time>2020-08-08T06:52:48.000Z</time>
      </trkpt>
      <trkpt lat="43.71122" lon="3.75358">
        <ele>236.67699968</ele>
        <time>2020-08-08T06:52:49.000Z</time>
      </trkpt>
      <trkpt lat="43.7112" lon="3.75357">
        <ele>236.57699968</ele>
        <time>2020-08-08T06:52:50.000Z</time>
      </trkpt>
      <trkpt lat="43.71118" lon="3.75356">
        <ele>236.47699968</ele>
        <time>2020-08-08T06:52:51.000Z</time>
      </trkpt>
      <trkpt lat="43.71115" lon="3.75355">
        <ele>236.37699968</ele>
        <time>2020-08-08T06:52:52.000Z</time>
      </trkpt>
      <trkpt lat="43.71112" lon="3.75355">
        <ele>236.27699968</ele>
        <time>2020-08-08T06:52:53.000Z</time>
      </trkpt>
      <trkpt lat="43.7111" lon="3.75354">
        <ele>236.17699968</ele>
        <time>2020-08-08T06:52:54.000Z</time>
      </trkpt>
      <trkpt lat="43.71107" lon="3.75354">
        <ele>236.07699968</ele>
        <time>2020-08-08T06:52:55.000Z</time>
      </trkpt>
      <trkpt lat="43.71105" lon="3.75354">
        <ele>236</ele>
        <time>2020-08-08T06:52:56.000Z</time>
      </trkpt>
      <trkpt lat="43.71102" lon="3.75354">
        <ele>236</ele>
        <time>2020-08-08T06:53:00.000Z</time>
      </trkpt>
      <trkpt lat="43.71101" lon="3.75351">
        <ele>236</ele>
        <time>2020-08-08T06:53:02.000Z</time>
      </trkpt>
      <trkpt lat="43.711" lon="3.75347">
        <ele>236</ele>
        <time>2020-08-08T06:53:04.000Z</time>
      </trkpt>
      <trkpt lat="43.71098" lon="3.75344">
        <ele>236</ele>
        <time>2020-08-08T06:53:06.000Z</time>
      </trkpt>
      <trkpt lat="43.71095" lon="3.75341">
        <ele>235.80577657371</ele>
        <time>2020-08-08T06:53:08.000Z</time>
      </trkpt>
      <trkpt lat="43.71093" lon="3.7534">
        <ele>235.70617498008</ele>
        <time>2020-08-08T06:53:09.000Z</time>
      </trkpt>
      <trkpt lat="43.7109" lon="3.75337">
        <ele>235.50697179283</ele>
        <time>2020-08-08T06:53:11.000Z</time>
      </trkpt>
      <trkpt lat="43.71088" lon="3.75335">
        <ele>235.4073701992</ele>
        <time>2020-08-08T06:53:12.000Z</time>
      </trkpt>
      <trkpt lat="43.71086" lon="3.75332">
        <ele>235.20816701195</ele>
        <time>2020-08-08T06:53:14.000Z</time>
      </trkpt>
      <trkpt lat="43.71084" lon="3.75331">
        <ele>234.90599140496</ele>
        <time>2020-08-08T06:53:17.000Z</time>
      </trkpt>
      <trkpt lat="43.71082" lon="3.75331">
        <ele>234.59607404959</ele>
        <time>2020-08-08T06:53:20.000Z</time>
      </trkpt>
      <trkpt lat="43.7108" lon="3.7533">
        <ele>234.38946247934</ele>
        <time>2020-08-08T06:53:22.000Z</time>
      </trkpt>
      <trkpt lat="43.71078" lon="3.75328">
        <ele>234.18285090909</ele>
        <time>2020-08-08T06:53:24.000Z</time>
      </trkpt>
      <trkpt lat="43.71076" lon="3.75327">
        <ele>233.54220744589</ele>
        <time>2020-08-08T06:53:30.000Z</time>
      </trkpt>
      <trkpt lat="43.71075" lon="3.75327">
        <ele>233.00108190476</ele>
        <time>2020-08-08T06:53:35.000Z</time>
      </trkpt>
      <trkpt lat="43.71068" lon="3.75323">
        <ele>233.92827004219</ele>
        <time>2020-08-08T06:53:43.000Z</time>
      </trkpt>
      <trkpt lat="43.71066" lon="3.75322">
        <ele>233.50632911392</ele>
        <time>2020-08-08T06:53:47.000Z</time>
      </trkpt>
      <trkpt lat="43.71064" lon="3.75321">
        <ele>233.18987341772</ele>
        <time>2020-08-08T06:53:50.000Z</time>
      </trkpt>
      <trkpt lat="43.71062" lon="3.7532">
        <ele>233.11707320728</ele>
        <time>2020-08-08T06:53:53.000Z</time>
      </trkpt>
      <trkpt lat="43.7106" lon="3.75318">
        <ele>233.40975622549</ele>
        <time>2020-08-08T06:53:56.000Z</time>
      </trkpt>
      <trkpt lat="43.71057" lon="3.75317">
        <ele>233.70243924369</ele>
        <time>2020-08-08T06:53:59.000Z</time>
      </trkpt>
      <trkpt lat="43.71055" lon="3.75315">
        <ele>233.99512226189</ele>
        <time>2020-08-08T06:54:02.000Z</time>
      </trkpt>
      <trkpt lat="43.71053" lon="3.75312">
        <ele>233.69650172839</ele>
        <time>2020-08-08T06:54:05.000Z</time>
      </trkpt>
      <trkpt lat="43.71051" lon="3.75311">
        <ele>233.49074041152</ele>
        <time>2020-08-08T06:54:07.000Z</time>
      </trkpt>
      <trkpt lat="43.7105" lon="3.7531">
        <ele>233.28497909465</ele>
        <time>2020-08-08T06:54:09.000Z</time>
      </trkpt>
      <trkpt lat="43.71048" lon="3.75309">
        <ele>233.07921777778</ele>
        <time>2020-08-08T06:54:11.000Z</time>
      </trkpt>
      <trkpt lat="43.71046" lon="3.75308">
        <ele>232.87748972112</ele>
        <time>2020-08-08T06:54:13.000Z</time>
      </trkpt>
      <trkpt lat="43.71044" lon="3.75306">
        <ele>232.67828653386</ele>
        <time>2020-08-08T06:54:15.000Z</time>
      </trkpt>
      <trkpt lat="43.71043" lon="3.75304">
        <ele>232.47908334661</ele>
        <time>2020-08-08T06:54:17.000Z</time>
      </trkpt>
      <trkpt lat="43.71042" lon="3.75302">
        <ele>232.18027856574</ele>
        <time>2020-08-08T06:54:20.000Z</time>
      </trkpt>
      <trkpt lat="43.71039" lon="3.753">
        <ele>232</ele>
        <time>2020-08-08T06:54:26.000Z</time>
      </trkpt>
      <trkpt lat="43.71036" lon="3.75295">
        <ele>232</ele>
        <time>2020-08-08T06:54:29.000Z</time>
      </trkpt>
      <trkpt lat="43.71035" lon="3.75294">
        <ele>232</ele>
        <time>2020-08-08T06:54:30.000Z</time>
      </trkpt>
      <trkpt lat="43.71033" lon="3.75292">
        <ele>232</ele>
        <time>2020-08-08T06:54:32.000Z</time>
      </trkpt>
      <trkpt lat="43.71032" lon="3.7529">
        <ele>232</ele>
        <time>2020-08-08T06:54:37.000Z</time>
      </trkpt>
      <trkpt lat="43.71029" lon="3.75287">
        <ele>231.88378875</ele>
        <time>2020-08-08T06:54:39.000Z</time>
      </trkpt>
      <trkpt lat="43.71027" lon="3.75285">
        <ele>231.7861325</ele>
        <time>2020-08-08T06:54:40.000Z</time>
      </trkpt>
      <trkpt lat="43.71025" lon="3.75283">
        <ele>231.68847625</ele>
        <time>2020-08-08T06:54:41.000Z</time>
      </trkpt>
      <trkpt lat="43.71024" lon="3.75281">
        <ele>231.59082</ele>
        <time>2020-08-08T06:54:42.000Z</time>
      </trkpt>
      <trkpt lat="43.71023" lon="3.75279">
        <ele>231.49316375</ele>
        <time>2020-08-08T06:54:43.000Z</time>
      </trkpt>
      <trkpt lat="43.71022" lon="3.75277">
        <ele>231.3955075</ele>
        <time>2020-08-08T06:54:44.000Z</time>
      </trkpt>
      <trkpt lat="43.7102" lon="3.75275">
        <ele>231.29785125</ele>
        <time>2020-08-08T06:54:45.000Z</time>
      </trkpt>
      <trkpt lat="43.71019" lon="3.75273">
        <ele>231.200195</ele>
        <time>2020-08-08T06:54:46.000Z</time>
      </trkpt>
      <trkpt lat="43.71017" lon="3.75271">
        <ele>231.10253875</ele>
        <time>2020-08-08T06:54:47.000Z</time>
      </trkpt>
      <trkpt lat="43.71016" lon="3.75269">
        <ele>231.0048825</ele>
        <time>2020-08-08T06:54:48.000Z</time>
      </trkpt>
      <trkpt lat="43.71014" lon="3.75267">
        <ele>230.90226304527</ele>
        <time>2020-08-08T06:54:49.000Z</time>
      </trkpt>
      <trkpt lat="43.71012" lon="3.75265">
        <ele>230.79938238683</ele>
        <time>2020-08-08T06:54:50.000Z</time>
      </trkpt>
      <trkpt lat="43.7101" lon="3.75264">
        <ele>230.69650172839</ele>
        <time>2020-08-08T06:54:51.000Z</time>
      </trkpt>
      <trkpt lat="43.71007" lon="3.75262">
        <ele>230.59362106996</ele>
        <time>2020-08-08T06:54:52.000Z</time>
      </trkpt>
      <trkpt lat="43.71006" lon="3.7526">
        <ele>230.49074041152</ele>
        <time>2020-08-08T06:54:53.000Z</time>
      </trkpt>
      <trkpt lat="43.71004" lon="3.75258">
        <ele>230.38785975309</ele>
        <time>2020-08-08T06:54:54.000Z</time>
      </trkpt>
      <trkpt lat="43.71002" lon="3.75256">
        <ele>230.28497909465</ele>
        <time>2020-08-08T06:54:55.000Z</time>
      </trkpt>
      <trkpt lat="43.71" lon="3.75254">
        <ele>230.18209843621</ele>
        <time>2020-08-08T06:54:56.000Z</time>
      </trkpt>
      <trkpt lat="43.70999" lon="3.75253">
        <ele>230.07921777778</ele>
        <time>2020-08-08T06:54:57.000Z</time>
      </trkpt>
      <trkpt lat="43.70997" lon="3.75251">
        <ele>229.97709131474</ele>
        <time>2020-08-08T06:54:58.000Z</time>
      </trkpt>
      <trkpt lat="43.70995" lon="3.75249">
        <ele>229.87748972112</ele>
        <time>2020-08-08T06:54:59.000Z</time>
      </trkpt>
      <trkpt lat="43.70994" lon="3.75246">
        <ele>229.77788812749</ele>
        <time>2020-08-08T06:55:00.000Z</time>
      </trkpt>
      <trkpt lat="43.70993" lon="3.75244">
        <ele>229.67828653386</ele>
        <time>2020-08-08T06:55:01.000Z</time>
      </trkpt>
      <trkpt lat="43.70991" lon="3.7524">
        <ele>229.47908334661</ele>
        <time>2020-08-08T06:55:03.000Z</time>
      </trkpt>
      <trkpt lat="43.70989" lon="3.75238">
        <ele>229.37948175299</ele>
        <time>2020-08-08T06:55:04.000Z</time>
      </trkpt>
      <trkpt lat="43.70987" lon="3.75235">
        <ele>229.27988015936</ele>
        <time>2020-08-08T06:55:05.000Z</time>
      </trkpt>
      <trkpt lat="43.70986" lon="3.75232">
        <ele>229.18027856574</ele>
        <time>2020-08-08T06:55:06.000Z</time>
      </trkpt>
      <trkpt lat="43.70985" lon="3.75229">
        <ele>229.08067697211</ele>
        <time>2020-08-08T06:55:07.000Z</time>
      </trkpt>
      <trkpt lat="43.70983" lon="3.75226">
        <ele>228.98092337349</ele>
        <time>2020-08-08T06:55:08.000Z</time>
      </trkpt>
      <trkpt lat="43.70982" lon="3.75223">
        <ele>228.88052176707</ele>
        <time>2020-08-08T06:55:09.000Z</time>
      </trkpt>
      <trkpt lat="43.70981" lon="3.75221">
        <ele>228.78012016064</ele>
        <time>2020-08-08T06:55:10.000Z</time>
      </trkpt>
      <trkpt lat="43.7098" lon="3.75218">
        <ele>228.67971855422</ele>
        <time>2020-08-08T06:55:11.000Z</time>
      </trkpt>
      <trkpt lat="43.70979" lon="3.75216">
        <ele>228.57931694779</ele>
        <time>2020-08-08T06:55:12.000Z</time>
      </trkpt>
      <trkpt lat="43.70977" lon="3.75213">
        <ele>228.47891534136</ele>
        <time>2020-08-08T06:55:13.000Z</time>
      </trkpt>
      <trkpt lat="43.70976" lon="3.75211">
        <ele>228.37851373494</ele>
        <time>2020-08-08T06:55:14.000Z</time>
      </trkpt>
      <trkpt lat="43.70974" lon="3.75208">
        <ele>228.27811212851</ele>
        <time>2020-08-08T06:55:15.000Z</time>
      </trkpt>
      <trkpt lat="43.70972" lon="3.75205">
        <ele>228.17771052209</ele>
        <time>2020-08-08T06:55:16.000Z</time>
      </trkpt>
      <trkpt lat="43.7097" lon="3.75203">
        <ele>228.07730891566</ele>
        <time>2020-08-08T06:55:17.000Z</time>
      </trkpt>
      <trkpt lat="43.70968" lon="3.752">
        <ele>228</ele>
        <time>2020-08-08T06:55:18.000Z</time>
      </trkpt>
      <trkpt lat="43.70966" lon="3.75197">
        <ele>228</ele>
        <time>2020-08-08T06:55:19.000Z</time>
      </trkpt>
      <trkpt lat="43.70965" lon="3.75195">
        <ele>228</ele>
        <time>2020-08-08T06:55:20.000Z</time>
      </trkpt>
      <trkpt lat="43.70963" lon="3.75192">
        <ele>228</ele>
        <time>2020-08-08T06:55:21.000Z</time>
      </trkpt>
      <trkpt lat="43.70962" lon="3.7519">
        <ele>228</ele>
        <time>2020-08-08T06:55:22.000Z</time>
      </trkpt>
      <trkpt lat="43.70961" lon="3.75189">
        <ele>227.97264181132</ele>
        <time>2020-08-08T06:55:28.000Z</time>
      </trkpt>
      <trkpt lat="43.70956" lon="3.75191">
        <ele>227.02924558491</ele>
        <time>2020-08-08T06:55:38.000Z</time>
      </trkpt>
      <trkpt lat="43.70955" lon="3.75192">
        <ele>227</ele>
        <time>2020-08-08T06:55:39.000Z</time>
      </trkpt>
      <trkpt lat="43.70951" lon="3.75193">
        <ele>227</ele>
        <time>2020-08-08T06:55:41.000Z</time>
      </trkpt>
      <trkpt lat="43.70949" lon="3.75191">
        <ele>227</ele>
        <time>2020-08-08T06:55:43.000Z</time>
      </trkpt>
      <trkpt lat="43.70948" lon="3.75186">
        <ele>227</ele>
        <time>2020-08-08T06:55:45.000Z</time>
      </trkpt>
      <trkpt lat="43.70949" lon="3.75183">
        <ele>227</ele>
        <time>2020-08-08T06:55:46.000Z</time>
      </trkpt>
      <trkpt lat="43.70949" lon="3.7518">
        <ele>227</ele>
        <time>2020-08-08T06:55:47.000Z</time>
      </trkpt>
      <trkpt lat="43.7095" lon="3.75176">
        <ele>226.97762614786</ele>
        <time>2020-08-08T06:55:48.000Z</time>
      </trkpt>
      <trkpt lat="43.7095" lon="3.75173">
        <ele>226.88034988327</ele>
        <time>2020-08-08T06:55:49.000Z</time>
      </trkpt>
      <trkpt lat="43.7095" lon="3.75169">
        <ele>226.78307361868</ele>
        <time>2020-08-08T06:55:50.000Z</time>
      </trkpt>
      <trkpt lat="43.7095" lon="3.75165">
        <ele>226.68579735409</ele>
        <time>2020-08-08T06:55:51.000Z</time>
      </trkpt>
      <trkpt lat="43.70949" lon="3.75162">
        <ele>226.58852108949</ele>
        <time>2020-08-08T06:55:52.000Z</time>
      </trkpt>
      <trkpt lat="43.70948" lon="3.75158">
        <ele>226.4912448249</ele>
        <time>2020-08-08T06:55:53.000Z</time>
      </trkpt>
      <trkpt lat="43.70947" lon="3.75154">
        <ele>226.39396856031</ele>
        <time>2020-08-08T06:55:54.000Z</time>
      </trkpt>
      <trkpt lat="43.70946" lon="3.75151">
        <ele>226.29669229572</ele>
        <time>2020-08-08T06:55:55.000Z</time>
      </trkpt>
      <trkpt lat="43.70944" lon="3.75148">
        <ele>226.19941603113</ele>
        <time>2020-08-08T06:55:56.000Z</time>
      </trkpt>
      <trkpt lat="43.70942" lon="3.75145">
        <ele>226.10213976654</ele>
        <time>2020-08-08T06:55:57.000Z</time>
      </trkpt>
      <trkpt lat="43.7094" lon="3.75142">
        <ele>226.00486350195</ele>
        <time>2020-08-08T06:55:58.000Z</time>
      </trkpt>
      <trkpt lat="43.70938" lon="3.75139">
        <ele>226</ele>
        <time>2020-08-08T06:55:59.000Z</time>
      </trkpt>
      <trkpt lat="43.70936" lon="3.75137">
        <ele>226</ele>
        <time>2020-08-08T06:56:00.000Z</time>
      </trkpt>
      <trkpt lat="43.70934" lon="3.75134">
        <ele>226</ele>
        <time>2020-08-08T06:56:01.000Z</time>
      </trkpt>
      <trkpt lat="43.70932" lon="3.75132">
        <ele>226</ele>
        <time>2020-08-08T06:56:02.000Z</time>
      </trkpt>
      <trkpt lat="43.7093" lon="3.7513">
        <ele>226</ele>
        <time>2020-08-08T06:56:03.000Z</time>
      </trkpt>
      <trkpt lat="43.70928" lon="3.75128">
        <ele>226</ele>
        <time>2020-08-08T06:56:04.000Z</time>
      </trkpt>
      <trkpt lat="43.70926" lon="3.75126">
        <ele>226</ele>
        <time>2020-08-08T06:56:05.000Z</time>
      </trkpt>
      <trkpt lat="43.70924" lon="3.75125">
        <ele>226</ele>
        <time>2020-08-08T06:56:06.000Z</time>
      </trkpt>
      <trkpt lat="43.70921" lon="3.75123">
        <ele>226</ele>
        <time>2020-08-08T06:56:07.000Z</time>
      </trkpt>
      <trkpt lat="43.70919" lon="3.75122">
        <ele>226</ele>
        <time>2020-08-08T06:56:08.000Z</time>
      </trkpt>
      <trkpt lat="43.70918" lon="3.75121">
        <ele>226</ele>
        <time>2020-08-08T06:56:13.000Z</time>
      </trkpt>
      <trkpt lat="43.70918" lon="3.75121">
        <ele>226</ele>
        <time>2020-08-08T06:56:16.000Z</time>
      </trkpt>
      <trkpt lat="43.70907" lon="3.75115">
        <ele>226</ele>
        <time>2020-08-08T06:56:31.000Z</time>
      </trkpt>
      <trkpt lat="43.70905" lon="3.75113">
        <ele>226</ele>
        <time>2020-08-08T06:56:32.000Z</time>
      </trkpt>
      <trkpt lat="43.70902" lon="3.75112">
        <ele>226</ele>
        <time>2020-08-08T06:56:33.000Z</time>
      </trkpt>
      <trkpt lat="43.709" lon="3.7511">
        <ele>226</ele>
        <time>2020-08-08T06:56:34.000Z</time>
      </trkpt>
      <trkpt lat="43.70897" lon="3.75108">
        <ele>226</ele>
        <time>2020-08-08T06:56:35.000Z</time>
      </trkpt>
      <trkpt lat="43.70895" lon="3.75105">
        <ele>226</ele>
        <time>2020-08-08T06:56:36.000Z</time>
      </trkpt>
      <trkpt lat="43.70893" lon="3.75102">
        <ele>226</ele>
        <time>2020-08-08T06:56:37.000Z</time>
      </trkpt>
      <trkpt lat="43.70891" lon="3.75099">
        <ele>226</ele>
        <time>2020-08-08T06:56:38.000Z</time>
      </trkpt>
      <trkpt lat="43.70889" lon="3.75096">
        <ele>226</ele>
        <time>2020-08-08T06:56:39.000Z</time>
      </trkpt>
      <trkpt lat="43.70887" lon="3.75093">
        <ele>226</ele>
        <time>2020-08-08T06:56:40.000Z</time>
      </trkpt>
      <trkpt lat="43.70885" lon="3.7509">
        <ele>226</ele>
        <time>2020-08-08T06:56:41.000Z</time>
      </trkpt>
      <trkpt lat="43.70884" lon="3.75087">
        <ele>226</ele>
        <time>2020-08-08T06:56:42.000Z</time>
      </trkpt>
      <trkpt lat="43.70882" lon="3.75084">
        <ele>226</ele>
        <time>2020-08-08T06:56:43.000Z</time>
      </trkpt>
      <trkpt lat="43.70881" lon="3.75081">
        <ele>226</ele>
        <time>2020-08-08T06:56:44.000Z</time>
      </trkpt>
      <trkpt lat="43.70879" lon="3.75078">
        <ele>226</ele>
        <time>2020-08-08T06:56:45.000Z</time>
      </trkpt>
      <trkpt lat="43.70878" lon="3.75076">
        <ele>226</ele>
        <time>2020-08-08T06:56:46.000Z</time>
      </trkpt>
      <trkpt lat="43.70877" lon="3.75074">
        <ele>226.06249951219</ele>
        <time>2020-08-08T06:56:52.000Z</time>
      </trkpt>
      <trkpt lat="43.70873" lon="3.75071">
        <ele>226.97713365854</ele>
        <time>2020-08-08T06:57:04.000Z</time>
      </trkpt>
      <trkpt lat="43.70872" lon="3.75069">
        <ele>226.85412319941</ele>
        <time>2020-08-08T06:57:05.000Z</time>
      </trkpt>
      <trkpt lat="43.7087" lon="3.75066">
        <ele>226.64270656589</ele>
        <time>2020-08-08T06:57:06.000Z</time>
      </trkpt>
      <trkpt lat="43.70869" lon="3.75063">
        <ele>226.43128993237</ele>
        <time>2020-08-08T06:57:07.000Z</time>
      </trkpt>
      <trkpt lat="43.70867" lon="3.7506">
        <ele>226.21987329886</ele>
        <time>2020-08-08T06:57:08.000Z</time>
      </trkpt>
      <trkpt lat="43.70865" lon="3.75057">
        <ele>226.00845666534</ele>
        <time>2020-08-08T06:57:09.000Z</time>
      </trkpt>
      <trkpt lat="43.70863" lon="3.75054">
        <ele>225.79704003182</ele>
        <time>2020-08-08T06:57:10.000Z</time>
      </trkpt>
      <trkpt lat="43.70862" lon="3.7505">
        <ele>225.58562339831</ele>
        <time>2020-08-08T06:57:11.000Z</time>
      </trkpt>
      <trkpt lat="43.70861" lon="3.75045">
        <ele>225.37420676479</ele>
        <time>2020-08-08T06:57:12.000Z</time>
      </trkpt>
      <trkpt lat="43.70859" lon="3.75041">
        <ele>225.16279013127</ele>
        <time>2020-08-08T06:57:13.000Z</time>
      </trkpt>
      <trkpt lat="43.70858" lon="3.75037">
        <ele>224.97764791201</ele>
        <time>2020-08-08T06:57:14.000Z</time>
      </trkpt>
      <trkpt lat="43.70857" lon="3.75032">
        <ele>224.88046627284</ele>
        <time>2020-08-08T06:57:15.000Z</time>
      </trkpt>
      <trkpt lat="43.70855" lon="3.75028">
        <ele>224.78328463367</ele>
        <time>2020-08-08T06:57:16.000Z</time>
      </trkpt>
      <trkpt lat="43.70854" lon="3.75025">
        <ele>224.6861029945</ele>
        <time>2020-08-08T06:57:17.000Z</time>
      </trkpt>
      <trkpt lat="43.70852" lon="3.75021">
        <ele>224.58892135533</ele>
        <time>2020-08-08T06:57:18.000Z</time>
      </trkpt>
      <trkpt lat="43.7085" lon="3.75018">
        <ele>224.49173971616</ele>
        <time>2020-08-08T06:57:19.000Z</time>
      </trkpt>
      <trkpt lat="43.70848" lon="3.75014">
        <ele>224.39455807699</ele>
        <time>2020-08-08T06:57:20.000Z</time>
      </trkpt>
      <trkpt lat="43.70846" lon="3.75011">
        <ele>224.29737643782</ele>
        <time>2020-08-08T06:57:21.000Z</time>
      </trkpt>
      <trkpt lat="43.70844" lon="3.75007">
        <ele>224.20019479865</ele>
        <time>2020-08-08T06:57:22.000Z</time>
      </trkpt>
      <trkpt lat="43.70842" lon="3.75003">
        <ele>224.10301315948</ele>
        <time>2020-08-08T06:57:23.000Z</time>
      </trkpt>
      <trkpt lat="43.70841" lon="3.74999">
        <ele>224.00583152031</ele>
        <time>2020-08-08T06:57:24.000Z</time>
      </trkpt>
      <trkpt lat="43.7084" lon="3.74995">
        <ele>223.90319314837</ele>
        <time>2020-08-08T06:57:25.000Z</time>
      </trkpt>
      <trkpt lat="43.70839" lon="3.74991">
        <ele>223.80020643481</ele>
        <time>2020-08-08T06:57:26.000Z</time>
      </trkpt>
      <trkpt lat="43.70838" lon="3.74986">
        <ele>223.69721972125</ele>
        <time>2020-08-08T06:57:27.000Z</time>
      </trkpt>
      <trkpt lat="43.70838" lon="3.74982">
        <ele>223.59423300769</ele>
        <time>2020-08-08T06:57:28.000Z</time>
      </trkpt>
      <trkpt lat="43.70838" lon="3.74978">
        <ele>223.49124629413</ele>
        <time>2020-08-08T06:57:29.000Z</time>
      </trkpt>
      <trkpt lat="43.70838" lon="3.74974">
        <ele>223.38825958057</ele>
        <time>2020-08-08T06:57:30.000Z</time>
      </trkpt>
      <trkpt lat="43.70838" lon="3.7497">
        <ele>223.28527286701</ele>
        <time>2020-08-08T06:57:31.000Z</time>
      </trkpt>
      <trkpt lat="43.70837" lon="3.74966">
        <ele>223.18228615345</ele>
        <time>2020-08-08T06:57:32.000Z</time>
      </trkpt>
      <trkpt lat="43.70837" lon="3.74962">
        <ele>223.07929943988</ele>
        <time>2020-08-08T06:57:33.000Z</time>
      </trkpt>
      <trkpt lat="43.70836" lon="3.74959">
        <ele>223</ele>
        <time>2020-08-08T06:57:34.000Z</time>
      </trkpt>
      <trkpt lat="43.70835" lon="3.74955">
        <ele>223</ele>
        <time>2020-08-08T06:57:35.000Z</time>
      </trkpt>
      <trkpt lat="43.70834" lon="3.74951">
        <ele>223</ele>
        <time>2020-08-08T06:57:36.000Z</time>
      </trkpt>
      <trkpt lat="43.70833" lon="3.74947">
        <ele>223</ele>
        <time>2020-08-08T06:57:37.000Z</time>
      </trkpt>
      <trkpt lat="43.70833" lon="3.74944">
        <ele>223</ele>
        <time>2020-08-08T06:57:38.000Z</time>
      </trkpt>
      <trkpt lat="43.70832" lon="3.74941">
        <ele>223</ele>
        <time>2020-08-08T06:57:39.000Z</time>
      </trkpt>
      <trkpt lat="43.70831" lon="3.74937">
        <ele>223</ele>
        <time>2020-08-08T06:57:40.000Z</time>
      </trkpt>
      <trkpt lat="43.70831" lon="3.74932">
        <ele>223</ele>
        <time>2020-08-08T06:57:41.000Z</time>
      </trkpt>
      <trkpt lat="43.70831" lon="3.74928">
        <ele>223</ele>
        <time>2020-08-08T06:57:42.000Z</time>
      </trkpt>
      <trkpt lat="43.70831" lon="3.74924">
        <ele>223</ele>
        <time>2020-08-08T06:57:43.000Z</time>
      </trkpt>
      <trkpt lat="43.7083" lon="3.74919">
        <ele>223</ele>
        <time>2020-08-08T06:57:44.000Z</time>
      </trkpt>
      <trkpt lat="43.7083" lon="3.74915">
        <ele>222.90226304527</ele>
        <time>2020-08-08T06:57:45.000Z</time>
      </trkpt>
      <trkpt lat="43.7083" lon="3.74911">
        <ele>222.79938238683</ele>
        <time>2020-08-08T06:57:46.000Z</time>
      </trkpt>
      <trkpt lat="43.7083" lon="3.74908">
        <ele>222.69650172839</ele>
        <time>2020-08-08T06:57:47.000Z</time>
      </trkpt>
      <trkpt lat="43.7083" lon="3.74904">
        <ele>222.59362106996</ele>
        <time>2020-08-08T06:57:48.000Z</time>
      </trkpt>
      <trkpt lat="43.7083" lon="3.749">
        <ele>222.49074041152</ele>
        <time>2020-08-08T06:57:49.000Z</time>
      </trkpt>
      <trkpt lat="43.70829" lon="3.74895">
        <ele>222.38785975309</ele>
        <time>2020-08-08T06:57:50.000Z</time>
      </trkpt>
      <trkpt lat="43.70829" lon="3.74891">
        <ele>222.28497909465</ele>
        <time>2020-08-08T06:57:51.000Z</time>
      </trkpt>
      <trkpt lat="43.70828" lon="3.74887">
        <ele>222.18209843621</ele>
        <time>2020-08-08T06:57:52.000Z</time>
      </trkpt>
      <trkpt lat="43.70828" lon="3.74884">
        <ele>222.07921777778</ele>
        <time>2020-08-08T06:57:53.000Z</time>
      </trkpt>
      <trkpt lat="43.70828" lon="3.7488">
        <ele>221.97713687339</ele>
        <time>2020-08-08T06:57:54.000Z</time>
      </trkpt>
      <trkpt lat="43.70829" lon="3.74876">
        <ele>221.8777333581</ele>
        <time>2020-08-08T06:57:55.000Z</time>
      </trkpt>
      <trkpt lat="43.70829" lon="3.74872">
        <ele>221.77832984281</ele>
        <time>2020-08-08T06:57:56.000Z</time>
      </trkpt>
      <trkpt lat="43.7083" lon="3.74867">
        <ele>221.67892632752</ele>
        <time>2020-08-08T06:57:57.000Z</time>
      </trkpt>
      <trkpt lat="43.70831" lon="3.74862">
        <ele>221.57952281223</ele>
        <time>2020-08-08T06:57:58.000Z</time>
      </trkpt>
      <trkpt lat="43.70831" lon="3.74857">
        <ele>221.48011929694</ele>
        <time>2020-08-08T06:57:59.000Z</time>
      </trkpt>
      <trkpt lat="43.70832" lon="3.74853">
        <ele>221.38071578165</ele>
        <time>2020-08-08T06:58:00.000Z</time>
      </trkpt>
      <trkpt lat="43.70832" lon="3.74849">
        <ele>221.28131226636</ele>
        <time>2020-08-08T06:58:01.000Z</time>
      </trkpt>
      <trkpt lat="43.70832" lon="3.74844">
        <ele>221.18190875107</ele>
        <time>2020-08-08T06:58:02.000Z</time>
      </trkpt>
      <trkpt lat="43.70833" lon="3.7484">
        <ele>221.08250523578</ele>
        <time>2020-08-08T06:58:03.000Z</time>
      </trkpt>
      <trkpt lat="43.70833" lon="3.74836">
        <ele>221</ele>
        <time>2020-08-08T06:58:04.000Z</time>
      </trkpt>
      <trkpt lat="43.70834" lon="3.74832">
        <ele>221</ele>
        <time>2020-08-08T06:58:05.000Z</time>
      </trkpt>
      <trkpt lat="43.70834" lon="3.74828">
        <ele>221</ele>
        <time>2020-08-08T06:58:06.000Z</time>
      </trkpt>
      <trkpt lat="43.70835" lon="3.74825">
        <ele>221</ele>
        <time>2020-08-08T06:58:07.000Z</time>
      </trkpt>
      <trkpt lat="43.70836" lon="3.74821">
        <ele>221</ele>
        <time>2020-08-08T06:58:08.000Z</time>
      </trkpt>
      <trkpt lat="43.70836" lon="3.74817">
        <ele>221</ele>
        <time>2020-08-08T06:58:09.000Z</time>
      </trkpt>
      <trkpt lat="43.70837" lon="3.74813">
        <ele>221</ele>
        <time>2020-08-08T06:58:10.000Z</time>
      </trkpt>
      <trkpt lat="43.70837" lon="3.7481">
        <ele>221</ele>
        <time>2020-08-08T06:58:11.000Z</time>
      </trkpt>
      <trkpt lat="43.70837" lon="3.74806">
        <ele>221</ele>
        <time>2020-08-08T06:58:13.000Z</time>
      </trkpt>
      <trkpt lat="43.70838" lon="3.74804">
        <ele>221</ele>
        <time>2020-08-08T06:58:15.000Z</time>
      </trkpt>
      <trkpt lat="43.70839" lon="3.74806">
        <ele>221</ele>
        <time>2020-08-08T06:58:20.000Z</time>
      </trkpt>
      <trkpt lat="43.70838" lon="3.74812">
        <ele>221</ele>
        <time>2020-08-08T06:58:22.000Z</time>
      </trkpt>
      <trkpt lat="43.70837" lon="3.74815">
        <ele>221</ele>
        <time>2020-08-08T06:58:23.000Z</time>
      </trkpt>
      <trkpt lat="43.70836" lon="3.74818">
        <ele>220.97699968</ele>
        <time>2020-08-08T06:58:24.000Z</time>
      </trkpt>
      <trkpt lat="43.70836" lon="3.7482">
        <ele>220.87699968</ele>
        <time>2020-08-08T06:58:25.000Z</time>
      </trkpt>
      <trkpt lat="43.70834" lon="3.74823">
        <ele>220.67699968</ele>
        <time>2020-08-08T06:58:27.000Z</time>
      </trkpt>
      <trkpt lat="43.70832" lon="3.74823">
        <ele>220.47699968</ele>
        <time>2020-08-08T06:58:29.000Z</time>
      </trkpt>
      <trkpt lat="43.7083" lon="3.74822">
        <ele>220.27699968</ele>
        <time>2020-08-08T06:58:31.000Z</time>
      </trkpt>
      <trkpt lat="43.70827" lon="3.7482">
        <ele>220.07699968</ele>
        <time>2020-08-08T06:58:33.000Z</time>
      </trkpt>
      <trkpt lat="43.70824" lon="3.74819">
        <ele>220.12300032</ele>
        <time>2020-08-08T06:58:35.000Z</time>
      </trkpt>
      <trkpt lat="43.70821" lon="3.74819">
        <ele>220.32300032</ele>
        <time>2020-08-08T06:58:37.000Z</time>
      </trkpt>
      <trkpt lat="43.70818" lon="3.74819">
        <ele>220.52300032</ele>
        <time>2020-08-08T06:58:39.000Z</time>
      </trkpt>
      <trkpt lat="43.70815" lon="3.74818">
        <ele>220.72300032</ele>
        <time>2020-08-08T06:58:41.000Z</time>
      </trkpt>
      <trkpt lat="43.70811" lon="3.74816">
        <ele>220.92300032</ele>
        <time>2020-08-08T06:58:43.000Z</time>
      </trkpt>
      <trkpt lat="43.7081" lon="3.74816">
        <ele>221.02300032</ele>
        <time>2020-08-08T06:58:44.000Z</time>
      </trkpt>
      <trkpt lat="43.70807" lon="3.74815">
        <ele>221.12300032</ele>
        <time>2020-08-08T06:58:45.000Z</time>
      </trkpt>
      <trkpt lat="43.70805" lon="3.74814">
        <ele>221.22300032</ele>
        <time>2020-08-08T06:58:46.000Z</time>
      </trkpt>
      <trkpt lat="43.70803" lon="3.74813">
        <ele>221.32300032</ele>
        <time>2020-08-08T06:58:47.000Z</time>
      </trkpt>
      <trkpt lat="43.70801" lon="3.74812">
        <ele>221.42300032</ele>
        <time>2020-08-08T06:58:48.000Z</time>
      </trkpt>
      <trkpt lat="43.70799" lon="3.7481">
        <ele>221.52300032</ele>
        <time>2020-08-08T06:58:49.000Z</time>
      </trkpt>
      <trkpt lat="43.70797" lon="3.74809">
        <ele>221.62300032</ele>
        <time>2020-08-08T06:58:50.000Z</time>
      </trkpt>
      <trkpt lat="43.70796" lon="3.74807">
        <ele>221.72300032</ele>
        <time>2020-08-08T06:58:51.000Z</time>
      </trkpt>
      <trkpt lat="43.70794" lon="3.74806">
        <ele>221.82300032</ele>
        <time>2020-08-08T06:58:52.000Z</time>
      </trkpt>
      <trkpt lat="43.70792" lon="3.74805">
        <ele>221.92300032</ele>
        <time>2020-08-08T06:58:53.000Z</time>
      </trkpt>
      <trkpt lat="43.7079" lon="3.74804">
        <ele>222</ele>
        <time>2020-08-08T06:58:54.000Z</time>
      </trkpt>
      <trkpt lat="43.70788" lon="3.74803">
        <ele>222</ele>
        <time>2020-08-08T06:58:55.000Z</time>
      </trkpt>
      <trkpt lat="43.70786" lon="3.74802">
        <ele>222</ele>
        <time>2020-08-08T06:58:56.000Z</time>
      </trkpt>
      <trkpt lat="43.70784" lon="3.748">
        <ele>222</ele>
        <time>2020-08-08T06:58:58.000Z</time>
      </trkpt>
      <trkpt lat="43.7078" lon="3.74797">
        <ele>222</ele>
        <time>2020-08-08T06:59:00.000Z</time>
      </trkpt>
      <trkpt lat="43.70779" lon="3.74796">
        <ele>222</ele>
        <time>2020-08-08T06:59:01.000Z</time>
      </trkpt>
      <trkpt lat="43.70777" lon="3.74795">
        <ele>222</ele>
        <time>2020-08-08T06:59:02.000Z</time>
      </trkpt>
      <trkpt lat="43.70775" lon="3.74793">
        <ele>222</ele>
        <time>2020-08-08T06:59:03.000Z</time>
      </trkpt>
      <trkpt lat="43.70773" lon="3.74792">
        <ele>222</ele>
        <time>2020-08-08T06:59:04.000Z</time>
      </trkpt>
      <trkpt lat="43.70771" lon="3.7479">
        <ele>222</ele>
        <time>2020-08-08T06:59:05.000Z</time>
      </trkpt>
      <trkpt lat="43.70769" lon="3.74788">
        <ele>222</ele>
        <time>2020-08-08T06:59:06.000Z</time>
      </trkpt>
      <trkpt lat="43.70767" lon="3.74787">
        <ele>222</ele>
        <time>2020-08-08T06:59:07.000Z</time>
      </trkpt>
      <trkpt lat="43.70766" lon="3.74786">
        <ele>222</ele>
        <time>2020-08-08T06:59:08.000Z</time>
      </trkpt>
      <trkpt lat="43.70763" lon="3.74784">
        <ele>222</ele>
        <time>2020-08-08T06:59:10.000Z</time>
      </trkpt>
      <trkpt lat="43.70761" lon="3.74783">
        <ele>222</ele>
        <time>2020-08-08T06:59:11.000Z</time>
      </trkpt>
      <trkpt lat="43.70759" lon="3.74782">
        <ele>222</ele>
        <time>2020-08-08T06:59:12.000Z</time>
      </trkpt>
      <trkpt lat="43.70757" lon="3.74781">
        <ele>222</ele>
        <time>2020-08-08T06:59:13.000Z</time>
      </trkpt>
      <trkpt lat="43.70756" lon="3.7478">
        <ele>222.02300032</ele>
        <time>2020-08-08T06:59:14.000Z</time>
      </trkpt>
      <trkpt lat="43.70754" lon="3.74778">
        <ele>222.12300032</ele>
        <time>2020-08-08T06:59:15.000Z</time>
      </trkpt>
      <trkpt lat="43.70752" lon="3.74777">
        <ele>222.22300032</ele>
        <time>2020-08-08T06:59:16.000Z</time>
      </trkpt>
      <trkpt lat="43.70751" lon="3.74775">
        <ele>222.32300032</ele>
        <time>2020-08-08T06:59:17.000Z</time>
      </trkpt>
      <trkpt lat="43.70748" lon="3.74773">
        <ele>222.52300032</ele>
        <time>2020-08-08T06:59:19.000Z</time>
      </trkpt>
      <trkpt lat="43.70746" lon="3.74772">
        <ele>222.62300032</ele>
        <time>2020-08-08T06:59:20.000Z</time>
      </trkpt>
      <trkpt lat="43.70744" lon="3.74771">
        <ele>222.72300032</ele>
        <time>2020-08-08T06:59:21.000Z</time>
      </trkpt>
      <trkpt lat="43.70741" lon="3.7477">
        <ele>222.92300032</ele>
        <time>2020-08-08T06:59:23.000Z</time>
      </trkpt>
      <trkpt lat="43.70739" lon="3.74768">
        <ele>223.02290868526</ele>
        <time>2020-08-08T06:59:24.000Z</time>
      </trkpt>
      <trkpt lat="43.70736" lon="3.74766">
        <ele>223.22211187251</ele>
        <time>2020-08-08T06:59:26.000Z</time>
      </trkpt>
      <trkpt lat="43.70733" lon="3.74764">
        <ele>223.42131505976</ele>
        <time>2020-08-08T06:59:28.000Z</time>
      </trkpt>
      <trkpt lat="43.70731" lon="3.74763">
        <ele>223.62051824701</ele>
        <time>2020-08-08T06:59:30.000Z</time>
      </trkpt>
      <trkpt lat="43.70729" lon="3.74762">
        <ele>223.81972143426</ele>
        <time>2020-08-08T06:59:32.000Z</time>
      </trkpt>
      <trkpt lat="43.70727" lon="3.74762">
        <ele>224.84136610442</ele>
        <time>2020-08-08T06:59:38.000Z</time>
      </trkpt>
      <trkpt lat="43.70725" lon="3.74761">
        <ele>225.64457895582</ele>
        <time>2020-08-08T06:59:42.000Z</time>
      </trkpt>
      <trkpt lat="43.70723" lon="3.74759">
        <ele>226.02300032</ele>
        <time>2020-08-08T06:59:44.000Z</time>
      </trkpt>
      <trkpt lat="43.70722" lon="3.74757">
        <ele>226.22300032</ele>
        <time>2020-08-08T06:59:46.000Z</time>
      </trkpt>
      <trkpt lat="43.7072" lon="3.74756">
        <ele>226.52300032</ele>
        <time>2020-08-08T06:59:49.000Z</time>
      </trkpt>
      <trkpt lat="43.70718" lon="3.74754">
        <ele>226.82300032</ele>
        <time>2020-08-08T06:59:52.000Z</time>
      </trkpt>
      <trkpt lat="43.70716" lon="3.74754">
        <ele>227.12094430551</ele>
        <time>2020-08-08T06:59:55.000Z</time>
      </trkpt>
      <trkpt lat="43.70713" lon="3.74754">
        <ele>227.41592964906</ele>
        <time>2020-08-08T06:59:58.000Z</time>
      </trkpt>
      <trkpt lat="43.70711" lon="3.74753">
        <ele>227.90757188832</ele>
        <time>2020-08-08T07:00:03.000Z</time>
      </trkpt>
      <trkpt lat="43.7071" lon="3.74752">
        <ele>228</ele>
        <time>2020-08-08T07:00:06.000Z</time>
      </trkpt>
      <trkpt lat="43.70706" lon="3.74745">
        <ele>228</ele>
        <time>2020-08-08T07:00:17.000Z</time>
      </trkpt>
      <trkpt lat="43.70704" lon="3.74742">
        <ele>228</ele>
        <time>2020-08-08T07:00:19.000Z</time>
      </trkpt>
      <trkpt lat="43.70701" lon="3.74738">
        <ele>228</ele>
        <time>2020-08-08T07:00:21.000Z</time>
      </trkpt>
      <trkpt lat="43.70699" lon="3.74735">
        <ele>228</ele>
        <time>2020-08-08T07:00:23.000Z</time>
      </trkpt>
      <trkpt lat="43.70698" lon="3.74733">
        <ele>228</ele>
        <time>2020-08-08T07:00:24.000Z</time>
      </trkpt>
      <trkpt lat="43.70696" lon="3.74731">
        <ele>228</ele>
        <time>2020-08-08T07:00:25.000Z</time>
      </trkpt>
      <trkpt lat="43.70694" lon="3.7473">
        <ele>228.01949316523</ele>
        <time>2020-08-08T07:00:26.000Z</time>
      </trkpt>
      <trkpt lat="43.70692" lon="3.74729">
        <ele>228.11695899137</ele>
        <time>2020-08-08T07:00:27.000Z</time>
      </trkpt>
      <trkpt lat="43.70689" lon="3.74726">
        <ele>228.31189064366</ele>
        <time>2020-08-08T07:00:29.000Z</time>
      </trkpt>
      <trkpt lat="43.70688" lon="3.74725">
        <ele>228.4093564698</ele>
        <time>2020-08-08T07:00:30.000Z</time>
      </trkpt>
      <trkpt lat="43.70686" lon="3.74723">
        <ele>228.50682229594</ele>
        <time>2020-08-08T07:00:31.000Z</time>
      </trkpt>
      <trkpt lat="43.70684" lon="3.74722">
        <ele>228.60428812208</ele>
        <time>2020-08-08T07:00:32.000Z</time>
      </trkpt>
      <trkpt lat="43.70681" lon="3.7472">
        <ele>228.79921977437</ele>
        <time>2020-08-08T07:00:34.000Z</time>
      </trkpt>
      <trkpt lat="43.70679" lon="3.74719">
        <ele>228.89668560051</ele>
        <time>2020-08-08T07:00:35.000Z</time>
      </trkpt>
      <trkpt lat="43.70676" lon="3.74718">
        <ele>229.19361370326</ele>
        <time>2020-08-08T07:00:37.000Z</time>
      </trkpt>
      <trkpt lat="43.70674" lon="3.74717">
        <ele>229.60556055751</ele>
        <time>2020-08-08T07:00:39.000Z</time>
      </trkpt>
      <trkpt lat="43.70671" lon="3.74715">
        <ele>230.01750741175</ele>
        <time>2020-08-08T07:00:41.000Z</time>
      </trkpt>
      <trkpt lat="43.70668" lon="3.74715">
        <ele>230.42945426599</ele>
        <time>2020-08-08T07:00:43.000Z</time>
      </trkpt>
      <trkpt lat="43.70664" lon="3.74715">
        <ele>230.84140112023</ele>
        <time>2020-08-08T07:00:45.000Z</time>
      </trkpt>
      <trkpt lat="43.70662" lon="3.74715">
        <ele>231.24600064</ele>
        <time>2020-08-08T07:00:47.000Z</time>
      </trkpt>
      <trkpt lat="43.70659" lon="3.74713">
        <ele>231.64600064</ele>
        <time>2020-08-08T07:00:49.000Z</time>
      </trkpt>
      <trkpt lat="43.70656" lon="3.74711">
        <ele>232.04600064</ele>
        <time>2020-08-08T07:00:51.000Z</time>
      </trkpt>
      <trkpt lat="43.70654" lon="3.74709">
        <ele>232.44600064</ele>
        <time>2020-08-08T07:00:53.000Z</time>
      </trkpt>
      <trkpt lat="43.70651" lon="3.74708">
        <ele>232.84600064</ele>
        <time>2020-08-08T07:00:55.000Z</time>
      </trkpt>
      <trkpt lat="43.70648" lon="3.74707">
        <ele>233.12300032</ele>
        <time>2020-08-08T07:00:57.000Z</time>
      </trkpt>
      <trkpt lat="43.70645" lon="3.74706">
        <ele>233.32300032</ele>
        <time>2020-08-08T07:00:59.000Z</time>
      </trkpt>
      <trkpt lat="43.70643" lon="3.74705">
        <ele>233.52300032</ele>
        <time>2020-08-08T07:01:01.000Z</time>
      </trkpt>
      <trkpt lat="43.7064" lon="3.74705">
        <ele>233.72300032</ele>
        <time>2020-08-08T07:01:03.000Z</time>
      </trkpt>
      <trkpt lat="43.70637" lon="3.74705">
        <ele>233.92300032</ele>
        <time>2020-08-08T07:01:05.000Z</time>
      </trkpt>
      <trkpt lat="43.70634" lon="3.74704">
        <ele>234.12300032</ele>
        <time>2020-08-08T07:01:07.000Z</time>
      </trkpt>
      <trkpt lat="43.70631" lon="3.74704">
        <ele>234.32300032</ele>
        <time>2020-08-08T07:01:09.000Z</time>
      </trkpt>
      <trkpt lat="43.70629" lon="3.74703">
        <ele>234.52300032</ele>
        <time>2020-08-08T07:01:11.000Z</time>
      </trkpt>
      <trkpt lat="43.70627" lon="3.74703">
        <ele>234.82300032</ele>
        <time>2020-08-08T07:01:14.000Z</time>
      </trkpt>
      <trkpt lat="43.70624" lon="3.74702">
        <ele>235.42300032</ele>
        <time>2020-08-08T07:01:20.000Z</time>
      </trkpt>
      <trkpt lat="43.70621" lon="3.74702">
        <ele>235.72300032</ele>
        <time>2020-08-08T07:01:23.000Z</time>
      </trkpt>
      <trkpt lat="43.70619" lon="3.74701">
        <ele>236.02300032</ele>
        <time>2020-08-08T07:01:26.000Z</time>
      </trkpt>
      <trkpt lat="43.70617" lon="3.74701">
        <ele>236.32300032</ele>
        <time>2020-08-08T07:01:29.000Z</time>
      </trkpt>
      <trkpt lat="43.70615" lon="3.747">
        <ele>236.62300032</ele>
        <time>2020-08-08T07:01:32.000Z</time>
      </trkpt>
      <trkpt lat="43.70613" lon="3.74699">
        <ele>237.02288586869</ele>
        <time>2020-08-08T07:01:36.000Z</time>
      </trkpt>
      <trkpt lat="43.70611" lon="3.74697">
        <ele>237.32139304623</ele>
        <time>2020-08-08T07:01:39.000Z</time>
      </trkpt>
      <trkpt lat="43.70609" lon="3.74697">
        <ele>237.71940261629</ele>
        <time>2020-08-08T07:01:43.000Z</time>
      </trkpt>
      <trkpt lat="43.70607" lon="3.74696">
        <ele>239.1166951604</ele>
        <time>2020-08-08T07:01:50.000Z</time>
      </trkpt>
      <trkpt lat="43.70596" lon="3.74695">
        <ele>241.07084160712</ele>
        <time>2020-08-08T07:02:07.000Z</time>
      </trkpt>
      <trkpt lat="43.70594" lon="3.74696">
        <ele>241.37885002306</ele>
        <time>2020-08-08T07:02:10.000Z</time>
      </trkpt>
      <trkpt lat="43.70592" lon="3.74696">
        <ele>241.686858439</ele>
        <time>2020-08-08T07:02:13.000Z</time>
      </trkpt>
      <trkpt lat="43.7059" lon="3.74696">
        <ele>241.99486685494</ele>
        <time>2020-08-08T07:02:16.000Z</time>
      </trkpt>
      <trkpt lat="43.70587" lon="3.74696">
        <ele>242.30349827161</ele>
        <time>2020-08-08T07:02:19.000Z</time>
      </trkpt>
      <trkpt lat="43.70586" lon="3.74695">
        <ele>242.50925958848</ele>
        <time>2020-08-08T07:02:21.000Z</time>
      </trkpt>
      <trkpt lat="43.70584" lon="3.74695">
        <ele>242.71502090535</ele>
        <time>2020-08-08T07:02:23.000Z</time>
      </trkpt>
      <trkpt lat="43.70583" lon="3.74694">
        <ele>243.07426447059</ele>
        <time>2020-08-08T07:02:30.000Z</time>
      </trkpt>
      <trkpt lat="43.70577" lon="3.74688">
        <ele>244</ele>
        <time>2020-08-08T07:02:43.000Z</time>
      </trkpt>
      <trkpt lat="43.70576" lon="3.74687">
        <ele>244</ele>
        <time>2020-08-08T07:02:44.000Z</time>
      </trkpt>
      <trkpt lat="43.70575" lon="3.74685">
        <ele>244</ele>
        <time>2020-08-08T07:02:46.000Z</time>
      </trkpt>
      <trkpt lat="43.70574" lon="3.74685">
        <ele>244</ele>
        <time>2020-08-08T07:02:51.000Z</time>
      </trkpt>
      <trkpt lat="43.70571" lon="3.74679">
        <ele>244.08515353712</ele>
        <time>2020-08-08T07:02:57.000Z</time>
      </trkpt>
      <trkpt lat="43.70571" lon="3.74678">
        <ele>244.30349414847</ele>
        <time>2020-08-08T07:02:58.000Z</time>
      </trkpt>
      <trkpt lat="43.70569" lon="3.74676">
        <ele>244.74017537118</ele>
        <time>2020-08-08T07:03:00.000Z</time>
      </trkpt>
      <trkpt lat="43.70568" lon="3.74674">
        <ele>245.17685659389</ele>
        <time>2020-08-08T07:03:02.000Z</time>
      </trkpt>
      <trkpt lat="43.70567" lon="3.74672">
        <ele>245.83187842795</ele>
        <time>2020-08-08T07:03:05.000Z</time>
      </trkpt>
      <trkpt lat="43.70566" lon="3.7467">
        <ele>245.78307361868</ele>
        <time>2020-08-08T07:03:08.000Z</time>
      </trkpt>
      <trkpt lat="43.70564" lon="3.74668">
        <ele>245.4912448249</ele>
        <time>2020-08-08T07:03:11.000Z</time>
      </trkpt>
      <trkpt lat="43.70562" lon="3.74668">
        <ele>245.19941603113</ele>
        <time>2020-08-08T07:03:14.000Z</time>
      </trkpt>
      <trkpt lat="43.7056" lon="3.74666">
        <ele>245.20061761317</ele>
        <time>2020-08-08T07:03:18.000Z</time>
      </trkpt>
      <trkpt lat="43.70558" lon="3.74665">
        <ele>245.50925958848</ele>
        <time>2020-08-08T07:03:21.000Z</time>
      </trkpt>
      <trkpt lat="43.70557" lon="3.74663">
        <ele>245.81790156379</ele>
        <time>2020-08-08T07:03:24.000Z</time>
      </trkpt>
      <trkpt lat="43.70554" lon="3.74661">
        <ele>246.12300032</ele>
        <time>2020-08-08T07:03:27.000Z</time>
      </trkpt>
      <trkpt lat="43.70553" lon="3.74659">
        <ele>246.32300032</ele>
        <time>2020-08-08T07:03:29.000Z</time>
      </trkpt>
      <trkpt lat="43.70551" lon="3.74658">
        <ele>246.62300032</ele>
        <time>2020-08-08T07:03:32.000Z</time>
      </trkpt>
      <trkpt lat="43.70549" lon="3.74656">
        <ele>246.92300032</ele>
        <time>2020-08-08T07:03:35.000Z</time>
      </trkpt>
      <trkpt lat="43.70547" lon="3.74654">
        <ele>247</ele>
        <time>2020-08-08T07:03:38.000Z</time>
      </trkpt>
      <trkpt lat="43.70546" lon="3.74651">
        <ele>247</ele>
        <time>2020-08-08T07:03:41.000Z</time>
      </trkpt>
      <trkpt lat="43.70544" lon="3.74648">
        <ele>247</ele>
        <time>2020-08-08T07:03:44.000Z</time>
      </trkpt>
      <trkpt lat="43.70543" lon="3.74645">
        <ele>247</ele>
        <time>2020-08-08T07:03:50.000Z</time>
      </trkpt>
      <trkpt lat="43.70542" lon="3.74644">
        <ele>247</ele>
        <time>2020-08-08T07:03:52.000Z</time>
      </trkpt>
      <trkpt lat="43.7054" lon="3.74641">
        <ele>247</ele>
        <time>2020-08-08T07:03:55.000Z</time>
      </trkpt>
      <trkpt lat="43.7054" lon="3.7464">
        <ele>247</ele>
        <time>2020-08-08T07:03:56.000Z</time>
      </trkpt>
      <trkpt lat="43.70538" lon="3.74638">
        <ele>247</ele>
        <time>2020-08-08T07:03:59.000Z</time>
      </trkpt>
      <trkpt lat="43.70537" lon="3.74636">
        <ele>247</ele>
        <time>2020-08-08T07:04:01.000Z</time>
      </trkpt>
      <trkpt lat="43.70536" lon="3.74633">
        <ele>247</ele>
        <time>2020-08-08T07:04:04.000Z</time>
      </trkpt>
      <trkpt lat="43.70536" lon="3.74631">
        <ele>247</ele>
        <time>2020-08-08T07:04:12.000Z</time>
      </trkpt>
      <trkpt lat="43.70534" lon="3.74623">
        <ele>247</ele>
        <time>2020-08-08T07:04:20.000Z</time>
      </trkpt>
      <trkpt lat="43.70532" lon="3.74619">
        <ele>247</ele>
        <time>2020-08-08T07:04:22.000Z</time>
      </trkpt>
      <trkpt lat="43.7053" lon="3.74615">
        <ele>247</ele>
        <time>2020-08-08T07:04:24.000Z</time>
      </trkpt>
      <trkpt lat="43.70529" lon="3.74613">
        <ele>247</ele>
        <time>2020-08-08T07:04:25.000Z</time>
      </trkpt>
      <trkpt lat="43.70528" lon="3.74611">
        <ele>247</ele>
        <time>2020-08-08T07:04:26.000Z</time>
      </trkpt>
      <trkpt lat="43.70527" lon="3.74609">
        <ele>247</ele>
        <time>2020-08-08T07:04:27.000Z</time>
      </trkpt>
      <trkpt lat="43.70525" lon="3.74607">
        <ele>247</ele>
        <time>2020-08-08T07:04:28.000Z</time>
      </trkpt>
      <trkpt lat="43.70524" lon="3.74605">
        <ele>247</ele>
        <time>2020-08-08T07:04:29.000Z</time>
      </trkpt>
      <trkpt lat="43.70523" lon="3.74602">
        <ele>247.02171889806</ele>
        <time>2020-08-08T07:04:30.000Z</time>
      </trkpt>
      <trkpt lat="43.70522" lon="3.746">
        <ele>247.11614757586</ele>
        <time>2020-08-08T07:04:31.000Z</time>
      </trkpt>
      <trkpt lat="43.70521" lon="3.74597">
        <ele>247.21057625365</ele>
        <time>2020-08-08T07:04:32.000Z</time>
      </trkpt>
      <trkpt lat="43.70519" lon="3.74594">
        <ele>247.30500493144</ele>
        <time>2020-08-08T07:04:33.000Z</time>
      </trkpt>
      <trkpt lat="43.70518" lon="3.74592">
        <ele>247.39943360924</ele>
        <time>2020-08-08T07:04:34.000Z</time>
      </trkpt>
      <trkpt lat="43.70516" lon="3.74589">
        <ele>247.49386228703</ele>
        <time>2020-08-08T07:04:35.000Z</time>
      </trkpt>
      <trkpt lat="43.70515" lon="3.74587">
        <ele>247.58829096482</ele>
        <time>2020-08-08T07:04:36.000Z</time>
      </trkpt>
      <trkpt lat="43.70513" lon="3.74585">
        <ele>247.68271964262</ele>
        <time>2020-08-08T07:04:37.000Z</time>
      </trkpt>
      <trkpt lat="43.70511" lon="3.74583">
        <ele>247.77714832041</ele>
        <time>2020-08-08T07:04:38.000Z</time>
      </trkpt>
      <trkpt lat="43.70509" lon="3.74581">
        <ele>247.8715769982</ele>
        <time>2020-08-08T07:04:39.000Z</time>
      </trkpt>
      <trkpt lat="43.70507" lon="3.7458">
        <ele>247.96600567599</ele>
        <time>2020-08-08T07:04:40.000Z</time>
      </trkpt>
      <trkpt lat="43.70505" lon="3.74578">
        <ele>248</ele>
        <time>2020-08-08T07:04:41.000Z</time>
      </trkpt>
      <trkpt lat="43.70504" lon="3.74577">
        <ele>248</ele>
        <time>2020-08-08T07:04:42.000Z</time>
      </trkpt>
      <trkpt lat="43.70502" lon="3.74576">
        <ele>248</ele>
        <time>2020-08-08T07:04:43.000Z</time>
      </trkpt>
      <trkpt lat="43.70498" lon="3.74575">
        <ele>248</ele>
        <time>2020-08-08T07:04:45.000Z</time>
      </trkpt>
      <trkpt lat="43.70495" lon="3.74574">
        <ele>248</ele>
        <time>2020-08-08T07:04:47.000Z</time>
      </trkpt>
      <trkpt lat="43.70492" lon="3.74572">
        <ele>248</ele>
        <time>2020-08-08T07:04:49.000Z</time>
      </trkpt>
      <trkpt lat="43.7049" lon="3.74571">
        <ele>248</ele>
        <time>2020-08-08T07:04:50.000Z</time>
      </trkpt>
      <trkpt lat="43.70488" lon="3.7457">
        <ele>248</ele>
        <time>2020-08-08T07:04:51.000Z</time>
      </trkpt>
      <trkpt lat="43.70487" lon="3.74568">
        <ele>248</ele>
        <time>2020-08-08T07:04:52.000Z</time>
      </trkpt>
      <trkpt lat="43.70485" lon="3.74564">
        <ele>248</ele>
        <time>2020-08-08T07:04:54.000Z</time>
      </trkpt>
      <trkpt lat="43.70483" lon="3.74562">
        <ele>248</ele>
        <time>2020-08-08T07:04:55.000Z</time>
      </trkpt>
      <trkpt lat="43.70482" lon="3.74559">
        <ele>248</ele>
        <time>2020-08-08T07:04:56.000Z</time>
      </trkpt>
      <trkpt lat="43.70481" lon="3.74557">
        <ele>248</ele>
        <time>2020-08-08T07:04:57.000Z</time>
      </trkpt>
      <trkpt lat="43.7048" lon="3.74554">
        <ele>248</ele>
        <time>2020-08-08T07:04:58.000Z</time>
      </trkpt>
      <trkpt lat="43.70478" lon="3.74552">
        <ele>248</ele>
        <time>2020-08-08T07:04:59.000Z</time>
      </trkpt>
      <trkpt lat="43.70477" lon="3.7455">
        <ele>248</ele>
        <time>2020-08-08T07:05:00.000Z</time>
      </trkpt>
      <trkpt lat="43.70474" lon="3.74546">
        <ele>248</ele>
        <time>2020-08-08T07:05:02.000Z</time>
      </trkpt>
      <trkpt lat="43.70473" lon="3.74544">
        <ele>248</ele>
        <time>2020-08-08T07:05:03.000Z</time>
      </trkpt>
      <trkpt lat="43.70472" lon="3.74542">
        <ele>248</ele>
        <time>2020-08-08T07:05:04.000Z</time>
      </trkpt>
      <trkpt lat="43.7047" lon="3.74538">
        <ele>248</ele>
        <time>2020-08-08T07:05:06.000Z</time>
      </trkpt>
      <trkpt lat="43.70467" lon="3.74534">
        <ele>248</ele>
        <time>2020-08-08T07:05:08.000Z</time>
      </trkpt>
      <trkpt lat="43.70465" lon="3.74531">
        <ele>247.97699968</ele>
        <time>2020-08-08T07:05:10.000Z</time>
      </trkpt>
      <trkpt lat="43.70463" lon="3.74528">
        <ele>247.67699968</ele>
        <time>2020-08-08T07:05:13.000Z</time>
      </trkpt>
      <trkpt lat="43.70462" lon="3.74526">
        <ele>247.57699968</ele>
        <time>2020-08-08T07:05:14.000Z</time>
      </trkpt>
      <trkpt lat="43.7046" lon="3.74524">
        <ele>247.47699968</ele>
        <time>2020-08-08T07:05:15.000Z</time>
      </trkpt>
      <trkpt lat="43.70459" lon="3.74522">
        <ele>247.37699968</ele>
        <time>2020-08-08T07:05:16.000Z</time>
      </trkpt>
      <trkpt lat="43.70457" lon="3.74519">
        <ele>247.27699968</ele>
        <time>2020-08-08T07:05:17.000Z</time>
      </trkpt>
      <trkpt lat="43.70456" lon="3.74516">
        <ele>247.17699968</ele>
        <time>2020-08-08T07:05:18.000Z</time>
      </trkpt>
      <trkpt lat="43.70455" lon="3.74514">
        <ele>247.07699968</ele>
        <time>2020-08-08T07:05:19.000Z</time>
      </trkpt>
      <trkpt lat="43.70453" lon="3.74512">
        <ele>246.97699968</ele>
        <time>2020-08-08T07:05:20.000Z</time>
      </trkpt>
      <trkpt lat="43.70451" lon="3.74509">
        <ele>246.87699968</ele>
        <time>2020-08-08T07:05:21.000Z</time>
      </trkpt>
      <trkpt lat="43.7045" lon="3.74505">
        <ele>246.77699968</ele>
        <time>2020-08-08T07:05:22.000Z</time>
      </trkpt>
      <trkpt lat="43.70448" lon="3.74501">
        <ele>246.67699968</ele>
        <time>2020-08-08T07:05:23.000Z</time>
      </trkpt>
      <trkpt lat="43.70447" lon="3.74498">
        <ele>246.57699968</ele>
        <time>2020-08-08T07:05:24.000Z</time>
      </trkpt>
      <trkpt lat="43.70446" lon="3.74494">
        <ele>246.47699968</ele>
        <time>2020-08-08T07:05:25.000Z</time>
      </trkpt>
      <trkpt lat="43.70444" lon="3.74491">
        <ele>246.37699968</ele>
        <time>2020-08-08T07:05:26.000Z</time>
      </trkpt>
      <trkpt lat="43.70442" lon="3.74488">
        <ele>246.27699968</ele>
        <time>2020-08-08T07:05:27.000Z</time>
      </trkpt>
      <trkpt lat="43.70441" lon="3.74484">
        <ele>246.17699968</ele>
        <time>2020-08-08T07:05:28.000Z</time>
      </trkpt>
      <trkpt lat="43.70439" lon="3.74481">
        <ele>246.07699968</ele>
        <time>2020-08-08T07:05:29.000Z</time>
      </trkpt>
      <trkpt lat="43.70438" lon="3.74478">
        <ele>245.95399936</ele>
        <time>2020-08-08T07:05:30.000Z</time>
      </trkpt>
      <trkpt lat="43.70437" lon="3.74475">
        <ele>245.75399936</ele>
        <time>2020-08-08T07:05:31.000Z</time>
      </trkpt>
      <trkpt lat="43.70436" lon="3.74472">
        <ele>245.55399936</ele>
        <time>2020-08-08T07:05:32.000Z</time>
      </trkpt>
      <trkpt lat="43.70435" lon="3.74468">
        <ele>245.35399936</ele>
        <time>2020-08-08T07:05:33.000Z</time>
      </trkpt>
      <trkpt lat="43.70434" lon="3.74465">
        <ele>245.15399936</ele>
        <time>2020-08-08T07:05:34.000Z</time>
      </trkpt>
      <trkpt lat="43.70433" lon="3.74462">
        <ele>244.95399936</ele>
        <time>2020-08-08T07:05:35.000Z</time>
      </trkpt>
      <trkpt lat="43.70432" lon="3.74459">
        <ele>244.75399936</ele>
        <time>2020-08-08T07:05:36.000Z</time>
      </trkpt>
      <trkpt lat="43.70431" lon="3.74455">
        <ele>244.35399936</ele>
        <time>2020-08-08T07:05:38.000Z</time>
      </trkpt>
      <trkpt lat="43.7043" lon="3.74452">
        <ele>244.15399936</ele>
        <time>2020-08-08T07:05:39.000Z</time>
      </trkpt>
      <trkpt lat="43.70429" lon="3.7445">
        <ele>243.97815736084</ele>
        <time>2020-08-08T07:05:40.000Z</time>
      </trkpt>
      <trkpt lat="43.70429" lon="3.74447">
        <ele>243.88319068579</ele>
        <time>2020-08-08T07:05:41.000Z</time>
      </trkpt>
      <trkpt lat="43.70427" lon="3.74444">
        <ele>243.78822401074</ele>
        <time>2020-08-08T07:05:42.000Z</time>
      </trkpt>
      <trkpt lat="43.70427" lon="3.74442">
        <ele>243.69325733568</ele>
        <time>2020-08-08T07:05:43.000Z</time>
      </trkpt>
      <trkpt lat="43.70425" lon="3.74439">
        <ele>243.59829066063</ele>
        <time>2020-08-08T07:05:44.000Z</time>
      </trkpt>
      <trkpt lat="43.70424" lon="3.74436">
        <ele>243.50332398557</ele>
        <time>2020-08-08T07:05:45.000Z</time>
      </trkpt>
      <trkpt lat="43.70423" lon="3.74433">
        <ele>243.40835731052</ele>
        <time>2020-08-08T07:05:46.000Z</time>
      </trkpt>
      <trkpt lat="43.70421" lon="3.7443">
        <ele>243.31339063546</ele>
        <time>2020-08-08T07:05:47.000Z</time>
      </trkpt>
      <trkpt lat="43.70419" lon="3.74428">
        <ele>243.21842396041</ele>
        <time>2020-08-08T07:05:48.000Z</time>
      </trkpt>
      <trkpt lat="43.70417" lon="3.74425">
        <ele>243.12345728536</ele>
        <time>2020-08-08T07:05:49.000Z</time>
      </trkpt>
      <trkpt lat="43.70415" lon="3.74422">
        <ele>243.0284906103</ele>
        <time>2020-08-08T07:05:50.000Z</time>
      </trkpt>
      <trkpt lat="43.70413" lon="3.7442">
        <ele>242.85278773783</ele>
        <time>2020-08-08T07:05:51.000Z</time>
      </trkpt>
      <trkpt lat="43.7041" lon="3.74418">
        <ele>242.64248258337</ele>
        <time>2020-08-08T07:05:52.000Z</time>
      </trkpt>
      <trkpt lat="43.70408" lon="3.74415">
        <ele>242.43217742891</ele>
        <time>2020-08-08T07:05:53.000Z</time>
      </trkpt>
      <trkpt lat="43.70406" lon="3.74412">
        <ele>242.22187227444</ele>
        <time>2020-08-08T07:05:54.000Z</time>
      </trkpt>
      <trkpt lat="43.70404" lon="3.74409">
        <ele>242.01156711998</ele>
        <time>2020-08-08T07:05:55.000Z</time>
      </trkpt>
      <trkpt lat="43.70401" lon="3.74406">
        <ele>241.80126196552</ele>
        <time>2020-08-08T07:05:56.000Z</time>
      </trkpt>
      <trkpt lat="43.70399" lon="3.74402">
        <ele>241.59095681106</ele>
        <time>2020-08-08T07:05:57.000Z</time>
      </trkpt>
      <trkpt lat="43.70396" lon="3.74398">
        <ele>241.3806516566</ele>
        <time>2020-08-08T07:05:58.000Z</time>
      </trkpt>
      <trkpt lat="43.70393" lon="3.74394">
        <ele>241.17034650214</ele>
        <time>2020-08-08T07:05:59.000Z</time>
      </trkpt>
      <trkpt lat="43.7039" lon="3.7439">
        <ele>240.96184674699</ele>
        <time>2020-08-08T07:06:00.000Z</time>
      </trkpt>
      <trkpt lat="43.70387" lon="3.74386">
        <ele>240.76104353414</ele>
        <time>2020-08-08T07:06:01.000Z</time>
      </trkpt>
      <trkpt lat="43.70384" lon="3.74383">
        <ele>240.56024032128</ele>
        <time>2020-08-08T07:06:02.000Z</time>
      </trkpt>
      <trkpt lat="43.70381" lon="3.74379">
        <ele>240.35943710843</ele>
        <time>2020-08-08T07:06:03.000Z</time>
      </trkpt>
      <trkpt lat="43.70377" lon="3.74376">
        <ele>240.15863389558</ele>
        <time>2020-08-08T07:06:04.000Z</time>
      </trkpt>
      <trkpt lat="43.70373" lon="3.74374">
        <ele>239.95783068273</ele>
        <time>2020-08-08T07:06:05.000Z</time>
      </trkpt>
      <trkpt lat="43.70369" lon="3.74371">
        <ele>239.75702746988</ele>
        <time>2020-08-08T07:06:06.000Z</time>
      </trkpt>
      <trkpt lat="43.70366" lon="3.74369">
        <ele>239.55622425703</ele>
        <time>2020-08-08T07:06:07.000Z</time>
      </trkpt>
      <trkpt lat="43.70363" lon="3.74367">
        <ele>239.35542104418</ele>
        <time>2020-08-08T07:06:08.000Z</time>
      </trkpt>
      <trkpt lat="43.70359" lon="3.74365">
        <ele>239.15461783132</ele>
        <time>2020-08-08T07:06:09.000Z</time>
      </trkpt>
      <trkpt lat="43.70355" lon="3.74363">
        <ele>238.95399936</ele>
        <time>2020-08-08T07:06:10.000Z</time>
      </trkpt>
      <trkpt lat="43.70352" lon="3.74361">
        <ele>238.75399936</ele>
        <time>2020-08-08T07:06:11.000Z</time>
      </trkpt>
      <trkpt lat="43.70349" lon="3.74359">
        <ele>238.55399936</ele>
        <time>2020-08-08T07:06:12.000Z</time>
      </trkpt>
      <trkpt lat="43.70346" lon="3.74356">
        <ele>238.35399936</ele>
        <time>2020-08-08T07:06:13.000Z</time>
      </trkpt>
      <trkpt lat="43.70343" lon="3.74353">
        <ele>238.15399936</ele>
        <time>2020-08-08T07:06:14.000Z</time>
      </trkpt>
      <trkpt lat="43.7034" lon="3.74351">
        <ele>237.95399936</ele>
        <time>2020-08-08T07:06:15.000Z</time>
      </trkpt>
      <trkpt lat="43.70337" lon="3.74348">
        <ele>237.75399936</ele>
        <time>2020-08-08T07:06:16.000Z</time>
      </trkpt>
      <trkpt lat="43.70335" lon="3.74346">
        <ele>237.55399936</ele>
        <time>2020-08-08T07:06:17.000Z</time>
      </trkpt>
      <trkpt lat="43.70332" lon="3.74344">
        <ele>237.35399936</ele>
        <time>2020-08-08T07:06:18.000Z</time>
      </trkpt>
      <trkpt lat="43.7033" lon="3.74343">
        <ele>237.15399936</ele>
        <time>2020-08-08T07:06:19.000Z</time>
      </trkpt>
      <trkpt lat="43.70327" lon="3.74341">
        <ele>236.93099904</ele>
        <time>2020-08-08T07:06:20.000Z</time>
      </trkpt>
      <trkpt lat="43.70324" lon="3.74339">
        <ele>236.63099904</ele>
        <time>2020-08-08T07:06:21.000Z</time>
      </trkpt>
      <trkpt lat="43.70321" lon="3.74338">
        <ele>236.33099904</ele>
        <time>2020-08-08T07:06:22.000Z</time>
      </trkpt>
      <trkpt lat="43.70318" lon="3.74336">
        <ele>236.03099904</ele>
        <time>2020-08-08T07:06:23.000Z</time>
      </trkpt>
      <trkpt lat="43.70316" lon="3.74334">
        <ele>235.73099904</ele>
        <time>2020-08-08T07:06:24.000Z</time>
      </trkpt>
      <trkpt lat="43.70312" lon="3.74333">
        <ele>235.43099904</ele>
        <time>2020-08-08T07:06:25.000Z</time>
      </trkpt>
      <trkpt lat="43.7031" lon="3.74331">
        <ele>235.13099904</ele>
        <time>2020-08-08T07:06:26.000Z</time>
      </trkpt>
      <trkpt lat="43.70307" lon="3.7433">
        <ele>234.83099904</ele>
        <time>2020-08-08T07:06:27.000Z</time>
      </trkpt>
      <trkpt lat="43.70304" lon="3.74328">
        <ele>234.53099904</ele>
        <time>2020-08-08T07:06:28.000Z</time>
      </trkpt>
      <trkpt lat="43.70301" lon="3.74327">
        <ele>234.23099904</ele>
        <time>2020-08-08T07:06:29.000Z</time>
      </trkpt>
      <trkpt lat="43.70298" lon="3.74325">
        <ele>233.93127394422</ele>
        <time>2020-08-08T07:06:30.000Z</time>
      </trkpt>
      <trkpt lat="43.70295" lon="3.74324">
        <ele>233.63246916335</ele>
        <time>2020-08-08T07:06:31.000Z</time>
      </trkpt>
      <trkpt lat="43.70292" lon="3.74322">
        <ele>233.33366438247</ele>
        <time>2020-08-08T07:06:32.000Z</time>
      </trkpt>
      <trkpt lat="43.70289" lon="3.7432">
        <ele>233.03485960159</ele>
        <time>2020-08-08T07:06:33.000Z</time>
      </trkpt>
      <trkpt lat="43.70286" lon="3.74318">
        <ele>232.73605482072</ele>
        <time>2020-08-08T07:06:34.000Z</time>
      </trkpt>
      <trkpt lat="43.70282" lon="3.74316">
        <ele>232.43725003984</ele>
        <time>2020-08-08T07:06:35.000Z</time>
      </trkpt>
      <trkpt lat="43.70279" lon="3.74314">
        <ele>232.13844525896</ele>
        <time>2020-08-08T07:06:36.000Z</time>
      </trkpt>
      <trkpt lat="43.70277" lon="3.74312">
        <ele>231.83964047809</ele>
        <time>2020-08-08T07:06:37.000Z</time>
      </trkpt>
      <trkpt lat="43.70274" lon="3.7431">
        <ele>231.54083569721</ele>
        <time>2020-08-08T07:06:38.000Z</time>
      </trkpt>
      <trkpt lat="43.70272" lon="3.74309">
        <ele>231.24203091634</ele>
        <time>2020-08-08T07:06:39.000Z</time>
      </trkpt>
      <trkpt lat="43.70269" lon="3.74308">
        <ele>230.96184674699</ele>
        <time>2020-08-08T07:06:40.000Z</time>
      </trkpt>
      <trkpt lat="43.70267" lon="3.74307">
        <ele>230.76104353414</ele>
        <time>2020-08-08T07:06:41.000Z</time>
      </trkpt>
      <trkpt lat="43.70264" lon="3.74307">
        <ele>230.35943710843</ele>
        <time>2020-08-08T07:06:43.000Z</time>
      </trkpt>
      <trkpt lat="43.70262" lon="3.74306">
        <ele>230.15863389558</ele>
        <time>2020-08-08T07:06:44.000Z</time>
      </trkpt>
      <trkpt lat="43.7026" lon="3.74306">
        <ele>229.95783068273</ele>
        <time>2020-08-08T07:06:45.000Z</time>
      </trkpt>
      <trkpt lat="43.70258" lon="3.74306">
        <ele>229.15461783132</ele>
        <time>2020-08-08T07:06:49.000Z</time>
      </trkpt>
      <trkpt lat="43.70255" lon="3.74306">
        <ele>228.50799872</ele>
        <time>2020-08-08T07:06:51.000Z</time>
      </trkpt>
      <trkpt lat="43.70251" lon="3.74306">
        <ele>227.70799872</ele>
        <time>2020-08-08T07:06:53.000Z</time>
      </trkpt>
      <trkpt lat="43.70249" lon="3.74306">
        <ele>227.30799872</ele>
        <time>2020-08-08T07:06:54.000Z</time>
      </trkpt>
      <trkpt lat="43.70245" lon="3.74306">
        <ele>226.90799872</ele>
        <time>2020-08-08T07:06:55.000Z</time>
      </trkpt>
      <trkpt lat="43.70242" lon="3.74304">
        <ele>226.50799872</ele>
        <time>2020-08-08T07:06:56.000Z</time>
      </trkpt>
      <trkpt lat="43.70238" lon="3.74301">
        <ele>226.10799872</ele>
        <time>2020-08-08T07:06:57.000Z</time>
      </trkpt>
      <trkpt lat="43.70234" lon="3.74298">
        <ele>225.70799872</ele>
        <time>2020-08-08T07:06:58.000Z</time>
      </trkpt>
      <trkpt lat="43.70231" lon="3.74295">
        <ele>225.30799872</ele>
        <time>2020-08-08T07:06:59.000Z</time>
      </trkpt>
      <trkpt lat="43.70229" lon="3.74294">
        <ele>224.93618997058</ele>
        <time>2020-08-08T07:07:00.000Z</time>
      </trkpt>
      <trkpt lat="43.70229" lon="3.74295">
        <ele>222.85466104608</ele>
        <time>2020-08-08T07:07:08.000Z</time>
      </trkpt>
      <trkpt lat="43.70223" lon="3.74289">
        <ele>219.06319249067</ele>
        <time>2020-08-08T07:07:26.000Z</time>
      </trkpt>
      <trkpt lat="43.70222" lon="3.74287">
        <ele>218.85473741793</ele>
        <time>2020-08-08T07:07:27.000Z</time>
      </trkpt>
      <trkpt lat="43.7022" lon="3.74285">
        <ele>218.64421096031</ele>
        <time>2020-08-08T07:07:28.000Z</time>
      </trkpt>
      <trkpt lat="43.70219" lon="3.74283">
        <ele>218.43368450269</ele>
        <time>2020-08-08T07:07:29.000Z</time>
      </trkpt>
      <trkpt lat="43.70218" lon="3.74281">
        <ele>218.22315804507</ele>
        <time>2020-08-08T07:07:30.000Z</time>
      </trkpt>
      <trkpt lat="43.70216" lon="3.74279">
        <ele>218.01263158746</ele>
        <time>2020-08-08T07:07:31.000Z</time>
      </trkpt>
      <trkpt lat="43.70214" lon="3.74278">
        <ele>217.80210512984</ele>
        <time>2020-08-08T07:07:32.000Z</time>
      </trkpt>
      <trkpt lat="43.70212" lon="3.74276">
        <ele>217.59157867222</ele>
        <time>2020-08-08T07:07:33.000Z</time>
      </trkpt>
      <trkpt lat="43.7021" lon="3.74276">
        <ele>217.3810522146</ele>
        <time>2020-08-08T07:07:34.000Z</time>
      </trkpt>
      <trkpt lat="43.70208" lon="3.74275">
        <ele>217.17052575699</ele>
        <time>2020-08-08T07:07:35.000Z</time>
      </trkpt>
      <trkpt lat="43.70206" lon="3.74274">
        <ele>216.98094059279</ele>
        <time>2020-08-08T07:07:36.000Z</time>
      </trkpt>
      <trkpt lat="43.70203" lon="3.74274">
        <ele>216.8806296127</ele>
        <time>2020-08-08T07:07:37.000Z</time>
      </trkpt>
      <trkpt lat="43.70201" lon="3.74273">
        <ele>216.78031863261</ele>
        <time>2020-08-08T07:07:38.000Z</time>
      </trkpt>
      <trkpt lat="43.70198" lon="3.74273">
        <ele>216.68000765252</ele>
        <time>2020-08-08T07:07:39.000Z</time>
      </trkpt>
      <trkpt lat="43.70196" lon="3.74272">
        <ele>216.57969667244</ele>
        <time>2020-08-08T07:07:40.000Z</time>
      </trkpt>
      <trkpt lat="43.70194" lon="3.74272">
        <ele>216.47938569235</ele>
        <time>2020-08-08T07:07:41.000Z</time>
      </trkpt>
      <trkpt lat="43.70191" lon="3.74271">
        <ele>216.37907471226</ele>
        <time>2020-08-08T07:07:42.000Z</time>
      </trkpt>
      <trkpt lat="43.70188" lon="3.74271">
        <ele>216.27876373217</ele>
        <time>2020-08-08T07:07:43.000Z</time>
      </trkpt>
      <trkpt lat="43.70186" lon="3.7427">
        <ele>216.17845275208</ele>
        <time>2020-08-08T07:07:44.000Z</time>
      </trkpt>
      <trkpt lat="43.70183" lon="3.74269">
        <ele>216.078141772</ele>
        <time>2020-08-08T07:07:45.000Z</time>
      </trkpt>
      <trkpt lat="43.70181" lon="3.74268">
        <ele>216</ele>
        <time>2020-08-08T07:07:46.000Z</time>
      </trkpt>
      <trkpt lat="43.70178" lon="3.74267">
        <ele>216</ele>
        <time>2020-08-08T07:07:47.000Z</time>
      </trkpt>
      <trkpt lat="43.70175" lon="3.74267">
        <ele>216</ele>
        <time>2020-08-08T07:07:48.000Z</time>
      </trkpt>
      <trkpt lat="43.70173" lon="3.74266">
        <ele>216</ele>
        <time>2020-08-08T07:07:49.000Z</time>
      </trkpt>
      <trkpt lat="43.7017" lon="3.74265">
        <ele>216</ele>
        <time>2020-08-08T07:07:50.000Z</time>
      </trkpt>
      <trkpt lat="43.70167" lon="3.74264">
        <ele>216</ele>
        <time>2020-08-08T07:07:51.000Z</time>
      </trkpt>
      <trkpt lat="43.70164" lon="3.74263">
        <ele>216</ele>
        <time>2020-08-08T07:07:52.000Z</time>
      </trkpt>
      <trkpt lat="43.70161" lon="3.74262">
        <ele>216</ele>
        <time>2020-08-08T07:07:53.000Z</time>
      </trkpt>
      <trkpt lat="43.70158" lon="3.7426">
        <ele>216</ele>
        <time>2020-08-08T07:07:54.000Z</time>
      </trkpt>
      <trkpt lat="43.70156" lon="3.74259">
        <ele>216</ele>
        <time>2020-08-08T07:07:55.000Z</time>
      </trkpt>
      <trkpt lat="43.70153" lon="3.74258">
        <ele>216.02300032</ele>
        <time>2020-08-08T07:07:56.000Z</time>
      </trkpt>
      <trkpt lat="43.7015" lon="3.74257">
        <ele>216.12300032</ele>
        <time>2020-08-08T07:07:57.000Z</time>
      </trkpt>
      <trkpt lat="43.70147" lon="3.74256">
        <ele>216.22300032</ele>
        <time>2020-08-08T07:07:58.000Z</time>
      </trkpt>
      <trkpt lat="43.70144" lon="3.74255">
        <ele>216.32300032</ele>
        <time>2020-08-08T07:07:59.000Z</time>
      </trkpt>
      <trkpt lat="43.70141" lon="3.74254">
        <ele>216.42300032</ele>
        <time>2020-08-08T07:08:00.000Z</time>
      </trkpt>
      <trkpt lat="43.70138" lon="3.74253">
        <ele>216.52300032</ele>
        <time>2020-08-08T07:08:01.000Z</time>
      </trkpt>
      <trkpt lat="43.70135" lon="3.74252">
        <ele>216.62300032</ele>
        <time>2020-08-08T07:08:02.000Z</time>
      </trkpt>
      <trkpt lat="43.70132" lon="3.7425">
        <ele>216.72300032</ele>
        <time>2020-08-08T07:08:03.000Z</time>
      </trkpt>
      <trkpt lat="43.70129" lon="3.74249">
        <ele>216.82300032</ele>
        <time>2020-08-08T07:08:04.000Z</time>
      </trkpt>
      <trkpt lat="43.70126" lon="3.74248">
        <ele>216.92300032</ele>
        <time>2020-08-08T07:08:05.000Z</time>
      </trkpt>
      <trkpt lat="43.70123" lon="3.74247">
        <ele>217</ele>
        <time>2020-08-08T07:08:06.000Z</time>
      </trkpt>
      <trkpt lat="43.70121" lon="3.74246">
        <ele>217</ele>
        <time>2020-08-08T07:08:07.000Z</time>
      </trkpt>
      <trkpt lat="43.70118" lon="3.74246">
        <ele>217</ele>
        <time>2020-08-08T07:08:08.000Z</time>
      </trkpt>
      <trkpt lat="43.70115" lon="3.74245">
        <ele>217</ele>
        <time>2020-08-08T07:08:09.000Z</time>
      </trkpt>
      <trkpt lat="43.70112" lon="3.74243">
        <ele>217</ele>
        <time>2020-08-08T07:08:10.000Z</time>
      </trkpt>
      <trkpt lat="43.70109" lon="3.74242">
        <ele>217</ele>
        <time>2020-08-08T07:08:11.000Z</time>
      </trkpt>
      <trkpt lat="43.70106" lon="3.74242">
        <ele>217</ele>
        <time>2020-08-08T07:08:12.000Z</time>
      </trkpt>
      <trkpt lat="43.70103" lon="3.74241">
        <ele>217</ele>
        <time>2020-08-08T07:08:13.000Z</time>
      </trkpt>
      <trkpt lat="43.701" lon="3.7424">
        <ele>217</ele>
        <time>2020-08-08T07:08:14.000Z</time>
      </trkpt>
      <trkpt lat="43.70097" lon="3.74239">
        <ele>217</ele>
        <time>2020-08-08T07:08:15.000Z</time>
      </trkpt>
      <trkpt lat="43.70094" lon="3.74238">
        <ele>217</ele>
        <time>2020-08-08T07:08:16.000Z</time>
      </trkpt>
      <trkpt lat="43.70091" lon="3.74237">
        <ele>217</ele>
        <time>2020-08-08T07:08:17.000Z</time>
      </trkpt>
      <trkpt lat="43.70088" lon="3.74236">
        <ele>217</ele>
        <time>2020-08-08T07:08:18.000Z</time>
      </trkpt>
      <trkpt lat="43.70084" lon="3.74236">
        <ele>217</ele>
        <time>2020-08-08T07:08:19.000Z</time>
      </trkpt>
      <trkpt lat="43.70081" lon="3.74235">
        <ele>217</ele>
        <time>2020-08-08T07:08:20.000Z</time>
      </trkpt>
      <trkpt lat="43.70078" lon="3.74234">
        <ele>217</ele>
        <time>2020-08-08T07:08:21.000Z</time>
      </trkpt>
      <trkpt lat="43.70074" lon="3.74233">
        <ele>217</ele>
        <time>2020-08-08T07:08:22.000Z</time>
      </trkpt>
      <trkpt lat="43.70071" lon="3.74232">
        <ele>217</ele>
        <time>2020-08-08T07:08:23.000Z</time>
      </trkpt>
      <trkpt lat="43.70067" lon="3.7423">
        <ele>217</ele>
        <time>2020-08-08T07:08:24.000Z</time>
      </trkpt>
      <trkpt lat="43.70064" lon="3.74229">
        <ele>217</ele>
        <time>2020-08-08T07:08:25.000Z</time>
      </trkpt>
      <trkpt lat="43.7006" lon="3.74228">
        <ele>217</ele>
        <time>2020-08-08T07:08:26.000Z</time>
      </trkpt>
      <trkpt lat="43.70057" lon="3.74227">
        <ele>217</ele>
        <time>2020-08-08T07:08:27.000Z</time>
      </trkpt>
      <trkpt lat="43.70053" lon="3.74226">
        <ele>217</ele>
        <time>2020-08-08T07:08:28.000Z</time>
      </trkpt>
      <trkpt lat="43.7005" lon="3.74225">
        <ele>217</ele>
        <time>2020-08-08T07:08:29.000Z</time>
      </trkpt>
      <trkpt lat="43.70046" lon="3.74224">
        <ele>217</ele>
        <time>2020-08-08T07:08:30.000Z</time>
      </trkpt>
      <trkpt lat="43.70043" lon="3.74223">
        <ele>217</ele>
        <time>2020-08-08T07:08:31.000Z</time>
      </trkpt>
      <trkpt lat="43.70039" lon="3.74222">
        <ele>217</ele>
        <time>2020-08-08T07:08:32.000Z</time>
      </trkpt>
      <trkpt lat="43.70036" lon="3.74221">
        <ele>217</ele>
        <time>2020-08-08T07:08:33.000Z</time>
      </trkpt>
      <trkpt lat="43.70032" lon="3.7422">
        <ele>217</ele>
        <time>2020-08-08T07:08:34.000Z</time>
      </trkpt>
      <trkpt lat="43.70028" lon="3.74219">
        <ele>217</ele>
        <time>2020-08-08T07:08:35.000Z</time>
      </trkpt>
      <trkpt lat="43.70025" lon="3.74217">
        <ele>216.97699968</ele>
        <time>2020-08-08T07:08:36.000Z</time>
      </trkpt>
      <trkpt lat="43.70021" lon="3.74216">
        <ele>216.87699968</ele>
        <time>2020-08-08T07:08:37.000Z</time>
      </trkpt>
      <trkpt lat="43.70017" lon="3.74214">
        <ele>216.77699968</ele>
        <time>2020-08-08T07:08:38.000Z</time>
      </trkpt>
      <trkpt lat="43.70013" lon="3.74213">
        <ele>216.67699968</ele>
        <time>2020-08-08T07:08:39.000Z</time>
      </trkpt>
      <trkpt lat="43.70009" lon="3.74211">
        <ele>216.57699968</ele>
        <time>2020-08-08T07:08:40.000Z</time>
      </trkpt>
      <trkpt lat="43.70005" lon="3.7421">
        <ele>216.47699968</ele>
        <time>2020-08-08T07:08:41.000Z</time>
      </trkpt>
      <trkpt lat="43.70001" lon="3.74209">
        <ele>216.37699968</ele>
        <time>2020-08-08T07:08:42.000Z</time>
      </trkpt>
      <trkpt lat="43.69997" lon="3.74208">
        <ele>216.27699968</ele>
        <time>2020-08-08T07:08:43.000Z</time>
      </trkpt>
      <trkpt lat="43.69994" lon="3.74208">
        <ele>216.17699968</ele>
        <time>2020-08-08T07:08:44.000Z</time>
      </trkpt>
      <trkpt lat="43.69991" lon="3.74208">
        <ele>216.07699968</ele>
        <time>2020-08-08T07:08:45.000Z</time>
      </trkpt>
      <trkpt lat="43.69989" lon="3.74208">
        <ele>216</ele>
        <time>2020-08-08T07:08:46.000Z</time>
      </trkpt>
      <trkpt lat="43.69987" lon="3.74208">
        <ele>216</ele>
        <time>2020-08-08T07:08:47.000Z</time>
      </trkpt>
      <trkpt lat="43.69985" lon="3.74209">
        <ele>216</ele>
        <time>2020-08-08T07:08:48.000Z</time>
      </trkpt>
      <trkpt lat="43.69983" lon="3.74209">
        <ele>216</ele>
        <time>2020-08-08T07:08:49.000Z</time>
      </trkpt>
      <trkpt lat="43.69981" lon="3.74209">
        <ele>216</ele>
        <time>2020-08-08T07:08:51.000Z</time>
      </trkpt>
      <trkpt lat="43.6998" lon="3.74208">
        <ele>216</ele>
        <time>2020-08-08T07:08:58.000Z</time>
      </trkpt>
      <trkpt lat="43.69972" lon="3.74213">
        <ele>216</ele>
        <time>2020-08-08T07:09:10.000Z</time>
      </trkpt>
      <trkpt lat="43.6997" lon="3.74215">
        <ele>216</ele>
        <time>2020-08-08T07:09:11.000Z</time>
      </trkpt>
      <trkpt lat="43.69968" lon="3.74216">
        <ele>216</ele>
        <time>2020-08-08T07:09:12.000Z</time>
      </trkpt>
      <trkpt lat="43.69966" lon="3.74219">
        <ele>216</ele>
        <time>2020-08-08T07:09:13.000Z</time>
      </trkpt>
      <trkpt lat="43.69964" lon="3.74221">
        <ele>216</ele>
        <time>2020-08-08T07:09:14.000Z</time>
      </trkpt>
      <trkpt lat="43.69963" lon="3.74223">
        <ele>216</ele>
        <time>2020-08-08T07:09:15.000Z</time>
      </trkpt>
      <trkpt lat="43.69961" lon="3.74225">
        <ele>216</ele>
        <time>2020-08-08T07:09:16.000Z</time>
      </trkpt>
      <trkpt lat="43.6996" lon="3.74228">
        <ele>216</ele>
        <time>2020-08-08T07:09:18.000Z</time>
      </trkpt>
      <trkpt lat="43.69958" lon="3.7423">
        <ele>216</ele>
        <time>2020-08-08T07:09:20.000Z</time>
      </trkpt>
      <trkpt lat="43.69955" lon="3.74232">
        <ele>216</ele>
        <time>2020-08-08T07:09:22.000Z</time>
      </trkpt>
      <trkpt lat="43.69953" lon="3.74235">
        <ele>216</ele>
        <time>2020-08-08T07:09:24.000Z</time>
      </trkpt>
      <trkpt lat="43.6995" lon="3.74236">
        <ele>216</ele>
        <time>2020-08-08T07:09:26.000Z</time>
      </trkpt>
      <trkpt lat="43.69947" lon="3.74236">
        <ele>216</ele>
        <time>2020-08-08T07:09:28.000Z</time>
      </trkpt>
      <trkpt lat="43.69944" lon="3.74236">
        <ele>216</ele>
        <time>2020-08-08T07:09:30.000Z</time>
      </trkpt>
      <trkpt lat="43.69942" lon="3.74236">
        <ele>215.80532721311</ele>
        <time>2020-08-08T07:09:31.000Z</time>
      </trkpt>
      <trkpt lat="43.69939" lon="3.74235">
        <ele>215.60040918033</ele>
        <time>2020-08-08T07:09:32.000Z</time>
      </trkpt>
      <trkpt lat="43.69937" lon="3.74235">
        <ele>215.39549114754</ele>
        <time>2020-08-08T07:09:33.000Z</time>
      </trkpt>
      <trkpt lat="43.69935" lon="3.74234">
        <ele>215.19057311475</ele>
        <time>2020-08-08T07:09:34.000Z</time>
      </trkpt>
      <trkpt lat="43.69933" lon="3.74233">
        <ele>214.98565508197</ele>
        <time>2020-08-08T07:09:35.000Z</time>
      </trkpt>
      <trkpt lat="43.69931" lon="3.74232">
        <ele>214.78073704918</ele>
        <time>2020-08-08T07:09:36.000Z</time>
      </trkpt>
      <trkpt lat="43.69928" lon="3.7423">
        <ele>214.37090098361</ele>
        <time>2020-08-08T07:09:38.000Z</time>
      </trkpt>
      <trkpt lat="43.69927" lon="3.74226">
        <ele>214</ele>
        <time>2020-08-08T07:09:40.000Z</time>
      </trkpt>
      <trkpt lat="43.69925" lon="3.74222">
        <ele>214</ele>
        <time>2020-08-08T07:09:42.000Z</time>
      </trkpt>
      <trkpt lat="43.69924" lon="3.74218">
        <ele>214</ele>
        <time>2020-08-08T07:09:44.000Z</time>
      </trkpt>
      <trkpt lat="43.69923" lon="3.74214">
        <ele>214</ele>
        <time>2020-08-08T07:09:46.000Z</time>
      </trkpt>
      <trkpt lat="43.69921" lon="3.74211">
        <ele>214</ele>
        <time>2020-08-08T07:09:48.000Z</time>
      </trkpt>
      <trkpt lat="43.69918" lon="3.74207">
        <ele>214</ele>
        <time>2020-08-08T07:09:50.000Z</time>
      </trkpt>
      <trkpt lat="43.69916" lon="3.74204">
        <ele>214</ele>
        <time>2020-08-08T07:09:51.000Z</time>
      </trkpt>
      <trkpt lat="43.69914" lon="3.74202">
        <ele>214</ele>
        <time>2020-08-08T07:09:52.000Z</time>
      </trkpt>
      <trkpt lat="43.69912" lon="3.742">
        <ele>214</ele>
        <time>2020-08-08T07:09:53.000Z</time>
      </trkpt>
      <trkpt lat="43.69911" lon="3.74199">
        <ele>214</ele>
        <time>2020-08-08T07:09:54.000Z</time>
      </trkpt>
      <trkpt lat="43.69908" lon="3.74196">
        <ele>214</ele>
        <time>2020-08-08T07:09:56.000Z</time>
      </trkpt>
      <trkpt lat="43.69907" lon="3.74193">
        <ele>214</ele>
        <time>2020-08-08T07:09:57.000Z</time>
      </trkpt>
      <trkpt lat="43.69906" lon="3.74189">
        <ele>214</ele>
        <time>2020-08-08T07:09:59.000Z</time>
      </trkpt>
      <trkpt lat="43.69905" lon="3.74186">
        <ele>214</ele>
        <time>2020-08-08T07:10:00.000Z</time>
      </trkpt>
      <trkpt lat="43.69904" lon="3.74185">
        <ele>214</ele>
        <time>2020-08-08T07:10:01.000Z</time>
      </trkpt>
      <trkpt lat="43.69902" lon="3.74183">
        <ele>214</ele>
        <time>2020-08-08T07:10:02.000Z</time>
      </trkpt>
      <trkpt lat="43.699" lon="3.74182">
        <ele>214</ele>
        <time>2020-08-08T07:10:04.000Z</time>
      </trkpt>
      <trkpt lat="43.69897" lon="3.74182">
        <ele>214</ele>
        <time>2020-08-08T07:10:06.000Z</time>
      </trkpt>
      <trkpt lat="43.69895" lon="3.74181">
        <ele>214</ele>
        <time>2020-08-08T07:10:07.000Z</time>
      </trkpt>
      <trkpt lat="43.69892" lon="3.74181">
        <ele>214</ele>
        <time>2020-08-08T07:10:08.000Z</time>
      </trkpt>
      <trkpt lat="43.6989" lon="3.7418">
        <ele>214</ele>
        <time>2020-08-08T07:10:09.000Z</time>
      </trkpt>
      <trkpt lat="43.69887" lon="3.7418">
        <ele>214</ele>
        <time>2020-08-08T07:10:10.000Z</time>
      </trkpt>
      <trkpt lat="43.69885" lon="3.7418">
        <ele>214</ele>
        <time>2020-08-08T07:10:11.000Z</time>
      </trkpt>
      <trkpt lat="43.69883" lon="3.7418">
        <ele>214</ele>
        <time>2020-08-08T07:10:12.000Z</time>
      </trkpt>
      <trkpt lat="43.6988" lon="3.7418">
        <ele>214</ele>
        <time>2020-08-08T07:10:13.000Z</time>
      </trkpt>
      <trkpt lat="43.69878" lon="3.7418">
        <ele>214</ele>
        <time>2020-08-08T07:10:14.000Z</time>
      </trkpt>
      <trkpt lat="43.69876" lon="3.7418">
        <ele>214</ele>
        <time>2020-08-08T07:10:15.000Z</time>
      </trkpt>
      <trkpt lat="43.69873" lon="3.74179">
        <ele>214</ele>
        <time>2020-08-08T07:10:16.000Z</time>
      </trkpt>
      <trkpt lat="43.69871" lon="3.74179">
        <ele>214</ele>
        <time>2020-08-08T07:10:17.000Z</time>
      </trkpt>
      <trkpt lat="43.69868" lon="3.74178">
        <ele>214</ele>
        <time>2020-08-08T07:10:18.000Z</time>
      </trkpt>
      <trkpt lat="43.69865" lon="3.74178">
        <ele>214</ele>
        <time>2020-08-08T07:10:19.000Z</time>
      </trkpt>
      <trkpt lat="43.69863" lon="3.74178">
        <ele>214</ele>
        <time>2020-08-08T07:10:20.000Z</time>
      </trkpt>
      <trkpt lat="43.6986" lon="3.74178">
        <ele>214</ele>
        <time>2020-08-08T07:10:21.000Z</time>
      </trkpt>
      <trkpt lat="43.69857" lon="3.74177">
        <ele>214</ele>
        <time>2020-08-08T07:10:22.000Z</time>
      </trkpt>
      <trkpt lat="43.69855" lon="3.74176">
        <ele>214</ele>
        <time>2020-08-08T07:10:23.000Z</time>
      </trkpt>
      <trkpt lat="43.69852" lon="3.74175">
        <ele>214</ele>
        <time>2020-08-08T07:10:24.000Z</time>
      </trkpt>
      <trkpt lat="43.69849" lon="3.74175">
        <ele>214</ele>
        <time>2020-08-08T07:10:25.000Z</time>
      </trkpt>
      <trkpt lat="43.69846" lon="3.74174">
        <ele>214</ele>
        <time>2020-08-08T07:10:26.000Z</time>
      </trkpt>
      <trkpt lat="43.69844" lon="3.74173">
        <ele>214</ele>
        <time>2020-08-08T07:10:27.000Z</time>
      </trkpt>
      <trkpt lat="43.69841" lon="3.74173">
        <ele>214</ele>
        <time>2020-08-08T07:10:28.000Z</time>
      </trkpt>
      <trkpt lat="43.69838" lon="3.74172">
        <ele>214</ele>
        <time>2020-08-08T07:10:29.000Z</time>
      </trkpt>
      <trkpt lat="43.69835" lon="3.74171">
        <ele>214.02237385214</ele>
        <time>2020-08-08T07:10:30.000Z</time>
      </trkpt>
      <trkpt lat="43.69832" lon="3.7417">
        <ele>214.11965011673</ele>
        <time>2020-08-08T07:10:31.000Z</time>
      </trkpt>
      <trkpt lat="43.6983" lon="3.74169">
        <ele>214.21692638132</ele>
        <time>2020-08-08T07:10:32.000Z</time>
      </trkpt>
      <trkpt lat="43.69827" lon="3.74168">
        <ele>214.31420264591</ele>
        <time>2020-08-08T07:10:33.000Z</time>
      </trkpt>
      <trkpt lat="43.69825" lon="3.74167">
        <ele>214.41147891051</ele>
        <time>2020-08-08T07:10:34.000Z</time>
      </trkpt>
      <trkpt lat="43.69823" lon="3.74165">
        <ele>214.5087551751</ele>
        <time>2020-08-08T07:10:35.000Z</time>
      </trkpt>
      <trkpt lat="43.69822" lon="3.74162">
        <ele>214.60603143969</ele>
        <time>2020-08-08T07:10:36.000Z</time>
      </trkpt>
      <trkpt lat="43.69821" lon="3.7416">
        <ele>214.70330770428</ele>
        <time>2020-08-08T07:10:37.000Z</time>
      </trkpt>
      <trkpt lat="43.69822" lon="3.74156">
        <ele>214.80058396887</ele>
        <time>2020-08-08T07:10:38.000Z</time>
      </trkpt>
      <trkpt lat="43.69822" lon="3.74153">
        <ele>214.89786023346</ele>
        <time>2020-08-08T07:10:39.000Z</time>
      </trkpt>
      <trkpt lat="43.69822" lon="3.74149">
        <ele>214.99513649805</ele>
        <time>2020-08-08T07:10:40.000Z</time>
      </trkpt>
      <trkpt lat="43.69822" lon="3.74145">
        <ele>215</ele>
        <time>2020-08-08T07:10:41.000Z</time>
      </trkpt>
      <trkpt lat="43.69823" lon="3.74141">
        <ele>215</ele>
        <time>2020-08-08T07:10:42.000Z</time>
      </trkpt>
      <trkpt lat="43.69823" lon="3.74137">
        <ele>215</ele>
        <time>2020-08-08T07:10:43.000Z</time>
      </trkpt>
      <trkpt lat="43.69824" lon="3.74132">
        <ele>215</ele>
        <time>2020-08-08T07:10:44.000Z</time>
      </trkpt>
      <trkpt lat="43.69824" lon="3.74127">
        <ele>215</ele>
        <time>2020-08-08T07:10:45.000Z</time>
      </trkpt>
      <trkpt lat="43.69824" lon="3.74122">
        <ele>215</ele>
        <time>2020-08-08T07:10:46.000Z</time>
      </trkpt>
      <trkpt lat="43.69824" lon="3.74118">
        <ele>215</ele>
        <time>2020-08-08T07:10:47.000Z</time>
      </trkpt>
      <trkpt lat="43.69824" lon="3.74113">
        <ele>215</ele>
        <time>2020-08-08T07:10:48.000Z</time>
      </trkpt>
      <trkpt lat="43.69824" lon="3.74108">
        <ele>215</ele>
        <time>2020-08-08T07:10:49.000Z</time>
      </trkpt>
      <trkpt lat="43.69824" lon="3.74103">
        <ele>215.02202265561</ele>
        <time>2020-08-08T07:10:50.000Z</time>
      </trkpt>
      <trkpt lat="43.69825" lon="3.74098">
        <ele>215.12212272364</ele>
        <time>2020-08-08T07:10:51.000Z</time>
      </trkpt>
      <trkpt lat="43.69825" lon="3.74093">
        <ele>215.22222279168</ele>
        <time>2020-08-08T07:10:52.000Z</time>
      </trkpt>
      <trkpt lat="43.69826" lon="3.74088">
        <ele>215.32232285972</ele>
        <time>2020-08-08T07:10:53.000Z</time>
      </trkpt>
      <trkpt lat="43.69826" lon="3.74083">
        <ele>215.42242292775</ele>
        <time>2020-08-08T07:10:54.000Z</time>
      </trkpt>
      <trkpt lat="43.69827" lon="3.74078">
        <ele>215.52252299579</ele>
        <time>2020-08-08T07:10:55.000Z</time>
      </trkpt>
      <trkpt lat="43.69827" lon="3.74073">
        <ele>215.62262306382</ele>
        <time>2020-08-08T07:10:56.000Z</time>
      </trkpt>
      <trkpt lat="43.69827" lon="3.74069">
        <ele>215.72272313186</ele>
        <time>2020-08-08T07:10:57.000Z</time>
      </trkpt>
      <trkpt lat="43.69827" lon="3.74065">
        <ele>215.8228231999</ele>
        <time>2020-08-08T07:10:58.000Z</time>
      </trkpt>
      <trkpt lat="43.69828" lon="3.7406">
        <ele>215.92292326793</ele>
        <time>2020-08-08T07:10:59.000Z</time>
      </trkpt>
      <trkpt lat="43.69828" lon="3.74055">
        <ele>216.04514291026</ele>
        <time>2020-08-08T07:11:00.000Z</time>
      </trkpt>
      <trkpt lat="43.69829" lon="3.74051">
        <ele>216.2414137024</ele>
        <time>2020-08-08T07:11:01.000Z</time>
      </trkpt>
      <trkpt lat="43.69829" lon="3.74047">
        <ele>216.43768449455</ele>
        <time>2020-08-08T07:11:02.000Z</time>
      </trkpt>
      <trkpt lat="43.69829" lon="3.74042">
        <ele>216.63395528669</ele>
        <time>2020-08-08T07:11:03.000Z</time>
      </trkpt>
      <trkpt lat="43.6983" lon="3.74038">
        <ele>216.83022607883</ele>
        <time>2020-08-08T07:11:04.000Z</time>
      </trkpt>
      <trkpt lat="43.69831" lon="3.74033">
        <ele>217.02649687097</ele>
        <time>2020-08-08T07:11:05.000Z</time>
      </trkpt>
      <trkpt lat="43.69831" lon="3.74029">
        <ele>217.22276766312</ele>
        <time>2020-08-08T07:11:06.000Z</time>
      </trkpt>
      <trkpt lat="43.69832" lon="3.74025">
        <ele>217.41903845526</ele>
        <time>2020-08-08T07:11:07.000Z</time>
      </trkpt>
      <trkpt lat="43.69832" lon="3.74021">
        <ele>217.6153092474</ele>
        <time>2020-08-08T07:11:08.000Z</time>
      </trkpt>
      <trkpt lat="43.69832" lon="3.74018">
        <ele>217.81158003954</ele>
        <time>2020-08-08T07:11:09.000Z</time>
      </trkpt>
      <trkpt lat="43.69832" lon="3.74014">
        <ele>218.00406091503</ele>
        <time>2020-08-08T07:11:10.000Z</time>
      </trkpt>
      <trkpt lat="43.69833" lon="3.7401">
        <ele>218.10558379065</ele>
        <time>2020-08-08T07:11:11.000Z</time>
      </trkpt>
      <trkpt lat="43.69832" lon="3.74007">
        <ele>218.20710666627</ele>
        <time>2020-08-08T07:11:12.000Z</time>
      </trkpt>
      <trkpt lat="43.69832" lon="3.74003">
        <ele>218.30862954189</ele>
        <time>2020-08-08T07:11:13.000Z</time>
      </trkpt>
      <trkpt lat="43.69831" lon="3.74">
        <ele>218.41015241751</ele>
        <time>2020-08-08T07:11:14.000Z</time>
      </trkpt>
      <trkpt lat="43.6983" lon="3.73996">
        <ele>218.51167529313</ele>
        <time>2020-08-08T07:11:15.000Z</time>
      </trkpt>
      <trkpt lat="43.69828" lon="3.73994">
        <ele>218.61319816875</ele>
        <time>2020-08-08T07:11:16.000Z</time>
      </trkpt>
      <trkpt lat="43.69826" lon="3.73992">
        <ele>218.71472104438</ele>
        <time>2020-08-08T07:11:17.000Z</time>
      </trkpt>
      <trkpt lat="43.69824" lon="3.7399">
        <ele>218.81624392</ele>
        <time>2020-08-08T07:11:18.000Z</time>
      </trkpt>
      <trkpt lat="43.69822" lon="3.73989">
        <ele>218.91776679562</ele>
        <time>2020-08-08T07:11:19.000Z</time>
      </trkpt>
      <trkpt lat="43.69819" lon="3.73988">
        <ele>219.03815325301</ele>
        <time>2020-08-08T07:11:20.000Z</time>
      </trkpt>
      <trkpt lat="43.69817" lon="3.73988">
        <ele>219.23895646586</ele>
        <time>2020-08-08T07:11:21.000Z</time>
      </trkpt>
      <trkpt lat="43.69814" lon="3.73989">
        <ele>219.43975967872</ele>
        <time>2020-08-08T07:11:22.000Z</time>
      </trkpt>
      <trkpt lat="43.69812" lon="3.73989">
        <ele>219.64056289157</ele>
        <time>2020-08-08T07:11:23.000Z</time>
      </trkpt>
      <trkpt lat="43.69809" lon="3.73989">
        <ele>219.84136610442</ele>
        <time>2020-08-08T07:11:24.000Z</time>
      </trkpt>
      <trkpt lat="43.69807" lon="3.7399">
        <ele>220.04216931727</ele>
        <time>2020-08-08T07:11:25.000Z</time>
      </trkpt>
      <trkpt lat="43.69805" lon="3.7399">
        <ele>220.24297253012</ele>
        <time>2020-08-08T07:11:26.000Z</time>
      </trkpt>
      <trkpt lat="43.69803" lon="3.7399">
        <ele>220.44377574297</ele>
        <time>2020-08-08T07:11:27.000Z</time>
      </trkpt>
      <trkpt lat="43.69801" lon="3.7399">
        <ele>220.64457895582</ele>
        <time>2020-08-08T07:11:28.000Z</time>
      </trkpt>
      <trkpt lat="43.69799" lon="3.7399">
        <ele>220.84538216868</ele>
        <time>2020-08-08T07:11:29.000Z</time>
      </trkpt>
      <trkpt lat="43.69797" lon="3.73991">
        <ele>221.04600064</ele>
        <time>2020-08-08T07:11:30.000Z</time>
      </trkpt>
      <trkpt lat="43.69794" lon="3.73991">
        <ele>221.24600064</ele>
        <time>2020-08-08T07:11:31.000Z</time>
      </trkpt>
      <trkpt lat="43.69792" lon="3.73991">
        <ele>221.44600064</ele>
        <time>2020-08-08T07:11:32.000Z</time>
      </trkpt>
      <trkpt lat="43.6979" lon="3.73992">
        <ele>221.64600064</ele>
        <time>2020-08-08T07:11:33.000Z</time>
      </trkpt>
      <trkpt lat="43.69788" lon="3.73991">
        <ele>221.84600064</ele>
        <time>2020-08-08T07:11:34.000Z</time>
      </trkpt>
      <trkpt lat="43.69786" lon="3.73991">
        <ele>222.04600064</ele>
        <time>2020-08-08T07:11:35.000Z</time>
      </trkpt>
      <trkpt lat="43.69785" lon="3.73991">
        <ele>222.24600064</ele>
        <time>2020-08-08T07:11:36.000Z</time>
      </trkpt>
      <trkpt lat="43.69783" lon="3.7399">
        <ele>222.44600064</ele>
        <time>2020-08-08T07:11:37.000Z</time>
      </trkpt>
      <trkpt lat="43.69781" lon="3.73989">
        <ele>222.64600064</ele>
        <time>2020-08-08T07:11:38.000Z</time>
      </trkpt>
      <trkpt lat="43.69779" lon="3.73988">
        <ele>222.84600064</ele>
        <time>2020-08-08T07:11:39.000Z</time>
      </trkpt>
      <trkpt lat="43.69777" lon="3.73986">
        <ele>223.02300032</ele>
        <time>2020-08-08T07:11:40.000Z</time>
      </trkpt>
      <trkpt lat="43.69775" lon="3.73985">
        <ele>223.12300032</ele>
        <time>2020-08-08T07:11:41.000Z</time>
      </trkpt>
      <trkpt lat="43.69772" lon="3.73983">
        <ele>223.22300032</ele>
        <time>2020-08-08T07:11:42.000Z</time>
      </trkpt>
      <trkpt lat="43.6977" lon="3.73983">
        <ele>223.32300032</ele>
        <time>2020-08-08T07:11:43.000Z</time>
      </trkpt>
      <trkpt lat="43.69768" lon="3.73982">
        <ele>223.42300032</ele>
        <time>2020-08-08T07:11:44.000Z</time>
      </trkpt>
      <trkpt lat="43.69765" lon="3.73981">
        <ele>223.52300032</ele>
        <time>2020-08-08T07:11:45.000Z</time>
      </trkpt>
      <trkpt lat="43.69763" lon="3.73979">
        <ele>223.62300032</ele>
        <time>2020-08-08T07:11:46.000Z</time>
      </trkpt>
      <trkpt lat="43.69761" lon="3.73978">
        <ele>223.72300032</ele>
        <time>2020-08-08T07:11:47.000Z</time>
      </trkpt>
      <trkpt lat="43.69758" lon="3.73977">
        <ele>223.82300032</ele>
        <time>2020-08-08T07:11:48.000Z</time>
      </trkpt>
      <trkpt lat="43.69756" lon="3.73976">
        <ele>223.92300032</ele>
        <time>2020-08-08T07:11:49.000Z</time>
      </trkpt>
      <trkpt lat="43.69753" lon="3.73974">
        <ele>224.02300032</ele>
        <time>2020-08-08T07:11:50.000Z</time>
      </trkpt>
      <trkpt lat="43.69751" lon="3.73973">
        <ele>224.12300032</ele>
        <time>2020-08-08T07:11:51.000Z</time>
      </trkpt>
      <trkpt lat="43.69749" lon="3.73972">
        <ele>224.22300032</ele>
        <time>2020-08-08T07:11:52.000Z</time>
      </trkpt>
      <trkpt lat="43.69746" lon="3.73972">
        <ele>224.32300032</ele>
        <time>2020-08-08T07:11:53.000Z</time>
      </trkpt>
      <trkpt lat="43.69744" lon="3.73971">
        <ele>224.42300032</ele>
        <time>2020-08-08T07:11:54.000Z</time>
      </trkpt>
      <trkpt lat="43.69742" lon="3.7397">
        <ele>224.52300032</ele>
        <time>2020-08-08T07:11:55.000Z</time>
      </trkpt>
      <trkpt lat="43.69739" lon="3.73969">
        <ele>224.62300032</ele>
        <time>2020-08-08T07:11:56.000Z</time>
      </trkpt>
      <trkpt lat="43.69737" lon="3.73968">
        <ele>224.72300032</ele>
        <time>2020-08-08T07:11:57.000Z</time>
      </trkpt>
      <trkpt lat="43.69735" lon="3.73967">
        <ele>224.82300032</ele>
        <time>2020-08-08T07:11:58.000Z</time>
      </trkpt>
      <trkpt lat="43.69732" lon="3.73966">
        <ele>224.92300032</ele>
        <time>2020-08-08T07:11:59.000Z</time>
      </trkpt>
      <trkpt lat="43.6973" lon="3.73965">
        <ele>225.02300032</ele>
        <time>2020-08-08T07:12:00.000Z</time>
      </trkpt>
      <trkpt lat="43.69727" lon="3.73965">
        <ele>225.12300032</ele>
        <time>2020-08-08T07:12:01.000Z</time>
      </trkpt>
      <trkpt lat="43.69725" lon="3.73964">
        <ele>225.22300032</ele>
        <time>2020-08-08T07:12:02.000Z</time>
      </trkpt>
      <trkpt lat="43.69722" lon="3.73963">
        <ele>225.32300032</ele>
        <time>2020-08-08T07:12:03.000Z</time>
      </trkpt>
      <trkpt lat="43.6972" lon="3.73962">
        <ele>225.42300032</ele>
        <time>2020-08-08T07:12:04.000Z</time>
      </trkpt>
      <trkpt lat="43.69717" lon="3.7396">
        <ele>225.52300032</ele>
        <time>2020-08-08T07:12:05.000Z</time>
      </trkpt>
      <trkpt lat="43.69715" lon="3.73959">
        <ele>225.62300032</ele>
        <time>2020-08-08T07:12:06.000Z</time>
      </trkpt>
      <trkpt lat="43.69712" lon="3.73957">
        <ele>225.72300032</ele>
        <time>2020-08-08T07:12:07.000Z</time>
      </trkpt>
      <trkpt lat="43.6971" lon="3.73956">
        <ele>225.82300032</ele>
        <time>2020-08-08T07:12:08.000Z</time>
      </trkpt>
      <trkpt lat="43.69707" lon="3.73955">
        <ele>225.92300032</ele>
        <time>2020-08-08T07:12:09.000Z</time>
      </trkpt>
      <trkpt lat="43.69704" lon="3.73953">
        <ele>226</ele>
        <time>2020-08-08T07:12:10.000Z</time>
      </trkpt>
      <trkpt lat="43.69702" lon="3.73951">
        <ele>226</ele>
        <time>2020-08-08T07:12:11.000Z</time>
      </trkpt>
      <trkpt lat="43.69699" lon="3.7395">
        <ele>226</ele>
        <time>2020-08-08T07:12:12.000Z</time>
      </trkpt>
      <trkpt lat="43.69696" lon="3.73948">
        <ele>226</ele>
        <time>2020-08-08T07:12:13.000Z</time>
      </trkpt>
      <trkpt lat="43.69693" lon="3.73945">
        <ele>226</ele>
        <time>2020-08-08T07:12:14.000Z</time>
      </trkpt>
      <trkpt lat="43.69691" lon="3.73943">
        <ele>226</ele>
        <time>2020-08-08T07:12:15.000Z</time>
      </trkpt>
      <trkpt lat="43.69688" lon="3.7394">
        <ele>226</ele>
        <time>2020-08-08T07:12:16.000Z</time>
      </trkpt>
      <trkpt lat="43.69686" lon="3.73938">
        <ele>226</ele>
        <time>2020-08-08T07:12:17.000Z</time>
      </trkpt>
      <trkpt lat="43.69683" lon="3.73936">
        <ele>226</ele>
        <time>2020-08-08T07:12:18.000Z</time>
      </trkpt>
      <trkpt lat="43.69681" lon="3.73935">
        <ele>226</ele>
        <time>2020-08-08T07:12:19.000Z</time>
      </trkpt>
      <trkpt lat="43.69678" lon="3.73933">
        <ele>226</ele>
        <time>2020-08-08T07:12:20.000Z</time>
      </trkpt>
      <trkpt lat="43.69676" lon="3.73931">
        <ele>226.09723667006</ele>
        <time>2020-08-08T07:12:21.000Z</time>
      </trkpt>
      <trkpt lat="43.69674" lon="3.73929">
        <ele>226.19959071483</ele>
        <time>2020-08-08T07:12:22.000Z</time>
      </trkpt>
      <trkpt lat="43.69672" lon="3.73927">
        <ele>226.3019447596</ele>
        <time>2020-08-08T07:12:23.000Z</time>
      </trkpt>
      <trkpt lat="43.6967" lon="3.73925">
        <ele>226.40429880437</ele>
        <time>2020-08-08T07:12:24.000Z</time>
      </trkpt>
      <trkpt lat="43.69667" lon="3.73924">
        <ele>226.50665284914</ele>
        <time>2020-08-08T07:12:25.000Z</time>
      </trkpt>
      <trkpt lat="43.69665" lon="3.73922">
        <ele>226.60900689391</ele>
        <time>2020-08-08T07:12:26.000Z</time>
      </trkpt>
      <trkpt lat="43.69663" lon="3.7392">
        <ele>226.71136093868</ele>
        <time>2020-08-08T07:12:27.000Z</time>
      </trkpt>
      <trkpt lat="43.6966" lon="3.73918">
        <ele>226.81371498345</ele>
        <time>2020-08-08T07:12:28.000Z</time>
      </trkpt>
      <trkpt lat="43.69658" lon="3.73916">
        <ele>226.91606902822</ele>
        <time>2020-08-08T07:12:29.000Z</time>
      </trkpt>
      <trkpt lat="43.69656" lon="3.73914">
        <ele>227.035155</ele>
        <time>2020-08-08T07:12:30.000Z</time>
      </trkpt>
      <trkpt lat="43.69653" lon="3.73913">
        <ele>227.2304675</ele>
        <time>2020-08-08T07:12:31.000Z</time>
      </trkpt>
      <trkpt lat="43.69651" lon="3.73911">
        <ele>227.42578</ele>
        <time>2020-08-08T07:12:32.000Z</time>
      </trkpt>
      <trkpt lat="43.69649" lon="3.73909">
        <ele>227.6210925</ele>
        <time>2020-08-08T07:12:33.000Z</time>
      </trkpt>
      <trkpt lat="43.69646" lon="3.73907">
        <ele>227.816405</ele>
        <time>2020-08-08T07:12:34.000Z</time>
      </trkpt>
      <trkpt lat="43.69644" lon="3.73905">
        <ele>228.0117175</ele>
        <time>2020-08-08T07:12:35.000Z</time>
      </trkpt>
      <trkpt lat="43.69642" lon="3.73903">
        <ele>228.20703</ele>
        <time>2020-08-08T07:12:36.000Z</time>
      </trkpt>
      <trkpt lat="43.6964" lon="3.73901">
        <ele>228.4023425</ele>
        <time>2020-08-08T07:12:37.000Z</time>
      </trkpt>
      <trkpt lat="43.69638" lon="3.739">
        <ele>228.597655</ele>
        <time>2020-08-08T07:12:38.000Z</time>
      </trkpt>
      <trkpt lat="43.69636" lon="3.73898">
        <ele>228.7929675</ele>
        <time>2020-08-08T07:12:39.000Z</time>
      </trkpt>
      <trkpt lat="43.69634" lon="3.73895">
        <ele>228.98828</ele>
        <time>2020-08-08T07:12:40.000Z</time>
      </trkpt>
      <trkpt lat="43.69633" lon="3.73892">
        <ele>229.09371829508</ele>
        <time>2020-08-08T07:12:41.000Z</time>
      </trkpt>
      <trkpt lat="43.69633" lon="3.73889">
        <ele>229.19341928782</ele>
        <time>2020-08-08T07:12:42.000Z</time>
      </trkpt>
      <trkpt lat="43.69634" lon="3.73886">
        <ele>229.29312028055</ele>
        <time>2020-08-08T07:12:43.000Z</time>
      </trkpt>
      <trkpt lat="43.69635" lon="3.73883">
        <ele>229.39282127329</ele>
        <time>2020-08-08T07:12:44.000Z</time>
      </trkpt>
      <trkpt lat="43.69637" lon="3.73881">
        <ele>229.49252226602</ele>
        <time>2020-08-08T07:12:45.000Z</time>
      </trkpt>
      <trkpt lat="43.69639" lon="3.73881">
        <ele>229.59222325876</ele>
        <time>2020-08-08T07:12:46.000Z</time>
      </trkpt>
      <trkpt lat="43.69642" lon="3.73882">
        <ele>229.69192425149</ele>
        <time>2020-08-08T07:12:47.000Z</time>
      </trkpt>
      <trkpt lat="43.69644" lon="3.73883">
        <ele>229.79162524423</ele>
        <time>2020-08-08T07:12:48.000Z</time>
      </trkpt>
      <trkpt lat="43.69646" lon="3.73883">
        <ele>229.89132623696</ele>
        <time>2020-08-08T07:12:49.000Z</time>
      </trkpt>
      <trkpt lat="43.69649" lon="3.73884">
        <ele>229.9910272297</ele>
        <time>2020-08-08T07:12:50.000Z</time>
      </trkpt>
      <trkpt lat="43.69651" lon="3.73885">
        <ele>230.09400859504</ele>
        <time>2020-08-08T07:12:51.000Z</time>
      </trkpt>
      <trkpt lat="43.69653" lon="3.73886">
        <ele>230.19731438017</ele>
        <time>2020-08-08T07:12:52.000Z</time>
      </trkpt>
      <trkpt lat="43.69655" lon="3.73888">
        <ele>230.30062016529</ele>
        <time>2020-08-08T07:12:53.000Z</time>
      </trkpt>
      <trkpt lat="43.69658" lon="3.73889">
        <ele>230.40392595041</ele>
        <time>2020-08-08T07:12:54.000Z</time>
      </trkpt>
      <trkpt lat="43.6966" lon="3.73891">
        <ele>230.50723173554</ele>
        <time>2020-08-08T07:12:55.000Z</time>
      </trkpt>
      <trkpt lat="43.69662" lon="3.73892">
        <ele>230.61053752066</ele>
        <time>2020-08-08T07:12:56.000Z</time>
      </trkpt>
      <trkpt lat="43.69664" lon="3.73893">
        <ele>230.71384330578</ele>
        <time>2020-08-08T07:12:57.000Z</time>
      </trkpt>
      <trkpt lat="43.69666" lon="3.73894">
        <ele>230.81714909091</ele>
        <time>2020-08-08T07:12:58.000Z</time>
      </trkpt>
      <trkpt lat="43.69668" lon="3.73896">
        <ele>230.92045487603</ele>
        <time>2020-08-08T07:12:59.000Z</time>
      </trkpt>
      <trkpt lat="43.6967" lon="3.73897">
        <ele>231.02300032</ele>
        <time>2020-08-08T07:13:00.000Z</time>
      </trkpt>
      <trkpt lat="43.69672" lon="3.73898">
        <ele>231.12300032</ele>
        <time>2020-08-08T07:13:01.000Z</time>
      </trkpt>
      <trkpt lat="43.69675" lon="3.739">
        <ele>231.22300032</ele>
        <time>2020-08-08T07:13:02.000Z</time>
      </trkpt>
      <trkpt lat="43.69677" lon="3.73902">
        <ele>231.32300032</ele>
        <time>2020-08-08T07:13:03.000Z</time>
      </trkpt>
      <trkpt lat="43.69679" lon="3.73904">
        <ele>231.42300032</ele>
        <time>2020-08-08T07:13:04.000Z</time>
      </trkpt>
      <trkpt lat="43.69681" lon="3.73905">
        <ele>231.52300032</ele>
        <time>2020-08-08T07:13:05.000Z</time>
      </trkpt>
      <trkpt lat="43.69684" lon="3.73906">
        <ele>231.62300032</ele>
        <time>2020-08-08T07:13:06.000Z</time>
      </trkpt>
      <trkpt lat="43.69686" lon="3.73908">
        <ele>231.72300032</ele>
        <time>2020-08-08T07:13:07.000Z</time>
      </trkpt>
      <trkpt lat="43.69688" lon="3.73909">
        <ele>231.82300032</ele>
        <time>2020-08-08T07:13:08.000Z</time>
      </trkpt>
      <trkpt lat="43.69691" lon="3.7391">
        <ele>231.92300032</ele>
        <time>2020-08-08T07:13:09.000Z</time>
      </trkpt>
      <trkpt lat="43.69693" lon="3.73912">
        <ele>232.02295439652</ele>
        <time>2020-08-08T07:13:10.000Z</time>
      </trkpt>
      <trkpt lat="43.69695" lon="3.73913">
        <ele>232.12275473197</ele>
        <time>2020-08-08T07:13:11.000Z</time>
      </trkpt>
      <trkpt lat="43.69697" lon="3.73914">
        <ele>232.22255506743</ele>
        <time>2020-08-08T07:13:12.000Z</time>
      </trkpt>
      <trkpt lat="43.69699" lon="3.73915">
        <ele>232.32235540289</ele>
        <time>2020-08-08T07:13:13.000Z</time>
      </trkpt>
      <trkpt lat="43.69701" lon="3.73916">
        <ele>232.42215573834</ele>
        <time>2020-08-08T07:13:14.000Z</time>
      </trkpt>
      <trkpt lat="43.69703" lon="3.73918">
        <ele>232.5219560738</ele>
        <time>2020-08-08T07:13:15.000Z</time>
      </trkpt>
      <trkpt lat="43.69705" lon="3.73919">
        <ele>232.62175640926</ele>
        <time>2020-08-08T07:13:16.000Z</time>
      </trkpt>
      <trkpt lat="43.69707" lon="3.73921">
        <ele>232.72155674471</ele>
        <time>2020-08-08T07:13:17.000Z</time>
      </trkpt>
      <trkpt lat="43.6971" lon="3.73922">
        <ele>232.82135708017</ele>
        <time>2020-08-08T07:13:18.000Z</time>
      </trkpt>
      <trkpt lat="43.69712" lon="3.73922">
        <ele>232.92115741563</ele>
        <time>2020-08-08T07:13:19.000Z</time>
      </trkpt>
      <trkpt lat="43.69714" lon="3.73923">
        <ele>233.02104177702</ele>
        <time>2020-08-08T07:13:20.000Z</time>
      </trkpt>
      <trkpt lat="43.69716" lon="3.73924">
        <ele>233.12124224208</ele>
        <time>2020-08-08T07:13:21.000Z</time>
      </trkpt>
      <trkpt lat="43.69718" lon="3.73924">
        <ele>233.22144270714</ele>
        <time>2020-08-08T07:13:22.000Z</time>
      </trkpt>
      <trkpt lat="43.6972" lon="3.73925">
        <ele>233.3216431722</ele>
        <time>2020-08-08T07:13:23.000Z</time>
      </trkpt>
      <trkpt lat="43.69723" lon="3.73926">
        <ele>233.42184363725</ele>
        <time>2020-08-08T07:13:24.000Z</time>
      </trkpt>
      <trkpt lat="43.69725" lon="3.73926">
        <ele>233.52204410231</ele>
        <time>2020-08-08T07:13:25.000Z</time>
      </trkpt>
      <trkpt lat="43.69728" lon="3.73927">
        <ele>233.62224456737</ele>
        <time>2020-08-08T07:13:26.000Z</time>
      </trkpt>
      <trkpt lat="43.6973" lon="3.73928">
        <ele>233.72244503243</ele>
        <time>2020-08-08T07:13:27.000Z</time>
      </trkpt>
      <trkpt lat="43.69732" lon="3.73928">
        <ele>233.82264549749</ele>
        <time>2020-08-08T07:13:28.000Z</time>
      </trkpt>
      <trkpt lat="43.69734" lon="3.73928">
        <ele>233.92284596255</ele>
        <time>2020-08-08T07:13:29.000Z</time>
      </trkpt>
      <trkpt lat="43.69736" lon="3.73928">
        <ele>234.02250519139</ele>
        <time>2020-08-08T07:13:30.000Z</time>
      </trkpt>
      <trkpt lat="43.69739" lon="3.73929">
        <ele>234.12035248823</ele>
        <time>2020-08-08T07:13:31.000Z</time>
      </trkpt>
      <trkpt lat="43.69741" lon="3.73929">
        <ele>234.21819978508</ele>
        <time>2020-08-08T07:13:32.000Z</time>
      </trkpt>
      <trkpt lat="43.69744" lon="3.7393">
        <ele>234.31604708193</ele>
        <time>2020-08-08T07:13:33.000Z</time>
      </trkpt>
      <trkpt lat="43.69746" lon="3.7393">
        <ele>234.41389437878</ele>
        <time>2020-08-08T07:13:34.000Z</time>
      </trkpt>
      <trkpt lat="43.69748" lon="3.7393">
        <ele>234.51174167562</ele>
        <time>2020-08-08T07:13:35.000Z</time>
      </trkpt>
      <trkpt lat="43.6975" lon="3.7393">
        <ele>234.60958897247</ele>
        <time>2020-08-08T07:13:36.000Z</time>
      </trkpt>
      <trkpt lat="43.69753" lon="3.7393">
        <ele>234.70743626932</ele>
        <time>2020-08-08T07:13:37.000Z</time>
      </trkpt>
      <trkpt lat="43.69755" lon="3.7393">
        <ele>234.80528356616</ele>
        <time>2020-08-08T07:13:38.000Z</time>
      </trkpt>
      <trkpt lat="43.69758" lon="3.7393">
        <ele>234.90313086301</ele>
        <time>2020-08-08T07:13:39.000Z</time>
      </trkpt>
      <trkpt lat="43.6976" lon="3.7393">
        <ele>235.00101800474</ele>
        <time>2020-08-08T07:13:40.000Z</time>
      </trkpt>
      <trkpt lat="43.69762" lon="3.73929">
        <ele>235.102851065</ele>
        <time>2020-08-08T07:13:41.000Z</time>
      </trkpt>
      <trkpt lat="43.69765" lon="3.73929">
        <ele>235.20468412525</ele>
        <time>2020-08-08T07:13:42.000Z</time>
      </trkpt>
      <trkpt lat="43.69767" lon="3.73929">
        <ele>235.30651718551</ele>
        <time>2020-08-08T07:13:43.000Z</time>
      </trkpt>
      <trkpt lat="43.6977" lon="3.73929">
        <ele>235.40835024577</ele>
        <time>2020-08-08T07:13:44.000Z</time>
      </trkpt>
      <trkpt lat="43.69772" lon="3.73928">
        <ele>235.51018330603</ele>
        <time>2020-08-08T07:13:45.000Z</time>
      </trkpt>
      <trkpt lat="43.69775" lon="3.73928">
        <ele>235.61201636628</ele>
        <time>2020-08-08T07:13:46.000Z</time>
      </trkpt>
      <trkpt lat="43.69777" lon="3.73927">
        <ele>235.71384942654</ele>
        <time>2020-08-08T07:13:47.000Z</time>
      </trkpt>
      <trkpt lat="43.6978" lon="3.73926">
        <ele>235.8156824868</ele>
        <time>2020-08-08T07:13:48.000Z</time>
      </trkpt>
      <trkpt lat="43.69782" lon="3.73925">
        <ele>235.91751554706</ele>
        <time>2020-08-08T07:13:49.000Z</time>
      </trkpt>
      <trkpt lat="43.69785" lon="3.73923">
        <ele>236.01907662651</ele>
        <time>2020-08-08T07:13:50.000Z</time>
      </trkpt>
      <trkpt lat="43.69787" lon="3.73922">
        <ele>236.11947823293</ele>
        <time>2020-08-08T07:13:51.000Z</time>
      </trkpt>
      <trkpt lat="43.6979" lon="3.7392">
        <ele>236.21987983936</ele>
        <time>2020-08-08T07:13:52.000Z</time>
      </trkpt>
      <trkpt lat="43.69792" lon="3.73918">
        <ele>236.32028144578</ele>
        <time>2020-08-08T07:13:53.000Z</time>
      </trkpt>
      <trkpt lat="43.69794" lon="3.73915">
        <ele>236.42068305221</ele>
        <time>2020-08-08T07:13:54.000Z</time>
      </trkpt>
      <trkpt lat="43.69796" lon="3.73912">
        <ele>236.52108465864</ele>
        <time>2020-08-08T07:13:55.000Z</time>
      </trkpt>
      <trkpt lat="43.69798" lon="3.73908">
        <ele>236.62148626506</ele>
        <time>2020-08-08T07:13:56.000Z</time>
      </trkpt>
      <trkpt lat="43.69799" lon="3.73904">
        <ele>236.72188787149</ele>
        <time>2020-08-08T07:13:57.000Z</time>
      </trkpt>
      <trkpt lat="43.698" lon="3.739">
        <ele>236.82228947791</ele>
        <time>2020-08-08T07:13:58.000Z</time>
      </trkpt>
      <trkpt lat="43.698" lon="3.73896">
        <ele>236.92269108434</ele>
        <time>2020-08-08T07:13:59.000Z</time>
      </trkpt>
      <trkpt lat="43.69801" lon="3.73893">
        <ele>237.02300032</ele>
        <time>2020-08-08T07:14:00.000Z</time>
      </trkpt>
      <trkpt lat="43.69801" lon="3.73889">
        <ele>237.12300032</ele>
        <time>2020-08-08T07:14:01.000Z</time>
      </trkpt>
      <trkpt lat="43.69801" lon="3.73885">
        <ele>237.22300032</ele>
        <time>2020-08-08T07:14:02.000Z</time>
      </trkpt>
      <trkpt lat="43.698" lon="3.73881">
        <ele>237.32300032</ele>
        <time>2020-08-08T07:14:03.000Z</time>
      </trkpt>
      <trkpt lat="43.698" lon="3.73878">
        <ele>237.42300032</ele>
        <time>2020-08-08T07:14:04.000Z</time>
      </trkpt>
      <trkpt lat="43.69799" lon="3.73875">
        <ele>237.52300032</ele>
        <time>2020-08-08T07:14:05.000Z</time>
      </trkpt>
      <trkpt lat="43.69799" lon="3.73872">
        <ele>237.62300032</ele>
        <time>2020-08-08T07:14:06.000Z</time>
      </trkpt>
      <trkpt lat="43.69798" lon="3.73869">
        <ele>237.72300032</ele>
        <time>2020-08-08T07:14:07.000Z</time>
      </trkpt>
      <trkpt lat="43.69798" lon="3.73866">
        <ele>237.82300032</ele>
        <time>2020-08-08T07:14:08.000Z</time>
      </trkpt>
      <trkpt lat="43.69799" lon="3.73863">
        <ele>237.92300032</ele>
        <time>2020-08-08T07:14:09.000Z</time>
      </trkpt>
      <trkpt lat="43.698" lon="3.7386">
        <ele>238.04600064</ele>
        <time>2020-08-08T07:14:10.000Z</time>
      </trkpt>
      <trkpt lat="43.69801" lon="3.73856">
        <ele>238.24600064</ele>
        <time>2020-08-08T07:14:11.000Z</time>
      </trkpt>
      <trkpt lat="43.69802" lon="3.73853">
        <ele>238.44600064</ele>
        <time>2020-08-08T07:14:12.000Z</time>
      </trkpt>
      <trkpt lat="43.69803" lon="3.7385">
        <ele>238.64600064</ele>
        <time>2020-08-08T07:14:13.000Z</time>
      </trkpt>
      <trkpt lat="43.69803" lon="3.73848">
        <ele>238.84600064</ele>
        <time>2020-08-08T07:14:14.000Z</time>
      </trkpt>
      <trkpt lat="43.69804" lon="3.73843">
        <ele>239.24600064</ele>
        <time>2020-08-08T07:14:16.000Z</time>
      </trkpt>
      <trkpt lat="43.69804" lon="3.73839">
        <ele>239.64600064</ele>
        <time>2020-08-08T07:14:18.000Z</time>
      </trkpt>
      <trkpt lat="43.69805" lon="3.73834">
        <ele>240.02300032</ele>
        <time>2020-08-08T07:14:20.000Z</time>
      </trkpt>
      <trkpt lat="43.69805" lon="3.73829">
        <ele>240.22300032</ele>
        <time>2020-08-08T07:14:22.000Z</time>
      </trkpt>
      <trkpt lat="43.69806" lon="3.73825">
        <ele>240.42300032</ele>
        <time>2020-08-08T07:14:24.000Z</time>
      </trkpt>
      <trkpt lat="43.69807" lon="3.73821">
        <ele>240.62300032</ele>
        <time>2020-08-08T07:14:26.000Z</time>
      </trkpt>
      <trkpt lat="43.69808" lon="3.73821">
        <ele>241.00048729234</ele>
        <time>2020-08-08T07:14:31.000Z</time>
      </trkpt>
      <trkpt lat="43.69805" lon="3.73826">
        <ele>242.99902541532</ele>
        <time>2020-08-08T07:15:12.000Z</time>
      </trkpt>
      <trkpt lat="43.69805" lon="3.73827">
        <ele>242.59240252478</ele>
        <time>2020-08-08T07:15:16.000Z</time>
      </trkpt>
      <trkpt lat="43.69804" lon="3.73832">
        <ele>242.38706358082</ele>
        <time>2020-08-08T07:15:18.000Z</time>
      </trkpt>
      <trkpt lat="43.69804" lon="3.73835">
        <ele>242.28439410884</ele>
        <time>2020-08-08T07:15:19.000Z</time>
      </trkpt>
      <trkpt lat="43.69803" lon="3.73838">
        <ele>242.18172463686</ele>
        <time>2020-08-08T07:15:20.000Z</time>
      </trkpt>
      <trkpt lat="43.69803" lon="3.73841">
        <ele>242.07905516488</ele>
        <time>2020-08-08T07:15:21.000Z</time>
      </trkpt>
      <trkpt lat="43.69801" lon="3.73845">
        <ele>242</ele>
        <time>2020-08-08T07:15:22.000Z</time>
      </trkpt>
      <trkpt lat="43.698" lon="3.73849">
        <ele>242</ele>
        <time>2020-08-08T07:15:23.000Z</time>
      </trkpt>
      <trkpt lat="43.69799" lon="3.73853">
        <ele>242</ele>
        <time>2020-08-08T07:15:24.000Z</time>
      </trkpt>
      <trkpt lat="43.69797" lon="3.73855">
        <ele>242</ele>
        <time>2020-08-08T07:15:25.000Z</time>
      </trkpt>
      <trkpt lat="43.69795" lon="3.73856">
        <ele>242</ele>
        <time>2020-08-08T07:15:26.000Z</time>
      </trkpt>
      <trkpt lat="43.69793" lon="3.73854">
        <ele>242</ele>
        <time>2020-08-08T07:15:27.000Z</time>
      </trkpt>
      <trkpt lat="43.69791" lon="3.73851">
        <ele>242</ele>
        <time>2020-08-08T07:15:28.000Z</time>
      </trkpt>
      <trkpt lat="43.69791" lon="3.73848">
        <ele>242</ele>
        <time>2020-08-08T07:15:29.000Z</time>
      </trkpt>
      <trkpt lat="43.6979" lon="3.73845">
        <ele>242</ele>
        <time>2020-08-08T07:15:30.000Z</time>
      </trkpt>
      <trkpt lat="43.6979" lon="3.73842">
        <ele>242</ele>
        <time>2020-08-08T07:15:31.000Z</time>
      </trkpt>
      <trkpt lat="43.6979" lon="3.73838">
        <ele>242</ele>
        <time>2020-08-08T07:15:32.000Z</time>
      </trkpt>
      <trkpt lat="43.69791" lon="3.73835">
        <ele>242</ele>
        <time>2020-08-08T07:15:33.000Z</time>
      </trkpt>
      <trkpt lat="43.69791" lon="3.73831">
        <ele>242</ele>
        <time>2020-08-08T07:15:34.000Z</time>
      </trkpt>
      <trkpt lat="43.69791" lon="3.73828">
        <ele>242</ele>
        <time>2020-08-08T07:15:35.000Z</time>
      </trkpt>
      <trkpt lat="43.69791" lon="3.73825">
        <ele>242</ele>
        <time>2020-08-08T07:15:36.000Z</time>
      </trkpt>
      <trkpt lat="43.69792" lon="3.73821">
        <ele>242</ele>
        <time>2020-08-08T07:15:37.000Z</time>
      </trkpt>
      <trkpt lat="43.69792" lon="3.73818">
        <ele>242</ele>
        <time>2020-08-08T07:15:38.000Z</time>
      </trkpt>
      <trkpt lat="43.69793" lon="3.73815">
        <ele>242</ele>
        <time>2020-08-08T07:15:39.000Z</time>
      </trkpt>
      <trkpt lat="43.69793" lon="3.73812">
        <ele>242</ele>
        <time>2020-08-08T07:15:40.000Z</time>
      </trkpt>
      <trkpt lat="43.69794" lon="3.73809">
        <ele>242</ele>
        <time>2020-08-08T07:15:41.000Z</time>
      </trkpt>
      <trkpt lat="43.69794" lon="3.73807">
        <ele>242.02300032</ele>
        <time>2020-08-08T07:15:42.000Z</time>
      </trkpt>
      <trkpt lat="43.69794" lon="3.73804">
        <ele>242.12300032</ele>
        <time>2020-08-08T07:15:43.000Z</time>
      </trkpt>
      <trkpt lat="43.69795" lon="3.73799">
        <ele>242.32300032</ele>
        <time>2020-08-08T07:15:45.000Z</time>
      </trkpt>
      <trkpt lat="43.69795" lon="3.73795">
        <ele>242.52300032</ele>
        <time>2020-08-08T07:15:47.000Z</time>
      </trkpt>
      <trkpt lat="43.69795" lon="3.73791">
        <ele>242.72300032</ele>
        <time>2020-08-08T07:15:49.000Z</time>
      </trkpt>
      <trkpt lat="43.69795" lon="3.73786">
        <ele>242.92300032</ele>
        <time>2020-08-08T07:15:51.000Z</time>
      </trkpt>
      <trkpt lat="43.69796" lon="3.73784">
        <ele>243</ele>
        <time>2020-08-08T07:15:58.000Z</time>
      </trkpt>
      <trkpt lat="43.69795" lon="3.73768">
        <ele>243</ele>
        <time>2020-08-08T07:17:36.000Z</time>
      </trkpt>
      <trkpt lat="43.69794" lon="3.73766">
        <ele>243</ele>
        <time>2020-08-08T07:17:37.000Z</time>
      </trkpt>
      <trkpt lat="43.69793" lon="3.73765">
        <ele>243</ele>
        <time>2020-08-08T07:17:38.000Z</time>
      </trkpt>
      <trkpt lat="43.69791" lon="3.73764">
        <ele>243</ele>
        <time>2020-08-08T07:17:39.000Z</time>
      </trkpt>
      <trkpt lat="43.69789" lon="3.73761">
        <ele>243</ele>
        <time>2020-08-08T07:17:41.000Z</time>
      </trkpt>
      <trkpt lat="43.69786" lon="3.73758">
        <ele>243</ele>
        <time>2020-08-08T07:17:43.000Z</time>
      </trkpt>
      <trkpt lat="43.69785" lon="3.73756">
        <ele>243</ele>
        <time>2020-08-08T07:17:45.000Z</time>
      </trkpt>
      <trkpt lat="43.69783" lon="3.73754">
        <ele>243.11965011673</ele>
        <time>2020-08-08T07:17:47.000Z</time>
      </trkpt>
      <trkpt lat="43.69782" lon="3.7375">
        <ele>243.31420264591</ele>
        <time>2020-08-08T07:17:49.000Z</time>
      </trkpt>
      <trkpt lat="43.69781" lon="3.73748">
        <ele>243.5087551751</ele>
        <time>2020-08-08T07:17:51.000Z</time>
      </trkpt>
      <trkpt lat="43.69779" lon="3.73745">
        <ele>243.70330770428</ele>
        <time>2020-08-08T07:17:53.000Z</time>
      </trkpt>
      <trkpt lat="43.69778" lon="3.73743">
        <ele>243.80058396887</ele>
        <time>2020-08-08T07:17:54.000Z</time>
      </trkpt>
      <trkpt lat="43.69777" lon="3.7374">
        <ele>243.89786023346</ele>
        <time>2020-08-08T07:17:55.000Z</time>
      </trkpt>
      <trkpt lat="43.69776" lon="3.73737">
        <ele>243.99513649805</ele>
        <time>2020-08-08T07:17:56.000Z</time>
      </trkpt>
      <trkpt lat="43.69774" lon="3.73736">
        <ele>243.90226304527</ele>
        <time>2020-08-08T07:17:57.000Z</time>
      </trkpt>
      <trkpt lat="43.69773" lon="3.73734">
        <ele>243.79938238683</ele>
        <time>2020-08-08T07:17:58.000Z</time>
      </trkpt>
      <trkpt lat="43.69771" lon="3.73731">
        <ele>243.69650172839</ele>
        <time>2020-08-08T07:17:59.000Z</time>
      </trkpt>
      <trkpt lat="43.69769" lon="3.73729">
        <ele>243.59362106996</ele>
        <time>2020-08-08T07:18:00.000Z</time>
      </trkpt>
      <trkpt lat="43.69767" lon="3.73726">
        <ele>243.49074041152</ele>
        <time>2020-08-08T07:18:01.000Z</time>
      </trkpt>
      <trkpt lat="43.69764" lon="3.73723">
        <ele>243.38785975309</ele>
        <time>2020-08-08T07:18:02.000Z</time>
      </trkpt>
      <trkpt lat="43.69761" lon="3.7372">
        <ele>243.28497909465</ele>
        <time>2020-08-08T07:18:03.000Z</time>
      </trkpt>
      <trkpt lat="43.69759" lon="3.73717">
        <ele>243.18209843621</ele>
        <time>2020-08-08T07:18:04.000Z</time>
      </trkpt>
      <trkpt lat="43.69757" lon="3.73714">
        <ele>243.07921777778</ele>
        <time>2020-08-08T07:18:05.000Z</time>
      </trkpt>
      <trkpt lat="43.69756" lon="3.73711">
        <ele>242.97699968</ele>
        <time>2020-08-08T07:18:06.000Z</time>
      </trkpt>
      <trkpt lat="43.69755" lon="3.73709">
        <ele>242.87699968</ele>
        <time>2020-08-08T07:18:07.000Z</time>
      </trkpt>
      <trkpt lat="43.69753" lon="3.73707">
        <ele>242.77699968</ele>
        <time>2020-08-08T07:18:08.000Z</time>
      </trkpt>
      <trkpt lat="43.69752" lon="3.73704">
        <ele>242.67699968</ele>
        <time>2020-08-08T07:18:09.000Z</time>
      </trkpt>
      <trkpt lat="43.69751" lon="3.73699">
        <ele>242.47699968</ele>
        <time>2020-08-08T07:18:11.000Z</time>
      </trkpt>
      <trkpt lat="43.6975" lon="3.73697">
        <ele>242.27699968</ele>
        <time>2020-08-08T07:18:13.000Z</time>
      </trkpt>
      <trkpt lat="43.69747" lon="3.73694">
        <ele>242.07699968</ele>
        <time>2020-08-08T07:18:15.000Z</time>
      </trkpt>
      <trkpt lat="43.69745" lon="3.73693">
        <ele>241.97699968</ele>
        <time>2020-08-08T07:18:16.000Z</time>
      </trkpt>
      <trkpt lat="43.69743" lon="3.7369">
        <ele>241.87699968</ele>
        <time>2020-08-08T07:18:17.000Z</time>
      </trkpt>
      <trkpt lat="43.69741" lon="3.73688">
        <ele>241.77699968</ele>
        <time>2020-08-08T07:18:18.000Z</time>
      </trkpt>
      <trkpt lat="43.6974" lon="3.73685">
        <ele>241.67699968</ele>
        <time>2020-08-08T07:18:19.000Z</time>
      </trkpt>
      <trkpt lat="43.69739" lon="3.73683">
        <ele>241.57699968</ele>
        <time>2020-08-08T07:18:20.000Z</time>
      </trkpt>
      <trkpt lat="43.69737" lon="3.73679">
        <ele>241.37699968</ele>
        <time>2020-08-08T07:18:22.000Z</time>
      </trkpt>
      <trkpt lat="43.69736" lon="3.73676">
        <ele>241.17699968</ele>
        <time>2020-08-08T07:18:24.000Z</time>
      </trkpt>
      <trkpt lat="43.69735" lon="3.73674">
        <ele>240.97709131474</ele>
        <time>2020-08-08T07:18:26.000Z</time>
      </trkpt>
      <trkpt lat="43.69733" lon="3.73672">
        <ele>240.77788812749</ele>
        <time>2020-08-08T07:18:28.000Z</time>
      </trkpt>
      <trkpt lat="43.69732" lon="3.7367">
        <ele>240.57868494024</ele>
        <time>2020-08-08T07:18:30.000Z</time>
      </trkpt>
      <trkpt lat="43.6973" lon="3.73666">
        <ele>240.37948175299</ele>
        <time>2020-08-08T07:18:32.000Z</time>
      </trkpt>
      <trkpt lat="43.69729" lon="3.73663">
        <ele>240.18027856574</ele>
        <time>2020-08-08T07:18:34.000Z</time>
      </trkpt>
      <trkpt lat="43.69727" lon="3.7366">
        <ele>240</ele>
        <time>2020-08-08T07:18:36.000Z</time>
      </trkpt>
      <trkpt lat="43.69728" lon="3.73661">
        <ele>239.97948399323</ele>
        <time>2020-08-08T07:18:42.000Z</time>
      </trkpt>
      <trkpt lat="43.69725" lon="3.73653">
        <ele>238.92316381403</ele>
        <time>2020-08-08T07:19:29.000Z</time>
      </trkpt>
      <trkpt lat="43.69725" lon="3.7365">
        <ele>238.69717503175</ele>
        <time>2020-08-08T07:19:31.000Z</time>
      </trkpt>
      <trkpt lat="43.69723" lon="3.73648">
        <ele>238.01920868491</ele>
        <time>2020-08-08T07:19:37.000Z</time>
      </trkpt>
      <trkpt lat="43.69723" lon="3.73646">
        <ele>238</ele>
        <time>2020-08-08T07:19:38.000Z</time>
      </trkpt>
      <trkpt lat="43.69721" lon="3.73643">
        <ele>238</ele>
        <time>2020-08-08T07:19:40.000Z</time>
      </trkpt>
      <trkpt lat="43.69719" lon="3.73641">
        <ele>238</ele>
        <time>2020-08-08T07:19:41.000Z</time>
      </trkpt>
      <trkpt lat="43.69717" lon="3.7364">
        <ele>238</ele>
        <time>2020-08-08T07:19:42.000Z</time>
      </trkpt>
      <trkpt lat="43.69714" lon="3.73638">
        <ele>238</ele>
        <time>2020-08-08T07:19:43.000Z</time>
      </trkpt>
      <trkpt lat="43.69712" lon="3.73636">
        <ele>238</ele>
        <time>2020-08-08T07:19:44.000Z</time>
      </trkpt>
      <trkpt lat="43.6971" lon="3.73634">
        <ele>238</ele>
        <time>2020-08-08T07:19:45.000Z</time>
      </trkpt>
      <trkpt lat="43.69708" lon="3.73633">
        <ele>238</ele>
        <time>2020-08-08T07:19:46.000Z</time>
      </trkpt>
      <trkpt lat="43.69706" lon="3.73631">
        <ele>238</ele>
        <time>2020-08-08T07:19:47.000Z</time>
      </trkpt>
      <trkpt lat="43.69704" lon="3.73629">
        <ele>238</ele>
        <time>2020-08-08T07:19:48.000Z</time>
      </trkpt>
      <trkpt lat="43.69702" lon="3.73627">
        <ele>238</ele>
        <time>2020-08-08T07:19:49.000Z</time>
      </trkpt>
      <trkpt lat="43.69701" lon="3.73624">
        <ele>238</ele>
        <time>2020-08-08T07:19:50.000Z</time>
      </trkpt>
      <trkpt lat="43.69699" lon="3.73622">
        <ele>237.90509467643</ele>
        <time>2020-08-08T07:19:51.000Z</time>
      </trkpt>
      <trkpt lat="43.69696" lon="3.73619">
        <ele>237.70529466825</ele>
        <time>2020-08-08T07:19:53.000Z</time>
      </trkpt>
      <trkpt lat="43.69694" lon="3.73618">
        <ele>237.60539466416</ele>
        <time>2020-08-08T07:19:54.000Z</time>
      </trkpt>
      <trkpt lat="43.69693" lon="3.73616">
        <ele>237.50549466007</ele>
        <time>2020-08-08T07:19:55.000Z</time>
      </trkpt>
      <trkpt lat="43.6969" lon="3.73615">
        <ele>237.40559465597</ele>
        <time>2020-08-08T07:19:56.000Z</time>
      </trkpt>
      <trkpt lat="43.69688" lon="3.73613">
        <ele>237.30569465188</ele>
        <time>2020-08-08T07:19:57.000Z</time>
      </trkpt>
      <trkpt lat="43.69686" lon="3.7361">
        <ele>237.20579464779</ele>
        <time>2020-08-08T07:19:58.000Z</time>
      </trkpt>
      <trkpt lat="43.69685" lon="3.73608">
        <ele>237.1058946437</ele>
        <time>2020-08-08T07:19:59.000Z</time>
      </trkpt>
      <trkpt lat="43.69683" lon="3.73606">
        <ele>237.00599463961</ele>
        <time>2020-08-08T07:20:00.000Z</time>
      </trkpt>
      <trkpt lat="43.69681" lon="3.73604">
        <ele>237</ele>
        <time>2020-08-08T07:20:01.000Z</time>
      </trkpt>
      <trkpt lat="43.69679" lon="3.73601">
        <ele>237</ele>
        <time>2020-08-08T07:20:02.000Z</time>
      </trkpt>
      <trkpt lat="43.69677" lon="3.73599">
        <ele>237</ele>
        <time>2020-08-08T07:20:03.000Z</time>
      </trkpt>
      <trkpt lat="43.69676" lon="3.73597">
        <ele>237</ele>
        <time>2020-08-08T07:20:04.000Z</time>
      </trkpt>
      <trkpt lat="43.69674" lon="3.73594">
        <ele>237</ele>
        <time>2020-08-08T07:20:06.000Z</time>
      </trkpt>
      <trkpt lat="43.69671" lon="3.7359">
        <ele>237</ele>
        <time>2020-08-08T07:20:08.000Z</time>
      </trkpt>
      <trkpt lat="43.69669" lon="3.73589">
        <ele>237</ele>
        <time>2020-08-08T07:20:09.000Z</time>
      </trkpt>
      <trkpt lat="43.69668" lon="3.73587">
        <ele>236.9959225267</ele>
        <time>2020-08-08T07:20:10.000Z</time>
      </trkpt>
      <trkpt lat="43.69667" lon="3.73585">
        <ele>236.89398569427</ele>
        <time>2020-08-08T07:20:11.000Z</time>
      </trkpt>
      <trkpt lat="43.69666" lon="3.73583">
        <ele>236.79204886183</ele>
        <time>2020-08-08T07:20:12.000Z</time>
      </trkpt>
      <trkpt lat="43.69663" lon="3.73579">
        <ele>236.58817519696</ele>
        <time>2020-08-08T07:20:14.000Z</time>
      </trkpt>
      <trkpt lat="43.69662" lon="3.73578">
        <ele>236.48623836452</ele>
        <time>2020-08-08T07:20:15.000Z</time>
      </trkpt>
      <trkpt lat="43.69659" lon="3.73574">
        <ele>236.28236469965</ele>
        <time>2020-08-08T07:20:17.000Z</time>
      </trkpt>
      <trkpt lat="43.69657" lon="3.73572">
        <ele>236.18042786721</ele>
        <time>2020-08-08T07:20:18.000Z</time>
      </trkpt>
      <trkpt lat="43.69655" lon="3.73571">
        <ele>236.07849103478</ele>
        <time>2020-08-08T07:20:19.000Z</time>
      </trkpt>
      <trkpt lat="43.69654" lon="3.73568">
        <ele>235.97699968</ele>
        <time>2020-08-08T07:20:20.000Z</time>
      </trkpt>
      <trkpt lat="43.69652" lon="3.73566">
        <ele>235.87699968</ele>
        <time>2020-08-08T07:20:21.000Z</time>
      </trkpt>
      <trkpt lat="43.6965" lon="3.73564">
        <ele>235.77699968</ele>
        <time>2020-08-08T07:20:22.000Z</time>
      </trkpt>
      <trkpt lat="43.69648" lon="3.73562">
        <ele>235.67699968</ele>
        <time>2020-08-08T07:20:23.000Z</time>
      </trkpt>
      <trkpt lat="43.69647" lon="3.73559">
        <ele>235.57699968</ele>
        <time>2020-08-08T07:20:24.000Z</time>
      </trkpt>
      <trkpt lat="43.69645" lon="3.73557">
        <ele>235.47699968</ele>
        <time>2020-08-08T07:20:25.000Z</time>
      </trkpt>
      <trkpt lat="43.69643" lon="3.73555">
        <ele>235.37699968</ele>
        <time>2020-08-08T07:20:26.000Z</time>
      </trkpt>
      <trkpt lat="43.69641" lon="3.73553">
        <ele>235.27699968</ele>
        <time>2020-08-08T07:20:27.000Z</time>
      </trkpt>
      <trkpt lat="43.69639" lon="3.7355">
        <ele>235.17699968</ele>
        <time>2020-08-08T07:20:28.000Z</time>
      </trkpt>
      <trkpt lat="43.69638" lon="3.73548">
        <ele>235.07699968</ele>
        <time>2020-08-08T07:20:29.000Z</time>
      </trkpt>
      <trkpt lat="43.69636" lon="3.73546">
        <ele>234.97699968</ele>
        <time>2020-08-08T07:20:30.000Z</time>
      </trkpt>
      <trkpt lat="43.69634" lon="3.73545">
        <ele>234.87699968</ele>
        <time>2020-08-08T07:20:31.000Z</time>
      </trkpt>
      <trkpt lat="43.69632" lon="3.73543">
        <ele>234.77699968</ele>
        <time>2020-08-08T07:20:32.000Z</time>
      </trkpt>
      <trkpt lat="43.69631" lon="3.73542">
        <ele>234.67699968</ele>
        <time>2020-08-08T07:20:33.000Z</time>
      </trkpt>
      <trkpt lat="43.69629" lon="3.73539">
        <ele>234.57699968</ele>
        <time>2020-08-08T07:20:34.000Z</time>
      </trkpt>
      <trkpt lat="43.69626" lon="3.73537">
        <ele>234.47699968</ele>
        <time>2020-08-08T07:20:35.000Z</time>
      </trkpt>
      <trkpt lat="43.69624" lon="3.73535">
        <ele>234.37699968</ele>
        <time>2020-08-08T07:20:36.000Z</time>
      </trkpt>
      <trkpt lat="43.69622" lon="3.73533">
        <ele>234.27699968</ele>
        <time>2020-08-08T07:20:37.000Z</time>
      </trkpt>
      <trkpt lat="43.69619" lon="3.73531">
        <ele>234.17699968</ele>
        <time>2020-08-08T07:20:38.000Z</time>
      </trkpt>
      <trkpt lat="43.69616" lon="3.73529">
        <ele>234.07699968</ele>
        <time>2020-08-08T07:20:39.000Z</time>
      </trkpt>
      <trkpt lat="43.69614" lon="3.73527">
        <ele>233.95399936</ele>
        <time>2020-08-08T07:20:40.000Z</time>
      </trkpt>
      <trkpt lat="43.69612" lon="3.73526">
        <ele>233.75399936</ele>
        <time>2020-08-08T07:20:41.000Z</time>
      </trkpt>
      <trkpt lat="43.69609" lon="3.73524">
        <ele>233.35399936</ele>
        <time>2020-08-08T07:20:43.000Z</time>
      </trkpt>
      <trkpt lat="43.69607" lon="3.73523">
        <ele>233.15399936</ele>
        <time>2020-08-08T07:20:44.000Z</time>
      </trkpt>
      <trkpt lat="43.69605" lon="3.73522">
        <ele>232.95399936</ele>
        <time>2020-08-08T07:20:45.000Z</time>
      </trkpt>
      <trkpt lat="43.69603" lon="3.73521">
        <ele>232.75399936</ele>
        <time>2020-08-08T07:20:46.000Z</time>
      </trkpt>
      <trkpt lat="43.696" lon="3.73521">
        <ele>232.55399936</ele>
        <time>2020-08-08T07:20:47.000Z</time>
      </trkpt>
      <trkpt lat="43.69598" lon="3.7352">
        <ele>232.35399936</ele>
        <time>2020-08-08T07:20:48.000Z</time>
      </trkpt>
      <trkpt lat="43.69595" lon="3.73519">
        <ele>232.15399936</ele>
        <time>2020-08-08T07:20:49.000Z</time>
      </trkpt>
      <trkpt lat="43.69592" lon="3.73517">
        <ele>232</ele>
        <time>2020-08-08T07:20:50.000Z</time>
      </trkpt>
      <trkpt lat="43.69589" lon="3.73516">
        <ele>232</ele>
        <time>2020-08-08T07:20:51.000Z</time>
      </trkpt>
      <trkpt lat="43.69586" lon="3.73515">
        <ele>232</ele>
        <time>2020-08-08T07:20:52.000Z</time>
      </trkpt>
      <trkpt lat="43.69584" lon="3.73514">
        <ele>232</ele>
        <time>2020-08-08T07:20:53.000Z</time>
      </trkpt>
      <trkpt lat="43.69582" lon="3.73513">
        <ele>232</ele>
        <time>2020-08-08T07:20:54.000Z</time>
      </trkpt>
      <trkpt lat="43.6958" lon="3.73513">
        <ele>232</ele>
        <time>2020-08-08T07:20:59.000Z</time>
      </trkpt>
      <trkpt lat="43.69578" lon="3.73513">
        <ele>232</ele>
        <time>2020-08-08T07:21:02.000Z</time>
      </trkpt>
      <trkpt lat="43.69577" lon="3.73514">
        <ele>232</ele>
        <time>2020-08-08T07:21:14.000Z</time>
      </trkpt>
      <trkpt lat="43.69576" lon="3.73515">
        <ele>232</ele>
        <time>2020-08-08T07:21:16.000Z</time>
      </trkpt>
      <trkpt lat="43.69573" lon="3.73514">
        <ele>232</ele>
        <time>2020-08-08T07:21:19.000Z</time>
      </trkpt>
      <trkpt lat="43.69571" lon="3.73514">
        <ele>232</ele>
        <time>2020-08-08T07:21:20.000Z</time>
      </trkpt>
      <trkpt lat="43.69569" lon="3.73513">
        <ele>232</ele>
        <time>2020-08-08T07:21:21.000Z</time>
      </trkpt>
      <trkpt lat="43.69566" lon="3.73513">
        <ele>232</ele>
        <time>2020-08-08T07:21:22.000Z</time>
      </trkpt>
      <trkpt lat="43.69563" lon="3.73514">
        <ele>232</ele>
        <time>2020-08-08T07:21:23.000Z</time>
      </trkpt>
      <trkpt lat="43.6956" lon="3.73515">
        <ele>232</ele>
        <time>2020-08-08T07:21:24.000Z</time>
      </trkpt>
      <trkpt lat="43.69557" lon="3.73515">
        <ele>231.81181291225</ele>
        <time>2020-08-08T07:21:25.000Z</time>
      </trkpt>
      <trkpt lat="43.69555" lon="3.73516">
        <ele>231.61161251967</ele>
        <time>2020-08-08T07:21:26.000Z</time>
      </trkpt>
      <trkpt lat="43.69552" lon="3.73517">
        <ele>231.2112117345</ele>
        <time>2020-08-08T07:21:28.000Z</time>
      </trkpt>
      <trkpt lat="43.69548" lon="3.73518">
        <ele>230.81081094933</ele>
        <time>2020-08-08T07:21:30.000Z</time>
      </trkpt>
      <trkpt lat="43.69546" lon="3.73519">
        <ele>230.61061055674</ele>
        <time>2020-08-08T07:21:31.000Z</time>
      </trkpt>
      <trkpt lat="43.69544" lon="3.7352">
        <ele>230.41041016416</ele>
        <time>2020-08-08T07:21:32.000Z</time>
      </trkpt>
      <trkpt lat="43.69542" lon="3.73521">
        <ele>230.21020977157</ele>
        <time>2020-08-08T07:21:33.000Z</time>
      </trkpt>
      <trkpt lat="43.6954" lon="3.73521">
        <ele>230.01000937899</ele>
        <time>2020-08-08T07:21:34.000Z</time>
      </trkpt>
      <trkpt lat="43.69538" lon="3.73521">
        <ele>229.90226304527</ele>
        <time>2020-08-08T07:21:35.000Z</time>
      </trkpt>
      <trkpt lat="43.69535" lon="3.73521">
        <ele>229.79938238683</ele>
        <time>2020-08-08T07:21:36.000Z</time>
      </trkpt>
      <trkpt lat="43.69533" lon="3.73521">
        <ele>229.69650172839</ele>
        <time>2020-08-08T07:21:37.000Z</time>
      </trkpt>
      <trkpt lat="43.69531" lon="3.73521">
        <ele>229.59362106996</ele>
        <time>2020-08-08T07:21:38.000Z</time>
      </trkpt>
      <trkpt lat="43.69529" lon="3.7352">
        <ele>229.49074041152</ele>
        <time>2020-08-08T07:21:39.000Z</time>
      </trkpt>
      <trkpt lat="43.69526" lon="3.7352">
        <ele>229.38785975309</ele>
        <time>2020-08-08T07:21:40.000Z</time>
      </trkpt>
      <trkpt lat="43.69523" lon="3.73521">
        <ele>229.28497909465</ele>
        <time>2020-08-08T07:21:41.000Z</time>
      </trkpt>
      <trkpt lat="43.6952" lon="3.73521">
        <ele>229.18209843621</ele>
        <time>2020-08-08T07:21:42.000Z</time>
      </trkpt>
      <trkpt lat="43.69517" lon="3.73521">
        <ele>229.07921777778</ele>
        <time>2020-08-08T07:21:43.000Z</time>
      </trkpt>
      <trkpt lat="43.69515" lon="3.73521">
        <ele>228.93099904</ele>
        <time>2020-08-08T07:21:44.000Z</time>
      </trkpt>
      <trkpt lat="43.69513" lon="3.73521">
        <ele>228.63099904</ele>
        <time>2020-08-08T07:21:45.000Z</time>
      </trkpt>
      <trkpt lat="43.69511" lon="3.73521">
        <ele>228.33099904</ele>
        <time>2020-08-08T07:21:46.000Z</time>
      </trkpt>
      <trkpt lat="43.69509" lon="3.73522">
        <ele>228.03099904</ele>
        <time>2020-08-08T07:21:47.000Z</time>
      </trkpt>
      <trkpt lat="43.69506" lon="3.73522">
        <ele>227.73099904</ele>
        <time>2020-08-08T07:21:48.000Z</time>
      </trkpt>
      <trkpt lat="43.69504" lon="3.73523">
        <ele>227.43099904</ele>
        <time>2020-08-08T07:21:49.000Z</time>
      </trkpt>
      <trkpt lat="43.69502" lon="3.73523">
        <ele>227.13099904</ele>
        <time>2020-08-08T07:21:50.000Z</time>
      </trkpt>
      <trkpt lat="43.695" lon="3.73523">
        <ele>226.83099904</ele>
        <time>2020-08-08T07:21:51.000Z</time>
      </trkpt>
      <trkpt lat="43.69498" lon="3.73524">
        <ele>226.23099904</ele>
        <time>2020-08-08T07:21:53.000Z</time>
      </trkpt>
      <trkpt lat="43.69498" lon="3.73524">
        <ele>225.94161866048</ele>
        <time>2020-08-08T07:21:58.000Z</time>
      </trkpt>
      <trkpt lat="43.69492" lon="3.73523">
        <ele>225.01676282701</ele>
        <time>2020-08-08T07:22:14.000Z</time>
      </trkpt>
      <trkpt lat="43.69489" lon="3.73523">
        <ele>224.7832836436</ele>
        <time>2020-08-08T07:22:15.000Z</time>
      </trkpt>
      <trkpt lat="43.69485" lon="3.73522">
        <ele>224.47368601814</ele>
        <time>2020-08-08T07:22:16.000Z</time>
      </trkpt>
      <trkpt lat="43.69481" lon="3.73521">
        <ele>224.16408839268</ele>
        <time>2020-08-08T07:22:17.000Z</time>
      </trkpt>
      <trkpt lat="43.69477" lon="3.7352">
        <ele>223.85449076722</ele>
        <time>2020-08-08T07:22:18.000Z</time>
      </trkpt>
      <trkpt lat="43.69473" lon="3.7352">
        <ele>223.54489314176</ele>
        <time>2020-08-08T07:22:19.000Z</time>
      </trkpt>
      <trkpt lat="43.69469" lon="3.73519">
        <ele>223.2352955163</ele>
        <time>2020-08-08T07:22:20.000Z</time>
      </trkpt>
      <trkpt lat="43.69466" lon="3.73518">
        <ele>222.92569789084</ele>
        <time>2020-08-08T07:22:21.000Z</time>
      </trkpt>
      <trkpt lat="43.69463" lon="3.73518">
        <ele>222.61610026538</ele>
        <time>2020-08-08T07:22:22.000Z</time>
      </trkpt>
      <trkpt lat="43.6946" lon="3.73518">
        <ele>222.30650263992</ele>
        <time>2020-08-08T07:22:23.000Z</time>
      </trkpt>
      <trkpt lat="43.69458" lon="3.73517">
        <ele>221.99801453886</ele>
        <time>2020-08-08T07:22:24.000Z</time>
      </trkpt>
      <trkpt lat="43.69456" lon="3.73517">
        <ele>221.7994048701</ele>
        <time>2020-08-08T07:22:25.000Z</time>
      </trkpt>
      <trkpt lat="43.69453" lon="3.73517">
        <ele>221.60079520134</ele>
        <time>2020-08-08T07:22:26.000Z</time>
      </trkpt>
      <trkpt lat="43.69451" lon="3.73517">
        <ele>221.40218553257</ele>
        <time>2020-08-08T07:22:27.000Z</time>
      </trkpt>
      <trkpt lat="43.69449" lon="3.73515">
        <ele>221.20357586381</ele>
        <time>2020-08-08T07:22:28.000Z</time>
      </trkpt>
      <trkpt lat="43.69447" lon="3.73515">
        <ele>221.00496619505</ele>
        <time>2020-08-08T07:22:29.000Z</time>
      </trkpt>
      <trkpt lat="43.69445" lon="3.73514">
        <ele>220.80635652628</ele>
        <time>2020-08-08T07:22:30.000Z</time>
      </trkpt>
      <trkpt lat="43.69442" lon="3.73514">
        <ele>220.60774685752</ele>
        <time>2020-08-08T07:22:31.000Z</time>
      </trkpt>
      <trkpt lat="43.6944" lon="3.73513">
        <ele>220.40913718876</ele>
        <time>2020-08-08T07:22:32.000Z</time>
      </trkpt>
      <trkpt lat="43.69437" lon="3.73512">
        <ele>220.21052751999</ele>
        <time>2020-08-08T07:22:33.000Z</time>
      </trkpt>
      <trkpt lat="43.69434" lon="3.73511">
        <ele>220.01191785123</ele>
        <time>2020-08-08T07:22:34.000Z</time>
      </trkpt>
      <trkpt lat="43.69432" lon="3.7351">
        <ele>219.80638629674</ele>
        <time>2020-08-08T07:22:35.000Z</time>
      </trkpt>
      <trkpt lat="43.69429" lon="3.73509">
        <ele>219.60041286962</ele>
        <time>2020-08-08T07:22:36.000Z</time>
      </trkpt>
      <trkpt lat="43.69427" lon="3.73508">
        <ele>219.39443944249</ele>
        <time>2020-08-08T07:22:37.000Z</time>
      </trkpt>
      <trkpt lat="43.69424" lon="3.73509">
        <ele>219.18846601537</ele>
        <time>2020-08-08T07:22:38.000Z</time>
      </trkpt>
      <trkpt lat="43.69421" lon="3.73509">
        <ele>218.98249258825</ele>
        <time>2020-08-08T07:22:39.000Z</time>
      </trkpt>
      <trkpt lat="43.69418" lon="3.73508">
        <ele>218.77651916113</ele>
        <time>2020-08-08T07:22:40.000Z</time>
      </trkpt>
      <trkpt lat="43.69415" lon="3.73508">
        <ele>218.57054573401</ele>
        <time>2020-08-08T07:22:41.000Z</time>
      </trkpt>
      <trkpt lat="43.69412" lon="3.73508">
        <ele>218.36457230689</ele>
        <time>2020-08-08T07:22:42.000Z</time>
      </trkpt>
      <trkpt lat="43.69409" lon="3.73508">
        <ele>218.15859887977</ele>
        <time>2020-08-08T07:22:43.000Z</time>
      </trkpt>
      <trkpt lat="43.69406" lon="3.73508">
        <ele>217.95399936</ele>
        <time>2020-08-08T07:22:44.000Z</time>
      </trkpt>
      <trkpt lat="43.69404" lon="3.73507">
        <ele>217.75399936</ele>
        <time>2020-08-08T07:22:45.000Z</time>
      </trkpt>
      <trkpt lat="43.69401" lon="3.73506">
        <ele>217.55399936</ele>
        <time>2020-08-08T07:22:46.000Z</time>
      </trkpt>
      <trkpt lat="43.69398" lon="3.73504">
        <ele>217.35399936</ele>
        <time>2020-08-08T07:22:47.000Z</time>
      </trkpt>
      <trkpt lat="43.69396" lon="3.73501">
        <ele>217.15399936</ele>
        <time>2020-08-08T07:22:48.000Z</time>
      </trkpt>
      <trkpt lat="43.69394" lon="3.73497">
        <ele>216.95399936</ele>
        <time>2020-08-08T07:22:49.000Z</time>
      </trkpt>
      <trkpt lat="43.69392" lon="3.73492">
        <ele>216.75399936</ele>
        <time>2020-08-08T07:22:50.000Z</time>
      </trkpt>
      <trkpt lat="43.69392" lon="3.73488">
        <ele>216.55399936</ele>
        <time>2020-08-08T07:22:51.000Z</time>
      </trkpt>
      <trkpt lat="43.69391" lon="3.73484">
        <ele>216.35399936</ele>
        <time>2020-08-08T07:22:52.000Z</time>
      </trkpt>
      <trkpt lat="43.6939" lon="3.73479">
        <ele>216.15399936</ele>
        <time>2020-08-08T07:22:53.000Z</time>
      </trkpt>
      <trkpt lat="43.69389" lon="3.73476">
        <ele>215.95399936</ele>
        <time>2020-08-08T07:22:54.000Z</time>
      </trkpt>
      <trkpt lat="43.69389" lon="3.73472">
        <ele>215.75399936</ele>
        <time>2020-08-08T07:22:55.000Z</time>
      </trkpt>
      <trkpt lat="43.69388" lon="3.73468">
        <ele>215.55399936</ele>
        <time>2020-08-08T07:22:56.000Z</time>
      </trkpt>
      <trkpt lat="43.69387" lon="3.73463">
        <ele>215.35399936</ele>
        <time>2020-08-08T07:22:57.000Z</time>
      </trkpt>
      <trkpt lat="43.69387" lon="3.73459">
        <ele>215.15399936</ele>
        <time>2020-08-08T07:22:58.000Z</time>
      </trkpt>
      <trkpt lat="43.69387" lon="3.73455">
        <ele>214.95399936</ele>
        <time>2020-08-08T07:22:59.000Z</time>
      </trkpt>
      <trkpt lat="43.69387" lon="3.73451">
        <ele>214.75399936</ele>
        <time>2020-08-08T07:23:00.000Z</time>
      </trkpt>
      <trkpt lat="43.69386" lon="3.73447">
        <ele>214.55399936</ele>
        <time>2020-08-08T07:23:01.000Z</time>
      </trkpt>
      <trkpt lat="43.69386" lon="3.73443">
        <ele>214.35399936</ele>
        <time>2020-08-08T07:23:02.000Z</time>
      </trkpt>
      <trkpt lat="43.69386" lon="3.73439">
        <ele>214.15399936</ele>
        <time>2020-08-08T07:23:03.000Z</time>
      </trkpt>
      <trkpt lat="43.69386" lon="3.73435">
        <ele>213.95399936</ele>
        <time>2020-08-08T07:23:04.000Z</time>
      </trkpt>
      <trkpt lat="43.69386" lon="3.73431">
        <ele>213.75399936</ele>
        <time>2020-08-08T07:23:05.000Z</time>
      </trkpt>
      <trkpt lat="43.69386" lon="3.73427">
        <ele>213.55399936</ele>
        <time>2020-08-08T07:23:06.000Z</time>
      </trkpt>
      <trkpt lat="43.69387" lon="3.73424">
        <ele>213.35399936</ele>
        <time>2020-08-08T07:23:07.000Z</time>
      </trkpt>
      <trkpt lat="43.69388" lon="3.7342">
        <ele>213.15399936</ele>
        <time>2020-08-08T07:23:08.000Z</time>
      </trkpt>
      <trkpt lat="43.69389" lon="3.73416">
        <ele>212.95399936</ele>
        <time>2020-08-08T07:23:09.000Z</time>
      </trkpt>
      <trkpt lat="43.69389" lon="3.73412">
        <ele>212.75399936</ele>
        <time>2020-08-08T07:23:10.000Z</time>
      </trkpt>
      <trkpt lat="43.6939" lon="3.73408">
        <ele>212.55399936</ele>
        <time>2020-08-08T07:23:11.000Z</time>
      </trkpt>
      <trkpt lat="43.69391" lon="3.73404">
        <ele>212.35399936</ele>
        <time>2020-08-08T07:23:12.000Z</time>
      </trkpt>
      <trkpt lat="43.69392" lon="3.73399">
        <ele>212.15399936</ele>
        <time>2020-08-08T07:23:13.000Z</time>
      </trkpt>
      <trkpt lat="43.69393" lon="3.73395">
        <ele>211.97699968</ele>
        <time>2020-08-08T07:23:14.000Z</time>
      </trkpt>
      <trkpt lat="43.69394" lon="3.7339">
        <ele>211.87699968</ele>
        <time>2020-08-08T07:23:15.000Z</time>
      </trkpt>
      <trkpt lat="43.69395" lon="3.73386">
        <ele>211.77699968</ele>
        <time>2020-08-08T07:23:16.000Z</time>
      </trkpt>
      <trkpt lat="43.69396" lon="3.73382">
        <ele>211.67699968</ele>
        <time>2020-08-08T07:23:17.000Z</time>
      </trkpt>
      <trkpt lat="43.69397" lon="3.73379">
        <ele>211.57699968</ele>
        <time>2020-08-08T07:23:18.000Z</time>
      </trkpt>
      <trkpt lat="43.69397" lon="3.73375">
        <ele>211.47699968</ele>
        <time>2020-08-08T07:23:19.000Z</time>
      </trkpt>
      <trkpt lat="43.69398" lon="3.73372">
        <ele>211.37699968</ele>
        <time>2020-08-08T07:23:20.000Z</time>
      </trkpt>
      <trkpt lat="43.69398" lon="3.73369">
        <ele>211.27699968</ele>
        <time>2020-08-08T07:23:21.000Z</time>
      </trkpt>
      <trkpt lat="43.69399" lon="3.73365">
        <ele>211.17699968</ele>
        <time>2020-08-08T07:23:22.000Z</time>
      </trkpt>
      <trkpt lat="43.69399" lon="3.73362">
        <ele>211.07699968</ele>
        <time>2020-08-08T07:23:23.000Z</time>
      </trkpt>
      <trkpt lat="43.69399" lon="3.73359">
        <ele>210.97699968</ele>
        <time>2020-08-08T07:23:24.000Z</time>
      </trkpt>
      <trkpt lat="43.69399" lon="3.73356">
        <ele>210.87699968</ele>
        <time>2020-08-08T07:23:25.000Z</time>
      </trkpt>
      <trkpt lat="43.69399" lon="3.73353">
        <ele>210.77699968</ele>
        <time>2020-08-08T07:23:26.000Z</time>
      </trkpt>
      <trkpt lat="43.694" lon="3.7335">
        <ele>210.67699968</ele>
        <time>2020-08-08T07:23:27.000Z</time>
      </trkpt>
      <trkpt lat="43.694" lon="3.73348">
        <ele>210.57699968</ele>
        <time>2020-08-08T07:23:28.000Z</time>
      </trkpt>
      <trkpt lat="43.69401" lon="3.73344">
        <ele>210.37699968</ele>
        <time>2020-08-08T07:23:30.000Z</time>
      </trkpt>
      <trkpt lat="43.69403" lon="3.73341">
        <ele>210.17699968</ele>
        <time>2020-08-08T07:23:32.000Z</time>
      </trkpt>
      <trkpt lat="43.69405" lon="3.73339">
        <ele>210.07699968</ele>
        <time>2020-08-08T07:23:33.000Z</time>
      </trkpt>
      <trkpt lat="43.69406" lon="3.73338">
        <ele>210</ele>
        <time>2020-08-08T07:23:34.000Z</time>
      </trkpt>
      <trkpt lat="43.69408" lon="3.73336">
        <ele>210</ele>
        <time>2020-08-08T07:23:35.000Z</time>
      </trkpt>
      <trkpt lat="43.6941" lon="3.73335">
        <ele>210</ele>
        <time>2020-08-08T07:23:36.000Z</time>
      </trkpt>
      <trkpt lat="43.69412" lon="3.73333">
        <ele>210</ele>
        <time>2020-08-08T07:23:37.000Z</time>
      </trkpt>
      <trkpt lat="43.69413" lon="3.73331">
        <ele>210</ele>
        <time>2020-08-08T07:23:38.000Z</time>
      </trkpt>
      <trkpt lat="43.69414" lon="3.73329">
        <ele>210</ele>
        <time>2020-08-08T07:23:39.000Z</time>
      </trkpt>
      <trkpt lat="43.69415" lon="3.73327">
        <ele>210</ele>
        <time>2020-08-08T07:23:40.000Z</time>
      </trkpt>
      <trkpt lat="43.69416" lon="3.73324">
        <ele>210</ele>
        <time>2020-08-08T07:23:41.000Z</time>
      </trkpt>
      <trkpt lat="43.69416" lon="3.73322">
        <ele>210</ele>
        <time>2020-08-08T07:23:42.000Z</time>
      </trkpt>
      <trkpt lat="43.69417" lon="3.73319">
        <ele>210</ele>
        <time>2020-08-08T07:23:43.000Z</time>
      </trkpt>
      <trkpt lat="43.69418" lon="3.73315">
        <ele>209.97724993796</ele>
        <time>2020-08-08T07:23:44.000Z</time>
      </trkpt>
      <trkpt lat="43.69419" lon="3.73311">
        <ele>209.87833800092</ele>
        <time>2020-08-08T07:23:45.000Z</time>
      </trkpt>
      <trkpt lat="43.69419" lon="3.73307">
        <ele>209.77942606388</ele>
        <time>2020-08-08T07:23:46.000Z</time>
      </trkpt>
      <trkpt lat="43.6942" lon="3.73301">
        <ele>209.68051412684</ele>
        <time>2020-08-08T07:23:47.000Z</time>
      </trkpt>
      <trkpt lat="43.6942" lon="3.73296">
        <ele>209.5816021898</ele>
        <time>2020-08-08T07:23:48.000Z</time>
      </trkpt>
      <trkpt lat="43.69421" lon="3.73291">
        <ele>209.48269025276</ele>
        <time>2020-08-08T07:23:49.000Z</time>
      </trkpt>
      <trkpt lat="43.69422" lon="3.73286">
        <ele>209.38377831572</ele>
        <time>2020-08-08T07:23:50.000Z</time>
      </trkpt>
      <trkpt lat="43.69423" lon="3.7328">
        <ele>209.28486637868</ele>
        <time>2020-08-08T07:23:51.000Z</time>
      </trkpt>
      <trkpt lat="43.69424" lon="3.73276">
        <ele>209.18595444164</ele>
        <time>2020-08-08T07:23:52.000Z</time>
      </trkpt>
      <trkpt lat="43.69425" lon="3.73271">
        <ele>209.0870425046</ele>
        <time>2020-08-08T07:23:53.000Z</time>
      </trkpt>
      <trkpt lat="43.69425" lon="3.73267">
        <ele>209.01213347208</ele>
        <time>2020-08-08T07:23:54.000Z</time>
      </trkpt>
      <trkpt lat="43.69426" lon="3.73263">
        <ele>209.11324573937</ele>
        <time>2020-08-08T07:23:55.000Z</time>
      </trkpt>
      <trkpt lat="43.69426" lon="3.73259">
        <ele>209.21435800667</ele>
        <time>2020-08-08T07:23:56.000Z</time>
      </trkpt>
      <trkpt lat="43.69427" lon="3.73255">
        <ele>209.31547027396</ele>
        <time>2020-08-08T07:23:57.000Z</time>
      </trkpt>
      <trkpt lat="43.69428" lon="3.73252">
        <ele>209.41658254126</ele>
        <time>2020-08-08T07:23:58.000Z</time>
      </trkpt>
      <trkpt lat="43.69428" lon="3.73249">
        <ele>209.51769480856</ele>
        <time>2020-08-08T07:23:59.000Z</time>
      </trkpt>
      <trkpt lat="43.69429" lon="3.73246">
        <ele>209.71991934315</ele>
        <time>2020-08-08T07:24:01.000Z</time>
      </trkpt>
      <trkpt lat="43.6943" lon="3.73244">
        <ele>209.92214387774</ele>
        <time>2020-08-08T07:24:03.000Z</time>
      </trkpt>
      <trkpt lat="43.6943" lon="3.73241">
        <ele>210</ele>
        <time>2020-08-08T07:24:09.000Z</time>
      </trkpt>
      <trkpt lat="43.69421" lon="3.7323">
        <ele>209.85805016949</ele>
        <time>2020-08-08T07:25:03.000Z</time>
      </trkpt>
      <trkpt lat="43.69419" lon="3.73228">
        <ele>209.64618576271</ele>
        <time>2020-08-08T07:25:04.000Z</time>
      </trkpt>
      <trkpt lat="43.69416" lon="3.73226">
        <ele>209.43432135593</ele>
        <time>2020-08-08T07:25:05.000Z</time>
      </trkpt>
      <trkpt lat="43.69414" lon="3.73224">
        <ele>209.22245694915</ele>
        <time>2020-08-08T07:25:06.000Z</time>
      </trkpt>
      <trkpt lat="43.69411" lon="3.73221">
        <ele>209.01059254237</ele>
        <time>2020-08-08T07:25:07.000Z</time>
      </trkpt>
      <trkpt lat="43.69409" lon="3.73218">
        <ele>208.79872813559</ele>
        <time>2020-08-08T07:25:08.000Z</time>
      </trkpt>
      <trkpt lat="43.69407" lon="3.73216">
        <ele>208.58686372881</ele>
        <time>2020-08-08T07:25:09.000Z</time>
      </trkpt>
      <trkpt lat="43.69405" lon="3.73213">
        <ele>208.37499932203</ele>
        <time>2020-08-08T07:25:10.000Z</time>
      </trkpt>
      <trkpt lat="43.69403" lon="3.7321">
        <ele>208.16313491525</ele>
        <time>2020-08-08T07:25:11.000Z</time>
      </trkpt>
      <trkpt lat="43.69401" lon="3.73207">
        <ele>207.93287844358</ele>
        <time>2020-08-08T07:25:12.000Z</time>
      </trkpt>
      <trkpt lat="43.69399" lon="3.73204">
        <ele>207.64104964981</ele>
        <time>2020-08-08T07:25:13.000Z</time>
      </trkpt>
      <trkpt lat="43.69398" lon="3.732">
        <ele>207.34922085603</ele>
        <time>2020-08-08T07:25:14.000Z</time>
      </trkpt>
      <trkpt lat="43.69397" lon="3.73197">
        <ele>207.05739206226</ele>
        <time>2020-08-08T07:25:15.000Z</time>
      </trkpt>
      <trkpt lat="43.69396" lon="3.73194">
        <ele>206.76556326848</ele>
        <time>2020-08-08T07:25:16.000Z</time>
      </trkpt>
      <trkpt lat="43.69395" lon="3.73191">
        <ele>206.47373447471</ele>
        <time>2020-08-08T07:25:17.000Z</time>
      </trkpt>
      <trkpt lat="43.69394" lon="3.73187">
        <ele>206.18190568093</ele>
        <time>2020-08-08T07:25:18.000Z</time>
      </trkpt>
      <trkpt lat="43.69393" lon="3.73182">
        <ele>205.89007688716</ele>
        <time>2020-08-08T07:25:19.000Z</time>
      </trkpt>
      <trkpt lat="43.69392" lon="3.73178">
        <ele>205.59824809338</ele>
        <time>2020-08-08T07:25:20.000Z</time>
      </trkpt>
      <trkpt lat="43.69391" lon="3.73173">
        <ele>205.30641929961</ele>
        <time>2020-08-08T07:25:21.000Z</time>
      </trkpt>
      <trkpt lat="43.69389" lon="3.73168">
        <ele>205.01459050584</ele>
        <time>2020-08-08T07:25:22.000Z</time>
      </trkpt>
      <trkpt lat="43.69388" lon="3.73163">
        <ele>204.80532721311</ele>
        <time>2020-08-08T07:25:23.000Z</time>
      </trkpt>
      <trkpt lat="43.69386" lon="3.73157">
        <ele>204.60040918033</ele>
        <time>2020-08-08T07:25:24.000Z</time>
      </trkpt>
      <trkpt lat="43.69384" lon="3.73152">
        <ele>204.39549114754</ele>
        <time>2020-08-08T07:25:25.000Z</time>
      </trkpt>
      <trkpt lat="43.69383" lon="3.73148">
        <ele>204.19057311475</ele>
        <time>2020-08-08T07:25:26.000Z</time>
      </trkpt>
      <trkpt lat="43.69382" lon="3.73144">
        <ele>203.98565508197</ele>
        <time>2020-08-08T07:25:27.000Z</time>
      </trkpt>
      <trkpt lat="43.69381" lon="3.7314">
        <ele>203.78073704918</ele>
        <time>2020-08-08T07:25:28.000Z</time>
      </trkpt>
      <trkpt lat="43.6938" lon="3.73137">
        <ele>203.57581901639</ele>
        <time>2020-08-08T07:25:29.000Z</time>
      </trkpt>
      <trkpt lat="43.69379" lon="3.73134">
        <ele>203.37090098361</ele>
        <time>2020-08-08T07:25:30.000Z</time>
      </trkpt>
      <trkpt lat="43.69378" lon="3.73131">
        <ele>203.16598295082</ele>
        <time>2020-08-08T07:25:31.000Z</time>
      </trkpt>
      <trkpt lat="43.69377" lon="3.73127">
        <ele>202.94277012048</ele>
        <time>2020-08-08T07:25:32.000Z</time>
      </trkpt>
      <trkpt lat="43.69377" lon="3.73123">
        <ele>202.6415653012</ele>
        <time>2020-08-08T07:25:33.000Z</time>
      </trkpt>
      <trkpt lat="43.69375" lon="3.73119">
        <ele>202.34036048193</ele>
        <time>2020-08-08T07:25:34.000Z</time>
      </trkpt>
      <trkpt lat="43.69374" lon="3.73115">
        <ele>202.03915566265</ele>
        <time>2020-08-08T07:25:35.000Z</time>
      </trkpt>
      <trkpt lat="43.69373" lon="3.73111">
        <ele>201.73795084337</ele>
        <time>2020-08-08T07:25:36.000Z</time>
      </trkpt>
      <trkpt lat="43.69372" lon="3.73107">
        <ele>201.4367460241</ele>
        <time>2020-08-08T07:25:37.000Z</time>
      </trkpt>
      <trkpt lat="43.69371" lon="3.73103">
        <ele>201.13554120482</ele>
        <time>2020-08-08T07:25:38.000Z</time>
      </trkpt>
      <trkpt lat="43.69369" lon="3.731">
        <ele>200.83433638554</ele>
        <time>2020-08-08T07:25:39.000Z</time>
      </trkpt>
      <trkpt lat="43.69368" lon="3.73096">
        <ele>200.53313156627</ele>
        <time>2020-08-08T07:25:40.000Z</time>
      </trkpt>
      <trkpt lat="43.69367" lon="3.73093">
        <ele>200.23192674699</ele>
        <time>2020-08-08T07:25:41.000Z</time>
      </trkpt>
      <trkpt lat="43.69366" lon="3.73089">
        <ele>199.93099904</ele>
        <time>2020-08-08T07:25:42.000Z</time>
      </trkpt>
      <trkpt lat="43.69365" lon="3.73086">
        <ele>199.63099904</ele>
        <time>2020-08-08T07:25:43.000Z</time>
      </trkpt>
      <trkpt lat="43.69364" lon="3.73083">
        <ele>199.33099904</ele>
        <time>2020-08-08T07:25:44.000Z</time>
      </trkpt>
      <trkpt lat="43.69363" lon="3.73079">
        <ele>198.73099904</ele>
        <time>2020-08-08T07:25:46.000Z</time>
      </trkpt>
      <trkpt lat="43.69362" lon="3.73075">
        <ele>198.13099904</ele>
        <time>2020-08-08T07:25:48.000Z</time>
      </trkpt>
      <trkpt lat="43.69361" lon="3.7307">
        <ele>197.53099904</ele>
        <time>2020-08-08T07:25:50.000Z</time>
      </trkpt>
      <trkpt lat="43.6936" lon="3.73068">
        <ele>197.23099904</ele>
        <time>2020-08-08T07:25:51.000Z</time>
      </trkpt>
      <trkpt lat="43.69359" lon="3.73065">
        <ele>196.97499965217</ele>
        <time>2020-08-08T07:25:52.000Z</time>
      </trkpt>
      <trkpt lat="43.69359" lon="3.73063">
        <ele>196.866304</ele>
        <time>2020-08-08T07:25:53.000Z</time>
      </trkpt>
      <trkpt lat="43.69358" lon="3.7306">
        <ele>196.64891269565</ele>
        <time>2020-08-08T07:25:55.000Z</time>
      </trkpt>
      <trkpt lat="43.69357" lon="3.73058">
        <ele>196</ele>
        <time>2020-08-08T07:26:01.000Z</time>
      </trkpt>
      <trkpt lat="43.69356" lon="3.73049">
        <ele>196</ele>
        <time>2020-08-08T07:26:10.000Z</time>
      </trkpt>
      <trkpt lat="43.69356" lon="3.73045">
        <ele>195.60164376289</ele>
        <time>2020-08-08T07:26:11.000Z</time>
      </trkpt>
      <trkpt lat="43.69355" lon="3.73039">
        <ele>195.19096587497</ele>
        <time>2020-08-08T07:26:12.000Z</time>
      </trkpt>
      <trkpt lat="43.69355" lon="3.73033">
        <ele>194.78028798705</ele>
        <time>2020-08-08T07:26:13.000Z</time>
      </trkpt>
      <trkpt lat="43.69355" lon="3.73027">
        <ele>194.36961009913</ele>
        <time>2020-08-08T07:26:14.000Z</time>
      </trkpt>
      <trkpt lat="43.69354" lon="3.73021">
        <ele>193.95893221121</ele>
        <time>2020-08-08T07:26:15.000Z</time>
      </trkpt>
      <trkpt lat="43.69353" lon="3.73015">
        <ele>193.54825432329</ele>
        <time>2020-08-08T07:26:16.000Z</time>
      </trkpt>
      <trkpt lat="43.69352" lon="3.73008">
        <ele>193.13757643537</ele>
        <time>2020-08-08T07:26:17.000Z</time>
      </trkpt>
      <trkpt lat="43.69351" lon="3.73">
        <ele>192.72689854745</ele>
        <time>2020-08-08T07:26:18.000Z</time>
      </trkpt>
      <trkpt lat="43.69349" lon="3.72992">
        <ele>192.31622065953</ele>
        <time>2020-08-08T07:26:19.000Z</time>
      </trkpt>
      <trkpt lat="43.69348" lon="3.72983">
        <ele>191.93287844358</ele>
        <time>2020-08-08T07:26:20.000Z</time>
      </trkpt>
      <trkpt lat="43.69347" lon="3.72974">
        <ele>191.64104964981</ele>
        <time>2020-08-08T07:26:21.000Z</time>
      </trkpt>
      <trkpt lat="43.69345" lon="3.72965">
        <ele>191.34922085603</ele>
        <time>2020-08-08T07:26:22.000Z</time>
      </trkpt>
      <trkpt lat="43.69344" lon="3.72956">
        <ele>191.05739206226</ele>
        <time>2020-08-08T07:26:23.000Z</time>
      </trkpt>
      <trkpt lat="43.69342" lon="3.72949">
        <ele>190.76556326848</ele>
        <time>2020-08-08T07:26:24.000Z</time>
      </trkpt>
      <trkpt lat="43.6934" lon="3.72944">
        <ele>190.47373447471</ele>
        <time>2020-08-08T07:26:25.000Z</time>
      </trkpt>
      <trkpt lat="43.69337" lon="3.72941">
        <ele>190.18190568093</ele>
        <time>2020-08-08T07:26:26.000Z</time>
      </trkpt>
      <trkpt lat="43.69335" lon="3.72939">
        <ele>189.89007688716</ele>
        <time>2020-08-08T07:26:27.000Z</time>
      </trkpt>
      <trkpt lat="43.69333" lon="3.72937">
        <ele>189.59824809338</ele>
        <time>2020-08-08T07:26:28.000Z</time>
      </trkpt>
      <trkpt lat="43.69331" lon="3.72934">
        <ele>189.01459050584</ele>
        <time>2020-08-08T07:26:30.000Z</time>
      </trkpt>
      <trkpt lat="43.69331" lon="3.72933">
        <ele>188</ele>
        <time>2020-08-08T07:26:36.000Z</time>
      </trkpt>
      <trkpt lat="43.6933" lon="3.72917">
        <ele>185.00048907432</ele>
        <time>2020-08-08T07:28:39.000Z</time>
      </trkpt>
      <trkpt lat="43.69331" lon="3.72913">
        <ele>184.90041094072</ele>
        <time>2020-08-08T07:28:40.000Z</time>
      </trkpt>
      <trkpt lat="43.69332" lon="3.7291">
        <ele>184.79774146874</ele>
        <time>2020-08-08T07:28:41.000Z</time>
      </trkpt>
      <trkpt lat="43.69333" lon="3.72907">
        <ele>184.69507199676</ele>
        <time>2020-08-08T07:28:42.000Z</time>
      </trkpt>
      <trkpt lat="43.69334" lon="3.72903">
        <ele>184.59240252478</ele>
        <time>2020-08-08T07:28:43.000Z</time>
      </trkpt>
      <trkpt lat="43.69335" lon="3.72899">
        <ele>184.4897330528</ele>
        <time>2020-08-08T07:28:44.000Z</time>
      </trkpt>
      <trkpt lat="43.69335" lon="3.72895">
        <ele>184.38706358082</ele>
        <time>2020-08-08T07:28:45.000Z</time>
      </trkpt>
      <trkpt lat="43.69336" lon="3.72891">
        <ele>184.28439410884</ele>
        <time>2020-08-08T07:28:46.000Z</time>
      </trkpt>
      <trkpt lat="43.69337" lon="3.72887">
        <ele>184.18172463686</ele>
        <time>2020-08-08T07:28:47.000Z</time>
      </trkpt>
      <trkpt lat="43.69338" lon="3.72883">
        <ele>184.07905516488</ele>
        <time>2020-08-08T07:28:48.000Z</time>
      </trkpt>
      <trkpt lat="43.6934" lon="3.7288">
        <ele>184</ele>
        <time>2020-08-08T07:28:49.000Z</time>
      </trkpt>
      <trkpt lat="43.69342" lon="3.72878">
        <ele>184</ele>
        <time>2020-08-08T07:28:50.000Z</time>
      </trkpt>
      <trkpt lat="43.69344" lon="3.72876">
        <ele>184</ele>
        <time>2020-08-08T07:28:51.000Z</time>
      </trkpt>
      <trkpt lat="43.69346" lon="3.72874">
        <ele>184</ele>
        <time>2020-08-08T07:28:52.000Z</time>
      </trkpt>
      <trkpt lat="43.69348" lon="3.72871">
        <ele>184</ele>
        <time>2020-08-08T07:28:53.000Z</time>
      </trkpt>
      <trkpt lat="43.6935" lon="3.72869">
        <ele>184</ele>
        <time>2020-08-08T07:28:54.000Z</time>
      </trkpt>
      <trkpt lat="43.69351" lon="3.72868">
        <ele>184</ele>
        <time>2020-08-08T07:28:55.000Z</time>
      </trkpt>
      <trkpt lat="43.69353" lon="3.72866">
        <ele>184</ele>
        <time>2020-08-08T07:28:56.000Z</time>
      </trkpt>
      <trkpt lat="43.69354" lon="3.72863">
        <ele>184</ele>
        <time>2020-08-08T07:28:57.000Z</time>
      </trkpt>
      <trkpt lat="43.69356" lon="3.72861">
        <ele>184</ele>
        <time>2020-08-08T07:28:58.000Z</time>
      </trkpt>
      <trkpt lat="43.69358" lon="3.72858">
        <ele>184</ele>
        <time>2020-08-08T07:28:59.000Z</time>
      </trkpt>
      <trkpt lat="43.6936" lon="3.72855">
        <ele>183.90226304527</ele>
        <time>2020-08-08T07:29:00.000Z</time>
      </trkpt>
      <trkpt lat="43.69363" lon="3.72852">
        <ele>183.79938238683</ele>
        <time>2020-08-08T07:29:01.000Z</time>
      </trkpt>
      <trkpt lat="43.69365" lon="3.72849">
        <ele>183.69650172839</ele>
        <time>2020-08-08T07:29:02.000Z</time>
      </trkpt>
      <trkpt lat="43.69367" lon="3.72847">
        <ele>183.59362106996</ele>
        <time>2020-08-08T07:29:03.000Z</time>
      </trkpt>
      <trkpt lat="43.69369" lon="3.72844">
        <ele>183.49074041152</ele>
        <time>2020-08-08T07:29:04.000Z</time>
      </trkpt>
      <trkpt lat="43.69371" lon="3.72841">
        <ele>183.38785975309</ele>
        <time>2020-08-08T07:29:05.000Z</time>
      </trkpt>
      <trkpt lat="43.69373" lon="3.72838">
        <ele>183.28497909465</ele>
        <time>2020-08-08T07:29:06.000Z</time>
      </trkpt>
      <trkpt lat="43.69376" lon="3.72836">
        <ele>183.18209843621</ele>
        <time>2020-08-08T07:29:07.000Z</time>
      </trkpt>
      <trkpt lat="43.69378" lon="3.72833">
        <ele>183.07921777778</ele>
        <time>2020-08-08T07:29:08.000Z</time>
      </trkpt>
      <trkpt lat="43.6938" lon="3.72831">
        <ele>182.95399936</ele>
        <time>2020-08-08T07:29:09.000Z</time>
      </trkpt>
      <trkpt lat="43.69383" lon="3.72828">
        <ele>182.75399936</ele>
        <time>2020-08-08T07:29:10.000Z</time>
      </trkpt>
      <trkpt lat="43.69386" lon="3.72827">
        <ele>182.55399936</ele>
        <time>2020-08-08T07:29:11.000Z</time>
      </trkpt>
      <trkpt lat="43.69391" lon="3.72823">
        <ele>181.35399936</ele>
        <time>2020-08-08T07:29:17.000Z</time>
      </trkpt>
      <trkpt lat="43.69394" lon="3.72821">
        <ele>181.15399936</ele>
        <time>2020-08-08T07:29:18.000Z</time>
      </trkpt>
      <trkpt lat="43.69398" lon="3.72819">
        <ele>180.95399936</ele>
        <time>2020-08-08T07:29:19.000Z</time>
      </trkpt>
      <trkpt lat="43.69401" lon="3.72817">
        <ele>180.75399936</ele>
        <time>2020-08-08T07:29:20.000Z</time>
      </trkpt>
      <trkpt lat="43.69405" lon="3.72815">
        <ele>180.55399936</ele>
        <time>2020-08-08T07:29:21.000Z</time>
      </trkpt>
      <trkpt lat="43.69408" lon="3.72813">
        <ele>180.35399936</ele>
        <time>2020-08-08T07:29:22.000Z</time>
      </trkpt>
      <trkpt lat="43.69411" lon="3.72811">
        <ele>180.15399936</ele>
        <time>2020-08-08T07:29:23.000Z</time>
      </trkpt>
      <trkpt lat="43.69413" lon="3.72808">
        <ele>179.95399936</ele>
        <time>2020-08-08T07:29:24.000Z</time>
      </trkpt>
      <trkpt lat="43.69416" lon="3.72805">
        <ele>179.75399936</ele>
        <time>2020-08-08T07:29:25.000Z</time>
      </trkpt>
      <trkpt lat="43.69418" lon="3.72803">
        <ele>179.55399936</ele>
        <time>2020-08-08T07:29:26.000Z</time>
      </trkpt>
      <trkpt lat="43.6942" lon="3.728">
        <ele>179.35399936</ele>
        <time>2020-08-08T07:29:27.000Z</time>
      </trkpt>
      <trkpt lat="43.69422" lon="3.72798">
        <ele>179.15399936</ele>
        <time>2020-08-08T07:29:28.000Z</time>
      </trkpt>
      <trkpt lat="43.69423" lon="3.72796">
        <ele>178.95418262948</ele>
        <time>2020-08-08T07:29:29.000Z</time>
      </trkpt>
      <trkpt lat="43.69425" lon="3.72795">
        <ele>178.75497944223</ele>
        <time>2020-08-08T07:29:30.000Z</time>
      </trkpt>
      <trkpt lat="43.69426" lon="3.72793">
        <ele>178.55577625498</ele>
        <time>2020-08-08T07:29:31.000Z</time>
      </trkpt>
      <trkpt lat="43.69428" lon="3.7279">
        <ele>178.35657306773</ele>
        <time>2020-08-08T07:29:32.000Z</time>
      </trkpt>
      <trkpt lat="43.6943" lon="3.72788">
        <ele>178.15736988048</ele>
        <time>2020-08-08T07:29:33.000Z</time>
      </trkpt>
      <trkpt lat="43.69433" lon="3.72786">
        <ele>177.95816669323</ele>
        <time>2020-08-08T07:29:34.000Z</time>
      </trkpt>
      <trkpt lat="43.69435" lon="3.72784">
        <ele>177.75896350598</ele>
        <time>2020-08-08T07:29:35.000Z</time>
      </trkpt>
      <trkpt lat="43.69436" lon="3.72783">
        <ele>177.55976031873</ele>
        <time>2020-08-08T07:29:36.000Z</time>
      </trkpt>
      <trkpt lat="43.69438" lon="3.72779">
        <ele>177.16135394422</ele>
        <time>2020-08-08T07:29:38.000Z</time>
      </trkpt>
      <trkpt lat="43.6944" lon="3.72777">
        <ele>176.96184674699</ele>
        <time>2020-08-08T07:29:39.000Z</time>
      </trkpt>
      <trkpt lat="43.69442" lon="3.72775">
        <ele>176.76104353414</ele>
        <time>2020-08-08T07:29:40.000Z</time>
      </trkpt>
      <trkpt lat="43.69443" lon="3.72773">
        <ele>176.56024032128</ele>
        <time>2020-08-08T07:29:41.000Z</time>
      </trkpt>
      <trkpt lat="43.69446" lon="3.72771">
        <ele>176.15863389558</ele>
        <time>2020-08-08T07:29:43.000Z</time>
      </trkpt>
      <trkpt lat="43.69447" lon="3.72769">
        <ele>175.15461783132</ele>
        <time>2020-08-08T07:29:48.000Z</time>
      </trkpt>
      <trkpt lat="43.69449" lon="3.72766">
        <ele>174.75399936</ele>
        <time>2020-08-08T07:29:50.000Z</time>
      </trkpt>
      <trkpt lat="43.6945" lon="3.72764">
        <ele>174.35399936</ele>
        <time>2020-08-08T07:29:52.000Z</time>
      </trkpt>
      <trkpt lat="43.69452" lon="3.72761">
        <ele>173.95399936</ele>
        <time>2020-08-08T07:29:54.000Z</time>
      </trkpt>
      <trkpt lat="43.69453" lon="3.72759">
        <ele>173.55399936</ele>
        <time>2020-08-08T07:29:56.000Z</time>
      </trkpt>
      <trkpt lat="43.69455" lon="3.72756">
        <ele>173.15399936</ele>
        <time>2020-08-08T07:29:58.000Z</time>
      </trkpt>
      <trkpt lat="43.69456" lon="3.72754">
        <ele>172.33099904</ele>
        <time>2020-08-08T07:30:01.000Z</time>
      </trkpt>
      <trkpt lat="43.69458" lon="3.72752">
        <ele>171.73099904</ele>
        <time>2020-08-08T07:30:03.000Z</time>
      </trkpt>
      <trkpt lat="43.69459" lon="3.72749">
        <ele>171.13099904</ele>
        <time>2020-08-08T07:30:05.000Z</time>
      </trkpt>
      <trkpt lat="43.69462" lon="3.7275">
        <ele>170.53099904</ele>
        <time>2020-08-08T07:30:07.000Z</time>
      </trkpt>
      <trkpt lat="43.69464" lon="3.72751">
        <ele>169.63246916335</ele>
        <time>2020-08-08T07:30:10.000Z</time>
      </trkpt>
      <trkpt lat="43.69465" lon="3.72749">
        <ele>169.03485960159</ele>
        <time>2020-08-08T07:30:12.000Z</time>
      </trkpt>
      <trkpt lat="43.69467" lon="3.72748">
        <ele>168.43725003984</ele>
        <time>2020-08-08T07:30:14.000Z</time>
      </trkpt>
      <trkpt lat="43.69469" lon="3.72746">
        <ele>167.83964047809</ele>
        <time>2020-08-08T07:30:16.000Z</time>
      </trkpt>
      <trkpt lat="43.69471" lon="3.72744">
        <ele>167.24203091634</ele>
        <time>2020-08-08T07:30:18.000Z</time>
      </trkpt>
      <trkpt lat="43.69473" lon="3.72744">
        <ele>166.6415653012</ele>
        <time>2020-08-08T07:30:20.000Z</time>
      </trkpt>
      <trkpt lat="43.69476" lon="3.72743">
        <ele>166.03915566265</ele>
        <time>2020-08-08T07:30:22.000Z</time>
      </trkpt>
      <trkpt lat="43.69478" lon="3.72743">
        <ele>164.53313156627</ele>
        <time>2020-08-08T07:30:27.000Z</time>
      </trkpt>
      <trkpt lat="43.6948" lon="3.7274">
        <ele>163.87699968</ele>
        <time>2020-08-08T07:30:30.000Z</time>
      </trkpt>
      <trkpt lat="43.69481" lon="3.72739">
        <ele>163.67699968</ele>
        <time>2020-08-08T07:30:32.000Z</time>
      </trkpt>
      <trkpt lat="43.69483" lon="3.72737">
        <ele>163.47699968</ele>
        <time>2020-08-08T07:30:34.000Z</time>
      </trkpt>
      <trkpt lat="43.69485" lon="3.72736">
        <ele>163.27699968</ele>
        <time>2020-08-08T07:30:36.000Z</time>
      </trkpt>
      <trkpt lat="43.69487" lon="3.72735">
        <ele>162.91136436364</ele>
        <time>2020-08-08T07:30:43.000Z</time>
      </trkpt>
      <trkpt lat="43.6949" lon="3.72732">
        <ele>162.00227345454</ele>
        <time>2020-08-08T07:30:51.000Z</time>
      </trkpt>
      <trkpt lat="43.69491" lon="3.7273">
        <ele>162</ele>
        <time>2020-08-08T07:30:53.000Z</time>
      </trkpt>
      <trkpt lat="43.69493" lon="3.72728">
        <ele>162</ele>
        <time>2020-08-08T07:30:57.000Z</time>
      </trkpt>
      <trkpt lat="43.69495" lon="3.72725">
        <ele>162</ele>
        <time>2020-08-08T07:31:00.000Z</time>
      </trkpt>
      <trkpt lat="43.69496" lon="3.72725">
        <ele>161.97611940755</ele>
        <time>2020-08-08T07:31:07.000Z</time>
      </trkpt>
      <trkpt lat="43.69504" lon="3.72718">
        <ele>160.93198722448</ele>
        <time>2020-08-08T07:31:24.000Z</time>
      </trkpt>
      <trkpt lat="43.69506" lon="3.72715">
        <ele>160.71944730098</ele>
        <time>2020-08-08T07:31:26.000Z</time>
      </trkpt>
      <trkpt lat="43.69508" lon="3.72713">
        <ele>160.50690737748</ele>
        <time>2020-08-08T07:31:28.000Z</time>
      </trkpt>
      <trkpt lat="43.69511" lon="3.72709">
        <ele>160.29436745398</ele>
        <time>2020-08-08T07:31:30.000Z</time>
      </trkpt>
      <trkpt lat="43.69513" lon="3.72707">
        <ele>160.08182753048</ele>
        <time>2020-08-08T07:31:32.000Z</time>
      </trkpt>
      <trkpt lat="43.69516" lon="3.72706">
        <ele>159.7609322483</ele>
        <time>2020-08-08T07:31:34.000Z</time>
      </trkpt>
      <trkpt lat="43.69519" lon="3.72706">
        <ele>159.37220520807</ele>
        <time>2020-08-08T07:31:36.000Z</time>
      </trkpt>
      <trkpt lat="43.69521" lon="3.72704">
        <ele>158.98347816785</ele>
        <time>2020-08-08T07:31:38.000Z</time>
      </trkpt>
      <trkpt lat="43.69524" lon="3.727">
        <ele>158.59475112762</ele>
        <time>2020-08-08T07:31:40.000Z</time>
      </trkpt>
      <trkpt lat="43.69526" lon="3.72698">
        <ele>158.40038760751</ele>
        <time>2020-08-08T07:31:41.000Z</time>
      </trkpt>
      <trkpt lat="43.69528" lon="3.72696">
        <ele>158.20602408739</ele>
        <time>2020-08-08T07:31:42.000Z</time>
      </trkpt>
      <trkpt lat="43.6953" lon="3.72695">
        <ele>158.01166056728</ele>
        <time>2020-08-08T07:31:43.000Z</time>
      </trkpt>
      <trkpt lat="43.69532" lon="3.72694">
        <ele>157.86779100184</ele>
        <time>2020-08-08T07:31:44.000Z</time>
      </trkpt>
      <trkpt lat="43.69534" lon="3.72693">
        <ele>157.58649717626</ele>
        <time>2020-08-08T07:31:46.000Z</time>
      </trkpt>
      <trkpt lat="43.69535" lon="3.72693">
        <ele>156.77059011765</ele>
        <time>2020-08-08T07:31:51.000Z</time>
      </trkpt>
      <trkpt lat="43.6954" lon="3.72689">
        <ele>155.00588423529</ele>
        <time>2020-08-08T07:31:57.000Z</time>
      </trkpt>
      <trkpt lat="43.69541" lon="3.72688">
        <ele>154.80082188144</ele>
        <time>2020-08-08T07:31:58.000Z</time>
      </trkpt>
      <trkpt lat="43.69543" lon="3.72687">
        <ele>154.59548293748</ele>
        <time>2020-08-08T07:31:59.000Z</time>
      </trkpt>
      <trkpt lat="43.69545" lon="3.72685">
        <ele>154.39014399352</ele>
        <time>2020-08-08T07:32:00.000Z</time>
      </trkpt>
      <trkpt lat="43.69547" lon="3.72684">
        <ele>154.18480504956</ele>
        <time>2020-08-08T07:32:01.000Z</time>
      </trkpt>
      <trkpt lat="43.69547" lon="3.72681">
        <ele>153.56878821768</ele>
        <time>2020-08-08T07:32:04.000Z</time>
      </trkpt>
      <trkpt lat="43.69548" lon="3.72678">
        <ele>153.36344927372</ele>
        <time>2020-08-08T07:32:05.000Z</time>
      </trkpt>
      <trkpt lat="43.69549" lon="3.72675">
        <ele>153.15811032976</ele>
        <time>2020-08-08T07:32:06.000Z</time>
      </trkpt>
      <trkpt lat="43.69551" lon="3.72672">
        <ele>152.91059153682</ele>
        <time>2020-08-08T07:32:07.000Z</time>
      </trkpt>
      <trkpt lat="43.69553" lon="3.7267">
        <ele>152.52186449659</ele>
        <time>2020-08-08T07:32:08.000Z</time>
      </trkpt>
      <trkpt lat="43.69556" lon="3.72668">
        <ele>152.13313745637</ele>
        <time>2020-08-08T07:32:09.000Z</time>
      </trkpt>
      <trkpt lat="43.69559" lon="3.72665">
        <ele>151.74441041614</ele>
        <time>2020-08-08T07:32:10.000Z</time>
      </trkpt>
      <trkpt lat="43.69562" lon="3.72664">
        <ele>151.35568337592</ele>
        <time>2020-08-08T07:32:11.000Z</time>
      </trkpt>
      <trkpt lat="43.69565" lon="3.72663">
        <ele>150.96695633569</ele>
        <time>2020-08-08T07:32:12.000Z</time>
      </trkpt>
      <trkpt lat="43.69568" lon="3.72662">
        <ele>150.57822929547</ele>
        <time>2020-08-08T07:32:13.000Z</time>
      </trkpt>
      <trkpt lat="43.69571" lon="3.72662">
        <ele>150.18950225524</ele>
        <time>2020-08-08T07:32:14.000Z</time>
      </trkpt>
      <trkpt lat="43.69574" lon="3.72661">
        <ele>149.80077521501</ele>
        <time>2020-08-08T07:32:15.000Z</time>
      </trkpt>
      <trkpt lat="43.69577" lon="3.7266">
        <ele>149.41204817479</ele>
        <time>2020-08-08T07:32:16.000Z</time>
      </trkpt>
      <trkpt lat="43.6958" lon="3.72658">
        <ele>149.02332113456</ele>
        <time>2020-08-08T07:32:17.000Z</time>
      </trkpt>
      <trkpt lat="43.69583" lon="3.72657">
        <ele>148.61276783101</ele>
        <time>2020-08-08T07:32:18.000Z</time>
      </trkpt>
      <trkpt lat="43.69585" lon="3.72655">
        <ele>148.20082151981</ele>
        <time>2020-08-08T07:32:19.000Z</time>
      </trkpt>
      <trkpt lat="43.69587" lon="3.72655">
        <ele>147.78887520861</ele>
        <time>2020-08-08T07:32:20.000Z</time>
      </trkpt>
      <trkpt lat="43.6959" lon="3.72655">
        <ele>147.37692889741</ele>
        <time>2020-08-08T07:32:21.000Z</time>
      </trkpt>
      <trkpt lat="43.69594" lon="3.72655">
        <ele>146.96498258621</ele>
        <time>2020-08-08T07:32:22.000Z</time>
      </trkpt>
      <trkpt lat="43.69597" lon="3.72654">
        <ele>146.553036275</ele>
        <time>2020-08-08T07:32:23.000Z</time>
      </trkpt>
      <trkpt lat="43.696" lon="3.72654">
        <ele>146.1410899638</ele>
        <time>2020-08-08T07:32:24.000Z</time>
      </trkpt>
      <trkpt lat="43.69603" lon="3.72653">
        <ele>145.7291436526</ele>
        <time>2020-08-08T07:32:25.000Z</time>
      </trkpt>
      <trkpt lat="43.69606" lon="3.72652">
        <ele>145.3171973414</ele>
        <time>2020-08-08T07:32:26.000Z</time>
      </trkpt>
      <trkpt lat="43.69609" lon="3.72651">
        <ele>144.97699968</ele>
        <time>2020-08-08T07:32:27.000Z</time>
      </trkpt>
      <trkpt lat="43.69612" lon="3.7265">
        <ele>144.87699968</ele>
        <time>2020-08-08T07:32:28.000Z</time>
      </trkpt>
      <trkpt lat="43.69616" lon="3.7265">
        <ele>144.77699968</ele>
        <time>2020-08-08T07:32:29.000Z</time>
      </trkpt>
      <trkpt lat="43.69619" lon="3.72649">
        <ele>144.67699968</ele>
        <time>2020-08-08T07:32:30.000Z</time>
      </trkpt>
      <trkpt lat="43.69622" lon="3.72648">
        <ele>144.57699968</ele>
        <time>2020-08-08T07:32:31.000Z</time>
      </trkpt>
      <trkpt lat="43.69626" lon="3.72646">
        <ele>144.47699968</ele>
        <time>2020-08-08T07:32:32.000Z</time>
      </trkpt>
      <trkpt lat="43.69629" lon="3.72645">
        <ele>144.37699968</ele>
        <time>2020-08-08T07:32:33.000Z</time>
      </trkpt>
      <trkpt lat="43.69633" lon="3.72644">
        <ele>144.27699968</ele>
        <time>2020-08-08T07:32:34.000Z</time>
      </trkpt>
      <trkpt lat="43.69636" lon="3.72643">
        <ele>144.17699968</ele>
        <time>2020-08-08T07:32:35.000Z</time>
      </trkpt>
      <trkpt lat="43.69639" lon="3.72643">
        <ele>144.07699968</ele>
        <time>2020-08-08T07:32:36.000Z</time>
      </trkpt>
      <trkpt lat="43.69643" lon="3.72642">
        <ele>143.97709131474</ele>
        <time>2020-08-08T07:32:37.000Z</time>
      </trkpt>
      <trkpt lat="43.69646" lon="3.72641">
        <ele>143.87748972112</ele>
        <time>2020-08-08T07:32:38.000Z</time>
      </trkpt>
      <trkpt lat="43.6965" lon="3.7264">
        <ele>143.77788812749</ele>
        <time>2020-08-08T07:32:39.000Z</time>
      </trkpt>
      <trkpt lat="43.69653" lon="3.7264">
        <ele>143.67828653386</ele>
        <time>2020-08-08T07:32:40.000Z</time>
      </trkpt>
      <trkpt lat="43.69656" lon="3.72639">
        <ele>143.57868494024</ele>
        <time>2020-08-08T07:32:41.000Z</time>
      </trkpt>
      <trkpt lat="43.6966" lon="3.72639">
        <ele>143.47908334661</ele>
        <time>2020-08-08T07:32:42.000Z</time>
      </trkpt>
      <trkpt lat="43.69663" lon="3.72638">
        <ele>143.37948175299</ele>
        <time>2020-08-08T07:32:43.000Z</time>
      </trkpt>
      <trkpt lat="43.69667" lon="3.72637">
        <ele>143.27988015936</ele>
        <time>2020-08-08T07:32:44.000Z</time>
      </trkpt>
      <trkpt lat="43.6967" lon="3.72636">
        <ele>143.18027856574</ele>
        <time>2020-08-08T07:32:45.000Z</time>
      </trkpt>
      <trkpt lat="43.69673" lon="3.72635">
        <ele>143.08067697211</ele>
        <time>2020-08-08T07:32:46.000Z</time>
      </trkpt>
      <trkpt lat="43.69676" lon="3.72634">
        <ele>143</ele>
        <time>2020-08-08T07:32:47.000Z</time>
      </trkpt>
      <trkpt lat="43.69678" lon="3.72633">
        <ele>143</ele>
        <time>2020-08-08T07:32:48.000Z</time>
      </trkpt>
      <trkpt lat="43.69681" lon="3.72632">
        <ele>143</ele>
        <time>2020-08-08T07:32:49.000Z</time>
      </trkpt>
      <trkpt lat="43.69684" lon="3.72631">
        <ele>143</ele>
        <time>2020-08-08T07:32:50.000Z</time>
      </trkpt>
      <trkpt lat="43.69687" lon="3.72631">
        <ele>143</ele>
        <time>2020-08-08T07:32:51.000Z</time>
      </trkpt>
      <trkpt lat="43.6969" lon="3.7263">
        <ele>143</ele>
        <time>2020-08-08T07:32:52.000Z</time>
      </trkpt>
      <trkpt lat="43.69693" lon="3.72631">
        <ele>143</ele>
        <time>2020-08-08T07:32:53.000Z</time>
      </trkpt>
      <trkpt lat="43.69697" lon="3.72631">
        <ele>143</ele>
        <time>2020-08-08T07:32:54.000Z</time>
      </trkpt>
      <trkpt lat="43.697" lon="3.72632">
        <ele>143</ele>
        <time>2020-08-08T07:32:55.000Z</time>
      </trkpt>
      <trkpt lat="43.69704" lon="3.72633">
        <ele>143</ele>
        <time>2020-08-08T07:32:56.000Z</time>
      </trkpt>
      <trkpt lat="43.69708" lon="3.72633">
        <ele>142.98786652792</ele>
        <time>2020-08-08T07:32:57.000Z</time>
      </trkpt>
      <trkpt lat="43.69711" lon="3.72634">
        <ele>142.88675426063</ele>
        <time>2020-08-08T07:32:58.000Z</time>
      </trkpt>
      <trkpt lat="43.69715" lon="3.72634">
        <ele>142.78564199333</ele>
        <time>2020-08-08T07:32:59.000Z</time>
      </trkpt>
      <trkpt lat="43.69718" lon="3.72635">
        <ele>142.68452972604</ele>
        <time>2020-08-08T07:33:00.000Z</time>
      </trkpt>
      <trkpt lat="43.69722" lon="3.72635">
        <ele>142.58341745874</ele>
        <time>2020-08-08T07:33:01.000Z</time>
      </trkpt>
      <trkpt lat="43.69725" lon="3.72636">
        <ele>142.48230519144</ele>
        <time>2020-08-08T07:33:02.000Z</time>
      </trkpt>
      <trkpt lat="43.69727" lon="3.72636">
        <ele>142.38119292415</ele>
        <time>2020-08-08T07:33:03.000Z</time>
      </trkpt>
      <trkpt lat="43.6973" lon="3.72636">
        <ele>142.17896838955</ele>
        <time>2020-08-08T07:33:05.000Z</time>
      </trkpt>
      <trkpt lat="43.69732" lon="3.72637">
        <ele>142</ele>
        <time>2020-08-08T07:33:12.000Z</time>
      </trkpt>
      <trkpt lat="43.69738" lon="3.72634">
        <ele>141.01555983402</ele>
        <time>2020-08-08T07:33:31.000Z</time>
      </trkpt>
      <trkpt lat="43.69741" lon="3.72632">
        <ele>140.82266554381</ele>
        <time>2020-08-08T07:33:33.000Z</time>
      </trkpt>
      <trkpt lat="43.69742" lon="3.7263">
        <ele>140.71773371424</ele>
        <time>2020-08-08T07:33:34.000Z</time>
      </trkpt>
      <trkpt lat="43.69744" lon="3.72629">
        <ele>140.61280188468</ele>
        <time>2020-08-08T07:33:35.000Z</time>
      </trkpt>
      <trkpt lat="43.69746" lon="3.72628">
        <ele>140.50787005511</ele>
        <time>2020-08-08T07:33:36.000Z</time>
      </trkpt>
      <trkpt lat="43.69748" lon="3.72626">
        <ele>140.40293822554</ele>
        <time>2020-08-08T07:33:37.000Z</time>
      </trkpt>
      <trkpt lat="43.6975" lon="3.72625">
        <ele>140.29800639597</ele>
        <time>2020-08-08T07:33:38.000Z</time>
      </trkpt>
      <trkpt lat="43.69753" lon="3.72624">
        <ele>140.1930745664</ele>
        <time>2020-08-08T07:33:39.000Z</time>
      </trkpt>
      <trkpt lat="43.69755" lon="3.72623">
        <ele>140.08814273684</ele>
        <time>2020-08-08T07:33:40.000Z</time>
      </trkpt>
      <trkpt lat="43.69758" lon="3.72621">
        <ele>140</ele>
        <time>2020-08-08T07:33:41.000Z</time>
      </trkpt>
      <trkpt lat="43.6976" lon="3.7262">
        <ele>140</ele>
        <time>2020-08-08T07:33:42.000Z</time>
      </trkpt>
      <trkpt lat="43.69763" lon="3.72619">
        <ele>140</ele>
        <time>2020-08-08T07:33:43.000Z</time>
      </trkpt>
      <trkpt lat="43.69766" lon="3.72617">
        <ele>140</ele>
        <time>2020-08-08T07:33:44.000Z</time>
      </trkpt>
      <trkpt lat="43.69768" lon="3.72616">
        <ele>140</ele>
        <time>2020-08-08T07:33:45.000Z</time>
      </trkpt>
      <trkpt lat="43.6977" lon="3.72615">
        <ele>140</ele>
        <time>2020-08-08T07:33:46.000Z</time>
      </trkpt>
      <trkpt lat="43.69773" lon="3.72614">
        <ele>140</ele>
        <time>2020-08-08T07:33:47.000Z</time>
      </trkpt>
      <trkpt lat="43.69776" lon="3.72613">
        <ele>140</ele>
        <time>2020-08-08T07:33:48.000Z</time>
      </trkpt>
      <trkpt lat="43.69778" lon="3.72612">
        <ele>140</ele>
        <time>2020-08-08T07:33:49.000Z</time>
      </trkpt>
      <trkpt lat="43.69781" lon="3.72611">
        <ele>140</ele>
        <time>2020-08-08T07:33:50.000Z</time>
      </trkpt>
      <trkpt lat="43.69784" lon="3.7261">
        <ele>140</ele>
        <time>2020-08-08T07:33:51.000Z</time>
      </trkpt>
      <trkpt lat="43.69787" lon="3.72608">
        <ele>140.09773695473</ele>
        <time>2020-08-08T07:33:52.000Z</time>
      </trkpt>
      <trkpt lat="43.6979" lon="3.72606">
        <ele>140.20061761317</ele>
        <time>2020-08-08T07:33:53.000Z</time>
      </trkpt>
      <trkpt lat="43.69793" lon="3.72605">
        <ele>140.30349827161</ele>
        <time>2020-08-08T07:33:54.000Z</time>
      </trkpt>
      <trkpt lat="43.69796" lon="3.72603">
        <ele>140.40637893004</ele>
        <time>2020-08-08T07:33:55.000Z</time>
      </trkpt>
      <trkpt lat="43.69798" lon="3.72601">
        <ele>140.50925958848</ele>
        <time>2020-08-08T07:33:56.000Z</time>
      </trkpt>
      <trkpt lat="43.69801" lon="3.72599">
        <ele>140.61214024691</ele>
        <time>2020-08-08T07:33:57.000Z</time>
      </trkpt>
      <trkpt lat="43.69803" lon="3.72597">
        <ele>140.71502090535</ele>
        <time>2020-08-08T07:33:58.000Z</time>
      </trkpt>
      <trkpt lat="43.69806" lon="3.72595">
        <ele>140.81790156379</ele>
        <time>2020-08-08T07:33:59.000Z</time>
      </trkpt>
      <trkpt lat="43.69808" lon="3.72591">
        <ele>140.92078222222</ele>
        <time>2020-08-08T07:34:00.000Z</time>
      </trkpt>
      <trkpt lat="43.6981" lon="3.72588">
        <ele>141</ele>
        <time>2020-08-08T07:34:01.000Z</time>
      </trkpt>
      <trkpt lat="43.69812" lon="3.72584">
        <ele>141</ele>
        <time>2020-08-08T07:34:02.000Z</time>
      </trkpt>
      <trkpt lat="43.69812" lon="3.72579">
        <ele>141</ele>
        <time>2020-08-08T07:34:03.000Z</time>
      </trkpt>
      <trkpt lat="43.69814" lon="3.72575">
        <ele>141</ele>
        <time>2020-08-08T07:34:04.000Z</time>
      </trkpt>
      <trkpt lat="43.69815" lon="3.72571">
        <ele>141</ele>
        <time>2020-08-08T07:34:05.000Z</time>
      </trkpt>
      <trkpt lat="43.69816" lon="3.72567">
        <ele>141</ele>
        <time>2020-08-08T07:34:06.000Z</time>
      </trkpt>
      <trkpt lat="43.69816" lon="3.72563">
        <ele>141</ele>
        <time>2020-08-08T07:34:07.000Z</time>
      </trkpt>
      <trkpt lat="43.69817" lon="3.7256">
        <ele>141</ele>
        <time>2020-08-08T07:34:08.000Z</time>
      </trkpt>
      <trkpt lat="43.69817" lon="3.72556">
        <ele>141</ele>
        <time>2020-08-08T07:34:09.000Z</time>
      </trkpt>
      <trkpt lat="43.69818" lon="3.72552">
        <ele>141</ele>
        <time>2020-08-08T07:34:10.000Z</time>
      </trkpt>
      <trkpt lat="43.69819" lon="3.72548">
        <ele>141.02300032</ele>
        <time>2020-08-08T07:34:11.000Z</time>
      </trkpt>
      <trkpt lat="43.6982" lon="3.72544">
        <ele>141.12300032</ele>
        <time>2020-08-08T07:34:12.000Z</time>
      </trkpt>
      <trkpt lat="43.69821" lon="3.7254">
        <ele>141.22300032</ele>
        <time>2020-08-08T07:34:13.000Z</time>
      </trkpt>
      <trkpt lat="43.69822" lon="3.72536">
        <ele>141.32300032</ele>
        <time>2020-08-08T07:34:14.000Z</time>
      </trkpt>
      <trkpt lat="43.69823" lon="3.72532">
        <ele>141.42300032</ele>
        <time>2020-08-08T07:34:15.000Z</time>
      </trkpt>
      <trkpt lat="43.69824" lon="3.72528">
        <ele>141.52300032</ele>
        <time>2020-08-08T07:34:16.000Z</time>
      </trkpt>
      <trkpt lat="43.69824" lon="3.72524">
        <ele>141.62300032</ele>
        <time>2020-08-08T07:34:17.000Z</time>
      </trkpt>
      <trkpt lat="43.69825" lon="3.7252">
        <ele>141.72300032</ele>
        <time>2020-08-08T07:34:18.000Z</time>
      </trkpt>
      <trkpt lat="43.69826" lon="3.72516">
        <ele>141.82300032</ele>
        <time>2020-08-08T07:34:19.000Z</time>
      </trkpt>
      <trkpt lat="43.69827" lon="3.72513">
        <ele>141.92300032</ele>
        <time>2020-08-08T07:34:20.000Z</time>
      </trkpt>
      <trkpt lat="43.69829" lon="3.72509">
        <ele>142</ele>
        <time>2020-08-08T07:34:21.000Z</time>
      </trkpt>
      <trkpt lat="43.69831" lon="3.72506">
        <ele>142</ele>
        <time>2020-08-08T07:34:22.000Z</time>
      </trkpt>
      <trkpt lat="43.69833" lon="3.72503">
        <ele>142</ele>
        <time>2020-08-08T07:34:23.000Z</time>
      </trkpt>
      <trkpt lat="43.69835" lon="3.725">
        <ele>142</ele>
        <time>2020-08-08T07:34:24.000Z</time>
      </trkpt>
      <trkpt lat="43.69837" lon="3.72497">
        <ele>142</ele>
        <time>2020-08-08T07:34:25.000Z</time>
      </trkpt>
      <trkpt lat="43.69839" lon="3.72494">
        <ele>142</ele>
        <time>2020-08-08T07:34:26.000Z</time>
      </trkpt>
      <trkpt lat="43.69841" lon="3.72492">
        <ele>142</ele>
        <time>2020-08-08T07:34:27.000Z</time>
      </trkpt>
      <trkpt lat="43.69843" lon="3.72489">
        <ele>142</ele>
        <time>2020-08-08T07:34:28.000Z</time>
      </trkpt>
      <trkpt lat="43.69846" lon="3.72486">
        <ele>142</ele>
        <time>2020-08-08T07:34:29.000Z</time>
      </trkpt>
      <trkpt lat="43.69849" lon="3.72484">
        <ele>142</ele>
        <time>2020-08-08T07:34:30.000Z</time>
      </trkpt>
      <trkpt lat="43.69851" lon="3.72481">
        <ele>142.02300032</ele>
        <time>2020-08-08T07:34:31.000Z</time>
      </trkpt>
      <trkpt lat="43.69854" lon="3.72477">
        <ele>142.12300032</ele>
        <time>2020-08-08T07:34:32.000Z</time>
      </trkpt>
      <trkpt lat="43.69856" lon="3.72473">
        <ele>142.22300032</ele>
        <time>2020-08-08T07:34:33.000Z</time>
      </trkpt>
      <trkpt lat="43.69859" lon="3.7247">
        <ele>142.32300032</ele>
        <time>2020-08-08T07:34:34.000Z</time>
      </trkpt>
      <trkpt lat="43.69862" lon="3.72467">
        <ele>142.42300032</ele>
        <time>2020-08-08T07:34:35.000Z</time>
      </trkpt>
      <trkpt lat="43.69864" lon="3.72463">
        <ele>142.52300032</ele>
        <time>2020-08-08T07:34:36.000Z</time>
      </trkpt>
      <trkpt lat="43.69867" lon="3.7246">
        <ele>142.62300032</ele>
        <time>2020-08-08T07:34:37.000Z</time>
      </trkpt>
      <trkpt lat="43.69869" lon="3.72456">
        <ele>142.72300032</ele>
        <time>2020-08-08T07:34:38.000Z</time>
      </trkpt>
      <trkpt lat="43.69871" lon="3.72453">
        <ele>142.82300032</ele>
        <time>2020-08-08T07:34:39.000Z</time>
      </trkpt>
      <trkpt lat="43.69874" lon="3.7245">
        <ele>142.92300032</ele>
        <time>2020-08-08T07:34:40.000Z</time>
      </trkpt>
      <trkpt lat="43.69876" lon="3.72446">
        <ele>143.02300032</ele>
        <time>2020-08-08T07:34:41.000Z</time>
      </trkpt>
      <trkpt lat="43.69879" lon="3.72443">
        <ele>143.12300032</ele>
        <time>2020-08-08T07:34:42.000Z</time>
      </trkpt>
      <trkpt lat="43.69881" lon="3.7244">
        <ele>143.22300032</ele>
        <time>2020-08-08T07:34:43.000Z</time>
      </trkpt>
      <trkpt lat="43.69883" lon="3.72437">
        <ele>143.32300032</ele>
        <time>2020-08-08T07:34:44.000Z</time>
      </trkpt>
      <trkpt lat="43.69885" lon="3.72435">
        <ele>143.42300032</ele>
        <time>2020-08-08T07:34:45.000Z</time>
      </trkpt>
      <trkpt lat="43.69888" lon="3.72432">
        <ele>143.52300032</ele>
        <time>2020-08-08T07:34:46.000Z</time>
      </trkpt>
      <trkpt lat="43.6989" lon="3.72429">
        <ele>143.62300032</ele>
        <time>2020-08-08T07:34:47.000Z</time>
      </trkpt>
      <trkpt lat="43.69892" lon="3.72426">
        <ele>143.72300032</ele>
        <time>2020-08-08T07:34:48.000Z</time>
      </trkpt>
      <trkpt lat="43.69894" lon="3.72423">
        <ele>143.82300032</ele>
        <time>2020-08-08T07:34:49.000Z</time>
      </trkpt>
      <trkpt lat="43.69896" lon="3.7242">
        <ele>143.92300032</ele>
        <time>2020-08-08T07:34:50.000Z</time>
      </trkpt>
      <trkpt lat="43.69898" lon="3.72417">
        <ele>144</ele>
        <time>2020-08-08T07:34:51.000Z</time>
      </trkpt>
      <trkpt lat="43.699" lon="3.72413">
        <ele>144</ele>
        <time>2020-08-08T07:34:52.000Z</time>
      </trkpt>
      <trkpt lat="43.69902" lon="3.7241">
        <ele>144</ele>
        <time>2020-08-08T07:34:53.000Z</time>
      </trkpt>
      <trkpt lat="43.69904" lon="3.72407">
        <ele>144</ele>
        <time>2020-08-08T07:34:54.000Z</time>
      </trkpt>
      <trkpt lat="43.69906" lon="3.72404">
        <ele>144</ele>
        <time>2020-08-08T07:34:55.000Z</time>
      </trkpt>
      <trkpt lat="43.69908" lon="3.72401">
        <ele>144</ele>
        <time>2020-08-08T07:34:56.000Z</time>
      </trkpt>
      <trkpt lat="43.69911" lon="3.72398">
        <ele>144</ele>
        <time>2020-08-08T07:34:57.000Z</time>
      </trkpt>
      <trkpt lat="43.69913" lon="3.72395">
        <ele>144</ele>
        <time>2020-08-08T07:34:58.000Z</time>
      </trkpt>
      <trkpt lat="43.69914" lon="3.72392">
        <ele>144</ele>
        <time>2020-08-08T07:34:59.000Z</time>
      </trkpt>
      <trkpt lat="43.69917" lon="3.72389">
        <ele>144</ele>
        <time>2020-08-08T07:35:00.000Z</time>
      </trkpt>
      <trkpt lat="43.69919" lon="3.72387">
        <ele>144</ele>
        <time>2020-08-08T07:35:01.000Z</time>
      </trkpt>
      <trkpt lat="43.69921" lon="3.72384">
        <ele>144</ele>
        <time>2020-08-08T07:35:02.000Z</time>
      </trkpt>
      <trkpt lat="43.69922" lon="3.72381">
        <ele>144</ele>
        <time>2020-08-08T07:35:03.000Z</time>
      </trkpt>
      <trkpt lat="43.69924" lon="3.72378">
        <ele>144</ele>
        <time>2020-08-08T07:35:04.000Z</time>
      </trkpt>
      <trkpt lat="43.69926" lon="3.72375">
        <ele>144</ele>
        <time>2020-08-08T07:35:05.000Z</time>
      </trkpt>
      <trkpt lat="43.69927" lon="3.72372">
        <ele>144</ele>
        <time>2020-08-08T07:35:06.000Z</time>
      </trkpt>
      <trkpt lat="43.69929" lon="3.7237">
        <ele>144</ele>
        <time>2020-08-08T07:35:07.000Z</time>
      </trkpt>
      <trkpt lat="43.69931" lon="3.72367">
        <ele>144</ele>
        <time>2020-08-08T07:35:08.000Z</time>
      </trkpt>
      <trkpt lat="43.69933" lon="3.72365">
        <ele>144</ele>
        <time>2020-08-08T07:35:09.000Z</time>
      </trkpt>
      <trkpt lat="43.69935" lon="3.72362">
        <ele>144</ele>
        <time>2020-08-08T07:35:10.000Z</time>
      </trkpt>
      <trkpt lat="43.69937" lon="3.7236">
        <ele>144</ele>
        <time>2020-08-08T07:35:11.000Z</time>
      </trkpt>
      <trkpt lat="43.69938" lon="3.72358">
        <ele>144</ele>
        <time>2020-08-08T07:35:12.000Z</time>
      </trkpt>
      <trkpt lat="43.69941" lon="3.72356">
        <ele>144</ele>
        <time>2020-08-08T07:35:14.000Z</time>
      </trkpt>
      <trkpt lat="43.69944" lon="3.72356">
        <ele>144</ele>
        <time>2020-08-08T07:35:16.000Z</time>
      </trkpt>
      <trkpt lat="43.69946" lon="3.72354">
        <ele>144</ele>
        <time>2020-08-08T07:35:18.000Z</time>
      </trkpt>
      <trkpt lat="43.69947" lon="3.72352">
        <ele>144</ele>
        <time>2020-08-08T07:35:19.000Z</time>
      </trkpt>
      <trkpt lat="43.69949" lon="3.7235">
        <ele>144</ele>
        <time>2020-08-08T07:35:20.000Z</time>
      </trkpt>
      <trkpt lat="43.6995" lon="3.72349">
        <ele>144.01213347208</ele>
        <time>2020-08-08T07:35:21.000Z</time>
      </trkpt>
      <trkpt lat="43.69952" lon="3.72347">
        <ele>144.11324573937</ele>
        <time>2020-08-08T07:35:22.000Z</time>
      </trkpt>
      <trkpt lat="43.69954" lon="3.72345">
        <ele>144.21435800667</ele>
        <time>2020-08-08T07:35:23.000Z</time>
      </trkpt>
      <trkpt lat="43.69957" lon="3.72344">
        <ele>144.31547027396</ele>
        <time>2020-08-08T07:35:24.000Z</time>
      </trkpt>
      <trkpt lat="43.69959" lon="3.72343">
        <ele>144.41658254126</ele>
        <time>2020-08-08T07:35:25.000Z</time>
      </trkpt>
      <trkpt lat="43.69961" lon="3.72343">
        <ele>144.51769480856</ele>
        <time>2020-08-08T07:35:26.000Z</time>
      </trkpt>
      <trkpt lat="43.69964" lon="3.72343">
        <ele>144.61880707585</ele>
        <time>2020-08-08T07:35:27.000Z</time>
      </trkpt>
      <trkpt lat="43.69966" lon="3.72342">
        <ele>144.71991934315</ele>
        <time>2020-08-08T07:35:28.000Z</time>
      </trkpt>
      <trkpt lat="43.69968" lon="3.72342">
        <ele>144.82103161045</ele>
        <time>2020-08-08T07:35:29.000Z</time>
      </trkpt>
      <trkpt lat="43.6997" lon="3.72342">
        <ele>144.92214387774</ele>
        <time>2020-08-08T07:35:30.000Z</time>
      </trkpt>
      <trkpt lat="43.69972" lon="3.72342">
        <ele>145</ele>
        <time>2020-08-08T07:35:31.000Z</time>
      </trkpt>
      <trkpt lat="43.69974" lon="3.72342">
        <ele>145</ele>
        <time>2020-08-08T07:35:32.000Z</time>
      </trkpt>
      <trkpt lat="43.69976" lon="3.72343">
        <ele>145</ele>
        <time>2020-08-08T07:35:33.000Z</time>
      </trkpt>
      <trkpt lat="43.69978" lon="3.72343">
        <ele>145</ele>
        <time>2020-08-08T07:35:34.000Z</time>
      </trkpt>
      <trkpt lat="43.69982" lon="3.72345">
        <ele>145</ele>
        <time>2020-08-08T07:35:36.000Z</time>
      </trkpt>
      <trkpt lat="43.69983" lon="3.72346">
        <ele>145</ele>
        <time>2020-08-08T07:35:38.000Z</time>
      </trkpt>
      <trkpt lat="43.69983" lon="3.72346">
        <ele>144.8888880347</ele>
        <time>2020-08-08T07:35:43.000Z</time>
      </trkpt>
      <trkpt lat="43.69991" lon="3.7235">
        <ele>144</ele>
        <time>2020-08-08T07:35:49.000Z</time>
      </trkpt>
      <trkpt lat="43.69994" lon="3.72351">
        <ele>144</ele>
        <time>2020-08-08T07:35:50.000Z</time>
      </trkpt>
      <trkpt lat="43.69996" lon="3.72352">
        <ele>144</ele>
        <time>2020-08-08T07:35:51.000Z</time>
      </trkpt>
      <trkpt lat="43.69999" lon="3.72353">
        <ele>144</ele>
        <time>2020-08-08T07:35:52.000Z</time>
      </trkpt>
      <trkpt lat="43.70002" lon="3.72355">
        <ele>144</ele>
        <time>2020-08-08T07:35:53.000Z</time>
      </trkpt>
      <trkpt lat="43.70004" lon="3.72357">
        <ele>144</ele>
        <time>2020-08-08T07:35:54.000Z</time>
      </trkpt>
      <trkpt lat="43.70007" lon="3.72359">
        <ele>144</ele>
        <time>2020-08-08T07:35:55.000Z</time>
      </trkpt>
      <trkpt lat="43.7001" lon="3.72361">
        <ele>144</ele>
        <time>2020-08-08T07:35:56.000Z</time>
      </trkpt>
      <trkpt lat="43.70012" lon="3.72363">
        <ele>144</ele>
        <time>2020-08-08T07:35:57.000Z</time>
      </trkpt>
      <trkpt lat="43.70015" lon="3.72366">
        <ele>144</ele>
        <time>2020-08-08T07:35:58.000Z</time>
      </trkpt>
      <trkpt lat="43.70017" lon="3.72369">
        <ele>144</ele>
        <time>2020-08-08T07:35:59.000Z</time>
      </trkpt>
      <trkpt lat="43.7002" lon="3.72372">
        <ele>144</ele>
        <time>2020-08-08T07:36:00.000Z</time>
      </trkpt>
      <trkpt lat="43.70022" lon="3.72375">
        <ele>144</ele>
        <time>2020-08-08T07:36:01.000Z</time>
      </trkpt>
      <trkpt lat="43.70024" lon="3.72379">
        <ele>144</ele>
        <time>2020-08-08T07:36:02.000Z</time>
      </trkpt>
      <trkpt lat="43.70026" lon="3.72382">
        <ele>144</ele>
        <time>2020-08-08T07:36:03.000Z</time>
      </trkpt>
      <trkpt lat="43.70028" lon="3.72386">
        <ele>144</ele>
        <time>2020-08-08T07:36:04.000Z</time>
      </trkpt>
      <trkpt lat="43.70031" lon="3.72389">
        <ele>144</ele>
        <time>2020-08-08T07:36:05.000Z</time>
      </trkpt>
      <trkpt lat="43.70032" lon="3.72392">
        <ele>144</ele>
        <time>2020-08-08T07:36:06.000Z</time>
      </trkpt>
      <trkpt lat="43.70034" lon="3.72396">
        <ele>144</ele>
        <time>2020-08-08T07:36:07.000Z</time>
      </trkpt>
      <trkpt lat="43.70037" lon="3.72399">
        <ele>144</ele>
        <time>2020-08-08T07:36:08.000Z</time>
      </trkpt>
      <trkpt lat="43.70039" lon="3.72403">
        <ele>144</ele>
        <time>2020-08-08T07:36:09.000Z</time>
      </trkpt>
      <trkpt lat="43.70042" lon="3.72405">
        <ele>144.09773695473</ele>
        <time>2020-08-08T07:36:10.000Z</time>
      </trkpt>
      <trkpt lat="43.70044" lon="3.72408">
        <ele>144.20061761317</ele>
        <time>2020-08-08T07:36:11.000Z</time>
      </trkpt>
      <trkpt lat="43.70047" lon="3.72411">
        <ele>144.30349827161</ele>
        <time>2020-08-08T07:36:12.000Z</time>
      </trkpt>
      <trkpt lat="43.7005" lon="3.72414">
        <ele>144.40637893004</ele>
        <time>2020-08-08T07:36:13.000Z</time>
      </trkpt>
      <trkpt lat="43.70052" lon="3.72416">
        <ele>144.50925958848</ele>
        <time>2020-08-08T07:36:14.000Z</time>
      </trkpt>
      <trkpt lat="43.70055" lon="3.72419">
        <ele>144.61214024691</ele>
        <time>2020-08-08T07:36:15.000Z</time>
      </trkpt>
      <trkpt lat="43.70057" lon="3.72421">
        <ele>144.71502090535</ele>
        <time>2020-08-08T07:36:16.000Z</time>
      </trkpt>
      <trkpt lat="43.70059" lon="3.72424">
        <ele>144.81790156379</ele>
        <time>2020-08-08T07:36:17.000Z</time>
      </trkpt>
      <trkpt lat="43.70061" lon="3.72427">
        <ele>144.92078222222</ele>
        <time>2020-08-08T07:36:18.000Z</time>
      </trkpt>
      <trkpt lat="43.70063" lon="3.72429">
        <ele>145</ele>
        <time>2020-08-08T07:36:19.000Z</time>
      </trkpt>
      <trkpt lat="43.70065" lon="3.72432">
        <ele>145</ele>
        <time>2020-08-08T07:36:20.000Z</time>
      </trkpt>
      <trkpt lat="43.70067" lon="3.72434">
        <ele>145</ele>
        <time>2020-08-08T07:36:21.000Z</time>
      </trkpt>
      <trkpt lat="43.70069" lon="3.72437">
        <ele>145</ele>
        <time>2020-08-08T07:36:22.000Z</time>
      </trkpt>
      <trkpt lat="43.7007" lon="3.7244">
        <ele>145</ele>
        <time>2020-08-08T07:36:23.000Z</time>
      </trkpt>
      <trkpt lat="43.70072" lon="3.72443">
        <ele>145</ele>
        <time>2020-08-08T07:36:24.000Z</time>
      </trkpt>
      <trkpt lat="43.70073" lon="3.72447">
        <ele>145</ele>
        <time>2020-08-08T07:36:25.000Z</time>
      </trkpt>
      <trkpt lat="43.70075" lon="3.7245">
        <ele>145</ele>
        <time>2020-08-08T07:36:26.000Z</time>
      </trkpt>
      <trkpt lat="43.70076" lon="3.72454">
        <ele>145</ele>
        <time>2020-08-08T07:36:27.000Z</time>
      </trkpt>
      <trkpt lat="43.70077" lon="3.72457">
        <ele>145</ele>
        <time>2020-08-08T07:36:28.000Z</time>
      </trkpt>
      <trkpt lat="43.70079" lon="3.72459">
        <ele>145</ele>
        <time>2020-08-08T07:36:29.000Z</time>
      </trkpt>
      <trkpt lat="43.70081" lon="3.72462">
        <ele>145.09680804225</ele>
        <time>2020-08-08T07:36:30.000Z</time>
      </trkpt>
      <trkpt lat="43.70083" lon="3.72464">
        <ele>145.19979462005</ele>
        <time>2020-08-08T07:36:31.000Z</time>
      </trkpt>
      <trkpt lat="43.70086" lon="3.72465">
        <ele>145.30278119785</ele>
        <time>2020-08-08T07:36:32.000Z</time>
      </trkpt>
      <trkpt lat="43.70089" lon="3.72465">
        <ele>145.40576777565</ele>
        <time>2020-08-08T07:36:33.000Z</time>
      </trkpt>
      <trkpt lat="43.70092" lon="3.72466">
        <ele>145.50875435345</ele>
        <time>2020-08-08T07:36:34.000Z</time>
      </trkpt>
      <trkpt lat="43.70095" lon="3.72466">
        <ele>145.61174093125</ele>
        <time>2020-08-08T07:36:35.000Z</time>
      </trkpt>
      <trkpt lat="43.70098" lon="3.72467">
        <ele>145.71472750905</ele>
        <time>2020-08-08T07:36:36.000Z</time>
      </trkpt>
      <trkpt lat="43.70101" lon="3.72467">
        <ele>145.81771408685</ele>
        <time>2020-08-08T07:36:37.000Z</time>
      </trkpt>
      <trkpt lat="43.70104" lon="3.72468">
        <ele>145.92070066465</ele>
        <time>2020-08-08T07:36:38.000Z</time>
      </trkpt>
      <trkpt lat="43.70107" lon="3.72468">
        <ele>146</ele>
        <time>2020-08-08T07:36:39.000Z</time>
      </trkpt>
      <trkpt lat="43.70111" lon="3.72469">
        <ele>146</ele>
        <time>2020-08-08T07:36:40.000Z</time>
      </trkpt>
      <trkpt lat="43.70114" lon="3.7247">
        <ele>146</ele>
        <time>2020-08-08T07:36:41.000Z</time>
      </trkpt>
      <trkpt lat="43.70117" lon="3.72471">
        <ele>146</ele>
        <time>2020-08-08T07:36:42.000Z</time>
      </trkpt>
      <trkpt lat="43.70121" lon="3.72472">
        <ele>146</ele>
        <time>2020-08-08T07:36:43.000Z</time>
      </trkpt>
      <trkpt lat="43.70124" lon="3.72473">
        <ele>146</ele>
        <time>2020-08-08T07:36:44.000Z</time>
      </trkpt>
      <trkpt lat="43.70128" lon="3.72474">
        <ele>146</ele>
        <time>2020-08-08T07:36:45.000Z</time>
      </trkpt>
      <trkpt lat="43.70132" lon="3.72474">
        <ele>146</ele>
        <time>2020-08-08T07:36:46.000Z</time>
      </trkpt>
      <trkpt lat="43.70135" lon="3.72474">
        <ele>146</ele>
        <time>2020-08-08T07:36:47.000Z</time>
      </trkpt>
      <trkpt lat="43.70139" lon="3.72473">
        <ele>146</ele>
        <time>2020-08-08T07:36:48.000Z</time>
      </trkpt>
      <trkpt lat="43.70142" lon="3.72473">
        <ele>146</ele>
        <time>2020-08-08T07:36:49.000Z</time>
      </trkpt>
      <trkpt lat="43.70145" lon="3.72472">
        <ele>146</ele>
        <time>2020-08-08T07:36:50.000Z</time>
      </trkpt>
      <trkpt lat="43.70148" lon="3.72471">
        <ele>146</ele>
        <time>2020-08-08T07:36:51.000Z</time>
      </trkpt>
      <trkpt lat="43.70151" lon="3.72471">
        <ele>146</ele>
        <time>2020-08-08T07:36:52.000Z</time>
      </trkpt>
      <trkpt lat="43.70155" lon="3.7247">
        <ele>146</ele>
        <time>2020-08-08T07:36:53.000Z</time>
      </trkpt>
      <trkpt lat="43.70158" lon="3.72469">
        <ele>146</ele>
        <time>2020-08-08T07:36:54.000Z</time>
      </trkpt>
      <trkpt lat="43.70161" lon="3.72468">
        <ele>146</ele>
        <time>2020-08-08T07:36:55.000Z</time>
      </trkpt>
      <trkpt lat="43.70164" lon="3.72467">
        <ele>146</ele>
        <time>2020-08-08T07:36:56.000Z</time>
      </trkpt>
      <trkpt lat="43.70168" lon="3.72465">
        <ele>146</ele>
        <time>2020-08-08T07:36:57.000Z</time>
      </trkpt>
      <trkpt lat="43.7017" lon="3.72463">
        <ele>146</ele>
        <time>2020-08-08T07:36:58.000Z</time>
      </trkpt>
      <trkpt lat="43.70173" lon="3.72461">
        <ele>146</ele>
        <time>2020-08-08T07:36:59.000Z</time>
      </trkpt>
      <trkpt lat="43.70176" lon="3.72459">
        <ele>146</ele>
        <time>2020-08-08T07:37:00.000Z</time>
      </trkpt>
      <trkpt lat="43.70178" lon="3.72458">
        <ele>146</ele>
        <time>2020-08-08T07:37:01.000Z</time>
      </trkpt>
      <trkpt lat="43.70181" lon="3.72456">
        <ele>146</ele>
        <time>2020-08-08T07:37:02.000Z</time>
      </trkpt>
      <trkpt lat="43.70184" lon="3.72454">
        <ele>146</ele>
        <time>2020-08-08T07:37:03.000Z</time>
      </trkpt>
      <trkpt lat="43.70187" lon="3.72453">
        <ele>146</ele>
        <time>2020-08-08T07:37:04.000Z</time>
      </trkpt>
      <trkpt lat="43.70189" lon="3.72451">
        <ele>146</ele>
        <time>2020-08-08T07:37:05.000Z</time>
      </trkpt>
      <trkpt lat="43.70192" lon="3.72448">
        <ele>146</ele>
        <time>2020-08-08T07:37:06.000Z</time>
      </trkpt>
      <trkpt lat="43.70195" lon="3.72446">
        <ele>146</ele>
        <time>2020-08-08T07:37:07.000Z</time>
      </trkpt>
      <trkpt lat="43.70197" lon="3.72443">
        <ele>146</ele>
        <time>2020-08-08T07:37:08.000Z</time>
      </trkpt>
      <trkpt lat="43.70199" lon="3.7244">
        <ele>146.02300032</ele>
        <time>2020-08-08T07:37:09.000Z</time>
      </trkpt>
      <trkpt lat="43.70202" lon="3.72437">
        <ele>146.12300032</ele>
        <time>2020-08-08T07:37:10.000Z</time>
      </trkpt>
      <trkpt lat="43.70204" lon="3.72435">
        <ele>146.22300032</ele>
        <time>2020-08-08T07:37:11.000Z</time>
      </trkpt>
      <trkpt lat="43.70207" lon="3.72432">
        <ele>146.32300032</ele>
        <time>2020-08-08T07:37:12.000Z</time>
      </trkpt>
      <trkpt lat="43.70209" lon="3.7243">
        <ele>146.42300032</ele>
        <time>2020-08-08T07:37:13.000Z</time>
      </trkpt>
      <trkpt lat="43.70212" lon="3.72428">
        <ele>146.52300032</ele>
        <time>2020-08-08T07:37:14.000Z</time>
      </trkpt>
      <trkpt lat="43.70214" lon="3.72426">
        <ele>146.62300032</ele>
        <time>2020-08-08T07:37:15.000Z</time>
      </trkpt>
      <trkpt lat="43.70216" lon="3.72424">
        <ele>146.72300032</ele>
        <time>2020-08-08T07:37:16.000Z</time>
      </trkpt>
      <trkpt lat="43.70219" lon="3.72422">
        <ele>146.82300032</ele>
        <time>2020-08-08T07:37:17.000Z</time>
      </trkpt>
      <trkpt lat="43.70221" lon="3.72419">
        <ele>146.92300032</ele>
        <time>2020-08-08T07:37:18.000Z</time>
      </trkpt>
      <trkpt lat="43.70223" lon="3.72417">
        <ele>147</ele>
        <time>2020-08-08T07:37:19.000Z</time>
      </trkpt>
      <trkpt lat="43.70225" lon="3.72415">
        <ele>147</ele>
        <time>2020-08-08T07:37:20.000Z</time>
      </trkpt>
      <trkpt lat="43.70228" lon="3.72413">
        <ele>147</ele>
        <time>2020-08-08T07:37:21.000Z</time>
      </trkpt>
      <trkpt lat="43.7023" lon="3.72411">
        <ele>147</ele>
        <time>2020-08-08T07:37:22.000Z</time>
      </trkpt>
      <trkpt lat="43.70232" lon="3.72408">
        <ele>147</ele>
        <time>2020-08-08T07:37:23.000Z</time>
      </trkpt>
      <trkpt lat="43.70235" lon="3.72406">
        <ele>147</ele>
        <time>2020-08-08T07:37:24.000Z</time>
      </trkpt>
      <trkpt lat="43.70237" lon="3.72403">
        <ele>147</ele>
        <time>2020-08-08T07:37:25.000Z</time>
      </trkpt>
      <trkpt lat="43.7024" lon="3.724">
        <ele>147</ele>
        <time>2020-08-08T07:37:26.000Z</time>
      </trkpt>
      <trkpt lat="43.70243" lon="3.72397">
        <ele>147</ele>
        <time>2020-08-08T07:37:27.000Z</time>
      </trkpt>
      <trkpt lat="43.70246" lon="3.72394">
        <ele>147</ele>
        <time>2020-08-08T07:37:28.000Z</time>
      </trkpt>
      <trkpt lat="43.70249" lon="3.72391">
        <ele>147.02300032</ele>
        <time>2020-08-08T07:37:29.000Z</time>
      </trkpt>
      <trkpt lat="43.70252" lon="3.72389">
        <ele>147.12300032</ele>
        <time>2020-08-08T07:37:30.000Z</time>
      </trkpt>
      <trkpt lat="43.70256" lon="3.72389">
        <ele>147.22300032</ele>
        <time>2020-08-08T07:37:31.000Z</time>
      </trkpt>
      <trkpt lat="43.7026" lon="3.72388">
        <ele>147.32300032</ele>
        <time>2020-08-08T07:37:32.000Z</time>
      </trkpt>
      <trkpt lat="43.70263" lon="3.72387">
        <ele>147.42300032</ele>
        <time>2020-08-08T07:37:33.000Z</time>
      </trkpt>
      <trkpt lat="43.70267" lon="3.72387">
        <ele>147.52300032</ele>
        <time>2020-08-08T07:37:34.000Z</time>
      </trkpt>
      <trkpt lat="43.7027" lon="3.72385">
        <ele>147.62300032</ele>
        <time>2020-08-08T07:37:35.000Z</time>
      </trkpt>
      <trkpt lat="43.70273" lon="3.72384">
        <ele>147.72300032</ele>
        <time>2020-08-08T07:37:36.000Z</time>
      </trkpt>
      <trkpt lat="43.70276" lon="3.72382">
        <ele>147.82300032</ele>
        <time>2020-08-08T07:37:37.000Z</time>
      </trkpt>
      <trkpt lat="43.70279" lon="3.7238">
        <ele>147.92300032</ele>
        <time>2020-08-08T07:37:38.000Z</time>
      </trkpt>
      <trkpt lat="43.70281" lon="3.72378">
        <ele>148.04600064</ele>
        <time>2020-08-08T07:37:39.000Z</time>
      </trkpt>
      <trkpt lat="43.70283" lon="3.72376">
        <ele>148.24600064</ele>
        <time>2020-08-08T07:37:40.000Z</time>
      </trkpt>
      <trkpt lat="43.70285" lon="3.72374">
        <ele>148.44600064</ele>
        <time>2020-08-08T07:37:41.000Z</time>
      </trkpt>
      <trkpt lat="43.70286" lon="3.72372">
        <ele>148.64600064</ele>
        <time>2020-08-08T07:37:42.000Z</time>
      </trkpt>
      <trkpt lat="43.70288" lon="3.7237">
        <ele>148.84600064</ele>
        <time>2020-08-08T07:37:43.000Z</time>
      </trkpt>
      <trkpt lat="43.70289" lon="3.72368">
        <ele>149.04600064</ele>
        <time>2020-08-08T07:37:44.000Z</time>
      </trkpt>
      <trkpt lat="43.70291" lon="3.72366">
        <ele>149.24600064</ele>
        <time>2020-08-08T07:37:45.000Z</time>
      </trkpt>
      <trkpt lat="43.70292" lon="3.72365">
        <ele>149.44600064</ele>
        <time>2020-08-08T07:37:46.000Z</time>
      </trkpt>
      <trkpt lat="43.70293" lon="3.72362">
        <ele>149.64600064</ele>
        <time>2020-08-08T07:37:47.000Z</time>
      </trkpt>
      <trkpt lat="43.70295" lon="3.72358">
        <ele>150.02300032</ele>
        <time>2020-08-08T07:37:49.000Z</time>
      </trkpt>
      <trkpt lat="43.70296" lon="3.72354">
        <ele>150.22300032</ele>
        <time>2020-08-08T07:37:51.000Z</time>
      </trkpt>
      <trkpt lat="43.70296" lon="3.72349">
        <ele>150.42300032</ele>
        <time>2020-08-08T07:37:53.000Z</time>
      </trkpt>
      <trkpt lat="43.70297" lon="3.72345">
        <ele>150.62300032</ele>
        <time>2020-08-08T07:37:55.000Z</time>
      </trkpt>
      <trkpt lat="43.70297" lon="3.7234">
        <ele>150.82300032</ele>
        <time>2020-08-08T07:37:57.000Z</time>
      </trkpt>
      <trkpt lat="43.70297" lon="3.72337">
        <ele>151.02300032</ele>
        <time>2020-08-08T07:37:59.000Z</time>
      </trkpt>
      <trkpt lat="43.70295" lon="3.72333">
        <ele>151.22300032</ele>
        <time>2020-08-08T07:38:01.000Z</time>
      </trkpt>
      <trkpt lat="43.70293" lon="3.72332">
        <ele>151.32300032</ele>
        <time>2020-08-08T07:38:02.000Z</time>
      </trkpt>
      <trkpt lat="43.70292" lon="3.7233">
        <ele>151.42300032</ele>
        <time>2020-08-08T07:38:03.000Z</time>
      </trkpt>
      <trkpt lat="43.70291" lon="3.72328">
        <ele>151.52300032</ele>
        <time>2020-08-08T07:38:04.000Z</time>
      </trkpt>
      <trkpt lat="43.7029" lon="3.72325">
        <ele>151.62300032</ele>
        <time>2020-08-08T07:38:05.000Z</time>
      </trkpt>
      <trkpt lat="43.70289" lon="3.72323">
        <ele>151.72300032</ele>
        <time>2020-08-08T07:38:06.000Z</time>
      </trkpt>
      <trkpt lat="43.70288" lon="3.72321">
        <ele>151.82300032</ele>
        <time>2020-08-08T07:38:07.000Z</time>
      </trkpt>
      <trkpt lat="43.70287" lon="3.72319">
        <ele>151.92300032</ele>
        <time>2020-08-08T07:38:08.000Z</time>
      </trkpt>
      <trkpt lat="43.70286" lon="3.72317">
        <ele>152.04600064</ele>
        <time>2020-08-08T07:38:09.000Z</time>
      </trkpt>
      <trkpt lat="43.70284" lon="3.72312">
        <ele>152.44600064</ele>
        <time>2020-08-08T07:38:11.000Z</time>
      </trkpt>
      <trkpt lat="43.70283" lon="3.72307">
        <ele>152.84600064</ele>
        <time>2020-08-08T07:38:13.000Z</time>
      </trkpt>
      <trkpt lat="43.70282" lon="3.72305">
        <ele>153.04600064</ele>
        <time>2020-08-08T07:38:14.000Z</time>
      </trkpt>
      <trkpt lat="43.70282" lon="3.72302">
        <ele>153.24600064</ele>
        <time>2020-08-08T07:38:15.000Z</time>
      </trkpt>
      <trkpt lat="43.70281" lon="3.72299">
        <ele>153.44600064</ele>
        <time>2020-08-08T07:38:16.000Z</time>
      </trkpt>
      <trkpt lat="43.70281" lon="3.72297">
        <ele>153.64600064</ele>
        <time>2020-08-08T07:38:17.000Z</time>
      </trkpt>
      <trkpt lat="43.7028" lon="3.72294">
        <ele>153.84600064</ele>
        <time>2020-08-08T07:38:18.000Z</time>
      </trkpt>
      <trkpt lat="43.7028" lon="3.72291">
        <ele>154.02300032</ele>
        <time>2020-08-08T07:38:19.000Z</time>
      </trkpt>
      <trkpt lat="43.70279" lon="3.72288">
        <ele>154.12300032</ele>
        <time>2020-08-08T07:38:20.000Z</time>
      </trkpt>
      <trkpt lat="43.70278" lon="3.72285">
        <ele>154.22300032</ele>
        <time>2020-08-08T07:38:21.000Z</time>
      </trkpt>
      <trkpt lat="43.70278" lon="3.72282">
        <ele>154.32300032</ele>
        <time>2020-08-08T07:38:22.000Z</time>
      </trkpt>
      <trkpt lat="43.70277" lon="3.7228">
        <ele>154.42300032</ele>
        <time>2020-08-08T07:38:23.000Z</time>
      </trkpt>
      <trkpt lat="43.70277" lon="3.72277">
        <ele>154.52300032</ele>
        <time>2020-08-08T07:38:24.000Z</time>
      </trkpt>
      <trkpt lat="43.70276" lon="3.72274">
        <ele>154.62300032</ele>
        <time>2020-08-08T07:38:25.000Z</time>
      </trkpt>
      <trkpt lat="43.70274" lon="3.72272">
        <ele>154.72300032</ele>
        <time>2020-08-08T07:38:26.000Z</time>
      </trkpt>
      <trkpt lat="43.70273" lon="3.72269">
        <ele>154.82300032</ele>
        <time>2020-08-08T07:38:27.000Z</time>
      </trkpt>
      <trkpt lat="43.70271" lon="3.72266">
        <ele>154.92300032</ele>
        <time>2020-08-08T07:38:28.000Z</time>
      </trkpt>
      <trkpt lat="43.7027" lon="3.72264">
        <ele>155.02300032</ele>
        <time>2020-08-08T07:38:29.000Z</time>
      </trkpt>
      <trkpt lat="43.70269" lon="3.72261">
        <ele>155.12300032</ele>
        <time>2020-08-08T07:38:30.000Z</time>
      </trkpt>
      <trkpt lat="43.70268" lon="3.72258">
        <ele>155.22300032</ele>
        <time>2020-08-08T07:38:31.000Z</time>
      </trkpt>
      <trkpt lat="43.70268" lon="3.72255">
        <ele>155.32300032</ele>
        <time>2020-08-08T07:38:32.000Z</time>
      </trkpt>
      <trkpt lat="43.70267" lon="3.72251">
        <ele>155.42300032</ele>
        <time>2020-08-08T07:38:33.000Z</time>
      </trkpt>
      <trkpt lat="43.70266" lon="3.72248">
        <ele>155.52300032</ele>
        <time>2020-08-08T07:38:34.000Z</time>
      </trkpt>
      <trkpt lat="43.70265" lon="3.72245">
        <ele>155.62300032</ele>
        <time>2020-08-08T07:38:35.000Z</time>
      </trkpt>
      <trkpt lat="43.70264" lon="3.72242">
        <ele>155.72300032</ele>
        <time>2020-08-08T07:38:36.000Z</time>
      </trkpt>
      <trkpt lat="43.70263" lon="3.72239">
        <ele>155.82300032</ele>
        <time>2020-08-08T07:38:37.000Z</time>
      </trkpt>
      <trkpt lat="43.70262" lon="3.72236">
        <ele>155.92300032</ele>
        <time>2020-08-08T07:38:38.000Z</time>
      </trkpt>
      <trkpt lat="43.70261" lon="3.72233">
        <ele>156.02300032</ele>
        <time>2020-08-08T07:38:39.000Z</time>
      </trkpt>
      <trkpt lat="43.7026" lon="3.7223">
        <ele>156.12300032</ele>
        <time>2020-08-08T07:38:40.000Z</time>
      </trkpt>
      <trkpt lat="43.70259" lon="3.72228">
        <ele>156.22300032</ele>
        <time>2020-08-08T07:38:41.000Z</time>
      </trkpt>
      <trkpt lat="43.70257" lon="3.72225">
        <ele>156.32300032</ele>
        <time>2020-08-08T07:38:42.000Z</time>
      </trkpt>
      <trkpt lat="43.70256" lon="3.72222">
        <ele>156.42300032</ele>
        <time>2020-08-08T07:38:43.000Z</time>
      </trkpt>
      <trkpt lat="43.70255" lon="3.7222">
        <ele>156.52300032</ele>
        <time>2020-08-08T07:38:44.000Z</time>
      </trkpt>
      <trkpt lat="43.70253" lon="3.72218">
        <ele>156.62300032</ele>
        <time>2020-08-08T07:38:45.000Z</time>
      </trkpt>
      <trkpt lat="43.70251" lon="3.72215">
        <ele>156.72300032</ele>
        <time>2020-08-08T07:38:46.000Z</time>
      </trkpt>
      <trkpt lat="43.7025" lon="3.72212">
        <ele>156.82300032</ele>
        <time>2020-08-08T07:38:47.000Z</time>
      </trkpt>
      <trkpt lat="43.70248" lon="3.72209">
        <ele>156.92300032</ele>
        <time>2020-08-08T07:38:48.000Z</time>
      </trkpt>
      <trkpt lat="43.70247" lon="3.72206">
        <ele>157.02300032</ele>
        <time>2020-08-08T07:38:49.000Z</time>
      </trkpt>
      <trkpt lat="43.70245" lon="3.72203">
        <ele>157.12300032</ele>
        <time>2020-08-08T07:38:50.000Z</time>
      </trkpt>
      <trkpt lat="43.70244" lon="3.722">
        <ele>157.22300032</ele>
        <time>2020-08-08T07:38:51.000Z</time>
      </trkpt>
      <trkpt lat="43.70243" lon="3.72197">
        <ele>157.32300032</ele>
        <time>2020-08-08T07:38:52.000Z</time>
      </trkpt>
      <trkpt lat="43.70241" lon="3.72194">
        <ele>157.42300032</ele>
        <time>2020-08-08T07:38:53.000Z</time>
      </trkpt>
      <trkpt lat="43.7024" lon="3.72191">
        <ele>157.52300032</ele>
        <time>2020-08-08T07:38:54.000Z</time>
      </trkpt>
      <trkpt lat="43.70239" lon="3.72188">
        <ele>157.62300032</ele>
        <time>2020-08-08T07:38:55.000Z</time>
      </trkpt>
      <trkpt lat="43.70238" lon="3.72184">
        <ele>157.72300032</ele>
        <time>2020-08-08T07:38:56.000Z</time>
      </trkpt>
      <trkpt lat="43.70237" lon="3.7218">
        <ele>157.82300032</ele>
        <time>2020-08-08T07:38:57.000Z</time>
      </trkpt>
      <trkpt lat="43.70237" lon="3.72177">
        <ele>157.92300032</ele>
        <time>2020-08-08T07:38:58.000Z</time>
      </trkpt>
      <trkpt lat="43.70237" lon="3.72173">
        <ele>158.02300032</ele>
        <time>2020-08-08T07:38:59.000Z</time>
      </trkpt>
      <trkpt lat="43.70237" lon="3.72169">
        <ele>158.12300032</ele>
        <time>2020-08-08T07:39:00.000Z</time>
      </trkpt>
      <trkpt lat="43.70238" lon="3.72165">
        <ele>158.22300032</ele>
        <time>2020-08-08T07:39:01.000Z</time>
      </trkpt>
      <trkpt lat="43.70239" lon="3.72162">
        <ele>158.32300032</ele>
        <time>2020-08-08T07:39:02.000Z</time>
      </trkpt>
      <trkpt lat="43.7024" lon="3.72159">
        <ele>158.42300032</ele>
        <time>2020-08-08T07:39:03.000Z</time>
      </trkpt>
      <trkpt lat="43.70242" lon="3.72156">
        <ele>158.52300032</ele>
        <time>2020-08-08T07:39:04.000Z</time>
      </trkpt>
      <trkpt lat="43.70243" lon="3.72152">
        <ele>158.62300032</ele>
        <time>2020-08-08T07:39:05.000Z</time>
      </trkpt>
      <trkpt lat="43.70245" lon="3.7215">
        <ele>158.72300032</ele>
        <time>2020-08-08T07:39:06.000Z</time>
      </trkpt>
      <trkpt lat="43.70247" lon="3.72147">
        <ele>158.82300032</ele>
        <time>2020-08-08T07:39:07.000Z</time>
      </trkpt>
      <trkpt lat="43.70249" lon="3.72144">
        <ele>158.92300032</ele>
        <time>2020-08-08T07:39:08.000Z</time>
      </trkpt>
      <trkpt lat="43.70251" lon="3.72141">
        <ele>159.02222252453</ele>
        <time>2020-08-08T07:39:09.000Z</time>
      </trkpt>
      <trkpt lat="43.70252" lon="3.72138">
        <ele>159.11884085215</ele>
        <time>2020-08-08T07:39:10.000Z</time>
      </trkpt>
      <trkpt lat="43.70253" lon="3.72136">
        <ele>159.21545917976</ele>
        <time>2020-08-08T07:39:11.000Z</time>
      </trkpt>
      <trkpt lat="43.70254" lon="3.72133">
        <ele>159.31207750738</ele>
        <time>2020-08-08T07:39:12.000Z</time>
      </trkpt>
      <trkpt lat="43.70256" lon="3.72129">
        <ele>159.40869583499</ele>
        <time>2020-08-08T07:39:13.000Z</time>
      </trkpt>
      <trkpt lat="43.70257" lon="3.72126">
        <ele>159.50531416261</ele>
        <time>2020-08-08T07:39:14.000Z</time>
      </trkpt>
      <trkpt lat="43.70258" lon="3.72123">
        <ele>159.60193249022</ele>
        <time>2020-08-08T07:39:15.000Z</time>
      </trkpt>
      <trkpt lat="43.70259" lon="3.72119">
        <ele>159.69855081784</ele>
        <time>2020-08-08T07:39:16.000Z</time>
      </trkpt>
      <trkpt lat="43.7026" lon="3.72116">
        <ele>159.79516914545</ele>
        <time>2020-08-08T07:39:17.000Z</time>
      </trkpt>
      <trkpt lat="43.70261" lon="3.72112">
        <ele>159.89178747307</ele>
        <time>2020-08-08T07:39:18.000Z</time>
      </trkpt>
      <trkpt lat="43.70263" lon="3.72109">
        <ele>159.98840580069</ele>
        <time>2020-08-08T07:39:19.000Z</time>
      </trkpt>
      <trkpt lat="43.70264" lon="3.72106">
        <ele>160.09119174008</ele>
        <time>2020-08-08T07:39:20.000Z</time>
      </trkpt>
      <trkpt lat="43.70265" lon="3.72102">
        <ele>160.19481871745</ele>
        <time>2020-08-08T07:39:21.000Z</time>
      </trkpt>
      <trkpt lat="43.70266" lon="3.72098">
        <ele>160.29844569482</ele>
        <time>2020-08-08T07:39:22.000Z</time>
      </trkpt>
      <trkpt lat="43.70267" lon="3.72095">
        <ele>160.40207267219</ele>
        <time>2020-08-08T07:39:23.000Z</time>
      </trkpt>
      <trkpt lat="43.70268" lon="3.72092">
        <ele>160.50569964956</ele>
        <time>2020-08-08T07:39:24.000Z</time>
      </trkpt>
      <trkpt lat="43.70269" lon="3.7209">
        <ele>160.60932662693</ele>
        <time>2020-08-08T07:39:25.000Z</time>
      </trkpt>
      <trkpt lat="43.70269" lon="3.72089">
        <ele>161</ele>
        <time>2020-08-08T07:39:30.000Z</time>
      </trkpt>
      <trkpt lat="43.70271" lon="3.72084">
        <ele>161.00688329734</ele>
        <time>2020-08-08T07:39:49.000Z</time>
      </trkpt>
      <trkpt lat="43.70273" lon="3.72083">
        <ele>161.10521162143</ele>
        <time>2020-08-08T07:39:50.000Z</time>
      </trkpt>
      <trkpt lat="43.70274" lon="3.7208">
        <ele>161.20353994553</ele>
        <time>2020-08-08T07:39:51.000Z</time>
      </trkpt>
      <trkpt lat="43.70276" lon="3.72078">
        <ele>161.30186826962</ele>
        <time>2020-08-08T07:39:52.000Z</time>
      </trkpt>
      <trkpt lat="43.70277" lon="3.72076">
        <ele>161.40019659372</ele>
        <time>2020-08-08T07:39:53.000Z</time>
      </trkpt>
      <trkpt lat="43.70279" lon="3.72073">
        <ele>161.49852491781</ele>
        <time>2020-08-08T07:39:54.000Z</time>
      </trkpt>
      <trkpt lat="43.70282" lon="3.72071">
        <ele>161.59685324191</ele>
        <time>2020-08-08T07:39:55.000Z</time>
      </trkpt>
      <trkpt lat="43.70284" lon="3.72068">
        <ele>161.695181566</ele>
        <time>2020-08-08T07:39:56.000Z</time>
      </trkpt>
      <trkpt lat="43.70287" lon="3.72066">
        <ele>161.7935098901</ele>
        <time>2020-08-08T07:39:57.000Z</time>
      </trkpt>
      <trkpt lat="43.7029" lon="3.72064">
        <ele>161.89183821419</ele>
        <time>2020-08-08T07:39:58.000Z</time>
      </trkpt>
      <trkpt lat="43.70292" lon="3.72062">
        <ele>161.99016653829</ele>
        <time>2020-08-08T07:39:59.000Z</time>
      </trkpt>
      <trkpt lat="43.70295" lon="3.72061">
        <ele>162</ele>
        <time>2020-08-08T07:40:00.000Z</time>
      </trkpt>
      <trkpt lat="43.70298" lon="3.72059">
        <ele>162</ele>
        <time>2020-08-08T07:40:01.000Z</time>
      </trkpt>
      <trkpt lat="43.70301" lon="3.72056">
        <ele>162</ele>
        <time>2020-08-08T07:40:02.000Z</time>
      </trkpt>
      <trkpt lat="43.70304" lon="3.72054">
        <ele>162</ele>
        <time>2020-08-08T07:40:03.000Z</time>
      </trkpt>
      <trkpt lat="43.70307" lon="3.72051">
        <ele>162</ele>
        <time>2020-08-08T07:40:04.000Z</time>
      </trkpt>
      <trkpt lat="43.7031" lon="3.72048">
        <ele>162</ele>
        <time>2020-08-08T07:40:05.000Z</time>
      </trkpt>
      <trkpt lat="43.70313" lon="3.72045">
        <ele>162</ele>
        <time>2020-08-08T07:40:06.000Z</time>
      </trkpt>
      <trkpt lat="43.70315" lon="3.72042">
        <ele>162</ele>
        <time>2020-08-08T07:40:07.000Z</time>
      </trkpt>
      <trkpt lat="43.70318" lon="3.72038">
        <ele>162</ele>
        <time>2020-08-08T07:40:08.000Z</time>
      </trkpt>
      <trkpt lat="43.70321" lon="3.72034">
        <ele>162</ele>
        <time>2020-08-08T07:40:09.000Z</time>
      </trkpt>
      <trkpt lat="43.70324" lon="3.7203">
        <ele>162</ele>
        <time>2020-08-08T07:40:10.000Z</time>
      </trkpt>
      <trkpt lat="43.70328" lon="3.72026">
        <ele>162</ele>
        <time>2020-08-08T07:40:11.000Z</time>
      </trkpt>
      <trkpt lat="43.70332" lon="3.72022">
        <ele>162</ele>
        <time>2020-08-08T07:40:12.000Z</time>
      </trkpt>
      <trkpt lat="43.70336" lon="3.72019">
        <ele>162</ele>
        <time>2020-08-08T07:40:13.000Z</time>
      </trkpt>
      <trkpt lat="43.7034" lon="3.72016">
        <ele>162</ele>
        <time>2020-08-08T07:40:14.000Z</time>
      </trkpt>
      <trkpt lat="43.70344" lon="3.72013">
        <ele>162</ele>
        <time>2020-08-08T07:40:15.000Z</time>
      </trkpt>
      <trkpt lat="43.70347" lon="3.72011">
        <ele>162</ele>
        <time>2020-08-08T07:40:16.000Z</time>
      </trkpt>
      <trkpt lat="43.70349" lon="3.72009">
        <ele>162</ele>
        <time>2020-08-08T07:40:18.000Z</time>
      </trkpt>
      <trkpt lat="43.7035" lon="3.72008">
        <ele>162</ele>
        <time>2020-08-08T07:40:24.000Z</time>
      </trkpt>
      <trkpt lat="43.70361" lon="3.71996">
        <ele>161.00028301595</ele>
        <time>2020-08-08T07:41:35.000Z</time>
      </trkpt>
      <trkpt lat="43.70363" lon="3.71994">
        <ele>161.30492800324</ele>
        <time>2020-08-08T07:41:38.000Z</time>
      </trkpt>
      <trkpt lat="43.70365" lon="3.71991">
        <ele>161.61293641918</ele>
        <time>2020-08-08T07:41:41.000Z</time>
      </trkpt>
      <trkpt lat="43.70366" lon="3.71989">
        <ele>161.92094483512</ele>
        <time>2020-08-08T07:41:44.000Z</time>
      </trkpt>
      <trkpt lat="43.70369" lon="3.71987">
        <ele>162</ele>
        <time>2020-08-08T07:41:47.000Z</time>
      </trkpt>
      <trkpt lat="43.70371" lon="3.71985">
        <ele>162</ele>
        <time>2020-08-08T07:41:49.000Z</time>
      </trkpt>
      <trkpt lat="43.70373" lon="3.71983">
        <ele>162</ele>
        <time>2020-08-08T07:41:50.000Z</time>
      </trkpt>
      <trkpt lat="43.70374" lon="3.71981">
        <ele>162</ele>
        <time>2020-08-08T07:41:51.000Z</time>
      </trkpt>
      <trkpt lat="43.70375" lon="3.71979">
        <ele>162</ele>
        <time>2020-08-08T07:41:52.000Z</time>
      </trkpt>
      <trkpt lat="43.70377" lon="3.71976">
        <ele>162</ele>
        <time>2020-08-08T07:41:54.000Z</time>
      </trkpt>
      <trkpt lat="43.70379" lon="3.71973">
        <ele>162.08133536389</ele>
        <time>2020-08-08T07:41:56.000Z</time>
      </trkpt>
      <trkpt lat="43.70381" lon="3.7197">
        <ele>162.28988586782</ele>
        <time>2020-08-08T07:41:58.000Z</time>
      </trkpt>
      <trkpt lat="43.70383" lon="3.71967">
        <ele>162.49843637174</ele>
        <time>2020-08-08T07:42:00.000Z</time>
      </trkpt>
      <trkpt lat="43.70384" lon="3.71964">
        <ele>162.70698687567</ele>
        <time>2020-08-08T07:42:02.000Z</time>
      </trkpt>
      <trkpt lat="43.70385" lon="3.7196">
        <ele>162.91553737959</ele>
        <time>2020-08-08T07:42:04.000Z</time>
      </trkpt>
      <trkpt lat="43.70387" lon="3.71957">
        <ele>163</ele>
        <time>2020-08-08T07:42:06.000Z</time>
      </trkpt>
      <trkpt lat="43.70389" lon="3.71955">
        <ele>163</ele>
        <time>2020-08-08T07:42:08.000Z</time>
      </trkpt>
      <trkpt lat="43.70391" lon="3.71956">
        <ele>163</ele>
        <time>2020-08-08T07:42:09.000Z</time>
      </trkpt>
      <trkpt lat="43.70392" lon="3.71957">
        <ele>163</ele>
        <time>2020-08-08T07:42:10.000Z</time>
      </trkpt>
      <trkpt lat="43.70394" lon="3.71958">
        <ele>163</ele>
        <time>2020-08-08T07:42:11.000Z</time>
      </trkpt>
      <trkpt lat="43.70396" lon="3.71959">
        <ele>163</ele>
        <time>2020-08-08T07:42:12.000Z</time>
      </trkpt>
      <trkpt lat="43.70399" lon="3.7196">
        <ele>163</ele>
        <time>2020-08-08T07:42:14.000Z</time>
      </trkpt>
      <trkpt lat="43.70403" lon="3.71961">
        <ele>163.12300032</ele>
        <time>2020-08-08T07:42:16.000Z</time>
      </trkpt>
      <trkpt lat="43.70404" lon="3.71962">
        <ele>163.22300032</ele>
        <time>2020-08-08T07:42:17.000Z</time>
      </trkpt>
      <trkpt lat="43.70406" lon="3.71964">
        <ele>163.32300032</ele>
        <time>2020-08-08T07:42:18.000Z</time>
      </trkpt>
      <trkpt lat="43.70407" lon="3.71965">
        <ele>163.42300032</ele>
        <time>2020-08-08T07:42:19.000Z</time>
      </trkpt>
      <trkpt lat="43.70409" lon="3.71967">
        <ele>163.52300032</ele>
        <time>2020-08-08T07:42:20.000Z</time>
      </trkpt>
      <trkpt lat="43.7041" lon="3.71968">
        <ele>163.62300032</ele>
        <time>2020-08-08T07:42:21.000Z</time>
      </trkpt>
      <trkpt lat="43.70412" lon="3.7197">
        <ele>163.72300032</ele>
        <time>2020-08-08T07:42:22.000Z</time>
      </trkpt>
      <trkpt lat="43.70415" lon="3.71971">
        <ele>163.92300032</ele>
        <time>2020-08-08T07:42:24.000Z</time>
      </trkpt>
      <trkpt lat="43.70417" lon="3.71972">
        <ele>164</ele>
        <time>2020-08-08T07:42:25.000Z</time>
      </trkpt>
      <trkpt lat="43.70419" lon="3.71974">
        <ele>164</ele>
        <time>2020-08-08T07:42:26.000Z</time>
      </trkpt>
      <trkpt lat="43.70421" lon="3.71975">
        <ele>164</ele>
        <time>2020-08-08T07:42:27.000Z</time>
      </trkpt>
      <trkpt lat="43.70423" lon="3.71975">
        <ele>164</ele>
        <time>2020-08-08T07:42:28.000Z</time>
      </trkpt>
      <trkpt lat="43.70425" lon="3.71976">
        <ele>164</ele>
        <time>2020-08-08T07:42:29.000Z</time>
      </trkpt>
      <trkpt lat="43.70428" lon="3.71976">
        <ele>164</ele>
        <time>2020-08-08T07:42:30.000Z</time>
      </trkpt>
      <trkpt lat="43.7043" lon="3.71977">
        <ele>164</ele>
        <time>2020-08-08T07:42:31.000Z</time>
      </trkpt>
      <trkpt lat="43.70432" lon="3.71978">
        <ele>164</ele>
        <time>2020-08-08T07:42:32.000Z</time>
      </trkpt>
      <trkpt lat="43.70434" lon="3.71978">
        <ele>164</ele>
        <time>2020-08-08T07:42:33.000Z</time>
      </trkpt>
      <trkpt lat="43.70436" lon="3.71978">
        <ele>164</ele>
        <time>2020-08-08T07:42:34.000Z</time>
      </trkpt>
      <trkpt lat="43.70438" lon="3.71978">
        <ele>164</ele>
        <time>2020-08-08T07:42:35.000Z</time>
      </trkpt>
      <trkpt lat="43.70441" lon="3.71978">
        <ele>164.09773695473</ele>
        <time>2020-08-08T07:42:36.000Z</time>
      </trkpt>
      <trkpt lat="43.70443" lon="3.71978">
        <ele>164.20061761317</ele>
        <time>2020-08-08T07:42:37.000Z</time>
      </trkpt>
      <trkpt lat="43.70445" lon="3.71977">
        <ele>164.30349827161</ele>
        <time>2020-08-08T07:42:38.000Z</time>
      </trkpt>
      <trkpt lat="43.70448" lon="3.71977">
        <ele>164.40637893004</ele>
        <time>2020-08-08T07:42:39.000Z</time>
      </trkpt>
      <trkpt lat="43.7045" lon="3.71976">
        <ele>164.50925958848</ele>
        <time>2020-08-08T07:42:40.000Z</time>
      </trkpt>
      <trkpt lat="43.70453" lon="3.71976">
        <ele>164.61214024691</ele>
        <time>2020-08-08T07:42:41.000Z</time>
      </trkpt>
      <trkpt lat="43.70455" lon="3.71976">
        <ele>164.71502090535</ele>
        <time>2020-08-08T07:42:42.000Z</time>
      </trkpt>
      <trkpt lat="43.70457" lon="3.71975">
        <ele>164.81790156379</ele>
        <time>2020-08-08T07:42:43.000Z</time>
      </trkpt>
      <trkpt lat="43.7046" lon="3.71974">
        <ele>164.92078222222</ele>
        <time>2020-08-08T07:42:44.000Z</time>
      </trkpt>
      <trkpt lat="43.70462" lon="3.71972">
        <ele>165.04440216216</ele>
        <time>2020-08-08T07:42:45.000Z</time>
      </trkpt>
      <trkpt lat="43.70464" lon="3.71972">
        <ele>165.23745235521</ele>
        <time>2020-08-08T07:42:46.000Z</time>
      </trkpt>
      <trkpt lat="43.70467" lon="3.71971">
        <ele>165.43050254826</ele>
        <time>2020-08-08T07:42:47.000Z</time>
      </trkpt>
      <trkpt lat="43.70469" lon="3.7197">
        <ele>165.62355274131</ele>
        <time>2020-08-08T07:42:48.000Z</time>
      </trkpt>
      <trkpt lat="43.70472" lon="3.71968">
        <ele>165.81660293436</ele>
        <time>2020-08-08T07:42:49.000Z</time>
      </trkpt>
      <trkpt lat="43.70474" lon="3.71967">
        <ele>166.00965312741</ele>
        <time>2020-08-08T07:42:50.000Z</time>
      </trkpt>
      <trkpt lat="43.70476" lon="3.71965">
        <ele>166.20270332046</ele>
        <time>2020-08-08T07:42:51.000Z</time>
      </trkpt>
      <trkpt lat="43.70478" lon="3.71964">
        <ele>166.39575351351</ele>
        <time>2020-08-08T07:42:52.000Z</time>
      </trkpt>
      <trkpt lat="43.70481" lon="3.71962">
        <ele>166.58880370656</ele>
        <time>2020-08-08T07:42:53.000Z</time>
      </trkpt>
      <trkpt lat="43.70483" lon="3.7196">
        <ele>166.78185389961</ele>
        <time>2020-08-08T07:42:54.000Z</time>
      </trkpt>
      <trkpt lat="43.70485" lon="3.71958">
        <ele>166.97490409266</ele>
        <time>2020-08-08T07:42:55.000Z</time>
      </trkpt>
      <trkpt lat="43.70487" lon="3.71956">
        <ele>167.09024929461</ele>
        <time>2020-08-08T07:42:56.000Z</time>
      </trkpt>
      <trkpt lat="43.70488" lon="3.71954">
        <ele>167.19398373444</ele>
        <time>2020-08-08T07:42:57.000Z</time>
      </trkpt>
      <trkpt lat="43.7049" lon="3.71952">
        <ele>167.29771817427</ele>
        <time>2020-08-08T07:42:58.000Z</time>
      </trkpt>
      <trkpt lat="43.70492" lon="3.7195">
        <ele>167.40145261411</ele>
        <time>2020-08-08T07:42:59.000Z</time>
      </trkpt>
      <trkpt lat="43.70493" lon="3.71948">
        <ele>167.50518705394</ele>
        <time>2020-08-08T07:43:00.000Z</time>
      </trkpt>
      <trkpt lat="43.70495" lon="3.71946">
        <ele>167.60892149378</ele>
        <time>2020-08-08T07:43:01.000Z</time>
      </trkpt>
      <trkpt lat="43.70496" lon="3.71943">
        <ele>167.71265593361</ele>
        <time>2020-08-08T07:43:02.000Z</time>
      </trkpt>
      <trkpt lat="43.70498" lon="3.71941">
        <ele>167.81639037344</ele>
        <time>2020-08-08T07:43:03.000Z</time>
      </trkpt>
      <trkpt lat="43.705" lon="3.71938">
        <ele>167.92012481328</ele>
        <time>2020-08-08T07:43:04.000Z</time>
      </trkpt>
      <trkpt lat="43.70501" lon="3.71935">
        <ele>168.02300032</ele>
        <time>2020-08-08T07:43:05.000Z</time>
      </trkpt>
      <trkpt lat="43.70503" lon="3.71933">
        <ele>168.12300032</ele>
        <time>2020-08-08T07:43:06.000Z</time>
      </trkpt>
      <trkpt lat="43.70504" lon="3.7193">
        <ele>168.22300032</ele>
        <time>2020-08-08T07:43:07.000Z</time>
      </trkpt>
      <trkpt lat="43.70505" lon="3.71927">
        <ele>168.32300032</ele>
        <time>2020-08-08T07:43:08.000Z</time>
      </trkpt>
      <trkpt lat="43.70507" lon="3.71924">
        <ele>168.42300032</ele>
        <time>2020-08-08T07:43:09.000Z</time>
      </trkpt>
      <trkpt lat="43.70508" lon="3.71921">
        <ele>168.52300032</ele>
        <time>2020-08-08T07:43:10.000Z</time>
      </trkpt>
      <trkpt lat="43.70509" lon="3.71918">
        <ele>168.62300032</ele>
        <time>2020-08-08T07:43:11.000Z</time>
      </trkpt>
      <trkpt lat="43.7051" lon="3.71915">
        <ele>168.72300032</ele>
        <time>2020-08-08T07:43:12.000Z</time>
      </trkpt>
      <trkpt lat="43.70511" lon="3.71913">
        <ele>168.82300032</ele>
        <time>2020-08-08T07:43:13.000Z</time>
      </trkpt>
      <trkpt lat="43.70511" lon="3.71909">
        <ele>168.92300032</ele>
        <time>2020-08-08T07:43:14.000Z</time>
      </trkpt>
      <trkpt lat="43.70512" lon="3.71907">
        <ele>169.02300032</ele>
        <time>2020-08-08T07:43:15.000Z</time>
      </trkpt>
      <trkpt lat="43.70513" lon="3.71904">
        <ele>169.12300032</ele>
        <time>2020-08-08T07:43:16.000Z</time>
      </trkpt>
      <trkpt lat="43.70514" lon="3.71901">
        <ele>169.22300032</ele>
        <time>2020-08-08T07:43:17.000Z</time>
      </trkpt>
      <trkpt lat="43.70516" lon="3.71898">
        <ele>169.32300032</ele>
        <time>2020-08-08T07:43:18.000Z</time>
      </trkpt>
      <trkpt lat="43.70517" lon="3.71895">
        <ele>169.42300032</ele>
        <time>2020-08-08T07:43:19.000Z</time>
      </trkpt>
      <trkpt lat="43.70518" lon="3.71892">
        <ele>169.52300032</ele>
        <time>2020-08-08T07:43:20.000Z</time>
      </trkpt>
      <trkpt lat="43.70519" lon="3.71889">
        <ele>169.62300032</ele>
        <time>2020-08-08T07:43:21.000Z</time>
      </trkpt>
      <trkpt lat="43.7052" lon="3.71885">
        <ele>169.72300032</ele>
        <time>2020-08-08T07:43:22.000Z</time>
      </trkpt>
      <trkpt lat="43.7052" lon="3.71882">
        <ele>169.82300032</ele>
        <time>2020-08-08T07:43:23.000Z</time>
      </trkpt>
      <trkpt lat="43.70522" lon="3.71879">
        <ele>169.92300032</ele>
        <time>2020-08-08T07:43:24.000Z</time>
      </trkpt>
      <trkpt lat="43.70523" lon="3.71875">
        <ele>170.04474770428</ele>
        <time>2020-08-08T07:43:25.000Z</time>
      </trkpt>
      <trkpt lat="43.70524" lon="3.71871">
        <ele>170.23930023346</ele>
        <time>2020-08-08T07:43:26.000Z</time>
      </trkpt>
      <trkpt lat="43.70525" lon="3.71867">
        <ele>170.43385276265</ele>
        <time>2020-08-08T07:43:27.000Z</time>
      </trkpt>
      <trkpt lat="43.70526" lon="3.71863">
        <ele>170.62840529183</ele>
        <time>2020-08-08T07:43:28.000Z</time>
      </trkpt>
      <trkpt lat="43.70528" lon="3.7186">
        <ele>170.82295782101</ele>
        <time>2020-08-08T07:43:29.000Z</time>
      </trkpt>
      <trkpt lat="43.70529" lon="3.71856">
        <ele>171.0175103502</ele>
        <time>2020-08-08T07:43:30.000Z</time>
      </trkpt>
      <trkpt lat="43.7053" lon="3.71853">
        <ele>171.21206287938</ele>
        <time>2020-08-08T07:43:31.000Z</time>
      </trkpt>
      <trkpt lat="43.70531" lon="3.71849">
        <ele>171.40661540856</ele>
        <time>2020-08-08T07:43:32.000Z</time>
      </trkpt>
      <trkpt lat="43.70533" lon="3.71846">
        <ele>171.60116793774</ele>
        <time>2020-08-08T07:43:33.000Z</time>
      </trkpt>
      <trkpt lat="43.70534" lon="3.71843">
        <ele>171.79572046693</ele>
        <time>2020-08-08T07:43:34.000Z</time>
      </trkpt>
      <trkpt lat="43.70536" lon="3.7184">
        <ele>171.99027299611</ele>
        <time>2020-08-08T07:43:35.000Z</time>
      </trkpt>
      <trkpt lat="43.70538" lon="3.71837">
        <ele>172.09763640932</ele>
        <time>2020-08-08T07:43:36.000Z</time>
      </trkpt>
      <trkpt lat="43.7054" lon="3.71834">
        <ele>172.20041123084</ele>
        <time>2020-08-08T07:43:37.000Z</time>
      </trkpt>
      <trkpt lat="43.70542" lon="3.71831">
        <ele>172.30318605235</ele>
        <time>2020-08-08T07:43:38.000Z</time>
      </trkpt>
      <trkpt lat="43.70544" lon="3.71828">
        <ele>172.40596087387</ele>
        <time>2020-08-08T07:43:39.000Z</time>
      </trkpt>
      <trkpt lat="43.70546" lon="3.71826">
        <ele>172.50873569539</ele>
        <time>2020-08-08T07:43:40.000Z</time>
      </trkpt>
      <trkpt lat="43.70548" lon="3.71823">
        <ele>172.61151051691</ele>
        <time>2020-08-08T07:43:41.000Z</time>
      </trkpt>
      <trkpt lat="43.7055" lon="3.71821">
        <ele>172.71428533842</ele>
        <time>2020-08-08T07:43:42.000Z</time>
      </trkpt>
      <trkpt lat="43.70552" lon="3.71819">
        <ele>172.81706015994</ele>
        <time>2020-08-08T07:43:43.000Z</time>
      </trkpt>
      <trkpt lat="43.70555" lon="3.71817">
        <ele>172.91983498146</ele>
        <time>2020-08-08T07:43:44.000Z</time>
      </trkpt>
      <trkpt lat="43.70557" lon="3.71815">
        <ele>173.02202140254</ele>
        <time>2020-08-08T07:43:45.000Z</time>
      </trkpt>
      <trkpt lat="43.70559" lon="3.71813">
        <ele>173.12212159884</ele>
        <time>2020-08-08T07:43:46.000Z</time>
      </trkpt>
      <trkpt lat="43.70561" lon="3.71811">
        <ele>173.22222179513</ele>
        <time>2020-08-08T07:43:47.000Z</time>
      </trkpt>
      <trkpt lat="43.70563" lon="3.71809">
        <ele>173.32232199142</ele>
        <time>2020-08-08T07:43:48.000Z</time>
      </trkpt>
      <trkpt lat="43.70565" lon="3.71807">
        <ele>173.42242218771</ele>
        <time>2020-08-08T07:43:49.000Z</time>
      </trkpt>
      <trkpt lat="43.70567" lon="3.71805">
        <ele>173.522522384</ele>
        <time>2020-08-08T07:43:50.000Z</time>
      </trkpt>
      <trkpt lat="43.70569" lon="3.71803">
        <ele>173.6226225803</ele>
        <time>2020-08-08T07:43:51.000Z</time>
      </trkpt>
      <trkpt lat="43.70571" lon="3.718">
        <ele>173.72272277659</ele>
        <time>2020-08-08T07:43:52.000Z</time>
      </trkpt>
      <trkpt lat="43.70573" lon="3.71798">
        <ele>173.82282297288</ele>
        <time>2020-08-08T07:43:53.000Z</time>
      </trkpt>
      <trkpt lat="43.70575" lon="3.71796">
        <ele>173.92292316917</ele>
        <time>2020-08-08T07:43:54.000Z</time>
      </trkpt>
      <trkpt lat="43.70577" lon="3.71793">
        <ele>174.02290868526</ele>
        <time>2020-08-08T07:43:55.000Z</time>
      </trkpt>
      <trkpt lat="43.70579" lon="3.7179">
        <ele>174.12251027888</ele>
        <time>2020-08-08T07:43:56.000Z</time>
      </trkpt>
      <trkpt lat="43.70582" lon="3.71788">
        <ele>174.22211187251</ele>
        <time>2020-08-08T07:43:57.000Z</time>
      </trkpt>
      <trkpt lat="43.70584" lon="3.71786">
        <ele>174.32171346614</ele>
        <time>2020-08-08T07:43:58.000Z</time>
      </trkpt>
      <trkpt lat="43.70587" lon="3.71783">
        <ele>174.42131505976</ele>
        <time>2020-08-08T07:43:59.000Z</time>
      </trkpt>
      <trkpt lat="43.70589" lon="3.71781">
        <ele>174.52091665339</ele>
        <time>2020-08-08T07:44:00.000Z</time>
      </trkpt>
      <trkpt lat="43.70592" lon="3.71779">
        <ele>174.62051824701</ele>
        <time>2020-08-08T07:44:01.000Z</time>
      </trkpt>
      <trkpt lat="43.70594" lon="3.71776">
        <ele>174.72011984064</ele>
        <time>2020-08-08T07:44:02.000Z</time>
      </trkpt>
      <trkpt lat="43.70597" lon="3.71774">
        <ele>174.81972143426</ele>
        <time>2020-08-08T07:44:03.000Z</time>
      </trkpt>
      <trkpt lat="43.706" lon="3.71772">
        <ele>174.91932302789</ele>
        <time>2020-08-08T07:44:04.000Z</time>
      </trkpt>
      <trkpt lat="43.70603" lon="3.71771">
        <ele>174.98092337349</ele>
        <time>2020-08-08T07:44:05.000Z</time>
      </trkpt>
      <trkpt lat="43.70606" lon="3.7177">
        <ele>174.88052176707</ele>
        <time>2020-08-08T07:44:06.000Z</time>
      </trkpt>
      <trkpt lat="43.70609" lon="3.71769">
        <ele>174.78012016064</ele>
        <time>2020-08-08T07:44:07.000Z</time>
      </trkpt>
      <trkpt lat="43.70612" lon="3.71769">
        <ele>174.67971855422</ele>
        <time>2020-08-08T07:44:08.000Z</time>
      </trkpt>
      <trkpt lat="43.70615" lon="3.71768">
        <ele>174.57931694779</ele>
        <time>2020-08-08T07:44:09.000Z</time>
      </trkpt>
      <trkpt lat="43.70618" lon="3.71768">
        <ele>174.47891534136</ele>
        <time>2020-08-08T07:44:10.000Z</time>
      </trkpt>
      <trkpt lat="43.70621" lon="3.71767">
        <ele>174.37851373494</ele>
        <time>2020-08-08T07:44:11.000Z</time>
      </trkpt>
      <trkpt lat="43.70624" lon="3.71765">
        <ele>174.27811212851</ele>
        <time>2020-08-08T07:44:12.000Z</time>
      </trkpt>
      <trkpt lat="43.70628" lon="3.71764">
        <ele>174.17771052209</ele>
        <time>2020-08-08T07:44:13.000Z</time>
      </trkpt>
      <trkpt lat="43.70631" lon="3.71763">
        <ele>174.07730891566</ele>
        <time>2020-08-08T07:44:14.000Z</time>
      </trkpt>
      <trkpt lat="43.70634" lon="3.71761">
        <ele>174</ele>
        <time>2020-08-08T07:44:15.000Z</time>
      </trkpt>
      <trkpt lat="43.70637" lon="3.7176">
        <ele>174</ele>
        <time>2020-08-08T07:44:16.000Z</time>
      </trkpt>
      <trkpt lat="43.7064" lon="3.71758">
        <ele>174</ele>
        <time>2020-08-08T07:44:17.000Z</time>
      </trkpt>
      <trkpt lat="43.70643" lon="3.71757">
        <ele>174</ele>
        <time>2020-08-08T07:44:18.000Z</time>
      </trkpt>
      <trkpt lat="43.70646" lon="3.71756">
        <ele>174</ele>
        <time>2020-08-08T07:44:19.000Z</time>
      </trkpt>
      <trkpt lat="43.70649" lon="3.71754">
        <ele>174</ele>
        <time>2020-08-08T07:44:20.000Z</time>
      </trkpt>
      <trkpt lat="43.70651" lon="3.71752">
        <ele>174</ele>
        <time>2020-08-08T07:44:21.000Z</time>
      </trkpt>
      <trkpt lat="43.70654" lon="3.71751">
        <ele>174</ele>
        <time>2020-08-08T07:44:22.000Z</time>
      </trkpt>
      <trkpt lat="43.70657" lon="3.71749">
        <ele>174</ele>
        <time>2020-08-08T07:44:23.000Z</time>
      </trkpt>
      <trkpt lat="43.7066" lon="3.71747">
        <ele>174</ele>
        <time>2020-08-08T07:44:24.000Z</time>
      </trkpt>
      <trkpt lat="43.70663" lon="3.71746">
        <ele>173.97699968</ele>
        <time>2020-08-08T07:44:25.000Z</time>
      </trkpt>
      <trkpt lat="43.70666" lon="3.71744">
        <ele>173.87699968</ele>
        <time>2020-08-08T07:44:26.000Z</time>
      </trkpt>
      <trkpt lat="43.70669" lon="3.71743">
        <ele>173.77699968</ele>
        <time>2020-08-08T07:44:27.000Z</time>
      </trkpt>
      <trkpt lat="43.70672" lon="3.71742">
        <ele>173.67699968</ele>
        <time>2020-08-08T07:44:28.000Z</time>
      </trkpt>
      <trkpt lat="43.70674" lon="3.71741">
        <ele>173.57699968</ele>
        <time>2020-08-08T07:44:29.000Z</time>
      </trkpt>
      <trkpt lat="43.70677" lon="3.71739">
        <ele>173.47699968</ele>
        <time>2020-08-08T07:44:30.000Z</time>
      </trkpt>
      <trkpt lat="43.70679" lon="3.71738">
        <ele>173.37699968</ele>
        <time>2020-08-08T07:44:31.000Z</time>
      </trkpt>
      <trkpt lat="43.70681" lon="3.71737">
        <ele>173.27699968</ele>
        <time>2020-08-08T07:44:32.000Z</time>
      </trkpt>
      <trkpt lat="43.70684" lon="3.71735">
        <ele>173.17699968</ele>
        <time>2020-08-08T07:44:33.000Z</time>
      </trkpt>
      <trkpt lat="43.70686" lon="3.71733">
        <ele>173.07699968</ele>
        <time>2020-08-08T07:44:34.000Z</time>
      </trkpt>
      <trkpt lat="43.70689" lon="3.7173">
        <ele>172.97699968</ele>
        <time>2020-08-08T07:44:35.000Z</time>
      </trkpt>
      <trkpt lat="43.70693" lon="3.71727">
        <ele>172.87699968</ele>
        <time>2020-08-08T07:44:36.000Z</time>
      </trkpt>
      <trkpt lat="43.70696" lon="3.71722">
        <ele>172.77699968</ele>
        <time>2020-08-08T07:44:37.000Z</time>
      </trkpt>
      <trkpt lat="43.70699" lon="3.71717">
        <ele>172.67699968</ele>
        <time>2020-08-08T07:44:38.000Z</time>
      </trkpt>
      <trkpt lat="43.70702" lon="3.71711">
        <ele>172.57699968</ele>
        <time>2020-08-08T07:44:39.000Z</time>
      </trkpt>
      <trkpt lat="43.70705" lon="3.71705">
        <ele>172.47699968</ele>
        <time>2020-08-08T07:44:40.000Z</time>
      </trkpt>
      <trkpt lat="43.70708" lon="3.71699">
        <ele>172.37699968</ele>
        <time>2020-08-08T07:44:41.000Z</time>
      </trkpt>
      <trkpt lat="43.7071" lon="3.71693">
        <ele>172.27699968</ele>
        <time>2020-08-08T07:44:42.000Z</time>
      </trkpt>
      <trkpt lat="43.70713" lon="3.71687">
        <ele>172.17699968</ele>
        <time>2020-08-08T07:44:43.000Z</time>
      </trkpt>
      <trkpt lat="43.70715" lon="3.7168">
        <ele>172.07699968</ele>
        <time>2020-08-08T07:44:44.000Z</time>
      </trkpt>
      <trkpt lat="43.70717" lon="3.71674">
        <ele>171.97699968</ele>
        <time>2020-08-08T07:44:45.000Z</time>
      </trkpt>
      <trkpt lat="43.70718" lon="3.71667">
        <ele>171.87699968</ele>
        <time>2020-08-08T07:44:46.000Z</time>
      </trkpt>
      <trkpt lat="43.70718" lon="3.7166">
        <ele>171.77699968</ele>
        <time>2020-08-08T07:44:47.000Z</time>
      </trkpt>
      <trkpt lat="43.70717" lon="3.71653">
        <ele>171.67699968</ele>
        <time>2020-08-08T07:44:48.000Z</time>
      </trkpt>
      <trkpt lat="43.70715" lon="3.71646">
        <ele>171.57699968</ele>
        <time>2020-08-08T07:44:49.000Z</time>
      </trkpt>
      <trkpt lat="43.70712" lon="3.7164">
        <ele>171.47699968</ele>
        <time>2020-08-08T07:44:50.000Z</time>
      </trkpt>
      <trkpt lat="43.70708" lon="3.71635">
        <ele>171.37699968</ele>
        <time>2020-08-08T07:44:51.000Z</time>
      </trkpt>
      <trkpt lat="43.70704" lon="3.71631">
        <ele>171.27699968</ele>
        <time>2020-08-08T07:44:52.000Z</time>
      </trkpt>
      <trkpt lat="43.707" lon="3.71627">
        <ele>171.17699968</ele>
        <time>2020-08-08T07:44:53.000Z</time>
      </trkpt>
      <trkpt lat="43.70697" lon="3.71623">
        <ele>171.07699968</ele>
        <time>2020-08-08T07:44:54.000Z</time>
      </trkpt>
      <trkpt lat="43.70693" lon="3.71619">
        <ele>171.0223521158</ele>
        <time>2020-08-08T07:44:55.000Z</time>
      </trkpt>
      <trkpt lat="43.7069" lon="3.71615">
        <ele>171.11953387585</ele>
        <time>2020-08-08T07:44:56.000Z</time>
      </trkpt>
      <trkpt lat="43.70687" lon="3.71611">
        <ele>171.21671563591</ele>
        <time>2020-08-08T07:44:57.000Z</time>
      </trkpt>
      <trkpt lat="43.70684" lon="3.71607">
        <ele>171.31389739596</ele>
        <time>2020-08-08T07:44:58.000Z</time>
      </trkpt>
      <trkpt lat="43.70682" lon="3.71603">
        <ele>171.41107915602</ele>
        <time>2020-08-08T07:44:59.000Z</time>
      </trkpt>
      <trkpt lat="43.70679" lon="3.71599">
        <ele>171.50826091608</ele>
        <time>2020-08-08T07:45:00.000Z</time>
      </trkpt>
      <trkpt lat="43.70677" lon="3.71595">
        <ele>171.60544267613</ele>
        <time>2020-08-08T07:45:01.000Z</time>
      </trkpt>
      <trkpt lat="43.70674" lon="3.71592">
        <ele>171.70262443619</ele>
        <time>2020-08-08T07:45:02.000Z</time>
      </trkpt>
      <trkpt lat="43.70672" lon="3.71588">
        <ele>171.79980619625</ele>
        <time>2020-08-08T07:45:03.000Z</time>
      </trkpt>
      <trkpt lat="43.7067" lon="3.71584">
        <ele>171.8969879563</ele>
        <time>2020-08-08T07:45:04.000Z</time>
      </trkpt>
      <trkpt lat="43.70667" lon="3.7158">
        <ele>171.99416971636</ele>
        <time>2020-08-08T07:45:05.000Z</time>
      </trkpt>
      <trkpt lat="43.70665" lon="3.71576">
        <ele>171.90319195775</ele>
        <time>2020-08-08T07:45:06.000Z</time>
      </trkpt>
      <trkpt lat="43.70662" lon="3.71572">
        <ele>171.80020537995</ele>
        <time>2020-08-08T07:45:07.000Z</time>
      </trkpt>
      <trkpt lat="43.70659" lon="3.71567">
        <ele>171.69721880215</ele>
        <time>2020-08-08T07:45:08.000Z</time>
      </trkpt>
      <trkpt lat="43.70657" lon="3.71562">
        <ele>171.59423222435</ele>
        <time>2020-08-08T07:45:09.000Z</time>
      </trkpt>
      <trkpt lat="43.70654" lon="3.71558">
        <ele>171.49124564655</ele>
        <time>2020-08-08T07:45:10.000Z</time>
      </trkpt>
      <trkpt lat="43.70652" lon="3.71553">
        <ele>171.38825906875</ele>
        <time>2020-08-08T07:45:11.000Z</time>
      </trkpt>
      <trkpt lat="43.70649" lon="3.71549">
        <ele>171.28527249095</ele>
        <time>2020-08-08T07:45:12.000Z</time>
      </trkpt>
      <trkpt lat="43.70646" lon="3.71544">
        <ele>171.18228591315</ele>
        <time>2020-08-08T07:45:13.000Z</time>
      </trkpt>
      <trkpt lat="43.70643" lon="3.7154">
        <ele>171.07929933535</ele>
        <time>2020-08-08T07:45:14.000Z</time>
      </trkpt>
      <trkpt lat="43.7064" lon="3.71535">
        <ele>170.97699968</ele>
        <time>2020-08-08T07:45:15.000Z</time>
      </trkpt>
      <trkpt lat="43.70638" lon="3.71531">
        <ele>170.87699968</ele>
        <time>2020-08-08T07:45:16.000Z</time>
      </trkpt>
      <trkpt lat="43.70635" lon="3.71527">
        <ele>170.77699968</ele>
        <time>2020-08-08T07:45:17.000Z</time>
      </trkpt>
      <trkpt lat="43.70632" lon="3.71522">
        <ele>170.67699968</ele>
        <time>2020-08-08T07:45:18.000Z</time>
      </trkpt>
      <trkpt lat="43.70629" lon="3.71518">
        <ele>170.57699968</ele>
        <time>2020-08-08T07:45:19.000Z</time>
      </trkpt>
      <trkpt lat="43.70627" lon="3.71514">
        <ele>170.47699968</ele>
        <time>2020-08-08T07:45:20.000Z</time>
      </trkpt>
      <trkpt lat="43.70624" lon="3.7151">
        <ele>170.37699968</ele>
        <time>2020-08-08T07:45:21.000Z</time>
      </trkpt>
      <trkpt lat="43.70622" lon="3.71506">
        <ele>170.27699968</ele>
        <time>2020-08-08T07:45:22.000Z</time>
      </trkpt>
      <trkpt lat="43.7062" lon="3.71501">
        <ele>170.17699968</ele>
        <time>2020-08-08T07:45:23.000Z</time>
      </trkpt>
      <trkpt lat="43.70618" lon="3.71497">
        <ele>170.07699968</ele>
        <time>2020-08-08T07:45:24.000Z</time>
      </trkpt>
      <trkpt lat="43.70617" lon="3.71493">
        <ele>170</ele>
        <time>2020-08-08T07:45:25.000Z</time>
      </trkpt>
      <trkpt lat="43.70615" lon="3.71488">
        <ele>170</ele>
        <time>2020-08-08T07:45:26.000Z</time>
      </trkpt>
      <trkpt lat="43.70614" lon="3.71484">
        <ele>170</ele>
        <time>2020-08-08T07:45:27.000Z</time>
      </trkpt>
      <trkpt lat="43.70612" lon="3.71479">
        <ele>170</ele>
        <time>2020-08-08T07:45:28.000Z</time>
      </trkpt>
      <trkpt lat="43.70611" lon="3.71475">
        <ele>170</ele>
        <time>2020-08-08T07:45:29.000Z</time>
      </trkpt>
      <trkpt lat="43.70609" lon="3.7147">
        <ele>170</ele>
        <time>2020-08-08T07:45:30.000Z</time>
      </trkpt>
      <trkpt lat="43.70608" lon="3.71466">
        <ele>170</ele>
        <time>2020-08-08T07:45:31.000Z</time>
      </trkpt>
      <trkpt lat="43.70606" lon="3.71462">
        <ele>170</ele>
        <time>2020-08-08T07:45:32.000Z</time>
      </trkpt>
      <trkpt lat="43.70605" lon="3.71459">
        <ele>170</ele>
        <time>2020-08-08T07:45:33.000Z</time>
      </trkpt>
      <trkpt lat="43.70604" lon="3.71456">
        <ele>170</ele>
        <time>2020-08-08T07:45:34.000Z</time>
      </trkpt>
      <trkpt lat="43.70603" lon="3.71454">
        <ele>170</ele>
        <time>2020-08-08T07:45:35.000Z</time>
      </trkpt>
      <trkpt lat="43.70602" lon="3.71451">
        <ele>170</ele>
        <time>2020-08-08T07:45:36.000Z</time>
      </trkpt>
      <trkpt lat="43.706" lon="3.71448">
        <ele>170</ele>
        <time>2020-08-08T07:45:37.000Z</time>
      </trkpt>
      <trkpt lat="43.70599" lon="3.71444">
        <ele>170</ele>
        <time>2020-08-08T07:45:38.000Z</time>
      </trkpt>
      <trkpt lat="43.70597" lon="3.71441">
        <ele>170</ele>
        <time>2020-08-08T07:45:39.000Z</time>
      </trkpt>
      <trkpt lat="43.70595" lon="3.71437">
        <ele>170</ele>
        <time>2020-08-08T07:45:40.000Z</time>
      </trkpt>
      <trkpt lat="43.70594" lon="3.71433">
        <ele>170</ele>
        <time>2020-08-08T07:45:41.000Z</time>
      </trkpt>
      <trkpt lat="43.70592" lon="3.71429">
        <ele>170</ele>
        <time>2020-08-08T07:45:42.000Z</time>
      </trkpt>
      <trkpt lat="43.70591" lon="3.71425">
        <ele>170</ele>
        <time>2020-08-08T07:45:43.000Z</time>
      </trkpt>
      <trkpt lat="43.7059" lon="3.71421">
        <ele>170</ele>
        <time>2020-08-08T07:45:44.000Z</time>
      </trkpt>
      <trkpt lat="43.70589" lon="3.71417">
        <ele>170</ele>
        <time>2020-08-08T07:45:45.000Z</time>
      </trkpt>
      <trkpt lat="43.7059" lon="3.71413">
        <ele>170</ele>
        <time>2020-08-08T07:45:46.000Z</time>
      </trkpt>
      <trkpt lat="43.70591" lon="3.71409">
        <ele>170</ele>
        <time>2020-08-08T07:45:47.000Z</time>
      </trkpt>
      <trkpt lat="43.70592" lon="3.71406">
        <ele>170</ele>
        <time>2020-08-08T07:45:48.000Z</time>
      </trkpt>
      <trkpt lat="43.70594" lon="3.71402">
        <ele>170</ele>
        <time>2020-08-08T07:45:49.000Z</time>
      </trkpt>
      <trkpt lat="43.70596" lon="3.71399">
        <ele>170</ele>
        <time>2020-08-08T07:45:50.000Z</time>
      </trkpt>
      <trkpt lat="43.70598" lon="3.71396">
        <ele>170</ele>
        <time>2020-08-08T07:45:51.000Z</time>
      </trkpt>
      <trkpt lat="43.70599" lon="3.71392">
        <ele>170</ele>
        <time>2020-08-08T07:45:52.000Z</time>
      </trkpt>
      <trkpt lat="43.70601" lon="3.71389">
        <ele>170</ele>
        <time>2020-08-08T07:45:53.000Z</time>
      </trkpt>
      <trkpt lat="43.70603" lon="3.71386">
        <ele>170</ele>
        <time>2020-08-08T07:45:54.000Z</time>
      </trkpt>
      <trkpt lat="43.70604" lon="3.71383">
        <ele>170.02290868526</ele>
        <time>2020-08-08T07:45:55.000Z</time>
      </trkpt>
      <trkpt lat="43.70606" lon="3.71379">
        <ele>170.12251027888</ele>
        <time>2020-08-08T07:45:56.000Z</time>
      </trkpt>
      <trkpt lat="43.70608" lon="3.71376">
        <ele>170.22211187251</ele>
        <time>2020-08-08T07:45:57.000Z</time>
      </trkpt>
      <trkpt lat="43.70609" lon="3.71372">
        <ele>170.32171346614</ele>
        <time>2020-08-08T07:45:58.000Z</time>
      </trkpt>
      <trkpt lat="43.70611" lon="3.71369">
        <ele>170.42131505976</ele>
        <time>2020-08-08T07:45:59.000Z</time>
      </trkpt>
      <trkpt lat="43.70613" lon="3.71366">
        <ele>170.52091665339</ele>
        <time>2020-08-08T07:46:00.000Z</time>
      </trkpt>
      <trkpt lat="43.70614" lon="3.71364">
        <ele>170.62051824701</ele>
        <time>2020-08-08T07:46:01.000Z</time>
      </trkpt>
      <trkpt lat="43.70616" lon="3.71361">
        <ele>170.72011984064</ele>
        <time>2020-08-08T07:46:02.000Z</time>
      </trkpt>
      <trkpt lat="43.70617" lon="3.71358">
        <ele>170.81972143426</ele>
        <time>2020-08-08T07:46:03.000Z</time>
      </trkpt>
      <trkpt lat="43.70619" lon="3.71355">
        <ele>170.91932302789</ele>
        <time>2020-08-08T07:46:04.000Z</time>
      </trkpt>
      <trkpt lat="43.70624" lon="3.71345">
        <ele>171.69347895652</ele>
        <time>2020-08-08T07:46:08.000Z</time>
      </trkpt>
      <trkpt lat="43.70625" lon="3.71344">
        <ele>172.99782678261</ele>
        <time>2020-08-08T07:46:14.000Z</time>
      </trkpt>
      <trkpt lat="43.7063" lon="3.71341">
        <ele>173.94274917313</ele>
        <time>2020-08-08T07:46:19.000Z</time>
      </trkpt>
      <trkpt lat="43.70631" lon="3.71341">
        <ele>174</ele>
        <time>2020-08-08T07:46:20.000Z</time>
      </trkpt>
      <trkpt lat="43.70632" lon="3.7134">
        <ele>174.01512859304</ele>
        <time>2020-08-08T07:46:29.000Z</time>
      </trkpt>
      <trkpt lat="43.70639" lon="3.71343">
        <ele>174.9984871407</ele>
        <time>2020-08-08T07:46:55.000Z</time>
      </trkpt>
      <trkpt lat="43.7064" lon="3.71344">
        <ele>175</ele>
        <time>2020-08-08T07:46:58.000Z</time>
      </trkpt>
      <trkpt lat="43.70641" lon="3.71347">
        <ele>175</ele>
        <time>2020-08-08T07:47:02.000Z</time>
      </trkpt>
      <trkpt lat="43.70643" lon="3.71347">
        <ele>175.05609491052</ele>
        <time>2020-08-08T07:47:07.000Z</time>
      </trkpt>
      <trkpt lat="43.70653" lon="3.7136">
        <ele>176.99784181304</ele>
        <time>2020-08-08T07:47:25.000Z</time>
      </trkpt>
      <trkpt lat="43.70654" lon="3.71361">
        <ele>177.20225853126</ele>
        <time>2020-08-08T07:47:27.000Z</time>
      </trkpt>
      <trkpt lat="43.70657" lon="3.71362">
        <ele>177.5102669472</ele>
        <time>2020-08-08T07:47:30.000Z</time>
      </trkpt>
      <trkpt lat="43.70659" lon="3.71362">
        <ele>177.81827536314</ele>
        <time>2020-08-08T07:47:33.000Z</time>
      </trkpt>
      <trkpt lat="43.70661" lon="3.71362">
        <ele>178.133696</ele>
        <time>2020-08-08T07:47:36.000Z</time>
      </trkpt>
      <trkpt lat="43.70663" lon="3.71359">
        <ele>178.45978295652</ele>
        <time>2020-08-08T07:47:39.000Z</time>
      </trkpt>
      <trkpt lat="43.70663" lon="3.71359">
        <ele>179</ele>
        <time>2020-08-08T07:47:44.000Z</time>
      </trkpt>
      <trkpt lat="43.70666" lon="3.71352">
        <ele>179.99638561872</ele>
        <time>2020-08-08T07:49:07.000Z</time>
      </trkpt>
      <trkpt lat="43.70668" lon="3.71348">
        <ele>180.17864671705</ele>
        <time>2020-08-08T07:49:09.000Z</time>
      </trkpt>
      <trkpt lat="43.70669" lon="3.71346">
        <ele>180.28435503381</ele>
        <time>2020-08-08T07:49:10.000Z</time>
      </trkpt>
      <trkpt lat="43.7067" lon="3.71341">
        <ele>180.49577166733</ele>
        <time>2020-08-08T07:49:12.000Z</time>
      </trkpt>
      <trkpt lat="43.7067" lon="3.71338">
        <ele>180.60147998409</ele>
        <time>2020-08-08T07:49:13.000Z</time>
      </trkpt>
      <trkpt lat="43.7067" lon="3.71336">
        <ele>180.70718830085</ele>
        <time>2020-08-08T07:49:14.000Z</time>
      </trkpt>
      <trkpt lat="43.70671" lon="3.71333">
        <ele>180.8128966176</ele>
        <time>2020-08-08T07:49:15.000Z</time>
      </trkpt>
      <trkpt lat="43.70672" lon="3.71331">
        <ele>180.91860493436</ele>
        <time>2020-08-08T07:49:16.000Z</time>
      </trkpt>
      <trkpt lat="43.70674" lon="3.71327">
        <ele>181.11965011673</ele>
        <time>2020-08-08T07:49:18.000Z</time>
      </trkpt>
      <trkpt lat="43.70675" lon="3.71325">
        <ele>181.21692638132</ele>
        <time>2020-08-08T07:49:19.000Z</time>
      </trkpt>
      <trkpt lat="43.70677" lon="3.71321">
        <ele>181.41147891051</ele>
        <time>2020-08-08T07:49:21.000Z</time>
      </trkpt>
      <trkpt lat="43.70679" lon="3.71317">
        <ele>181.60603143969</ele>
        <time>2020-08-08T07:49:23.000Z</time>
      </trkpt>
      <trkpt lat="43.7068" lon="3.71313">
        <ele>181.80058396887</ele>
        <time>2020-08-08T07:49:25.000Z</time>
      </trkpt>
      <trkpt lat="43.70681" lon="3.71308">
        <ele>181.99513649805</ele>
        <time>2020-08-08T07:49:27.000Z</time>
      </trkpt>
      <trkpt lat="43.70682" lon="3.71304">
        <ele>182.40123522634</ele>
        <time>2020-08-08T07:49:29.000Z</time>
      </trkpt>
      <trkpt lat="43.70683" lon="3.71299">
        <ele>182.81275786008</ele>
        <time>2020-08-08T07:49:31.000Z</time>
      </trkpt>
      <trkpt lat="43.70684" lon="3.71295">
        <ele>183.22428049383</ele>
        <time>2020-08-08T07:49:33.000Z</time>
      </trkpt>
      <trkpt lat="43.70686" lon="3.71292">
        <ele>183.63580312757</ele>
        <time>2020-08-08T07:49:35.000Z</time>
      </trkpt>
      <trkpt lat="43.70688" lon="3.71288">
        <ele>184.02275006204</ele>
        <time>2020-08-08T07:49:37.000Z</time>
      </trkpt>
      <trkpt lat="43.70688" lon="3.71284">
        <ele>184.22057393612</ele>
        <time>2020-08-08T07:49:39.000Z</time>
      </trkpt>
      <trkpt lat="43.70689" lon="3.7128">
        <ele>184.4183978102</ele>
        <time>2020-08-08T07:49:41.000Z</time>
      </trkpt>
      <trkpt lat="43.70691" lon="3.71276">
        <ele>184.61622168428</ele>
        <time>2020-08-08T07:49:43.000Z</time>
      </trkpt>
      <trkpt lat="43.70691" lon="3.71272">
        <ele>184.81404555836</ele>
        <time>2020-08-08T07:49:45.000Z</time>
      </trkpt>
      <trkpt lat="43.70692" lon="3.71268">
        <ele>185.03636361286</ele>
        <time>2020-08-08T07:49:47.000Z</time>
      </trkpt>
      <trkpt lat="43.70693" lon="3.71264">
        <ele>185.64242382712</ele>
        <time>2020-08-08T07:49:49.000Z</time>
      </trkpt>
      <trkpt lat="43.70694" lon="3.7126">
        <ele>186.24848404138</ele>
        <time>2020-08-08T07:49:51.000Z</time>
      </trkpt>
      <trkpt lat="43.70695" lon="3.71255">
        <ele>186.85454425565</ele>
        <time>2020-08-08T07:49:53.000Z</time>
      </trkpt>
      <trkpt lat="43.70697" lon="3.71251">
        <ele>187.46060446991</ele>
        <time>2020-08-08T07:49:55.000Z</time>
      </trkpt>
      <trkpt lat="43.70699" lon="3.71248">
        <ele>188.02202140254</ele>
        <time>2020-08-08T07:49:57.000Z</time>
      </trkpt>
      <trkpt lat="43.70701" lon="3.71245">
        <ele>188.22222179513</ele>
        <time>2020-08-08T07:49:59.000Z</time>
      </trkpt>
      <trkpt lat="43.70704" lon="3.71242">
        <ele>188.42242218771</ele>
        <time>2020-08-08T07:50:01.000Z</time>
      </trkpt>
      <trkpt lat="43.70706" lon="3.71239">
        <ele>188.6226225803</ele>
        <time>2020-08-08T07:50:03.000Z</time>
      </trkpt>
      <trkpt lat="43.70708" lon="3.71237">
        <ele>188.82282297288</ele>
        <time>2020-08-08T07:50:05.000Z</time>
      </trkpt>
      <trkpt lat="43.7071" lon="3.71234">
        <ele>189.04600064</ele>
        <time>2020-08-08T07:50:07.000Z</time>
      </trkpt>
      <trkpt lat="43.70712" lon="3.71232">
        <ele>189.44600064</ele>
        <time>2020-08-08T07:50:09.000Z</time>
      </trkpt>
      <trkpt lat="43.70715" lon="3.71231">
        <ele>189.84600064</ele>
        <time>2020-08-08T07:50:11.000Z</time>
      </trkpt>
      <trkpt lat="43.70718" lon="3.71231">
        <ele>190.24600064</ele>
        <time>2020-08-08T07:50:13.000Z</time>
      </trkpt>
      <trkpt lat="43.70718" lon="3.7123">
        <ele>191</ele>
        <time>2020-08-08T07:50:20.000Z</time>
      </trkpt>
      <trkpt lat="43.70721" lon="3.71228">
        <ele>191.99267167412</ele>
        <time>2020-08-08T07:50:23.000Z</time>
      </trkpt>
      <trkpt lat="43.70723" lon="3.71227">
        <ele>192.60677559378</ele>
        <time>2020-08-08T07:50:25.000Z</time>
      </trkpt>
      <trkpt lat="43.70725" lon="3.71226">
        <ele>193.53080084159</ele>
        <time>2020-08-08T07:50:28.000Z</time>
      </trkpt>
      <trkpt lat="43.70728" lon="3.71225">
        <ele>194.45482608941</ele>
        <time>2020-08-08T07:50:31.000Z</time>
      </trkpt>
      <trkpt lat="43.7073" lon="3.71223">
        <ele>195.12300032</ele>
        <time>2020-08-08T07:50:34.000Z</time>
      </trkpt>
      <trkpt lat="43.70732" lon="3.71221">
        <ele>195.42300032</ele>
        <time>2020-08-08T07:50:37.000Z</time>
      </trkpt>
      <trkpt lat="43.70735" lon="3.7122">
        <ele>195.72300032</ele>
        <time>2020-08-08T07:50:40.000Z</time>
      </trkpt>
      <trkpt lat="43.70737" lon="3.7122">
        <ele>195.92300032</ele>
        <time>2020-08-08T07:50:42.000Z</time>
      </trkpt>
      <trkpt lat="43.70739" lon="3.71221">
        <ele>196.24600064</ele>
        <time>2020-08-08T07:50:44.000Z</time>
      </trkpt>
      <trkpt lat="43.70741" lon="3.71222">
        <ele>196.84600064</ele>
        <time>2020-08-08T07:50:47.000Z</time>
      </trkpt>
      <trkpt lat="43.70743" lon="3.71221">
        <ele>197.44600064</ele>
        <time>2020-08-08T07:50:50.000Z</time>
      </trkpt>
      <trkpt lat="43.70745" lon="3.71221">
        <ele>198.04600064</ele>
        <time>2020-08-08T07:50:53.000Z</time>
      </trkpt>
      <trkpt lat="43.70747" lon="3.7122">
        <ele>198.84600064</ele>
        <time>2020-08-08T07:50:57.000Z</time>
      </trkpt>
      <trkpt lat="43.70749" lon="3.71218">
        <ele>199.24600064</ele>
        <time>2020-08-08T07:50:59.000Z</time>
      </trkpt>
      <trkpt lat="43.70751" lon="3.71217">
        <ele>199.84600064</ele>
        <time>2020-08-08T07:51:02.000Z</time>
      </trkpt>
      <trkpt lat="43.70753" lon="3.71216">
        <ele>200.22300032</ele>
        <time>2020-08-08T07:51:05.000Z</time>
      </trkpt>
      <trkpt lat="43.70755" lon="3.71215">
        <ele>200.42300032</ele>
        <time>2020-08-08T07:51:07.000Z</time>
      </trkpt>
      <trkpt lat="43.70757" lon="3.71213">
        <ele>200.62300032</ele>
        <time>2020-08-08T07:51:09.000Z</time>
      </trkpt>
      <trkpt lat="43.70759" lon="3.71212">
        <ele>200.82300032</ele>
        <time>2020-08-08T07:51:11.000Z</time>
      </trkpt>
      <trkpt lat="43.70761" lon="3.71212">
        <ele>201.04572625322</ele>
        <time>2020-08-08T07:51:13.000Z</time>
      </trkpt>
      <trkpt lat="43.70762" lon="3.71211">
        <ele>201.44334031438</ele>
        <time>2020-08-08T07:51:15.000Z</time>
      </trkpt>
      <trkpt lat="43.70764" lon="3.7121">
        <ele>201.84095437554</ele>
        <time>2020-08-08T07:51:17.000Z</time>
      </trkpt>
      <trkpt lat="43.70767" lon="3.71209">
        <ele>202.43737546728</ele>
        <time>2020-08-08T07:51:20.000Z</time>
      </trkpt>
      <trkpt lat="43.70769" lon="3.71208">
        <ele>203.02367645564</ele>
        <time>2020-08-08T07:51:23.000Z</time>
      </trkpt>
      <trkpt lat="43.70771" lon="3.71208">
        <ele>203.44150412613</ele>
        <time>2020-08-08T07:51:26.000Z</time>
      </trkpt>
      <trkpt lat="43.70771" lon="3.71207">
        <ele>203.99860768678</ele>
        <time>2020-08-08T07:51:30.000Z</time>
      </trkpt>
      <trkpt lat="43.70776" lon="3.71207">
        <ele>203.02668985246</ele>
        <time>2020-08-08T07:51:41.000Z</time>
      </trkpt>
      <trkpt lat="43.70779" lon="3.71206">
        <ele>203</ele>
        <time>2020-08-08T07:51:43.000Z</time>
      </trkpt>
      <trkpt lat="43.70782" lon="3.71205">
        <ele>203</ele>
        <time>2020-08-08T07:51:45.000Z</time>
      </trkpt>
      <trkpt lat="43.70785" lon="3.71204">
        <ele>203</ele>
        <time>2020-08-08T07:51:47.000Z</time>
      </trkpt>
      <trkpt lat="43.70787" lon="3.71203">
        <ele>203</ele>
        <time>2020-08-08T07:51:49.000Z</time>
      </trkpt>
      <trkpt lat="43.70789" lon="3.71202">
        <ele>203</ele>
        <time>2020-08-08T07:51:52.000Z</time>
      </trkpt>
      <trkpt lat="43.70792" lon="3.71199">
        <ele>203</ele>
        <time>2020-08-08T07:51:54.000Z</time>
      </trkpt>
      <trkpt lat="43.70794" lon="3.71197">
        <ele>203</ele>
        <time>2020-08-08T07:51:56.000Z</time>
      </trkpt>
      <trkpt lat="43.70797" lon="3.71195">
        <ele>203</ele>
        <time>2020-08-08T07:51:58.000Z</time>
      </trkpt>
      <trkpt lat="43.70799" lon="3.71192">
        <ele>203</ele>
        <time>2020-08-08T07:52:00.000Z</time>
      </trkpt>
      <trkpt lat="43.70802" lon="3.7119">
        <ele>203</ele>
        <time>2020-08-08T07:52:02.000Z</time>
      </trkpt>
      <trkpt lat="43.70803" lon="3.71189">
        <ele>203</ele>
        <time>2020-08-08T07:52:08.000Z</time>
      </trkpt>
      <trkpt lat="43.70809" lon="3.71185">
        <ele>203.93625489881</ele>
        <time>2020-08-08T07:52:13.000Z</time>
      </trkpt>
      <trkpt lat="43.70812" lon="3.71183">
        <ele>204</ele>
        <time>2020-08-08T07:52:15.000Z</time>
      </trkpt>
      <trkpt lat="43.70814" lon="3.71181">
        <ele>204</ele>
        <time>2020-08-08T07:52:16.000Z</time>
      </trkpt>
      <trkpt lat="43.70815" lon="3.7118">
        <ele>204</ele>
        <time>2020-08-08T07:52:17.000Z</time>
      </trkpt>
      <trkpt lat="43.70817" lon="3.71178">
        <ele>204</ele>
        <time>2020-08-08T07:52:18.000Z</time>
      </trkpt>
      <trkpt lat="43.70818" lon="3.71176">
        <ele>204</ele>
        <time>2020-08-08T07:52:19.000Z</time>
      </trkpt>
      <trkpt lat="43.7082" lon="3.71174">
        <ele>204</ele>
        <time>2020-08-08T07:52:20.000Z</time>
      </trkpt>
      <trkpt lat="43.70821" lon="3.71172">
        <ele>204</ele>
        <time>2020-08-08T07:52:21.000Z</time>
      </trkpt>
      <trkpt lat="43.70822" lon="3.71169">
        <ele>204</ele>
        <time>2020-08-08T07:52:22.000Z</time>
      </trkpt>
      <trkpt lat="43.70823" lon="3.71167">
        <ele>204</ele>
        <time>2020-08-08T07:52:23.000Z</time>
      </trkpt>
      <trkpt lat="43.70823" lon="3.71164">
        <ele>204</ele>
        <time>2020-08-08T07:52:24.000Z</time>
      </trkpt>
      <trkpt lat="43.70823" lon="3.7116">
        <ele>204</ele>
        <time>2020-08-08T07:52:25.000Z</time>
      </trkpt>
      <trkpt lat="43.70823" lon="3.71157">
        <ele>204</ele>
        <time>2020-08-08T07:52:26.000Z</time>
      </trkpt>
      <trkpt lat="43.70823" lon="3.71154">
        <ele>204</ele>
        <time>2020-08-08T07:52:27.000Z</time>
      </trkpt>
      <trkpt lat="43.70822" lon="3.71151">
        <ele>204</ele>
        <time>2020-08-08T07:52:28.000Z</time>
      </trkpt>
      <trkpt lat="43.70822" lon="3.71148">
        <ele>204</ele>
        <time>2020-08-08T07:52:29.000Z</time>
      </trkpt>
      <trkpt lat="43.70822" lon="3.71144">
        <ele>204</ele>
        <time>2020-08-08T07:52:30.000Z</time>
      </trkpt>
      <trkpt lat="43.70821" lon="3.71141">
        <ele>204</ele>
        <time>2020-08-08T07:52:31.000Z</time>
      </trkpt>
      <trkpt lat="43.70821" lon="3.71138">
        <ele>204</ele>
        <time>2020-08-08T07:52:32.000Z</time>
      </trkpt>
      <trkpt lat="43.7082" lon="3.71135">
        <ele>204.02300032</ele>
        <time>2020-08-08T07:52:33.000Z</time>
      </trkpt>
      <trkpt lat="43.7082" lon="3.71132">
        <ele>204.12300032</ele>
        <time>2020-08-08T07:52:34.000Z</time>
      </trkpt>
      <trkpt lat="43.7082" lon="3.71128">
        <ele>204.22300032</ele>
        <time>2020-08-08T07:52:35.000Z</time>
      </trkpt>
      <trkpt lat="43.70819" lon="3.71124">
        <ele>204.32300032</ele>
        <time>2020-08-08T07:52:36.000Z</time>
      </trkpt>
      <trkpt lat="43.70818" lon="3.71121">
        <ele>204.42300032</ele>
        <time>2020-08-08T07:52:37.000Z</time>
      </trkpt>
      <trkpt lat="43.70817" lon="3.71117">
        <ele>204.52300032</ele>
        <time>2020-08-08T07:52:38.000Z</time>
      </trkpt>
      <trkpt lat="43.70816" lon="3.71114">
        <ele>204.62300032</ele>
        <time>2020-08-08T07:52:39.000Z</time>
      </trkpt>
      <trkpt lat="43.70815" lon="3.7111">
        <ele>204.72300032</ele>
        <time>2020-08-08T07:52:40.000Z</time>
      </trkpt>
      <trkpt lat="43.70814" lon="3.71107">
        <ele>204.82300032</ele>
        <time>2020-08-08T07:52:41.000Z</time>
      </trkpt>
      <trkpt lat="43.70814" lon="3.71104">
        <ele>204.92300032</ele>
        <time>2020-08-08T07:52:42.000Z</time>
      </trkpt>
      <trkpt lat="43.70813" lon="3.711">
        <ele>205</ele>
        <time>2020-08-08T07:52:43.000Z</time>
      </trkpt>
      <trkpt lat="43.70812" lon="3.71097">
        <ele>205</ele>
        <time>2020-08-08T07:52:44.000Z</time>
      </trkpt>
      <trkpt lat="43.70811" lon="3.71094">
        <ele>205</ele>
        <time>2020-08-08T07:52:45.000Z</time>
      </trkpt>
      <trkpt lat="43.7081" lon="3.7109">
        <ele>205</ele>
        <time>2020-08-08T07:52:46.000Z</time>
      </trkpt>
      <trkpt lat="43.7081" lon="3.71087">
        <ele>205</ele>
        <time>2020-08-08T07:52:47.000Z</time>
      </trkpt>
      <trkpt lat="43.70809" lon="3.71083">
        <ele>205</ele>
        <time>2020-08-08T07:52:48.000Z</time>
      </trkpt>
      <trkpt lat="43.70808" lon="3.7108">
        <ele>205</ele>
        <time>2020-08-08T07:52:49.000Z</time>
      </trkpt>
      <trkpt lat="43.70806" lon="3.71076">
        <ele>205</ele>
        <time>2020-08-08T07:52:50.000Z</time>
      </trkpt>
      <trkpt lat="43.70805" lon="3.71072">
        <ele>205</ele>
        <time>2020-08-08T07:52:51.000Z</time>
      </trkpt>
      <trkpt lat="43.70804" lon="3.71069">
        <ele>205</ele>
        <time>2020-08-08T07:52:52.000Z</time>
      </trkpt>
      <trkpt lat="43.70803" lon="3.71065">
        <ele>205</ele>
        <time>2020-08-08T07:52:53.000Z</time>
      </trkpt>
      <trkpt lat="43.70801" lon="3.71062">
        <ele>205</ele>
        <time>2020-08-08T07:52:54.000Z</time>
      </trkpt>
      <trkpt lat="43.708" lon="3.71058">
        <ele>205</ele>
        <time>2020-08-08T07:52:55.000Z</time>
      </trkpt>
      <trkpt lat="43.70799" lon="3.71054">
        <ele>205</ele>
        <time>2020-08-08T07:52:56.000Z</time>
      </trkpt>
      <trkpt lat="43.70798" lon="3.71051">
        <ele>205</ele>
        <time>2020-08-08T07:52:57.000Z</time>
      </trkpt>
      <trkpt lat="43.70796" lon="3.71047">
        <ele>205</ele>
        <time>2020-08-08T07:52:58.000Z</time>
      </trkpt>
      <trkpt lat="43.70795" lon="3.71044">
        <ele>205</ele>
        <time>2020-08-08T07:52:59.000Z</time>
      </trkpt>
      <trkpt lat="43.70793" lon="3.7104">
        <ele>205</ele>
        <time>2020-08-08T07:53:00.000Z</time>
      </trkpt>
      <trkpt lat="43.70791" lon="3.71037">
        <ele>205</ele>
        <time>2020-08-08T07:53:01.000Z</time>
      </trkpt>
      <trkpt lat="43.7079" lon="3.71032">
        <ele>205</ele>
        <time>2020-08-08T07:53:02.000Z</time>
      </trkpt>
      <trkpt lat="43.70789" lon="3.71028">
        <ele>204.95399936</ele>
        <time>2020-08-08T07:53:03.000Z</time>
      </trkpt>
      <trkpt lat="43.70788" lon="3.71023">
        <ele>204.75399936</ele>
        <time>2020-08-08T07:53:04.000Z</time>
      </trkpt>
      <trkpt lat="43.70787" lon="3.71017">
        <ele>204.55399936</ele>
        <time>2020-08-08T07:53:05.000Z</time>
      </trkpt>
      <trkpt lat="43.70787" lon="3.71012">
        <ele>204.35399936</ele>
        <time>2020-08-08T07:53:06.000Z</time>
      </trkpt>
      <trkpt lat="43.70789" lon="3.71007">
        <ele>204.15399936</ele>
        <time>2020-08-08T07:53:07.000Z</time>
      </trkpt>
      <trkpt lat="43.70791" lon="3.71003">
        <ele>203.95399936</ele>
        <time>2020-08-08T07:53:08.000Z</time>
      </trkpt>
      <trkpt lat="43.70794" lon="3.71">
        <ele>203.75399936</ele>
        <time>2020-08-08T07:53:09.000Z</time>
      </trkpt>
      <trkpt lat="43.70797" lon="3.70998">
        <ele>203.55399936</ele>
        <time>2020-08-08T07:53:10.000Z</time>
      </trkpt>
      <trkpt lat="43.708" lon="3.70997">
        <ele>203.35399936</ele>
        <time>2020-08-08T07:53:11.000Z</time>
      </trkpt>
      <trkpt lat="43.70804" lon="3.70995">
        <ele>203.15399936</ele>
        <time>2020-08-08T07:53:12.000Z</time>
      </trkpt>
      <trkpt lat="43.70807" lon="3.70993">
        <ele>202.95399936</ele>
        <time>2020-08-08T07:53:13.000Z</time>
      </trkpt>
      <trkpt lat="43.7081" lon="3.70991">
        <ele>202.75399936</ele>
        <time>2020-08-08T07:53:14.000Z</time>
      </trkpt>
      <trkpt lat="43.70814" lon="3.70988">
        <ele>202.55399936</ele>
        <time>2020-08-08T07:53:15.000Z</time>
      </trkpt>
      <trkpt lat="43.70818" lon="3.70986">
        <ele>202.35399936</ele>
        <time>2020-08-08T07:53:16.000Z</time>
      </trkpt>
      <trkpt lat="43.70822" lon="3.70984">
        <ele>202.15399936</ele>
        <time>2020-08-08T07:53:17.000Z</time>
      </trkpt>
      <trkpt lat="43.70827" lon="3.70982">
        <ele>201.95399936</ele>
        <time>2020-08-08T07:53:18.000Z</time>
      </trkpt>
      <trkpt lat="43.70831" lon="3.7098">
        <ele>201.75399936</ele>
        <time>2020-08-08T07:53:19.000Z</time>
      </trkpt>
      <trkpt lat="43.70836" lon="3.70978">
        <ele>201.55399936</ele>
        <time>2020-08-08T07:53:20.000Z</time>
      </trkpt>
      <trkpt lat="43.7084" lon="3.70975">
        <ele>201.35399936</ele>
        <time>2020-08-08T07:53:21.000Z</time>
      </trkpt>
      <trkpt lat="43.70845" lon="3.70973">
        <ele>201.15399936</ele>
        <time>2020-08-08T07:53:22.000Z</time>
      </trkpt>
      <trkpt lat="43.7085" lon="3.7097">
        <ele>200.90799872</ele>
        <time>2020-08-08T07:53:23.000Z</time>
      </trkpt>
      <trkpt lat="43.70855" lon="3.70966">
        <ele>200.50799872</ele>
        <time>2020-08-08T07:53:24.000Z</time>
      </trkpt>
      <trkpt lat="43.70859" lon="3.70961">
        <ele>200.10799872</ele>
        <time>2020-08-08T07:53:25.000Z</time>
      </trkpt>
      <trkpt lat="43.70863" lon="3.70957">
        <ele>199.70799872</ele>
        <time>2020-08-08T07:53:26.000Z</time>
      </trkpt>
      <trkpt lat="43.70868" lon="3.70953">
        <ele>199.30799872</ele>
        <time>2020-08-08T07:53:27.000Z</time>
      </trkpt>
      <trkpt lat="43.70872" lon="3.7095">
        <ele>198.90799872</ele>
        <time>2020-08-08T07:53:28.000Z</time>
      </trkpt>
      <trkpt lat="43.70877" lon="3.70947">
        <ele>198.50799872</ele>
        <time>2020-08-08T07:53:29.000Z</time>
      </trkpt>
      <trkpt lat="43.70883" lon="3.70944">
        <ele>198.10799872</ele>
        <time>2020-08-08T07:53:30.000Z</time>
      </trkpt>
      <trkpt lat="43.70888" lon="3.70943">
        <ele>197.70799872</ele>
        <time>2020-08-08T07:53:31.000Z</time>
      </trkpt>
      <trkpt lat="43.70893" lon="3.70941">
        <ele>197.30799872</ele>
        <time>2020-08-08T07:53:32.000Z</time>
      </trkpt>
      <trkpt lat="43.70897" lon="3.7094">
        <ele>196.93099904</ele>
        <time>2020-08-08T07:53:33.000Z</time>
      </trkpt>
      <trkpt lat="43.70902" lon="3.70938">
        <ele>196.63099904</ele>
        <time>2020-08-08T07:53:34.000Z</time>
      </trkpt>
      <trkpt lat="43.70906" lon="3.70936">
        <ele>196.33099904</ele>
        <time>2020-08-08T07:53:35.000Z</time>
      </trkpt>
      <trkpt lat="43.70911" lon="3.70933">
        <ele>196.03099904</ele>
        <time>2020-08-08T07:53:36.000Z</time>
      </trkpt>
      <trkpt lat="43.70916" lon="3.70929">
        <ele>195.73099904</ele>
        <time>2020-08-08T07:53:37.000Z</time>
      </trkpt>
      <trkpt lat="43.7092" lon="3.70925">
        <ele>195.43099904</ele>
        <time>2020-08-08T07:53:38.000Z</time>
      </trkpt>
      <trkpt lat="43.70924" lon="3.7092">
        <ele>195.13099904</ele>
        <time>2020-08-08T07:53:39.000Z</time>
      </trkpt>
      <trkpt lat="43.70928" lon="3.70914">
        <ele>194.83099904</ele>
        <time>2020-08-08T07:53:40.000Z</time>
      </trkpt>
      <trkpt lat="43.70931" lon="3.70908">
        <ele>194.53099904</ele>
        <time>2020-08-08T07:53:41.000Z</time>
      </trkpt>
      <trkpt lat="43.70933" lon="3.70901">
        <ele>194.23099904</ele>
        <time>2020-08-08T07:53:42.000Z</time>
      </trkpt>
      <trkpt lat="43.70936" lon="3.70893">
        <ele>193.93099904</ele>
        <time>2020-08-08T07:53:43.000Z</time>
      </trkpt>
      <trkpt lat="43.70937" lon="3.70885">
        <ele>193.63099904</ele>
        <time>2020-08-08T07:53:44.000Z</time>
      </trkpt>
      <trkpt lat="43.70938" lon="3.70875">
        <ele>193.33099904</ele>
        <time>2020-08-08T07:53:45.000Z</time>
      </trkpt>
      <trkpt lat="43.70938" lon="3.70866">
        <ele>193.03099904</ele>
        <time>2020-08-08T07:53:46.000Z</time>
      </trkpt>
      <trkpt lat="43.70939" lon="3.70856">
        <ele>192.73099904</ele>
        <time>2020-08-08T07:53:47.000Z</time>
      </trkpt>
      <trkpt lat="43.70939" lon="3.70846">
        <ele>192.43099904</ele>
        <time>2020-08-08T07:53:48.000Z</time>
      </trkpt>
      <trkpt lat="43.7094" lon="3.70836">
        <ele>192.13099904</ele>
        <time>2020-08-08T07:53:49.000Z</time>
      </trkpt>
      <trkpt lat="43.70942" lon="3.70827">
        <ele>191.83099904</ele>
        <time>2020-08-08T07:53:50.000Z</time>
      </trkpt>
      <trkpt lat="43.70944" lon="3.70818">
        <ele>191.53099904</ele>
        <time>2020-08-08T07:53:51.000Z</time>
      </trkpt>
      <trkpt lat="43.70946" lon="3.70811">
        <ele>191.23099904</ele>
        <time>2020-08-08T07:53:52.000Z</time>
      </trkpt>
      <trkpt lat="43.70949" lon="3.70803">
        <ele>190.95399936</ele>
        <time>2020-08-08T07:53:53.000Z</time>
      </trkpt>
      <trkpt lat="43.7095" lon="3.70794">
        <ele>190.75399936</ele>
        <time>2020-08-08T07:53:54.000Z</time>
      </trkpt>
      <trkpt lat="43.7095" lon="3.70785">
        <ele>190.55399936</ele>
        <time>2020-08-08T07:53:55.000Z</time>
      </trkpt>
      <trkpt lat="43.70949" lon="3.70777">
        <ele>190.35399936</ele>
        <time>2020-08-08T07:53:56.000Z</time>
      </trkpt>
      <trkpt lat="43.70947" lon="3.70769">
        <ele>190.15399936</ele>
        <time>2020-08-08T07:53:57.000Z</time>
      </trkpt>
      <trkpt lat="43.70944" lon="3.70762">
        <ele>189.95399936</ele>
        <time>2020-08-08T07:53:58.000Z</time>
      </trkpt>
      <trkpt lat="43.7094" lon="3.70756">
        <ele>189.75399936</ele>
        <time>2020-08-08T07:53:59.000Z</time>
      </trkpt>
      <trkpt lat="43.70936" lon="3.70751">
        <ele>189.55399936</ele>
        <time>2020-08-08T07:54:00.000Z</time>
      </trkpt>
      <trkpt lat="43.70932" lon="3.70746">
        <ele>189.35399936</ele>
        <time>2020-08-08T07:54:01.000Z</time>
      </trkpt>
      <trkpt lat="43.70928" lon="3.70743">
        <ele>189.15399936</ele>
        <time>2020-08-08T07:54:02.000Z</time>
      </trkpt>
      <trkpt lat="43.70923" lon="3.7074">
        <ele>189</ele>
        <time>2020-08-08T07:54:03.000Z</time>
      </trkpt>
      <trkpt lat="43.70919" lon="3.70737">
        <ele>189</ele>
        <time>2020-08-08T07:54:04.000Z</time>
      </trkpt>
      <trkpt lat="43.70915" lon="3.70735">
        <ele>189</ele>
        <time>2020-08-08T07:54:05.000Z</time>
      </trkpt>
      <trkpt lat="43.70912" lon="3.70733">
        <ele>189</ele>
        <time>2020-08-08T07:54:06.000Z</time>
      </trkpt>
      <trkpt lat="43.7091" lon="3.70732">
        <ele>189</ele>
        <time>2020-08-08T07:54:08.000Z</time>
      </trkpt>
      <trkpt lat="43.70909" lon="3.70735">
        <ele>189</ele>
        <time>2020-08-08T07:54:10.000Z</time>
      </trkpt>
      <trkpt lat="43.70908" lon="3.70738">
        <ele>189</ele>
        <time>2020-08-08T07:54:11.000Z</time>
      </trkpt>
      <trkpt lat="43.70907" lon="3.7074">
        <ele>189</ele>
        <time>2020-08-08T07:54:12.000Z</time>
      </trkpt>
      <trkpt lat="43.70905" lon="3.7074">
        <ele>188.97699968</ele>
        <time>2020-08-08T07:54:13.000Z</time>
      </trkpt>
      <trkpt lat="43.70902" lon="3.7074">
        <ele>188.87699968</ele>
        <time>2020-08-08T07:54:14.000Z</time>
      </trkpt>
      <trkpt lat="43.70899" lon="3.70741">
        <ele>188.77699968</ele>
        <time>2020-08-08T07:54:15.000Z</time>
      </trkpt>
      <trkpt lat="43.70896" lon="3.70741">
        <ele>188.67699968</ele>
        <time>2020-08-08T07:54:16.000Z</time>
      </trkpt>
      <trkpt lat="43.70892" lon="3.70741">
        <ele>188.57699968</ele>
        <time>2020-08-08T07:54:17.000Z</time>
      </trkpt>
      <trkpt lat="43.70889" lon="3.70741">
        <ele>188.47699968</ele>
        <time>2020-08-08T07:54:18.000Z</time>
      </trkpt>
      <trkpt lat="43.70886" lon="3.70741">
        <ele>188.37699968</ele>
        <time>2020-08-08T07:54:19.000Z</time>
      </trkpt>
      <trkpt lat="43.70883" lon="3.70742">
        <ele>188.27699968</ele>
        <time>2020-08-08T07:54:20.000Z</time>
      </trkpt>
      <trkpt lat="43.7088" lon="3.70744">
        <ele>188.17699968</ele>
        <time>2020-08-08T07:54:21.000Z</time>
      </trkpt>
      <trkpt lat="43.70877" lon="3.70745">
        <ele>188.07699968</ele>
        <time>2020-08-08T07:54:22.000Z</time>
      </trkpt>
      <trkpt lat="43.70874" lon="3.70746">
        <ele>188.02230874186</ele>
        <time>2020-08-08T07:54:23.000Z</time>
      </trkpt>
      <trkpt lat="43.70871" lon="3.70748">
        <ele>188.11930192223</ele>
        <time>2020-08-08T07:54:24.000Z</time>
      </trkpt>
      <trkpt lat="43.70868" lon="3.7075">
        <ele>188.2162951026</ele>
        <time>2020-08-08T07:54:25.000Z</time>
      </trkpt>
      <trkpt lat="43.70865" lon="3.70751">
        <ele>188.31328828298</ele>
        <time>2020-08-08T07:54:26.000Z</time>
      </trkpt>
      <trkpt lat="43.70863" lon="3.70753">
        <ele>188.41028146335</ele>
        <time>2020-08-08T07:54:27.000Z</time>
      </trkpt>
      <trkpt lat="43.7086" lon="3.70754">
        <ele>188.50727464372</ele>
        <time>2020-08-08T07:54:28.000Z</time>
      </trkpt>
      <trkpt lat="43.70857" lon="3.70754">
        <ele>188.60426782409</ele>
        <time>2020-08-08T07:54:29.000Z</time>
      </trkpt>
      <trkpt lat="43.70854" lon="3.70755">
        <ele>188.70126100446</ele>
        <time>2020-08-08T07:54:30.000Z</time>
      </trkpt>
      <trkpt lat="43.70851" lon="3.70756">
        <ele>188.79825418483</ele>
        <time>2020-08-08T07:54:31.000Z</time>
      </trkpt>
      <trkpt lat="43.70849" lon="3.70757">
        <ele>188.8952473652</ele>
        <time>2020-08-08T07:54:32.000Z</time>
      </trkpt>
      <trkpt lat="43.70846" lon="3.70758">
        <ele>188.99224054557</ele>
        <time>2020-08-08T07:54:33.000Z</time>
      </trkpt>
      <trkpt lat="43.70843" lon="3.70759">
        <ele>189</ele>
        <time>2020-08-08T07:54:34.000Z</time>
      </trkpt>
      <trkpt lat="43.70841" lon="3.7076">
        <ele>189</ele>
        <time>2020-08-08T07:54:35.000Z</time>
      </trkpt>
      <trkpt lat="43.70838" lon="3.70761">
        <ele>189</ele>
        <time>2020-08-08T07:54:36.000Z</time>
      </trkpt>
      <trkpt lat="43.70835" lon="3.70761">
        <ele>189</ele>
        <time>2020-08-08T07:54:37.000Z</time>
      </trkpt>
      <trkpt lat="43.70832" lon="3.70762">
        <ele>189</ele>
        <time>2020-08-08T07:54:38.000Z</time>
      </trkpt>
      <trkpt lat="43.70829" lon="3.70762">
        <ele>189</ele>
        <time>2020-08-08T07:54:39.000Z</time>
      </trkpt>
      <trkpt lat="43.70825" lon="3.70762">
        <ele>189</ele>
        <time>2020-08-08T07:54:40.000Z</time>
      </trkpt>
      <trkpt lat="43.70822" lon="3.70762">
        <ele>189</ele>
        <time>2020-08-08T07:54:41.000Z</time>
      </trkpt>
      <trkpt lat="43.70819" lon="3.70762">
        <ele>189</ele>
        <time>2020-08-08T07:54:42.000Z</time>
      </trkpt>
      <trkpt lat="43.70816" lon="3.70763">
        <ele>188.97699968</ele>
        <time>2020-08-08T07:54:43.000Z</time>
      </trkpt>
      <trkpt lat="43.70813" lon="3.70763">
        <ele>188.87699968</ele>
        <time>2020-08-08T07:54:44.000Z</time>
      </trkpt>
      <trkpt lat="43.70809" lon="3.70764">
        <ele>188.77699968</ele>
        <time>2020-08-08T07:54:45.000Z</time>
      </trkpt>
      <trkpt lat="43.70806" lon="3.70764">
        <ele>188.67699968</ele>
        <time>2020-08-08T07:54:46.000Z</time>
      </trkpt>
      <trkpt lat="43.70803" lon="3.70764">
        <ele>188.57699968</ele>
        <time>2020-08-08T07:54:47.000Z</time>
      </trkpt>
      <trkpt lat="43.70799" lon="3.70765">
        <ele>188.47699968</ele>
        <time>2020-08-08T07:54:48.000Z</time>
      </trkpt>
      <trkpt lat="43.70796" lon="3.70765">
        <ele>188.37699968</ele>
        <time>2020-08-08T07:54:49.000Z</time>
      </trkpt>
      <trkpt lat="43.70792" lon="3.70765">
        <ele>188.27699968</ele>
        <time>2020-08-08T07:54:50.000Z</time>
      </trkpt>
      <trkpt lat="43.70788" lon="3.70765">
        <ele>188.17699968</ele>
        <time>2020-08-08T07:54:51.000Z</time>
      </trkpt>
      <trkpt lat="43.70784" lon="3.70764">
        <ele>188.07699968</ele>
        <time>2020-08-08T07:54:52.000Z</time>
      </trkpt>
      <trkpt lat="43.70781" lon="3.70763">
        <ele>187.97769125814</ele>
        <time>2020-08-08T07:54:53.000Z</time>
      </trkpt>
      <trkpt lat="43.70777" lon="3.70763">
        <ele>187.88069807777</ele>
        <time>2020-08-08T07:54:54.000Z</time>
      </trkpt>
      <trkpt lat="43.70774" lon="3.70762">
        <ele>187.7837048974</ele>
        <time>2020-08-08T07:54:55.000Z</time>
      </trkpt>
      <trkpt lat="43.7077" lon="3.7076">
        <ele>187.68671171702</ele>
        <time>2020-08-08T07:54:56.000Z</time>
      </trkpt>
      <trkpt lat="43.70767" lon="3.70759">
        <ele>187.58971853665</ele>
        <time>2020-08-08T07:54:57.000Z</time>
      </trkpt>
      <trkpt lat="43.70764" lon="3.70757">
        <ele>187.49272535628</ele>
        <time>2020-08-08T07:54:58.000Z</time>
      </trkpt>
      <trkpt lat="43.7076" lon="3.70755">
        <ele>187.39573217591</ele>
        <time>2020-08-08T07:54:59.000Z</time>
      </trkpt>
      <trkpt lat="43.70757" lon="3.70753">
        <ele>187.29873899554</ele>
        <time>2020-08-08T07:55:00.000Z</time>
      </trkpt>
      <trkpt lat="43.70753" lon="3.70751">
        <ele>187.20174581517</ele>
        <time>2020-08-08T07:55:01.000Z</time>
      </trkpt>
      <trkpt lat="43.7075" lon="3.70749">
        <ele>187.1047526348</ele>
        <time>2020-08-08T07:55:02.000Z</time>
      </trkpt>
      <trkpt lat="43.70746" lon="3.70747">
        <ele>187.00775945443</ele>
        <time>2020-08-08T07:55:03.000Z</time>
      </trkpt>
      <trkpt lat="43.70743" lon="3.70746">
        <ele>186.90505672819</ele>
        <time>2020-08-08T07:55:04.000Z</time>
      </trkpt>
      <trkpt lat="43.70739" lon="3.70745">
        <ele>186.80185751971</ele>
        <time>2020-08-08T07:55:05.000Z</time>
      </trkpt>
      <trkpt lat="43.70735" lon="3.70744">
        <ele>186.69865831122</ele>
        <time>2020-08-08T07:55:06.000Z</time>
      </trkpt>
      <trkpt lat="43.70731" lon="3.70743">
        <ele>186.59545910273</ele>
        <time>2020-08-08T07:55:07.000Z</time>
      </trkpt>
      <trkpt lat="43.70727" lon="3.70742">
        <ele>186.49225989424</ele>
        <time>2020-08-08T07:55:08.000Z</time>
      </trkpt>
      <trkpt lat="43.70723" lon="3.70741">
        <ele>186.38906068576</ele>
        <time>2020-08-08T07:55:09.000Z</time>
      </trkpt>
      <trkpt lat="43.70719" lon="3.70741">
        <ele>186.28586147727</ele>
        <time>2020-08-08T07:55:10.000Z</time>
      </trkpt>
      <trkpt lat="43.70715" lon="3.70741">
        <ele>186.18266226878</ele>
        <time>2020-08-08T07:55:11.000Z</time>
      </trkpt>
      <trkpt lat="43.70711" lon="3.70741">
        <ele>186.0794630603</ele>
        <time>2020-08-08T07:55:12.000Z</time>
      </trkpt>
      <trkpt lat="43.70707" lon="3.7074">
        <ele>185.97704560348</ele>
        <time>2020-08-08T07:55:13.000Z</time>
      </trkpt>
      <trkpt lat="43.70704" lon="3.7074">
        <ele>185.87724526803</ele>
        <time>2020-08-08T07:55:14.000Z</time>
      </trkpt>
      <trkpt lat="43.707" lon="3.7074">
        <ele>185.77744493257</ele>
        <time>2020-08-08T07:55:15.000Z</time>
      </trkpt>
      <trkpt lat="43.70697" lon="3.7074">
        <ele>185.67764459711</ele>
        <time>2020-08-08T07:55:16.000Z</time>
      </trkpt>
      <trkpt lat="43.70694" lon="3.7074">
        <ele>185.57784426166</ele>
        <time>2020-08-08T07:55:17.000Z</time>
      </trkpt>
      <trkpt lat="43.70691" lon="3.70741">
        <ele>185.4780439262</ele>
        <time>2020-08-08T07:55:18.000Z</time>
      </trkpt>
      <trkpt lat="43.70688" lon="3.70742">
        <ele>185.37824359074</ele>
        <time>2020-08-08T07:55:19.000Z</time>
      </trkpt>
      <trkpt lat="43.70685" lon="3.70742">
        <ele>185.27844325529</ele>
        <time>2020-08-08T07:55:20.000Z</time>
      </trkpt>
      <trkpt lat="43.70682" lon="3.7074">
        <ele>185.17864291983</ele>
        <time>2020-08-08T07:55:21.000Z</time>
      </trkpt>
      <trkpt lat="43.70679" lon="3.70739">
        <ele>185.07884258437</ele>
        <time>2020-08-08T07:55:22.000Z</time>
      </trkpt>
      <trkpt lat="43.70676" lon="3.70737">
        <ele>185</ele>
        <time>2020-08-08T07:55:23.000Z</time>
      </trkpt>
      <trkpt lat="43.70673" lon="3.70736">
        <ele>185</ele>
        <time>2020-08-08T07:55:24.000Z</time>
      </trkpt>
      <trkpt lat="43.70669" lon="3.70735">
        <ele>185</ele>
        <time>2020-08-08T07:55:25.000Z</time>
      </trkpt>
      <trkpt lat="43.70666" lon="3.70734">
        <ele>185</ele>
        <time>2020-08-08T07:55:26.000Z</time>
      </trkpt>
      <trkpt lat="43.70663" lon="3.70733">
        <ele>185</ele>
        <time>2020-08-08T07:55:27.000Z</time>
      </trkpt>
      <trkpt lat="43.7066" lon="3.70732">
        <ele>185</ele>
        <time>2020-08-08T07:55:28.000Z</time>
      </trkpt>
      <trkpt lat="43.70656" lon="3.7073">
        <ele>185</ele>
        <time>2020-08-08T07:55:29.000Z</time>
      </trkpt>
      <trkpt lat="43.70653" lon="3.70729">
        <ele>185</ele>
        <time>2020-08-08T07:55:30.000Z</time>
      </trkpt>
      <trkpt lat="43.7065" lon="3.70726">
        <ele>185</ele>
        <time>2020-08-08T07:55:31.000Z</time>
      </trkpt>
      <trkpt lat="43.70647" lon="3.70724">
        <ele>185</ele>
        <time>2020-08-08T07:55:32.000Z</time>
      </trkpt>
      <trkpt lat="43.70644" lon="3.70721">
        <ele>184.9776478842</ele>
        <time>2020-08-08T07:55:33.000Z</time>
      </trkpt>
      <trkpt lat="43.70642" lon="3.70718">
        <ele>184.88046612415</ele>
        <time>2020-08-08T07:55:34.000Z</time>
      </trkpt>
      <trkpt lat="43.70639" lon="3.70715">
        <ele>184.78328436409</ele>
        <time>2020-08-08T07:55:35.000Z</time>
      </trkpt>
      <trkpt lat="43.70636" lon="3.70712">
        <ele>184.68610260404</ele>
        <time>2020-08-08T07:55:36.000Z</time>
      </trkpt>
      <trkpt lat="43.70634" lon="3.70708">
        <ele>184.58892084398</ele>
        <time>2020-08-08T07:55:37.000Z</time>
      </trkpt>
      <trkpt lat="43.70632" lon="3.70704">
        <ele>184.49173908392</ele>
        <time>2020-08-08T07:55:38.000Z</time>
      </trkpt>
      <trkpt lat="43.70631" lon="3.70699">
        <ele>184.39455732387</ele>
        <time>2020-08-08T07:55:39.000Z</time>
      </trkpt>
      <trkpt lat="43.7063" lon="3.70694">
        <ele>184.29737556381</ele>
        <time>2020-08-08T07:55:40.000Z</time>
      </trkpt>
      <trkpt lat="43.70629" lon="3.70689">
        <ele>184.20019380375</ele>
        <time>2020-08-08T07:55:41.000Z</time>
      </trkpt>
      <trkpt lat="43.70629" lon="3.70684">
        <ele>184.1030120437</ele>
        <time>2020-08-08T07:55:42.000Z</time>
      </trkpt>
      <trkpt lat="43.70629" lon="3.70679">
        <ele>184.00583028364</ele>
        <time>2020-08-08T07:55:43.000Z</time>
      </trkpt>
      <trkpt lat="43.70629" lon="3.70674">
        <ele>183.80638391551</ele>
        <time>2020-08-08T07:55:44.000Z</time>
      </trkpt>
      <trkpt lat="43.70629" lon="3.70669">
        <ele>183.60041075991</ele>
        <time>2020-08-08T07:55:45.000Z</time>
      </trkpt>
      <trkpt lat="43.70628" lon="3.70664">
        <ele>183.39443760431</ele>
        <time>2020-08-08T07:55:46.000Z</time>
      </trkpt>
      <trkpt lat="43.70628" lon="3.70659">
        <ele>183.1884644487</ele>
        <time>2020-08-08T07:55:47.000Z</time>
      </trkpt>
      <trkpt lat="43.70628" lon="3.70654">
        <ele>182.9824912931</ele>
        <time>2020-08-08T07:55:48.000Z</time>
      </trkpt>
      <trkpt lat="43.70629" lon="3.70648">
        <ele>182.7765181375</ele>
        <time>2020-08-08T07:55:49.000Z</time>
      </trkpt>
      <trkpt lat="43.7063" lon="3.70642">
        <ele>182.5705449819</ele>
        <time>2020-08-08T07:55:50.000Z</time>
      </trkpt>
      <trkpt lat="43.70631" lon="3.70636">
        <ele>182.3645718263</ele>
        <time>2020-08-08T07:55:51.000Z</time>
      </trkpt>
      <trkpt lat="43.70632" lon="3.7063">
        <ele>182.1585986707</ele>
        <time>2020-08-08T07:55:52.000Z</time>
      </trkpt>
      <trkpt lat="43.70633" lon="3.70625">
        <ele>181.95399936</ele>
        <time>2020-08-08T07:55:53.000Z</time>
      </trkpt>
      <trkpt lat="43.70635" lon="3.70619">
        <ele>181.75399936</ele>
        <time>2020-08-08T07:55:54.000Z</time>
      </trkpt>
      <trkpt lat="43.70636" lon="3.70613">
        <ele>181.55399936</ele>
        <time>2020-08-08T07:55:55.000Z</time>
      </trkpt>
      <trkpt lat="43.70637" lon="3.70607">
        <ele>181.35399936</ele>
        <time>2020-08-08T07:55:56.000Z</time>
      </trkpt>
      <trkpt lat="43.70638" lon="3.70601">
        <ele>181.15399936</ele>
        <time>2020-08-08T07:55:57.000Z</time>
      </trkpt>
      <trkpt lat="43.70639" lon="3.70595">
        <ele>180.95399936</ele>
        <time>2020-08-08T07:55:58.000Z</time>
      </trkpt>
      <trkpt lat="43.70639" lon="3.70589">
        <ele>180.75399936</ele>
        <time>2020-08-08T07:55:59.000Z</time>
      </trkpt>
      <trkpt lat="43.70637" lon="3.70584">
        <ele>180.55399936</ele>
        <time>2020-08-08T07:56:00.000Z</time>
      </trkpt>
      <trkpt lat="43.70635" lon="3.70579">
        <ele>180.35399936</ele>
        <time>2020-08-08T07:56:01.000Z</time>
      </trkpt>
      <trkpt lat="43.70632" lon="3.70574">
        <ele>180.15399936</ele>
        <time>2020-08-08T07:56:02.000Z</time>
      </trkpt>
      <trkpt lat="43.70629" lon="3.70568">
        <ele>179.93099904</ele>
        <time>2020-08-08T07:56:03.000Z</time>
      </trkpt>
      <trkpt lat="43.70627" lon="3.70562">
        <ele>179.63099904</ele>
        <time>2020-08-08T07:56:04.000Z</time>
      </trkpt>
      <trkpt lat="43.70624" lon="3.70556">
        <ele>179.33099904</ele>
        <time>2020-08-08T07:56:05.000Z</time>
      </trkpt>
      <trkpt lat="43.70622" lon="3.7055">
        <ele>179.03099904</ele>
        <time>2020-08-08T07:56:06.000Z</time>
      </trkpt>
      <trkpt lat="43.7062" lon="3.70544">
        <ele>178.73099904</ele>
        <time>2020-08-08T07:56:07.000Z</time>
      </trkpt>
      <trkpt lat="43.70617" lon="3.70537">
        <ele>178.43099904</ele>
        <time>2020-08-08T07:56:08.000Z</time>
      </trkpt>
      <trkpt lat="43.70614" lon="3.70532">
        <ele>178.13099904</ele>
        <time>2020-08-08T07:56:09.000Z</time>
      </trkpt>
      <trkpt lat="43.70611" lon="3.70527">
        <ele>177.83099904</ele>
        <time>2020-08-08T07:56:10.000Z</time>
      </trkpt>
      <trkpt lat="43.70607" lon="3.70522">
        <ele>177.53099904</ele>
        <time>2020-08-08T07:56:11.000Z</time>
      </trkpt>
      <trkpt lat="43.70604" lon="3.70518">
        <ele>177.23099904</ele>
        <time>2020-08-08T07:56:12.000Z</time>
      </trkpt>
      <trkpt lat="43.706" lon="3.70514">
        <ele>176.95399936</ele>
        <time>2020-08-08T07:56:13.000Z</time>
      </trkpt>
      <trkpt lat="43.70596" lon="3.70511">
        <ele>176.75399936</ele>
        <time>2020-08-08T07:56:14.000Z</time>
      </trkpt>
      <trkpt lat="43.70592" lon="3.70508">
        <ele>176.55399936</ele>
        <time>2020-08-08T07:56:15.000Z</time>
      </trkpt>
      <trkpt lat="43.70588" lon="3.70505">
        <ele>176.35399936</ele>
        <time>2020-08-08T07:56:16.000Z</time>
      </trkpt>
      <trkpt lat="43.70585" lon="3.70501">
        <ele>176.15399936</ele>
        <time>2020-08-08T07:56:17.000Z</time>
      </trkpt>
      <trkpt lat="43.70581" lon="3.70497">
        <ele>175.95399936</ele>
        <time>2020-08-08T07:56:18.000Z</time>
      </trkpt>
      <trkpt lat="43.70578" lon="3.70493">
        <ele>175.75399936</ele>
        <time>2020-08-08T07:56:19.000Z</time>
      </trkpt>
      <trkpt lat="43.70574" lon="3.70488">
        <ele>175.55399936</ele>
        <time>2020-08-08T07:56:20.000Z</time>
      </trkpt>
      <trkpt lat="43.70571" lon="3.70483">
        <ele>175.35399936</ele>
        <time>2020-08-08T07:56:21.000Z</time>
      </trkpt>
      <trkpt lat="43.70568" lon="3.70478">
        <ele>175.15399936</ele>
        <time>2020-08-08T07:56:22.000Z</time>
      </trkpt>
      <trkpt lat="43.70565" lon="3.70473">
        <ele>174.8849984</ele>
        <time>2020-08-08T07:56:23.000Z</time>
      </trkpt>
      <trkpt lat="43.70562" lon="3.70466">
        <ele>174.3849984</ele>
        <time>2020-08-08T07:56:24.000Z</time>
      </trkpt>
      <trkpt lat="43.70558" lon="3.7046">
        <ele>173.8849984</ele>
        <time>2020-08-08T07:56:25.000Z</time>
      </trkpt>
      <trkpt lat="43.70554" lon="3.70454">
        <ele>173.3849984</ele>
        <time>2020-08-08T07:56:26.000Z</time>
      </trkpt>
      <trkpt lat="43.7055" lon="3.70447">
        <ele>172.8849984</ele>
        <time>2020-08-08T07:56:27.000Z</time>
      </trkpt>
      <trkpt lat="43.70546" lon="3.70441">
        <ele>172.3849984</ele>
        <time>2020-08-08T07:56:28.000Z</time>
      </trkpt>
      <trkpt lat="43.70541" lon="3.70435">
        <ele>171.8849984</ele>
        <time>2020-08-08T07:56:29.000Z</time>
      </trkpt>
      <trkpt lat="43.70535" lon="3.70429">
        <ele>171.3849984</ele>
        <time>2020-08-08T07:56:30.000Z</time>
      </trkpt>
      <trkpt lat="43.7053" lon="3.70424">
        <ele>170.8849984</ele>
        <time>2020-08-08T07:56:31.000Z</time>
      </trkpt>
      <trkpt lat="43.70526" lon="3.70418">
        <ele>170.3849984</ele>
        <time>2020-08-08T07:56:32.000Z</time>
      </trkpt>
      <trkpt lat="43.70522" lon="3.70412">
        <ele>169.95399936</ele>
        <time>2020-08-08T07:56:33.000Z</time>
      </trkpt>
      <trkpt lat="43.7052" lon="3.70406">
        <ele>169.75399936</ele>
        <time>2020-08-08T07:56:34.000Z</time>
      </trkpt>
      <trkpt lat="43.70521" lon="3.704">
        <ele>169.55399936</ele>
        <time>2020-08-08T07:56:35.000Z</time>
      </trkpt>
      <trkpt lat="43.70522" lon="3.70395">
        <ele>169.35399936</ele>
        <time>2020-08-08T07:56:36.000Z</time>
      </trkpt>
      <trkpt lat="43.70524" lon="3.70391">
        <ele>169.15399936</ele>
        <time>2020-08-08T07:56:37.000Z</time>
      </trkpt>
      <trkpt lat="43.70528" lon="3.70388">
        <ele>168.95399936</ele>
        <time>2020-08-08T07:56:38.000Z</time>
      </trkpt>
      <trkpt lat="43.70532" lon="3.70386">
        <ele>168.75399936</ele>
        <time>2020-08-08T07:56:39.000Z</time>
      </trkpt>
      <trkpt lat="43.70537" lon="3.70386">
        <ele>168.55399936</ele>
        <time>2020-08-08T07:56:40.000Z</time>
      </trkpt>
      <trkpt lat="43.70542" lon="3.70385">
        <ele>168.35399936</ele>
        <time>2020-08-08T07:56:41.000Z</time>
      </trkpt>
      <trkpt lat="43.70547" lon="3.70385">
        <ele>168.15399936</ele>
        <time>2020-08-08T07:56:42.000Z</time>
      </trkpt>
      <trkpt lat="43.70553" lon="3.70384">
        <ele>167.90799872</ele>
        <time>2020-08-08T07:56:43.000Z</time>
      </trkpt>
      <trkpt lat="43.70559" lon="3.70383">
        <ele>167.50799872</ele>
        <time>2020-08-08T07:56:44.000Z</time>
      </trkpt>
      <trkpt lat="43.70566" lon="3.70383">
        <ele>167.10799872</ele>
        <time>2020-08-08T07:56:45.000Z</time>
      </trkpt>
      <trkpt lat="43.70573" lon="3.70382">
        <ele>166.70799872</ele>
        <time>2020-08-08T07:56:46.000Z</time>
      </trkpt>
      <trkpt lat="43.7058" lon="3.70381">
        <ele>166.30799872</ele>
        <time>2020-08-08T07:56:47.000Z</time>
      </trkpt>
      <trkpt lat="43.70588" lon="3.70381">
        <ele>165.90799872</ele>
        <time>2020-08-08T07:56:48.000Z</time>
      </trkpt>
      <trkpt lat="43.70596" lon="3.7038">
        <ele>165.50799872</ele>
        <time>2020-08-08T07:56:49.000Z</time>
      </trkpt>
      <trkpt lat="43.70603" lon="3.7038">
        <ele>165.10799872</ele>
        <time>2020-08-08T07:56:50.000Z</time>
      </trkpt>
      <trkpt lat="43.70611" lon="3.70381">
        <ele>164.70799872</ele>
        <time>2020-08-08T07:56:51.000Z</time>
      </trkpt>
      <trkpt lat="43.70619" lon="3.70382">
        <ele>164.30799872</ele>
        <time>2020-08-08T07:56:52.000Z</time>
      </trkpt>
      <trkpt lat="43.70626" lon="3.70383">
        <ele>163.95399936</ele>
        <time>2020-08-08T07:56:53.000Z</time>
      </trkpt>
      <trkpt lat="43.70632" lon="3.70384">
        <ele>163.75399936</ele>
        <time>2020-08-08T07:56:54.000Z</time>
      </trkpt>
      <trkpt lat="43.70637" lon="3.70384">
        <ele>163.55399936</ele>
        <time>2020-08-08T07:56:55.000Z</time>
      </trkpt>
      <trkpt lat="43.7064" lon="3.70384">
        <ele>163.35399936</ele>
        <time>2020-08-08T07:56:56.000Z</time>
      </trkpt>
      <trkpt lat="43.70643" lon="3.70382">
        <ele>163.15399936</ele>
        <time>2020-08-08T07:56:57.000Z</time>
      </trkpt>
      <trkpt lat="43.70645" lon="3.7038">
        <ele>162.95399936</ele>
        <time>2020-08-08T07:56:58.000Z</time>
      </trkpt>
      <trkpt lat="43.70646" lon="3.70379">
        <ele>162.75399936</ele>
        <time>2020-08-08T07:56:59.000Z</time>
      </trkpt>
      <trkpt lat="43.70649" lon="3.70377">
        <ele>162.35399936</ele>
        <time>2020-08-08T07:57:01.000Z</time>
      </trkpt>
      <trkpt lat="43.7065" lon="3.70377">
        <ele>161.95798578408</ele>
        <time>2020-08-08T07:57:08.000Z</time>
      </trkpt>
      <trkpt lat="43.70657" lon="3.70382">
        <ele>160.00115071111</ele>
        <time>2020-08-08T07:57:42.000Z</time>
      </trkpt>
      <trkpt lat="43.70658" lon="3.70382">
        <ele>159.9008182582</ele>
        <time>2020-08-08T07:57:43.000Z</time>
      </trkpt>
      <trkpt lat="43.7066" lon="3.70383">
        <ele>159.69631914688</ele>
        <time>2020-08-08T07:57:45.000Z</time>
      </trkpt>
      <trkpt lat="43.70663" lon="3.70385">
        <ele>159.49182003555</ele>
        <time>2020-08-08T07:57:47.000Z</time>
      </trkpt>
      <trkpt lat="43.70664" lon="3.70387">
        <ele>159.38957047988</ele>
        <time>2020-08-08T07:57:48.000Z</time>
      </trkpt>
      <trkpt lat="43.70667" lon="3.70388">
        <ele>159.28732092422</ele>
        <time>2020-08-08T07:57:49.000Z</time>
      </trkpt>
      <trkpt lat="43.70669" lon="3.70389">
        <ele>159.18507136855</ele>
        <time>2020-08-08T07:57:50.000Z</time>
      </trkpt>
      <trkpt lat="43.70671" lon="3.7039">
        <ele>159.08282181289</ele>
        <time>2020-08-08T07:57:51.000Z</time>
      </trkpt>
      <trkpt lat="43.70673" lon="3.70391">
        <ele>158.98148118114</ele>
        <time>2020-08-08T07:57:52.000Z</time>
      </trkpt>
      <trkpt lat="43.70676" lon="3.70392">
        <ele>158.884015355</ele>
        <time>2020-08-08T07:57:53.000Z</time>
      </trkpt>
      <trkpt lat="43.70678" lon="3.70392">
        <ele>158.78654952886</ele>
        <time>2020-08-08T07:57:54.000Z</time>
      </trkpt>
      <trkpt lat="43.7068" lon="3.70392">
        <ele>158.68908370272</ele>
        <time>2020-08-08T07:57:55.000Z</time>
      </trkpt>
      <trkpt lat="43.70683" lon="3.70392">
        <ele>158.59161787657</ele>
        <time>2020-08-08T07:57:56.000Z</time>
      </trkpt>
      <trkpt lat="43.70685" lon="3.7039">
        <ele>158.49415205043</ele>
        <time>2020-08-08T07:57:57.000Z</time>
      </trkpt>
      <trkpt lat="43.70687" lon="3.70388">
        <ele>158.39668622429</ele>
        <time>2020-08-08T07:57:58.000Z</time>
      </trkpt>
      <trkpt lat="43.70689" lon="3.70386">
        <ele>158.29922039815</ele>
        <time>2020-08-08T07:57:59.000Z</time>
      </trkpt>
      <trkpt lat="43.70692" lon="3.70384">
        <ele>158.20175457201</ele>
        <time>2020-08-08T07:58:00.000Z</time>
      </trkpt>
      <trkpt lat="43.70694" lon="3.70381">
        <ele>158.10428874586</ele>
        <time>2020-08-08T07:58:01.000Z</time>
      </trkpt>
      <trkpt lat="43.70696" lon="3.70379">
        <ele>158.00682291972</ele>
        <time>2020-08-08T07:58:02.000Z</time>
      </trkpt>
      <trkpt lat="43.70698" lon="3.70378">
        <ele>158.09577731405</ele>
        <time>2020-08-08T07:58:03.000Z</time>
      </trkpt>
      <trkpt lat="43.70699" lon="3.70377">
        <ele>158.19876402761</ele>
        <time>2020-08-08T07:58:04.000Z</time>
      </trkpt>
      <trkpt lat="43.70701" lon="3.70376">
        <ele>158.30175074117</ele>
        <time>2020-08-08T07:58:05.000Z</time>
      </trkpt>
      <trkpt lat="43.70704" lon="3.70373">
        <ele>158.5077241683</ele>
        <time>2020-08-08T07:58:07.000Z</time>
      </trkpt>
      <trkpt lat="43.70706" lon="3.70372">
        <ele>158.61071088186</ele>
        <time>2020-08-08T07:58:08.000Z</time>
      </trkpt>
      <trkpt lat="43.70708" lon="3.70371">
        <ele>158.71369759542</ele>
        <time>2020-08-08T07:58:09.000Z</time>
      </trkpt>
      <trkpt lat="43.7071" lon="3.7037">
        <ele>158.81668430898</ele>
        <time>2020-08-08T07:58:10.000Z</time>
      </trkpt>
      <trkpt lat="43.70712" lon="3.7037">
        <ele>158.91967102254</ele>
        <time>2020-08-08T07:58:11.000Z</time>
      </trkpt>
      <trkpt lat="43.70714" lon="3.7037">
        <ele>159.02202265561</ele>
        <time>2020-08-08T07:58:12.000Z</time>
      </trkpt>
      <trkpt lat="43.70717" lon="3.7037">
        <ele>159.22222279168</ele>
        <time>2020-08-08T07:58:14.000Z</time>
      </trkpt>
      <trkpt lat="43.70721" lon="3.7037">
        <ele>159.42242292775</ele>
        <time>2020-08-08T07:58:16.000Z</time>
      </trkpt>
      <trkpt lat="43.70724" lon="3.7037">
        <ele>159.52252299579</ele>
        <time>2020-08-08T07:58:17.000Z</time>
      </trkpt>
      <trkpt lat="43.70726" lon="3.70369">
        <ele>159.62262306382</ele>
        <time>2020-08-08T07:58:18.000Z</time>
      </trkpt>
      <trkpt lat="43.70729" lon="3.70369">
        <ele>159.72272313186</ele>
        <time>2020-08-08T07:58:19.000Z</time>
      </trkpt>
      <trkpt lat="43.70731" lon="3.70369">
        <ele>159.8228231999</ele>
        <time>2020-08-08T07:58:20.000Z</time>
      </trkpt>
      <trkpt lat="43.70732" lon="3.7037">
        <ele>159.92292326793</ele>
        <time>2020-08-08T07:58:21.000Z</time>
      </trkpt>
      <trkpt lat="43.70735" lon="3.70369">
        <ele>160.02300032</ele>
        <time>2020-08-08T07:58:22.000Z</time>
      </trkpt>
      <trkpt lat="43.70737" lon="3.70369">
        <ele>160.12300032</ele>
        <time>2020-08-08T07:58:23.000Z</time>
      </trkpt>
      <trkpt lat="43.70739" lon="3.70369">
        <ele>160.22300032</ele>
        <time>2020-08-08T07:58:24.000Z</time>
      </trkpt>
      <trkpt lat="43.70742" lon="3.70368">
        <ele>160.32300032</ele>
        <time>2020-08-08T07:58:25.000Z</time>
      </trkpt>
      <trkpt lat="43.70744" lon="3.70367">
        <ele>160.42300032</ele>
        <time>2020-08-08T07:58:26.000Z</time>
      </trkpt>
      <trkpt lat="43.70746" lon="3.70367">
        <ele>160.52300032</ele>
        <time>2020-08-08T07:58:27.000Z</time>
      </trkpt>
      <trkpt lat="43.70748" lon="3.70366">
        <ele>160.62300032</ele>
        <time>2020-08-08T07:58:28.000Z</time>
      </trkpt>
      <trkpt lat="43.7075" lon="3.70366">
        <ele>160.72300032</ele>
        <time>2020-08-08T07:58:29.000Z</time>
      </trkpt>
      <trkpt lat="43.70752" lon="3.70365">
        <ele>160.82300032</ele>
        <time>2020-08-08T07:58:30.000Z</time>
      </trkpt>
      <trkpt lat="43.70755" lon="3.70364">
        <ele>160.92300032</ele>
        <time>2020-08-08T07:58:31.000Z</time>
      </trkpt>
      <trkpt lat="43.70757" lon="3.70363">
        <ele>161</ele>
        <time>2020-08-08T07:58:32.000Z</time>
      </trkpt>
      <trkpt lat="43.70759" lon="3.70362">
        <ele>161</ele>
        <time>2020-08-08T07:58:33.000Z</time>
      </trkpt>
      <trkpt lat="43.70762" lon="3.7036">
        <ele>161</ele>
        <time>2020-08-08T07:58:34.000Z</time>
      </trkpt>
      <trkpt lat="43.70763" lon="3.70359">
        <ele>161</ele>
        <time>2020-08-08T07:58:35.000Z</time>
      </trkpt>
      <trkpt lat="43.70765" lon="3.70358">
        <ele>161</ele>
        <time>2020-08-08T07:58:36.000Z</time>
      </trkpt>
      <trkpt lat="43.70767" lon="3.70356">
        <ele>161</ele>
        <time>2020-08-08T07:58:37.000Z</time>
      </trkpt>
      <trkpt lat="43.70769" lon="3.70355">
        <ele>161</ele>
        <time>2020-08-08T07:58:38.000Z</time>
      </trkpt>
      <trkpt lat="43.70771" lon="3.70353">
        <ele>161</ele>
        <time>2020-08-08T07:58:39.000Z</time>
      </trkpt>
      <trkpt lat="43.70773" lon="3.70351">
        <ele>161</ele>
        <time>2020-08-08T07:58:40.000Z</time>
      </trkpt>
      <trkpt lat="43.70775" lon="3.70349">
        <ele>161</ele>
        <time>2020-08-08T07:58:41.000Z</time>
      </trkpt>
      <trkpt lat="43.70777" lon="3.70347">
        <ele>161.02300032</ele>
        <time>2020-08-08T07:58:42.000Z</time>
      </trkpt>
      <trkpt lat="43.70778" lon="3.70345">
        <ele>161.12300032</ele>
        <time>2020-08-08T07:58:43.000Z</time>
      </trkpt>
      <trkpt lat="43.7078" lon="3.70343">
        <ele>161.22300032</ele>
        <time>2020-08-08T07:58:44.000Z</time>
      </trkpt>
      <trkpt lat="43.70782" lon="3.70341">
        <ele>161.32300032</ele>
        <time>2020-08-08T07:58:45.000Z</time>
      </trkpt>
      <trkpt lat="43.70784" lon="3.7034">
        <ele>161.42300032</ele>
        <time>2020-08-08T07:58:46.000Z</time>
      </trkpt>
      <trkpt lat="43.70786" lon="3.70338">
        <ele>161.52300032</ele>
        <time>2020-08-08T07:58:47.000Z</time>
      </trkpt>
      <trkpt lat="43.70788" lon="3.70336">
        <ele>161.62300032</ele>
        <time>2020-08-08T07:58:48.000Z</time>
      </trkpt>
      <trkpt lat="43.70789" lon="3.70334">
        <ele>161.72300032</ele>
        <time>2020-08-08T07:58:49.000Z</time>
      </trkpt>
      <trkpt lat="43.70791" lon="3.70332">
        <ele>161.82300032</ele>
        <time>2020-08-08T07:58:50.000Z</time>
      </trkpt>
      <trkpt lat="43.70792" lon="3.7033">
        <ele>161.92300032</ele>
        <time>2020-08-08T07:58:51.000Z</time>
      </trkpt>
      <trkpt lat="43.70794" lon="3.70328">
        <ele>162.02300032</ele>
        <time>2020-08-08T07:58:52.000Z</time>
      </trkpt>
      <trkpt lat="43.70795" lon="3.70326">
        <ele>162.12300032</ele>
        <time>2020-08-08T07:58:53.000Z</time>
      </trkpt>
      <trkpt lat="43.70797" lon="3.70325">
        <ele>162.22300032</ele>
        <time>2020-08-08T07:58:54.000Z</time>
      </trkpt>
      <trkpt lat="43.70798" lon="3.70323">
        <ele>162.32300032</ele>
        <time>2020-08-08T07:58:55.000Z</time>
      </trkpt>
      <trkpt lat="43.708" lon="3.70321">
        <ele>162.42300032</ele>
        <time>2020-08-08T07:58:56.000Z</time>
      </trkpt>
      <trkpt lat="43.70802" lon="3.70319">
        <ele>162.52300032</ele>
        <time>2020-08-08T07:58:57.000Z</time>
      </trkpt>
      <trkpt lat="43.70803" lon="3.70317">
        <ele>162.62300032</ele>
        <time>2020-08-08T07:58:58.000Z</time>
      </trkpt>
      <trkpt lat="43.70805" lon="3.70315">
        <ele>162.72300032</ele>
        <time>2020-08-08T07:58:59.000Z</time>
      </trkpt>
      <trkpt lat="43.70806" lon="3.70313">
        <ele>162.82300032</ele>
        <time>2020-08-08T07:59:00.000Z</time>
      </trkpt>
      <trkpt lat="43.70808" lon="3.7031">
        <ele>162.92300032</ele>
        <time>2020-08-08T07:59:01.000Z</time>
      </trkpt>
      <trkpt lat="43.70809" lon="3.70308">
        <ele>163.02300032</ele>
        <time>2020-08-08T07:59:02.000Z</time>
      </trkpt>
      <trkpt lat="43.70809" lon="3.70305">
        <ele>163.12300032</ele>
        <time>2020-08-08T07:59:03.000Z</time>
      </trkpt>
      <trkpt lat="43.7081" lon="3.70303">
        <ele>163.22300032</ele>
        <time>2020-08-08T07:59:04.000Z</time>
      </trkpt>
      <trkpt lat="43.70811" lon="3.703">
        <ele>163.32300032</ele>
        <time>2020-08-08T07:59:05.000Z</time>
      </trkpt>
      <trkpt lat="43.70812" lon="3.70298">
        <ele>163.42300032</ele>
        <time>2020-08-08T07:59:06.000Z</time>
      </trkpt>
      <trkpt lat="43.70813" lon="3.70295">
        <ele>163.52300032</ele>
        <time>2020-08-08T07:59:07.000Z</time>
      </trkpt>
      <trkpt lat="43.70813" lon="3.70292">
        <ele>163.62300032</ele>
        <time>2020-08-08T07:59:08.000Z</time>
      </trkpt>
      <trkpt lat="43.70814" lon="3.7029">
        <ele>163.72300032</ele>
        <time>2020-08-08T07:59:09.000Z</time>
      </trkpt>
      <trkpt lat="43.70815" lon="3.70287">
        <ele>163.82300032</ele>
        <time>2020-08-08T07:59:10.000Z</time>
      </trkpt>
      <trkpt lat="43.70816" lon="3.70284">
        <ele>163.92300032</ele>
        <time>2020-08-08T07:59:11.000Z</time>
      </trkpt>
      <trkpt lat="43.70817" lon="3.70282">
        <ele>164.02295439652</ele>
        <time>2020-08-08T07:59:12.000Z</time>
      </trkpt>
      <trkpt lat="43.70818" lon="3.70279">
        <ele>164.12275473197</ele>
        <time>2020-08-08T07:59:13.000Z</time>
      </trkpt>
      <trkpt lat="43.70818" lon="3.70277">
        <ele>164.22255506743</ele>
        <time>2020-08-08T07:59:14.000Z</time>
      </trkpt>
      <trkpt lat="43.70819" lon="3.70274">
        <ele>164.32235540289</ele>
        <time>2020-08-08T07:59:15.000Z</time>
      </trkpt>
      <trkpt lat="43.70819" lon="3.70272">
        <ele>164.42215573834</ele>
        <time>2020-08-08T07:59:16.000Z</time>
      </trkpt>
      <trkpt lat="43.7082" lon="3.70269">
        <ele>164.5219560738</ele>
        <time>2020-08-08T07:59:17.000Z</time>
      </trkpt>
      <trkpt lat="43.70821" lon="3.70266">
        <ele>164.62175640926</ele>
        <time>2020-08-08T07:59:18.000Z</time>
      </trkpt>
      <trkpt lat="43.70821" lon="3.70264">
        <ele>164.72155674471</ele>
        <time>2020-08-08T07:59:19.000Z</time>
      </trkpt>
      <trkpt lat="43.70822" lon="3.70261">
        <ele>164.82135708017</ele>
        <time>2020-08-08T07:59:20.000Z</time>
      </trkpt>
      <trkpt lat="43.70823" lon="3.70258">
        <ele>164.92115741563</ele>
        <time>2020-08-08T07:59:21.000Z</time>
      </trkpt>
      <trkpt lat="43.70824" lon="3.70256">
        <ele>165</ele>
        <time>2020-08-08T07:59:22.000Z</time>
      </trkpt>
      <trkpt lat="43.70825" lon="3.70253">
        <ele>165</ele>
        <time>2020-08-08T07:59:23.000Z</time>
      </trkpt>
      <trkpt lat="43.70826" lon="3.7025">
        <ele>165</ele>
        <time>2020-08-08T07:59:24.000Z</time>
      </trkpt>
      <trkpt lat="43.70827" lon="3.70247">
        <ele>165</ele>
        <time>2020-08-08T07:59:25.000Z</time>
      </trkpt>
      <trkpt lat="43.70828" lon="3.70245">
        <ele>165</ele>
        <time>2020-08-08T07:59:26.000Z</time>
      </trkpt>
      <trkpt lat="43.70828" lon="3.70242">
        <ele>165</ele>
        <time>2020-08-08T07:59:27.000Z</time>
      </trkpt>
      <trkpt lat="43.70829" lon="3.70239">
        <ele>165</ele>
        <time>2020-08-08T07:59:28.000Z</time>
      </trkpt>
      <trkpt lat="43.70829" lon="3.70236">
        <ele>165</ele>
        <time>2020-08-08T07:59:29.000Z</time>
      </trkpt>
      <trkpt lat="43.70829" lon="3.70233">
        <ele>165</ele>
        <time>2020-08-08T07:59:30.000Z</time>
      </trkpt>
      <trkpt lat="43.7083" lon="3.7023">
        <ele>165</ele>
        <time>2020-08-08T07:59:31.000Z</time>
      </trkpt>
      <trkpt lat="43.7083" lon="3.70227">
        <ele>165.01907662651</ele>
        <time>2020-08-08T07:59:32.000Z</time>
      </trkpt>
      <trkpt lat="43.70831" lon="3.70224">
        <ele>165.11947823293</ele>
        <time>2020-08-08T07:59:33.000Z</time>
      </trkpt>
      <trkpt lat="43.70831" lon="3.7022">
        <ele>165.21987983936</ele>
        <time>2020-08-08T07:59:34.000Z</time>
      </trkpt>
      <trkpt lat="43.70831" lon="3.70217">
        <ele>165.32028144578</ele>
        <time>2020-08-08T07:59:35.000Z</time>
      </trkpt>
      <trkpt lat="43.70831" lon="3.70214">
        <ele>165.42068305221</ele>
        <time>2020-08-08T07:59:36.000Z</time>
      </trkpt>
      <trkpt lat="43.70831" lon="3.70211">
        <ele>165.52108465864</ele>
        <time>2020-08-08T07:59:37.000Z</time>
      </trkpt>
      <trkpt lat="43.70832" lon="3.70207">
        <ele>165.62148626506</ele>
        <time>2020-08-08T07:59:38.000Z</time>
      </trkpt>
      <trkpt lat="43.70832" lon="3.70204">
        <ele>165.72188787149</ele>
        <time>2020-08-08T07:59:39.000Z</time>
      </trkpt>
      <trkpt lat="43.70833" lon="3.70202">
        <ele>165.82228947791</ele>
        <time>2020-08-08T07:59:40.000Z</time>
      </trkpt>
      <trkpt lat="43.70833" lon="3.70199">
        <ele>165.92269108434</ele>
        <time>2020-08-08T07:59:41.000Z</time>
      </trkpt>
      <trkpt lat="43.70833" lon="3.70196">
        <ele>166.02300032</ele>
        <time>2020-08-08T07:59:42.000Z</time>
      </trkpt>
      <trkpt lat="43.70834" lon="3.70193">
        <ele>166.12300032</ele>
        <time>2020-08-08T07:59:43.000Z</time>
      </trkpt>
      <trkpt lat="43.70834" lon="3.7019">
        <ele>166.22300032</ele>
        <time>2020-08-08T07:59:44.000Z</time>
      </trkpt>
      <trkpt lat="43.70835" lon="3.70188">
        <ele>166.32300032</ele>
        <time>2020-08-08T07:59:45.000Z</time>
      </trkpt>
      <trkpt lat="43.70836" lon="3.70185">
        <ele>166.42300032</ele>
        <time>2020-08-08T07:59:46.000Z</time>
      </trkpt>
      <trkpt lat="43.70836" lon="3.70182">
        <ele>166.52300032</ele>
        <time>2020-08-08T07:59:47.000Z</time>
      </trkpt>
      <trkpt lat="43.70837" lon="3.7018">
        <ele>166.62300032</ele>
        <time>2020-08-08T07:59:48.000Z</time>
      </trkpt>
      <trkpt lat="43.70838" lon="3.70177">
        <ele>166.72300032</ele>
        <time>2020-08-08T07:59:49.000Z</time>
      </trkpt>
      <trkpt lat="43.70839" lon="3.70175">
        <ele>166.82300032</ele>
        <time>2020-08-08T07:59:50.000Z</time>
      </trkpt>
      <trkpt lat="43.70839" lon="3.70172">
        <ele>166.92300032</ele>
        <time>2020-08-08T07:59:51.000Z</time>
      </trkpt>
      <trkpt lat="43.7084" lon="3.70169">
        <ele>167</ele>
        <time>2020-08-08T07:59:52.000Z</time>
      </trkpt>
      <trkpt lat="43.70841" lon="3.70167">
        <ele>167</ele>
        <time>2020-08-08T07:59:53.000Z</time>
      </trkpt>
      <trkpt lat="43.70842" lon="3.70164">
        <ele>167</ele>
        <time>2020-08-08T07:59:54.000Z</time>
      </trkpt>
      <trkpt lat="43.70842" lon="3.70161">
        <ele>167</ele>
        <time>2020-08-08T07:59:55.000Z</time>
      </trkpt>
      <trkpt lat="43.70842" lon="3.70159">
        <ele>167</ele>
        <time>2020-08-08T07:59:56.000Z</time>
      </trkpt>
      <trkpt lat="43.70843" lon="3.70156">
        <ele>167</ele>
        <time>2020-08-08T07:59:57.000Z</time>
      </trkpt>
      <trkpt lat="43.70843" lon="3.70153">
        <ele>167</ele>
        <time>2020-08-08T07:59:58.000Z</time>
      </trkpt>
      <trkpt lat="43.70844" lon="3.7015">
        <ele>167</ele>
        <time>2020-08-08T07:59:59.000Z</time>
      </trkpt>
      <trkpt lat="43.70844" lon="3.70148">
        <ele>167</ele>
        <time>2020-08-08T08:00:00.000Z</time>
      </trkpt>
      <trkpt lat="43.70845" lon="3.70145">
        <ele>167</ele>
        <time>2020-08-08T08:00:01.000Z</time>
      </trkpt>
      <trkpt lat="43.70845" lon="3.7014">
        <ele>167</ele>
        <time>2020-08-08T08:00:03.000Z</time>
      </trkpt>
      <trkpt lat="43.70846" lon="3.70137">
        <ele>167</ele>
        <time>2020-08-08T08:00:05.000Z</time>
      </trkpt>
      <trkpt lat="43.70846" lon="3.70136">
        <ele>167</ele>
        <time>2020-08-08T08:00:11.000Z</time>
      </trkpt>
      <trkpt lat="43.70846" lon="3.7013">
        <ele>166.01288687285</ele>
        <time>2020-08-08T08:00:34.000Z</time>
      </trkpt>
      <trkpt lat="43.70846" lon="3.70127">
        <ele>166</ele>
        <time>2020-08-08T08:00:35.000Z</time>
      </trkpt>
      <trkpt lat="43.70846" lon="3.70124">
        <ele>166</ele>
        <time>2020-08-08T08:00:36.000Z</time>
      </trkpt>
      <trkpt lat="43.70846" lon="3.70122">
        <ele>166</ele>
        <time>2020-08-08T08:00:37.000Z</time>
      </trkpt>
      <trkpt lat="43.70846" lon="3.70119">
        <ele>166</ele>
        <time>2020-08-08T08:00:38.000Z</time>
      </trkpt>
      <trkpt lat="43.70845" lon="3.70116">
        <ele>166</ele>
        <time>2020-08-08T08:00:39.000Z</time>
      </trkpt>
      <trkpt lat="43.70845" lon="3.70113">
        <ele>166</ele>
        <time>2020-08-08T08:00:40.000Z</time>
      </trkpt>
      <trkpt lat="43.70845" lon="3.70111">
        <ele>166</ele>
        <time>2020-08-08T08:00:41.000Z</time>
      </trkpt>
      <trkpt lat="43.70844" lon="3.70108">
        <ele>166</ele>
        <time>2020-08-08T08:00:42.000Z</time>
      </trkpt>
      <trkpt lat="43.70844" lon="3.70105">
        <ele>166</ele>
        <time>2020-08-08T08:00:43.000Z</time>
      </trkpt>
      <trkpt lat="43.70844" lon="3.70102">
        <ele>166</ele>
        <time>2020-08-08T08:00:44.000Z</time>
      </trkpt>
      <trkpt lat="43.70843" lon="3.70099">
        <ele>166.09218430962</ele>
        <time>2020-08-08T08:00:45.000Z</time>
      </trkpt>
      <trkpt lat="43.70843" lon="3.70095">
        <ele>166.19238464617</ele>
        <time>2020-08-08T08:00:46.000Z</time>
      </trkpt>
      <trkpt lat="43.70842" lon="3.70092">
        <ele>166.29258498271</ele>
        <time>2020-08-08T08:00:47.000Z</time>
      </trkpt>
      <trkpt lat="43.70841" lon="3.70089">
        <ele>166.39278531926</ele>
        <time>2020-08-08T08:00:48.000Z</time>
      </trkpt>
      <trkpt lat="43.70841" lon="3.70086">
        <ele>166.4929856558</ele>
        <time>2020-08-08T08:00:49.000Z</time>
      </trkpt>
      <trkpt lat="43.7084" lon="3.70083">
        <ele>166.59318599235</ele>
        <time>2020-08-08T08:00:50.000Z</time>
      </trkpt>
      <trkpt lat="43.7084" lon="3.7008">
        <ele>166.69338632889</ele>
        <time>2020-08-08T08:00:51.000Z</time>
      </trkpt>
      <trkpt lat="43.70839" lon="3.70077">
        <ele>166.79358666543</ele>
        <time>2020-08-08T08:00:52.000Z</time>
      </trkpt>
      <trkpt lat="43.70838" lon="3.70074">
        <ele>166.89378700198</ele>
        <time>2020-08-08T08:00:53.000Z</time>
      </trkpt>
      <trkpt lat="43.70838" lon="3.70072">
        <ele>166.99398733852</ele>
        <time>2020-08-08T08:00:54.000Z</time>
      </trkpt>
      <trkpt lat="43.70837" lon="3.70069">
        <ele>167.09640969493</ele>
        <time>2020-08-08T08:00:55.000Z</time>
      </trkpt>
      <trkpt lat="43.70836" lon="3.70066">
        <ele>167.19897389848</ele>
        <time>2020-08-08T08:00:56.000Z</time>
      </trkpt>
      <trkpt lat="43.70835" lon="3.70063">
        <ele>167.30153810203</ele>
        <time>2020-08-08T08:00:57.000Z</time>
      </trkpt>
      <trkpt lat="43.70834" lon="3.7006">
        <ele>167.40410230558</ele>
        <time>2020-08-08T08:00:58.000Z</time>
      </trkpt>
      <trkpt lat="43.70832" lon="3.70057">
        <ele>167.50666650913</ele>
        <time>2020-08-08T08:00:59.000Z</time>
      </trkpt>
      <trkpt lat="43.70831" lon="3.70054">
        <ele>167.60923071268</ele>
        <time>2020-08-08T08:01:00.000Z</time>
      </trkpt>
      <trkpt lat="43.7083" lon="3.70052">
        <ele>167.71179491623</ele>
        <time>2020-08-08T08:01:01.000Z</time>
      </trkpt>
      <trkpt lat="43.70828" lon="3.7005">
        <ele>167.81435911978</ele>
        <time>2020-08-08T08:01:02.000Z</time>
      </trkpt>
      <trkpt lat="43.70827" lon="3.70047">
        <ele>167.91692332333</ele>
        <time>2020-08-08T08:01:03.000Z</time>
      </trkpt>
      <trkpt lat="43.70825" lon="3.70045">
        <ele>168.01907662651</ele>
        <time>2020-08-08T08:01:04.000Z</time>
      </trkpt>
      <trkpt lat="43.70824" lon="3.70043">
        <ele>168.11947823293</ele>
        <time>2020-08-08T08:01:05.000Z</time>
      </trkpt>
      <trkpt lat="43.70822" lon="3.70042">
        <ele>168.21987983936</ele>
        <time>2020-08-08T08:01:06.000Z</time>
      </trkpt>
      <trkpt lat="43.7082" lon="3.7004">
        <ele>168.32028144578</ele>
        <time>2020-08-08T08:01:07.000Z</time>
      </trkpt>
      <trkpt lat="43.70818" lon="3.70038">
        <ele>168.42068305221</ele>
        <time>2020-08-08T08:01:08.000Z</time>
      </trkpt>
      <trkpt lat="43.70817" lon="3.70036">
        <ele>168.52108465864</ele>
        <time>2020-08-08T08:01:09.000Z</time>
      </trkpt>
      <trkpt lat="43.70815" lon="3.70035">
        <ele>168.62148626506</ele>
        <time>2020-08-08T08:01:10.000Z</time>
      </trkpt>
      <trkpt lat="43.70813" lon="3.70033">
        <ele>168.72188787149</ele>
        <time>2020-08-08T08:01:11.000Z</time>
      </trkpt>
      <trkpt lat="43.70811" lon="3.70032">
        <ele>168.82228947791</ele>
        <time>2020-08-08T08:01:12.000Z</time>
      </trkpt>
      <trkpt lat="43.70808" lon="3.7003">
        <ele>168.92269108434</ele>
        <time>2020-08-08T08:01:13.000Z</time>
      </trkpt>
      <trkpt lat="43.70806" lon="3.70029">
        <ele>169.02297735</ele>
        <time>2020-08-08T08:01:14.000Z</time>
      </trkpt>
      <trkpt lat="43.70804" lon="3.70028">
        <ele>169.12287748184</ele>
        <time>2020-08-08T08:01:15.000Z</time>
      </trkpt>
      <trkpt lat="43.70801" lon="3.70027">
        <ele>169.22277761367</ele>
        <time>2020-08-08T08:01:16.000Z</time>
      </trkpt>
      <trkpt lat="43.70798" lon="3.70027">
        <ele>169.32267774551</ele>
        <time>2020-08-08T08:01:17.000Z</time>
      </trkpt>
      <trkpt lat="43.70795" lon="3.70026">
        <ele>169.42257787735</ele>
        <time>2020-08-08T08:01:18.000Z</time>
      </trkpt>
      <trkpt lat="43.70793" lon="3.70026">
        <ele>169.52247800918</ele>
        <time>2020-08-08T08:01:19.000Z</time>
      </trkpt>
      <trkpt lat="43.7079" lon="3.70026">
        <ele>169.62237814102</ele>
        <time>2020-08-08T08:01:20.000Z</time>
      </trkpt>
      <trkpt lat="43.70788" lon="3.70026">
        <ele>169.72227827286</ele>
        <time>2020-08-08T08:01:21.000Z</time>
      </trkpt>
      <trkpt lat="43.70785" lon="3.70026">
        <ele>169.82217840469</ele>
        <time>2020-08-08T08:01:22.000Z</time>
      </trkpt>
      <trkpt lat="43.70782" lon="3.70026">
        <ele>169.92207853653</ele>
        <time>2020-08-08T08:01:23.000Z</time>
      </trkpt>
      <trkpt lat="43.7078" lon="3.70027">
        <ele>170.02202265561</ele>
        <time>2020-08-08T08:01:24.000Z</time>
      </trkpt>
      <trkpt lat="43.70777" lon="3.70028">
        <ele>170.12212272364</ele>
        <time>2020-08-08T08:01:25.000Z</time>
      </trkpt>
      <trkpt lat="43.70774" lon="3.70029">
        <ele>170.22222279168</ele>
        <time>2020-08-08T08:01:26.000Z</time>
      </trkpt>
      <trkpt lat="43.70772" lon="3.70029">
        <ele>170.32232285972</ele>
        <time>2020-08-08T08:01:27.000Z</time>
      </trkpt>
      <trkpt lat="43.7077" lon="3.7003">
        <ele>170.42242292775</ele>
        <time>2020-08-08T08:01:28.000Z</time>
      </trkpt>
      <trkpt lat="43.70767" lon="3.7003">
        <ele>170.52252299579</ele>
        <time>2020-08-08T08:01:29.000Z</time>
      </trkpt>
      <trkpt lat="43.70765" lon="3.70031">
        <ele>170.62262306382</ele>
        <time>2020-08-08T08:01:30.000Z</time>
      </trkpt>
      <trkpt lat="43.70762" lon="3.70032">
        <ele>170.72272313186</ele>
        <time>2020-08-08T08:01:31.000Z</time>
      </trkpt>
      <trkpt lat="43.70759" lon="3.70032">
        <ele>170.8228231999</ele>
        <time>2020-08-08T08:01:32.000Z</time>
      </trkpt>
      <trkpt lat="43.70756" lon="3.70032">
        <ele>170.92292326793</ele>
        <time>2020-08-08T08:01:33.000Z</time>
      </trkpt>
      <trkpt lat="43.70753" lon="3.70032">
        <ele>171.02237385214</ele>
        <time>2020-08-08T08:01:34.000Z</time>
      </trkpt>
      <trkpt lat="43.70751" lon="3.70032">
        <ele>171.11965011673</ele>
        <time>2020-08-08T08:01:35.000Z</time>
      </trkpt>
      <trkpt lat="43.70748" lon="3.70033">
        <ele>171.21692638132</ele>
        <time>2020-08-08T08:01:36.000Z</time>
      </trkpt>
      <trkpt lat="43.70745" lon="3.70033">
        <ele>171.31420264591</ele>
        <time>2020-08-08T08:01:37.000Z</time>
      </trkpt>
      <trkpt lat="43.70742" lon="3.70032">
        <ele>171.41147891051</ele>
        <time>2020-08-08T08:01:38.000Z</time>
      </trkpt>
      <trkpt lat="43.7074" lon="3.70032">
        <ele>171.5087551751</ele>
        <time>2020-08-08T08:01:39.000Z</time>
      </trkpt>
      <trkpt lat="43.70737" lon="3.70031">
        <ele>171.60603143969</ele>
        <time>2020-08-08T08:01:40.000Z</time>
      </trkpt>
      <trkpt lat="43.70735" lon="3.70029">
        <ele>171.70330770428</ele>
        <time>2020-08-08T08:01:41.000Z</time>
      </trkpt>
      <trkpt lat="43.70733" lon="3.70027">
        <ele>171.80058396887</ele>
        <time>2020-08-08T08:01:42.000Z</time>
      </trkpt>
      <trkpt lat="43.70731" lon="3.70024">
        <ele>171.89786023346</ele>
        <time>2020-08-08T08:01:43.000Z</time>
      </trkpt>
      <trkpt lat="43.70729" lon="3.70022">
        <ele>171.99513649805</ele>
        <time>2020-08-08T08:01:44.000Z</time>
      </trkpt>
      <trkpt lat="43.70727" lon="3.70018">
        <ele>172.09471614127</ele>
        <time>2020-08-08T08:01:45.000Z</time>
      </trkpt>
      <trkpt lat="43.70725" lon="3.70015">
        <ele>172.19441700677</ele>
        <time>2020-08-08T08:01:46.000Z</time>
      </trkpt>
      <trkpt lat="43.70724" lon="3.70011">
        <ele>172.29411787226</ele>
        <time>2020-08-08T08:01:47.000Z</time>
      </trkpt>
      <trkpt lat="43.70722" lon="3.70008">
        <ele>172.39381873777</ele>
        <time>2020-08-08T08:01:48.000Z</time>
      </trkpt>
      <trkpt lat="43.70721" lon="3.70004">
        <ele>172.49351960326</ele>
        <time>2020-08-08T08:01:49.000Z</time>
      </trkpt>
      <trkpt lat="43.7072" lon="3.7">
        <ele>172.59322046876</ele>
        <time>2020-08-08T08:01:50.000Z</time>
      </trkpt>
      <trkpt lat="43.70719" lon="3.69997">
        <ele>172.69292133426</ele>
        <time>2020-08-08T08:01:51.000Z</time>
      </trkpt>
      <trkpt lat="43.70718" lon="3.69993">
        <ele>172.79262219976</ele>
        <time>2020-08-08T08:01:52.000Z</time>
      </trkpt>
      <trkpt lat="43.70716" lon="3.6999">
        <ele>172.89232306526</ele>
        <time>2020-08-08T08:01:53.000Z</time>
      </trkpt>
      <trkpt lat="43.70715" lon="3.69986">
        <ele>172.99202393076</ele>
        <time>2020-08-08T08:01:54.000Z</time>
      </trkpt>
      <trkpt lat="43.70714" lon="3.69982">
        <ele>173.09494327181</ele>
        <time>2020-08-08T08:01:55.000Z</time>
      </trkpt>
      <trkpt lat="43.70714" lon="3.69978">
        <ele>173.19814248029</ele>
        <time>2020-08-08T08:01:56.000Z</time>
      </trkpt>
      <trkpt lat="43.70713" lon="3.69975">
        <ele>173.30134168878</ele>
        <time>2020-08-08T08:01:57.000Z</time>
      </trkpt>
      <trkpt lat="43.70712" lon="3.69971">
        <ele>173.40454089727</ele>
        <time>2020-08-08T08:01:58.000Z</time>
      </trkpt>
      <trkpt lat="43.70712" lon="3.69967">
        <ele>173.50774010576</ele>
        <time>2020-08-08T08:01:59.000Z</time>
      </trkpt>
      <trkpt lat="43.70711" lon="3.69963">
        <ele>173.61093931424</ele>
        <time>2020-08-08T08:02:00.000Z</time>
      </trkpt>
      <trkpt lat="43.70711" lon="3.69959">
        <ele>173.71413852273</ele>
        <time>2020-08-08T08:02:01.000Z</time>
      </trkpt>
      <trkpt lat="43.70711" lon="3.69956">
        <ele>173.81733773122</ele>
        <time>2020-08-08T08:02:02.000Z</time>
      </trkpt>
      <trkpt lat="43.7071" lon="3.69952">
        <ele>173.9205369397</ele>
        <time>2020-08-08T08:02:03.000Z</time>
      </trkpt>
      <trkpt lat="43.70709" lon="3.69948">
        <ele>174.02300032</ele>
        <time>2020-08-08T08:02:04.000Z</time>
      </trkpt>
      <trkpt lat="43.70709" lon="3.69943">
        <ele>174.12300032</ele>
        <time>2020-08-08T08:02:05.000Z</time>
      </trkpt>
      <trkpt lat="43.70708" lon="3.69939">
        <ele>174.22300032</ele>
        <time>2020-08-08T08:02:06.000Z</time>
      </trkpt>
      <trkpt lat="43.70707" lon="3.69936">
        <ele>174.32300032</ele>
        <time>2020-08-08T08:02:07.000Z</time>
      </trkpt>
      <trkpt lat="43.70706" lon="3.69932">
        <ele>174.42300032</ele>
        <time>2020-08-08T08:02:08.000Z</time>
      </trkpt>
      <trkpt lat="43.70705" lon="3.69928">
        <ele>174.52300032</ele>
        <time>2020-08-08T08:02:09.000Z</time>
      </trkpt>
      <trkpt lat="43.70703" lon="3.69924">
        <ele>174.62300032</ele>
        <time>2020-08-08T08:02:10.000Z</time>
      </trkpt>
      <trkpt lat="43.70702" lon="3.69921">
        <ele>174.72300032</ele>
        <time>2020-08-08T08:02:11.000Z</time>
      </trkpt>
      <trkpt lat="43.707" lon="3.69917">
        <ele>174.82300032</ele>
        <time>2020-08-08T08:02:12.000Z</time>
      </trkpt>
      <trkpt lat="43.70699" lon="3.69914">
        <ele>174.92300032</ele>
        <time>2020-08-08T08:02:13.000Z</time>
      </trkpt>
      <trkpt lat="43.70698" lon="3.69911">
        <ele>175</ele>
        <time>2020-08-08T08:02:14.000Z</time>
      </trkpt>
      <trkpt lat="43.70697" lon="3.69908">
        <ele>175</ele>
        <time>2020-08-08T08:02:15.000Z</time>
      </trkpt>
      <trkpt lat="43.70695" lon="3.69905">
        <ele>175</ele>
        <time>2020-08-08T08:02:16.000Z</time>
      </trkpt>
      <trkpt lat="43.70694" lon="3.69902">
        <ele>175</ele>
        <time>2020-08-08T08:02:17.000Z</time>
      </trkpt>
      <trkpt lat="43.70694" lon="3.69898">
        <ele>175</ele>
        <time>2020-08-08T08:02:18.000Z</time>
      </trkpt>
      <trkpt lat="43.70694" lon="3.69895">
        <ele>175</ele>
        <time>2020-08-08T08:02:19.000Z</time>
      </trkpt>
      <trkpt lat="43.70694" lon="3.69892">
        <ele>175</ele>
        <time>2020-08-08T08:02:20.000Z</time>
      </trkpt>
      <trkpt lat="43.70694" lon="3.69888">
        <ele>175</ele>
        <time>2020-08-08T08:02:21.000Z</time>
      </trkpt>
      <trkpt lat="43.70694" lon="3.69884">
        <ele>175</ele>
        <time>2020-08-08T08:02:22.000Z</time>
      </trkpt>
      <trkpt lat="43.70694" lon="3.6988">
        <ele>175</ele>
        <time>2020-08-08T08:02:23.000Z</time>
      </trkpt>
      <trkpt lat="43.70694" lon="3.69876">
        <ele>174.99492932734</ele>
        <time>2020-08-08T08:02:24.000Z</time>
      </trkpt>
      <trkpt lat="43.70694" lon="3.69872">
        <ele>174.89350938321</ele>
        <time>2020-08-08T08:02:25.000Z</time>
      </trkpt>
      <trkpt lat="43.70693" lon="3.69869">
        <ele>174.79208943908</ele>
        <time>2020-08-08T08:02:26.000Z</time>
      </trkpt>
      <trkpt lat="43.70693" lon="3.69865">
        <ele>174.69066949496</ele>
        <time>2020-08-08T08:02:27.000Z</time>
      </trkpt>
      <trkpt lat="43.70693" lon="3.69862">
        <ele>174.58924955083</ele>
        <time>2020-08-08T08:02:28.000Z</time>
      </trkpt>
      <trkpt lat="43.70693" lon="3.69858">
        <ele>174.4878296067</ele>
        <time>2020-08-08T08:02:29.000Z</time>
      </trkpt>
      <trkpt lat="43.70694" lon="3.69854">
        <ele>174.38640966258</ele>
        <time>2020-08-08T08:02:30.000Z</time>
      </trkpt>
      <trkpt lat="43.70694" lon="3.69851">
        <ele>174.28498971845</ele>
        <time>2020-08-08T08:02:31.000Z</time>
      </trkpt>
      <trkpt lat="43.70695" lon="3.69847">
        <ele>174.18356977433</ele>
        <time>2020-08-08T08:02:32.000Z</time>
      </trkpt>
      <trkpt lat="43.70695" lon="3.69843">
        <ele>174.0821498302</ele>
        <time>2020-08-08T08:02:33.000Z</time>
      </trkpt>
      <trkpt lat="43.70696" lon="3.69839">
        <ele>174.01907662651</ele>
        <time>2020-08-08T08:02:34.000Z</time>
      </trkpt>
      <trkpt lat="43.70697" lon="3.69835">
        <ele>174.11947823293</ele>
        <time>2020-08-08T08:02:35.000Z</time>
      </trkpt>
      <trkpt lat="43.70698" lon="3.69831">
        <ele>174.21987983936</ele>
        <time>2020-08-08T08:02:36.000Z</time>
      </trkpt>
      <trkpt lat="43.70699" lon="3.69828">
        <ele>174.32028144578</ele>
        <time>2020-08-08T08:02:37.000Z</time>
      </trkpt>
      <trkpt lat="43.707" lon="3.69824">
        <ele>174.42068305221</ele>
        <time>2020-08-08T08:02:38.000Z</time>
      </trkpt>
      <trkpt lat="43.70701" lon="3.69821">
        <ele>174.52108465864</ele>
        <time>2020-08-08T08:02:39.000Z</time>
      </trkpt>
      <trkpt lat="43.70702" lon="3.69818">
        <ele>174.62148626506</ele>
        <time>2020-08-08T08:02:40.000Z</time>
      </trkpt>
      <trkpt lat="43.70703" lon="3.69815">
        <ele>174.72188787149</ele>
        <time>2020-08-08T08:02:41.000Z</time>
      </trkpt>
      <trkpt lat="43.70705" lon="3.69812">
        <ele>174.82228947791</ele>
        <time>2020-08-08T08:02:42.000Z</time>
      </trkpt>
      <trkpt lat="43.70706" lon="3.6981">
        <ele>174.92269108434</ele>
        <time>2020-08-08T08:02:43.000Z</time>
      </trkpt>
      <trkpt lat="43.70707" lon="3.69807">
        <ele>175.05000069565</ele>
        <time>2020-08-08T08:02:44.000Z</time>
      </trkpt>
      <trkpt lat="43.70709" lon="3.69804">
        <ele>175.267392</ele>
        <time>2020-08-08T08:02:45.000Z</time>
      </trkpt>
      <trkpt lat="43.7071" lon="3.69802">
        <ele>175.48478330435</ele>
        <time>2020-08-08T08:02:46.000Z</time>
      </trkpt>
      <trkpt lat="43.70711" lon="3.69799">
        <ele>175.91956591304</ele>
        <time>2020-08-08T08:02:48.000Z</time>
      </trkpt>
      <trkpt lat="43.70712" lon="3.69798">
        <ele>177</ele>
        <time>2020-08-08T08:02:53.000Z</time>
      </trkpt>
      <trkpt lat="43.70716" lon="3.69792">
        <ele>177</ele>
        <time>2020-08-08T08:03:08.000Z</time>
      </trkpt>
      <trkpt lat="43.70716" lon="3.69792">
        <ele>178</ele>
        <time>2020-08-08T08:03:13.000Z</time>
      </trkpt>
      <trkpt lat="43.70721" lon="3.69788">
        <ele>178</ele>
        <time>2020-08-08T08:03:22.000Z</time>
      </trkpt>
      <trkpt lat="43.70722" lon="3.69787">
        <ele>178</ele>
        <time>2020-08-08T08:03:23.000Z</time>
      </trkpt>
      <trkpt lat="43.70724" lon="3.69785">
        <ele>178</ele>
        <time>2020-08-08T08:03:24.000Z</time>
      </trkpt>
      <trkpt lat="43.70726" lon="3.69783">
        <ele>178</ele>
        <time>2020-08-08T08:03:25.000Z</time>
      </trkpt>
      <trkpt lat="43.70728" lon="3.6978">
        <ele>178</ele>
        <time>2020-08-08T08:03:26.000Z</time>
      </trkpt>
      <trkpt lat="43.70729" lon="3.69778">
        <ele>178</ele>
        <time>2020-08-08T08:03:27.000Z</time>
      </trkpt>
      <trkpt lat="43.70731" lon="3.69776">
        <ele>178</ele>
        <time>2020-08-08T08:03:28.000Z</time>
      </trkpt>
      <trkpt lat="43.70733" lon="3.69774">
        <ele>178</ele>
        <time>2020-08-08T08:03:29.000Z</time>
      </trkpt>
      <trkpt lat="43.70735" lon="3.69772">
        <ele>178</ele>
        <time>2020-08-08T08:03:30.000Z</time>
      </trkpt>
      <trkpt lat="43.70737" lon="3.6977">
        <ele>178</ele>
        <time>2020-08-08T08:03:31.000Z</time>
      </trkpt>
      <trkpt lat="43.7074" lon="3.69768">
        <ele>178.00396432237</ele>
        <time>2020-08-08T08:03:32.000Z</time>
      </trkpt>
      <trkpt lat="43.70742" lon="3.69766">
        <ele>178.10307238155</ele>
        <time>2020-08-08T08:03:33.000Z</time>
      </trkpt>
      <trkpt lat="43.70744" lon="3.69764">
        <ele>178.20218044073</ele>
        <time>2020-08-08T08:03:34.000Z</time>
      </trkpt>
      <trkpt lat="43.70746" lon="3.69761">
        <ele>178.30128849991</ele>
        <time>2020-08-08T08:03:35.000Z</time>
      </trkpt>
      <trkpt lat="43.70748" lon="3.69757">
        <ele>178.40039655909</ele>
        <time>2020-08-08T08:03:36.000Z</time>
      </trkpt>
      <trkpt lat="43.7075" lon="3.69754">
        <ele>178.49950461828</ele>
        <time>2020-08-08T08:03:37.000Z</time>
      </trkpt>
      <trkpt lat="43.70752" lon="3.69751">
        <ele>178.59861267746</ele>
        <time>2020-08-08T08:03:38.000Z</time>
      </trkpt>
      <trkpt lat="43.70754" lon="3.69748">
        <ele>178.69772073664</ele>
        <time>2020-08-08T08:03:39.000Z</time>
      </trkpt>
      <trkpt lat="43.70756" lon="3.69745">
        <ele>178.79682879582</ele>
        <time>2020-08-08T08:03:40.000Z</time>
      </trkpt>
      <trkpt lat="43.70758" lon="3.69742">
        <ele>178.89593685501</ele>
        <time>2020-08-08T08:03:41.000Z</time>
      </trkpt>
      <trkpt lat="43.7076" lon="3.69739">
        <ele>178.99504491419</ele>
        <time>2020-08-08T08:03:42.000Z</time>
      </trkpt>
      <trkpt lat="43.70762" lon="3.69736">
        <ele>179</ele>
        <time>2020-08-08T08:03:43.000Z</time>
      </trkpt>
      <trkpt lat="43.70764" lon="3.69733">
        <ele>179</ele>
        <time>2020-08-08T08:03:44.000Z</time>
      </trkpt>
      <trkpt lat="43.70765" lon="3.6973">
        <ele>179</ele>
        <time>2020-08-08T08:03:45.000Z</time>
      </trkpt>
      <trkpt lat="43.70767" lon="3.69727">
        <ele>179</ele>
        <time>2020-08-08T08:03:46.000Z</time>
      </trkpt>
      <trkpt lat="43.70769" lon="3.69724">
        <ele>179</ele>
        <time>2020-08-08T08:03:47.000Z</time>
      </trkpt>
      <trkpt lat="43.70769" lon="3.6972">
        <ele>179</ele>
        <time>2020-08-08T08:03:48.000Z</time>
      </trkpt>
      <trkpt lat="43.7077" lon="3.69716">
        <ele>179</ele>
        <time>2020-08-08T08:03:49.000Z</time>
      </trkpt>
      <trkpt lat="43.7077" lon="3.69713">
        <ele>179</ele>
        <time>2020-08-08T08:03:50.000Z</time>
      </trkpt>
      <trkpt lat="43.70771" lon="3.6971">
        <ele>179</ele>
        <time>2020-08-08T08:03:51.000Z</time>
      </trkpt>
      <trkpt lat="43.70772" lon="3.69706">
        <ele>179.02300032</ele>
        <time>2020-08-08T08:03:52.000Z</time>
      </trkpt>
      <trkpt lat="43.70774" lon="3.69703">
        <ele>179.12300032</ele>
        <time>2020-08-08T08:03:53.000Z</time>
      </trkpt>
      <trkpt lat="43.70775" lon="3.69699">
        <ele>179.22300032</ele>
        <time>2020-08-08T08:03:54.000Z</time>
      </trkpt>
      <trkpt lat="43.70777" lon="3.69696">
        <ele>179.32300032</ele>
        <time>2020-08-08T08:03:55.000Z</time>
      </trkpt>
      <trkpt lat="43.70778" lon="3.69692">
        <ele>179.42300032</ele>
        <time>2020-08-08T08:03:56.000Z</time>
      </trkpt>
      <trkpt lat="43.70779" lon="3.69689">
        <ele>179.52300032</ele>
        <time>2020-08-08T08:03:57.000Z</time>
      </trkpt>
      <trkpt lat="43.7078" lon="3.69685">
        <ele>179.62300032</ele>
        <time>2020-08-08T08:03:58.000Z</time>
      </trkpt>
      <trkpt lat="43.7078" lon="3.69681">
        <ele>179.72300032</ele>
        <time>2020-08-08T08:03:59.000Z</time>
      </trkpt>
      <trkpt lat="43.70781" lon="3.69677">
        <ele>179.82300032</ele>
        <time>2020-08-08T08:04:00.000Z</time>
      </trkpt>
      <trkpt lat="43.70782" lon="3.69674">
        <ele>179.92300032</ele>
        <time>2020-08-08T08:04:01.000Z</time>
      </trkpt>
      <trkpt lat="43.70783" lon="3.6967">
        <ele>180.02300032</ele>
        <time>2020-08-08T08:04:02.000Z</time>
      </trkpt>
      <trkpt lat="43.70784" lon="3.69666">
        <ele>180.12300032</ele>
        <time>2020-08-08T08:04:03.000Z</time>
      </trkpt>
      <trkpt lat="43.70785" lon="3.69662">
        <ele>180.22300032</ele>
        <time>2020-08-08T08:04:04.000Z</time>
      </trkpt>
      <trkpt lat="43.70785" lon="3.69658">
        <ele>180.32300032</ele>
        <time>2020-08-08T08:04:05.000Z</time>
      </trkpt>
      <trkpt lat="43.70785" lon="3.69654">
        <ele>180.42300032</ele>
        <time>2020-08-08T08:04:06.000Z</time>
      </trkpt>
      <trkpt lat="43.70785" lon="3.6965">
        <ele>180.52300032</ele>
        <time>2020-08-08T08:04:07.000Z</time>
      </trkpt>
      <trkpt lat="43.70785" lon="3.69646">
        <ele>180.62300032</ele>
        <time>2020-08-08T08:04:08.000Z</time>
      </trkpt>
      <trkpt lat="43.70784" lon="3.69643">
        <ele>180.72300032</ele>
        <time>2020-08-08T08:04:09.000Z</time>
      </trkpt>
      <trkpt lat="43.70783" lon="3.69639">
        <ele>180.82300032</ele>
        <time>2020-08-08T08:04:10.000Z</time>
      </trkpt>
      <trkpt lat="43.70782" lon="3.69635">
        <ele>180.92300032</ele>
        <time>2020-08-08T08:04:11.000Z</time>
      </trkpt>
      <trkpt lat="43.70781" lon="3.69632">
        <ele>181.02300032</ele>
        <time>2020-08-08T08:04:12.000Z</time>
      </trkpt>
      <trkpt lat="43.7078" lon="3.69629">
        <ele>181.12300032</ele>
        <time>2020-08-08T08:04:13.000Z</time>
      </trkpt>
      <trkpt lat="43.7078" lon="3.69625">
        <ele>181.22300032</ele>
        <time>2020-08-08T08:04:14.000Z</time>
      </trkpt>
      <trkpt lat="43.7078" lon="3.69622">
        <ele>181.32300032</ele>
        <time>2020-08-08T08:04:15.000Z</time>
      </trkpt>
      <trkpt lat="43.70779" lon="3.69619">
        <ele>181.42300032</ele>
        <time>2020-08-08T08:04:16.000Z</time>
      </trkpt>
      <trkpt lat="43.70778" lon="3.69615">
        <ele>181.52300032</ele>
        <time>2020-08-08T08:04:17.000Z</time>
      </trkpt>
      <trkpt lat="43.70777" lon="3.69611">
        <ele>181.62300032</ele>
        <time>2020-08-08T08:04:18.000Z</time>
      </trkpt>
      <trkpt lat="43.70776" lon="3.69607">
        <ele>181.72300032</ele>
        <time>2020-08-08T08:04:19.000Z</time>
      </trkpt>
      <trkpt lat="43.70775" lon="3.69604">
        <ele>181.82300032</ele>
        <time>2020-08-08T08:04:20.000Z</time>
      </trkpt>
      <trkpt lat="43.70774" lon="3.69601">
        <ele>181.92300032</ele>
        <time>2020-08-08T08:04:21.000Z</time>
      </trkpt>
      <trkpt lat="43.70773" lon="3.69598">
        <ele>182</ele>
        <time>2020-08-08T08:04:22.000Z</time>
      </trkpt>
      <trkpt lat="43.70771" lon="3.69595">
        <ele>182</ele>
        <time>2020-08-08T08:04:23.000Z</time>
      </trkpt>
      <trkpt lat="43.7077" lon="3.69592">
        <ele>182</ele>
        <time>2020-08-08T08:04:24.000Z</time>
      </trkpt>
      <trkpt lat="43.70768" lon="3.69589">
        <ele>182</ele>
        <time>2020-08-08T08:04:25.000Z</time>
      </trkpt>
      <trkpt lat="43.70767" lon="3.69586">
        <ele>182</ele>
        <time>2020-08-08T08:04:26.000Z</time>
      </trkpt>
      <trkpt lat="43.70765" lon="3.69583">
        <ele>182</ele>
        <time>2020-08-08T08:04:27.000Z</time>
      </trkpt>
      <trkpt lat="43.70764" lon="3.6958">
        <ele>182</ele>
        <time>2020-08-08T08:04:28.000Z</time>
      </trkpt>
      <trkpt lat="43.70763" lon="3.69578">
        <ele>182</ele>
        <time>2020-08-08T08:04:29.000Z</time>
      </trkpt>
      <trkpt lat="43.70763" lon="3.69575">
        <ele>182</ele>
        <time>2020-08-08T08:04:30.000Z</time>
      </trkpt>
      <trkpt lat="43.70762" lon="3.69572">
        <ele>182</ele>
        <time>2020-08-08T08:04:31.000Z</time>
      </trkpt>
      <trkpt lat="43.70762" lon="3.6957">
        <ele>182.03978182101</ele>
        <time>2020-08-08T08:04:38.000Z</time>
      </trkpt>
      <trkpt lat="43.70761" lon="3.6956">
        <ele>182.97581879522</ele>
        <time>2020-08-08T08:04:50.000Z</time>
      </trkpt>
      <trkpt lat="43.70761" lon="3.69558">
        <ele>183.07195769632</ele>
        <time>2020-08-08T08:04:51.000Z</time>
      </trkpt>
      <trkpt lat="43.7076" lon="3.69555">
        <ele>183.17777783798</ele>
        <time>2020-08-08T08:04:52.000Z</time>
      </trkpt>
      <trkpt lat="43.70759" lon="3.69551">
        <ele>183.28359797963</ele>
        <time>2020-08-08T08:04:53.000Z</time>
      </trkpt>
      <trkpt lat="43.70758" lon="3.69548">
        <ele>183.38941812128</ele>
        <time>2020-08-08T08:04:54.000Z</time>
      </trkpt>
      <trkpt lat="43.70758" lon="3.69545">
        <ele>183.49523826294</ele>
        <time>2020-08-08T08:04:55.000Z</time>
      </trkpt>
      <trkpt lat="43.70757" lon="3.69542">
        <ele>183.60105840459</ele>
        <time>2020-08-08T08:04:56.000Z</time>
      </trkpt>
      <trkpt lat="43.70756" lon="3.69539">
        <ele>183.70687854625</ele>
        <time>2020-08-08T08:04:57.000Z</time>
      </trkpt>
      <trkpt lat="43.70755" lon="3.69536">
        <ele>183.8126986879</ele>
        <time>2020-08-08T08:04:58.000Z</time>
      </trkpt>
      <trkpt lat="43.70754" lon="3.69533">
        <ele>183.91851882955</ele>
        <time>2020-08-08T08:04:59.000Z</time>
      </trkpt>
      <trkpt lat="43.70753" lon="3.6953">
        <ele>184</ele>
        <time>2020-08-08T08:05:00.000Z</time>
      </trkpt>
      <trkpt lat="43.70752" lon="3.69527">
        <ele>184</ele>
        <time>2020-08-08T08:05:01.000Z</time>
      </trkpt>
      <trkpt lat="43.70752" lon="3.69523">
        <ele>184</ele>
        <time>2020-08-08T08:05:02.000Z</time>
      </trkpt>
      <trkpt lat="43.70752" lon="3.6952">
        <ele>184</ele>
        <time>2020-08-08T08:05:03.000Z</time>
      </trkpt>
      <trkpt lat="43.70752" lon="3.69516">
        <ele>184</ele>
        <time>2020-08-08T08:05:04.000Z</time>
      </trkpt>
      <trkpt lat="43.70752" lon="3.69513">
        <ele>184</ele>
        <time>2020-08-08T08:05:05.000Z</time>
      </trkpt>
      <trkpt lat="43.70752" lon="3.69509">
        <ele>184</ele>
        <time>2020-08-08T08:05:06.000Z</time>
      </trkpt>
      <trkpt lat="43.70752" lon="3.69506">
        <ele>184</ele>
        <time>2020-08-08T08:05:07.000Z</time>
      </trkpt>
      <trkpt lat="43.70753" lon="3.69503">
        <ele>184</ele>
        <time>2020-08-08T08:05:08.000Z</time>
      </trkpt>
      <trkpt lat="43.70753" lon="3.695">
        <ele>184</ele>
        <time>2020-08-08T08:05:09.000Z</time>
      </trkpt>
      <trkpt lat="43.70753" lon="3.69497">
        <ele>184</ele>
        <time>2020-08-08T08:05:10.000Z</time>
      </trkpt>
      <trkpt lat="43.70753" lon="3.69494">
        <ele>184</ele>
        <time>2020-08-08T08:05:11.000Z</time>
      </trkpt>
      <trkpt lat="43.70753" lon="3.6949">
        <ele>184</ele>
        <time>2020-08-08T08:05:12.000Z</time>
      </trkpt>
      <trkpt lat="43.70752" lon="3.69487">
        <ele>184</ele>
        <time>2020-08-08T08:05:13.000Z</time>
      </trkpt>
      <trkpt lat="43.70751" lon="3.69483">
        <ele>184</ele>
        <time>2020-08-08T08:05:14.000Z</time>
      </trkpt>
      <trkpt lat="43.7075" lon="3.69479">
        <ele>184</ele>
        <time>2020-08-08T08:05:15.000Z</time>
      </trkpt>
      <trkpt lat="43.70749" lon="3.69476">
        <ele>184</ele>
        <time>2020-08-08T08:05:16.000Z</time>
      </trkpt>
      <trkpt lat="43.70748" lon="3.69472">
        <ele>184</ele>
        <time>2020-08-08T08:05:17.000Z</time>
      </trkpt>
      <trkpt lat="43.70747" lon="3.69469">
        <ele>184</ele>
        <time>2020-08-08T08:05:18.000Z</time>
      </trkpt>
      <trkpt lat="43.70746" lon="3.69466">
        <ele>184</ele>
        <time>2020-08-08T08:05:19.000Z</time>
      </trkpt>
      <trkpt lat="43.70745" lon="3.69463">
        <ele>184.02300032</ele>
        <time>2020-08-08T08:05:20.000Z</time>
      </trkpt>
      <trkpt lat="43.70744" lon="3.69459">
        <ele>184.12300032</ele>
        <time>2020-08-08T08:05:21.000Z</time>
      </trkpt>
      <trkpt lat="43.70742" lon="3.69456">
        <ele>184.22300032</ele>
        <time>2020-08-08T08:05:22.000Z</time>
      </trkpt>
      <trkpt lat="43.70741" lon="3.69452">
        <ele>184.32300032</ele>
        <time>2020-08-08T08:05:23.000Z</time>
      </trkpt>
      <trkpt lat="43.7074" lon="3.69448">
        <ele>184.42300032</ele>
        <time>2020-08-08T08:05:24.000Z</time>
      </trkpt>
      <trkpt lat="43.70739" lon="3.69444">
        <ele>184.52300032</ele>
        <time>2020-08-08T08:05:25.000Z</time>
      </trkpt>
      <trkpt lat="43.70738" lon="3.69441">
        <ele>184.62300032</ele>
        <time>2020-08-08T08:05:26.000Z</time>
      </trkpt>
      <trkpt lat="43.70737" lon="3.69437">
        <ele>184.72300032</ele>
        <time>2020-08-08T08:05:27.000Z</time>
      </trkpt>
      <trkpt lat="43.70735" lon="3.69434">
        <ele>184.82300032</ele>
        <time>2020-08-08T08:05:28.000Z</time>
      </trkpt>
      <trkpt lat="43.70733" lon="3.6943">
        <ele>184.92300032</ele>
        <time>2020-08-08T08:05:29.000Z</time>
      </trkpt>
      <trkpt lat="43.70732" lon="3.69426">
        <ele>185.02300032</ele>
        <time>2020-08-08T08:05:30.000Z</time>
      </trkpt>
      <trkpt lat="43.7073" lon="3.69422">
        <ele>185.12300032</ele>
        <time>2020-08-08T08:05:31.000Z</time>
      </trkpt>
      <trkpt lat="43.70729" lon="3.69419">
        <ele>185.22300032</ele>
        <time>2020-08-08T08:05:32.000Z</time>
      </trkpt>
      <trkpt lat="43.70727" lon="3.69415">
        <ele>185.32300032</ele>
        <time>2020-08-08T08:05:33.000Z</time>
      </trkpt>
      <trkpt lat="43.70726" lon="3.69411">
        <ele>185.42300032</ele>
        <time>2020-08-08T08:05:34.000Z</time>
      </trkpt>
      <trkpt lat="43.70725" lon="3.69407">
        <ele>185.52300032</ele>
        <time>2020-08-08T08:05:35.000Z</time>
      </trkpt>
      <trkpt lat="43.70724" lon="3.69403">
        <ele>185.62300032</ele>
        <time>2020-08-08T08:05:36.000Z</time>
      </trkpt>
      <trkpt lat="43.70723" lon="3.69399">
        <ele>185.72300032</ele>
        <time>2020-08-08T08:05:37.000Z</time>
      </trkpt>
      <trkpt lat="43.70722" lon="3.69395">
        <ele>185.82300032</ele>
        <time>2020-08-08T08:05:38.000Z</time>
      </trkpt>
      <trkpt lat="43.70721" lon="3.69391">
        <ele>185.92300032</ele>
        <time>2020-08-08T08:05:39.000Z</time>
      </trkpt>
      <trkpt lat="43.70721" lon="3.69387">
        <ele>186</ele>
        <time>2020-08-08T08:05:40.000Z</time>
      </trkpt>
      <trkpt lat="43.7072" lon="3.69382">
        <ele>186</ele>
        <time>2020-08-08T08:05:41.000Z</time>
      </trkpt>
      <trkpt lat="43.70719" lon="3.69378">
        <ele>186</ele>
        <time>2020-08-08T08:05:42.000Z</time>
      </trkpt>
      <trkpt lat="43.70718" lon="3.69374">
        <ele>186</ele>
        <time>2020-08-08T08:05:43.000Z</time>
      </trkpt>
      <trkpt lat="43.70718" lon="3.69369">
        <ele>186</ele>
        <time>2020-08-08T08:05:44.000Z</time>
      </trkpt>
      <trkpt lat="43.70719" lon="3.69365">
        <ele>186</ele>
        <time>2020-08-08T08:05:45.000Z</time>
      </trkpt>
      <trkpt lat="43.70721" lon="3.69361">
        <ele>186</ele>
        <time>2020-08-08T08:05:46.000Z</time>
      </trkpt>
      <trkpt lat="43.70723" lon="3.69358">
        <ele>186</ele>
        <time>2020-08-08T08:05:47.000Z</time>
      </trkpt>
      <trkpt lat="43.70725" lon="3.69354">
        <ele>186</ele>
        <time>2020-08-08T08:05:48.000Z</time>
      </trkpt>
      <trkpt lat="43.70726" lon="3.69351">
        <ele>186</ele>
        <time>2020-08-08T08:05:49.000Z</time>
      </trkpt>
      <trkpt lat="43.70728" lon="3.69347">
        <ele>186.01213347208</ele>
        <time>2020-08-08T08:05:50.000Z</time>
      </trkpt>
      <trkpt lat="43.7073" lon="3.69344">
        <ele>186.11324573937</ele>
        <time>2020-08-08T08:05:51.000Z</time>
      </trkpt>
      <trkpt lat="43.70732" lon="3.6934">
        <ele>186.21435800667</ele>
        <time>2020-08-08T08:05:52.000Z</time>
      </trkpt>
      <trkpt lat="43.70733" lon="3.69337">
        <ele>186.31547027396</ele>
        <time>2020-08-08T08:05:53.000Z</time>
      </trkpt>
      <trkpt lat="43.70735" lon="3.69334">
        <ele>186.41658254126</ele>
        <time>2020-08-08T08:05:54.000Z</time>
      </trkpt>
      <trkpt lat="43.70736" lon="3.69331">
        <ele>186.51769480856</ele>
        <time>2020-08-08T08:05:55.000Z</time>
      </trkpt>
      <trkpt lat="43.70738" lon="3.69327">
        <ele>186.61880707585</ele>
        <time>2020-08-08T08:05:56.000Z</time>
      </trkpt>
      <trkpt lat="43.70739" lon="3.69324">
        <ele>186.71991934315</ele>
        <time>2020-08-08T08:05:57.000Z</time>
      </trkpt>
      <trkpt lat="43.70741" lon="3.69321">
        <ele>186.82103161045</ele>
        <time>2020-08-08T08:05:58.000Z</time>
      </trkpt>
      <trkpt lat="43.70743" lon="3.69318">
        <ele>186.92214387774</ele>
        <time>2020-08-08T08:05:59.000Z</time>
      </trkpt>
      <trkpt lat="43.70744" lon="3.69315">
        <ele>187.02300032</ele>
        <time>2020-08-08T08:06:00.000Z</time>
      </trkpt>
      <trkpt lat="43.70747" lon="3.69312">
        <ele>187.12300032</ele>
        <time>2020-08-08T08:06:01.000Z</time>
      </trkpt>
      <trkpt lat="43.70749" lon="3.6931">
        <ele>187.22300032</ele>
        <time>2020-08-08T08:06:02.000Z</time>
      </trkpt>
      <trkpt lat="43.70751" lon="3.69307">
        <ele>187.32300032</ele>
        <time>2020-08-08T08:06:03.000Z</time>
      </trkpt>
      <trkpt lat="43.70753" lon="3.69304">
        <ele>187.42300032</ele>
        <time>2020-08-08T08:06:04.000Z</time>
      </trkpt>
      <trkpt lat="43.70755" lon="3.69301">
        <ele>187.52300032</ele>
        <time>2020-08-08T08:06:05.000Z</time>
      </trkpt>
      <trkpt lat="43.70756" lon="3.69298">
        <ele>187.62300032</ele>
        <time>2020-08-08T08:06:06.000Z</time>
      </trkpt>
      <trkpt lat="43.70758" lon="3.69295">
        <ele>187.72300032</ele>
        <time>2020-08-08T08:06:07.000Z</time>
      </trkpt>
      <trkpt lat="43.7076" lon="3.69293">
        <ele>187.82300032</ele>
        <time>2020-08-08T08:06:08.000Z</time>
      </trkpt>
      <trkpt lat="43.70762" lon="3.6929">
        <ele>187.92300032</ele>
        <time>2020-08-08T08:06:09.000Z</time>
      </trkpt>
      <trkpt lat="43.70763" lon="3.69288">
        <ele>188.02300032</ele>
        <time>2020-08-08T08:06:10.000Z</time>
      </trkpt>
      <trkpt lat="43.70765" lon="3.69285">
        <ele>188.12300032</ele>
        <time>2020-08-08T08:06:11.000Z</time>
      </trkpt>
      <trkpt lat="43.70766" lon="3.69283">
        <ele>188.22300032</ele>
        <time>2020-08-08T08:06:12.000Z</time>
      </trkpt>
      <trkpt lat="43.70768" lon="3.69281">
        <ele>188.32300032</ele>
        <time>2020-08-08T08:06:13.000Z</time>
      </trkpt>
      <trkpt lat="43.70769" lon="3.69279">
        <ele>188.42300032</ele>
        <time>2020-08-08T08:06:14.000Z</time>
      </trkpt>
      <trkpt lat="43.70771" lon="3.69277">
        <ele>188.52300032</ele>
        <time>2020-08-08T08:06:15.000Z</time>
      </trkpt>
      <trkpt lat="43.70773" lon="3.69275">
        <ele>188.62300032</ele>
        <time>2020-08-08T08:06:16.000Z</time>
      </trkpt>
      <trkpt lat="43.70774" lon="3.69273">
        <ele>188.72300032</ele>
        <time>2020-08-08T08:06:17.000Z</time>
      </trkpt>
      <trkpt lat="43.70776" lon="3.69271">
        <ele>188.82300032</ele>
        <time>2020-08-08T08:06:18.000Z</time>
      </trkpt>
      <trkpt lat="43.70776" lon="3.69269">
        <ele>189.022235066</ele>
        <time>2020-08-08T08:06:24.000Z</time>
      </trkpt>
      <trkpt lat="43.70779" lon="3.69261">
        <ele>189.99144793927</ele>
        <time>2020-08-08T08:06:58.000Z</time>
      </trkpt>
      <trkpt lat="43.70781" lon="3.69259">
        <ele>190</ele>
        <time>2020-08-08T08:06:59.000Z</time>
      </trkpt>
      <trkpt lat="43.70782" lon="3.69256">
        <ele>190</ele>
        <time>2020-08-08T08:07:00.000Z</time>
      </trkpt>
      <trkpt lat="43.70784" lon="3.69254">
        <ele>190</ele>
        <time>2020-08-08T08:07:01.000Z</time>
      </trkpt>
      <trkpt lat="43.70785" lon="3.69251">
        <ele>190</ele>
        <time>2020-08-08T08:07:02.000Z</time>
      </trkpt>
      <trkpt lat="43.70787" lon="3.69248">
        <ele>190</ele>
        <time>2020-08-08T08:07:03.000Z</time>
      </trkpt>
      <trkpt lat="43.70788" lon="3.69246">
        <ele>190</ele>
        <time>2020-08-08T08:07:04.000Z</time>
      </trkpt>
      <trkpt lat="43.7079" lon="3.69243">
        <ele>190</ele>
        <time>2020-08-08T08:07:05.000Z</time>
      </trkpt>
      <trkpt lat="43.70792" lon="3.6924">
        <ele>190</ele>
        <time>2020-08-08T08:07:06.000Z</time>
      </trkpt>
      <trkpt lat="43.70794" lon="3.69238">
        <ele>190</ele>
        <time>2020-08-08T08:07:07.000Z</time>
      </trkpt>
      <trkpt lat="43.70796" lon="3.69235">
        <ele>189.981445</ele>
        <time>2020-08-08T08:07:08.000Z</time>
      </trkpt>
      <trkpt lat="43.70798" lon="3.69232">
        <ele>189.88378875</ele>
        <time>2020-08-08T08:07:09.000Z</time>
      </trkpt>
      <trkpt lat="43.708" lon="3.69229">
        <ele>189.7861325</ele>
        <time>2020-08-08T08:07:10.000Z</time>
      </trkpt>
      <trkpt lat="43.70802" lon="3.69226">
        <ele>189.68847625</ele>
        <time>2020-08-08T08:07:11.000Z</time>
      </trkpt>
      <trkpt lat="43.70804" lon="3.69223">
        <ele>189.59082</ele>
        <time>2020-08-08T08:07:12.000Z</time>
      </trkpt>
      <trkpt lat="43.70806" lon="3.69219">
        <ele>189.49316375</ele>
        <time>2020-08-08T08:07:13.000Z</time>
      </trkpt>
      <trkpt lat="43.70808" lon="3.69216">
        <ele>189.3955075</ele>
        <time>2020-08-08T08:07:14.000Z</time>
      </trkpt>
      <trkpt lat="43.7081" lon="3.69214">
        <ele>189.29785125</ele>
        <time>2020-08-08T08:07:15.000Z</time>
      </trkpt>
      <trkpt lat="43.70813" lon="3.69211">
        <ele>189.200195</ele>
        <time>2020-08-08T08:07:16.000Z</time>
      </trkpt>
      <trkpt lat="43.70815" lon="3.69209">
        <ele>189.10253875</ele>
        <time>2020-08-08T08:07:17.000Z</time>
      </trkpt>
      <trkpt lat="43.70818" lon="3.69207">
        <ele>189.0048825</ele>
        <time>2020-08-08T08:07:18.000Z</time>
      </trkpt>
      <trkpt lat="43.70821" lon="3.69206">
        <ele>189</ele>
        <time>2020-08-08T08:07:19.000Z</time>
      </trkpt>
      <trkpt lat="43.70823" lon="3.69205">
        <ele>189</ele>
        <time>2020-08-08T08:07:20.000Z</time>
      </trkpt>
      <trkpt lat="43.70826" lon="3.69202">
        <ele>189</ele>
        <time>2020-08-08T08:07:21.000Z</time>
      </trkpt>
      <trkpt lat="43.70828" lon="3.692">
        <ele>189</ele>
        <time>2020-08-08T08:07:22.000Z</time>
      </trkpt>
      <trkpt lat="43.70831" lon="3.69197">
        <ele>189</ele>
        <time>2020-08-08T08:07:23.000Z</time>
      </trkpt>
      <trkpt lat="43.70833" lon="3.69194">
        <ele>189</ele>
        <time>2020-08-08T08:07:24.000Z</time>
      </trkpt>
      <trkpt lat="43.70836" lon="3.6919">
        <ele>189</ele>
        <time>2020-08-08T08:07:25.000Z</time>
      </trkpt>
      <trkpt lat="43.70839" lon="3.69187">
        <ele>189</ele>
        <time>2020-08-08T08:07:26.000Z</time>
      </trkpt>
      <trkpt lat="43.70841" lon="3.69183">
        <ele>189</ele>
        <time>2020-08-08T08:07:27.000Z</time>
      </trkpt>
      <trkpt lat="43.70842" lon="3.69179">
        <ele>189</ele>
        <time>2020-08-08T08:07:28.000Z</time>
      </trkpt>
      <trkpt lat="43.70844" lon="3.69175">
        <ele>189</ele>
        <time>2020-08-08T08:07:29.000Z</time>
      </trkpt>
      <trkpt lat="43.70846" lon="3.69171">
        <ele>189</ele>
        <time>2020-08-08T08:07:30.000Z</time>
      </trkpt>
      <trkpt lat="43.70847" lon="3.69167">
        <ele>189</ele>
        <time>2020-08-08T08:07:31.000Z</time>
      </trkpt>
      <trkpt lat="43.70849" lon="3.69163">
        <ele>189</ele>
        <time>2020-08-08T08:07:32.000Z</time>
      </trkpt>
      <trkpt lat="43.70851" lon="3.69159">
        <ele>189</ele>
        <time>2020-08-08T08:07:33.000Z</time>
      </trkpt>
      <trkpt lat="43.70853" lon="3.69155">
        <ele>189</ele>
        <time>2020-08-08T08:07:34.000Z</time>
      </trkpt>
      <trkpt lat="43.70854" lon="3.69151">
        <ele>189</ele>
        <time>2020-08-08T08:07:35.000Z</time>
      </trkpt>
      <trkpt lat="43.70856" lon="3.69147">
        <ele>189</ele>
        <time>2020-08-08T08:07:36.000Z</time>
      </trkpt>
      <trkpt lat="43.70857" lon="3.69143">
        <ele>189</ele>
        <time>2020-08-08T08:07:37.000Z</time>
      </trkpt>
      <trkpt lat="43.70858" lon="3.69139">
        <ele>188.97709131474</ele>
        <time>2020-08-08T08:07:38.000Z</time>
      </trkpt>
      <trkpt lat="43.7086" lon="3.69135">
        <ele>188.87748972112</ele>
        <time>2020-08-08T08:07:39.000Z</time>
      </trkpt>
      <trkpt lat="43.70862" lon="3.69131">
        <ele>188.77788812749</ele>
        <time>2020-08-08T08:07:40.000Z</time>
      </trkpt>
      <trkpt lat="43.70863" lon="3.69127">
        <ele>188.67828653386</ele>
        <time>2020-08-08T08:07:41.000Z</time>
      </trkpt>
      <trkpt lat="43.70864" lon="3.69123">
        <ele>188.57868494024</ele>
        <time>2020-08-08T08:07:42.000Z</time>
      </trkpt>
      <trkpt lat="43.70865" lon="3.69119">
        <ele>188.47908334661</ele>
        <time>2020-08-08T08:07:43.000Z</time>
      </trkpt>
      <trkpt lat="43.70866" lon="3.69115">
        <ele>188.37948175299</ele>
        <time>2020-08-08T08:07:44.000Z</time>
      </trkpt>
      <trkpt lat="43.70866" lon="3.6911">
        <ele>188.27988015936</ele>
        <time>2020-08-08T08:07:45.000Z</time>
      </trkpt>
      <trkpt lat="43.70867" lon="3.69106">
        <ele>188.18027856574</ele>
        <time>2020-08-08T08:07:46.000Z</time>
      </trkpt>
      <trkpt lat="43.70868" lon="3.69101">
        <ele>188.08067697211</ele>
        <time>2020-08-08T08:07:47.000Z</time>
      </trkpt>
      <trkpt lat="43.70868" lon="3.69097">
        <ele>188.01848280156</ele>
        <time>2020-08-08T08:07:48.000Z</time>
      </trkpt>
      <trkpt lat="43.70869" lon="3.69092">
        <ele>188.11575906615</ele>
        <time>2020-08-08T08:07:49.000Z</time>
      </trkpt>
      <trkpt lat="43.7087" lon="3.69087">
        <ele>188.21303533074</ele>
        <time>2020-08-08T08:07:50.000Z</time>
      </trkpt>
      <trkpt lat="43.7087" lon="3.69082">
        <ele>188.31031159533</ele>
        <time>2020-08-08T08:07:51.000Z</time>
      </trkpt>
      <trkpt lat="43.7087" lon="3.69078">
        <ele>188.40758785992</ele>
        <time>2020-08-08T08:07:52.000Z</time>
      </trkpt>
      <trkpt lat="43.70871" lon="3.69073">
        <ele>188.50486412451</ele>
        <time>2020-08-08T08:07:53.000Z</time>
      </trkpt>
      <trkpt lat="43.70872" lon="3.69069">
        <ele>188.6021403891</ele>
        <time>2020-08-08T08:07:54.000Z</time>
      </trkpt>
      <trkpt lat="43.70873" lon="3.69065">
        <ele>188.6994166537</ele>
        <time>2020-08-08T08:07:55.000Z</time>
      </trkpt>
      <trkpt lat="43.70874" lon="3.6906">
        <ele>188.79669291829</ele>
        <time>2020-08-08T08:07:56.000Z</time>
      </trkpt>
      <trkpt lat="43.70875" lon="3.69056">
        <ele>188.89396918288</ele>
        <time>2020-08-08T08:07:57.000Z</time>
      </trkpt>
      <trkpt lat="43.70877" lon="3.69051">
        <ele>188.99124544747</ele>
        <time>2020-08-08T08:07:58.000Z</time>
      </trkpt>
      <trkpt lat="43.70879" lon="3.69047">
        <ele>189.09400859504</ele>
        <time>2020-08-08T08:07:59.000Z</time>
      </trkpt>
      <trkpt lat="43.7088" lon="3.69043">
        <ele>189.19731438017</ele>
        <time>2020-08-08T08:08:00.000Z</time>
      </trkpt>
      <trkpt lat="43.70882" lon="3.69039">
        <ele>189.30062016529</ele>
        <time>2020-08-08T08:08:01.000Z</time>
      </trkpt>
      <trkpt lat="43.70883" lon="3.69034">
        <ele>189.40392595041</ele>
        <time>2020-08-08T08:08:02.000Z</time>
      </trkpt>
      <trkpt lat="43.70884" lon="3.6903">
        <ele>189.50723173554</ele>
        <time>2020-08-08T08:08:03.000Z</time>
      </trkpt>
      <trkpt lat="43.70885" lon="3.69026">
        <ele>189.61053752066</ele>
        <time>2020-08-08T08:08:04.000Z</time>
      </trkpt>
      <trkpt lat="43.70887" lon="3.69021">
        <ele>189.71384330578</ele>
        <time>2020-08-08T08:08:05.000Z</time>
      </trkpt>
      <trkpt lat="43.70888" lon="3.69017">
        <ele>189.81714909091</ele>
        <time>2020-08-08T08:08:06.000Z</time>
      </trkpt>
      <trkpt lat="43.70889" lon="3.69012">
        <ele>189.92045487603</ele>
        <time>2020-08-08T08:08:07.000Z</time>
      </trkpt>
      <trkpt lat="43.7089" lon="3.69008">
        <ele>190</ele>
        <time>2020-08-08T08:08:08.000Z</time>
      </trkpt>
      <trkpt lat="43.70892" lon="3.69003">
        <ele>190</ele>
        <time>2020-08-08T08:08:09.000Z</time>
      </trkpt>
      <trkpt lat="43.70893" lon="3.68999">
        <ele>190</ele>
        <time>2020-08-08T08:08:10.000Z</time>
      </trkpt>
      <trkpt lat="43.70894" lon="3.68995">
        <ele>190</ele>
        <time>2020-08-08T08:08:11.000Z</time>
      </trkpt>
      <trkpt lat="43.70896" lon="3.68991">
        <ele>190</ele>
        <time>2020-08-08T08:08:12.000Z</time>
      </trkpt>
      <trkpt lat="43.70897" lon="3.68986">
        <ele>190</ele>
        <time>2020-08-08T08:08:13.000Z</time>
      </trkpt>
      <trkpt lat="43.70897" lon="3.68982">
        <ele>190</ele>
        <time>2020-08-08T08:08:14.000Z</time>
      </trkpt>
      <trkpt lat="43.70898" lon="3.68977">
        <ele>190</ele>
        <time>2020-08-08T08:08:15.000Z</time>
      </trkpt>
      <trkpt lat="43.70898" lon="3.68972">
        <ele>190</ele>
        <time>2020-08-08T08:08:16.000Z</time>
      </trkpt>
      <trkpt lat="43.70898" lon="3.68967">
        <ele>190</ele>
        <time>2020-08-08T08:08:17.000Z</time>
      </trkpt>
      <trkpt lat="43.70898" lon="3.68962">
        <ele>190</ele>
        <time>2020-08-08T08:08:18.000Z</time>
      </trkpt>
      <trkpt lat="43.70898" lon="3.68958">
        <ele>190</ele>
        <time>2020-08-08T08:08:19.000Z</time>
      </trkpt>
      <trkpt lat="43.70898" lon="3.68954">
        <ele>190</ele>
        <time>2020-08-08T08:08:20.000Z</time>
      </trkpt>
      <trkpt lat="43.70898" lon="3.6895">
        <ele>190</ele>
        <time>2020-08-08T08:08:21.000Z</time>
      </trkpt>
      <trkpt lat="43.70898" lon="3.68946">
        <ele>190</ele>
        <time>2020-08-08T08:08:22.000Z</time>
      </trkpt>
      <trkpt lat="43.70898" lon="3.68941">
        <ele>190</ele>
        <time>2020-08-08T08:08:23.000Z</time>
      </trkpt>
      <trkpt lat="43.70897" lon="3.68937">
        <ele>190</ele>
        <time>2020-08-08T08:08:24.000Z</time>
      </trkpt>
      <trkpt lat="43.70897" lon="3.68932">
        <ele>190</ele>
        <time>2020-08-08T08:08:25.000Z</time>
      </trkpt>
      <trkpt lat="43.70897" lon="3.68928">
        <ele>190</ele>
        <time>2020-08-08T08:08:26.000Z</time>
      </trkpt>
      <trkpt lat="43.70896" lon="3.68923">
        <ele>190</ele>
        <time>2020-08-08T08:08:27.000Z</time>
      </trkpt>
      <trkpt lat="43.70895" lon="3.68919">
        <ele>190.04208355404</ele>
        <time>2020-08-08T08:08:28.000Z</time>
      </trkpt>
      <trkpt lat="43.70895" lon="3.68915">
        <ele>190.24248448416</ele>
        <time>2020-08-08T08:08:29.000Z</time>
      </trkpt>
      <trkpt lat="43.70894" lon="3.68912">
        <ele>190.44288541427</ele>
        <time>2020-08-08T08:08:30.000Z</time>
      </trkpt>
      <trkpt lat="43.70892" lon="3.68909">
        <ele>190.64328634439</ele>
        <time>2020-08-08T08:08:31.000Z</time>
      </trkpt>
      <trkpt lat="43.7089" lon="3.68906">
        <ele>190.84368727451</ele>
        <time>2020-08-08T08:08:32.000Z</time>
      </trkpt>
      <trkpt lat="43.70888" lon="3.68904">
        <ele>191.04408820463</ele>
        <time>2020-08-08T08:08:33.000Z</time>
      </trkpt>
      <trkpt lat="43.70886" lon="3.68901">
        <ele>191.24448913474</ele>
        <time>2020-08-08T08:08:34.000Z</time>
      </trkpt>
      <trkpt lat="43.70884" lon="3.68899">
        <ele>191.44489006486</ele>
        <time>2020-08-08T08:08:35.000Z</time>
      </trkpt>
      <trkpt lat="43.70882" lon="3.68896">
        <ele>191.64529099498</ele>
        <time>2020-08-08T08:08:36.000Z</time>
      </trkpt>
      <trkpt lat="43.7088" lon="3.68894">
        <ele>191.84569192509</ele>
        <time>2020-08-08T08:08:37.000Z</time>
      </trkpt>
      <trkpt lat="43.70878" lon="3.68891">
        <ele>192.02300032</ele>
        <time>2020-08-08T08:08:38.000Z</time>
      </trkpt>
      <trkpt lat="43.70876" lon="3.68889">
        <ele>192.12300032</ele>
        <time>2020-08-08T08:08:39.000Z</time>
      </trkpt>
      <trkpt lat="43.70874" lon="3.68886">
        <ele>192.22300032</ele>
        <time>2020-08-08T08:08:40.000Z</time>
      </trkpt>
      <trkpt lat="43.70872" lon="3.68884">
        <ele>192.32300032</ele>
        <time>2020-08-08T08:08:41.000Z</time>
      </trkpt>
      <trkpt lat="43.7087" lon="3.68881">
        <ele>192.42300032</ele>
        <time>2020-08-08T08:08:42.000Z</time>
      </trkpt>
      <trkpt lat="43.70869" lon="3.68878">
        <ele>192.52300032</ele>
        <time>2020-08-08T08:08:43.000Z</time>
      </trkpt>
      <trkpt lat="43.70868" lon="3.68875">
        <ele>192.62300032</ele>
        <time>2020-08-08T08:08:44.000Z</time>
      </trkpt>
      <trkpt lat="43.70867" lon="3.68873">
        <ele>192.72300032</ele>
        <time>2020-08-08T08:08:45.000Z</time>
      </trkpt>
      <trkpt lat="43.70865" lon="3.68871">
        <ele>192.82300032</ele>
        <time>2020-08-08T08:08:46.000Z</time>
      </trkpt>
      <trkpt lat="43.70864" lon="3.68869">
        <ele>192.92300032</ele>
        <time>2020-08-08T08:08:47.000Z</time>
      </trkpt>
      <trkpt lat="43.70862" lon="3.68867">
        <ele>193.04581737052</ele>
        <time>2020-08-08T08:08:48.000Z</time>
      </trkpt>
      <trkpt lat="43.7086" lon="3.68865">
        <ele>193.24502055777</ele>
        <time>2020-08-08T08:08:49.000Z</time>
      </trkpt>
      <trkpt lat="43.70858" lon="3.68863">
        <ele>193.44422374502</ele>
        <time>2020-08-08T08:08:50.000Z</time>
      </trkpt>
      <trkpt lat="43.70857" lon="3.68862">
        <ele>193.64342693227</ele>
        <time>2020-08-08T08:08:51.000Z</time>
      </trkpt>
      <trkpt lat="43.70855" lon="3.6886">
        <ele>193.84263011952</ele>
        <time>2020-08-08T08:08:52.000Z</time>
      </trkpt>
      <trkpt lat="43.70853" lon="3.68858">
        <ele>194.04183330677</ele>
        <time>2020-08-08T08:08:53.000Z</time>
      </trkpt>
      <trkpt lat="43.70852" lon="3.68856">
        <ele>194.24103649402</ele>
        <time>2020-08-08T08:08:54.000Z</time>
      </trkpt>
      <trkpt lat="43.7085" lon="3.68854">
        <ele>194.44023968127</ele>
        <time>2020-08-08T08:08:55.000Z</time>
      </trkpt>
      <trkpt lat="43.70848" lon="3.68851">
        <ele>194.63944286853</ele>
        <time>2020-08-08T08:08:56.000Z</time>
      </trkpt>
      <trkpt lat="43.70846" lon="3.68849">
        <ele>194.83864605578</ele>
        <time>2020-08-08T08:08:57.000Z</time>
      </trkpt>
      <trkpt lat="43.70845" lon="3.68847">
        <ele>195.05722987952</ele>
        <time>2020-08-08T08:08:58.000Z</time>
      </trkpt>
      <trkpt lat="43.70843" lon="3.68845">
        <ele>195.3584346988</ele>
        <time>2020-08-08T08:08:59.000Z</time>
      </trkpt>
      <trkpt lat="43.70841" lon="3.68843">
        <ele>195.65963951807</ele>
        <time>2020-08-08T08:09:00.000Z</time>
      </trkpt>
      <trkpt lat="43.7084" lon="3.6884">
        <ele>195.96084433735</ele>
        <time>2020-08-08T08:09:01.000Z</time>
      </trkpt>
      <trkpt lat="43.70838" lon="3.68838">
        <ele>196.26204915663</ele>
        <time>2020-08-08T08:09:02.000Z</time>
      </trkpt>
      <trkpt lat="43.70837" lon="3.68835">
        <ele>196.5632539759</ele>
        <time>2020-08-08T08:09:03.000Z</time>
      </trkpt>
      <trkpt lat="43.70835" lon="3.68833">
        <ele>196.86445879518</ele>
        <time>2020-08-08T08:09:04.000Z</time>
      </trkpt>
      <trkpt lat="43.70834" lon="3.68831">
        <ele>197.16566361446</ele>
        <time>2020-08-08T08:09:05.000Z</time>
      </trkpt>
      <trkpt lat="43.70832" lon="3.68829">
        <ele>197.46686843373</ele>
        <time>2020-08-08T08:09:06.000Z</time>
      </trkpt>
      <trkpt lat="43.7083" lon="3.68827">
        <ele>197.76807325301</ele>
        <time>2020-08-08T08:09:07.000Z</time>
      </trkpt>
      <trkpt lat="43.70829" lon="3.68825">
        <ele>198.02300032</ele>
        <time>2020-08-08T08:09:08.000Z</time>
      </trkpt>
      <trkpt lat="43.70827" lon="3.68823">
        <ele>198.12300032</ele>
        <time>2020-08-08T08:09:09.000Z</time>
      </trkpt>
      <trkpt lat="43.70825" lon="3.68821">
        <ele>198.22300032</ele>
        <time>2020-08-08T08:09:10.000Z</time>
      </trkpt>
      <trkpt lat="43.70824" lon="3.68819">
        <ele>198.32300032</ele>
        <time>2020-08-08T08:09:11.000Z</time>
      </trkpt>
      <trkpt lat="43.70822" lon="3.68817">
        <ele>198.42300032</ele>
        <time>2020-08-08T08:09:12.000Z</time>
      </trkpt>
      <trkpt lat="43.70821" lon="3.68816">
        <ele>198.52300032</ele>
        <time>2020-08-08T08:09:13.000Z</time>
      </trkpt>
      <trkpt lat="43.70819" lon="3.68814">
        <ele>198.62300032</ele>
        <time>2020-08-08T08:09:14.000Z</time>
      </trkpt>
      <trkpt lat="43.70818" lon="3.68812">
        <ele>198.72300032</ele>
        <time>2020-08-08T08:09:15.000Z</time>
      </trkpt>
      <trkpt lat="43.70815" lon="3.68811">
        <ele>198.92300032</ele>
        <time>2020-08-08T08:09:17.000Z</time>
      </trkpt>
      <trkpt lat="43.70813" lon="3.68813">
        <ele>199.24600064</ele>
        <time>2020-08-08T08:09:19.000Z</time>
      </trkpt>
      <trkpt lat="43.70811" lon="3.68815">
        <ele>199.44600064</ele>
        <time>2020-08-08T08:09:20.000Z</time>
      </trkpt>
      <trkpt lat="43.7081" lon="3.68818">
        <ele>199.64600064</ele>
        <time>2020-08-08T08:09:21.000Z</time>
      </trkpt>
      <trkpt lat="43.70809" lon="3.6882">
        <ele>199.84600064</ele>
        <time>2020-08-08T08:09:22.000Z</time>
      </trkpt>
      <trkpt lat="43.70807" lon="3.68822">
        <ele>200.04600064</ele>
        <time>2020-08-08T08:09:23.000Z</time>
      </trkpt>
      <trkpt lat="43.70806" lon="3.68824">
        <ele>200.24600064</ele>
        <time>2020-08-08T08:09:24.000Z</time>
      </trkpt>
      <trkpt lat="43.70804" lon="3.68825">
        <ele>200.44600064</ele>
        <time>2020-08-08T08:09:25.000Z</time>
      </trkpt>
      <trkpt lat="43.70803" lon="3.68827">
        <ele>200.64600064</ele>
        <time>2020-08-08T08:09:26.000Z</time>
      </trkpt>
      <trkpt lat="43.70801" lon="3.68829">
        <ele>200.84600064</ele>
        <time>2020-08-08T08:09:27.000Z</time>
      </trkpt>
      <trkpt lat="43.70799" lon="3.6883">
        <ele>201.04600064</ele>
        <time>2020-08-08T08:09:28.000Z</time>
      </trkpt>
      <trkpt lat="43.70798" lon="3.68831">
        <ele>201.24600064</ele>
        <time>2020-08-08T08:09:29.000Z</time>
      </trkpt>
      <trkpt lat="43.70796" lon="3.68831">
        <ele>201.44600064</ele>
        <time>2020-08-08T08:09:30.000Z</time>
      </trkpt>
      <trkpt lat="43.70794" lon="3.68832">
        <ele>201.64600064</ele>
        <time>2020-08-08T08:09:31.000Z</time>
      </trkpt>
      <trkpt lat="43.70792" lon="3.68833">
        <ele>201.84600064</ele>
        <time>2020-08-08T08:09:32.000Z</time>
      </trkpt>
      <trkpt lat="43.70791" lon="3.68835">
        <ele>202.04600064</ele>
        <time>2020-08-08T08:09:33.000Z</time>
      </trkpt>
      <trkpt lat="43.7079" lon="3.68838">
        <ele>202.24600064</ele>
        <time>2020-08-08T08:09:34.000Z</time>
      </trkpt>
      <trkpt lat="43.70789" lon="3.6884">
        <ele>202.44600064</ele>
        <time>2020-08-08T08:09:35.000Z</time>
      </trkpt>
      <trkpt lat="43.70788" lon="3.68843">
        <ele>202.64600064</ele>
        <time>2020-08-08T08:09:36.000Z</time>
      </trkpt>
      <trkpt lat="43.70788" lon="3.68845">
        <ele>202.84600064</ele>
        <time>2020-08-08T08:09:37.000Z</time>
      </trkpt>
      <trkpt lat="43.70787" lon="3.68848">
        <ele>203</ele>
        <time>2020-08-08T08:09:38.000Z</time>
      </trkpt>
      <trkpt lat="43.70786" lon="3.6885">
        <ele>203</ele>
        <time>2020-08-08T08:09:39.000Z</time>
      </trkpt>
      <trkpt lat="43.70785" lon="3.68853">
        <ele>203</ele>
        <time>2020-08-08T08:09:40.000Z</time>
      </trkpt>
      <trkpt lat="43.70784" lon="3.68856">
        <ele>203</ele>
        <time>2020-08-08T08:09:41.000Z</time>
      </trkpt>
      <trkpt lat="43.70782" lon="3.68858">
        <ele>203</ele>
        <time>2020-08-08T08:09:42.000Z</time>
      </trkpt>
      <trkpt lat="43.7078" lon="3.68859">
        <ele>203</ele>
        <time>2020-08-08T08:09:43.000Z</time>
      </trkpt>
      <trkpt lat="43.70778" lon="3.6886">
        <ele>203</ele>
        <time>2020-08-08T08:09:44.000Z</time>
      </trkpt>
      <trkpt lat="43.70776" lon="3.6886">
        <ele>203</ele>
        <time>2020-08-08T08:09:45.000Z</time>
      </trkpt>
      <trkpt lat="43.70774" lon="3.68861">
        <ele>203</ele>
        <time>2020-08-08T08:09:46.000Z</time>
      </trkpt>
      <trkpt lat="43.70771" lon="3.6886">
        <ele>203</ele>
        <time>2020-08-08T08:09:47.000Z</time>
      </trkpt>
      <trkpt lat="43.7077" lon="3.68859">
        <ele>203.04600064</ele>
        <time>2020-08-08T08:09:48.000Z</time>
      </trkpt>
      <trkpt lat="43.70768" lon="3.68857">
        <ele>203.24600064</ele>
        <time>2020-08-08T08:09:49.000Z</time>
      </trkpt>
      <trkpt lat="43.70765" lon="3.68857">
        <ele>203.44600064</ele>
        <time>2020-08-08T08:09:50.000Z</time>
      </trkpt>
      <trkpt lat="43.70763" lon="3.68856">
        <ele>203.64600064</ele>
        <time>2020-08-08T08:09:51.000Z</time>
      </trkpt>
      <trkpt lat="43.70761" lon="3.68856">
        <ele>203.84600064</ele>
        <time>2020-08-08T08:09:52.000Z</time>
      </trkpt>
      <trkpt lat="43.70759" lon="3.68856">
        <ele>204.04600064</ele>
        <time>2020-08-08T08:09:53.000Z</time>
      </trkpt>
      <trkpt lat="43.70757" lon="3.68856">
        <ele>204.24600064</ele>
        <time>2020-08-08T08:09:54.000Z</time>
      </trkpt>
      <trkpt lat="43.70755" lon="3.68857">
        <ele>204.44600064</ele>
        <time>2020-08-08T08:09:55.000Z</time>
      </trkpt>
      <trkpt lat="43.70753" lon="3.68857">
        <ele>204.64600064</ele>
        <time>2020-08-08T08:09:56.000Z</time>
      </trkpt>
      <trkpt lat="43.7075" lon="3.68857">
        <ele>204.84600064</ele>
        <time>2020-08-08T08:09:57.000Z</time>
      </trkpt>
      <trkpt lat="43.70748" lon="3.68858">
        <ele>205.04474770428</ele>
        <time>2020-08-08T08:09:58.000Z</time>
      </trkpt>
      <trkpt lat="43.70746" lon="3.68858">
        <ele>205.23930023346</ele>
        <time>2020-08-08T08:09:59.000Z</time>
      </trkpt>
      <trkpt lat="43.70744" lon="3.68859">
        <ele>205.43385276265</ele>
        <time>2020-08-08T08:10:00.000Z</time>
      </trkpt>
      <trkpt lat="43.70742" lon="3.68859">
        <ele>205.62840529183</ele>
        <time>2020-08-08T08:10:01.000Z</time>
      </trkpt>
      <trkpt lat="43.70739" lon="3.68858">
        <ele>205.82295782101</ele>
        <time>2020-08-08T08:10:02.000Z</time>
      </trkpt>
      <trkpt lat="43.70737" lon="3.68858">
        <ele>206.0175103502</ele>
        <time>2020-08-08T08:10:03.000Z</time>
      </trkpt>
      <trkpt lat="43.70734" lon="3.68858">
        <ele>206.21206287938</ele>
        <time>2020-08-08T08:10:04.000Z</time>
      </trkpt>
      <trkpt lat="43.70732" lon="3.68858">
        <ele>206.40661540856</ele>
        <time>2020-08-08T08:10:05.000Z</time>
      </trkpt>
      <trkpt lat="43.7073" lon="3.68858">
        <ele>206.60116793774</ele>
        <time>2020-08-08T08:10:06.000Z</time>
      </trkpt>
      <trkpt lat="43.70727" lon="3.68858">
        <ele>206.79572046693</ele>
        <time>2020-08-08T08:10:07.000Z</time>
      </trkpt>
      <trkpt lat="43.70725" lon="3.68857">
        <ele>206.99027299611</ele>
        <time>2020-08-08T08:10:08.000Z</time>
      </trkpt>
      <trkpt lat="43.70722" lon="3.68856">
        <ele>207.19979540984</ele>
        <time>2020-08-08T08:10:10.000Z</time>
      </trkpt>
      <trkpt lat="43.7072" lon="3.68855">
        <ele>207.30225442623</ele>
        <time>2020-08-08T08:10:11.000Z</time>
      </trkpt>
      <trkpt lat="43.70718" lon="3.68855">
        <ele>207.40471344262</ele>
        <time>2020-08-08T08:10:12.000Z</time>
      </trkpt>
      <trkpt lat="43.70716" lon="3.68855">
        <ele>207.50717245902</ele>
        <time>2020-08-08T08:10:13.000Z</time>
      </trkpt>
      <trkpt lat="43.70713" lon="3.68854">
        <ele>207.60963147541</ele>
        <time>2020-08-08T08:10:14.000Z</time>
      </trkpt>
      <trkpt lat="43.70712" lon="3.68854">
        <ele>207.7120904918</ele>
        <time>2020-08-08T08:10:15.000Z</time>
      </trkpt>
      <trkpt lat="43.7071" lon="3.68855">
        <ele>207.8145495082</ele>
        <time>2020-08-08T08:10:16.000Z</time>
      </trkpt>
      <trkpt lat="43.70708" lon="3.68855">
        <ele>207.91700852459</ele>
        <time>2020-08-08T08:10:17.000Z</time>
      </trkpt>
      <trkpt lat="43.70706" lon="3.68856">
        <ele>208</ele>
        <time>2020-08-08T08:10:18.000Z</time>
      </trkpt>
      <trkpt lat="43.70704" lon="3.68857">
        <ele>208</ele>
        <time>2020-08-08T08:10:20.000Z</time>
      </trkpt>
      <trkpt lat="43.70704" lon="3.68858">
        <ele>208</ele>
        <time>2020-08-08T08:10:27.000Z</time>
      </trkpt>
      <trkpt lat="43.70697" lon="3.68864">
        <ele>208</ele>
        <time>2020-08-08T08:10:46.000Z</time>
      </trkpt>
      <trkpt lat="43.70696" lon="3.68866">
        <ele>208.07391703375</ele>
        <time>2020-08-08T08:10:47.000Z</time>
      </trkpt>
      <trkpt lat="43.70695" lon="3.6887">
        <ele>208.28511048966</ele>
        <time>2020-08-08T08:10:49.000Z</time>
      </trkpt>
      <trkpt lat="43.70696" lon="3.68875">
        <ele>208.49630394557</ele>
        <time>2020-08-08T08:10:51.000Z</time>
      </trkpt>
      <trkpt lat="43.70697" lon="3.68878">
        <ele>208.60190067352</ele>
        <time>2020-08-08T08:10:52.000Z</time>
      </trkpt>
      <trkpt lat="43.70698" lon="3.68881">
        <ele>208.70749740148</ele>
        <time>2020-08-08T08:10:53.000Z</time>
      </trkpt>
      <trkpt lat="43.70699" lon="3.68884">
        <ele>208.81309412943</ele>
        <time>2020-08-08T08:10:54.000Z</time>
      </trkpt>
      <trkpt lat="43.70699" lon="3.68886">
        <ele>208.91869085739</ele>
        <time>2020-08-08T08:10:55.000Z</time>
      </trkpt>
      <trkpt lat="43.707" lon="3.68889">
        <ele>208.97766960611</ele>
        <time>2020-08-08T08:10:56.000Z</time>
      </trkpt>
      <trkpt lat="43.70701" lon="3.68891">
        <ele>208.88058228779</ele>
        <time>2020-08-08T08:10:57.000Z</time>
      </trkpt>
      <trkpt lat="43.70702" lon="3.68894">
        <ele>208.78349496948</ele>
        <time>2020-08-08T08:10:58.000Z</time>
      </trkpt>
      <trkpt lat="43.70703" lon="3.68896">
        <ele>208.68640765116</ele>
        <time>2020-08-08T08:10:59.000Z</time>
      </trkpt>
      <trkpt lat="43.70704" lon="3.68899">
        <ele>208.58932033285</ele>
        <time>2020-08-08T08:11:00.000Z</time>
      </trkpt>
      <trkpt lat="43.70705" lon="3.68901">
        <ele>208.49223301454</ele>
        <time>2020-08-08T08:11:01.000Z</time>
      </trkpt>
      <trkpt lat="43.70705" lon="3.68904">
        <ele>208.39514569622</ele>
        <time>2020-08-08T08:11:02.000Z</time>
      </trkpt>
      <trkpt lat="43.70705" lon="3.68907">
        <ele>208.2980583779</ele>
        <time>2020-08-08T08:11:03.000Z</time>
      </trkpt>
      <trkpt lat="43.70706" lon="3.6891">
        <ele>208.20097105959</ele>
        <time>2020-08-08T08:11:04.000Z</time>
      </trkpt>
      <trkpt lat="43.70705" lon="3.68913">
        <ele>208.10388374128</ele>
        <time>2020-08-08T08:11:05.000Z</time>
      </trkpt>
      <trkpt lat="43.70705" lon="3.68915">
        <ele>208.00679642296</ele>
        <time>2020-08-08T08:11:06.000Z</time>
      </trkpt>
      <trkpt lat="43.70705" lon="3.68918">
        <ele>208.09587602202</ele>
        <time>2020-08-08T08:11:07.000Z</time>
      </trkpt>
      <trkpt lat="43.70704" lon="3.68921">
        <ele>208.19896887355</ele>
        <time>2020-08-08T08:11:08.000Z</time>
      </trkpt>
      <trkpt lat="43.70704" lon="3.68925">
        <ele>208.30206172507</ele>
        <time>2020-08-08T08:11:09.000Z</time>
      </trkpt>
      <trkpt lat="43.70703" lon="3.68928">
        <ele>208.4051545766</ele>
        <time>2020-08-08T08:11:10.000Z</time>
      </trkpt>
      <trkpt lat="43.70702" lon="3.68931">
        <ele>208.50824742812</ele>
        <time>2020-08-08T08:11:11.000Z</time>
      </trkpt>
      <trkpt lat="43.70701" lon="3.68934">
        <ele>208.61134027965</ele>
        <time>2020-08-08T08:11:12.000Z</time>
      </trkpt>
      <trkpt lat="43.70699" lon="3.68937">
        <ele>208.71443313117</ele>
        <time>2020-08-08T08:11:13.000Z</time>
      </trkpt>
      <trkpt lat="43.70698" lon="3.6894">
        <ele>208.8175259827</ele>
        <time>2020-08-08T08:11:14.000Z</time>
      </trkpt>
      <trkpt lat="43.70698" lon="3.68943">
        <ele>208.92061883422</ele>
        <time>2020-08-08T08:11:15.000Z</time>
      </trkpt>
      <trkpt lat="43.70697" lon="3.68945">
        <ele>209</ele>
        <time>2020-08-08T08:11:16.000Z</time>
      </trkpt>
      <trkpt lat="43.70696" lon="3.68948">
        <ele>209</ele>
        <time>2020-08-08T08:11:17.000Z</time>
      </trkpt>
      <trkpt lat="43.70695" lon="3.68951">
        <ele>209</ele>
        <time>2020-08-08T08:11:18.000Z</time>
      </trkpt>
      <trkpt lat="43.70695" lon="3.68955">
        <ele>209</ele>
        <time>2020-08-08T08:11:19.000Z</time>
      </trkpt>
      <trkpt lat="43.70694" lon="3.68958">
        <ele>209</ele>
        <time>2020-08-08T08:11:20.000Z</time>
      </trkpt>
      <trkpt lat="43.70693" lon="3.68961">
        <ele>209</ele>
        <time>2020-08-08T08:11:21.000Z</time>
      </trkpt>
      <trkpt lat="43.70692" lon="3.68964">
        <ele>209</ele>
        <time>2020-08-08T08:11:22.000Z</time>
      </trkpt>
      <trkpt lat="43.70691" lon="3.68968">
        <ele>209</ele>
        <time>2020-08-08T08:11:23.000Z</time>
      </trkpt>
      <trkpt lat="43.7069" lon="3.6897">
        <ele>209</ele>
        <time>2020-08-08T08:11:24.000Z</time>
      </trkpt>
      <trkpt lat="43.70688" lon="3.68973">
        <ele>209</ele>
        <time>2020-08-08T08:11:25.000Z</time>
      </trkpt>
      <trkpt lat="43.70686" lon="3.68976">
        <ele>209</ele>
        <time>2020-08-08T08:11:26.000Z</time>
      </trkpt>
      <trkpt lat="43.70685" lon="3.68978">
        <ele>209</ele>
        <time>2020-08-08T08:11:27.000Z</time>
      </trkpt>
      <trkpt lat="43.70683" lon="3.68981">
        <ele>209</ele>
        <time>2020-08-08T08:11:28.000Z</time>
      </trkpt>
      <trkpt lat="43.70683" lon="3.68984">
        <ele>209</ele>
        <time>2020-08-08T08:11:29.000Z</time>
      </trkpt>
      <trkpt lat="43.70681" lon="3.68987">
        <ele>209</ele>
        <time>2020-08-08T08:11:30.000Z</time>
      </trkpt>
      <trkpt lat="43.7068" lon="3.6899">
        <ele>209</ele>
        <time>2020-08-08T08:11:31.000Z</time>
      </trkpt>
      <trkpt lat="43.70679" lon="3.68992">
        <ele>209</ele>
        <time>2020-08-08T08:11:32.000Z</time>
      </trkpt>
      <trkpt lat="43.70677" lon="3.68994">
        <ele>209</ele>
        <time>2020-08-08T08:11:33.000Z</time>
      </trkpt>
      <trkpt lat="43.70676" lon="3.68997">
        <ele>209</ele>
        <time>2020-08-08T08:11:34.000Z</time>
      </trkpt>
      <trkpt lat="43.70674" lon="3.69">
        <ele>209</ele>
        <time>2020-08-08T08:11:35.000Z</time>
      </trkpt>
      <trkpt lat="43.70672" lon="3.69002">
        <ele>209</ele>
        <time>2020-08-08T08:11:36.000Z</time>
      </trkpt>
      <trkpt lat="43.7067" lon="3.69005">
        <ele>209</ele>
        <time>2020-08-08T08:11:37.000Z</time>
      </trkpt>
      <trkpt lat="43.70667" lon="3.69007">
        <ele>209</ele>
        <time>2020-08-08T08:11:38.000Z</time>
      </trkpt>
      <trkpt lat="43.70665" lon="3.69009">
        <ele>209</ele>
        <time>2020-08-08T08:11:39.000Z</time>
      </trkpt>
      <trkpt lat="43.70663" lon="3.69012">
        <ele>209</ele>
        <time>2020-08-08T08:11:40.000Z</time>
      </trkpt>
      <trkpt lat="43.70662" lon="3.69014">
        <ele>209</ele>
        <time>2020-08-08T08:11:41.000Z</time>
      </trkpt>
      <trkpt lat="43.7066" lon="3.69016">
        <ele>209</ele>
        <time>2020-08-08T08:11:42.000Z</time>
      </trkpt>
      <trkpt lat="43.70658" lon="3.69019">
        <ele>209</ele>
        <time>2020-08-08T08:11:44.000Z</time>
      </trkpt>
      <trkpt lat="43.70657" lon="3.69023">
        <ele>209</ele>
        <time>2020-08-08T08:11:46.000Z</time>
      </trkpt>
      <trkpt lat="43.70655" lon="3.69027">
        <ele>209</ele>
        <time>2020-08-08T08:11:48.000Z</time>
      </trkpt>
      <trkpt lat="43.70655" lon="3.6903">
        <ele>209</ele>
        <time>2020-08-08T08:11:49.000Z</time>
      </trkpt>
      <trkpt lat="43.70654" lon="3.69032">
        <ele>209</ele>
        <time>2020-08-08T08:11:50.000Z</time>
      </trkpt>
      <trkpt lat="43.70654" lon="3.69034">
        <ele>209</ele>
        <time>2020-08-08T08:11:55.000Z</time>
      </trkpt>
      <trkpt lat="43.70653" lon="3.69044">
        <ele>208.00959099744</ele>
        <time>2020-08-08T08:12:26.000Z</time>
      </trkpt>
      <trkpt lat="43.70653" lon="3.69047">
        <ele>208</ele>
        <time>2020-08-08T08:12:27.000Z</time>
      </trkpt>
      <trkpt lat="43.70653" lon="3.6905">
        <ele>208</ele>
        <time>2020-08-08T08:12:28.000Z</time>
      </trkpt>
      <trkpt lat="43.70653" lon="3.69053">
        <ele>208</ele>
        <time>2020-08-08T08:12:29.000Z</time>
      </trkpt>
      <trkpt lat="43.70653" lon="3.69056">
        <ele>208</ele>
        <time>2020-08-08T08:12:30.000Z</time>
      </trkpt>
      <trkpt lat="43.70653" lon="3.69059">
        <ele>208</ele>
        <time>2020-08-08T08:12:31.000Z</time>
      </trkpt>
      <trkpt lat="43.70653" lon="3.69062">
        <ele>208</ele>
        <time>2020-08-08T08:12:32.000Z</time>
      </trkpt>
      <trkpt lat="43.70653" lon="3.69065">
        <ele>208</ele>
        <time>2020-08-08T08:12:33.000Z</time>
      </trkpt>
      <trkpt lat="43.70653" lon="3.69067">
        <ele>208</ele>
        <time>2020-08-08T08:12:34.000Z</time>
      </trkpt>
      <trkpt lat="43.70653" lon="3.6907">
        <ele>208</ele>
        <time>2020-08-08T08:12:35.000Z</time>
      </trkpt>
      <trkpt lat="43.70652" lon="3.69073">
        <ele>207.97813657795</ele>
        <time>2020-08-08T08:12:36.000Z</time>
      </trkpt>
      <trkpt lat="43.70652" lon="3.69075">
        <ele>207.88307954373</ele>
        <time>2020-08-08T08:12:37.000Z</time>
      </trkpt>
      <trkpt lat="43.70652" lon="3.69079">
        <ele>207.69296547529</ele>
        <time>2020-08-08T08:12:39.000Z</time>
      </trkpt>
      <trkpt lat="43.70652" lon="3.69082">
        <ele>207.50285140684</ele>
        <time>2020-08-08T08:12:41.000Z</time>
      </trkpt>
      <trkpt lat="43.70652" lon="3.69087">
        <ele>207.3127373384</ele>
        <time>2020-08-08T08:12:43.000Z</time>
      </trkpt>
      <trkpt lat="43.70652" lon="3.6909">
        <ele>207.12262326996</ele>
        <time>2020-08-08T08:12:45.000Z</time>
      </trkpt>
      <trkpt lat="43.70653" lon="3.69093">
        <ele>207</ele>
        <time>2020-08-08T08:12:47.000Z</time>
      </trkpt>
      <trkpt lat="43.70653" lon="3.69094">
        <ele>207</ele>
        <time>2020-08-08T08:12:53.000Z</time>
      </trkpt>
      <trkpt lat="43.70653" lon="3.69104">
        <ele>206.92902508475</ele>
        <time>2020-08-08T08:13:47.000Z</time>
      </trkpt>
      <trkpt lat="43.70653" lon="3.69106">
        <ele>206.82309288136</ele>
        <time>2020-08-08T08:13:48.000Z</time>
      </trkpt>
      <trkpt lat="43.70652" lon="3.69109">
        <ele>206.71716067797</ele>
        <time>2020-08-08T08:13:49.000Z</time>
      </trkpt>
      <trkpt lat="43.70652" lon="3.69111">
        <ele>206.61122847458</ele>
        <time>2020-08-08T08:13:50.000Z</time>
      </trkpt>
      <trkpt lat="43.70651" lon="3.69114">
        <ele>206.50529627119</ele>
        <time>2020-08-08T08:13:51.000Z</time>
      </trkpt>
      <trkpt lat="43.7065" lon="3.69116">
        <ele>206.3993640678</ele>
        <time>2020-08-08T08:13:52.000Z</time>
      </trkpt>
      <trkpt lat="43.70649" lon="3.69119">
        <ele>206.29343186441</ele>
        <time>2020-08-08T08:13:53.000Z</time>
      </trkpt>
      <trkpt lat="43.70648" lon="3.69123">
        <ele>206.08156745763</ele>
        <time>2020-08-08T08:13:55.000Z</time>
      </trkpt>
      <trkpt lat="43.70648" lon="3.69126">
        <ele>205.82676026884</ele>
        <time>2020-08-08T08:13:57.000Z</time>
      </trkpt>
      <trkpt lat="43.70649" lon="3.69126">
        <ele>205</ele>
        <time>2020-08-08T08:14:03.000Z</time>
      </trkpt>
      <trkpt lat="43.70649" lon="3.6912">
        <ele>203.00108601866</ele>
        <time>2020-08-08T08:14:40.000Z</time>
      </trkpt>
      <trkpt lat="43.70649" lon="3.69117">
        <ele>203.20225853126</ele>
        <time>2020-08-08T08:14:42.000Z</time>
      </trkpt>
      <trkpt lat="43.7065" lon="3.69114">
        <ele>203.5102669472</ele>
        <time>2020-08-08T08:14:45.000Z</time>
      </trkpt>
      <trkpt lat="43.7065" lon="3.69112">
        <ele>203.71560589116</ele>
        <time>2020-08-08T08:14:47.000Z</time>
      </trkpt>
      <trkpt lat="43.70651" lon="3.69109">
        <ele>203.92094483512</ele>
        <time>2020-08-08T08:14:49.000Z</time>
      </trkpt>
      <trkpt lat="43.70651" lon="3.69107">
        <ele>204.11965011673</ele>
        <time>2020-08-08T08:14:51.000Z</time>
      </trkpt>
      <trkpt lat="43.70652" lon="3.69104">
        <ele>204.31420264591</ele>
        <time>2020-08-08T08:14:53.000Z</time>
      </trkpt>
      <trkpt lat="43.70652" lon="3.691">
        <ele>204.5087551751</ele>
        <time>2020-08-08T08:14:55.000Z</time>
      </trkpt>
      <trkpt lat="43.70653" lon="3.69098">
        <ele>204.70330770428</ele>
        <time>2020-08-08T08:14:57.000Z</time>
      </trkpt>
      <trkpt lat="43.70652" lon="3.69095">
        <ele>204.89786023346</ele>
        <time>2020-08-08T08:14:59.000Z</time>
      </trkpt>
      <trkpt lat="43.70652" lon="3.69092">
        <ele>205.10602714286</ele>
        <time>2020-08-08T08:15:01.000Z</time>
      </trkpt>
      <trkpt lat="43.70652" lon="3.6909">
        <ele>205.32924142857</ele>
        <time>2020-08-08T08:15:03.000Z</time>
      </trkpt>
      <trkpt lat="43.70652" lon="3.69087">
        <ele>205.99888428571</ele>
        <time>2020-08-08T08:15:09.000Z</time>
      </trkpt>
      <trkpt lat="43.70652" lon="3.69078">
        <ele>206</ele>
        <time>2020-08-08T08:15:13.000Z</time>
      </trkpt>
      <trkpt lat="43.70652" lon="3.69075">
        <ele>206</ele>
        <time>2020-08-08T08:15:14.000Z</time>
      </trkpt>
      <trkpt lat="43.70652" lon="3.69073">
        <ele>206</ele>
        <time>2020-08-08T08:15:15.000Z</time>
      </trkpt>
      <trkpt lat="43.70652" lon="3.69068">
        <ele>206</ele>
        <time>2020-08-08T08:15:17.000Z</time>
      </trkpt>
      <trkpt lat="43.70652" lon="3.69064">
        <ele>206</ele>
        <time>2020-08-08T08:15:19.000Z</time>
      </trkpt>
      <trkpt lat="43.70652" lon="3.69059">
        <ele>206</ele>
        <time>2020-08-08T08:15:21.000Z</time>
      </trkpt>
      <trkpt lat="43.70653" lon="3.69055">
        <ele>206.11966173835</ele>
        <time>2020-08-08T08:15:23.000Z</time>
      </trkpt>
      <trkpt lat="43.70653" lon="3.69051">
        <ele>206.31423316443</ele>
        <time>2020-08-08T08:15:25.000Z</time>
      </trkpt>
      <trkpt lat="43.70653" lon="3.69047">
        <ele>206.50880459052</ele>
        <time>2020-08-08T08:15:27.000Z</time>
      </trkpt>
      <trkpt lat="43.70652" lon="3.69043">
        <ele>206.7033760166</ele>
        <time>2020-08-08T08:15:29.000Z</time>
      </trkpt>
      <trkpt lat="43.70653" lon="3.69039">
        <ele>206.89794744268</ele>
        <time>2020-08-08T08:15:31.000Z</time>
      </trkpt>
      <trkpt lat="43.70652" lon="3.69036">
        <ele>207</ele>
        <time>2020-08-08T08:15:33.000Z</time>
      </trkpt>
      <trkpt lat="43.70653" lon="3.69033">
        <ele>207</ele>
        <time>2020-08-08T08:15:35.000Z</time>
      </trkpt>
      <trkpt lat="43.70653" lon="3.69032">
        <ele>207</ele>
        <time>2020-08-08T08:15:41.000Z</time>
      </trkpt>
      <trkpt lat="43.70645" lon="3.69038">
        <ele>207</ele>
        <time>2020-08-08T08:16:48.000Z</time>
      </trkpt>
      <trkpt lat="43.70641" lon="3.69041">
        <ele>207</ele>
        <time>2020-08-08T08:16:50.000Z</time>
      </trkpt>
      <trkpt lat="43.7064" lon="3.69043">
        <ele>207</ele>
        <time>2020-08-08T08:16:51.000Z</time>
      </trkpt>
      <trkpt lat="43.70638" lon="3.69046">
        <ele>207</ele>
        <time>2020-08-08T08:16:52.000Z</time>
      </trkpt>
      <trkpt lat="43.70636" lon="3.69048">
        <ele>207</ele>
        <time>2020-08-08T08:16:53.000Z</time>
      </trkpt>
      <trkpt lat="43.70634" lon="3.69051">
        <ele>207</ele>
        <time>2020-08-08T08:16:54.000Z</time>
      </trkpt>
      <trkpt lat="43.70632" lon="3.69054">
        <ele>207</ele>
        <time>2020-08-08T08:16:55.000Z</time>
      </trkpt>
      <trkpt lat="43.7063" lon="3.69057">
        <ele>207</ele>
        <time>2020-08-08T08:16:56.000Z</time>
      </trkpt>
      <trkpt lat="43.70627" lon="3.6906">
        <ele>207</ele>
        <time>2020-08-08T08:16:57.000Z</time>
      </trkpt>
      <trkpt lat="43.70625" lon="3.69064">
        <ele>207</ele>
        <time>2020-08-08T08:16:58.000Z</time>
      </trkpt>
      <trkpt lat="43.70624" lon="3.69067">
        <ele>207</ele>
        <time>2020-08-08T08:16:59.000Z</time>
      </trkpt>
      <trkpt lat="43.70622" lon="3.6907">
        <ele>207</ele>
        <time>2020-08-08T08:17:00.000Z</time>
      </trkpt>
      <trkpt lat="43.70619" lon="3.69073">
        <ele>207</ele>
        <time>2020-08-08T08:17:01.000Z</time>
      </trkpt>
      <trkpt lat="43.70617" lon="3.69076">
        <ele>207</ele>
        <time>2020-08-08T08:17:02.000Z</time>
      </trkpt>
      <trkpt lat="43.70614" lon="3.69078">
        <ele>207</ele>
        <time>2020-08-08T08:17:03.000Z</time>
      </trkpt>
      <trkpt lat="43.70611" lon="3.69081">
        <ele>207</ele>
        <time>2020-08-08T08:17:04.000Z</time>
      </trkpt>
      <trkpt lat="43.70607" lon="3.69084">
        <ele>207</ele>
        <time>2020-08-08T08:17:05.000Z</time>
      </trkpt>
      <trkpt lat="43.70604" lon="3.69087">
        <ele>207</ele>
        <time>2020-08-08T08:17:06.000Z</time>
      </trkpt>
      <trkpt lat="43.706" lon="3.6909">
        <ele>207</ele>
        <time>2020-08-08T08:17:07.000Z</time>
      </trkpt>
      <trkpt lat="43.70597" lon="3.69094">
        <ele>207</ele>
        <time>2020-08-08T08:17:08.000Z</time>
      </trkpt>
      <trkpt lat="43.70593" lon="3.69097">
        <ele>207</ele>
        <time>2020-08-08T08:17:09.000Z</time>
      </trkpt>
      <trkpt lat="43.70589" lon="3.69101">
        <ele>207</ele>
        <time>2020-08-08T08:17:10.000Z</time>
      </trkpt>
      <trkpt lat="43.70586" lon="3.69104">
        <ele>207</ele>
        <time>2020-08-08T08:17:11.000Z</time>
      </trkpt>
      <trkpt lat="43.70582" lon="3.69107">
        <ele>207</ele>
        <time>2020-08-08T08:17:12.000Z</time>
      </trkpt>
      <trkpt lat="43.70579" lon="3.6911">
        <ele>207</ele>
        <time>2020-08-08T08:17:13.000Z</time>
      </trkpt>
      <trkpt lat="43.70575" lon="3.69113">
        <ele>207</ele>
        <time>2020-08-08T08:17:14.000Z</time>
      </trkpt>
      <trkpt lat="43.70572" lon="3.69117">
        <ele>207</ele>
        <time>2020-08-08T08:17:15.000Z</time>
      </trkpt>
      <trkpt lat="43.70569" lon="3.69121">
        <ele>207</ele>
        <time>2020-08-08T08:17:16.000Z</time>
      </trkpt>
      <trkpt lat="43.70566" lon="3.69124">
        <ele>207</ele>
        <time>2020-08-08T08:17:17.000Z</time>
      </trkpt>
      <trkpt lat="43.70563" lon="3.69128">
        <ele>207.02300032</ele>
        <time>2020-08-08T08:17:18.000Z</time>
      </trkpt>
      <trkpt lat="43.70559" lon="3.69132">
        <ele>207.12300032</ele>
        <time>2020-08-08T08:17:19.000Z</time>
      </trkpt>
      <trkpt lat="43.70556" lon="3.69135">
        <ele>207.22300032</ele>
        <time>2020-08-08T08:17:20.000Z</time>
      </trkpt>
      <trkpt lat="43.70552" lon="3.69138">
        <ele>207.32300032</ele>
        <time>2020-08-08T08:17:21.000Z</time>
      </trkpt>
      <trkpt lat="43.70548" lon="3.69141">
        <ele>207.42300032</ele>
        <time>2020-08-08T08:17:22.000Z</time>
      </trkpt>
      <trkpt lat="43.70545" lon="3.69143">
        <ele>207.52300032</ele>
        <time>2020-08-08T08:17:23.000Z</time>
      </trkpt>
      <trkpt lat="43.70541" lon="3.69146">
        <ele>207.62300032</ele>
        <time>2020-08-08T08:17:24.000Z</time>
      </trkpt>
      <trkpt lat="43.70537" lon="3.69148">
        <ele>207.72300032</ele>
        <time>2020-08-08T08:17:25.000Z</time>
      </trkpt>
      <trkpt lat="43.70534" lon="3.6915">
        <ele>207.82300032</ele>
        <time>2020-08-08T08:17:26.000Z</time>
      </trkpt>
      <trkpt lat="43.7053" lon="3.6915">
        <ele>207.92300032</ele>
        <time>2020-08-08T08:17:27.000Z</time>
      </trkpt>
      <trkpt lat="43.70527" lon="3.69149">
        <ele>208</ele>
        <time>2020-08-08T08:17:28.000Z</time>
      </trkpt>
      <trkpt lat="43.70524" lon="3.69146">
        <ele>208</ele>
        <time>2020-08-08T08:17:29.000Z</time>
      </trkpt>
      <trkpt lat="43.70522" lon="3.69144">
        <ele>208</ele>
        <time>2020-08-08T08:17:30.000Z</time>
      </trkpt>
      <trkpt lat="43.70519" lon="3.69143">
        <ele>208</ele>
        <time>2020-08-08T08:17:31.000Z</time>
      </trkpt>
      <trkpt lat="43.70516" lon="3.69142">
        <ele>208</ele>
        <time>2020-08-08T08:17:32.000Z</time>
      </trkpt>
      <trkpt lat="43.70513" lon="3.69141">
        <ele>208</ele>
        <time>2020-08-08T08:17:33.000Z</time>
      </trkpt>
      <trkpt lat="43.70511" lon="3.69141">
        <ele>208</ele>
        <time>2020-08-08T08:17:34.000Z</time>
      </trkpt>
      <trkpt lat="43.70509" lon="3.6914">
        <ele>208</ele>
        <time>2020-08-08T08:17:35.000Z</time>
      </trkpt>
      <trkpt lat="43.70506" lon="3.6914">
        <ele>208</ele>
        <time>2020-08-08T08:17:36.000Z</time>
      </trkpt>
      <trkpt lat="43.70504" lon="3.6914">
        <ele>208</ele>
        <time>2020-08-08T08:17:37.000Z</time>
      </trkpt>
      <trkpt lat="43.70502" lon="3.6914">
        <ele>208</ele>
        <time>2020-08-08T08:17:38.000Z</time>
      </trkpt>
      <trkpt lat="43.70499" lon="3.69139">
        <ele>208</ele>
        <time>2020-08-08T08:17:39.000Z</time>
      </trkpt>
      <trkpt lat="43.70497" lon="3.69138">
        <ele>208</ele>
        <time>2020-08-08T08:17:40.000Z</time>
      </trkpt>
      <trkpt lat="43.70494" lon="3.69138">
        <ele>208</ele>
        <time>2020-08-08T08:17:41.000Z</time>
      </trkpt>
      <trkpt lat="43.70492" lon="3.69137">
        <ele>208</ele>
        <time>2020-08-08T08:17:42.000Z</time>
      </trkpt>
      <trkpt lat="43.7049" lon="3.69137">
        <ele>208</ele>
        <time>2020-08-08T08:17:43.000Z</time>
      </trkpt>
      <trkpt lat="43.70487" lon="3.69138">
        <ele>208</ele>
        <time>2020-08-08T08:17:44.000Z</time>
      </trkpt>
      <trkpt lat="43.70485" lon="3.69138">
        <ele>208</ele>
        <time>2020-08-08T08:17:45.000Z</time>
      </trkpt>
      <trkpt lat="43.70482" lon="3.69138">
        <ele>208</ele>
        <time>2020-08-08T08:17:46.000Z</time>
      </trkpt>
      <trkpt lat="43.70479" lon="3.69138">
        <ele>208</ele>
        <time>2020-08-08T08:17:47.000Z</time>
      </trkpt>
      <trkpt lat="43.70477" lon="3.69138">
        <ele>208.01917494535</ele>
        <time>2020-08-08T08:17:48.000Z</time>
      </trkpt>
      <trkpt lat="43.70474" lon="3.69139">
        <ele>208.11956648844</ele>
        <time>2020-08-08T08:17:49.000Z</time>
      </trkpt>
      <trkpt lat="43.70471" lon="3.69139">
        <ele>208.21995803152</ele>
        <time>2020-08-08T08:17:50.000Z</time>
      </trkpt>
      <trkpt lat="43.70468" lon="3.6914">
        <ele>208.3203495746</ele>
        <time>2020-08-08T08:17:51.000Z</time>
      </trkpt>
      <trkpt lat="43.70466" lon="3.69141">
        <ele>208.42074111768</ele>
        <time>2020-08-08T08:17:52.000Z</time>
      </trkpt>
      <trkpt lat="43.70463" lon="3.69142">
        <ele>208.52113266076</ele>
        <time>2020-08-08T08:17:53.000Z</time>
      </trkpt>
      <trkpt lat="43.70461" lon="3.69142">
        <ele>208.62152420384</ele>
        <time>2020-08-08T08:17:54.000Z</time>
      </trkpt>
      <trkpt lat="43.70459" lon="3.69141">
        <ele>208.72191574692</ele>
        <time>2020-08-08T08:17:55.000Z</time>
      </trkpt>
      <trkpt lat="43.70456" lon="3.6914">
        <ele>208.82230729</ele>
        <time>2020-08-08T08:17:56.000Z</time>
      </trkpt>
      <trkpt lat="43.70454" lon="3.69139">
        <ele>208.92269883308</ele>
        <time>2020-08-08T08:17:57.000Z</time>
      </trkpt>
      <trkpt lat="43.70452" lon="3.69139">
        <ele>209.02291096358</ele>
        <time>2020-08-08T08:17:58.000Z</time>
      </trkpt>
      <trkpt lat="43.70449" lon="3.69139">
        <ele>209.12252246279</ele>
        <time>2020-08-08T08:17:59.000Z</time>
      </trkpt>
      <trkpt lat="43.70447" lon="3.6914">
        <ele>209.22213396201</ele>
        <time>2020-08-08T08:18:00.000Z</time>
      </trkpt>
      <trkpt lat="43.70444" lon="3.69141">
        <ele>209.32174546122</ele>
        <time>2020-08-08T08:18:01.000Z</time>
      </trkpt>
      <trkpt lat="43.70441" lon="3.69143">
        <ele>209.42135696044</ele>
        <time>2020-08-08T08:18:02.000Z</time>
      </trkpt>
      <trkpt lat="43.70438" lon="3.69144">
        <ele>209.52096845965</ele>
        <time>2020-08-08T08:18:03.000Z</time>
      </trkpt>
      <trkpt lat="43.70434" lon="3.69144">
        <ele>209.62057995887</ele>
        <time>2020-08-08T08:18:04.000Z</time>
      </trkpt>
      <trkpt lat="43.70431" lon="3.69143">
        <ele>209.72019145808</ele>
        <time>2020-08-08T08:18:05.000Z</time>
      </trkpt>
      <trkpt lat="43.70428" lon="3.69142">
        <ele>209.8198029573</ele>
        <time>2020-08-08T08:18:06.000Z</time>
      </trkpt>
      <trkpt lat="43.70426" lon="3.69143">
        <ele>209.91941445651</ele>
        <time>2020-08-08T08:18:07.000Z</time>
      </trkpt>
      <trkpt lat="43.70423" lon="3.69142">
        <ele>209.98082505465</ele>
        <time>2020-08-08T08:18:08.000Z</time>
      </trkpt>
      <trkpt lat="43.70421" lon="3.69141">
        <ele>209.88043351156</ele>
        <time>2020-08-08T08:18:09.000Z</time>
      </trkpt>
      <trkpt lat="43.70419" lon="3.6914">
        <ele>209.78004196848</ele>
        <time>2020-08-08T08:18:10.000Z</time>
      </trkpt>
      <trkpt lat="43.70416" lon="3.69141">
        <ele>209.6796504254</ele>
        <time>2020-08-08T08:18:11.000Z</time>
      </trkpt>
      <trkpt lat="43.70414" lon="3.69141">
        <ele>209.57925888232</ele>
        <time>2020-08-08T08:18:12.000Z</time>
      </trkpt>
      <trkpt lat="43.70411" lon="3.69142">
        <ele>209.47886733924</ele>
        <time>2020-08-08T08:18:13.000Z</time>
      </trkpt>
      <trkpt lat="43.70409" lon="3.69143">
        <ele>209.37847579616</ele>
        <time>2020-08-08T08:18:14.000Z</time>
      </trkpt>
      <trkpt lat="43.70406" lon="3.69146">
        <ele>209.27808425308</ele>
        <time>2020-08-08T08:18:15.000Z</time>
      </trkpt>
      <trkpt lat="43.70404" lon="3.69147">
        <ele>209.17769271</ele>
        <time>2020-08-08T08:18:16.000Z</time>
      </trkpt>
      <trkpt lat="43.70402" lon="3.69148">
        <ele>209.07730116692</ele>
        <time>2020-08-08T08:18:17.000Z</time>
      </trkpt>
      <trkpt lat="43.70399" lon="3.69149">
        <ele>209</ele>
        <time>2020-08-08T08:18:18.000Z</time>
      </trkpt>
      <trkpt lat="43.70396" lon="3.6915">
        <ele>209</ele>
        <time>2020-08-08T08:18:19.000Z</time>
      </trkpt>
      <trkpt lat="43.70393" lon="3.69151">
        <ele>209</ele>
        <time>2020-08-08T08:18:20.000Z</time>
      </trkpt>
      <trkpt lat="43.7039" lon="3.69152">
        <ele>209</ele>
        <time>2020-08-08T08:18:21.000Z</time>
      </trkpt>
      <trkpt lat="43.70388" lon="3.69154">
        <ele>209</ele>
        <time>2020-08-08T08:18:22.000Z</time>
      </trkpt>
      <trkpt lat="43.70384" lon="3.69156">
        <ele>209</ele>
        <time>2020-08-08T08:18:23.000Z</time>
      </trkpt>
      <trkpt lat="43.70381" lon="3.69157">
        <ele>209</ele>
        <time>2020-08-08T08:18:24.000Z</time>
      </trkpt>
      <trkpt lat="43.70377" lon="3.69159">
        <ele>209</ele>
        <time>2020-08-08T08:18:25.000Z</time>
      </trkpt>
      <trkpt lat="43.70374" lon="3.69162">
        <ele>209</ele>
        <time>2020-08-08T08:18:26.000Z</time>
      </trkpt>
      <trkpt lat="43.7037" lon="3.69164">
        <ele>209</ele>
        <time>2020-08-08T08:18:27.000Z</time>
      </trkpt>
      <trkpt lat="43.70366" lon="3.69166">
        <ele>208.98082505465</ele>
        <time>2020-08-08T08:18:28.000Z</time>
      </trkpt>
      <trkpt lat="43.70363" lon="3.69167">
        <ele>208.88043351156</ele>
        <time>2020-08-08T08:18:29.000Z</time>
      </trkpt>
      <trkpt lat="43.7036" lon="3.69167">
        <ele>208.78004196848</ele>
        <time>2020-08-08T08:18:30.000Z</time>
      </trkpt>
      <trkpt lat="43.70357" lon="3.69166">
        <ele>208.6796504254</ele>
        <time>2020-08-08T08:18:31.000Z</time>
      </trkpt>
      <trkpt lat="43.70355" lon="3.69164">
        <ele>208.57925888232</ele>
        <time>2020-08-08T08:18:32.000Z</time>
      </trkpt>
      <trkpt lat="43.70352" lon="3.69162">
        <ele>208.47886733924</ele>
        <time>2020-08-08T08:18:33.000Z</time>
      </trkpt>
      <trkpt lat="43.70348" lon="3.6916">
        <ele>208.37847579616</ele>
        <time>2020-08-08T08:18:34.000Z</time>
      </trkpt>
      <trkpt lat="43.70344" lon="3.69157">
        <ele>208.27808425308</ele>
        <time>2020-08-08T08:18:35.000Z</time>
      </trkpt>
      <trkpt lat="43.70341" lon="3.69154">
        <ele>208.17769271</ele>
        <time>2020-08-08T08:18:36.000Z</time>
      </trkpt>
      <trkpt lat="43.70337" lon="3.69153">
        <ele>208.07730116692</ele>
        <time>2020-08-08T08:18:37.000Z</time>
      </trkpt>
      <trkpt lat="43.70333" lon="3.69152">
        <ele>207.97709131474</ele>
        <time>2020-08-08T08:18:38.000Z</time>
      </trkpt>
      <trkpt lat="43.70329" lon="3.69152">
        <ele>207.87748972112</ele>
        <time>2020-08-08T08:18:39.000Z</time>
      </trkpt>
      <trkpt lat="43.70325" lon="3.69153">
        <ele>207.77788812749</ele>
        <time>2020-08-08T08:18:40.000Z</time>
      </trkpt>
      <trkpt lat="43.70321" lon="3.69155">
        <ele>207.67828653386</ele>
        <time>2020-08-08T08:18:41.000Z</time>
      </trkpt>
      <trkpt lat="43.70318" lon="3.69157">
        <ele>207.57868494024</ele>
        <time>2020-08-08T08:18:42.000Z</time>
      </trkpt>
      <trkpt lat="43.70316" lon="3.69159">
        <ele>207.47908334661</ele>
        <time>2020-08-08T08:18:43.000Z</time>
      </trkpt>
      <trkpt lat="43.70314" lon="3.6916">
        <ele>207.37948175299</ele>
        <time>2020-08-08T08:18:44.000Z</time>
      </trkpt>
      <trkpt lat="43.70311" lon="3.69162">
        <ele>207.18027856574</ele>
        <time>2020-08-08T08:18:46.000Z</time>
      </trkpt>
      <trkpt lat="43.70311" lon="3.69164">
        <ele>207.08067697211</ele>
        <time>2020-08-08T08:18:47.000Z</time>
      </trkpt>
      <trkpt lat="43.7031" lon="3.69168">
        <ele>207</ele>
        <time>2020-08-08T08:18:48.000Z</time>
      </trkpt>
      <trkpt lat="43.70308" lon="3.69172">
        <ele>207</ele>
        <time>2020-08-08T08:18:49.000Z</time>
      </trkpt>
      <trkpt lat="43.70306" lon="3.69175">
        <ele>207</ele>
        <time>2020-08-08T08:18:50.000Z</time>
      </trkpt>
      <trkpt lat="43.70304" lon="3.69178">
        <ele>207</ele>
        <time>2020-08-08T08:18:51.000Z</time>
      </trkpt>
      <trkpt lat="43.70302" lon="3.69181">
        <ele>207</ele>
        <time>2020-08-08T08:18:52.000Z</time>
      </trkpt>
      <trkpt lat="43.70301" lon="3.69185">
        <ele>207</ele>
        <time>2020-08-08T08:18:53.000Z</time>
      </trkpt>
      <trkpt lat="43.70299" lon="3.69188">
        <ele>207</ele>
        <time>2020-08-08T08:18:54.000Z</time>
      </trkpt>
      <trkpt lat="43.70298" lon="3.6919">
        <ele>207</ele>
        <time>2020-08-08T08:18:55.000Z</time>
      </trkpt>
      <trkpt lat="43.70297" lon="3.69192">
        <ele>207</ele>
        <time>2020-08-08T08:18:56.000Z</time>
      </trkpt>
      <trkpt lat="43.70296" lon="3.69195">
        <ele>207</ele>
        <time>2020-08-08T08:18:57.000Z</time>
      </trkpt>
      <trkpt lat="43.70295" lon="3.69197">
        <ele>207.02300032</ele>
        <time>2020-08-08T08:18:58.000Z</time>
      </trkpt>
      <trkpt lat="43.70293" lon="3.69199">
        <ele>207.12300032</ele>
        <time>2020-08-08T08:18:59.000Z</time>
      </trkpt>
      <trkpt lat="43.70292" lon="3.69201">
        <ele>207.22300032</ele>
        <time>2020-08-08T08:19:00.000Z</time>
      </trkpt>
      <trkpt lat="43.70291" lon="3.69203">
        <ele>207.32300032</ele>
        <time>2020-08-08T08:19:01.000Z</time>
      </trkpt>
      <trkpt lat="43.70289" lon="3.69205">
        <ele>207.42300032</ele>
        <time>2020-08-08T08:19:02.000Z</time>
      </trkpt>
      <trkpt lat="43.70288" lon="3.69207">
        <ele>207.52300032</ele>
        <time>2020-08-08T08:19:03.000Z</time>
      </trkpt>
      <trkpt lat="43.70286" lon="3.69209">
        <ele>207.62300032</ele>
        <time>2020-08-08T08:19:04.000Z</time>
      </trkpt>
      <trkpt lat="43.70285" lon="3.69211">
        <ele>207.72300032</ele>
        <time>2020-08-08T08:19:05.000Z</time>
      </trkpt>
      <trkpt lat="43.70283" lon="3.69213">
        <ele>207.82300032</ele>
        <time>2020-08-08T08:19:06.000Z</time>
      </trkpt>
      <trkpt lat="43.70281" lon="3.69216">
        <ele>207.92300032</ele>
        <time>2020-08-08T08:19:07.000Z</time>
      </trkpt>
      <trkpt lat="43.7028" lon="3.69218">
        <ele>207.97489048035</ele>
        <time>2020-08-08T08:19:08.000Z</time>
      </trkpt>
      <trkpt lat="43.70278" lon="3.6922">
        <ele>207.86572017467</ele>
        <time>2020-08-08T08:19:09.000Z</time>
      </trkpt>
      <trkpt lat="43.70277" lon="3.69222">
        <ele>207.756549869</ele>
        <time>2020-08-08T08:19:10.000Z</time>
      </trkpt>
      <trkpt lat="43.70276" lon="3.69224">
        <ele>207.64737956332</ele>
        <time>2020-08-08T08:19:11.000Z</time>
      </trkpt>
      <trkpt lat="43.70274" lon="3.69228">
        <ele>207.42903895196</ele>
        <time>2020-08-08T08:19:13.000Z</time>
      </trkpt>
      <trkpt lat="43.70274" lon="3.69228">
        <ele>206.99945427178</ele>
        <time>2020-08-08T08:19:17.000Z</time>
      </trkpt>
      <trkpt lat="43.70272" lon="3.69241">
        <ele>205.0081834792</ele>
        <time>2020-08-08T08:20:30.000Z</time>
      </trkpt>
      <trkpt lat="43.70271" lon="3.69244">
        <ele>205</ele>
        <time>2020-08-08T08:20:31.000Z</time>
      </trkpt>
      <trkpt lat="43.7027" lon="3.69247">
        <ele>205</ele>
        <time>2020-08-08T08:20:32.000Z</time>
      </trkpt>
      <trkpt lat="43.70269" lon="3.6925">
        <ele>205</ele>
        <time>2020-08-08T08:20:33.000Z</time>
      </trkpt>
      <trkpt lat="43.70268" lon="3.69253">
        <ele>205</ele>
        <time>2020-08-08T08:20:34.000Z</time>
      </trkpt>
      <trkpt lat="43.70267" lon="3.69255">
        <ele>205</ele>
        <time>2020-08-08T08:20:35.000Z</time>
      </trkpt>
      <trkpt lat="43.70266" lon="3.69258">
        <ele>205</ele>
        <time>2020-08-08T08:20:36.000Z</time>
      </trkpt>
      <trkpt lat="43.70264" lon="3.69261">
        <ele>205</ele>
        <time>2020-08-08T08:20:37.000Z</time>
      </trkpt>
      <trkpt lat="43.70263" lon="3.69263">
        <ele>205</ele>
        <time>2020-08-08T08:20:38.000Z</time>
      </trkpt>
      <trkpt lat="43.70262" lon="3.69266">
        <ele>205</ele>
        <time>2020-08-08T08:20:39.000Z</time>
      </trkpt>
      <trkpt lat="43.7026" lon="3.69269">
        <ele>205.02300032</ele>
        <time>2020-08-08T08:20:40.000Z</time>
      </trkpt>
      <trkpt lat="43.70259" lon="3.69273">
        <ele>205.12300032</ele>
        <time>2020-08-08T08:20:41.000Z</time>
      </trkpt>
      <trkpt lat="43.70258" lon="3.69276">
        <ele>205.22300032</ele>
        <time>2020-08-08T08:20:42.000Z</time>
      </trkpt>
      <trkpt lat="43.70257" lon="3.6928">
        <ele>205.32300032</ele>
        <time>2020-08-08T08:20:43.000Z</time>
      </trkpt>
      <trkpt lat="43.70255" lon="3.69284">
        <ele>205.42300032</ele>
        <time>2020-08-08T08:20:44.000Z</time>
      </trkpt>
      <trkpt lat="43.70254" lon="3.69288">
        <ele>205.52300032</ele>
        <time>2020-08-08T08:20:45.000Z</time>
      </trkpt>
      <trkpt lat="43.70253" lon="3.69292">
        <ele>205.62300032</ele>
        <time>2020-08-08T08:20:46.000Z</time>
      </trkpt>
      <trkpt lat="43.70252" lon="3.69296">
        <ele>205.72300032</ele>
        <time>2020-08-08T08:20:47.000Z</time>
      </trkpt>
      <trkpt lat="43.70251" lon="3.69301">
        <ele>205.82300032</ele>
        <time>2020-08-08T08:20:48.000Z</time>
      </trkpt>
      <trkpt lat="43.70251" lon="3.69305">
        <ele>205.92300032</ele>
        <time>2020-08-08T08:20:49.000Z</time>
      </trkpt>
      <trkpt lat="43.7025" lon="3.69308">
        <ele>206</ele>
        <time>2020-08-08T08:20:50.000Z</time>
      </trkpt>
      <trkpt lat="43.70249" lon="3.69312">
        <ele>206</ele>
        <time>2020-08-08T08:20:51.000Z</time>
      </trkpt>
      <trkpt lat="43.70248" lon="3.69316">
        <ele>206</ele>
        <time>2020-08-08T08:20:52.000Z</time>
      </trkpt>
      <trkpt lat="43.70247" lon="3.6932">
        <ele>206</ele>
        <time>2020-08-08T08:20:53.000Z</time>
      </trkpt>
      <trkpt lat="43.70247" lon="3.69324">
        <ele>206</ele>
        <time>2020-08-08T08:20:54.000Z</time>
      </trkpt>
      <trkpt lat="43.70246" lon="3.69328">
        <ele>206</ele>
        <time>2020-08-08T08:20:55.000Z</time>
      </trkpt>
      <trkpt lat="43.70245" lon="3.69332">
        <ele>206</ele>
        <time>2020-08-08T08:20:56.000Z</time>
      </trkpt>
      <trkpt lat="43.70244" lon="3.69336">
        <ele>206</ele>
        <time>2020-08-08T08:20:57.000Z</time>
      </trkpt>
      <trkpt lat="43.70244" lon="3.6934">
        <ele>206</ele>
        <time>2020-08-08T08:20:58.000Z</time>
      </trkpt>
      <trkpt lat="43.70243" lon="3.69344">
        <ele>206</ele>
        <time>2020-08-08T08:20:59.000Z</time>
      </trkpt>
      <trkpt lat="43.70242" lon="3.69349">
        <ele>206.04600064</ele>
        <time>2020-08-08T08:21:00.000Z</time>
      </trkpt>
      <trkpt lat="43.70241" lon="3.69353">
        <ele>206.24600064</ele>
        <time>2020-08-08T08:21:01.000Z</time>
      </trkpt>
      <trkpt lat="43.7024" lon="3.69357">
        <ele>206.44600064</ele>
        <time>2020-08-08T08:21:02.000Z</time>
      </trkpt>
      <trkpt lat="43.70239" lon="3.69361">
        <ele>206.64600064</ele>
        <time>2020-08-08T08:21:03.000Z</time>
      </trkpt>
      <trkpt lat="43.70239" lon="3.69365">
        <ele>206.84600064</ele>
        <time>2020-08-08T08:21:04.000Z</time>
      </trkpt>
      <trkpt lat="43.70238" lon="3.69369">
        <ele>207.04600064</ele>
        <time>2020-08-08T08:21:05.000Z</time>
      </trkpt>
      <trkpt lat="43.70237" lon="3.69373">
        <ele>207.24600064</ele>
        <time>2020-08-08T08:21:06.000Z</time>
      </trkpt>
      <trkpt lat="43.70236" lon="3.69377">
        <ele>207.44600064</ele>
        <time>2020-08-08T08:21:07.000Z</time>
      </trkpt>
      <trkpt lat="43.70235" lon="3.69381">
        <ele>207.64600064</ele>
        <time>2020-08-08T08:21:08.000Z</time>
      </trkpt>
      <trkpt lat="43.70235" lon="3.69385">
        <ele>207.84600064</ele>
        <time>2020-08-08T08:21:09.000Z</time>
      </trkpt>
      <trkpt lat="43.70234" lon="3.69389">
        <ele>208.02286312661</ele>
        <time>2020-08-08T08:21:10.000Z</time>
      </trkpt>
      <trkpt lat="43.70233" lon="3.69394">
        <ele>208.1222666419</ele>
        <time>2020-08-08T08:21:11.000Z</time>
      </trkpt>
      <trkpt lat="43.70232" lon="3.69398">
        <ele>208.22167015719</ele>
        <time>2020-08-08T08:21:12.000Z</time>
      </trkpt>
      <trkpt lat="43.70231" lon="3.69402">
        <ele>208.32107367248</ele>
        <time>2020-08-08T08:21:13.000Z</time>
      </trkpt>
      <trkpt lat="43.7023" lon="3.69405">
        <ele>208.42047718777</ele>
        <time>2020-08-08T08:21:14.000Z</time>
      </trkpt>
      <trkpt lat="43.7023" lon="3.69409">
        <ele>208.51988070306</ele>
        <time>2020-08-08T08:21:15.000Z</time>
      </trkpt>
      <trkpt lat="43.70229" lon="3.69413">
        <ele>208.61928421835</ele>
        <time>2020-08-08T08:21:16.000Z</time>
      </trkpt>
      <trkpt lat="43.70228" lon="3.69417">
        <ele>208.71868773364</ele>
        <time>2020-08-08T08:21:17.000Z</time>
      </trkpt>
      <trkpt lat="43.70227" lon="3.69421">
        <ele>208.81809124893</ele>
        <time>2020-08-08T08:21:18.000Z</time>
      </trkpt>
      <trkpt lat="43.70226" lon="3.69424">
        <ele>208.91749476422</ele>
        <time>2020-08-08T08:21:19.000Z</time>
      </trkpt>
      <trkpt lat="43.70225" lon="3.69428">
        <ele>209.03420460955</ele>
        <time>2020-08-08T08:21:20.000Z</time>
      </trkpt>
      <trkpt lat="43.70225" lon="3.69432">
        <ele>209.23541198256</ele>
        <time>2020-08-08T08:21:21.000Z</time>
      </trkpt>
      <trkpt lat="43.70224" lon="3.69436">
        <ele>209.43661935557</ele>
        <time>2020-08-08T08:21:22.000Z</time>
      </trkpt>
      <trkpt lat="43.70223" lon="3.6944">
        <ele>209.63782672858</ele>
        <time>2020-08-08T08:21:23.000Z</time>
      </trkpt>
      <trkpt lat="43.70223" lon="3.69444">
        <ele>209.83903410159</ele>
        <time>2020-08-08T08:21:24.000Z</time>
      </trkpt>
      <trkpt lat="43.70222" lon="3.69447">
        <ele>210.0402414746</ele>
        <time>2020-08-08T08:21:25.000Z</time>
      </trkpt>
      <trkpt lat="43.70222" lon="3.69451">
        <ele>210.24144884761</ele>
        <time>2020-08-08T08:21:26.000Z</time>
      </trkpt>
      <trkpt lat="43.70222" lon="3.69454">
        <ele>210.44265622062</ele>
        <time>2020-08-08T08:21:27.000Z</time>
      </trkpt>
      <trkpt lat="43.70221" lon="3.69458">
        <ele>210.64386359363</ele>
        <time>2020-08-08T08:21:28.000Z</time>
      </trkpt>
      <trkpt lat="43.70221" lon="3.69461">
        <ele>210.84507096665</ele>
        <time>2020-08-08T08:21:29.000Z</time>
      </trkpt>
      <trkpt lat="43.70221" lon="3.69465">
        <ele>211.02300032</ele>
        <time>2020-08-08T08:21:30.000Z</time>
      </trkpt>
      <trkpt lat="43.70221" lon="3.69468">
        <ele>211.12300032</ele>
        <time>2020-08-08T08:21:31.000Z</time>
      </trkpt>
      <trkpt lat="43.70221" lon="3.69472">
        <ele>211.22300032</ele>
        <time>2020-08-08T08:21:32.000Z</time>
      </trkpt>
      <trkpt lat="43.7022" lon="3.69476">
        <ele>211.32300032</ele>
        <time>2020-08-08T08:21:33.000Z</time>
      </trkpt>
      <trkpt lat="43.7022" lon="3.69479">
        <ele>211.42300032</ele>
        <time>2020-08-08T08:21:34.000Z</time>
      </trkpt>
      <trkpt lat="43.7022" lon="3.69483">
        <ele>211.52300032</ele>
        <time>2020-08-08T08:21:35.000Z</time>
      </trkpt>
      <trkpt lat="43.7022" lon="3.69487">
        <ele>211.62300032</ele>
        <time>2020-08-08T08:21:36.000Z</time>
      </trkpt>
      <trkpt lat="43.70221" lon="3.69491">
        <ele>211.72300032</ele>
        <time>2020-08-08T08:21:37.000Z</time>
      </trkpt>
      <trkpt lat="43.70221" lon="3.69495">
        <ele>211.82300032</ele>
        <time>2020-08-08T08:21:38.000Z</time>
      </trkpt>
      <trkpt lat="43.70221" lon="3.69499">
        <ele>211.92300032</ele>
        <time>2020-08-08T08:21:39.000Z</time>
      </trkpt>
      <trkpt lat="43.70221" lon="3.69503">
        <ele>211.97766960611</ele>
        <time>2020-08-08T08:21:40.000Z</time>
      </trkpt>
      <trkpt lat="43.70222" lon="3.69507">
        <ele>211.88058228779</ele>
        <time>2020-08-08T08:21:41.000Z</time>
      </trkpt>
      <trkpt lat="43.70222" lon="3.69512">
        <ele>211.78349496948</ele>
        <time>2020-08-08T08:21:42.000Z</time>
      </trkpt>
      <trkpt lat="43.70222" lon="3.69516">
        <ele>211.68640765116</ele>
        <time>2020-08-08T08:21:43.000Z</time>
      </trkpt>
      <trkpt lat="43.70223" lon="3.6952">
        <ele>211.58932033285</ele>
        <time>2020-08-08T08:21:44.000Z</time>
      </trkpt>
      <trkpt lat="43.70223" lon="3.69525">
        <ele>211.49223301454</ele>
        <time>2020-08-08T08:21:45.000Z</time>
      </trkpt>
      <trkpt lat="43.70223" lon="3.69529">
        <ele>211.39514569622</ele>
        <time>2020-08-08T08:21:46.000Z</time>
      </trkpt>
      <trkpt lat="43.70223" lon="3.69534">
        <ele>211.2980583779</ele>
        <time>2020-08-08T08:21:47.000Z</time>
      </trkpt>
      <trkpt lat="43.70223" lon="3.6954">
        <ele>211.20097105959</ele>
        <time>2020-08-08T08:21:48.000Z</time>
      </trkpt>
      <trkpt lat="43.70222" lon="3.69545">
        <ele>211.10388374128</ele>
        <time>2020-08-08T08:21:49.000Z</time>
      </trkpt>
      <trkpt lat="43.70222" lon="3.69551">
        <ele>211.00679642296</ele>
        <time>2020-08-08T08:21:50.000Z</time>
      </trkpt>
      <trkpt lat="43.70221" lon="3.69558">
        <ele>210.71237193394</ele>
        <time>2020-08-08T08:21:51.000Z</time>
      </trkpt>
      <trkpt lat="43.7022" lon="3.69565">
        <ele>210.40309337936</ele>
        <time>2020-08-08T08:21:52.000Z</time>
      </trkpt>
      <trkpt lat="43.70219" lon="3.69572">
        <ele>210.09381482478</ele>
        <time>2020-08-08T08:21:53.000Z</time>
      </trkpt>
      <trkpt lat="43.70217" lon="3.6958">
        <ele>209.78453627021</ele>
        <time>2020-08-08T08:21:54.000Z</time>
      </trkpt>
      <trkpt lat="43.70216" lon="3.69588">
        <ele>209.47525771563</ele>
        <time>2020-08-08T08:21:55.000Z</time>
      </trkpt>
      <trkpt lat="43.70214" lon="3.69596">
        <ele>209.16597916106</ele>
        <time>2020-08-08T08:21:56.000Z</time>
      </trkpt>
      <trkpt lat="43.70213" lon="3.69604">
        <ele>208.85670060648</ele>
        <time>2020-08-08T08:21:57.000Z</time>
      </trkpt>
      <trkpt lat="43.70211" lon="3.69612">
        <ele>208.54742205191</ele>
        <time>2020-08-08T08:21:58.000Z</time>
      </trkpt>
      <trkpt lat="43.70211" lon="3.69621">
        <ele>208.23814349733</ele>
        <time>2020-08-08T08:21:59.000Z</time>
      </trkpt>
      <trkpt lat="43.7021" lon="3.69629">
        <ele>207.95399936</ele>
        <time>2020-08-08T08:22:00.000Z</time>
      </trkpt>
      <trkpt lat="43.7021" lon="3.69637">
        <ele>207.75399936</ele>
        <time>2020-08-08T08:22:01.000Z</time>
      </trkpt>
      <trkpt lat="43.7021" lon="3.69644">
        <ele>207.55399936</ele>
        <time>2020-08-08T08:22:02.000Z</time>
      </trkpt>
      <trkpt lat="43.7021" lon="3.6965">
        <ele>207.35399936</ele>
        <time>2020-08-08T08:22:03.000Z</time>
      </trkpt>
      <trkpt lat="43.7021" lon="3.69654">
        <ele>207.15399936</ele>
        <time>2020-08-08T08:22:04.000Z</time>
      </trkpt>
      <trkpt lat="43.7021" lon="3.69658">
        <ele>206.75399936</ele>
        <time>2020-08-08T08:22:06.000Z</time>
      </trkpt>
      <trkpt lat="43.70209" lon="3.69661">
        <ele>206.35399936</ele>
        <time>2020-08-08T08:22:08.000Z</time>
      </trkpt>
      <trkpt lat="43.70207" lon="3.69663">
        <ele>206</ele>
        <time>2020-08-08T08:22:10.000Z</time>
      </trkpt>
      <trkpt lat="43.70205" lon="3.69664">
        <ele>206</ele>
        <time>2020-08-08T08:22:11.000Z</time>
      </trkpt>
      <trkpt lat="43.70203" lon="3.69665">
        <ele>206</ele>
        <time>2020-08-08T08:22:12.000Z</time>
      </trkpt>
      <trkpt lat="43.70201" lon="3.69666">
        <ele>206</ele>
        <time>2020-08-08T08:22:13.000Z</time>
      </trkpt>
      <trkpt lat="43.70199" lon="3.69667">
        <ele>206</ele>
        <time>2020-08-08T08:22:14.000Z</time>
      </trkpt>
      <trkpt lat="43.70197" lon="3.69668">
        <ele>206</ele>
        <time>2020-08-08T08:22:15.000Z</time>
      </trkpt>
      <trkpt lat="43.70195" lon="3.69669">
        <ele>206</ele>
        <time>2020-08-08T08:22:16.000Z</time>
      </trkpt>
      <trkpt lat="43.70193" lon="3.6967">
        <ele>206</ele>
        <time>2020-08-08T08:22:17.000Z</time>
      </trkpt>
      <trkpt lat="43.70191" lon="3.69672">
        <ele>206</ele>
        <time>2020-08-08T08:22:18.000Z</time>
      </trkpt>
      <trkpt lat="43.7019" lon="3.69675">
        <ele>206</ele>
        <time>2020-08-08T08:22:19.000Z</time>
      </trkpt>
      <trkpt lat="43.70189" lon="3.69679">
        <ele>206</ele>
        <time>2020-08-08T08:22:20.000Z</time>
      </trkpt>
      <trkpt lat="43.70187" lon="3.69683">
        <ele>206</ele>
        <time>2020-08-08T08:22:21.000Z</time>
      </trkpt>
      <trkpt lat="43.70185" lon="3.69688">
        <ele>206</ele>
        <time>2020-08-08T08:22:22.000Z</time>
      </trkpt>
      <trkpt lat="43.70183" lon="3.69692">
        <ele>206</ele>
        <time>2020-08-08T08:22:23.000Z</time>
      </trkpt>
      <trkpt lat="43.7018" lon="3.69697">
        <ele>206</ele>
        <time>2020-08-08T08:22:24.000Z</time>
      </trkpt>
      <trkpt lat="43.70178" lon="3.69701">
        <ele>206</ele>
        <time>2020-08-08T08:22:25.000Z</time>
      </trkpt>
      <trkpt lat="43.70175" lon="3.69706">
        <ele>206</ele>
        <time>2020-08-08T08:22:26.000Z</time>
      </trkpt>
      <trkpt lat="43.70171" lon="3.6971">
        <ele>206</ele>
        <time>2020-08-08T08:22:27.000Z</time>
      </trkpt>
      <trkpt lat="43.70168" lon="3.69714">
        <ele>206</ele>
        <time>2020-08-08T08:22:28.000Z</time>
      </trkpt>
      <trkpt lat="43.70165" lon="3.69718">
        <ele>206</ele>
        <time>2020-08-08T08:22:29.000Z</time>
      </trkpt>
      <trkpt lat="43.70163" lon="3.69722">
        <ele>206</ele>
        <time>2020-08-08T08:22:30.000Z</time>
      </trkpt>
      <trkpt lat="43.7016" lon="3.69726">
        <ele>206</ele>
        <time>2020-08-08T08:22:31.000Z</time>
      </trkpt>
      <trkpt lat="43.70158" lon="3.69731">
        <ele>206</ele>
        <time>2020-08-08T08:22:32.000Z</time>
      </trkpt>
      <trkpt lat="43.70155" lon="3.69735">
        <ele>206</ele>
        <time>2020-08-08T08:22:33.000Z</time>
      </trkpt>
      <trkpt lat="43.70152" lon="3.69739">
        <ele>206</ele>
        <time>2020-08-08T08:22:34.000Z</time>
      </trkpt>
      <trkpt lat="43.7015" lon="3.69743">
        <ele>206</ele>
        <time>2020-08-08T08:22:35.000Z</time>
      </trkpt>
      <trkpt lat="43.70147" lon="3.69747">
        <ele>206</ele>
        <time>2020-08-08T08:22:36.000Z</time>
      </trkpt>
      <trkpt lat="43.70145" lon="3.69751">
        <ele>206</ele>
        <time>2020-08-08T08:22:37.000Z</time>
      </trkpt>
      <trkpt lat="43.70143" lon="3.69756">
        <ele>206</ele>
        <time>2020-08-08T08:22:38.000Z</time>
      </trkpt>
      <trkpt lat="43.70141" lon="3.6976">
        <ele>206</ele>
        <time>2020-08-08T08:22:39.000Z</time>
      </trkpt>
      <trkpt lat="43.70138" lon="3.69765">
        <ele>206</ele>
        <time>2020-08-08T08:22:40.000Z</time>
      </trkpt>
      <trkpt lat="43.70135" lon="3.69769">
        <ele>206</ele>
        <time>2020-08-08T08:22:41.000Z</time>
      </trkpt>
      <trkpt lat="43.70132" lon="3.69773">
        <ele>206</ele>
        <time>2020-08-08T08:22:42.000Z</time>
      </trkpt>
      <trkpt lat="43.70129" lon="3.69777">
        <ele>206</ele>
        <time>2020-08-08T08:22:43.000Z</time>
      </trkpt>
      <trkpt lat="43.70126" lon="3.69781">
        <ele>206</ele>
        <time>2020-08-08T08:22:44.000Z</time>
      </trkpt>
      <trkpt lat="43.70123" lon="3.69784">
        <ele>206</ele>
        <time>2020-08-08T08:22:45.000Z</time>
      </trkpt>
      <trkpt lat="43.70121" lon="3.69788">
        <ele>206</ele>
        <time>2020-08-08T08:22:46.000Z</time>
      </trkpt>
      <trkpt lat="43.70118" lon="3.69791">
        <ele>206</ele>
        <time>2020-08-08T08:22:47.000Z</time>
      </trkpt>
      <trkpt lat="43.70115" lon="3.69795">
        <ele>206</ele>
        <time>2020-08-08T08:22:48.000Z</time>
      </trkpt>
      <trkpt lat="43.70112" lon="3.69799">
        <ele>206</ele>
        <time>2020-08-08T08:22:49.000Z</time>
      </trkpt>
      <trkpt lat="43.7011" lon="3.69803">
        <ele>206</ele>
        <time>2020-08-08T08:22:50.000Z</time>
      </trkpt>
      <trkpt lat="43.70107" lon="3.69807">
        <ele>206</ele>
        <time>2020-08-08T08:22:51.000Z</time>
      </trkpt>
      <trkpt lat="43.70104" lon="3.69812">
        <ele>206</ele>
        <time>2020-08-08T08:22:52.000Z</time>
      </trkpt>
      <trkpt lat="43.70102" lon="3.69817">
        <ele>206</ele>
        <time>2020-08-08T08:22:53.000Z</time>
      </trkpt>
      <trkpt lat="43.701" lon="3.69822">
        <ele>206</ele>
        <time>2020-08-08T08:22:54.000Z</time>
      </trkpt>
      <trkpt lat="43.70098" lon="3.69827">
        <ele>206</ele>
        <time>2020-08-08T08:22:55.000Z</time>
      </trkpt>
      <trkpt lat="43.70096" lon="3.69831">
        <ele>206</ele>
        <time>2020-08-08T08:22:56.000Z</time>
      </trkpt>
      <trkpt lat="43.70093" lon="3.69836">
        <ele>206</ele>
        <time>2020-08-08T08:22:57.000Z</time>
      </trkpt>
      <trkpt lat="43.70091" lon="3.69841">
        <ele>206</ele>
        <time>2020-08-08T08:22:58.000Z</time>
      </trkpt>
      <trkpt lat="43.70088" lon="3.69846">
        <ele>206</ele>
        <time>2020-08-08T08:22:59.000Z</time>
      </trkpt>
      <trkpt lat="43.70086" lon="3.6985">
        <ele>206</ele>
        <time>2020-08-08T08:23:00.000Z</time>
      </trkpt>
      <trkpt lat="43.70082" lon="3.69853">
        <ele>206</ele>
        <time>2020-08-08T08:23:01.000Z</time>
      </trkpt>
      <trkpt lat="43.70078" lon="3.69855">
        <ele>206</ele>
        <time>2020-08-08T08:23:02.000Z</time>
      </trkpt>
      <trkpt lat="43.70075" lon="3.69856">
        <ele>206</ele>
        <time>2020-08-08T08:23:03.000Z</time>
      </trkpt>
      <trkpt lat="43.70071" lon="3.69857">
        <ele>206</ele>
        <time>2020-08-08T08:23:04.000Z</time>
      </trkpt>
      <trkpt lat="43.70067" lon="3.69858">
        <ele>206</ele>
        <time>2020-08-08T08:23:05.000Z</time>
      </trkpt>
      <trkpt lat="43.70064" lon="3.69859">
        <ele>206</ele>
        <time>2020-08-08T08:23:06.000Z</time>
      </trkpt>
      <trkpt lat="43.70061" lon="3.6986">
        <ele>206</ele>
        <time>2020-08-08T08:23:07.000Z</time>
      </trkpt>
      <trkpt lat="43.70058" lon="3.69863">
        <ele>206</ele>
        <time>2020-08-08T08:23:08.000Z</time>
      </trkpt>
      <trkpt lat="43.70055" lon="3.69866">
        <ele>206</ele>
        <time>2020-08-08T08:23:09.000Z</time>
      </trkpt>
      <trkpt lat="43.70052" lon="3.69871">
        <ele>205.97699968</ele>
        <time>2020-08-08T08:23:10.000Z</time>
      </trkpt>
      <trkpt lat="43.7005" lon="3.69876">
        <ele>205.87699968</ele>
        <time>2020-08-08T08:23:11.000Z</time>
      </trkpt>
      <trkpt lat="43.70047" lon="3.6988">
        <ele>205.77699968</ele>
        <time>2020-08-08T08:23:12.000Z</time>
      </trkpt>
      <trkpt lat="43.70045" lon="3.69884">
        <ele>205.67699968</ele>
        <time>2020-08-08T08:23:13.000Z</time>
      </trkpt>
      <trkpt lat="43.70041" lon="3.69886">
        <ele>205.57699968</ele>
        <time>2020-08-08T08:23:14.000Z</time>
      </trkpt>
      <trkpt lat="43.70038" lon="3.69887">
        <ele>205.47699968</ele>
        <time>2020-08-08T08:23:15.000Z</time>
      </trkpt>
      <trkpt lat="43.70034" lon="3.69888">
        <ele>205.37699968</ele>
        <time>2020-08-08T08:23:16.000Z</time>
      </trkpt>
      <trkpt lat="43.7003" lon="3.69887">
        <ele>205.27699968</ele>
        <time>2020-08-08T08:23:17.000Z</time>
      </trkpt>
      <trkpt lat="43.70027" lon="3.69884">
        <ele>205.17699968</ele>
        <time>2020-08-08T08:23:18.000Z</time>
      </trkpt>
      <trkpt lat="43.70023" lon="3.69881">
        <ele>205.07699968</ele>
        <time>2020-08-08T08:23:19.000Z</time>
      </trkpt>
      <trkpt lat="43.7002" lon="3.69878">
        <ele>204.95409120697</ele>
        <time>2020-08-08T08:23:20.000Z</time>
      </trkpt>
      <trkpt lat="43.70016" lon="3.69876">
        <ele>204.75449053605</ele>
        <time>2020-08-08T08:23:21.000Z</time>
      </trkpt>
      <trkpt lat="43.70012" lon="3.69874">
        <ele>204.55488986514</ele>
        <time>2020-08-08T08:23:22.000Z</time>
      </trkpt>
      <trkpt lat="43.70008" lon="3.69873">
        <ele>204.35528919423</ele>
        <time>2020-08-08T08:23:23.000Z</time>
      </trkpt>
      <trkpt lat="43.70004" lon="3.69872">
        <ele>204.15568852331</ele>
        <time>2020-08-08T08:23:24.000Z</time>
      </trkpt>
      <trkpt lat="43.7" lon="3.69872">
        <ele>203.9560878524</ele>
        <time>2020-08-08T08:23:25.000Z</time>
      </trkpt>
      <trkpt lat="43.69995" lon="3.69871">
        <ele>203.75648718148</ele>
        <time>2020-08-08T08:23:26.000Z</time>
      </trkpt>
      <trkpt lat="43.6999" lon="3.69871">
        <ele>203.55688651057</ele>
        <time>2020-08-08T08:23:27.000Z</time>
      </trkpt>
      <trkpt lat="43.69985" lon="3.6987">
        <ele>203.35728583966</ele>
        <time>2020-08-08T08:23:28.000Z</time>
      </trkpt>
      <trkpt lat="43.6998" lon="3.69869">
        <ele>203.15768516874</ele>
        <time>2020-08-08T08:23:29.000Z</time>
      </trkpt>
      <trkpt lat="43.69975" lon="3.69867">
        <ele>202.97904222214</ele>
        <time>2020-08-08T08:23:30.000Z</time>
      </trkpt>
      <trkpt lat="43.69971" lon="3.69865">
        <ele>202.8792417592</ele>
        <time>2020-08-08T08:23:31.000Z</time>
      </trkpt>
      <trkpt lat="43.69966" lon="3.69862">
        <ele>202.77944129625</ele>
        <time>2020-08-08T08:23:32.000Z</time>
      </trkpt>
      <trkpt lat="43.69962" lon="3.69859">
        <ele>202.6796408333</ele>
        <time>2020-08-08T08:23:33.000Z</time>
      </trkpt>
      <trkpt lat="43.69957" lon="3.69856">
        <ele>202.57984037036</ele>
        <time>2020-08-08T08:23:34.000Z</time>
      </trkpt>
      <trkpt lat="43.69951" lon="3.69852">
        <ele>202.48003990741</ele>
        <time>2020-08-08T08:23:35.000Z</time>
      </trkpt>
      <trkpt lat="43.69946" lon="3.69849">
        <ele>202.38023944446</ele>
        <time>2020-08-08T08:23:36.000Z</time>
      </trkpt>
      <trkpt lat="43.69941" lon="3.69845">
        <ele>202.28043898152</ele>
        <time>2020-08-08T08:23:37.000Z</time>
      </trkpt>
      <trkpt lat="43.69935" lon="3.69841">
        <ele>202.18063851857</ele>
        <time>2020-08-08T08:23:38.000Z</time>
      </trkpt>
      <trkpt lat="43.6993" lon="3.69838">
        <ele>202.08083805563</ele>
        <time>2020-08-08T08:23:39.000Z</time>
      </trkpt>
      <trkpt lat="43.69925" lon="3.69834">
        <ele>201.94288484625</ele>
        <time>2020-08-08T08:23:40.000Z</time>
      </trkpt>
      <trkpt lat="43.6992" lon="3.69829">
        <ele>201.64228383661</ele>
        <time>2020-08-08T08:23:41.000Z</time>
      </trkpt>
      <trkpt lat="43.69916" lon="3.69822">
        <ele>201.34168282698</ele>
        <time>2020-08-08T08:23:42.000Z</time>
      </trkpt>
      <trkpt lat="43.69914" lon="3.69815">
        <ele>201.04108181734</ele>
        <time>2020-08-08T08:23:43.000Z</time>
      </trkpt>
      <trkpt lat="43.69911" lon="3.69808">
        <ele>200.74048080771</ele>
        <time>2020-08-08T08:23:44.000Z</time>
      </trkpt>
      <trkpt lat="43.69908" lon="3.69801">
        <ele>200.43987979807</ele>
        <time>2020-08-08T08:23:45.000Z</time>
      </trkpt>
      <trkpt lat="43.69904" lon="3.69795">
        <ele>200.13927878844</ele>
        <time>2020-08-08T08:23:46.000Z</time>
      </trkpt>
      <trkpt lat="43.699" lon="3.69789">
        <ele>199.8386777788</ele>
        <time>2020-08-08T08:23:47.000Z</time>
      </trkpt>
      <trkpt lat="43.69895" lon="3.69784">
        <ele>199.53807676917</ele>
        <time>2020-08-08T08:23:48.000Z</time>
      </trkpt>
      <trkpt lat="43.6989" lon="3.69778">
        <ele>199.23747575953</ele>
        <time>2020-08-08T08:23:49.000Z</time>
      </trkpt>
      <trkpt lat="43.69886" lon="3.69773">
        <ele>198.96026549412</ele>
        <time>2020-08-08T08:23:50.000Z</time>
      </trkpt>
      <trkpt lat="43.69881" lon="3.69767">
        <ele>198.77105067809</ele>
        <time>2020-08-08T08:23:51.000Z</time>
      </trkpt>
      <trkpt lat="43.69877" lon="3.69761">
        <ele>198.58183586205</ele>
        <time>2020-08-08T08:23:52.000Z</time>
      </trkpt>
      <trkpt lat="43.69873" lon="3.69756">
        <ele>198.39262104602</ele>
        <time>2020-08-08T08:23:53.000Z</time>
      </trkpt>
      <trkpt lat="43.69868" lon="3.6975">
        <ele>198.20340622998</ele>
        <time>2020-08-08T08:23:54.000Z</time>
      </trkpt>
      <trkpt lat="43.69863" lon="3.69745">
        <ele>198.01419141395</ele>
        <time>2020-08-08T08:23:55.000Z</time>
      </trkpt>
      <trkpt lat="43.69858" lon="3.69741">
        <ele>197.82497659791</ele>
        <time>2020-08-08T08:23:56.000Z</time>
      </trkpt>
      <trkpt lat="43.69853" lon="3.69737">
        <ele>197.63576178188</ele>
        <time>2020-08-08T08:23:57.000Z</time>
      </trkpt>
      <trkpt lat="43.69848" lon="3.69733">
        <ele>197.44654696584</ele>
        <time>2020-08-08T08:23:58.000Z</time>
      </trkpt>
      <trkpt lat="43.69843" lon="3.69729">
        <ele>197.25733214981</ele>
        <time>2020-08-08T08:23:59.000Z</time>
      </trkpt>
      <trkpt lat="43.69837" lon="3.69724">
        <ele>197.06811733377</ele>
        <time>2020-08-08T08:24:00.000Z</time>
      </trkpt>
      <trkpt lat="43.69833" lon="3.69718">
        <ele>196.79725455637</ele>
        <time>2020-08-08T08:24:01.000Z</time>
      </trkpt>
      <trkpt lat="43.69829" lon="3.69714">
        <ele>196.48046480069</ele>
        <time>2020-08-08T08:24:02.000Z</time>
      </trkpt>
      <trkpt lat="43.69826" lon="3.6971">
        <ele>196.16367504501</ele>
        <time>2020-08-08T08:24:03.000Z</time>
      </trkpt>
      <trkpt lat="43.69823" lon="3.69707">
        <ele>195.84688528933</ele>
        <time>2020-08-08T08:24:04.000Z</time>
      </trkpt>
      <trkpt lat="43.69822" lon="3.69706">
        <ele>195.53009553365</ele>
        <time>2020-08-08T08:24:05.000Z</time>
      </trkpt>
      <trkpt lat="43.69821" lon="3.69705">
        <ele>193.99778831858</ele>
        <time>2020-08-08T08:24:10.000Z</time>
      </trkpt>
      <trkpt lat="43.69813" lon="3.69701">
        <ele>193.00221309734</ele>
        <time>2020-08-08T08:24:19.000Z</time>
      </trkpt>
      <trkpt lat="43.6981" lon="3.697">
        <ele>192.60327303282</ele>
        <time>2020-08-08T08:24:20.000Z</time>
      </trkpt>
      <trkpt lat="43.69805" lon="3.69699">
        <ele>192.19427481016</ele>
        <time>2020-08-08T08:24:21.000Z</time>
      </trkpt>
      <trkpt lat="43.69801" lon="3.69698">
        <ele>191.7852765875</ele>
        <time>2020-08-08T08:24:22.000Z</time>
      </trkpt>
      <trkpt lat="43.69798" lon="3.69697">
        <ele>191.37627836485</ele>
        <time>2020-08-08T08:24:23.000Z</time>
      </trkpt>
      <trkpt lat="43.69794" lon="3.69696">
        <ele>190.96728014219</ele>
        <time>2020-08-08T08:24:24.000Z</time>
      </trkpt>
      <trkpt lat="43.6979" lon="3.69696">
        <ele>190.55828191953</ele>
        <time>2020-08-08T08:24:25.000Z</time>
      </trkpt>
      <trkpt lat="43.69787" lon="3.69695">
        <ele>190.14928369687</ele>
        <time>2020-08-08T08:24:26.000Z</time>
      </trkpt>
      <trkpt lat="43.69785" lon="3.69693">
        <ele>189.74028547421</ele>
        <time>2020-08-08T08:24:27.000Z</time>
      </trkpt>
      <trkpt lat="43.69783" lon="3.69692">
        <ele>189.33128725156</ele>
        <time>2020-08-08T08:24:28.000Z</time>
      </trkpt>
      <trkpt lat="43.6978" lon="3.6969">
        <ele>188.65136625</ele>
        <time>2020-08-08T08:24:30.000Z</time>
      </trkpt>
      <trkpt lat="43.69778" lon="3.69688">
        <ele>188.3583975</ele>
        <time>2020-08-08T08:24:31.000Z</time>
      </trkpt>
      <trkpt lat="43.69776" lon="3.69686">
        <ele>188.06542875</ele>
        <time>2020-08-08T08:24:32.000Z</time>
      </trkpt>
      <trkpt lat="43.69774" lon="3.69682">
        <ele>187.77246</ele>
        <time>2020-08-08T08:24:33.000Z</time>
      </trkpt>
      <trkpt lat="43.69773" lon="3.69678">
        <ele>187.47949125</ele>
        <time>2020-08-08T08:24:34.000Z</time>
      </trkpt>
      <trkpt lat="43.69772" lon="3.69674">
        <ele>187.1865225</ele>
        <time>2020-08-08T08:24:35.000Z</time>
      </trkpt>
      <trkpt lat="43.69771" lon="3.69669">
        <ele>186.89355375</ele>
        <time>2020-08-08T08:24:36.000Z</time>
      </trkpt>
      <trkpt lat="43.69769" lon="3.69664">
        <ele>186.600585</ele>
        <time>2020-08-08T08:24:37.000Z</time>
      </trkpt>
      <trkpt lat="43.69768" lon="3.6966">
        <ele>186.30761625</ele>
        <time>2020-08-08T08:24:38.000Z</time>
      </trkpt>
      <trkpt lat="43.69767" lon="3.69656">
        <ele>186.0146475</ele>
        <time>2020-08-08T08:24:39.000Z</time>
      </trkpt>
      <trkpt lat="43.69766" lon="3.69653">
        <ele>185.90499968</ele>
        <time>2020-08-08T08:24:40.000Z</time>
      </trkpt>
      <trkpt lat="43.69765" lon="3.69651">
        <ele>185.80499968</ele>
        <time>2020-08-08T08:24:41.000Z</time>
      </trkpt>
      <trkpt lat="43.69762" lon="3.69651">
        <ele>185.60499968</ele>
        <time>2020-08-08T08:24:43.000Z</time>
      </trkpt>
      <trkpt lat="43.6976" lon="3.69653">
        <ele>185.50499968</ele>
        <time>2020-08-08T08:24:44.000Z</time>
      </trkpt>
      <trkpt lat="43.69758" lon="3.69655">
        <ele>185.40499968</ele>
        <time>2020-08-08T08:24:45.000Z</time>
      </trkpt>
      <trkpt lat="43.69757" lon="3.69657">
        <ele>185.30499968</ele>
        <time>2020-08-08T08:24:46.000Z</time>
      </trkpt>
      <trkpt lat="43.69756" lon="3.6966">
        <ele>185.20499968</ele>
        <time>2020-08-08T08:24:47.000Z</time>
      </trkpt>
      <trkpt lat="43.69755" lon="3.69663">
        <ele>185.10499968</ele>
        <time>2020-08-08T08:24:48.000Z</time>
      </trkpt>
      <trkpt lat="43.69755" lon="3.69667">
        <ele>185.00499968</ele>
        <time>2020-08-08T08:24:49.000Z</time>
      </trkpt>
      <trkpt lat="43.69754" lon="3.6967">
        <ele>184.80452609054</ele>
        <time>2020-08-08T08:24:50.000Z</time>
      </trkpt>
      <trkpt lat="43.69754" lon="3.69673">
        <ele>184.59876477366</ele>
        <time>2020-08-08T08:24:51.000Z</time>
      </trkpt>
      <trkpt lat="43.69754" lon="3.69677">
        <ele>184.39300345679</ele>
        <time>2020-08-08T08:24:52.000Z</time>
      </trkpt>
      <trkpt lat="43.69755" lon="3.6968">
        <ele>184.18724213992</ele>
        <time>2020-08-08T08:24:53.000Z</time>
      </trkpt>
      <trkpt lat="43.69755" lon="3.69685">
        <ele>183.98148082304</ele>
        <time>2020-08-08T08:24:54.000Z</time>
      </trkpt>
      <trkpt lat="43.69755" lon="3.69688">
        <ele>183.77571950617</ele>
        <time>2020-08-08T08:24:55.000Z</time>
      </trkpt>
      <trkpt lat="43.69756" lon="3.69692">
        <ele>183.5699581893</ele>
        <time>2020-08-08T08:24:56.000Z</time>
      </trkpt>
      <trkpt lat="43.69756" lon="3.69696">
        <ele>183.36419687243</ele>
        <time>2020-08-08T08:24:57.000Z</time>
      </trkpt>
      <trkpt lat="43.69756" lon="3.69701">
        <ele>183.15843555556</ele>
        <time>2020-08-08T08:24:58.000Z</time>
      </trkpt>
      <trkpt lat="43.69757" lon="3.69705">
        <ele>182.97699968</ele>
        <time>2020-08-08T08:24:59.000Z</time>
      </trkpt>
      <trkpt lat="43.69757" lon="3.69708">
        <ele>182.87699968</ele>
        <time>2020-08-08T08:25:00.000Z</time>
      </trkpt>
      <trkpt lat="43.69757" lon="3.69712">
        <ele>182.67699968</ele>
        <time>2020-08-08T08:25:02.000Z</time>
      </trkpt>
      <trkpt lat="43.69757" lon="3.69715">
        <ele>182.47699968</ele>
        <time>2020-08-08T08:25:04.000Z</time>
      </trkpt>
      <trkpt lat="43.69758" lon="3.6972">
        <ele>182.27699968</ele>
        <time>2020-08-08T08:25:06.000Z</time>
      </trkpt>
      <trkpt lat="43.69759" lon="3.69722">
        <ele>182.17699968</ele>
        <time>2020-08-08T08:25:07.000Z</time>
      </trkpt>
      <trkpt lat="43.6976" lon="3.69726">
        <ele>182.07699968</ele>
        <time>2020-08-08T08:25:08.000Z</time>
      </trkpt>
      <trkpt lat="43.69761" lon="3.6973">
        <ele>181.97699968</ele>
        <time>2020-08-08T08:25:09.000Z</time>
      </trkpt>
      <trkpt lat="43.69761" lon="3.69735">
        <ele>181.87699968</ele>
        <time>2020-08-08T08:25:10.000Z</time>
      </trkpt>
      <trkpt lat="43.69762" lon="3.6974">
        <ele>181.77699968</ele>
        <time>2020-08-08T08:25:11.000Z</time>
      </trkpt>
      <trkpt lat="43.69762" lon="3.69746">
        <ele>181.67699968</ele>
        <time>2020-08-08T08:25:12.000Z</time>
      </trkpt>
      <trkpt lat="43.69763" lon="3.69752">
        <ele>181.57699968</ele>
        <time>2020-08-08T08:25:13.000Z</time>
      </trkpt>
      <trkpt lat="43.69763" lon="3.69758">
        <ele>181.47699968</ele>
        <time>2020-08-08T08:25:14.000Z</time>
      </trkpt>
      <trkpt lat="43.69764" lon="3.69763">
        <ele>181.37699968</ele>
        <time>2020-08-08T08:25:15.000Z</time>
      </trkpt>
      <trkpt lat="43.69765" lon="3.69769">
        <ele>181.27699968</ele>
        <time>2020-08-08T08:25:16.000Z</time>
      </trkpt>
      <trkpt lat="43.69766" lon="3.69774">
        <ele>181.17699968</ele>
        <time>2020-08-08T08:25:17.000Z</time>
      </trkpt>
      <trkpt lat="43.69767" lon="3.6978">
        <ele>181.07699968</ele>
        <time>2020-08-08T08:25:18.000Z</time>
      </trkpt>
      <trkpt lat="43.69768" lon="3.69785">
        <ele>180.97786302895</ele>
        <time>2020-08-08T08:25:19.000Z</time>
      </trkpt>
      <trkpt lat="43.69769" lon="3.69791">
        <ele>180.88161666784</ele>
        <time>2020-08-08T08:25:20.000Z</time>
      </trkpt>
      <trkpt lat="43.69771" lon="3.69797">
        <ele>180.78537030672</ele>
        <time>2020-08-08T08:25:21.000Z</time>
      </trkpt>
      <trkpt lat="43.69772" lon="3.69802">
        <ele>180.6891239456</ele>
        <time>2020-08-08T08:25:22.000Z</time>
      </trkpt>
      <trkpt lat="43.69773" lon="3.69808">
        <ele>180.59287758448</ele>
        <time>2020-08-08T08:25:23.000Z</time>
      </trkpt>
      <trkpt lat="43.69775" lon="3.69814">
        <ele>180.49663122337</ele>
        <time>2020-08-08T08:25:24.000Z</time>
      </trkpt>
      <trkpt lat="43.69777" lon="3.69819">
        <ele>180.40038486225</ele>
        <time>2020-08-08T08:25:25.000Z</time>
      </trkpt>
      <trkpt lat="43.69778" lon="3.69825">
        <ele>180.30413850113</ele>
        <time>2020-08-08T08:25:26.000Z</time>
      </trkpt>
      <trkpt lat="43.69779" lon="3.6983">
        <ele>180.20789214001</ele>
        <time>2020-08-08T08:25:27.000Z</time>
      </trkpt>
      <trkpt lat="43.6978" lon="3.69836">
        <ele>180.1116457789</ele>
        <time>2020-08-08T08:25:28.000Z</time>
      </trkpt>
      <trkpt lat="43.6978" lon="3.69842">
        <ele>180.01539941778</ele>
        <time>2020-08-08T08:25:29.000Z</time>
      </trkpt>
      <trkpt lat="43.69779" lon="3.69847">
        <ele>180</ele>
        <time>2020-08-08T08:25:30.000Z</time>
      </trkpt>
      <trkpt lat="43.69779" lon="3.69853">
        <ele>180</ele>
        <time>2020-08-08T08:25:31.000Z</time>
      </trkpt>
      <trkpt lat="43.6978" lon="3.69859">
        <ele>180</ele>
        <time>2020-08-08T08:25:32.000Z</time>
      </trkpt>
      <trkpt lat="43.69781" lon="3.69864">
        <ele>180</ele>
        <time>2020-08-08T08:25:33.000Z</time>
      </trkpt>
      <trkpt lat="43.69782" lon="3.6987">
        <ele>180</ele>
        <time>2020-08-08T08:25:34.000Z</time>
      </trkpt>
      <trkpt lat="43.69783" lon="3.69876">
        <ele>180</ele>
        <time>2020-08-08T08:25:35.000Z</time>
      </trkpt>
      <trkpt lat="43.69784" lon="3.69882">
        <ele>180</ele>
        <time>2020-08-08T08:25:36.000Z</time>
      </trkpt>
      <trkpt lat="43.69785" lon="3.69889">
        <ele>180</ele>
        <time>2020-08-08T08:25:37.000Z</time>
      </trkpt>
      <trkpt lat="43.69785" lon="3.69895">
        <ele>180</ele>
        <time>2020-08-08T08:25:38.000Z</time>
      </trkpt>
      <trkpt lat="43.69785" lon="3.69901">
        <ele>179.97699968</ele>
        <time>2020-08-08T08:25:39.000Z</time>
      </trkpt>
      <trkpt lat="43.69786" lon="3.69908">
        <ele>179.87699968</ele>
        <time>2020-08-08T08:25:40.000Z</time>
      </trkpt>
      <trkpt lat="43.69786" lon="3.69913">
        <ele>179.77699968</ele>
        <time>2020-08-08T08:25:41.000Z</time>
      </trkpt>
      <trkpt lat="43.69787" lon="3.69919">
        <ele>179.67699968</ele>
        <time>2020-08-08T08:25:42.000Z</time>
      </trkpt>
      <trkpt lat="43.69788" lon="3.69924">
        <ele>179.57699968</ele>
        <time>2020-08-08T08:25:43.000Z</time>
      </trkpt>
      <trkpt lat="43.69788" lon="3.6993">
        <ele>179.47699968</ele>
        <time>2020-08-08T08:25:44.000Z</time>
      </trkpt>
      <trkpt lat="43.69789" lon="3.69936">
        <ele>179.37699968</ele>
        <time>2020-08-08T08:25:45.000Z</time>
      </trkpt>
      <trkpt lat="43.69789" lon="3.69942">
        <ele>179.27699968</ele>
        <time>2020-08-08T08:25:46.000Z</time>
      </trkpt>
      <trkpt lat="43.6979" lon="3.69948">
        <ele>179.17699968</ele>
        <time>2020-08-08T08:25:47.000Z</time>
      </trkpt>
      <trkpt lat="43.69791" lon="3.69953">
        <ele>179.07699968</ele>
        <time>2020-08-08T08:25:48.000Z</time>
      </trkpt>
      <trkpt lat="43.69791" lon="3.69957">
        <ele>178.97699968</ele>
        <time>2020-08-08T08:25:49.000Z</time>
      </trkpt>
      <trkpt lat="43.69791" lon="3.6996">
        <ele>178.87699968</ele>
        <time>2020-08-08T08:25:50.000Z</time>
      </trkpt>
      <trkpt lat="43.69791" lon="3.69964">
        <ele>178.77699968</ele>
        <time>2020-08-08T08:25:51.000Z</time>
      </trkpt>
      <trkpt lat="43.69791" lon="3.69969">
        <ele>178.67699968</ele>
        <time>2020-08-08T08:25:52.000Z</time>
      </trkpt>
      <trkpt lat="43.6979" lon="3.69973">
        <ele>178.57699968</ele>
        <time>2020-08-08T08:25:53.000Z</time>
      </trkpt>
      <trkpt lat="43.6979" lon="3.69977">
        <ele>178.47699968</ele>
        <time>2020-08-08T08:25:54.000Z</time>
      </trkpt>
      <trkpt lat="43.69789" lon="3.69982">
        <ele>178.37699968</ele>
        <time>2020-08-08T08:25:55.000Z</time>
      </trkpt>
      <trkpt lat="43.69788" lon="3.69987">
        <ele>178.27699968</ele>
        <time>2020-08-08T08:25:56.000Z</time>
      </trkpt>
      <trkpt lat="43.69787" lon="3.69992">
        <ele>178.17699968</ele>
        <time>2020-08-08T08:25:57.000Z</time>
      </trkpt>
      <trkpt lat="43.69786" lon="3.69996">
        <ele>178.07699968</ele>
        <time>2020-08-08T08:25:58.000Z</time>
      </trkpt>
      <trkpt lat="43.69785" lon="3.70001">
        <ele>178</ele>
        <time>2020-08-08T08:25:59.000Z</time>
      </trkpt>
      <trkpt lat="43.69784" lon="3.70005">
        <ele>178</ele>
        <time>2020-08-08T08:26:00.000Z</time>
      </trkpt>
      <trkpt lat="43.69783" lon="3.7001">
        <ele>178</ele>
        <time>2020-08-08T08:26:01.000Z</time>
      </trkpt>
      <trkpt lat="43.69782" lon="3.70014">
        <ele>178</ele>
        <time>2020-08-08T08:26:02.000Z</time>
      </trkpt>
      <trkpt lat="43.69781" lon="3.70019">
        <ele>178</ele>
        <time>2020-08-08T08:26:03.000Z</time>
      </trkpt>
      <trkpt lat="43.6978" lon="3.70023">
        <ele>178</ele>
        <time>2020-08-08T08:26:04.000Z</time>
      </trkpt>
      <trkpt lat="43.6978" lon="3.70028">
        <ele>178</ele>
        <time>2020-08-08T08:26:05.000Z</time>
      </trkpt>
      <trkpt lat="43.6978" lon="3.70032">
        <ele>178</ele>
        <time>2020-08-08T08:26:06.000Z</time>
      </trkpt>
      <trkpt lat="43.69779" lon="3.70036">
        <ele>178</ele>
        <time>2020-08-08T08:26:07.000Z</time>
      </trkpt>
      <trkpt lat="43.69779" lon="3.7004">
        <ele>178</ele>
        <time>2020-08-08T08:26:08.000Z</time>
      </trkpt>
      <trkpt lat="43.69778" lon="3.70045">
        <ele>178.01907662651</ele>
        <time>2020-08-08T08:26:09.000Z</time>
      </trkpt>
      <trkpt lat="43.69778" lon="3.7005">
        <ele>178.11947823293</ele>
        <time>2020-08-08T08:26:10.000Z</time>
      </trkpt>
      <trkpt lat="43.69777" lon="3.70055">
        <ele>178.21987983936</ele>
        <time>2020-08-08T08:26:11.000Z</time>
      </trkpt>
      <trkpt lat="43.69776" lon="3.7006">
        <ele>178.32028144578</ele>
        <time>2020-08-08T08:26:12.000Z</time>
      </trkpt>
      <trkpt lat="43.69775" lon="3.70064">
        <ele>178.42068305221</ele>
        <time>2020-08-08T08:26:13.000Z</time>
      </trkpt>
      <trkpt lat="43.69774" lon="3.70068">
        <ele>178.52108465864</ele>
        <time>2020-08-08T08:26:14.000Z</time>
      </trkpt>
      <trkpt lat="43.69772" lon="3.70073">
        <ele>178.62148626506</ele>
        <time>2020-08-08T08:26:15.000Z</time>
      </trkpt>
      <trkpt lat="43.69771" lon="3.70077">
        <ele>178.72188787149</ele>
        <time>2020-08-08T08:26:16.000Z</time>
      </trkpt>
      <trkpt lat="43.69769" lon="3.70081">
        <ele>178.82228947791</ele>
        <time>2020-08-08T08:26:17.000Z</time>
      </trkpt>
      <trkpt lat="43.69767" lon="3.70085">
        <ele>178.92269108434</ele>
        <time>2020-08-08T08:26:18.000Z</time>
      </trkpt>
      <trkpt lat="43.69764" lon="3.70089">
        <ele>179</ele>
        <time>2020-08-08T08:26:19.000Z</time>
      </trkpt>
      <trkpt lat="43.69762" lon="3.70093">
        <ele>179</ele>
        <time>2020-08-08T08:26:20.000Z</time>
      </trkpt>
      <trkpt lat="43.69759" lon="3.70096">
        <ele>179</ele>
        <time>2020-08-08T08:26:21.000Z</time>
      </trkpt>
      <trkpt lat="43.69757" lon="3.701">
        <ele>179</ele>
        <time>2020-08-08T08:26:22.000Z</time>
      </trkpt>
      <trkpt lat="43.69755" lon="3.70104">
        <ele>179</ele>
        <time>2020-08-08T08:26:23.000Z</time>
      </trkpt>
      <trkpt lat="43.69753" lon="3.70108">
        <ele>179</ele>
        <time>2020-08-08T08:26:24.000Z</time>
      </trkpt>
      <trkpt lat="43.69751" lon="3.70112">
        <ele>179</ele>
        <time>2020-08-08T08:26:25.000Z</time>
      </trkpt>
      <trkpt lat="43.69749" lon="3.70115">
        <ele>179</ele>
        <time>2020-08-08T08:26:26.000Z</time>
      </trkpt>
      <trkpt lat="43.69746" lon="3.70118">
        <ele>179</ele>
        <time>2020-08-08T08:26:27.000Z</time>
      </trkpt>
      <trkpt lat="43.69744" lon="3.70121">
        <ele>179</ele>
        <time>2020-08-08T08:26:28.000Z</time>
      </trkpt>
      <trkpt lat="43.69742" lon="3.70125">
        <ele>179.04600064</ele>
        <time>2020-08-08T08:26:29.000Z</time>
      </trkpt>
      <trkpt lat="43.6974" lon="3.70128">
        <ele>179.24600064</ele>
        <time>2020-08-08T08:26:30.000Z</time>
      </trkpt>
      <trkpt lat="43.69737" lon="3.70131">
        <ele>179.44600064</ele>
        <time>2020-08-08T08:26:31.000Z</time>
      </trkpt>
      <trkpt lat="43.69734" lon="3.70134">
        <ele>179.64600064</ele>
        <time>2020-08-08T08:26:32.000Z</time>
      </trkpt>
      <trkpt lat="43.69732" lon="3.70137">
        <ele>179.84600064</ele>
        <time>2020-08-08T08:26:33.000Z</time>
      </trkpt>
      <trkpt lat="43.69729" lon="3.7014">
        <ele>180.04600064</ele>
        <time>2020-08-08T08:26:34.000Z</time>
      </trkpt>
      <trkpt lat="43.69727" lon="3.70144">
        <ele>180.24600064</ele>
        <time>2020-08-08T08:26:35.000Z</time>
      </trkpt>
      <trkpt lat="43.69724" lon="3.70147">
        <ele>180.44600064</ele>
        <time>2020-08-08T08:26:36.000Z</time>
      </trkpt>
      <trkpt lat="43.69721" lon="3.7015">
        <ele>180.64600064</ele>
        <time>2020-08-08T08:26:37.000Z</time>
      </trkpt>
      <trkpt lat="43.69718" lon="3.70153">
        <ele>180.84600064</ele>
        <time>2020-08-08T08:26:38.000Z</time>
      </trkpt>
      <trkpt lat="43.69716" lon="3.70156">
        <ele>181.04563555556</ele>
        <time>2020-08-08T08:26:39.000Z</time>
      </trkpt>
      <trkpt lat="43.69713" lon="3.70158">
        <ele>181.24404825397</ele>
        <time>2020-08-08T08:26:40.000Z</time>
      </trkpt>
      <trkpt lat="43.69711" lon="3.70161">
        <ele>181.44246095238</ele>
        <time>2020-08-08T08:26:41.000Z</time>
      </trkpt>
      <trkpt lat="43.69708" lon="3.70164">
        <ele>181.64087365079</ele>
        <time>2020-08-08T08:26:42.000Z</time>
      </trkpt>
      <trkpt lat="43.69706" lon="3.70167">
        <ele>181.83928634921</ele>
        <time>2020-08-08T08:26:43.000Z</time>
      </trkpt>
      <trkpt lat="43.69703" lon="3.70169">
        <ele>182.03769904762</ele>
        <time>2020-08-08T08:26:44.000Z</time>
      </trkpt>
      <trkpt lat="43.69701" lon="3.70172">
        <ele>182.23611174603</ele>
        <time>2020-08-08T08:26:45.000Z</time>
      </trkpt>
      <trkpt lat="43.69698" lon="3.70174">
        <ele>182.43452444444</ele>
        <time>2020-08-08T08:26:46.000Z</time>
      </trkpt>
      <trkpt lat="43.69695" lon="3.70177">
        <ele>182.63293714286</ele>
        <time>2020-08-08T08:26:47.000Z</time>
      </trkpt>
      <trkpt lat="43.69693" lon="3.70179">
        <ele>182.83134984127</ele>
        <time>2020-08-08T08:26:48.000Z</time>
      </trkpt>
      <trkpt lat="43.6969" lon="3.70182">
        <ele>183.01506056225</ele>
        <time>2020-08-08T08:26:49.000Z</time>
      </trkpt>
      <trkpt lat="43.69687" lon="3.70184">
        <ele>183.11546216868</ele>
        <time>2020-08-08T08:26:50.000Z</time>
      </trkpt>
      <trkpt lat="43.69684" lon="3.70187">
        <ele>183.2158637751</ele>
        <time>2020-08-08T08:26:51.000Z</time>
      </trkpt>
      <trkpt lat="43.69682" lon="3.70189">
        <ele>183.31626538153</ele>
        <time>2020-08-08T08:26:52.000Z</time>
      </trkpt>
      <trkpt lat="43.6968" lon="3.70191">
        <ele>183.41666698795</ele>
        <time>2020-08-08T08:26:53.000Z</time>
      </trkpt>
      <trkpt lat="43.69677" lon="3.70192">
        <ele>183.51706859438</ele>
        <time>2020-08-08T08:26:54.000Z</time>
      </trkpt>
      <trkpt lat="43.69675" lon="3.70194">
        <ele>183.6174702008</ele>
        <time>2020-08-08T08:26:55.000Z</time>
      </trkpt>
      <trkpt lat="43.69672" lon="3.70195">
        <ele>183.71787180723</ele>
        <time>2020-08-08T08:26:56.000Z</time>
      </trkpt>
      <trkpt lat="43.69669" lon="3.70196">
        <ele>183.81827341365</ele>
        <time>2020-08-08T08:26:57.000Z</time>
      </trkpt>
      <trkpt lat="43.69667" lon="3.70198">
        <ele>183.91867502008</ele>
        <time>2020-08-08T08:26:58.000Z</time>
      </trkpt>
      <trkpt lat="43.69664" lon="3.70199">
        <ele>184.03815325301</ele>
        <time>2020-08-08T08:26:59.000Z</time>
      </trkpt>
      <trkpt lat="43.69662" lon="3.702">
        <ele>184.23895646586</ele>
        <time>2020-08-08T08:27:00.000Z</time>
      </trkpt>
      <trkpt lat="43.69659" lon="3.70201">
        <ele>184.43975967872</ele>
        <time>2020-08-08T08:27:01.000Z</time>
      </trkpt>
      <trkpt lat="43.69657" lon="3.70202">
        <ele>184.64056289157</ele>
        <time>2020-08-08T08:27:02.000Z</time>
      </trkpt>
      <trkpt lat="43.69654" lon="3.70203">
        <ele>184.84136610442</ele>
        <time>2020-08-08T08:27:03.000Z</time>
      </trkpt>
      <trkpt lat="43.69652" lon="3.70204">
        <ele>185.04216931727</ele>
        <time>2020-08-08T08:27:04.000Z</time>
      </trkpt>
      <trkpt lat="43.6965" lon="3.70205">
        <ele>185.24297253012</ele>
        <time>2020-08-08T08:27:05.000Z</time>
      </trkpt>
      <trkpt lat="43.69647" lon="3.70206">
        <ele>185.44377574297</ele>
        <time>2020-08-08T08:27:06.000Z</time>
      </trkpt>
      <trkpt lat="43.69645" lon="3.70207">
        <ele>185.64457895582</ele>
        <time>2020-08-08T08:27:07.000Z</time>
      </trkpt>
      <trkpt lat="43.69642" lon="3.70208">
        <ele>185.84538216868</ele>
        <time>2020-08-08T08:27:08.000Z</time>
      </trkpt>
      <trkpt lat="43.6964" lon="3.70209">
        <ele>186.02300032</ele>
        <time>2020-08-08T08:27:09.000Z</time>
      </trkpt>
      <trkpt lat="43.69637" lon="3.7021">
        <ele>186.12300032</ele>
        <time>2020-08-08T08:27:10.000Z</time>
      </trkpt>
      <trkpt lat="43.69634" lon="3.70212">
        <ele>186.22300032</ele>
        <time>2020-08-08T08:27:11.000Z</time>
      </trkpt>
      <trkpt lat="43.69631" lon="3.70213">
        <ele>186.32300032</ele>
        <time>2020-08-08T08:27:12.000Z</time>
      </trkpt>
      <trkpt lat="43.69629" lon="3.70215">
        <ele>186.42300032</ele>
        <time>2020-08-08T08:27:13.000Z</time>
      </trkpt>
      <trkpt lat="43.69626" lon="3.70216">
        <ele>186.52300032</ele>
        <time>2020-08-08T08:27:14.000Z</time>
      </trkpt>
      <trkpt lat="43.69624" lon="3.70217">
        <ele>186.62300032</ele>
        <time>2020-08-08T08:27:15.000Z</time>
      </trkpt>
      <trkpt lat="43.69621" lon="3.70219">
        <ele>186.72300032</ele>
        <time>2020-08-08T08:27:16.000Z</time>
      </trkpt>
      <trkpt lat="43.69619" lon="3.7022">
        <ele>186.82300032</ele>
        <time>2020-08-08T08:27:17.000Z</time>
      </trkpt>
      <trkpt lat="43.69617" lon="3.70222">
        <ele>186.92300032</ele>
        <time>2020-08-08T08:27:18.000Z</time>
      </trkpt>
      <trkpt lat="43.69614" lon="3.70224">
        <ele>187.02300032</ele>
        <time>2020-08-08T08:27:19.000Z</time>
      </trkpt>
      <trkpt lat="43.69612" lon="3.70225">
        <ele>187.12300032</ele>
        <time>2020-08-08T08:27:20.000Z</time>
      </trkpt>
      <trkpt lat="43.6961" lon="3.70227">
        <ele>187.22300032</ele>
        <time>2020-08-08T08:27:21.000Z</time>
      </trkpt>
      <trkpt lat="43.69607" lon="3.70228">
        <ele>187.32300032</ele>
        <time>2020-08-08T08:27:22.000Z</time>
      </trkpt>
      <trkpt lat="43.69604" lon="3.70229">
        <ele>187.42300032</ele>
        <time>2020-08-08T08:27:23.000Z</time>
      </trkpt>
      <trkpt lat="43.69602" lon="3.7023">
        <ele>187.52300032</ele>
        <time>2020-08-08T08:27:24.000Z</time>
      </trkpt>
      <trkpt lat="43.69599" lon="3.7023">
        <ele>187.62300032</ele>
        <time>2020-08-08T08:27:25.000Z</time>
      </trkpt>
      <trkpt lat="43.69597" lon="3.7023">
        <ele>187.72300032</ele>
        <time>2020-08-08T08:27:26.000Z</time>
      </trkpt>
      <trkpt lat="43.69594" lon="3.70231">
        <ele>187.82300032</ele>
        <time>2020-08-08T08:27:27.000Z</time>
      </trkpt>
      <trkpt lat="43.69592" lon="3.70232">
        <ele>187.92300032</ele>
        <time>2020-08-08T08:27:28.000Z</time>
      </trkpt>
      <trkpt lat="43.6959" lon="3.70233">
        <ele>188.02300032</ele>
        <time>2020-08-08T08:27:29.000Z</time>
      </trkpt>
      <trkpt lat="43.69588" lon="3.70235">
        <ele>188.12300032</ele>
        <time>2020-08-08T08:27:30.000Z</time>
      </trkpt>
      <trkpt lat="43.69586" lon="3.70237">
        <ele>188.22300032</ele>
        <time>2020-08-08T08:27:31.000Z</time>
      </trkpt>
      <trkpt lat="43.69583" lon="3.70238">
        <ele>188.32300032</ele>
        <time>2020-08-08T08:27:32.000Z</time>
      </trkpt>
      <trkpt lat="43.69582" lon="3.70239">
        <ele>188.42300032</ele>
        <time>2020-08-08T08:27:33.000Z</time>
      </trkpt>
      <trkpt lat="43.6958" lon="3.7024">
        <ele>188.52300032</ele>
        <time>2020-08-08T08:27:34.000Z</time>
      </trkpt>
      <trkpt lat="43.69577" lon="3.70242">
        <ele>188.72300032</ele>
        <time>2020-08-08T08:27:36.000Z</time>
      </trkpt>
      <trkpt lat="43.69574" lon="3.70244">
        <ele>188.92300032</ele>
        <time>2020-08-08T08:27:38.000Z</time>
      </trkpt>
      <trkpt lat="43.69571" lon="3.70247">
        <ele>189.11941771221</ele>
        <time>2020-08-08T08:27:40.000Z</time>
      </trkpt>
      <trkpt lat="43.69569" lon="3.70249">
        <ele>189.31359234884</ele>
        <time>2020-08-08T08:27:42.000Z</time>
      </trkpt>
      <trkpt lat="43.69566" lon="3.70252">
        <ele>189.50776698546</ele>
        <time>2020-08-08T08:27:44.000Z</time>
      </trkpt>
      <trkpt lat="43.69563" lon="3.70255">
        <ele>189.7019416221</ele>
        <time>2020-08-08T08:27:46.000Z</time>
      </trkpt>
      <trkpt lat="43.69562" lon="3.70257">
        <ele>189.79902894041</ele>
        <time>2020-08-08T08:27:47.000Z</time>
      </trkpt>
      <trkpt lat="43.6956" lon="3.7026">
        <ele>189.99320357704</ele>
        <time>2020-08-08T08:27:49.000Z</time>
      </trkpt>
      <trkpt lat="43.69559" lon="3.70261">
        <ele>190</ele>
        <time>2020-08-08T08:27:54.000Z</time>
      </trkpt>
      <trkpt lat="43.69554" lon="3.70268">
        <ele>191.00711414634</ele>
        <time>2020-08-08T08:28:35.000Z</time>
      </trkpt>
      <trkpt lat="43.69551" lon="3.70272">
        <ele>191.21036617886</ele>
        <time>2020-08-08T08:28:37.000Z</time>
      </trkpt>
      <trkpt lat="43.6955" lon="3.70274">
        <ele>191.31199219512</ele>
        <time>2020-08-08T08:28:38.000Z</time>
      </trkpt>
      <trkpt lat="43.69549" lon="3.70277">
        <ele>191.41361821138</ele>
        <time>2020-08-08T08:28:39.000Z</time>
      </trkpt>
      <trkpt lat="43.69547" lon="3.70279">
        <ele>191.51524422764</ele>
        <time>2020-08-08T08:28:40.000Z</time>
      </trkpt>
      <trkpt lat="43.69545" lon="3.70281">
        <ele>191.6168702439</ele>
        <time>2020-08-08T08:28:41.000Z</time>
      </trkpt>
      <trkpt lat="43.69544" lon="3.70283">
        <ele>191.71849626016</ele>
        <time>2020-08-08T08:28:42.000Z</time>
      </trkpt>
      <trkpt lat="43.69542" lon="3.70286">
        <ele>191.82012227642</ele>
        <time>2020-08-08T08:28:43.000Z</time>
      </trkpt>
      <trkpt lat="43.69541" lon="3.70288">
        <ele>191.92174829268</ele>
        <time>2020-08-08T08:28:44.000Z</time>
      </trkpt>
      <trkpt lat="43.69539" lon="3.7029">
        <ele>192.02237385214</ele>
        <time>2020-08-08T08:28:45.000Z</time>
      </trkpt>
      <trkpt lat="43.69537" lon="3.70292">
        <ele>192.11965011673</ele>
        <time>2020-08-08T08:28:46.000Z</time>
      </trkpt>
      <trkpt lat="43.69535" lon="3.70294">
        <ele>192.21692638132</ele>
        <time>2020-08-08T08:28:47.000Z</time>
      </trkpt>
      <trkpt lat="43.69534" lon="3.70296">
        <ele>192.31420264591</ele>
        <time>2020-08-08T08:28:48.000Z</time>
      </trkpt>
      <trkpt lat="43.69532" lon="3.70298">
        <ele>192.41147891051</ele>
        <time>2020-08-08T08:28:49.000Z</time>
      </trkpt>
      <trkpt lat="43.6953" lon="3.703">
        <ele>192.5087551751</ele>
        <time>2020-08-08T08:28:50.000Z</time>
      </trkpt>
      <trkpt lat="43.69529" lon="3.70302">
        <ele>192.60603143969</ele>
        <time>2020-08-08T08:28:51.000Z</time>
      </trkpt>
      <trkpt lat="43.69527" lon="3.70304">
        <ele>192.70330770428</ele>
        <time>2020-08-08T08:28:52.000Z</time>
      </trkpt>
      <trkpt lat="43.69525" lon="3.70306">
        <ele>192.80058396887</ele>
        <time>2020-08-08T08:28:53.000Z</time>
      </trkpt>
      <trkpt lat="43.69523" lon="3.70308">
        <ele>192.89786023346</ele>
        <time>2020-08-08T08:28:54.000Z</time>
      </trkpt>
      <trkpt lat="43.69521" lon="3.7031">
        <ele>192.99513649805</ele>
        <time>2020-08-08T08:28:55.000Z</time>
      </trkpt>
      <trkpt lat="43.6952" lon="3.70313">
        <ele>193.09773695473</ele>
        <time>2020-08-08T08:28:56.000Z</time>
      </trkpt>
      <trkpt lat="43.69518" lon="3.70315">
        <ele>193.20061761317</ele>
        <time>2020-08-08T08:28:57.000Z</time>
      </trkpt>
      <trkpt lat="43.69517" lon="3.70317">
        <ele>193.30349827161</ele>
        <time>2020-08-08T08:28:58.000Z</time>
      </trkpt>
      <trkpt lat="43.69515" lon="3.7032">
        <ele>193.40637893004</ele>
        <time>2020-08-08T08:28:59.000Z</time>
      </trkpt>
      <trkpt lat="43.69513" lon="3.70322">
        <ele>193.50925958848</ele>
        <time>2020-08-08T08:29:00.000Z</time>
      </trkpt>
      <trkpt lat="43.69512" lon="3.70324">
        <ele>193.61214024691</ele>
        <time>2020-08-08T08:29:01.000Z</time>
      </trkpt>
      <trkpt lat="43.6951" lon="3.70326">
        <ele>193.71502090535</ele>
        <time>2020-08-08T08:29:02.000Z</time>
      </trkpt>
      <trkpt lat="43.69508" lon="3.70328">
        <ele>193.81790156379</ele>
        <time>2020-08-08T08:29:03.000Z</time>
      </trkpt>
      <trkpt lat="43.69507" lon="3.7033">
        <ele>193.92078222222</ele>
        <time>2020-08-08T08:29:04.000Z</time>
      </trkpt>
      <trkpt lat="43.69505" lon="3.70332">
        <ele>194.02279514184</ele>
        <time>2020-08-08T08:29:05.000Z</time>
      </trkpt>
      <trkpt lat="43.69504" lon="3.70334">
        <ele>194.12190307529</ele>
        <time>2020-08-08T08:29:06.000Z</time>
      </trkpt>
      <trkpt lat="43.69502" lon="3.70337">
        <ele>194.22101100875</ele>
        <time>2020-08-08T08:29:07.000Z</time>
      </trkpt>
      <trkpt lat="43.69501" lon="3.70339">
        <ele>194.32011894221</ele>
        <time>2020-08-08T08:29:08.000Z</time>
      </trkpt>
      <trkpt lat="43.69499" lon="3.7034">
        <ele>194.41922687566</ele>
        <time>2020-08-08T08:29:09.000Z</time>
      </trkpt>
      <trkpt lat="43.69497" lon="3.70342">
        <ele>194.51833480912</ele>
        <time>2020-08-08T08:29:10.000Z</time>
      </trkpt>
      <trkpt lat="43.69495" lon="3.70344">
        <ele>194.61744274257</ele>
        <time>2020-08-08T08:29:11.000Z</time>
      </trkpt>
      <trkpt lat="43.69494" lon="3.70345">
        <ele>194.71655067603</ele>
        <time>2020-08-08T08:29:12.000Z</time>
      </trkpt>
      <trkpt lat="43.69492" lon="3.70347">
        <ele>194.81565860948</ele>
        <time>2020-08-08T08:29:13.000Z</time>
      </trkpt>
      <trkpt lat="43.69491" lon="3.70349">
        <ele>194.91476654294</ele>
        <time>2020-08-08T08:29:14.000Z</time>
      </trkpt>
      <trkpt lat="43.69489" lon="3.7035">
        <ele>195.01406972212</ele>
        <time>2020-08-08T08:29:15.000Z</time>
      </trkpt>
      <trkpt lat="43.69487" lon="3.70352">
        <ele>195.11457233165</ele>
        <time>2020-08-08T08:29:16.000Z</time>
      </trkpt>
      <trkpt lat="43.69486" lon="3.70353">
        <ele>195.21507494118</ele>
        <time>2020-08-08T08:29:17.000Z</time>
      </trkpt>
      <trkpt lat="43.69484" lon="3.70355">
        <ele>195.31557755071</ele>
        <time>2020-08-08T08:29:18.000Z</time>
      </trkpt>
      <trkpt lat="43.69482" lon="3.70356">
        <ele>195.41608016024</ele>
        <time>2020-08-08T08:29:19.000Z</time>
      </trkpt>
      <trkpt lat="43.69481" lon="3.70358">
        <ele>195.51658276977</ele>
        <time>2020-08-08T08:29:20.000Z</time>
      </trkpt>
      <trkpt lat="43.69477" lon="3.7036">
        <ele>195.71758798883</ele>
        <time>2020-08-08T08:29:22.000Z</time>
      </trkpt>
      <trkpt lat="43.69476" lon="3.70361">
        <ele>195.81809059836</ele>
        <time>2020-08-08T08:29:23.000Z</time>
      </trkpt>
      <trkpt lat="43.69473" lon="3.70364">
        <ele>196.01903838459</ele>
        <time>2020-08-08T08:29:25.000Z</time>
      </trkpt>
      <trkpt lat="43.6947" lon="3.70366">
        <ele>196.21943905767</ele>
        <time>2020-08-08T08:29:27.000Z</time>
      </trkpt>
      <trkpt lat="43.69467" lon="3.70368">
        <ele>196.41983973076</ele>
        <time>2020-08-08T08:29:29.000Z</time>
      </trkpt>
      <trkpt lat="43.69464" lon="3.7037">
        <ele>196.62024040385</ele>
        <time>2020-08-08T08:29:31.000Z</time>
      </trkpt>
      <trkpt lat="43.69462" lon="3.70372">
        <ele>196.7204407404</ele>
        <time>2020-08-08T08:29:32.000Z</time>
      </trkpt>
      <trkpt lat="43.6946" lon="3.70373">
        <ele>196.82064107694</ele>
        <time>2020-08-08T08:29:33.000Z</time>
      </trkpt>
      <trkpt lat="43.69459" lon="3.70374">
        <ele>196.92084141349</ele>
        <time>2020-08-08T08:29:34.000Z</time>
      </trkpt>
      <trkpt lat="43.69457" lon="3.70375">
        <ele>197.02034852713</ele>
        <time>2020-08-08T08:29:35.000Z</time>
      </trkpt>
      <trkpt lat="43.69454" lon="3.70378">
        <ele>197.21414697674</ele>
        <time>2020-08-08T08:29:37.000Z</time>
      </trkpt>
      <trkpt lat="43.69452" lon="3.7038">
        <ele>197.40794542636</ele>
        <time>2020-08-08T08:29:39.000Z</time>
      </trkpt>
      <trkpt lat="43.69449" lon="3.70382">
        <ele>197.60174387597</ele>
        <time>2020-08-08T08:29:41.000Z</time>
      </trkpt>
      <trkpt lat="43.69447" lon="3.70384">
        <ele>197.79554232558</ele>
        <time>2020-08-08T08:29:43.000Z</time>
      </trkpt>
      <trkpt lat="43.69445" lon="3.70388">
        <ele>197.98934077519</ele>
        <time>2020-08-08T08:29:45.000Z</time>
      </trkpt>
      <trkpt lat="43.69443" lon="3.70391">
        <ele>198.39130394455</ele>
        <time>2020-08-08T08:29:47.000Z</time>
      </trkpt>
      <trkpt lat="43.69441" lon="3.70395">
        <ele>198.80538289384</ele>
        <time>2020-08-08T08:29:49.000Z</time>
      </trkpt>
      <trkpt lat="43.69438" lon="3.70398">
        <ele>199.21946184312</ele>
        <time>2020-08-08T08:29:51.000Z</time>
      </trkpt>
      <trkpt lat="43.69436" lon="3.70401">
        <ele>199.63354079241</ele>
        <time>2020-08-08T08:29:53.000Z</time>
      </trkpt>
      <trkpt lat="43.69434" lon="3.70405">
        <ele>200.02300032</ele>
        <time>2020-08-08T08:29:55.000Z</time>
      </trkpt>
      <trkpt lat="43.69432" lon="3.70407">
        <ele>200.12300032</ele>
        <time>2020-08-08T08:29:56.000Z</time>
      </trkpt>
      <trkpt lat="43.69431" lon="3.70409">
        <ele>200.22300032</ele>
        <time>2020-08-08T08:29:57.000Z</time>
      </trkpt>
      <trkpt lat="43.69429" lon="3.7041">
        <ele>200.32300032</ele>
        <time>2020-08-08T08:29:58.000Z</time>
      </trkpt>
      <trkpt lat="43.69428" lon="3.70412">
        <ele>200.42300032</ele>
        <time>2020-08-08T08:29:59.000Z</time>
      </trkpt>
      <trkpt lat="43.69426" lon="3.70413">
        <ele>200.52300032</ele>
        <time>2020-08-08T08:30:00.000Z</time>
      </trkpt>
      <trkpt lat="43.69424" lon="3.70415">
        <ele>200.62300032</ele>
        <time>2020-08-08T08:30:01.000Z</time>
      </trkpt>
      <trkpt lat="43.69423" lon="3.70416">
        <ele>200.72300032</ele>
        <time>2020-08-08T08:30:02.000Z</time>
      </trkpt>
      <trkpt lat="43.69421" lon="3.70417">
        <ele>200.82300032</ele>
        <time>2020-08-08T08:30:03.000Z</time>
      </trkpt>
      <trkpt lat="43.69418" lon="3.70419">
        <ele>201.02300032</ele>
        <time>2020-08-08T08:30:05.000Z</time>
      </trkpt>
      <trkpt lat="43.69416" lon="3.70421">
        <ele>201.12300032</ele>
        <time>2020-08-08T08:30:06.000Z</time>
      </trkpt>
      <trkpt lat="43.69415" lon="3.70422">
        <ele>201.22300032</ele>
        <time>2020-08-08T08:30:07.000Z</time>
      </trkpt>
      <trkpt lat="43.69413" lon="3.70423">
        <ele>201.32300032</ele>
        <time>2020-08-08T08:30:08.000Z</time>
      </trkpt>
      <trkpt lat="43.69411" lon="3.70424">
        <ele>201.42300032</ele>
        <time>2020-08-08T08:30:09.000Z</time>
      </trkpt>
      <trkpt lat="43.69409" lon="3.70425">
        <ele>201.52300032</ele>
        <time>2020-08-08T08:30:10.000Z</time>
      </trkpt>
      <trkpt lat="43.69406" lon="3.70427">
        <ele>201.72300032</ele>
        <time>2020-08-08T08:30:12.000Z</time>
      </trkpt>
      <trkpt lat="43.69403" lon="3.70429">
        <ele>201.92300032</ele>
        <time>2020-08-08T08:30:14.000Z</time>
      </trkpt>
      <trkpt lat="43.69399" lon="3.70431">
        <ele>202.12300032</ele>
        <time>2020-08-08T08:30:16.000Z</time>
      </trkpt>
      <trkpt lat="43.69397" lon="3.70432">
        <ele>202.22300032</ele>
        <time>2020-08-08T08:30:17.000Z</time>
      </trkpt>
      <trkpt lat="43.69395" lon="3.70433">
        <ele>202.32300032</ele>
        <time>2020-08-08T08:30:18.000Z</time>
      </trkpt>
      <trkpt lat="43.69393" lon="3.70434">
        <ele>202.42300032</ele>
        <time>2020-08-08T08:30:19.000Z</time>
      </trkpt>
      <trkpt lat="43.69391" lon="3.70434">
        <ele>202.52300032</ele>
        <time>2020-08-08T08:30:20.000Z</time>
      </trkpt>
      <trkpt lat="43.69388" lon="3.70435">
        <ele>202.72300032</ele>
        <time>2020-08-08T08:30:22.000Z</time>
      </trkpt>
      <trkpt lat="43.69385" lon="3.70437">
        <ele>202.92300032</ele>
        <time>2020-08-08T08:30:24.000Z</time>
      </trkpt>
      <trkpt lat="43.69383" lon="3.70439">
        <ele>203.24550946395</ele>
        <time>2020-08-08T08:30:26.000Z</time>
      </trkpt>
      <trkpt lat="43.69381" lon="3.7044">
        <ele>203.44511013486</ele>
        <time>2020-08-08T08:30:27.000Z</time>
      </trkpt>
      <trkpt lat="43.69377" lon="3.70442">
        <ele>203.84431147669</ele>
        <time>2020-08-08T08:30:29.000Z</time>
      </trkpt>
      <trkpt lat="43.69376" lon="3.70443">
        <ele>204.0439121476</ele>
        <time>2020-08-08T08:30:30.000Z</time>
      </trkpt>
      <trkpt lat="43.69374" lon="3.70444">
        <ele>204.24351281852</ele>
        <time>2020-08-08T08:30:31.000Z</time>
      </trkpt>
      <trkpt lat="43.69372" lon="3.70444">
        <ele>204.44311348943</ele>
        <time>2020-08-08T08:30:32.000Z</time>
      </trkpt>
      <trkpt lat="43.6937" lon="3.70445">
        <ele>204.64271416034</ele>
        <time>2020-08-08T08:30:33.000Z</time>
      </trkpt>
      <trkpt lat="43.69368" lon="3.70446">
        <ele>204.84231483126</ele>
        <time>2020-08-08T08:30:34.000Z</time>
      </trkpt>
      <trkpt lat="43.69365" lon="3.70447">
        <ele>205.12124224208</ele>
        <time>2020-08-08T08:30:36.000Z</time>
      </trkpt>
      <trkpt lat="43.69362" lon="3.70447">
        <ele>205.3216431722</ele>
        <time>2020-08-08T08:30:38.000Z</time>
      </trkpt>
      <trkpt lat="43.6936" lon="3.70447">
        <ele>205.42184363725</ele>
        <time>2020-08-08T08:30:39.000Z</time>
      </trkpt>
      <trkpt lat="43.69358" lon="3.70446">
        <ele>205.52204410231</ele>
        <time>2020-08-08T08:30:40.000Z</time>
      </trkpt>
      <trkpt lat="43.69355" lon="3.70445">
        <ele>205.72244503243</ele>
        <time>2020-08-08T08:30:42.000Z</time>
      </trkpt>
      <trkpt lat="43.69353" lon="3.70444">
        <ele>205.82264549749</ele>
        <time>2020-08-08T08:30:43.000Z</time>
      </trkpt>
      <trkpt lat="43.69351" lon="3.70443">
        <ele>205.92284596255</ele>
        <time>2020-08-08T08:30:44.000Z</time>
      </trkpt>
      <trkpt lat="43.6935" lon="3.70442">
        <ele>206.02300032</ele>
        <time>2020-08-08T08:30:45.000Z</time>
      </trkpt>
      <trkpt lat="43.69348" lon="3.70441">
        <ele>206.12300032</ele>
        <time>2020-08-08T08:30:46.000Z</time>
      </trkpt>
      <trkpt lat="43.69346" lon="3.7044">
        <ele>206.22300032</ele>
        <time>2020-08-08T08:30:47.000Z</time>
      </trkpt>
      <trkpt lat="43.69344" lon="3.70439">
        <ele>206.32300032</ele>
        <time>2020-08-08T08:30:48.000Z</time>
      </trkpt>
      <trkpt lat="43.69342" lon="3.70438">
        <ele>206.42300032</ele>
        <time>2020-08-08T08:30:49.000Z</time>
      </trkpt>
      <trkpt lat="43.6934" lon="3.70437">
        <ele>206.52300032</ele>
        <time>2020-08-08T08:30:50.000Z</time>
      </trkpt>
      <trkpt lat="43.69339" lon="3.70435">
        <ele>206.62300032</ele>
        <time>2020-08-08T08:30:51.000Z</time>
      </trkpt>
      <trkpt lat="43.69337" lon="3.70434">
        <ele>206.72300032</ele>
        <time>2020-08-08T08:30:52.000Z</time>
      </trkpt>
      <trkpt lat="43.69335" lon="3.70432">
        <ele>206.82300032</ele>
        <time>2020-08-08T08:30:53.000Z</time>
      </trkpt>
      <trkpt lat="43.69333" lon="3.70431">
        <ele>206.92300032</ele>
        <time>2020-08-08T08:30:54.000Z</time>
      </trkpt>
      <trkpt lat="43.69332" lon="3.70429">
        <ele>207.04487863114</ele>
        <time>2020-08-08T08:30:55.000Z</time>
      </trkpt>
      <trkpt lat="43.6933" lon="3.70428">
        <ele>207.24000039961</ele>
        <time>2020-08-08T08:30:56.000Z</time>
      </trkpt>
      <trkpt lat="43.69328" lon="3.70427">
        <ele>207.43512216808</ele>
        <time>2020-08-08T08:30:57.000Z</time>
      </trkpt>
      <trkpt lat="43.69327" lon="3.70425">
        <ele>207.63024393655</ele>
        <time>2020-08-08T08:30:58.000Z</time>
      </trkpt>
      <trkpt lat="43.69323" lon="3.70423">
        <ele>208.02048747349</ele>
        <time>2020-08-08T08:31:00.000Z</time>
      </trkpt>
      <trkpt lat="43.6932" lon="3.70421">
        <ele>208.41073101044</ele>
        <time>2020-08-08T08:31:02.000Z</time>
      </trkpt>
      <trkpt lat="43.69317" lon="3.7042">
        <ele>208.80097454738</ele>
        <time>2020-08-08T08:31:04.000Z</time>
      </trkpt>
      <trkpt lat="43.69315" lon="3.7042">
        <ele>208.99609631585</ele>
        <time>2020-08-08T08:31:05.000Z</time>
      </trkpt>
      <trkpt lat="43.69311" lon="3.70418">
        <ele>209.20307646662</ele>
        <time>2020-08-08T08:31:07.000Z</time>
      </trkpt>
      <trkpt lat="43.6931" lon="3.70417">
        <ele>209.30564067017</ele>
        <time>2020-08-08T08:31:08.000Z</time>
      </trkpt>
      <trkpt lat="43.69308" lon="3.70415">
        <ele>209.40820487372</ele>
        <time>2020-08-08T08:31:09.000Z</time>
      </trkpt>
      <trkpt lat="43.69305" lon="3.70413">
        <ele>209.61333328082</ele>
        <time>2020-08-08T08:31:11.000Z</time>
      </trkpt>
      <trkpt lat="43.69304" lon="3.70411">
        <ele>209.71589748437</ele>
        <time>2020-08-08T08:31:12.000Z</time>
      </trkpt>
      <trkpt lat="43.69302" lon="3.7041">
        <ele>209.81846168792</ele>
        <time>2020-08-08T08:31:13.000Z</time>
      </trkpt>
      <trkpt lat="43.69301" lon="3.70408">
        <ele>209.92102589147</ele>
        <time>2020-08-08T08:31:14.000Z</time>
      </trkpt>
      <trkpt lat="43.69299" lon="3.70407">
        <ele>210.02300032</ele>
        <time>2020-08-08T08:31:15.000Z</time>
      </trkpt>
      <trkpt lat="43.69298" lon="3.70405">
        <ele>210.12300032</ele>
        <time>2020-08-08T08:31:16.000Z</time>
      </trkpt>
      <trkpt lat="43.69296" lon="3.70403">
        <ele>210.22300032</ele>
        <time>2020-08-08T08:31:17.000Z</time>
      </trkpt>
      <trkpt lat="43.69293" lon="3.70401">
        <ele>210.42300032</ele>
        <time>2020-08-08T08:31:19.000Z</time>
      </trkpt>
      <trkpt lat="43.69291" lon="3.70399">
        <ele>210.52300032</ele>
        <time>2020-08-08T08:31:20.000Z</time>
      </trkpt>
      <trkpt lat="43.6929" lon="3.70398">
        <ele>210.62300032</ele>
        <time>2020-08-08T08:31:21.000Z</time>
      </trkpt>
      <trkpt lat="43.69288" lon="3.70397">
        <ele>210.72300032</ele>
        <time>2020-08-08T08:31:22.000Z</time>
      </trkpt>
      <trkpt lat="43.69286" lon="3.70396">
        <ele>210.82300032</ele>
        <time>2020-08-08T08:31:23.000Z</time>
      </trkpt>
      <trkpt lat="43.69285" lon="3.70395">
        <ele>210.92300032</ele>
        <time>2020-08-08T08:31:24.000Z</time>
      </trkpt>
      <trkpt lat="43.69283" lon="3.70394">
        <ele>211.04600064</ele>
        <time>2020-08-08T08:31:25.000Z</time>
      </trkpt>
      <trkpt lat="43.69281" lon="3.70393">
        <ele>211.24600064</ele>
        <time>2020-08-08T08:31:26.000Z</time>
      </trkpt>
      <trkpt lat="43.69279" lon="3.70393">
        <ele>211.44600064</ele>
        <time>2020-08-08T08:31:27.000Z</time>
      </trkpt>
      <trkpt lat="43.69277" lon="3.70392">
        <ele>211.64600064</ele>
        <time>2020-08-08T08:31:28.000Z</time>
      </trkpt>
      <trkpt lat="43.69274" lon="3.70391">
        <ele>212.04600064</ele>
        <time>2020-08-08T08:31:30.000Z</time>
      </trkpt>
      <trkpt lat="43.6927" lon="3.70391">
        <ele>212.44600064</ele>
        <time>2020-08-08T08:31:32.000Z</time>
      </trkpt>
      <trkpt lat="43.69267" lon="3.7039">
        <ele>212.84600064</ele>
        <time>2020-08-08T08:31:34.000Z</time>
      </trkpt>
      <trkpt lat="43.69264" lon="3.70389">
        <ele>213.1222666419</ele>
        <time>2020-08-08T08:31:36.000Z</time>
      </trkpt>
      <trkpt lat="43.69262" lon="3.70388">
        <ele>213.22167015719</ele>
        <time>2020-08-08T08:31:37.000Z</time>
      </trkpt>
      <trkpt lat="43.69259" lon="3.70387">
        <ele>213.42047718777</ele>
        <time>2020-08-08T08:31:39.000Z</time>
      </trkpt>
      <trkpt lat="43.69255" lon="3.70387">
        <ele>213.61928421835</ele>
        <time>2020-08-08T08:31:41.000Z</time>
      </trkpt>
      <trkpt lat="43.69253" lon="3.70387">
        <ele>213.71868773364</ele>
        <time>2020-08-08T08:31:42.000Z</time>
      </trkpt>
      <trkpt lat="43.69251" lon="3.70387">
        <ele>213.81809124893</ele>
        <time>2020-08-08T08:31:43.000Z</time>
      </trkpt>
      <trkpt lat="43.69249" lon="3.70387">
        <ele>213.91749476422</ele>
        <time>2020-08-08T08:31:44.000Z</time>
      </trkpt>
      <trkpt lat="43.69247" lon="3.70388">
        <ele>214</ele>
        <time>2020-08-08T08:31:45.000Z</time>
      </trkpt>
      <trkpt lat="43.69245" lon="3.70388">
        <ele>214</ele>
        <time>2020-08-08T08:31:46.000Z</time>
      </trkpt>
      <trkpt lat="43.69244" lon="3.70388">
        <ele>214</ele>
        <time>2020-08-08T08:31:47.000Z</time>
      </trkpt>
      <trkpt lat="43.69242" lon="3.70388">
        <ele>214</ele>
        <time>2020-08-08T08:31:48.000Z</time>
      </trkpt>
      <trkpt lat="43.6924" lon="3.70388">
        <ele>214</ele>
        <time>2020-08-08T08:31:49.000Z</time>
      </trkpt>
      <trkpt lat="43.69238" lon="3.70388">
        <ele>214</ele>
        <time>2020-08-08T08:31:50.000Z</time>
      </trkpt>
      <trkpt lat="43.69236" lon="3.70389">
        <ele>214</ele>
        <time>2020-08-08T08:31:51.000Z</time>
      </trkpt>
      <trkpt lat="43.69233" lon="3.70389">
        <ele>214</ele>
        <time>2020-08-08T08:31:52.000Z</time>
      </trkpt>
      <trkpt lat="43.69231" lon="3.7039">
        <ele>214</ele>
        <time>2020-08-08T08:31:53.000Z</time>
      </trkpt>
      <trkpt lat="43.69229" lon="3.7039">
        <ele>214</ele>
        <time>2020-08-08T08:31:54.000Z</time>
      </trkpt>
      <trkpt lat="43.69226" lon="3.70391">
        <ele>214.04474770428</ele>
        <time>2020-08-08T08:31:55.000Z</time>
      </trkpt>
      <trkpt lat="43.69224" lon="3.70391">
        <ele>214.23930023346</ele>
        <time>2020-08-08T08:31:56.000Z</time>
      </trkpt>
      <trkpt lat="43.69222" lon="3.70391">
        <ele>214.43385276265</ele>
        <time>2020-08-08T08:31:57.000Z</time>
      </trkpt>
      <trkpt lat="43.6922" lon="3.70392">
        <ele>214.62840529183</ele>
        <time>2020-08-08T08:31:58.000Z</time>
      </trkpt>
      <trkpt lat="43.69217" lon="3.70392">
        <ele>214.82295782101</ele>
        <time>2020-08-08T08:31:59.000Z</time>
      </trkpt>
      <trkpt lat="43.69215" lon="3.70393">
        <ele>215.0175103502</ele>
        <time>2020-08-08T08:32:00.000Z</time>
      </trkpt>
      <trkpt lat="43.69213" lon="3.70393">
        <ele>215.21206287938</ele>
        <time>2020-08-08T08:32:01.000Z</time>
      </trkpt>
      <trkpt lat="43.69211" lon="3.70393">
        <ele>215.40661540856</ele>
        <time>2020-08-08T08:32:02.000Z</time>
      </trkpt>
      <trkpt lat="43.69208" lon="3.70393">
        <ele>215.60116793774</ele>
        <time>2020-08-08T08:32:03.000Z</time>
      </trkpt>
      <trkpt lat="43.69206" lon="3.70393">
        <ele>215.79572046693</ele>
        <time>2020-08-08T08:32:04.000Z</time>
      </trkpt>
      <trkpt lat="43.69204" lon="3.70394">
        <ele>215.99027299611</ele>
        <time>2020-08-08T08:32:05.000Z</time>
      </trkpt>
      <trkpt lat="43.69201" lon="3.70394">
        <ele>216.09733639344</ele>
        <time>2020-08-08T08:32:06.000Z</time>
      </trkpt>
      <trkpt lat="43.69199" lon="3.70393">
        <ele>216.19979540984</ele>
        <time>2020-08-08T08:32:07.000Z</time>
      </trkpt>
      <trkpt lat="43.69197" lon="3.70393">
        <ele>216.30225442623</ele>
        <time>2020-08-08T08:32:08.000Z</time>
      </trkpt>
      <trkpt lat="43.69194" lon="3.70393">
        <ele>216.40471344262</ele>
        <time>2020-08-08T08:32:09.000Z</time>
      </trkpt>
      <trkpt lat="43.69192" lon="3.70392">
        <ele>216.50717245902</ele>
        <time>2020-08-08T08:32:10.000Z</time>
      </trkpt>
      <trkpt lat="43.6919" lon="3.70392">
        <ele>216.60963147541</ele>
        <time>2020-08-08T08:32:11.000Z</time>
      </trkpt>
      <trkpt lat="43.69188" lon="3.70392">
        <ele>216.7120904918</ele>
        <time>2020-08-08T08:32:12.000Z</time>
      </trkpt>
      <trkpt lat="43.69186" lon="3.70391">
        <ele>216.8145495082</ele>
        <time>2020-08-08T08:32:13.000Z</time>
      </trkpt>
      <trkpt lat="43.69184" lon="3.70391">
        <ele>216.91700852459</ele>
        <time>2020-08-08T08:32:14.000Z</time>
      </trkpt>
      <trkpt lat="43.69182" lon="3.70391">
        <ele>217.01907662651</ele>
        <time>2020-08-08T08:32:15.000Z</time>
      </trkpt>
      <trkpt lat="43.6918" lon="3.7039">
        <ele>217.11947823293</ele>
        <time>2020-08-08T08:32:16.000Z</time>
      </trkpt>
      <trkpt lat="43.69178" lon="3.70389">
        <ele>217.21987983936</ele>
        <time>2020-08-08T08:32:17.000Z</time>
      </trkpt>
      <trkpt lat="43.69176" lon="3.70389">
        <ele>217.32028144578</ele>
        <time>2020-08-08T08:32:18.000Z</time>
      </trkpt>
      <trkpt lat="43.69173" lon="3.70387">
        <ele>217.42068305221</ele>
        <time>2020-08-08T08:32:19.000Z</time>
      </trkpt>
      <trkpt lat="43.69171" lon="3.70386">
        <ele>217.52108465864</ele>
        <time>2020-08-08T08:32:20.000Z</time>
      </trkpt>
      <trkpt lat="43.6917" lon="3.70384">
        <ele>217.62148626506</ele>
        <time>2020-08-08T08:32:21.000Z</time>
      </trkpt>
      <trkpt lat="43.69167" lon="3.70383">
        <ele>217.72188787149</ele>
        <time>2020-08-08T08:32:22.000Z</time>
      </trkpt>
      <trkpt lat="43.69165" lon="3.70381">
        <ele>217.82228947791</ele>
        <time>2020-08-08T08:32:23.000Z</time>
      </trkpt>
      <trkpt lat="43.69163" lon="3.7038">
        <ele>217.92269108434</ele>
        <time>2020-08-08T08:32:24.000Z</time>
      </trkpt>
      <trkpt lat="43.69162" lon="3.70378">
        <ele>218.04581737052</ele>
        <time>2020-08-08T08:32:25.000Z</time>
      </trkpt>
      <trkpt lat="43.6916" lon="3.70377">
        <ele>218.24502055777</ele>
        <time>2020-08-08T08:32:26.000Z</time>
      </trkpt>
      <trkpt lat="43.69158" lon="3.70376">
        <ele>218.44422374502</ele>
        <time>2020-08-08T08:32:27.000Z</time>
      </trkpt>
      <trkpt lat="43.69156" lon="3.70375">
        <ele>218.64342693227</ele>
        <time>2020-08-08T08:32:28.000Z</time>
      </trkpt>
      <trkpt lat="43.69154" lon="3.70374">
        <ele>218.84263011952</ele>
        <time>2020-08-08T08:32:29.000Z</time>
      </trkpt>
      <trkpt lat="43.69151" lon="3.70373">
        <ele>219.04183330677</ele>
        <time>2020-08-08T08:32:30.000Z</time>
      </trkpt>
      <trkpt lat="43.69149" lon="3.70372">
        <ele>219.24103649402</ele>
        <time>2020-08-08T08:32:31.000Z</time>
      </trkpt>
      <trkpt lat="43.69147" lon="3.70372">
        <ele>219.44023968127</ele>
        <time>2020-08-08T08:32:32.000Z</time>
      </trkpt>
      <trkpt lat="43.69145" lon="3.70371">
        <ele>219.63944286853</ele>
        <time>2020-08-08T08:32:33.000Z</time>
      </trkpt>
      <trkpt lat="43.69143" lon="3.70371">
        <ele>219.83864605578</ele>
        <time>2020-08-08T08:32:34.000Z</time>
      </trkpt>
      <trkpt lat="43.69141" lon="3.70371">
        <ele>220</ele>
        <time>2020-08-08T08:32:35.000Z</time>
      </trkpt>
      <trkpt lat="43.69139" lon="3.70371">
        <ele>220</ele>
        <time>2020-08-08T08:32:36.000Z</time>
      </trkpt>
      <trkpt lat="43.69136" lon="3.70371">
        <ele>220</ele>
        <time>2020-08-08T08:32:37.000Z</time>
      </trkpt>
      <trkpt lat="43.69134" lon="3.70371">
        <ele>220</ele>
        <time>2020-08-08T08:32:38.000Z</time>
      </trkpt>
      <trkpt lat="43.69132" lon="3.70372">
        <ele>220</ele>
        <time>2020-08-08T08:32:39.000Z</time>
      </trkpt>
      <trkpt lat="43.69129" lon="3.70372">
        <ele>220</ele>
        <time>2020-08-08T08:32:40.000Z</time>
      </trkpt>
      <trkpt lat="43.69127" lon="3.70373">
        <ele>220</ele>
        <time>2020-08-08T08:32:41.000Z</time>
      </trkpt>
      <trkpt lat="43.69125" lon="3.70373">
        <ele>220</ele>
        <time>2020-08-08T08:32:42.000Z</time>
      </trkpt>
      <trkpt lat="43.69123" lon="3.70374">
        <ele>220</ele>
        <time>2020-08-08T08:32:43.000Z</time>
      </trkpt>
      <trkpt lat="43.69121" lon="3.70374">
        <ele>220</ele>
        <time>2020-08-08T08:32:44.000Z</time>
      </trkpt>
      <trkpt lat="43.69118" lon="3.70375">
        <ele>220.04600064</ele>
        <time>2020-08-08T08:32:45.000Z</time>
      </trkpt>
      <trkpt lat="43.69116" lon="3.70376">
        <ele>220.24600064</ele>
        <time>2020-08-08T08:32:46.000Z</time>
      </trkpt>
      <trkpt lat="43.69114" lon="3.70376">
        <ele>220.44600064</ele>
        <time>2020-08-08T08:32:47.000Z</time>
      </trkpt>
      <trkpt lat="43.69113" lon="3.70377">
        <ele>220.64600064</ele>
        <time>2020-08-08T08:32:48.000Z</time>
      </trkpt>
      <trkpt lat="43.69111" lon="3.70379">
        <ele>220.84600064</ele>
        <time>2020-08-08T08:32:49.000Z</time>
      </trkpt>
      <trkpt lat="43.69109" lon="3.7038">
        <ele>221.04600064</ele>
        <time>2020-08-08T08:32:50.000Z</time>
      </trkpt>
      <trkpt lat="43.69107" lon="3.70383">
        <ele>221.44600064</ele>
        <time>2020-08-08T08:32:52.000Z</time>
      </trkpt>
      <trkpt lat="43.69106" lon="3.70387">
        <ele>221.84600064</ele>
        <time>2020-08-08T08:32:54.000Z</time>
      </trkpt>
      <trkpt lat="43.69105" lon="3.70391">
        <ele>222.24600064</ele>
        <time>2020-08-08T08:32:56.000Z</time>
      </trkpt>
      <trkpt lat="43.69104" lon="3.70394">
        <ele>222.64600064</ele>
        <time>2020-08-08T08:32:58.000Z</time>
      </trkpt>
      <trkpt lat="43.69103" lon="3.70398">
        <ele>223.04600064</ele>
        <time>2020-08-08T08:33:00.000Z</time>
      </trkpt>
      <trkpt lat="43.69101" lon="3.70402">
        <ele>223.44600064</ele>
        <time>2020-08-08T08:33:02.000Z</time>
      </trkpt>
      <trkpt lat="43.69101" lon="3.70405">
        <ele>223.64600064</ele>
        <time>2020-08-08T08:33:03.000Z</time>
      </trkpt>
      <trkpt lat="43.691" lon="3.70407">
        <ele>223.84600064</ele>
        <time>2020-08-08T08:33:04.000Z</time>
      </trkpt>
      <trkpt lat="43.69098" lon="3.7041">
        <ele>224.02300032</ele>
        <time>2020-08-08T08:33:05.000Z</time>
      </trkpt>
      <trkpt lat="43.69098" lon="3.70412">
        <ele>224.12300032</ele>
        <time>2020-08-08T08:33:06.000Z</time>
      </trkpt>
      <trkpt lat="43.69096" lon="3.70415">
        <ele>224.22300032</ele>
        <time>2020-08-08T08:33:07.000Z</time>
      </trkpt>
      <trkpt lat="43.69096" lon="3.70417">
        <ele>224.32300032</ele>
        <time>2020-08-08T08:33:08.000Z</time>
      </trkpt>
      <trkpt lat="43.69095" lon="3.70419">
        <ele>224.42300032</ele>
        <time>2020-08-08T08:33:09.000Z</time>
      </trkpt>
      <trkpt lat="43.69094" lon="3.70422">
        <ele>224.52300032</ele>
        <time>2020-08-08T08:33:10.000Z</time>
      </trkpt>
      <trkpt lat="43.69092" lon="3.70426">
        <ele>224.72300032</ele>
        <time>2020-08-08T08:33:12.000Z</time>
      </trkpt>
      <trkpt lat="43.69091" lon="3.7043">
        <ele>224.92300032</ele>
        <time>2020-08-08T08:33:14.000Z</time>
      </trkpt>
      <trkpt lat="43.6909" lon="3.70433">
        <ele>225</ele>
        <time>2020-08-08T08:33:15.000Z</time>
      </trkpt>
      <trkpt lat="43.69089" lon="3.70435">
        <ele>225</ele>
        <time>2020-08-08T08:33:16.000Z</time>
      </trkpt>
      <trkpt lat="43.69088" lon="3.70438">
        <ele>225</ele>
        <time>2020-08-08T08:33:17.000Z</time>
      </trkpt>
      <trkpt lat="43.69087" lon="3.70441">
        <ele>225</ele>
        <time>2020-08-08T08:33:18.000Z</time>
      </trkpt>
      <trkpt lat="43.69086" lon="3.70444">
        <ele>225</ele>
        <time>2020-08-08T08:33:19.000Z</time>
      </trkpt>
      <trkpt lat="43.69085" lon="3.70447">
        <ele>225</ele>
        <time>2020-08-08T08:33:20.000Z</time>
      </trkpt>
      <trkpt lat="43.69084" lon="3.70449">
        <ele>225</ele>
        <time>2020-08-08T08:33:21.000Z</time>
      </trkpt>
      <trkpt lat="43.69083" lon="3.70452">
        <ele>225</ele>
        <time>2020-08-08T08:33:22.000Z</time>
      </trkpt>
      <trkpt lat="43.69083" lon="3.70454">
        <ele>225</ele>
        <time>2020-08-08T08:33:23.000Z</time>
      </trkpt>
      <trkpt lat="43.69082" lon="3.70457">
        <ele>225</ele>
        <time>2020-08-08T08:33:24.000Z</time>
      </trkpt>
      <trkpt lat="43.69081" lon="3.7046">
        <ele>225.02288589783</ele>
        <time>2020-08-08T08:33:25.000Z</time>
      </trkpt>
      <trkpt lat="43.6908" lon="3.70463">
        <ele>225.12238841708</ele>
        <time>2020-08-08T08:33:26.000Z</time>
      </trkpt>
      <trkpt lat="43.69079" lon="3.70466">
        <ele>225.22189093632</ele>
        <time>2020-08-08T08:33:27.000Z</time>
      </trkpt>
      <trkpt lat="43.69078" lon="3.70469">
        <ele>225.32139345557</ele>
        <time>2020-08-08T08:33:28.000Z</time>
      </trkpt>
      <trkpt lat="43.69077" lon="3.70472">
        <ele>225.42089597481</ele>
        <time>2020-08-08T08:33:29.000Z</time>
      </trkpt>
      <trkpt lat="43.69076" lon="3.70474">
        <ele>225.52039849406</ele>
        <time>2020-08-08T08:33:30.000Z</time>
      </trkpt>
      <trkpt lat="43.69076" lon="3.70477">
        <ele>225.6199010133</ele>
        <time>2020-08-08T08:33:31.000Z</time>
      </trkpt>
      <trkpt lat="43.69075" lon="3.7048">
        <ele>225.71940353255</ele>
        <time>2020-08-08T08:33:32.000Z</time>
      </trkpt>
      <trkpt lat="43.69074" lon="3.70483">
        <ele>225.81890605179</ele>
        <time>2020-08-08T08:33:33.000Z</time>
      </trkpt>
      <trkpt lat="43.69073" lon="3.70486">
        <ele>225.91840857104</ele>
        <time>2020-08-08T08:33:34.000Z</time>
      </trkpt>
      <trkpt lat="43.69072" lon="3.70489">
        <ele>226</ele>
        <time>2020-08-08T08:33:35.000Z</time>
      </trkpt>
      <trkpt lat="43.69071" lon="3.70492">
        <ele>226</ele>
        <time>2020-08-08T08:33:36.000Z</time>
      </trkpt>
      <trkpt lat="43.6907" lon="3.70494">
        <ele>226</ele>
        <time>2020-08-08T08:33:37.000Z</time>
      </trkpt>
      <trkpt lat="43.69069" lon="3.70497">
        <ele>226</ele>
        <time>2020-08-08T08:33:38.000Z</time>
      </trkpt>
      <trkpt lat="43.69068" lon="3.705">
        <ele>226</ele>
        <time>2020-08-08T08:33:39.000Z</time>
      </trkpt>
      <trkpt lat="43.69066" lon="3.70503">
        <ele>226</ele>
        <time>2020-08-08T08:33:40.000Z</time>
      </trkpt>
      <trkpt lat="43.69065" lon="3.70506">
        <ele>226</ele>
        <time>2020-08-08T08:33:41.000Z</time>
      </trkpt>
      <trkpt lat="43.69064" lon="3.70508">
        <ele>226</ele>
        <time>2020-08-08T08:33:42.000Z</time>
      </trkpt>
      <trkpt lat="43.69062" lon="3.70511">
        <ele>226</ele>
        <time>2020-08-08T08:33:43.000Z</time>
      </trkpt>
      <trkpt lat="43.69061" lon="3.70514">
        <ele>226</ele>
        <time>2020-08-08T08:33:44.000Z</time>
      </trkpt>
      <trkpt lat="43.6906" lon="3.70516">
        <ele>226.02300032</ele>
        <time>2020-08-08T08:33:45.000Z</time>
      </trkpt>
      <trkpt lat="43.69058" lon="3.70519">
        <ele>226.12300032</ele>
        <time>2020-08-08T08:33:46.000Z</time>
      </trkpt>
      <trkpt lat="43.69057" lon="3.70522">
        <ele>226.22300032</ele>
        <time>2020-08-08T08:33:47.000Z</time>
      </trkpt>
      <trkpt lat="43.69056" lon="3.70525">
        <ele>226.32300032</ele>
        <time>2020-08-08T08:33:48.000Z</time>
      </trkpt>
      <trkpt lat="43.69055" lon="3.70527">
        <ele>226.42300032</ele>
        <time>2020-08-08T08:33:49.000Z</time>
      </trkpt>
      <trkpt lat="43.69054" lon="3.7053">
        <ele>226.52300032</ele>
        <time>2020-08-08T08:33:50.000Z</time>
      </trkpt>
      <trkpt lat="43.69052" lon="3.70533">
        <ele>226.62300032</ele>
        <time>2020-08-08T08:33:51.000Z</time>
      </trkpt>
      <trkpt lat="43.69051" lon="3.70536">
        <ele>226.72300032</ele>
        <time>2020-08-08T08:33:52.000Z</time>
      </trkpt>
      <trkpt lat="43.6905" lon="3.70539">
        <ele>226.82300032</ele>
        <time>2020-08-08T08:33:53.000Z</time>
      </trkpt>
      <trkpt lat="43.69048" lon="3.70541">
        <ele>226.92300032</ele>
        <time>2020-08-08T08:33:54.000Z</time>
      </trkpt>
      <trkpt lat="43.69047" lon="3.70544">
        <ele>227</ele>
        <time>2020-08-08T08:33:55.000Z</time>
      </trkpt>
      <trkpt lat="43.69046" lon="3.70546">
        <ele>227</ele>
        <time>2020-08-08T08:33:56.000Z</time>
      </trkpt>
      <trkpt lat="43.69044" lon="3.70548">
        <ele>227</ele>
        <time>2020-08-08T08:33:57.000Z</time>
      </trkpt>
      <trkpt lat="43.69043" lon="3.70551">
        <ele>227</ele>
        <time>2020-08-08T08:33:58.000Z</time>
      </trkpt>
      <trkpt lat="43.69042" lon="3.70553">
        <ele>227</ele>
        <time>2020-08-08T08:33:59.000Z</time>
      </trkpt>
      <trkpt lat="43.6904" lon="3.70555">
        <ele>227</ele>
        <time>2020-08-08T08:34:00.000Z</time>
      </trkpt>
      <trkpt lat="43.69039" lon="3.70557">
        <ele>227</ele>
        <time>2020-08-08T08:34:01.000Z</time>
      </trkpt>
      <trkpt lat="43.69037" lon="3.7056">
        <ele>227</ele>
        <time>2020-08-08T08:34:02.000Z</time>
      </trkpt>
      <trkpt lat="43.69036" lon="3.70562">
        <ele>227</ele>
        <time>2020-08-08T08:34:03.000Z</time>
      </trkpt>
      <trkpt lat="43.69035" lon="3.70565">
        <ele>227</ele>
        <time>2020-08-08T08:34:04.000Z</time>
      </trkpt>
      <trkpt lat="43.69033" lon="3.70567">
        <ele>227.01907662651</ele>
        <time>2020-08-08T08:34:05.000Z</time>
      </trkpt>
      <trkpt lat="43.69032" lon="3.70569">
        <ele>227.11947823293</ele>
        <time>2020-08-08T08:34:06.000Z</time>
      </trkpt>
      <trkpt lat="43.6903" lon="3.70571">
        <ele>227.21987983936</ele>
        <time>2020-08-08T08:34:07.000Z</time>
      </trkpt>
      <trkpt lat="43.69029" lon="3.70574">
        <ele>227.32028144578</ele>
        <time>2020-08-08T08:34:08.000Z</time>
      </trkpt>
      <trkpt lat="43.69027" lon="3.70576">
        <ele>227.42068305221</ele>
        <time>2020-08-08T08:34:09.000Z</time>
      </trkpt>
      <trkpt lat="43.69026" lon="3.70578">
        <ele>227.52108465864</ele>
        <time>2020-08-08T08:34:10.000Z</time>
      </trkpt>
      <trkpt lat="43.69024" lon="3.70581">
        <ele>227.72188787149</ele>
        <time>2020-08-08T08:34:12.000Z</time>
      </trkpt>
      <trkpt lat="43.69022" lon="3.70583">
        <ele>227.82228947791</ele>
        <time>2020-08-08T08:34:13.000Z</time>
      </trkpt>
      <trkpt lat="43.69021" lon="3.70585">
        <ele>227.92269108434</ele>
        <time>2020-08-08T08:34:14.000Z</time>
      </trkpt>
      <trkpt lat="43.69019" lon="3.70587">
        <ele>228.02259362037</ele>
        <time>2020-08-08T08:34:15.000Z</time>
      </trkpt>
      <trkpt lat="43.69018" lon="3.70589">
        <ele>228.12082538573</ele>
        <time>2020-08-08T08:34:16.000Z</time>
      </trkpt>
      <trkpt lat="43.69016" lon="3.70591">
        <ele>228.21905715108</ele>
        <time>2020-08-08T08:34:17.000Z</time>
      </trkpt>
      <trkpt lat="43.69015" lon="3.70593">
        <ele>228.31728891644</ele>
        <time>2020-08-08T08:34:18.000Z</time>
      </trkpt>
      <trkpt lat="43.69013" lon="3.70595">
        <ele>228.41552068179</ele>
        <time>2020-08-08T08:34:19.000Z</time>
      </trkpt>
      <trkpt lat="43.69012" lon="3.70598">
        <ele>228.51375244715</ele>
        <time>2020-08-08T08:34:20.000Z</time>
      </trkpt>
      <trkpt lat="43.6901" lon="3.706">
        <ele>228.61198421251</ele>
        <time>2020-08-08T08:34:21.000Z</time>
      </trkpt>
      <trkpt lat="43.69009" lon="3.70602">
        <ele>228.71021597786</ele>
        <time>2020-08-08T08:34:22.000Z</time>
      </trkpt>
      <trkpt lat="43.69008" lon="3.70604">
        <ele>228.80844774322</ele>
        <time>2020-08-08T08:34:23.000Z</time>
      </trkpt>
      <trkpt lat="43.69007" lon="3.70606">
        <ele>228.90667950857</ele>
        <time>2020-08-08T08:34:24.000Z</time>
      </trkpt>
      <trkpt lat="43.69005" lon="3.70609">
        <ele>229.00507067266</ele>
        <time>2020-08-08T08:34:25.000Z</time>
      </trkpt>
      <trkpt lat="43.69004" lon="3.70612">
        <ele>229.10649061679</ele>
        <time>2020-08-08T08:34:26.000Z</time>
      </trkpt>
      <trkpt lat="43.69002" lon="3.70615">
        <ele>229.20791056092</ele>
        <time>2020-08-08T08:34:27.000Z</time>
      </trkpt>
      <trkpt lat="43.69001" lon="3.70618">
        <ele>229.30933050504</ele>
        <time>2020-08-08T08:34:28.000Z</time>
      </trkpt>
      <trkpt lat="43.69" lon="3.7062">
        <ele>229.41075044917</ele>
        <time>2020-08-08T08:34:29.000Z</time>
      </trkpt>
      <trkpt lat="43.68999" lon="3.70623">
        <ele>229.5121703933</ele>
        <time>2020-08-08T08:34:30.000Z</time>
      </trkpt>
      <trkpt lat="43.68997" lon="3.70626">
        <ele>229.61359033742</ele>
        <time>2020-08-08T08:34:31.000Z</time>
      </trkpt>
      <trkpt lat="43.68996" lon="3.70629">
        <ele>229.71501028155</ele>
        <time>2020-08-08T08:34:32.000Z</time>
      </trkpt>
      <trkpt lat="43.68995" lon="3.70632">
        <ele>229.81643022567</ele>
        <time>2020-08-08T08:34:33.000Z</time>
      </trkpt>
      <trkpt lat="43.68994" lon="3.70635">
        <ele>229.9178501698</ele>
        <time>2020-08-08T08:34:34.000Z</time>
      </trkpt>
      <trkpt lat="43.68993" lon="3.70637">
        <ele>230.01907662651</ele>
        <time>2020-08-08T08:34:35.000Z</time>
      </trkpt>
      <trkpt lat="43.68992" lon="3.7064">
        <ele>230.11947823293</ele>
        <time>2020-08-08T08:34:36.000Z</time>
      </trkpt>
      <trkpt lat="43.68991" lon="3.70643">
        <ele>230.21987983936</ele>
        <time>2020-08-08T08:34:37.000Z</time>
      </trkpt>
      <trkpt lat="43.6899" lon="3.70646">
        <ele>230.32028144578</ele>
        <time>2020-08-08T08:34:38.000Z</time>
      </trkpt>
      <trkpt lat="43.68989" lon="3.70649">
        <ele>230.42068305221</ele>
        <time>2020-08-08T08:34:39.000Z</time>
      </trkpt>
      <trkpt lat="43.68988" lon="3.70652">
        <ele>230.52108465864</ele>
        <time>2020-08-08T08:34:40.000Z</time>
      </trkpt>
      <trkpt lat="43.68987" lon="3.70654">
        <ele>230.62148626506</ele>
        <time>2020-08-08T08:34:41.000Z</time>
      </trkpt>
      <trkpt lat="43.68986" lon="3.70657">
        <ele>230.72188787149</ele>
        <time>2020-08-08T08:34:42.000Z</time>
      </trkpt>
      <trkpt lat="43.68985" lon="3.7066">
        <ele>230.82228947791</ele>
        <time>2020-08-08T08:34:43.000Z</time>
      </trkpt>
      <trkpt lat="43.68984" lon="3.70662">
        <ele>230.92269108434</ele>
        <time>2020-08-08T08:34:44.000Z</time>
      </trkpt>
      <trkpt lat="43.68983" lon="3.70665">
        <ele>231.02275006204</ele>
        <time>2020-08-08T08:34:45.000Z</time>
      </trkpt>
      <trkpt lat="43.68983" lon="3.70668">
        <ele>231.12166199908</ele>
        <time>2020-08-08T08:34:46.000Z</time>
      </trkpt>
      <trkpt lat="43.68982" lon="3.70671">
        <ele>231.22057393612</ele>
        <time>2020-08-08T08:34:47.000Z</time>
      </trkpt>
      <trkpt lat="43.68981" lon="3.70674">
        <ele>231.31948587316</ele>
        <time>2020-08-08T08:34:48.000Z</time>
      </trkpt>
      <trkpt lat="43.6898" lon="3.70677">
        <ele>231.4183978102</ele>
        <time>2020-08-08T08:34:49.000Z</time>
      </trkpt>
      <trkpt lat="43.68979" lon="3.7068">
        <ele>231.51730974724</ele>
        <time>2020-08-08T08:34:50.000Z</time>
      </trkpt>
      <trkpt lat="43.68978" lon="3.70683">
        <ele>231.61622168428</ele>
        <time>2020-08-08T08:34:51.000Z</time>
      </trkpt>
      <trkpt lat="43.68977" lon="3.70686">
        <ele>231.71513362132</ele>
        <time>2020-08-08T08:34:52.000Z</time>
      </trkpt>
      <trkpt lat="43.68977" lon="3.70689">
        <ele>231.81404555836</ele>
        <time>2020-08-08T08:34:53.000Z</time>
      </trkpt>
      <trkpt lat="43.68977" lon="3.70692">
        <ele>231.9129574954</ele>
        <time>2020-08-08T08:34:54.000Z</time>
      </trkpt>
      <trkpt lat="43.68976" lon="3.70695">
        <ele>232.02359882748</ele>
        <time>2020-08-08T08:34:55.000Z</time>
      </trkpt>
      <trkpt lat="43.68976" lon="3.70698">
        <ele>232.22025572319</ele>
        <time>2020-08-08T08:34:56.000Z</time>
      </trkpt>
      <trkpt lat="43.68976" lon="3.70701">
        <ele>232.41691261889</ele>
        <time>2020-08-08T08:34:57.000Z</time>
      </trkpt>
      <trkpt lat="43.68976" lon="3.70704">
        <ele>232.61356951459</ele>
        <time>2020-08-08T08:34:58.000Z</time>
      </trkpt>
      <trkpt lat="43.68976" lon="3.70707">
        <ele>232.8102264103</ele>
        <time>2020-08-08T08:34:59.000Z</time>
      </trkpt>
      <trkpt lat="43.68975" lon="3.7071">
        <ele>233.006883306</ele>
        <time>2020-08-08T08:35:00.000Z</time>
      </trkpt>
      <trkpt lat="43.68975" lon="3.70713">
        <ele>233.2035402017</ele>
        <time>2020-08-08T08:35:01.000Z</time>
      </trkpt>
      <trkpt lat="43.68975" lon="3.70716">
        <ele>233.40019709741</ele>
        <time>2020-08-08T08:35:02.000Z</time>
      </trkpt>
      <trkpt lat="43.68975" lon="3.70719">
        <ele>233.59685399311</ele>
        <time>2020-08-08T08:35:03.000Z</time>
      </trkpt>
      <trkpt lat="43.68975" lon="3.70722">
        <ele>233.79351088881</ele>
        <time>2020-08-08T08:35:04.000Z</time>
      </trkpt>
      <trkpt lat="43.68974" lon="3.70725">
        <ele>233.99016778452</ele>
        <time>2020-08-08T08:35:05.000Z</time>
      </trkpt>
      <trkpt lat="43.68974" lon="3.70728">
        <ele>234.09500032</ele>
        <time>2020-08-08T08:35:06.000Z</time>
      </trkpt>
      <trkpt lat="43.68974" lon="3.70731">
        <ele>234.19500032</ele>
        <time>2020-08-08T08:35:07.000Z</time>
      </trkpt>
      <trkpt lat="43.68974" lon="3.70734">
        <ele>234.29500032</ele>
        <time>2020-08-08T08:35:08.000Z</time>
      </trkpt>
      <trkpt lat="43.68974" lon="3.70737">
        <ele>234.39500032</ele>
        <time>2020-08-08T08:35:09.000Z</time>
      </trkpt>
      <trkpt lat="43.68974" lon="3.7074">
        <ele>234.49500032</ele>
        <time>2020-08-08T08:35:10.000Z</time>
      </trkpt>
      <trkpt lat="43.68974" lon="3.70742">
        <ele>234.59500032</ele>
        <time>2020-08-08T08:35:11.000Z</time>
      </trkpt>
      <trkpt lat="43.68974" lon="3.70745">
        <ele>234.69500032</ele>
        <time>2020-08-08T08:35:12.000Z</time>
      </trkpt>
      <trkpt lat="43.68974" lon="3.70748">
        <ele>234.79500032</ele>
        <time>2020-08-08T08:35:13.000Z</time>
      </trkpt>
      <trkpt lat="43.68974" lon="3.70751">
        <ele>234.89500032</ele>
        <time>2020-08-08T08:35:14.000Z</time>
      </trkpt>
      <trkpt lat="43.68974" lon="3.70753">
        <ele>234.99500032</ele>
        <time>2020-08-08T08:35:15.000Z</time>
      </trkpt>
      <trkpt lat="43.68974" lon="3.70756">
        <ele>235.09733639344</ele>
        <time>2020-08-08T08:35:16.000Z</time>
      </trkpt>
      <trkpt lat="43.68974" lon="3.70759">
        <ele>235.19979540984</ele>
        <time>2020-08-08T08:35:17.000Z</time>
      </trkpt>
      <trkpt lat="43.68975" lon="3.70762">
        <ele>235.30225442623</ele>
        <time>2020-08-08T08:35:18.000Z</time>
      </trkpt>
      <trkpt lat="43.68975" lon="3.70764">
        <ele>235.40471344262</ele>
        <time>2020-08-08T08:35:19.000Z</time>
      </trkpt>
      <trkpt lat="43.68976" lon="3.70767">
        <ele>235.50717245902</ele>
        <time>2020-08-08T08:35:20.000Z</time>
      </trkpt>
      <trkpt lat="43.68976" lon="3.7077">
        <ele>235.60963147541</ele>
        <time>2020-08-08T08:35:21.000Z</time>
      </trkpt>
      <trkpt lat="43.68977" lon="3.70772">
        <ele>235.7120904918</ele>
        <time>2020-08-08T08:35:22.000Z</time>
      </trkpt>
      <trkpt lat="43.68978" lon="3.70775">
        <ele>235.8145495082</ele>
        <time>2020-08-08T08:35:23.000Z</time>
      </trkpt>
      <trkpt lat="43.68978" lon="3.70778">
        <ele>235.91700852459</ele>
        <time>2020-08-08T08:35:24.000Z</time>
      </trkpt>
      <trkpt lat="43.68978" lon="3.70781">
        <ele>236.01900032</ele>
        <time>2020-08-08T08:35:25.000Z</time>
      </trkpt>
      <trkpt lat="43.68979" lon="3.70783">
        <ele>236.11900032</ele>
        <time>2020-08-08T08:35:26.000Z</time>
      </trkpt>
      <trkpt lat="43.6898" lon="3.70786">
        <ele>236.21900032</ele>
        <time>2020-08-08T08:35:27.000Z</time>
      </trkpt>
      <trkpt lat="43.6898" lon="3.70789">
        <ele>236.31900032</ele>
        <time>2020-08-08T08:35:28.000Z</time>
      </trkpt>
      <trkpt lat="43.68981" lon="3.70792">
        <ele>236.41900032</ele>
        <time>2020-08-08T08:35:29.000Z</time>
      </trkpt>
      <trkpt lat="43.68981" lon="3.70794">
        <ele>236.51900032</ele>
        <time>2020-08-08T08:35:30.000Z</time>
      </trkpt>
      <trkpt lat="43.68982" lon="3.70797">
        <ele>236.61900032</ele>
        <time>2020-08-08T08:35:31.000Z</time>
      </trkpt>
      <trkpt lat="43.68983" lon="3.708">
        <ele>236.71900032</ele>
        <time>2020-08-08T08:35:32.000Z</time>
      </trkpt>
      <trkpt lat="43.68983" lon="3.70803">
        <ele>236.81900032</ele>
        <time>2020-08-08T08:35:33.000Z</time>
      </trkpt>
      <trkpt lat="43.68984" lon="3.70806">
        <ele>236.91900032</ele>
        <time>2020-08-08T08:35:34.000Z</time>
      </trkpt>
      <trkpt lat="43.68984" lon="3.70808">
        <ele>237</ele>
        <time>2020-08-08T08:35:35.000Z</time>
      </trkpt>
      <trkpt lat="43.68985" lon="3.70811">
        <ele>237</ele>
        <time>2020-08-08T08:35:36.000Z</time>
      </trkpt>
      <trkpt lat="43.68986" lon="3.70813">
        <ele>237</ele>
        <time>2020-08-08T08:35:37.000Z</time>
      </trkpt>
      <trkpt lat="43.68987" lon="3.70816">
        <ele>237</ele>
        <time>2020-08-08T08:35:38.000Z</time>
      </trkpt>
      <trkpt lat="43.68988" lon="3.70818">
        <ele>237</ele>
        <time>2020-08-08T08:35:39.000Z</time>
      </trkpt>
      <trkpt lat="43.68989" lon="3.70821">
        <ele>237</ele>
        <time>2020-08-08T08:35:40.000Z</time>
      </trkpt>
      <trkpt lat="43.6899" lon="3.70824">
        <ele>237</ele>
        <time>2020-08-08T08:35:41.000Z</time>
      </trkpt>
      <trkpt lat="43.68991" lon="3.70826">
        <ele>237</ele>
        <time>2020-08-08T08:35:42.000Z</time>
      </trkpt>
      <trkpt lat="43.68992" lon="3.70829">
        <ele>237</ele>
        <time>2020-08-08T08:35:43.000Z</time>
      </trkpt>
      <trkpt lat="43.68993" lon="3.70832">
        <ele>237</ele>
        <time>2020-08-08T08:35:44.000Z</time>
      </trkpt>
      <trkpt lat="43.68994" lon="3.70834">
        <ele>237</ele>
        <time>2020-08-08T08:35:45.000Z</time>
      </trkpt>
      <trkpt lat="43.68995" lon="3.70837">
        <ele>237</ele>
        <time>2020-08-08T08:35:46.000Z</time>
      </trkpt>
      <trkpt lat="43.68996" lon="3.70839">
        <ele>237</ele>
        <time>2020-08-08T08:35:47.000Z</time>
      </trkpt>
      <trkpt lat="43.68996" lon="3.70841">
        <ele>237</ele>
        <time>2020-08-08T08:35:48.000Z</time>
      </trkpt>
      <trkpt lat="43.68997" lon="3.70844">
        <ele>237</ele>
        <time>2020-08-08T08:35:49.000Z</time>
      </trkpt>
      <trkpt lat="43.68998" lon="3.70846">
        <ele>237</ele>
        <time>2020-08-08T08:35:50.000Z</time>
      </trkpt>
      <trkpt lat="43.68999" lon="3.70848">
        <ele>237</ele>
        <time>2020-08-08T08:35:51.000Z</time>
      </trkpt>
      <trkpt lat="43.69001" lon="3.70852">
        <ele>237</ele>
        <time>2020-08-08T08:35:53.000Z</time>
      </trkpt>
      <trkpt lat="43.69003" lon="3.70854">
        <ele>237</ele>
        <time>2020-08-08T08:35:54.000Z</time>
      </trkpt>
      <trkpt lat="43.69004" lon="3.70856">
        <ele>237.02300032</ele>
        <time>2020-08-08T08:35:55.000Z</time>
      </trkpt>
      <trkpt lat="43.69005" lon="3.70857">
        <ele>237.12300032</ele>
        <time>2020-08-08T08:35:56.000Z</time>
      </trkpt>
      <trkpt lat="43.69007" lon="3.70859">
        <ele>237.22300032</ele>
        <time>2020-08-08T08:35:57.000Z</time>
      </trkpt>
      <trkpt lat="43.69008" lon="3.7086">
        <ele>237.32300032</ele>
        <time>2020-08-08T08:35:58.000Z</time>
      </trkpt>
      <trkpt lat="43.6901" lon="3.70862">
        <ele>237.42300032</ele>
        <time>2020-08-08T08:35:59.000Z</time>
      </trkpt>
      <trkpt lat="43.69012" lon="3.70863">
        <ele>237.52300032</ele>
        <time>2020-08-08T08:36:00.000Z</time>
      </trkpt>
      <trkpt lat="43.69013" lon="3.70864">
        <ele>237.62300032</ele>
        <time>2020-08-08T08:36:01.000Z</time>
      </trkpt>
      <trkpt lat="43.69015" lon="3.70865">
        <ele>237.72300032</ele>
        <time>2020-08-08T08:36:02.000Z</time>
      </trkpt>
      <trkpt lat="43.69017" lon="3.70867">
        <ele>237.82300032</ele>
        <time>2020-08-08T08:36:03.000Z</time>
      </trkpt>
      <trkpt lat="43.69018" lon="3.70868">
        <ele>237.92300032</ele>
        <time>2020-08-08T08:36:04.000Z</time>
      </trkpt>
      <trkpt lat="43.6902" lon="3.70869">
        <ele>238.02290868526</ele>
        <time>2020-08-08T08:36:05.000Z</time>
      </trkpt>
      <trkpt lat="43.69022" lon="3.70871">
        <ele>238.12251027888</ele>
        <time>2020-08-08T08:36:06.000Z</time>
      </trkpt>
      <trkpt lat="43.69023" lon="3.70872">
        <ele>238.22211187251</ele>
        <time>2020-08-08T08:36:07.000Z</time>
      </trkpt>
      <trkpt lat="43.69026" lon="3.70874">
        <ele>238.42131505976</ele>
        <time>2020-08-08T08:36:09.000Z</time>
      </trkpt>
      <trkpt lat="43.69028" lon="3.70875">
        <ele>238.52091665339</ele>
        <time>2020-08-08T08:36:10.000Z</time>
      </trkpt>
      <trkpt lat="43.6903" lon="3.70876">
        <ele>238.62051824701</ele>
        <time>2020-08-08T08:36:11.000Z</time>
      </trkpt>
      <trkpt lat="43.69032" lon="3.70877">
        <ele>238.72011984064</ele>
        <time>2020-08-08T08:36:12.000Z</time>
      </trkpt>
      <trkpt lat="43.69033" lon="3.70879">
        <ele>238.81972143426</ele>
        <time>2020-08-08T08:36:13.000Z</time>
      </trkpt>
      <trkpt lat="43.69035" lon="3.7088">
        <ele>238.91932302789</ele>
        <time>2020-08-08T08:36:14.000Z</time>
      </trkpt>
      <trkpt lat="43.69038" lon="3.70882">
        <ele>239</ele>
        <time>2020-08-08T08:36:16.000Z</time>
      </trkpt>
      <trkpt lat="43.6904" lon="3.70883">
        <ele>239</ele>
        <time>2020-08-08T08:36:17.000Z</time>
      </trkpt>
      <trkpt lat="43.69043" lon="3.70885">
        <ele>239</ele>
        <time>2020-08-08T08:36:19.000Z</time>
      </trkpt>
      <trkpt lat="43.69046" lon="3.70887">
        <ele>239</ele>
        <time>2020-08-08T08:36:21.000Z</time>
      </trkpt>
      <trkpt lat="43.69049" lon="3.70889">
        <ele>239</ele>
        <time>2020-08-08T08:36:23.000Z</time>
      </trkpt>
      <trkpt lat="43.69053" lon="3.70891">
        <ele>239.02290868526</ele>
        <time>2020-08-08T08:36:25.000Z</time>
      </trkpt>
      <trkpt lat="43.69055" lon="3.70891">
        <ele>239.12251027888</ele>
        <time>2020-08-08T08:36:26.000Z</time>
      </trkpt>
      <trkpt lat="43.69058" lon="3.70893">
        <ele>239.32171346614</ele>
        <time>2020-08-08T08:36:28.000Z</time>
      </trkpt>
      <trkpt lat="43.69061" lon="3.70895">
        <ele>239.52091665339</ele>
        <time>2020-08-08T08:36:30.000Z</time>
      </trkpt>
      <trkpt lat="43.69064" lon="3.70896">
        <ele>239.72011984064</ele>
        <time>2020-08-08T08:36:32.000Z</time>
      </trkpt>
      <trkpt lat="43.69068" lon="3.70897">
        <ele>239.91932302789</ele>
        <time>2020-08-08T08:36:34.000Z</time>
      </trkpt>
      <trkpt lat="43.69071" lon="3.70898">
        <ele>240.23895646586</ele>
        <time>2020-08-08T08:36:36.000Z</time>
      </trkpt>
      <trkpt lat="43.69074" lon="3.70898">
        <ele>240.64056289157</ele>
        <time>2020-08-08T08:36:38.000Z</time>
      </trkpt>
      <trkpt lat="43.69077" lon="3.70899">
        <ele>241.04216931727</ele>
        <time>2020-08-08T08:36:40.000Z</time>
      </trkpt>
      <trkpt lat="43.69081" lon="3.709">
        <ele>241.44377574297</ele>
        <time>2020-08-08T08:36:42.000Z</time>
      </trkpt>
      <trkpt lat="43.69082" lon="3.709">
        <ele>241.64457895582</ele>
        <time>2020-08-08T08:36:43.000Z</time>
      </trkpt>
      <trkpt lat="43.69086" lon="3.70901">
        <ele>242</ele>
        <time>2020-08-08T08:36:45.000Z</time>
      </trkpt>
      <trkpt lat="43.69089" lon="3.70901">
        <ele>242</ele>
        <time>2020-08-08T08:36:47.000Z</time>
      </trkpt>
      <trkpt lat="43.69092" lon="3.70901">
        <ele>242</ele>
        <time>2020-08-08T08:36:49.000Z</time>
      </trkpt>
      <trkpt lat="43.69095" lon="3.709">
        <ele>242</ele>
        <time>2020-08-08T08:36:51.000Z</time>
      </trkpt>
      <trkpt lat="43.69099" lon="3.70901">
        <ele>242</ele>
        <time>2020-08-08T08:36:53.000Z</time>
      </trkpt>
      <trkpt lat="43.69101" lon="3.70901">
        <ele>242</ele>
        <time>2020-08-08T08:36:54.000Z</time>
      </trkpt>
      <trkpt lat="43.69103" lon="3.70901">
        <ele>242.02300032</ele>
        <time>2020-08-08T08:36:55.000Z</time>
      </trkpt>
      <trkpt lat="43.69104" lon="3.70902">
        <ele>242.12300032</ele>
        <time>2020-08-08T08:36:56.000Z</time>
      </trkpt>
      <trkpt lat="43.69106" lon="3.70903">
        <ele>242.22300032</ele>
        <time>2020-08-08T08:36:57.000Z</time>
      </trkpt>
      <trkpt lat="43.69108" lon="3.70904">
        <ele>242.32300032</ele>
        <time>2020-08-08T08:36:58.000Z</time>
      </trkpt>
      <trkpt lat="43.69109" lon="3.70906">
        <ele>242.42300032</ele>
        <time>2020-08-08T08:36:59.000Z</time>
      </trkpt>
      <trkpt lat="43.69111" lon="3.70907">
        <ele>242.52300032</ele>
        <time>2020-08-08T08:37:00.000Z</time>
      </trkpt>
      <trkpt lat="43.69114" lon="3.7091">
        <ele>242.72300032</ele>
        <time>2020-08-08T08:37:02.000Z</time>
      </trkpt>
      <trkpt lat="43.69116" lon="3.70913">
        <ele>242.92300032</ele>
        <time>2020-08-08T08:37:04.000Z</time>
      </trkpt>
      <trkpt lat="43.69119" lon="3.70915">
        <ele>243.24600064</ele>
        <time>2020-08-08T08:37:06.000Z</time>
      </trkpt>
      <trkpt lat="43.69122" lon="3.70917">
        <ele>243.64600064</ele>
        <time>2020-08-08T08:37:08.000Z</time>
      </trkpt>
      <trkpt lat="43.69125" lon="3.70918">
        <ele>244.04600064</ele>
        <time>2020-08-08T08:37:10.000Z</time>
      </trkpt>
      <trkpt lat="43.69128" lon="3.7092">
        <ele>244.44600064</ele>
        <time>2020-08-08T08:37:12.000Z</time>
      </trkpt>
      <trkpt lat="43.6913" lon="3.70922">
        <ele>244.84600064</ele>
        <time>2020-08-08T08:37:14.000Z</time>
      </trkpt>
      <trkpt lat="43.69133" lon="3.70923">
        <ele>245.12300032</ele>
        <time>2020-08-08T08:37:16.000Z</time>
      </trkpt>
      <trkpt lat="43.69137" lon="3.70925">
        <ele>245.32300032</ele>
        <time>2020-08-08T08:37:18.000Z</time>
      </trkpt>
      <trkpt lat="43.6914" lon="3.70926">
        <ele>245.52300032</ele>
        <time>2020-08-08T08:37:20.000Z</time>
      </trkpt>
      <trkpt lat="43.69142" lon="3.70927">
        <ele>245.72300032</ele>
        <time>2020-08-08T08:37:22.000Z</time>
      </trkpt>
      <trkpt lat="43.69145" lon="3.70928">
        <ele>245.92300032</ele>
        <time>2020-08-08T08:37:24.000Z</time>
      </trkpt>
      <trkpt lat="43.69148" lon="3.70929">
        <ele>246.12300032</ele>
        <time>2020-08-08T08:37:26.000Z</time>
      </trkpt>
      <trkpt lat="43.69151" lon="3.7093">
        <ele>246.32300032</ele>
        <time>2020-08-08T08:37:28.000Z</time>
      </trkpt>
      <trkpt lat="43.69154" lon="3.7093">
        <ele>246.52300032</ele>
        <time>2020-08-08T08:37:30.000Z</time>
      </trkpt>
      <trkpt lat="43.69157" lon="3.70931">
        <ele>246.72300032</ele>
        <time>2020-08-08T08:37:32.000Z</time>
      </trkpt>
      <trkpt lat="43.6916" lon="3.70931">
        <ele>246.92300032</ele>
        <time>2020-08-08T08:37:34.000Z</time>
      </trkpt>
      <trkpt lat="43.69164" lon="3.70932">
        <ele>247.24600064</ele>
        <time>2020-08-08T08:37:36.000Z</time>
      </trkpt>
      <trkpt lat="43.69166" lon="3.70932">
        <ele>247.64600064</ele>
        <time>2020-08-08T08:37:38.000Z</time>
      </trkpt>
      <trkpt lat="43.6917" lon="3.70933">
        <ele>248.04600064</ele>
        <time>2020-08-08T08:37:40.000Z</time>
      </trkpt>
      <trkpt lat="43.69172" lon="3.70934">
        <ele>248.44600064</ele>
        <time>2020-08-08T08:37:42.000Z</time>
      </trkpt>
      <trkpt lat="43.69175" lon="3.70936">
        <ele>248.84600064</ele>
        <time>2020-08-08T08:37:44.000Z</time>
      </trkpt>
      <trkpt lat="43.69178" lon="3.70937">
        <ele>249.24600064</ele>
        <time>2020-08-08T08:37:46.000Z</time>
      </trkpt>
      <trkpt lat="43.69181" lon="3.70938">
        <ele>249.64600064</ele>
        <time>2020-08-08T08:37:48.000Z</time>
      </trkpt>
      <trkpt lat="43.69184" lon="3.70939">
        <ele>250.04600064</ele>
        <time>2020-08-08T08:37:50.000Z</time>
      </trkpt>
      <trkpt lat="43.69187" lon="3.7094">
        <ele>250.44600064</ele>
        <time>2020-08-08T08:37:52.000Z</time>
      </trkpt>
      <trkpt lat="43.6919" lon="3.70941">
        <ele>250.84600064</ele>
        <time>2020-08-08T08:37:54.000Z</time>
      </trkpt>
      <trkpt lat="43.69192" lon="3.70942">
        <ele>251.24600064</ele>
        <time>2020-08-08T08:37:56.000Z</time>
      </trkpt>
      <trkpt lat="43.69195" lon="3.70943">
        <ele>251.64600064</ele>
        <time>2020-08-08T08:37:58.000Z</time>
      </trkpt>
      <trkpt lat="43.69198" lon="3.70945">
        <ele>252.04600064</ele>
        <time>2020-08-08T08:38:00.000Z</time>
      </trkpt>
      <trkpt lat="43.69201" lon="3.70947">
        <ele>252.44600064</ele>
        <time>2020-08-08T08:38:02.000Z</time>
      </trkpt>
      <trkpt lat="43.69203" lon="3.70948">
        <ele>252.84600064</ele>
        <time>2020-08-08T08:38:04.000Z</time>
      </trkpt>
      <trkpt lat="43.69206" lon="3.7095">
        <ele>253.12287732471</ele>
        <time>2020-08-08T08:38:06.000Z</time>
      </trkpt>
      <trkpt lat="43.69208" lon="3.70952">
        <ele>253.3226773329</ele>
        <time>2020-08-08T08:38:08.000Z</time>
      </trkpt>
      <trkpt lat="43.69211" lon="3.70954">
        <ele>253.52247734108</ele>
        <time>2020-08-08T08:38:10.000Z</time>
      </trkpt>
      <trkpt lat="43.69213" lon="3.70956">
        <ele>253.72227734926</ele>
        <time>2020-08-08T08:38:12.000Z</time>
      </trkpt>
      <trkpt lat="43.69217" lon="3.70956">
        <ele>253.92207735745</ele>
        <time>2020-08-08T08:38:14.000Z</time>
      </trkpt>
      <trkpt lat="43.69219" lon="3.70957">
        <ele>254.23666241241</ele>
        <time>2020-08-08T08:38:16.000Z</time>
      </trkpt>
      <trkpt lat="43.69222" lon="3.70958">
        <ele>254.62463561557</ele>
        <time>2020-08-08T08:38:18.000Z</time>
      </trkpt>
      <trkpt lat="43.69225" lon="3.70959">
        <ele>255.01260881872</ele>
        <time>2020-08-08T08:38:20.000Z</time>
      </trkpt>
      <trkpt lat="43.69228" lon="3.7096">
        <ele>255.40058202188</ele>
        <time>2020-08-08T08:38:22.000Z</time>
      </trkpt>
      <trkpt lat="43.69231" lon="3.70961">
        <ele>255.78855522504</ele>
        <time>2020-08-08T08:38:24.000Z</time>
      </trkpt>
      <trkpt lat="43.69233" lon="3.70962">
        <ele>256.09400859504</ele>
        <time>2020-08-08T08:38:26.000Z</time>
      </trkpt>
      <trkpt lat="43.69236" lon="3.70964">
        <ele>256.30062016529</ele>
        <time>2020-08-08T08:38:28.000Z</time>
      </trkpt>
      <trkpt lat="43.69239" lon="3.70965">
        <ele>256.50723173554</ele>
        <time>2020-08-08T08:38:30.000Z</time>
      </trkpt>
      <trkpt lat="43.69241" lon="3.70966">
        <ele>256.71384330579</ele>
        <time>2020-08-08T08:38:32.000Z</time>
      </trkpt>
      <trkpt lat="43.69244" lon="3.70967">
        <ele>256.92045487603</ele>
        <time>2020-08-08T08:38:34.000Z</time>
      </trkpt>
      <trkpt lat="43.69247" lon="3.70969">
        <ele>257.12300032</ele>
        <time>2020-08-08T08:38:36.000Z</time>
      </trkpt>
      <trkpt lat="43.69249" lon="3.70971">
        <ele>257.32300032</ele>
        <time>2020-08-08T08:38:38.000Z</time>
      </trkpt>
      <trkpt lat="43.69251" lon="3.70973">
        <ele>257.52300032</ele>
        <time>2020-08-08T08:38:40.000Z</time>
      </trkpt>
      <trkpt lat="43.69254" lon="3.70975">
        <ele>257.72300032</ele>
        <time>2020-08-08T08:38:42.000Z</time>
      </trkpt>
      <trkpt lat="43.69256" lon="3.70977">
        <ele>257.92300032</ele>
        <time>2020-08-08T08:38:44.000Z</time>
      </trkpt>
      <trkpt lat="43.69257" lon="3.7098">
        <ele>258.24575464943</ele>
        <time>2020-08-08T08:38:46.000Z</time>
      </trkpt>
      <trkpt lat="43.69259" lon="3.70984">
        <ele>258.64535466579</ele>
        <time>2020-08-08T08:38:48.000Z</time>
      </trkpt>
      <trkpt lat="43.69261" lon="3.70987">
        <ele>259.04495468216</ele>
        <time>2020-08-08T08:38:50.000Z</time>
      </trkpt>
      <trkpt lat="43.69262" lon="3.70989">
        <ele>259.44455469853</ele>
        <time>2020-08-08T08:38:52.000Z</time>
      </trkpt>
      <trkpt lat="43.69264" lon="3.70991">
        <ele>259.8441547149</ele>
        <time>2020-08-08T08:38:54.000Z</time>
      </trkpt>
      <trkpt lat="43.69264" lon="3.70992">
        <ele>260</ele>
        <time>2020-08-08T08:39:01.000Z</time>
      </trkpt>
      <trkpt lat="43.69259" lon="3.70993">
        <ele>260</ele>
        <time>2020-08-08T08:39:27.000Z</time>
      </trkpt>
      <trkpt lat="43.69256" lon="3.70995">
        <ele>260.22035774164</ele>
        <time>2020-08-08T08:39:29.000Z</time>
      </trkpt>
      <trkpt lat="43.69254" lon="3.70996">
        <ele>260.44407154833</ele>
        <time>2020-08-08T08:39:31.000Z</time>
      </trkpt>
      <trkpt lat="43.69252" lon="3.70996">
        <ele>261</ele>
        <time>2020-08-08T08:39:36.000Z</time>
      </trkpt>
      <trkpt lat="43.69244" lon="3.70996">
        <ele>261</ele>
        <time>2020-08-08T08:41:59.000Z</time>
      </trkpt>
      <trkpt lat="43.69243" lon="3.70997">
        <ele>261</ele>
        <time>2020-08-08T08:42:00.000Z</time>
      </trkpt>
      <trkpt lat="43.6924" lon="3.70998">
        <ele>261</ele>
        <time>2020-08-08T08:42:02.000Z</time>
      </trkpt>
      <trkpt lat="43.69238" lon="3.71001">
        <ele>261</ele>
        <time>2020-08-08T08:42:04.000Z</time>
      </trkpt>
      <trkpt lat="43.69236" lon="3.71003">
        <ele>261</ele>
        <time>2020-08-08T08:42:05.000Z</time>
      </trkpt>
      <trkpt lat="43.69235" lon="3.71005">
        <ele>261</ele>
        <time>2020-08-08T08:42:06.000Z</time>
      </trkpt>
      <trkpt lat="43.69233" lon="3.71006">
        <ele>261</ele>
        <time>2020-08-08T08:42:07.000Z</time>
      </trkpt>
      <trkpt lat="43.69232" lon="3.71008">
        <ele>261</ele>
        <time>2020-08-08T08:42:08.000Z</time>
      </trkpt>
      <trkpt lat="43.6923" lon="3.71009">
        <ele>261</ele>
        <time>2020-08-08T08:42:09.000Z</time>
      </trkpt>
      <trkpt lat="43.69229" lon="3.71011">
        <ele>261</ele>
        <time>2020-08-08T08:42:10.000Z</time>
      </trkpt>
      <trkpt lat="43.69227" lon="3.71012">
        <ele>261</ele>
        <time>2020-08-08T08:42:11.000Z</time>
      </trkpt>
      <trkpt lat="43.69225" lon="3.71014">
        <ele>261</ele>
        <time>2020-08-08T08:42:12.000Z</time>
      </trkpt>
      <trkpt lat="43.69224" lon="3.71015">
        <ele>261</ele>
        <time>2020-08-08T08:42:13.000Z</time>
      </trkpt>
      <trkpt lat="43.69222" lon="3.71017">
        <ele>261</ele>
        <time>2020-08-08T08:42:14.000Z</time>
      </trkpt>
      <trkpt lat="43.69221" lon="3.71018">
        <ele>261</ele>
        <time>2020-08-08T08:42:15.000Z</time>
      </trkpt>
      <trkpt lat="43.69219" lon="3.7102">
        <ele>261</ele>
        <time>2020-08-08T08:42:16.000Z</time>
      </trkpt>
      <trkpt lat="43.69217" lon="3.71021">
        <ele>261</ele>
        <time>2020-08-08T08:42:17.000Z</time>
      </trkpt>
      <trkpt lat="43.69215" lon="3.71022">
        <ele>261</ele>
        <time>2020-08-08T08:42:18.000Z</time>
      </trkpt>
      <trkpt lat="43.69213" lon="3.71024">
        <ele>261</ele>
        <time>2020-08-08T08:42:19.000Z</time>
      </trkpt>
      <trkpt lat="43.69211" lon="3.71025">
        <ele>261.09680804225</ele>
        <time>2020-08-08T08:42:20.000Z</time>
      </trkpt>
      <trkpt lat="43.69209" lon="3.71026">
        <ele>261.19979462005</ele>
        <time>2020-08-08T08:42:21.000Z</time>
      </trkpt>
      <trkpt lat="43.69208" lon="3.71028">
        <ele>261.30278119785</ele>
        <time>2020-08-08T08:42:22.000Z</time>
      </trkpt>
      <trkpt lat="43.69207" lon="3.7103">
        <ele>261.40576777565</ele>
        <time>2020-08-08T08:42:23.000Z</time>
      </trkpt>
      <trkpt lat="43.69205" lon="3.71032">
        <ele>261.50875435345</ele>
        <time>2020-08-08T08:42:24.000Z</time>
      </trkpt>
      <trkpt lat="43.69204" lon="3.71033">
        <ele>261.61174093125</ele>
        <time>2020-08-08T08:42:25.000Z</time>
      </trkpt>
      <trkpt lat="43.69201" lon="3.71036">
        <ele>261.81771408685</ele>
        <time>2020-08-08T08:42:27.000Z</time>
      </trkpt>
      <trkpt lat="43.69199" lon="3.71037">
        <ele>261.92070066465</ele>
        <time>2020-08-08T08:42:28.000Z</time>
      </trkpt>
      <trkpt lat="43.69197" lon="3.71038">
        <ele>262</ele>
        <time>2020-08-08T08:42:29.000Z</time>
      </trkpt>
      <trkpt lat="43.69195" lon="3.7104">
        <ele>262</ele>
        <time>2020-08-08T08:42:30.000Z</time>
      </trkpt>
      <trkpt lat="43.69193" lon="3.71041">
        <ele>262</ele>
        <time>2020-08-08T08:42:31.000Z</time>
      </trkpt>
      <trkpt lat="43.69191" lon="3.71043">
        <ele>262</ele>
        <time>2020-08-08T08:42:32.000Z</time>
      </trkpt>
      <trkpt lat="43.69189" lon="3.71044">
        <ele>262</ele>
        <time>2020-08-08T08:42:33.000Z</time>
      </trkpt>
      <trkpt lat="43.69187" lon="3.71045">
        <ele>262</ele>
        <time>2020-08-08T08:42:34.000Z</time>
      </trkpt>
      <trkpt lat="43.69185" lon="3.71046">
        <ele>262</ele>
        <time>2020-08-08T08:42:35.000Z</time>
      </trkpt>
      <trkpt lat="43.69183" lon="3.71047">
        <ele>262</ele>
        <time>2020-08-08T08:42:36.000Z</time>
      </trkpt>
      <trkpt lat="43.69182" lon="3.71048">
        <ele>262</ele>
        <time>2020-08-08T08:42:37.000Z</time>
      </trkpt>
      <trkpt lat="43.6918" lon="3.71049">
        <ele>262</ele>
        <time>2020-08-08T08:42:38.000Z</time>
      </trkpt>
      <trkpt lat="43.69178" lon="3.7105">
        <ele>262.04600064</ele>
        <time>2020-08-08T08:42:39.000Z</time>
      </trkpt>
      <trkpt lat="43.69176" lon="3.71051">
        <ele>262.24600064</ele>
        <time>2020-08-08T08:42:40.000Z</time>
      </trkpt>
      <trkpt lat="43.69174" lon="3.71052">
        <ele>262.44600064</ele>
        <time>2020-08-08T08:42:41.000Z</time>
      </trkpt>
      <trkpt lat="43.69173" lon="3.71053">
        <ele>262.64600064</ele>
        <time>2020-08-08T08:42:42.000Z</time>
      </trkpt>
      <trkpt lat="43.69171" lon="3.71055">
        <ele>262.84600064</ele>
        <time>2020-08-08T08:42:43.000Z</time>
      </trkpt>
      <trkpt lat="43.69169" lon="3.71056">
        <ele>263.04600064</ele>
        <time>2020-08-08T08:42:44.000Z</time>
      </trkpt>
      <trkpt lat="43.69168" lon="3.71058">
        <ele>263.24600064</ele>
        <time>2020-08-08T08:42:45.000Z</time>
      </trkpt>
      <trkpt lat="43.69165" lon="3.71061">
        <ele>263.64600064</ele>
        <time>2020-08-08T08:42:47.000Z</time>
      </trkpt>
      <trkpt lat="43.69162" lon="3.71063">
        <ele>264.02290868526</ele>
        <time>2020-08-08T08:42:49.000Z</time>
      </trkpt>
      <trkpt lat="43.69159" lon="3.71066">
        <ele>264.22211187251</ele>
        <time>2020-08-08T08:42:51.000Z</time>
      </trkpt>
      <trkpt lat="43.69157" lon="3.71067">
        <ele>264.32171346614</ele>
        <time>2020-08-08T08:42:52.000Z</time>
      </trkpt>
      <trkpt lat="43.69156" lon="3.71069">
        <ele>264.42131505976</ele>
        <time>2020-08-08T08:42:53.000Z</time>
      </trkpt>
      <trkpt lat="43.69153" lon="3.71071">
        <ele>264.62051824701</ele>
        <time>2020-08-08T08:42:55.000Z</time>
      </trkpt>
      <trkpt lat="43.6915" lon="3.71074">
        <ele>264.81972143426</ele>
        <time>2020-08-08T08:42:57.000Z</time>
      </trkpt>
      <trkpt lat="43.69148" lon="3.71076">
        <ele>264.91932302789</ele>
        <time>2020-08-08T08:42:58.000Z</time>
      </trkpt>
      <trkpt lat="43.69146" lon="3.71078">
        <ele>265.23895646586</ele>
        <time>2020-08-08T08:43:00.000Z</time>
      </trkpt>
      <trkpt lat="43.69143" lon="3.7108">
        <ele>265.64056289157</ele>
        <time>2020-08-08T08:43:02.000Z</time>
      </trkpt>
      <trkpt lat="43.69141" lon="3.71083">
        <ele>266.04216931727</ele>
        <time>2020-08-08T08:43:04.000Z</time>
      </trkpt>
      <trkpt lat="43.69139" lon="3.71087">
        <ele>266.44377574297</ele>
        <time>2020-08-08T08:43:06.000Z</time>
      </trkpt>
      <trkpt lat="43.69137" lon="3.7109">
        <ele>266.84538216867</ele>
        <time>2020-08-08T08:43:08.000Z</time>
      </trkpt>
      <trkpt lat="43.69135" lon="3.71093">
        <ele>267.24308363636</ele>
        <time>2020-08-08T08:43:10.000Z</time>
      </trkpt>
      <trkpt lat="43.69132" lon="3.71096">
        <ele>267.63834055336</ele>
        <time>2020-08-08T08:43:12.000Z</time>
      </trkpt>
      <trkpt lat="43.6913" lon="3.71098">
        <ele>268.03359747036</ele>
        <time>2020-08-08T08:43:14.000Z</time>
      </trkpt>
      <trkpt lat="43.69128" lon="3.71101">
        <ele>268.42885438735</ele>
        <time>2020-08-08T08:43:16.000Z</time>
      </trkpt>
      <trkpt lat="43.69125" lon="3.71103">
        <ele>268.82411130435</ele>
        <time>2020-08-08T08:43:18.000Z</time>
      </trkpt>
      <trkpt lat="43.69123" lon="3.71105">
        <ele>269.11234850202</ele>
        <time>2020-08-08T08:43:20.000Z</time>
      </trkpt>
      <trkpt lat="43.69121" lon="3.71107">
        <ele>269.31477765182</ele>
        <time>2020-08-08T08:43:22.000Z</time>
      </trkpt>
      <trkpt lat="43.69119" lon="3.7111">
        <ele>269.51720680162</ele>
        <time>2020-08-08T08:43:24.000Z</time>
      </trkpt>
      <trkpt lat="43.69117" lon="3.71113">
        <ele>269.71963595142</ele>
        <time>2020-08-08T08:43:26.000Z</time>
      </trkpt>
      <trkpt lat="43.69116" lon="3.71117">
        <ele>269.92206510122</ele>
        <time>2020-08-08T08:43:28.000Z</time>
      </trkpt>
      <trkpt lat="43.69114" lon="3.7112">
        <ele>270.24600064</ele>
        <time>2020-08-08T08:43:30.000Z</time>
      </trkpt>
      <trkpt lat="43.69111" lon="3.71122">
        <ele>270.64600064</ele>
        <time>2020-08-08T08:43:32.000Z</time>
      </trkpt>
      <trkpt lat="43.69109" lon="3.71124">
        <ele>271.04600064</ele>
        <time>2020-08-08T08:43:34.000Z</time>
      </trkpt>
      <trkpt lat="43.69106" lon="3.71126">
        <ele>271.44600064</ele>
        <time>2020-08-08T08:43:36.000Z</time>
      </trkpt>
      <trkpt lat="43.69104" lon="3.71127">
        <ele>271.84600064</ele>
        <time>2020-08-08T08:43:38.000Z</time>
      </trkpt>
      <trkpt lat="43.69101" lon="3.71129">
        <ele>272.12000019981</ele>
        <time>2020-08-08T08:43:40.000Z</time>
      </trkpt>
      <trkpt lat="43.69099" lon="3.71131">
        <ele>272.31512196828</ele>
        <time>2020-08-08T08:43:42.000Z</time>
      </trkpt>
      <trkpt lat="43.69096" lon="3.71132">
        <ele>272.51024373675</ele>
        <time>2020-08-08T08:43:44.000Z</time>
      </trkpt>
      <trkpt lat="43.69094" lon="3.71134">
        <ele>272.70536550522</ele>
        <time>2020-08-08T08:43:46.000Z</time>
      </trkpt>
      <trkpt lat="43.69092" lon="3.71137">
        <ele>272.90048727369</ele>
        <time>2020-08-08T08:43:48.000Z</time>
      </trkpt>
      <trkpt lat="43.6909" lon="3.7114">
        <ele>273.10010158948</ele>
        <time>2020-08-08T08:43:50.000Z</time>
      </trkpt>
      <trkpt lat="43.69088" lon="3.71142">
        <ele>273.30439188173</ele>
        <time>2020-08-08T08:43:52.000Z</time>
      </trkpt>
      <trkpt lat="43.69086" lon="3.71144">
        <ele>273.50868217399</ele>
        <time>2020-08-08T08:43:54.000Z</time>
      </trkpt>
      <trkpt lat="43.69084" lon="3.71146">
        <ele>273.71297246624</ele>
        <time>2020-08-08T08:43:56.000Z</time>
      </trkpt>
      <trkpt lat="43.69081" lon="3.71147">
        <ele>273.9172627585</ele>
        <time>2020-08-08T08:43:58.000Z</time>
      </trkpt>
      <trkpt lat="43.69079" lon="3.71148">
        <ele>274.11947823293</ele>
        <time>2020-08-08T08:44:00.000Z</time>
      </trkpt>
      <trkpt lat="43.69076" lon="3.71149">
        <ele>274.32028144578</ele>
        <time>2020-08-08T08:44:02.000Z</time>
      </trkpt>
      <trkpt lat="43.69074" lon="3.7115">
        <ele>274.52108465864</ele>
        <time>2020-08-08T08:44:04.000Z</time>
      </trkpt>
      <trkpt lat="43.69071" lon="3.71151">
        <ele>274.72188787149</ele>
        <time>2020-08-08T08:44:06.000Z</time>
      </trkpt>
      <trkpt lat="43.69069" lon="3.71152">
        <ele>274.92269108434</ele>
        <time>2020-08-08T08:44:08.000Z</time>
      </trkpt>
      <trkpt lat="43.69066" lon="3.71153">
        <ele>275.24600064</ele>
        <time>2020-08-08T08:44:10.000Z</time>
      </trkpt>
      <trkpt lat="43.69063" lon="3.71154">
        <ele>275.64600064</ele>
        <time>2020-08-08T08:44:12.000Z</time>
      </trkpt>
      <trkpt lat="43.69061" lon="3.71156">
        <ele>276.04600064</ele>
        <time>2020-08-08T08:44:14.000Z</time>
      </trkpt>
      <trkpt lat="43.69058" lon="3.71158">
        <ele>276.44600064</ele>
        <time>2020-08-08T08:44:16.000Z</time>
      </trkpt>
      <trkpt lat="43.69056" lon="3.7116">
        <ele>276.84600064</ele>
        <time>2020-08-08T08:44:18.000Z</time>
      </trkpt>
      <trkpt lat="43.69054" lon="3.71161">
        <ele>277.12300032</ele>
        <time>2020-08-08T08:44:20.000Z</time>
      </trkpt>
      <trkpt lat="43.69051" lon="3.71162">
        <ele>277.32300032</ele>
        <time>2020-08-08T08:44:22.000Z</time>
      </trkpt>
      <trkpt lat="43.69048" lon="3.71163">
        <ele>277.52300032</ele>
        <time>2020-08-08T08:44:24.000Z</time>
      </trkpt>
      <trkpt lat="43.69045" lon="3.71163">
        <ele>277.72300032</ele>
        <time>2020-08-08T08:44:26.000Z</time>
      </trkpt>
      <trkpt lat="43.69043" lon="3.71164">
        <ele>277.92300032</ele>
        <time>2020-08-08T08:44:28.000Z</time>
      </trkpt>
      <trkpt lat="43.69041" lon="3.71165">
        <ele>278.133696</ele>
        <time>2020-08-08T08:44:30.000Z</time>
      </trkpt>
      <trkpt lat="43.69039" lon="3.71167">
        <ele>278.35108730435</ele>
        <time>2020-08-08T08:44:32.000Z</time>
      </trkpt>
      <trkpt lat="43.69039" lon="3.71168">
        <ele>279</ele>
        <time>2020-08-08T08:44:38.000Z</time>
      </trkpt>
      <trkpt lat="43.69037" lon="3.71181">
        <ele>280.99220795715</ele>
        <time>2020-08-08T08:45:55.000Z</time>
      </trkpt>
      <trkpt lat="43.69037" lon="3.71183">
        <ele>281.19514989018</ele>
        <time>2020-08-08T08:45:57.000Z</time>
      </trkpt>
      <trkpt lat="43.69035" lon="3.71185">
        <ele>282</ele>
        <time>2020-08-08T08:46:04.000Z</time>
      </trkpt>
      <trkpt lat="43.69027" lon="3.71189">
        <ele>282</ele>
        <time>2020-08-08T08:48:43.000Z</time>
      </trkpt>
      <trkpt lat="43.69026" lon="3.7119">
        <ele>282.0729384003</ele>
        <time>2020-08-08T08:48:44.000Z</time>
      </trkpt>
      <trkpt lat="43.69024" lon="3.7119">
        <ele>282.28435503381</ele>
        <time>2020-08-08T08:48:46.000Z</time>
      </trkpt>
      <trkpt lat="43.69021" lon="3.71191">
        <ele>282.49577166733</ele>
        <time>2020-08-08T08:48:48.000Z</time>
      </trkpt>
      <trkpt lat="43.69018" lon="3.71193">
        <ele>282.70718830085</ele>
        <time>2020-08-08T08:48:50.000Z</time>
      </trkpt>
      <trkpt lat="43.69016" lon="3.71195">
        <ele>282.91860493436</ele>
        <time>2020-08-08T08:48:52.000Z</time>
      </trkpt>
      <trkpt lat="43.69013" lon="3.71196">
        <ele>283.11965011673</ele>
        <time>2020-08-08T08:48:54.000Z</time>
      </trkpt>
      <trkpt lat="43.69011" lon="3.71198">
        <ele>283.31420264591</ele>
        <time>2020-08-08T08:48:56.000Z</time>
      </trkpt>
      <trkpt lat="43.69008" lon="3.712">
        <ele>283.5087551751</ele>
        <time>2020-08-08T08:48:58.000Z</time>
      </trkpt>
      <trkpt lat="43.69005" lon="3.71202">
        <ele>283.70330770428</ele>
        <time>2020-08-08T08:49:00.000Z</time>
      </trkpt>
      <trkpt lat="43.69003" lon="3.71204">
        <ele>283.89786023346</ele>
        <time>2020-08-08T08:49:02.000Z</time>
      </trkpt>
      <trkpt lat="43.69" lon="3.71207">
        <ele>284</ele>
        <time>2020-08-08T08:49:04.000Z</time>
      </trkpt>
      <trkpt lat="43.68998" lon="3.7121">
        <ele>284</ele>
        <time>2020-08-08T08:49:06.000Z</time>
      </trkpt>
      <trkpt lat="43.68995" lon="3.71213">
        <ele>284</ele>
        <time>2020-08-08T08:49:08.000Z</time>
      </trkpt>
      <trkpt lat="43.68993" lon="3.71216">
        <ele>284</ele>
        <time>2020-08-08T08:49:10.000Z</time>
      </trkpt>
      <trkpt lat="43.6899" lon="3.71217">
        <ele>284</ele>
        <time>2020-08-08T08:49:12.000Z</time>
      </trkpt>
      <trkpt lat="43.68987" lon="3.71217">
        <ele>284.11965011673</ele>
        <time>2020-08-08T08:49:14.000Z</time>
      </trkpt>
      <trkpt lat="43.68983" lon="3.71216">
        <ele>284.31420264591</ele>
        <time>2020-08-08T08:49:16.000Z</time>
      </trkpt>
      <trkpt lat="43.68981" lon="3.71215">
        <ele>284.41147891051</ele>
        <time>2020-08-08T08:49:17.000Z</time>
      </trkpt>
      <trkpt lat="43.68979" lon="3.71214">
        <ele>284.5087551751</ele>
        <time>2020-08-08T08:49:18.000Z</time>
      </trkpt>
      <trkpt lat="43.68977" lon="3.71213">
        <ele>284.60603143969</ele>
        <time>2020-08-08T08:49:19.000Z</time>
      </trkpt>
      <trkpt lat="43.68975" lon="3.71213">
        <ele>284.70330770428</ele>
        <time>2020-08-08T08:49:20.000Z</time>
      </trkpt>
      <trkpt lat="43.68973" lon="3.71212">
        <ele>284.80058396887</ele>
        <time>2020-08-08T08:49:21.000Z</time>
      </trkpt>
      <trkpt lat="43.6897" lon="3.71212">
        <ele>284.99513649805</ele>
        <time>2020-08-08T08:49:23.000Z</time>
      </trkpt>
      <trkpt lat="43.68968" lon="3.71212">
        <ele>285.19547390947</ele>
        <time>2020-08-08T08:49:24.000Z</time>
      </trkpt>
      <trkpt lat="43.68965" lon="3.71211">
        <ele>285.40123522634</ele>
        <time>2020-08-08T08:49:25.000Z</time>
      </trkpt>
      <trkpt lat="43.68963" lon="3.7121">
        <ele>285.60699654321</ele>
        <time>2020-08-08T08:49:26.000Z</time>
      </trkpt>
      <trkpt lat="43.68961" lon="3.7121">
        <ele>285.81275786008</ele>
        <time>2020-08-08T08:49:27.000Z</time>
      </trkpt>
      <trkpt lat="43.68958" lon="3.7121">
        <ele>286.01851917696</ele>
        <time>2020-08-08T08:49:28.000Z</time>
      </trkpt>
      <trkpt lat="43.68956" lon="3.7121">
        <ele>286.22428049383</ele>
        <time>2020-08-08T08:49:29.000Z</time>
      </trkpt>
      <trkpt lat="43.68954" lon="3.7121">
        <ele>286.4300418107</ele>
        <time>2020-08-08T08:49:30.000Z</time>
      </trkpt>
      <trkpt lat="43.68951" lon="3.71209">
        <ele>286.63580312757</ele>
        <time>2020-08-08T08:49:31.000Z</time>
      </trkpt>
      <trkpt lat="43.68949" lon="3.71208">
        <ele>286.84156444444</ele>
        <time>2020-08-08T08:49:32.000Z</time>
      </trkpt>
      <trkpt lat="43.68947" lon="3.71208">
        <ele>287.02300032</ele>
        <time>2020-08-08T08:49:33.000Z</time>
      </trkpt>
      <trkpt lat="43.68944" lon="3.71208">
        <ele>287.12300032</ele>
        <time>2020-08-08T08:49:34.000Z</time>
      </trkpt>
      <trkpt lat="43.68942" lon="3.71208">
        <ele>287.22300032</ele>
        <time>2020-08-08T08:49:35.000Z</time>
      </trkpt>
      <trkpt lat="43.6894" lon="3.71208">
        <ele>287.32300032</ele>
        <time>2020-08-08T08:49:36.000Z</time>
      </trkpt>
      <trkpt lat="43.68937" lon="3.71209">
        <ele>287.42300032</ele>
        <time>2020-08-08T08:49:37.000Z</time>
      </trkpt>
      <trkpt lat="43.68935" lon="3.7121">
        <ele>287.52300032</ele>
        <time>2020-08-08T08:49:38.000Z</time>
      </trkpt>
      <trkpt lat="43.68933" lon="3.71211">
        <ele>287.62300032</ele>
        <time>2020-08-08T08:49:39.000Z</time>
      </trkpt>
      <trkpt lat="43.68931" lon="3.71211">
        <ele>287.72300032</ele>
        <time>2020-08-08T08:49:40.000Z</time>
      </trkpt>
      <trkpt lat="43.68929" lon="3.71212">
        <ele>287.82300032</ele>
        <time>2020-08-08T08:49:41.000Z</time>
      </trkpt>
      <trkpt lat="43.68927" lon="3.71212">
        <ele>287.92300032</ele>
        <time>2020-08-08T08:49:42.000Z</time>
      </trkpt>
      <trkpt lat="43.68925" lon="3.71212">
        <ele>288</ele>
        <time>2020-08-08T08:49:43.000Z</time>
      </trkpt>
      <trkpt lat="43.68922" lon="3.71212">
        <ele>288</ele>
        <time>2020-08-08T08:49:44.000Z</time>
      </trkpt>
      <trkpt lat="43.6892" lon="3.71212">
        <ele>288</ele>
        <time>2020-08-08T08:49:45.000Z</time>
      </trkpt>
      <trkpt lat="43.68917" lon="3.71212">
        <ele>288</ele>
        <time>2020-08-08T08:49:46.000Z</time>
      </trkpt>
      <trkpt lat="43.68915" lon="3.71212">
        <ele>288</ele>
        <time>2020-08-08T08:49:47.000Z</time>
      </trkpt>
      <trkpt lat="43.68913" lon="3.71212">
        <ele>288</ele>
        <time>2020-08-08T08:49:48.000Z</time>
      </trkpt>
      <trkpt lat="43.68911" lon="3.71212">
        <ele>288</ele>
        <time>2020-08-08T08:49:49.000Z</time>
      </trkpt>
      <trkpt lat="43.68908" lon="3.71213">
        <ele>288</ele>
        <time>2020-08-08T08:49:50.000Z</time>
      </trkpt>
      <trkpt lat="43.68906" lon="3.71214">
        <ele>288</ele>
        <time>2020-08-08T08:49:51.000Z</time>
      </trkpt>
      <trkpt lat="43.68903" lon="3.71216">
        <ele>288</ele>
        <time>2020-08-08T08:49:52.000Z</time>
      </trkpt>
      <trkpt lat="43.689" lon="3.71217">
        <ele>288</ele>
        <time>2020-08-08T08:49:53.000Z</time>
      </trkpt>
      <trkpt lat="43.68897" lon="3.71219">
        <ele>288</ele>
        <time>2020-08-08T08:49:54.000Z</time>
      </trkpt>
      <trkpt lat="43.68895" lon="3.71221">
        <ele>288</ele>
        <time>2020-08-08T08:49:55.000Z</time>
      </trkpt>
      <trkpt lat="43.68892" lon="3.71222">
        <ele>288</ele>
        <time>2020-08-08T08:49:56.000Z</time>
      </trkpt>
      <trkpt lat="43.68889" lon="3.71222">
        <ele>288</ele>
        <time>2020-08-08T08:49:57.000Z</time>
      </trkpt>
      <trkpt lat="43.68886" lon="3.71221">
        <ele>288</ele>
        <time>2020-08-08T08:49:58.000Z</time>
      </trkpt>
      <trkpt lat="43.68883" lon="3.71221">
        <ele>288</ele>
        <time>2020-08-08T08:49:59.000Z</time>
      </trkpt>
      <trkpt lat="43.6888" lon="3.71221">
        <ele>288</ele>
        <time>2020-08-08T08:50:00.000Z</time>
      </trkpt>
      <trkpt lat="43.68877" lon="3.71222">
        <ele>288</ele>
        <time>2020-08-08T08:50:01.000Z</time>
      </trkpt>
      <trkpt lat="43.68874" lon="3.71223">
        <ele>288</ele>
        <time>2020-08-08T08:50:02.000Z</time>
      </trkpt>
      <trkpt lat="43.68872" lon="3.71225">
        <ele>288</ele>
        <time>2020-08-08T08:50:03.000Z</time>
      </trkpt>
      <trkpt lat="43.6887" lon="3.71226">
        <ele>288</ele>
        <time>2020-08-08T08:50:04.000Z</time>
      </trkpt>
      <trkpt lat="43.68867" lon="3.71228">
        <ele>288</ele>
        <time>2020-08-08T08:50:05.000Z</time>
      </trkpt>
      <trkpt lat="43.68865" lon="3.71228">
        <ele>288</ele>
        <time>2020-08-08T08:50:06.000Z</time>
      </trkpt>
      <trkpt lat="43.68862" lon="3.71227">
        <ele>288</ele>
        <time>2020-08-08T08:50:07.000Z</time>
      </trkpt>
      <trkpt lat="43.68859" lon="3.71227">
        <ele>288</ele>
        <time>2020-08-08T08:50:08.000Z</time>
      </trkpt>
      <trkpt lat="43.68857" lon="3.71226">
        <ele>288</ele>
        <time>2020-08-08T08:50:09.000Z</time>
      </trkpt>
      <trkpt lat="43.68854" lon="3.71226">
        <ele>288</ele>
        <time>2020-08-08T08:50:10.000Z</time>
      </trkpt>
      <trkpt lat="43.6885" lon="3.71225">
        <ele>288</ele>
        <time>2020-08-08T08:50:11.000Z</time>
      </trkpt>
      <trkpt lat="43.68847" lon="3.71223">
        <ele>288</ele>
        <time>2020-08-08T08:50:12.000Z</time>
      </trkpt>
      <trkpt lat="43.68843" lon="3.7122">
        <ele>288</ele>
        <time>2020-08-08T08:50:13.000Z</time>
      </trkpt>
      <trkpt lat="43.6884" lon="3.71218">
        <ele>288</ele>
        <time>2020-08-08T08:50:14.000Z</time>
      </trkpt>
      <trkpt lat="43.68839" lon="3.71217">
        <ele>288</ele>
        <time>2020-08-08T08:50:15.000Z</time>
      </trkpt>
      <trkpt lat="43.68837" lon="3.71217">
        <ele>288</ele>
        <time>2020-08-08T08:50:17.000Z</time>
      </trkpt>
      <trkpt lat="43.68835" lon="3.71216">
        <ele>288</ele>
        <time>2020-08-08T08:50:20.000Z</time>
      </trkpt>
      <trkpt lat="43.68832" lon="3.71215">
        <ele>288</ele>
        <time>2020-08-08T08:50:21.000Z</time>
      </trkpt>
      <trkpt lat="43.6883" lon="3.71214">
        <ele>288</ele>
        <time>2020-08-08T08:50:22.000Z</time>
      </trkpt>
      <trkpt lat="43.68828" lon="3.71213">
        <ele>287.97699968</ele>
        <time>2020-08-08T08:50:23.000Z</time>
      </trkpt>
      <trkpt lat="43.68825" lon="3.71212">
        <ele>287.87699968</ele>
        <time>2020-08-08T08:50:24.000Z</time>
      </trkpt>
      <trkpt lat="43.68822" lon="3.7121">
        <ele>287.77699968</ele>
        <time>2020-08-08T08:50:25.000Z</time>
      </trkpt>
      <trkpt lat="43.68819" lon="3.71208">
        <ele>287.67699968</ele>
        <time>2020-08-08T08:50:26.000Z</time>
      </trkpt>
      <trkpt lat="43.68817" lon="3.71206">
        <ele>287.57699968</ele>
        <time>2020-08-08T08:50:27.000Z</time>
      </trkpt>
      <trkpt lat="43.68814" lon="3.71205">
        <ele>287.47699968</ele>
        <time>2020-08-08T08:50:28.000Z</time>
      </trkpt>
      <trkpt lat="43.68811" lon="3.71203">
        <ele>287.37699968</ele>
        <time>2020-08-08T08:50:29.000Z</time>
      </trkpt>
      <trkpt lat="43.68808" lon="3.71202">
        <ele>287.27699968</ele>
        <time>2020-08-08T08:50:30.000Z</time>
      </trkpt>
      <trkpt lat="43.68805" lon="3.712">
        <ele>287.17699968</ele>
        <time>2020-08-08T08:50:31.000Z</time>
      </trkpt>
      <trkpt lat="43.68802" lon="3.71198">
        <ele>287.07699968</ele>
        <time>2020-08-08T08:50:32.000Z</time>
      </trkpt>
      <trkpt lat="43.68799" lon="3.71195">
        <ele>287</ele>
        <time>2020-08-08T08:50:33.000Z</time>
      </trkpt>
      <trkpt lat="43.68796" lon="3.71193">
        <ele>287</ele>
        <time>2020-08-08T08:50:34.000Z</time>
      </trkpt>
      <trkpt lat="43.68793" lon="3.7119">
        <ele>287</ele>
        <time>2020-08-08T08:50:35.000Z</time>
      </trkpt>
      <trkpt lat="43.6879" lon="3.71188">
        <ele>287</ele>
        <time>2020-08-08T08:50:36.000Z</time>
      </trkpt>
      <trkpt lat="43.68786" lon="3.71187">
        <ele>287</ele>
        <time>2020-08-08T08:50:37.000Z</time>
      </trkpt>
      <trkpt lat="43.68783" lon="3.71185">
        <ele>287</ele>
        <time>2020-08-08T08:50:38.000Z</time>
      </trkpt>
      <trkpt lat="43.6878" lon="3.71184">
        <ele>287</ele>
        <time>2020-08-08T08:50:39.000Z</time>
      </trkpt>
      <trkpt lat="43.68778" lon="3.71184">
        <ele>287</ele>
        <time>2020-08-08T08:50:40.000Z</time>
      </trkpt>
      <trkpt lat="43.68775" lon="3.71183">
        <ele>287</ele>
        <time>2020-08-08T08:50:42.000Z</time>
      </trkpt>
      <trkpt lat="43.68775" lon="3.71183">
        <ele>287</ele>
        <time>2020-08-08T08:50:46.000Z</time>
      </trkpt>
      <trkpt lat="43.68773" lon="3.71176">
        <ele>287</ele>
        <time>2020-08-08T08:50:59.000Z</time>
      </trkpt>
      <trkpt lat="43.68773" lon="3.71173">
        <ele>286.9270615997</ele>
        <time>2020-08-08T08:51:00.000Z</time>
      </trkpt>
      <trkpt lat="43.68773" lon="3.7117">
        <ele>286.82135328294</ele>
        <time>2020-08-08T08:51:01.000Z</time>
      </trkpt>
      <trkpt lat="43.68773" lon="3.71167">
        <ele>286.71564496619</ele>
        <time>2020-08-08T08:51:02.000Z</time>
      </trkpt>
      <trkpt lat="43.68772" lon="3.71163">
        <ele>286.60993664943</ele>
        <time>2020-08-08T08:51:03.000Z</time>
      </trkpt>
      <trkpt lat="43.68772" lon="3.7116">
        <ele>286.50422833267</ele>
        <time>2020-08-08T08:51:04.000Z</time>
      </trkpt>
      <trkpt lat="43.68772" lon="3.71156">
        <ele>286.39852001591</ele>
        <time>2020-08-08T08:51:05.000Z</time>
      </trkpt>
      <trkpt lat="43.68771" lon="3.71152">
        <ele>286.29281169915</ele>
        <time>2020-08-08T08:51:06.000Z</time>
      </trkpt>
      <trkpt lat="43.68769" lon="3.71149">
        <ele>286.1871033824</ele>
        <time>2020-08-08T08:51:07.000Z</time>
      </trkpt>
      <trkpt lat="43.68767" lon="3.71145">
        <ele>286.08139506564</ele>
        <time>2020-08-08T08:51:08.000Z</time>
      </trkpt>
      <trkpt lat="43.68765" lon="3.71142">
        <ele>286</ele>
        <time>2020-08-08T08:51:09.000Z</time>
      </trkpt>
      <trkpt lat="43.68763" lon="3.71139">
        <ele>286</ele>
        <time>2020-08-08T08:51:10.000Z</time>
      </trkpt>
      <trkpt lat="43.6876" lon="3.71136">
        <ele>286</ele>
        <time>2020-08-08T08:51:11.000Z</time>
      </trkpt>
      <trkpt lat="43.68759" lon="3.71133">
        <ele>286</ele>
        <time>2020-08-08T08:51:12.000Z</time>
      </trkpt>
      <trkpt lat="43.68756" lon="3.7113">
        <ele>286</ele>
        <time>2020-08-08T08:51:13.000Z</time>
      </trkpt>
      <trkpt lat="43.68754" lon="3.71127">
        <ele>286</ele>
        <time>2020-08-08T08:51:14.000Z</time>
      </trkpt>
      <trkpt lat="43.68751" lon="3.71124">
        <ele>286</ele>
        <time>2020-08-08T08:51:15.000Z</time>
      </trkpt>
      <trkpt lat="43.68748" lon="3.71121">
        <ele>286</ele>
        <time>2020-08-08T08:51:16.000Z</time>
      </trkpt>
      <trkpt lat="43.68745" lon="3.71119">
        <ele>286</ele>
        <time>2020-08-08T08:51:17.000Z</time>
      </trkpt>
      <trkpt lat="43.68741" lon="3.71117">
        <ele>286</ele>
        <time>2020-08-08T08:51:18.000Z</time>
      </trkpt>
      <trkpt lat="43.68738" lon="3.71114">
        <ele>286</ele>
        <time>2020-08-08T08:51:19.000Z</time>
      </trkpt>
      <trkpt lat="43.68735" lon="3.71112">
        <ele>286</ele>
        <time>2020-08-08T08:51:20.000Z</time>
      </trkpt>
      <trkpt lat="43.68732" lon="3.7111">
        <ele>286</ele>
        <time>2020-08-08T08:51:21.000Z</time>
      </trkpt>
      <trkpt lat="43.68728" lon="3.71108">
        <ele>286</ele>
        <time>2020-08-08T08:51:22.000Z</time>
      </trkpt>
      <trkpt lat="43.68725" lon="3.71107">
        <ele>286</ele>
        <time>2020-08-08T08:51:23.000Z</time>
      </trkpt>
      <trkpt lat="43.68722" lon="3.71106">
        <ele>286</ele>
        <time>2020-08-08T08:51:24.000Z</time>
      </trkpt>
      <trkpt lat="43.68719" lon="3.71105">
        <ele>286</ele>
        <time>2020-08-08T08:51:25.000Z</time>
      </trkpt>
      <trkpt lat="43.68715" lon="3.71103">
        <ele>286</ele>
        <time>2020-08-08T08:51:26.000Z</time>
      </trkpt>
      <trkpt lat="43.68712" lon="3.71102">
        <ele>286</ele>
        <time>2020-08-08T08:51:27.000Z</time>
      </trkpt>
      <trkpt lat="43.68709" lon="3.711">
        <ele>286</ele>
        <time>2020-08-08T08:51:28.000Z</time>
      </trkpt>
      <trkpt lat="43.68707" lon="3.71098">
        <ele>286</ele>
        <time>2020-08-08T08:51:29.000Z</time>
      </trkpt>
      <trkpt lat="43.68704" lon="3.71096">
        <ele>286</ele>
        <time>2020-08-08T08:51:30.000Z</time>
      </trkpt>
      <trkpt lat="43.68701" lon="3.71093">
        <ele>286</ele>
        <time>2020-08-08T08:51:31.000Z</time>
      </trkpt>
      <trkpt lat="43.68698" lon="3.7109">
        <ele>286</ele>
        <time>2020-08-08T08:51:32.000Z</time>
      </trkpt>
      <trkpt lat="43.68695" lon="3.71087">
        <ele>286</ele>
        <time>2020-08-08T08:51:33.000Z</time>
      </trkpt>
      <trkpt lat="43.68692" lon="3.71085">
        <ele>286</ele>
        <time>2020-08-08T08:51:34.000Z</time>
      </trkpt>
      <trkpt lat="43.68689" lon="3.71083">
        <ele>286</ele>
        <time>2020-08-08T08:51:35.000Z</time>
      </trkpt>
      <trkpt lat="43.68686" lon="3.71081">
        <ele>286</ele>
        <time>2020-08-08T08:51:36.000Z</time>
      </trkpt>
      <trkpt lat="43.68682" lon="3.7108">
        <ele>286</ele>
        <time>2020-08-08T08:51:37.000Z</time>
      </trkpt>
      <trkpt lat="43.68679" lon="3.71078">
        <ele>286</ele>
        <time>2020-08-08T08:51:38.000Z</time>
      </trkpt>
      <trkpt lat="43.68676" lon="3.71077">
        <ele>286</ele>
        <time>2020-08-08T08:51:39.000Z</time>
      </trkpt>
      <trkpt lat="43.68673" lon="3.71075">
        <ele>286</ele>
        <time>2020-08-08T08:51:40.000Z</time>
      </trkpt>
      <trkpt lat="43.6867" lon="3.71073">
        <ele>286</ele>
        <time>2020-08-08T08:51:41.000Z</time>
      </trkpt>
      <trkpt lat="43.68667" lon="3.71072">
        <ele>286</ele>
        <time>2020-08-08T08:51:42.000Z</time>
      </trkpt>
      <trkpt lat="43.68663" lon="3.7107">
        <ele>286</ele>
        <time>2020-08-08T08:51:43.000Z</time>
      </trkpt>
      <trkpt lat="43.6866" lon="3.71069">
        <ele>286</ele>
        <time>2020-08-08T08:51:44.000Z</time>
      </trkpt>
      <trkpt lat="43.68657" lon="3.71067">
        <ele>286</ele>
        <time>2020-08-08T08:51:45.000Z</time>
      </trkpt>
      <trkpt lat="43.68653" lon="3.71066">
        <ele>286</ele>
        <time>2020-08-08T08:51:46.000Z</time>
      </trkpt>
      <trkpt lat="43.6865" lon="3.71065">
        <ele>286</ele>
        <time>2020-08-08T08:51:47.000Z</time>
      </trkpt>
      <trkpt lat="43.68647" lon="3.71063">
        <ele>286</ele>
        <time>2020-08-08T08:51:48.000Z</time>
      </trkpt>
      <trkpt lat="43.68643" lon="3.71062">
        <ele>285.97709131474</ele>
        <time>2020-08-08T08:51:49.000Z</time>
      </trkpt>
      <trkpt lat="43.6864" lon="3.71061">
        <ele>285.87748972112</ele>
        <time>2020-08-08T08:51:50.000Z</time>
      </trkpt>
      <trkpt lat="43.68637" lon="3.7106">
        <ele>285.77788812749</ele>
        <time>2020-08-08T08:51:51.000Z</time>
      </trkpt>
      <trkpt lat="43.68633" lon="3.71059">
        <ele>285.67828653386</ele>
        <time>2020-08-08T08:51:52.000Z</time>
      </trkpt>
      <trkpt lat="43.6863" lon="3.71058">
        <ele>285.57868494024</ele>
        <time>2020-08-08T08:51:53.000Z</time>
      </trkpt>
      <trkpt lat="43.68627" lon="3.71058">
        <ele>285.47908334661</ele>
        <time>2020-08-08T08:51:54.000Z</time>
      </trkpt>
      <trkpt lat="43.68624" lon="3.71058">
        <ele>285.37948175299</ele>
        <time>2020-08-08T08:51:55.000Z</time>
      </trkpt>
      <trkpt lat="43.6862" lon="3.71059">
        <ele>285.27988015936</ele>
        <time>2020-08-08T08:51:56.000Z</time>
      </trkpt>
      <trkpt lat="43.68618" lon="3.7106">
        <ele>285.18027856574</ele>
        <time>2020-08-08T08:51:57.000Z</time>
      </trkpt>
      <trkpt lat="43.68615" lon="3.71061">
        <ele>285.08067697211</ele>
        <time>2020-08-08T08:51:58.000Z</time>
      </trkpt>
      <trkpt lat="43.68612" lon="3.71061">
        <ele>285</ele>
        <time>2020-08-08T08:51:59.000Z</time>
      </trkpt>
      <trkpt lat="43.68609" lon="3.7106">
        <ele>285</ele>
        <time>2020-08-08T08:52:00.000Z</time>
      </trkpt>
      <trkpt lat="43.68606" lon="3.71059">
        <ele>285</ele>
        <time>2020-08-08T08:52:01.000Z</time>
      </trkpt>
      <trkpt lat="43.68603" lon="3.71058">
        <ele>285</ele>
        <time>2020-08-08T08:52:02.000Z</time>
      </trkpt>
      <trkpt lat="43.68601" lon="3.71056">
        <ele>285</ele>
        <time>2020-08-08T08:52:03.000Z</time>
      </trkpt>
      <trkpt lat="43.68598" lon="3.71053">
        <ele>285</ele>
        <time>2020-08-08T08:52:04.000Z</time>
      </trkpt>
      <trkpt lat="43.68595" lon="3.7105">
        <ele>285</ele>
        <time>2020-08-08T08:52:05.000Z</time>
      </trkpt>
      <trkpt lat="43.68593" lon="3.71047">
        <ele>285</ele>
        <time>2020-08-08T08:52:06.000Z</time>
      </trkpt>
      <trkpt lat="43.6859" lon="3.71044">
        <ele>285</ele>
        <time>2020-08-08T08:52:07.000Z</time>
      </trkpt>
      <trkpt lat="43.68588" lon="3.71041">
        <ele>285</ele>
        <time>2020-08-08T08:52:08.000Z</time>
      </trkpt>
      <trkpt lat="43.68585" lon="3.71038">
        <ele>284.97699968</ele>
        <time>2020-08-08T08:52:09.000Z</time>
      </trkpt>
      <trkpt lat="43.68582" lon="3.71036">
        <ele>284.87699968</ele>
        <time>2020-08-08T08:52:10.000Z</time>
      </trkpt>
      <trkpt lat="43.68579" lon="3.71033">
        <ele>284.77699968</ele>
        <time>2020-08-08T08:52:11.000Z</time>
      </trkpt>
      <trkpt lat="43.68577" lon="3.71031">
        <ele>284.67699968</ele>
        <time>2020-08-08T08:52:12.000Z</time>
      </trkpt>
      <trkpt lat="43.68574" lon="3.71028">
        <ele>284.57699968</ele>
        <time>2020-08-08T08:52:13.000Z</time>
      </trkpt>
      <trkpt lat="43.68572" lon="3.71025">
        <ele>284.47699968</ele>
        <time>2020-08-08T08:52:14.000Z</time>
      </trkpt>
      <trkpt lat="43.68569" lon="3.71022">
        <ele>284.37699968</ele>
        <time>2020-08-08T08:52:15.000Z</time>
      </trkpt>
      <trkpt lat="43.68566" lon="3.71018">
        <ele>284.27699968</ele>
        <time>2020-08-08T08:52:16.000Z</time>
      </trkpt>
      <trkpt lat="43.68564" lon="3.71015">
        <ele>284.17699968</ele>
        <time>2020-08-08T08:52:17.000Z</time>
      </trkpt>
      <trkpt lat="43.68561" lon="3.71012">
        <ele>284.07699968</ele>
        <time>2020-08-08T08:52:18.000Z</time>
      </trkpt>
      <trkpt lat="43.68557" lon="3.71011">
        <ele>284</ele>
        <time>2020-08-08T08:52:19.000Z</time>
      </trkpt>
      <trkpt lat="43.68554" lon="3.71009">
        <ele>284</ele>
        <time>2020-08-08T08:52:20.000Z</time>
      </trkpt>
      <trkpt lat="43.68551" lon="3.71008">
        <ele>284</ele>
        <time>2020-08-08T08:52:21.000Z</time>
      </trkpt>
      <trkpt lat="43.68548" lon="3.71007">
        <ele>284</ele>
        <time>2020-08-08T08:52:22.000Z</time>
      </trkpt>
      <trkpt lat="43.68545" lon="3.71006">
        <ele>284</ele>
        <time>2020-08-08T08:52:23.000Z</time>
      </trkpt>
      <trkpt lat="43.68542" lon="3.71005">
        <ele>284</ele>
        <time>2020-08-08T08:52:24.000Z</time>
      </trkpt>
      <trkpt lat="43.68539" lon="3.71004">
        <ele>284</ele>
        <time>2020-08-08T08:52:25.000Z</time>
      </trkpt>
      <trkpt lat="43.68536" lon="3.71002">
        <ele>284</ele>
        <time>2020-08-08T08:52:26.000Z</time>
      </trkpt>
      <trkpt lat="43.68533" lon="3.71">
        <ele>284</ele>
        <time>2020-08-08T08:52:27.000Z</time>
      </trkpt>
      <trkpt lat="43.6853" lon="3.70998">
        <ele>284</ele>
        <time>2020-08-08T08:52:28.000Z</time>
      </trkpt>
      <trkpt lat="43.68527" lon="3.70996">
        <ele>283.97715957032</ele>
        <time>2020-08-08T08:52:29.000Z</time>
      </trkpt>
      <trkpt lat="43.68524" lon="3.70994">
        <ele>283.87785473593</ele>
        <time>2020-08-08T08:52:30.000Z</time>
      </trkpt>
      <trkpt lat="43.6852" lon="3.70992">
        <ele>283.77854990155</ele>
        <time>2020-08-08T08:52:31.000Z</time>
      </trkpt>
      <trkpt lat="43.68517" lon="3.7099">
        <ele>283.67924506717</ele>
        <time>2020-08-08T08:52:32.000Z</time>
      </trkpt>
      <trkpt lat="43.68514" lon="3.70988">
        <ele>283.57994023279</ele>
        <time>2020-08-08T08:52:33.000Z</time>
      </trkpt>
      <trkpt lat="43.6851" lon="3.70986">
        <ele>283.48063539841</ele>
        <time>2020-08-08T08:52:34.000Z</time>
      </trkpt>
      <trkpt lat="43.68507" lon="3.70985">
        <ele>283.38133056403</ele>
        <time>2020-08-08T08:52:35.000Z</time>
      </trkpt>
      <trkpt lat="43.68503" lon="3.70984">
        <ele>283.28202572964</ele>
        <time>2020-08-08T08:52:36.000Z</time>
      </trkpt>
      <trkpt lat="43.685" lon="3.70983">
        <ele>283.18272089526</ele>
        <time>2020-08-08T08:52:37.000Z</time>
      </trkpt>
      <trkpt lat="43.68497" lon="3.70982">
        <ele>283.08341606088</ele>
        <time>2020-08-08T08:52:38.000Z</time>
      </trkpt>
      <trkpt lat="43.68493" lon="3.70982">
        <ele>283</ele>
        <time>2020-08-08T08:52:39.000Z</time>
      </trkpt>
      <trkpt lat="43.6849" lon="3.70981">
        <ele>283</ele>
        <time>2020-08-08T08:52:40.000Z</time>
      </trkpt>
      <trkpt lat="43.68486" lon="3.70981">
        <ele>283</ele>
        <time>2020-08-08T08:52:41.000Z</time>
      </trkpt>
      <trkpt lat="43.68483" lon="3.7098">
        <ele>283</ele>
        <time>2020-08-08T08:52:42.000Z</time>
      </trkpt>
      <trkpt lat="43.6848" lon="3.7098">
        <ele>283</ele>
        <time>2020-08-08T08:52:43.000Z</time>
      </trkpt>
      <trkpt lat="43.68476" lon="3.7098">
        <ele>283</ele>
        <time>2020-08-08T08:52:44.000Z</time>
      </trkpt>
      <trkpt lat="43.68473" lon="3.7098">
        <ele>283</ele>
        <time>2020-08-08T08:52:45.000Z</time>
      </trkpt>
      <trkpt lat="43.6847" lon="3.7098">
        <ele>283</ele>
        <time>2020-08-08T08:52:46.000Z</time>
      </trkpt>
      <trkpt lat="43.68466" lon="3.7098">
        <ele>283</ele>
        <time>2020-08-08T08:52:47.000Z</time>
      </trkpt>
      <trkpt lat="43.68463" lon="3.7098">
        <ele>283</ele>
        <time>2020-08-08T08:52:48.000Z</time>
      </trkpt>
      <trkpt lat="43.68459" lon="3.7098">
        <ele>282.97753875</ele>
        <time>2020-08-08T08:52:49.000Z</time>
      </trkpt>
      <trkpt lat="43.68456" lon="3.7098">
        <ele>282.8798825</ele>
        <time>2020-08-08T08:52:50.000Z</time>
      </trkpt>
      <trkpt lat="43.68453" lon="3.7098">
        <ele>282.78222625</ele>
        <time>2020-08-08T08:52:51.000Z</time>
      </trkpt>
      <trkpt lat="43.6845" lon="3.70981">
        <ele>282.68457</ele>
        <time>2020-08-08T08:52:52.000Z</time>
      </trkpt>
      <trkpt lat="43.68447" lon="3.7098">
        <ele>282.58691375</ele>
        <time>2020-08-08T08:52:53.000Z</time>
      </trkpt>
      <trkpt lat="43.68443" lon="3.7098">
        <ele>282.4892575</ele>
        <time>2020-08-08T08:52:54.000Z</time>
      </trkpt>
      <trkpt lat="43.6844" lon="3.7098">
        <ele>282.39160125</ele>
        <time>2020-08-08T08:52:55.000Z</time>
      </trkpt>
      <trkpt lat="43.68436" lon="3.70979">
        <ele>282.293945</ele>
        <time>2020-08-08T08:52:56.000Z</time>
      </trkpt>
      <trkpt lat="43.68433" lon="3.70979">
        <ele>282.19628875</ele>
        <time>2020-08-08T08:52:57.000Z</time>
      </trkpt>
      <trkpt lat="43.68429" lon="3.70979">
        <ele>282.0986325</ele>
        <time>2020-08-08T08:52:58.000Z</time>
      </trkpt>
      <trkpt lat="43.68426" lon="3.7098">
        <ele>282.00097625</ele>
        <time>2020-08-08T08:52:59.000Z</time>
      </trkpt>
      <trkpt lat="43.68423" lon="3.70981">
        <ele>282</ele>
        <time>2020-08-08T08:53:00.000Z</time>
      </trkpt>
      <trkpt lat="43.6842" lon="3.70981">
        <ele>282</ele>
        <time>2020-08-08T08:53:01.000Z</time>
      </trkpt>
      <trkpt lat="43.68416" lon="3.70982">
        <ele>282</ele>
        <time>2020-08-08T08:53:02.000Z</time>
      </trkpt>
      <trkpt lat="43.68413" lon="3.70983">
        <ele>282</ele>
        <time>2020-08-08T08:53:03.000Z</time>
      </trkpt>
      <trkpt lat="43.6841" lon="3.70984">
        <ele>282</ele>
        <time>2020-08-08T08:53:04.000Z</time>
      </trkpt>
      <trkpt lat="43.68406" lon="3.70985">
        <ele>282</ele>
        <time>2020-08-08T08:53:05.000Z</time>
      </trkpt>
      <trkpt lat="43.68403" lon="3.70986">
        <ele>282</ele>
        <time>2020-08-08T08:53:06.000Z</time>
      </trkpt>
      <trkpt lat="43.684" lon="3.70986">
        <ele>282</ele>
        <time>2020-08-08T08:53:07.000Z</time>
      </trkpt>
      <trkpt lat="43.68396" lon="3.70987">
        <ele>282</ele>
        <time>2020-08-08T08:53:08.000Z</time>
      </trkpt>
      <trkpt lat="43.68393" lon="3.70988">
        <ele>282.01907662651</ele>
        <time>2020-08-08T08:53:09.000Z</time>
      </trkpt>
      <trkpt lat="43.6839" lon="3.7099">
        <ele>282.11947823293</ele>
        <time>2020-08-08T08:53:10.000Z</time>
      </trkpt>
      <trkpt lat="43.68387" lon="3.70991">
        <ele>282.21987983936</ele>
        <time>2020-08-08T08:53:11.000Z</time>
      </trkpt>
      <trkpt lat="43.68384" lon="3.70992">
        <ele>282.32028144578</ele>
        <time>2020-08-08T08:53:12.000Z</time>
      </trkpt>
      <trkpt lat="43.68381" lon="3.70993">
        <ele>282.42068305221</ele>
        <time>2020-08-08T08:53:13.000Z</time>
      </trkpt>
      <trkpt lat="43.68379" lon="3.70993">
        <ele>282.52108465864</ele>
        <time>2020-08-08T08:53:14.000Z</time>
      </trkpt>
      <trkpt lat="43.68376" lon="3.70994">
        <ele>282.62148626506</ele>
        <time>2020-08-08T08:53:15.000Z</time>
      </trkpt>
      <trkpt lat="43.68374" lon="3.70995">
        <ele>282.72188787149</ele>
        <time>2020-08-08T08:53:16.000Z</time>
      </trkpt>
      <trkpt lat="43.68371" lon="3.70996">
        <ele>282.82228947791</ele>
        <time>2020-08-08T08:53:17.000Z</time>
      </trkpt>
      <trkpt lat="43.68369" lon="3.70998">
        <ele>282.92269108434</ele>
        <time>2020-08-08T08:53:18.000Z</time>
      </trkpt>
      <trkpt lat="43.68367" lon="3.71001">
        <ele>283</ele>
        <time>2020-08-08T08:53:19.000Z</time>
      </trkpt>
      <trkpt lat="43.68364" lon="3.71004">
        <ele>283</ele>
        <time>2020-08-08T08:53:20.000Z</time>
      </trkpt>
      <trkpt lat="43.68362" lon="3.71007">
        <ele>283</ele>
        <time>2020-08-08T08:53:21.000Z</time>
      </trkpt>
      <trkpt lat="43.68359" lon="3.7101">
        <ele>283</ele>
        <time>2020-08-08T08:53:22.000Z</time>
      </trkpt>
      <trkpt lat="43.68357" lon="3.71012">
        <ele>283</ele>
        <time>2020-08-08T08:53:23.000Z</time>
      </trkpt>
      <trkpt lat="43.68354" lon="3.71015">
        <ele>283</ele>
        <time>2020-08-08T08:53:24.000Z</time>
      </trkpt>
      <trkpt lat="43.68351" lon="3.71018">
        <ele>283</ele>
        <time>2020-08-08T08:53:25.000Z</time>
      </trkpt>
      <trkpt lat="43.68348" lon="3.7102">
        <ele>283</ele>
        <time>2020-08-08T08:53:26.000Z</time>
      </trkpt>
      <trkpt lat="43.68346" lon="3.71023">
        <ele>283</ele>
        <time>2020-08-08T08:53:27.000Z</time>
      </trkpt>
      <trkpt lat="43.68343" lon="3.71025">
        <ele>283</ele>
        <time>2020-08-08T08:53:28.000Z</time>
      </trkpt>
      <trkpt lat="43.6834" lon="3.71028">
        <ele>283</ele>
        <time>2020-08-08T08:53:29.000Z</time>
      </trkpt>
      <trkpt lat="43.68338" lon="3.7103">
        <ele>283</ele>
        <time>2020-08-08T08:53:30.000Z</time>
      </trkpt>
      <trkpt lat="43.68336" lon="3.71032">
        <ele>283</ele>
        <time>2020-08-08T08:53:31.000Z</time>
      </trkpt>
      <trkpt lat="43.68334" lon="3.71034">
        <ele>283</ele>
        <time>2020-08-08T08:53:32.000Z</time>
      </trkpt>
      <trkpt lat="43.68333" lon="3.71036">
        <ele>283</ele>
        <time>2020-08-08T08:53:33.000Z</time>
      </trkpt>
      <trkpt lat="43.68332" lon="3.71039">
        <ele>283</ele>
        <time>2020-08-08T08:53:36.000Z</time>
      </trkpt>
      <trkpt lat="43.68331" lon="3.71039">
        <ele>283</ele>
        <time>2020-08-08T08:53:43.000Z</time>
      </trkpt>
      <trkpt lat="43.68328" lon="3.71043">
        <ele>283</ele>
        <time>2020-08-08T08:53:49.000Z</time>
      </trkpt>
      <trkpt lat="43.68327" lon="3.71046">
        <ele>283</ele>
        <time>2020-08-08T08:53:50.000Z</time>
      </trkpt>
      <trkpt lat="43.68325" lon="3.71048">
        <ele>283</ele>
        <time>2020-08-08T08:53:51.000Z</time>
      </trkpt>
      <trkpt lat="43.68324" lon="3.71051">
        <ele>283</ele>
        <time>2020-08-08T08:53:52.000Z</time>
      </trkpt>
      <trkpt lat="43.68322" lon="3.71055">
        <ele>283</ele>
        <time>2020-08-08T08:53:53.000Z</time>
      </trkpt>
      <trkpt lat="43.68321" lon="3.71059">
        <ele>283</ele>
        <time>2020-08-08T08:53:54.000Z</time>
      </trkpt>
      <trkpt lat="43.68319" lon="3.71063">
        <ele>283</ele>
        <time>2020-08-08T08:53:55.000Z</time>
      </trkpt>
      <trkpt lat="43.68318" lon="3.71067">
        <ele>283</ele>
        <time>2020-08-08T08:53:56.000Z</time>
      </trkpt>
      <trkpt lat="43.68316" lon="3.71071">
        <ele>283</ele>
        <time>2020-08-08T08:53:57.000Z</time>
      </trkpt>
      <trkpt lat="43.68314" lon="3.71076">
        <ele>283</ele>
        <time>2020-08-08T08:53:58.000Z</time>
      </trkpt>
      <trkpt lat="43.68312" lon="3.71081">
        <ele>282.9776478842</ele>
        <time>2020-08-08T08:53:59.000Z</time>
      </trkpt>
      <trkpt lat="43.6831" lon="3.71085">
        <ele>282.88046612415</ele>
        <time>2020-08-08T08:54:00.000Z</time>
      </trkpt>
      <trkpt lat="43.68308" lon="3.7109">
        <ele>282.78328436409</ele>
        <time>2020-08-08T08:54:01.000Z</time>
      </trkpt>
      <trkpt lat="43.68306" lon="3.71095">
        <ele>282.68610260404</ele>
        <time>2020-08-08T08:54:02.000Z</time>
      </trkpt>
      <trkpt lat="43.68304" lon="3.711">
        <ele>282.58892084398</ele>
        <time>2020-08-08T08:54:03.000Z</time>
      </trkpt>
      <trkpt lat="43.68301" lon="3.71105">
        <ele>282.49173908392</ele>
        <time>2020-08-08T08:54:04.000Z</time>
      </trkpt>
      <trkpt lat="43.68299" lon="3.7111">
        <ele>282.39455732387</ele>
        <time>2020-08-08T08:54:05.000Z</time>
      </trkpt>
      <trkpt lat="43.68298" lon="3.71115">
        <ele>282.29737556381</ele>
        <time>2020-08-08T08:54:06.000Z</time>
      </trkpt>
      <trkpt lat="43.68296" lon="3.71121">
        <ele>282.20019380375</ele>
        <time>2020-08-08T08:54:07.000Z</time>
      </trkpt>
      <trkpt lat="43.68294" lon="3.71127">
        <ele>282.1030120437</ele>
        <time>2020-08-08T08:54:08.000Z</time>
      </trkpt>
      <trkpt lat="43.68293" lon="3.71133">
        <ele>282.00583028364</ele>
        <time>2020-08-08T08:54:09.000Z</time>
      </trkpt>
      <trkpt lat="43.68292" lon="3.71139">
        <ele>281.90319195775</ele>
        <time>2020-08-08T08:54:10.000Z</time>
      </trkpt>
      <trkpt lat="43.6829" lon="3.71145">
        <ele>281.80020537995</ele>
        <time>2020-08-08T08:54:11.000Z</time>
      </trkpt>
      <trkpt lat="43.68288" lon="3.71151">
        <ele>281.69721880215</ele>
        <time>2020-08-08T08:54:12.000Z</time>
      </trkpt>
      <trkpt lat="43.68285" lon="3.71158">
        <ele>281.59423222435</ele>
        <time>2020-08-08T08:54:13.000Z</time>
      </trkpt>
      <trkpt lat="43.68282" lon="3.71164">
        <ele>281.49124564655</ele>
        <time>2020-08-08T08:54:14.000Z</time>
      </trkpt>
      <trkpt lat="43.68279" lon="3.7117">
        <ele>281.38825906875</ele>
        <time>2020-08-08T08:54:15.000Z</time>
      </trkpt>
      <trkpt lat="43.68277" lon="3.71174">
        <ele>281.28527249095</ele>
        <time>2020-08-08T08:54:16.000Z</time>
      </trkpt>
      <trkpt lat="43.68281" lon="3.71174">
        <ele>280.47699968</ele>
        <time>2020-08-08T08:54:24.000Z</time>
      </trkpt>
      <trkpt lat="43.68283" lon="3.71175">
        <ele>280.37699968</ele>
        <time>2020-08-08T08:54:25.000Z</time>
      </trkpt>
      <trkpt lat="43.68284" lon="3.71177">
        <ele>280.27699968</ele>
        <time>2020-08-08T08:54:26.000Z</time>
      </trkpt>
      <trkpt lat="43.68286" lon="3.71179">
        <ele>280.17699968</ele>
        <time>2020-08-08T08:54:27.000Z</time>
      </trkpt>
      <trkpt lat="43.68287" lon="3.71182">
        <ele>280.07699968</ele>
        <time>2020-08-08T08:54:28.000Z</time>
      </trkpt>
      <trkpt lat="43.68289" lon="3.71186">
        <ele>279.97699968</ele>
        <time>2020-08-08T08:54:29.000Z</time>
      </trkpt>
      <trkpt lat="43.6829" lon="3.71189">
        <ele>279.87699968</ele>
        <time>2020-08-08T08:54:30.000Z</time>
      </trkpt>
      <trkpt lat="43.68292" lon="3.71193">
        <ele>279.77699968</ele>
        <time>2020-08-08T08:54:31.000Z</time>
      </trkpt>
      <trkpt lat="43.68293" lon="3.71197">
        <ele>279.67699968</ele>
        <time>2020-08-08T08:54:32.000Z</time>
      </trkpt>
      <trkpt lat="43.68295" lon="3.71201">
        <ele>279.57699968</ele>
        <time>2020-08-08T08:54:33.000Z</time>
      </trkpt>
      <trkpt lat="43.68296" lon="3.71205">
        <ele>279.47699968</ele>
        <time>2020-08-08T08:54:34.000Z</time>
      </trkpt>
      <trkpt lat="43.68297" lon="3.71208">
        <ele>279.37699968</ele>
        <time>2020-08-08T08:54:35.000Z</time>
      </trkpt>
      <trkpt lat="43.68298" lon="3.71211">
        <ele>279.27699968</ele>
        <time>2020-08-08T08:54:36.000Z</time>
      </trkpt>
      <trkpt lat="43.68299" lon="3.71215">
        <ele>279.17699968</ele>
        <time>2020-08-08T08:54:37.000Z</time>
      </trkpt>
      <trkpt lat="43.683" lon="3.71218">
        <ele>279.07699968</ele>
        <time>2020-08-08T08:54:38.000Z</time>
      </trkpt>
      <trkpt lat="43.68301" lon="3.7122">
        <ele>279</ele>
        <time>2020-08-08T08:54:39.000Z</time>
      </trkpt>
      <trkpt lat="43.68302" lon="3.71223">
        <ele>279</ele>
        <time>2020-08-08T08:54:41.000Z</time>
      </trkpt>
      <trkpt lat="43.68302" lon="3.71223">
        <ele>279.06618290438</ele>
        <time>2020-08-08T08:54:47.000Z</time>
      </trkpt>
      <trkpt lat="43.68303" lon="3.71229">
        <ele>279.97280200715</ele>
        <time>2020-08-08T08:54:57.000Z</time>
      </trkpt>
      <trkpt lat="43.68304" lon="3.71231">
        <ele>279.9270615997</ele>
        <time>2020-08-08T08:54:58.000Z</time>
      </trkpt>
      <trkpt lat="43.68304" lon="3.71234">
        <ele>279.82135328294</ele>
        <time>2020-08-08T08:54:59.000Z</time>
      </trkpt>
      <trkpt lat="43.68305" lon="3.71237">
        <ele>279.71564496619</ele>
        <time>2020-08-08T08:55:00.000Z</time>
      </trkpt>
      <trkpt lat="43.68306" lon="3.7124">
        <ele>279.60993664943</ele>
        <time>2020-08-08T08:55:01.000Z</time>
      </trkpt>
      <trkpt lat="43.68306" lon="3.71243">
        <ele>279.50422833267</ele>
        <time>2020-08-08T08:55:02.000Z</time>
      </trkpt>
      <trkpt lat="43.68307" lon="3.71246">
        <ele>279.39852001591</ele>
        <time>2020-08-08T08:55:03.000Z</time>
      </trkpt>
      <trkpt lat="43.68308" lon="3.7125">
        <ele>279.29281169915</ele>
        <time>2020-08-08T08:55:04.000Z</time>
      </trkpt>
      <trkpt lat="43.68308" lon="3.71253">
        <ele>279.1871033824</ele>
        <time>2020-08-08T08:55:05.000Z</time>
      </trkpt>
      <trkpt lat="43.68309" lon="3.71257">
        <ele>279.08139506564</ele>
        <time>2020-08-08T08:55:06.000Z</time>
      </trkpt>
      <trkpt lat="43.68309" lon="3.71261">
        <ele>278.96997349767</ele>
        <time>2020-08-08T08:55:07.000Z</time>
      </trkpt>
      <trkpt lat="43.6831" lon="3.71264">
        <ele>278.83942530387</ele>
        <time>2020-08-08T08:55:08.000Z</time>
      </trkpt>
      <trkpt lat="43.68311" lon="3.71268">
        <ele>278.70887711008</ele>
        <time>2020-08-08T08:55:09.000Z</time>
      </trkpt>
      <trkpt lat="43.68312" lon="3.71271">
        <ele>278.57832891628</ele>
        <time>2020-08-08T08:55:10.000Z</time>
      </trkpt>
      <trkpt lat="43.68313" lon="3.71275">
        <ele>278.44778072248</ele>
        <time>2020-08-08T08:55:11.000Z</time>
      </trkpt>
      <trkpt lat="43.68314" lon="3.71279">
        <ele>278.31723252868</ele>
        <time>2020-08-08T08:55:12.000Z</time>
      </trkpt>
      <trkpt lat="43.68315" lon="3.71283">
        <ele>278.18668433489</ele>
        <time>2020-08-08T08:55:13.000Z</time>
      </trkpt>
      <trkpt lat="43.68317" lon="3.71287">
        <ele>278.05613614109</ele>
        <time>2020-08-08T08:55:14.000Z</time>
      </trkpt>
      <trkpt lat="43.68318" lon="3.71292">
        <ele>278</ele>
        <time>2020-08-08T08:55:15.000Z</time>
      </trkpt>
      <trkpt lat="43.68319" lon="3.71297">
        <ele>278</ele>
        <time>2020-08-08T08:55:16.000Z</time>
      </trkpt>
      <trkpt lat="43.6832" lon="3.71301">
        <ele>278</ele>
        <time>2020-08-08T08:55:17.000Z</time>
      </trkpt>
      <trkpt lat="43.68322" lon="3.71306">
        <ele>278</ele>
        <time>2020-08-08T08:55:18.000Z</time>
      </trkpt>
      <trkpt lat="43.68325" lon="3.71309">
        <ele>278</ele>
        <time>2020-08-08T08:55:19.000Z</time>
      </trkpt>
      <trkpt lat="43.68328" lon="3.71313">
        <ele>278</ele>
        <time>2020-08-08T08:55:20.000Z</time>
      </trkpt>
      <trkpt lat="43.68331" lon="3.71315">
        <ele>278</ele>
        <time>2020-08-08T08:55:21.000Z</time>
      </trkpt>
      <trkpt lat="43.68335" lon="3.71317">
        <ele>278</ele>
        <time>2020-08-08T08:55:22.000Z</time>
      </trkpt>
      <trkpt lat="43.68339" lon="3.71319">
        <ele>278</ele>
        <time>2020-08-08T08:55:23.000Z</time>
      </trkpt>
      <trkpt lat="43.68343" lon="3.71321">
        <ele>278</ele>
        <time>2020-08-08T08:55:24.000Z</time>
      </trkpt>
      <trkpt lat="43.68345" lon="3.71325">
        <ele>278</ele>
        <time>2020-08-08T08:55:25.000Z</time>
      </trkpt>
      <trkpt lat="43.68347" lon="3.71329">
        <ele>278</ele>
        <time>2020-08-08T08:55:26.000Z</time>
      </trkpt>
      <trkpt lat="43.68348" lon="3.71334">
        <ele>278</ele>
        <time>2020-08-08T08:55:27.000Z</time>
      </trkpt>
      <trkpt lat="43.68349" lon="3.71339">
        <ele>277.90786776505</ele>
        <time>2020-08-08T08:55:28.000Z</time>
      </trkpt>
      <trkpt lat="43.68351" lon="3.71345">
        <ele>277.80434802772</ele>
        <time>2020-08-08T08:55:29.000Z</time>
      </trkpt>
      <trkpt lat="43.68352" lon="3.7135">
        <ele>277.7008282904</ele>
        <time>2020-08-08T08:55:30.000Z</time>
      </trkpt>
      <trkpt lat="43.68353" lon="3.71356">
        <ele>277.59730855308</ele>
        <time>2020-08-08T08:55:31.000Z</time>
      </trkpt>
      <trkpt lat="43.68354" lon="3.71362">
        <ele>277.49378881576</ele>
        <time>2020-08-08T08:55:32.000Z</time>
      </trkpt>
      <trkpt lat="43.68354" lon="3.71369">
        <ele>277.39026907844</ele>
        <time>2020-08-08T08:55:33.000Z</time>
      </trkpt>
      <trkpt lat="43.68355" lon="3.71374">
        <ele>277.28674934112</ele>
        <time>2020-08-08T08:55:34.000Z</time>
      </trkpt>
      <trkpt lat="43.68355" lon="3.7138">
        <ele>277.1832296038</ele>
        <time>2020-08-08T08:55:35.000Z</time>
      </trkpt>
      <trkpt lat="43.68356" lon="3.71385">
        <ele>277.07970986647</ele>
        <time>2020-08-08T08:55:36.000Z</time>
      </trkpt>
      <trkpt lat="43.68357" lon="3.7139">
        <ele>277</ele>
        <time>2020-08-08T08:55:37.000Z</time>
      </trkpt>
      <trkpt lat="43.68359" lon="3.71394">
        <ele>277</ele>
        <time>2020-08-08T08:55:38.000Z</time>
      </trkpt>
      <trkpt lat="43.68361" lon="3.71398">
        <ele>277</ele>
        <time>2020-08-08T08:55:39.000Z</time>
      </trkpt>
      <trkpt lat="43.68363" lon="3.71402">
        <ele>277</ele>
        <time>2020-08-08T08:55:40.000Z</time>
      </trkpt>
      <trkpt lat="43.68365" lon="3.71406">
        <ele>277</ele>
        <time>2020-08-08T08:55:41.000Z</time>
      </trkpt>
      <trkpt lat="43.68366" lon="3.7141">
        <ele>277</ele>
        <time>2020-08-08T08:55:42.000Z</time>
      </trkpt>
      <trkpt lat="43.68368" lon="3.71414">
        <ele>277</ele>
        <time>2020-08-08T08:55:43.000Z</time>
      </trkpt>
      <trkpt lat="43.68369" lon="3.71417">
        <ele>277</ele>
        <time>2020-08-08T08:55:44.000Z</time>
      </trkpt>
      <trkpt lat="43.68371" lon="3.71421">
        <ele>277</ele>
        <time>2020-08-08T08:55:45.000Z</time>
      </trkpt>
      <trkpt lat="43.68371" lon="3.71426">
        <ele>277</ele>
        <time>2020-08-08T08:55:46.000Z</time>
      </trkpt>
      <trkpt lat="43.68372" lon="3.7143">
        <ele>277.04595464124</ele>
        <time>2020-08-08T08:55:47.000Z</time>
      </trkpt>
      <trkpt lat="43.68372" lon="3.71435">
        <ele>277.24575464943</ele>
        <time>2020-08-08T08:55:48.000Z</time>
      </trkpt>
      <trkpt lat="43.68373" lon="3.71439">
        <ele>277.44555465761</ele>
        <time>2020-08-08T08:55:49.000Z</time>
      </trkpt>
      <trkpt lat="43.68373" lon="3.71444">
        <ele>277.64535466579</ele>
        <time>2020-08-08T08:55:50.000Z</time>
      </trkpt>
      <trkpt lat="43.68373" lon="3.71448">
        <ele>277.84515467398</ele>
        <time>2020-08-08T08:55:51.000Z</time>
      </trkpt>
      <trkpt lat="43.68374" lon="3.71453">
        <ele>278.04495468216</ele>
        <time>2020-08-08T08:55:52.000Z</time>
      </trkpt>
      <trkpt lat="43.68374" lon="3.71457">
        <ele>278.24475469035</ele>
        <time>2020-08-08T08:55:53.000Z</time>
      </trkpt>
      <trkpt lat="43.68374" lon="3.71462">
        <ele>278.44455469853</ele>
        <time>2020-08-08T08:55:54.000Z</time>
      </trkpt>
      <trkpt lat="43.68374" lon="3.71466">
        <ele>278.64435470671</ele>
        <time>2020-08-08T08:55:55.000Z</time>
      </trkpt>
      <trkpt lat="43.68374" lon="3.7147">
        <ele>278.8441547149</ele>
        <time>2020-08-08T08:55:56.000Z</time>
      </trkpt>
      <trkpt lat="43.68374" lon="3.71473">
        <ele>279.04317837238</ele>
        <time>2020-08-08T08:55:57.000Z</time>
      </trkpt>
      <trkpt lat="43.68374" lon="3.71477">
        <ele>279.23944941106</ele>
        <time>2020-08-08T08:55:58.000Z</time>
      </trkpt>
      <trkpt lat="43.68374" lon="3.7148">
        <ele>279.43572044975</ele>
        <time>2020-08-08T08:55:59.000Z</time>
      </trkpt>
      <trkpt lat="43.68374" lon="3.71483">
        <ele>279.63199148843</ele>
        <time>2020-08-08T08:56:00.000Z</time>
      </trkpt>
      <trkpt lat="43.68374" lon="3.71486">
        <ele>279.82826252712</ele>
        <time>2020-08-08T08:56:01.000Z</time>
      </trkpt>
      <trkpt lat="43.68375" lon="3.71489">
        <ele>280.0245335658</ele>
        <time>2020-08-08T08:56:02.000Z</time>
      </trkpt>
      <trkpt lat="43.68375" lon="3.71492">
        <ele>280.22080460449</ele>
        <time>2020-08-08T08:56:03.000Z</time>
      </trkpt>
      <trkpt lat="43.68376" lon="3.71495">
        <ele>280.41707564317</ele>
        <time>2020-08-08T08:56:04.000Z</time>
      </trkpt>
      <trkpt lat="43.68376" lon="3.71497">
        <ele>280.61334668186</ele>
        <time>2020-08-08T08:56:05.000Z</time>
      </trkpt>
      <trkpt lat="43.68376" lon="3.71502">
        <ele>281.00306155102</ele>
        <time>2020-08-08T08:56:07.000Z</time>
      </trkpt>
      <trkpt lat="43.68376" lon="3.71504">
        <ele>281.10510236735</ele>
        <time>2020-08-08T08:56:08.000Z</time>
      </trkpt>
      <trkpt lat="43.68375" lon="3.71507">
        <ele>281.20714318367</ele>
        <time>2020-08-08T08:56:09.000Z</time>
      </trkpt>
      <trkpt lat="43.68374" lon="3.71509">
        <ele>281.309184</ele>
        <time>2020-08-08T08:56:10.000Z</time>
      </trkpt>
      <trkpt lat="43.68373" lon="3.71511">
        <ele>281.41122481633</ele>
        <time>2020-08-08T08:56:11.000Z</time>
      </trkpt>
      <trkpt lat="43.68371" lon="3.71513">
        <ele>281.51326563265</ele>
        <time>2020-08-08T08:56:12.000Z</time>
      </trkpt>
      <trkpt lat="43.6837" lon="3.71515">
        <ele>281.61530644898</ele>
        <time>2020-08-08T08:56:13.000Z</time>
      </trkpt>
      <trkpt lat="43.68369" lon="3.71517">
        <ele>281.71734726531</ele>
        <time>2020-08-08T08:56:14.000Z</time>
      </trkpt>
      <trkpt lat="43.68369" lon="3.7152">
        <ele>281.81938808163</ele>
        <time>2020-08-08T08:56:15.000Z</time>
      </trkpt>
      <trkpt lat="43.68368" lon="3.71524">
        <ele>282.02300032</ele>
        <time>2020-08-08T08:56:17.000Z</time>
      </trkpt>
      <trkpt lat="43.68369" lon="3.71528">
        <ele>282.22300032</ele>
        <time>2020-08-08T08:56:19.000Z</time>
      </trkpt>
      <trkpt lat="43.6837" lon="3.71532">
        <ele>282.42300032</ele>
        <time>2020-08-08T08:56:21.000Z</time>
      </trkpt>
      <trkpt lat="43.68371" lon="3.71535">
        <ele>282.62300032</ele>
        <time>2020-08-08T08:56:23.000Z</time>
      </trkpt>
      <trkpt lat="43.68372" lon="3.71539">
        <ele>282.82300032</ele>
        <time>2020-08-08T08:56:25.000Z</time>
      </trkpt>
      <trkpt lat="43.68372" lon="3.71543">
        <ele>283.02300032</ele>
        <time>2020-08-08T08:56:27.000Z</time>
      </trkpt>
      <trkpt lat="43.68372" lon="3.71546">
        <ele>283.22300032</ele>
        <time>2020-08-08T08:56:29.000Z</time>
      </trkpt>
      <trkpt lat="43.68373" lon="3.7155">
        <ele>283.42300032</ele>
        <time>2020-08-08T08:56:31.000Z</time>
      </trkpt>
      <trkpt lat="43.68375" lon="3.71554">
        <ele>283.62300032</ele>
        <time>2020-08-08T08:56:33.000Z</time>
      </trkpt>
      <trkpt lat="43.68376" lon="3.71558">
        <ele>283.82300032</ele>
        <time>2020-08-08T08:56:35.000Z</time>
      </trkpt>
      <trkpt lat="43.68377" lon="3.71562">
        <ele>284.02290868526</ele>
        <time>2020-08-08T08:56:37.000Z</time>
      </trkpt>
      <trkpt lat="43.68378" lon="3.71566">
        <ele>284.22211187251</ele>
        <time>2020-08-08T08:56:39.000Z</time>
      </trkpt>
      <trkpt lat="43.68379" lon="3.71571">
        <ele>284.42131505976</ele>
        <time>2020-08-08T08:56:41.000Z</time>
      </trkpt>
      <trkpt lat="43.68379" lon="3.71575">
        <ele>284.62051824701</ele>
        <time>2020-08-08T08:56:43.000Z</time>
      </trkpt>
      <trkpt lat="43.6838" lon="3.71579">
        <ele>284.81972143426</ele>
        <time>2020-08-08T08:56:45.000Z</time>
      </trkpt>
      <trkpt lat="43.68381" lon="3.71582">
        <ele>285.01907662651</ele>
        <time>2020-08-08T08:56:47.000Z</time>
      </trkpt>
      <trkpt lat="43.68381" lon="3.71586">
        <ele>285.21987983936</ele>
        <time>2020-08-08T08:56:49.000Z</time>
      </trkpt>
      <trkpt lat="43.68382" lon="3.7159">
        <ele>285.42068305221</ele>
        <time>2020-08-08T08:56:51.000Z</time>
      </trkpt>
      <trkpt lat="43.68383" lon="3.71594">
        <ele>285.62148626506</ele>
        <time>2020-08-08T08:56:53.000Z</time>
      </trkpt>
      <trkpt lat="43.68384" lon="3.71598">
        <ele>285.82228947791</ele>
        <time>2020-08-08T08:56:55.000Z</time>
      </trkpt>
      <trkpt lat="43.68384" lon="3.71602">
        <ele>286.04600064</ele>
        <time>2020-08-08T08:56:57.000Z</time>
      </trkpt>
      <trkpt lat="43.68385" lon="3.71606">
        <ele>286.44600064</ele>
        <time>2020-08-08T08:56:59.000Z</time>
      </trkpt>
      <trkpt lat="43.68385" lon="3.7161">
        <ele>286.84600064</ele>
        <time>2020-08-08T08:57:01.000Z</time>
      </trkpt>
      <trkpt lat="43.68385" lon="3.71615">
        <ele>287.24600064</ele>
        <time>2020-08-08T08:57:03.000Z</time>
      </trkpt>
      <trkpt lat="43.68384" lon="3.71619">
        <ele>287.64600064</ele>
        <time>2020-08-08T08:57:05.000Z</time>
      </trkpt>
      <trkpt lat="43.68384" lon="3.71623">
        <ele>288.04581737052</ele>
        <time>2020-08-08T08:57:07.000Z</time>
      </trkpt>
      <trkpt lat="43.68383" lon="3.71626">
        <ele>288.44422374502</ele>
        <time>2020-08-08T08:57:09.000Z</time>
      </trkpt>
      <trkpt lat="43.68383" lon="3.71631">
        <ele>288.84263011952</ele>
        <time>2020-08-08T08:57:11.000Z</time>
      </trkpt>
      <trkpt lat="43.68383" lon="3.71635">
        <ele>289.24103649402</ele>
        <time>2020-08-08T08:57:13.000Z</time>
      </trkpt>
      <trkpt lat="43.68383" lon="3.71638">
        <ele>289.63944286853</ele>
        <time>2020-08-08T08:57:15.000Z</time>
      </trkpt>
      <trkpt lat="43.68383" lon="3.71643">
        <ele>290</ele>
        <time>2020-08-08T08:57:17.000Z</time>
      </trkpt>
      <trkpt lat="43.68381" lon="3.71646">
        <ele>290</ele>
        <time>2020-08-08T08:57:19.000Z</time>
      </trkpt>
      <trkpt lat="43.68379" lon="3.71649">
        <ele>290</ele>
        <time>2020-08-08T08:57:21.000Z</time>
      </trkpt>
      <trkpt lat="43.68378" lon="3.7165">
        <ele>290</ele>
        <time>2020-08-08T08:57:26.000Z</time>
      </trkpt>
      <trkpt lat="43.68375" lon="3.71655">
        <ele>290</ele>
        <time>2020-08-08T08:57:35.000Z</time>
      </trkpt>
      <trkpt lat="43.68374" lon="3.71656">
        <ele>290.08263631799</ele>
        <time>2020-08-08T08:57:36.000Z</time>
      </trkpt>
      <trkpt lat="43.68373" lon="3.71661">
        <ele>290.29184133891</ele>
        <time>2020-08-08T08:57:38.000Z</time>
      </trkpt>
      <trkpt lat="43.68372" lon="3.71664">
        <ele>290.39644384937</ele>
        <time>2020-08-08T08:57:39.000Z</time>
      </trkpt>
      <trkpt lat="43.68372" lon="3.71667">
        <ele>290.50104635983</ele>
        <time>2020-08-08T08:57:40.000Z</time>
      </trkpt>
      <trkpt lat="43.68371" lon="3.7167">
        <ele>290.60564887029</ele>
        <time>2020-08-08T08:57:41.000Z</time>
      </trkpt>
      <trkpt lat="43.68371" lon="3.71674">
        <ele>290.71025138075</ele>
        <time>2020-08-08T08:57:42.000Z</time>
      </trkpt>
      <trkpt lat="43.6837" lon="3.71677">
        <ele>290.81485389121</ele>
        <time>2020-08-08T08:57:43.000Z</time>
      </trkpt>
      <trkpt lat="43.68369" lon="3.71681">
        <ele>290.91945640167</ele>
        <time>2020-08-08T08:57:44.000Z</time>
      </trkpt>
      <trkpt lat="43.68368" lon="3.71685">
        <ele>291</ele>
        <time>2020-08-08T08:57:45.000Z</time>
      </trkpt>
      <trkpt lat="43.68368" lon="3.71689">
        <ele>291</ele>
        <time>2020-08-08T08:57:46.000Z</time>
      </trkpt>
      <trkpt lat="43.68369" lon="3.71692">
        <ele>291</ele>
        <time>2020-08-08T08:57:47.000Z</time>
      </trkpt>
      <trkpt lat="43.68369" lon="3.71696">
        <ele>291</ele>
        <time>2020-08-08T08:57:48.000Z</time>
      </trkpt>
      <trkpt lat="43.68368" lon="3.717">
        <ele>291</ele>
        <time>2020-08-08T08:57:49.000Z</time>
      </trkpt>
      <trkpt lat="43.68368" lon="3.71703">
        <ele>291</ele>
        <time>2020-08-08T08:57:50.000Z</time>
      </trkpt>
      <trkpt lat="43.68368" lon="3.71706">
        <ele>291</ele>
        <time>2020-08-08T08:57:51.000Z</time>
      </trkpt>
      <trkpt lat="43.68369" lon="3.71709">
        <ele>291</ele>
        <time>2020-08-08T08:57:52.000Z</time>
      </trkpt>
      <trkpt lat="43.68369" lon="3.71713">
        <ele>291</ele>
        <time>2020-08-08T08:57:53.000Z</time>
      </trkpt>
      <trkpt lat="43.68369" lon="3.71716">
        <ele>291</ele>
        <time>2020-08-08T08:57:54.000Z</time>
      </trkpt>
      <trkpt lat="43.68368" lon="3.71719">
        <ele>291</ele>
        <time>2020-08-08T08:57:55.000Z</time>
      </trkpt>
      <trkpt lat="43.68368" lon="3.71724">
        <ele>290.80403988426</ele>
        <time>2020-08-08T08:57:57.000Z</time>
      </trkpt>
      <trkpt lat="43.68368" lon="3.71727">
        <ele>290.70302984855</ele>
        <time>2020-08-08T08:57:58.000Z</time>
      </trkpt>
      <trkpt lat="43.68367" lon="3.7173">
        <ele>290.60201981284</ele>
        <time>2020-08-08T08:57:59.000Z</time>
      </trkpt>
      <trkpt lat="43.68367" lon="3.71733">
        <ele>290.50100977712</ele>
        <time>2020-08-08T08:58:00.000Z</time>
      </trkpt>
      <trkpt lat="43.68367" lon="3.71736">
        <ele>290.39999974141</ele>
        <time>2020-08-08T08:58:01.000Z</time>
      </trkpt>
      <trkpt lat="43.68368" lon="3.7174">
        <ele>290.2989897057</ele>
        <time>2020-08-08T08:58:02.000Z</time>
      </trkpt>
      <trkpt lat="43.68368" lon="3.71744">
        <ele>290.19797966999</ele>
        <time>2020-08-08T08:58:03.000Z</time>
      </trkpt>
      <trkpt lat="43.68367" lon="3.71747">
        <ele>290.09696963428</ele>
        <time>2020-08-08T08:58:04.000Z</time>
      </trkpt>
      <trkpt lat="43.68366" lon="3.71751">
        <ele>289.9959225267</ele>
        <time>2020-08-08T08:58:05.000Z</time>
      </trkpt>
      <trkpt lat="43.68366" lon="3.71755">
        <ele>289.89398569427</ele>
        <time>2020-08-08T08:58:06.000Z</time>
      </trkpt>
      <trkpt lat="43.68367" lon="3.71758">
        <ele>289.79204886183</ele>
        <time>2020-08-08T08:58:07.000Z</time>
      </trkpt>
      <trkpt lat="43.68368" lon="3.71761">
        <ele>289.69011202939</ele>
        <time>2020-08-08T08:58:08.000Z</time>
      </trkpt>
      <trkpt lat="43.6837" lon="3.71763">
        <ele>289.58817519696</ele>
        <time>2020-08-08T08:58:09.000Z</time>
      </trkpt>
      <trkpt lat="43.68372" lon="3.71765">
        <ele>289.48623836452</ele>
        <time>2020-08-08T08:58:10.000Z</time>
      </trkpt>
      <trkpt lat="43.68374" lon="3.71767">
        <ele>289.38430153209</ele>
        <time>2020-08-08T08:58:11.000Z</time>
      </trkpt>
      <trkpt lat="43.68376" lon="3.71769">
        <ele>289.28236469965</ele>
        <time>2020-08-08T08:58:12.000Z</time>
      </trkpt>
      <trkpt lat="43.68376" lon="3.71772">
        <ele>289.18042786721</ele>
        <time>2020-08-08T08:58:13.000Z</time>
      </trkpt>
      <trkpt lat="43.68375" lon="3.71775">
        <ele>289.07849103478</ele>
        <time>2020-08-08T08:58:14.000Z</time>
      </trkpt>
      <trkpt lat="43.68374" lon="3.71779">
        <ele>288.87699968</ele>
        <time>2020-08-08T08:58:16.000Z</time>
      </trkpt>
      <trkpt lat="43.68374" lon="3.71782">
        <ele>288.77699968</ele>
        <time>2020-08-08T08:58:17.000Z</time>
      </trkpt>
      <trkpt lat="43.68373" lon="3.71785">
        <ele>288.67699968</ele>
        <time>2020-08-08T08:58:18.000Z</time>
      </trkpt>
      <trkpt lat="43.68372" lon="3.71787">
        <ele>288.57699968</ele>
        <time>2020-08-08T08:58:19.000Z</time>
      </trkpt>
      <trkpt lat="43.6837" lon="3.71789">
        <ele>288.47699968</ele>
        <time>2020-08-08T08:58:20.000Z</time>
      </trkpt>
      <trkpt lat="43.68369" lon="3.71791">
        <ele>288.37699968</ele>
        <time>2020-08-08T08:58:21.000Z</time>
      </trkpt>
      <trkpt lat="43.68367" lon="3.71794">
        <ele>288.27699968</ele>
        <time>2020-08-08T08:58:22.000Z</time>
      </trkpt>
      <trkpt lat="43.68366" lon="3.71796">
        <ele>288.17699968</ele>
        <time>2020-08-08T08:58:23.000Z</time>
      </trkpt>
      <trkpt lat="43.68365" lon="3.71799">
        <ele>287.95399936</ele>
        <time>2020-08-08T08:58:25.000Z</time>
      </trkpt>
      <trkpt lat="43.68366" lon="3.71802">
        <ele>287.55399936</ele>
        <time>2020-08-08T08:58:27.000Z</time>
      </trkpt>
      <trkpt lat="43.68366" lon="3.71804">
        <ele>287.35399936</ele>
        <time>2020-08-08T08:58:28.000Z</time>
      </trkpt>
      <trkpt lat="43.68367" lon="3.71807">
        <ele>287.15399936</ele>
        <time>2020-08-08T08:58:29.000Z</time>
      </trkpt>
      <trkpt lat="43.68368" lon="3.71809">
        <ele>286.95399936</ele>
        <time>2020-08-08T08:58:30.000Z</time>
      </trkpt>
      <trkpt lat="43.68369" lon="3.71813">
        <ele>286.55399936</ele>
        <time>2020-08-08T08:58:32.000Z</time>
      </trkpt>
      <trkpt lat="43.6837" lon="3.71816">
        <ele>286.15399936</ele>
        <time>2020-08-08T08:58:34.000Z</time>
      </trkpt>
      <trkpt lat="43.6837" lon="3.71816">
        <ele>285.99914993197</ele>
        <time>2020-08-08T08:58:38.000Z</time>
      </trkpt>
      <trkpt lat="43.68365" lon="3.71818">
        <ele>284.00085061225</ele>
        <time>2020-08-08T08:59:25.000Z</time>
      </trkpt>
      <trkpt lat="43.68363" lon="3.71819">
        <ele>283.9008182582</ele>
        <time>2020-08-08T08:59:26.000Z</time>
      </trkpt>
      <trkpt lat="43.68361" lon="3.71819">
        <ele>283.79856870254</ele>
        <time>2020-08-08T08:59:27.000Z</time>
      </trkpt>
      <trkpt lat="43.68359" lon="3.7182">
        <ele>283.69631914688</ele>
        <time>2020-08-08T08:59:28.000Z</time>
      </trkpt>
      <trkpt lat="43.68356" lon="3.71821">
        <ele>283.49182003555</ele>
        <time>2020-08-08T08:59:30.000Z</time>
      </trkpt>
      <trkpt lat="43.68353" lon="3.71823">
        <ele>283.28732092422</ele>
        <time>2020-08-08T08:59:32.000Z</time>
      </trkpt>
      <trkpt lat="43.68352" lon="3.71827">
        <ele>283.08282181289</ele>
        <time>2020-08-08T08:59:34.000Z</time>
      </trkpt>
      <trkpt lat="43.68352" lon="3.7183">
        <ele>283</ele>
        <time>2020-08-08T08:59:36.000Z</time>
      </trkpt>
      <trkpt lat="43.68355" lon="3.71833">
        <ele>283</ele>
        <time>2020-08-08T08:59:38.000Z</time>
      </trkpt>
      <trkpt lat="43.68357" lon="3.71835">
        <ele>283</ele>
        <time>2020-08-08T08:59:40.000Z</time>
      </trkpt>
      <trkpt lat="43.68359" lon="3.71836">
        <ele>282.97145637795</ele>
        <time>2020-08-08T08:59:47.000Z</time>
      </trkpt>
      <trkpt lat="43.68379" lon="3.71868">
        <ele>274.01476346457</ele>
        <time>2020-08-08T09:02:49.000Z</time>
      </trkpt>
      <trkpt lat="43.68379" lon="3.71868">
        <ele>273.93951535484</ele>
        <time>2020-08-08T09:02:53.000Z</time>
      </trkpt>
      <trkpt lat="43.6839" lon="3.71873">
        <ele>271.03628954839</ele>
        <time>2020-08-08T09:03:17.000Z</time>
      </trkpt>
      <trkpt lat="43.68391" lon="3.71875">
        <ele>270.82737525561</ele>
        <time>2020-08-08T09:03:19.000Z</time>
      </trkpt>
      <trkpt lat="43.68394" lon="3.71877">
        <ele>270.62308523045</ele>
        <time>2020-08-08T09:03:21.000Z</time>
      </trkpt>
      <trkpt lat="43.68395" lon="3.71878">
        <ele>270.52094021788</ele>
        <time>2020-08-08T09:03:22.000Z</time>
      </trkpt>
      <trkpt lat="43.68397" lon="3.71879">
        <ele>270.4187952053</ele>
        <time>2020-08-08T09:03:23.000Z</time>
      </trkpt>
      <trkpt lat="43.684" lon="3.7188">
        <ele>270.21450518014</ele>
        <time>2020-08-08T09:03:25.000Z</time>
      </trkpt>
      <trkpt lat="43.68402" lon="3.71882">
        <ele>270.01021515499</ele>
        <time>2020-08-08T09:03:27.000Z</time>
      </trkpt>
      <trkpt lat="43.68404" lon="3.71884">
        <ele>269.61885773123</ele>
        <time>2020-08-08T09:03:29.000Z</time>
      </trkpt>
      <trkpt lat="43.68403" lon="3.71889">
        <ele>269.21765399162</ele>
        <time>2020-08-08T09:03:31.000Z</time>
      </trkpt>
      <trkpt lat="43.68402" lon="3.71891">
        <ele>269.01705212182</ele>
        <time>2020-08-08T09:03:32.000Z</time>
      </trkpt>
      <trkpt lat="43.684" lon="3.71893">
        <ele>268.81645025202</ele>
        <time>2020-08-08T09:03:33.000Z</time>
      </trkpt>
      <trkpt lat="43.68399" lon="3.71895">
        <ele>268.61584838222</ele>
        <time>2020-08-08T09:03:34.000Z</time>
      </trkpt>
      <trkpt lat="43.68397" lon="3.71898">
        <ele>268.21464464261</ele>
        <time>2020-08-08T09:03:36.000Z</time>
      </trkpt>
      <trkpt lat="43.68395" lon="3.71901">
        <ele>267.80824795596</ele>
        <time>2020-08-08T09:03:38.000Z</time>
      </trkpt>
      <trkpt lat="43.68393" lon="3.71905">
        <ele>267.39587654986</ele>
        <time>2020-08-08T09:03:40.000Z</time>
      </trkpt>
      <trkpt lat="43.68392" lon="3.71909">
        <ele>266.98350514376</ele>
        <time>2020-08-08T09:03:42.000Z</time>
      </trkpt>
      <trkpt lat="43.68391" lon="3.71913">
        <ele>266.57113373765</ele>
        <time>2020-08-08T09:03:44.000Z</time>
      </trkpt>
      <trkpt lat="43.6839" lon="3.71915">
        <ele>266.3649480346</ele>
        <time>2020-08-08T09:03:45.000Z</time>
      </trkpt>
      <trkpt lat="43.68389" lon="3.71916">
        <ele>264.91678228381</ele>
        <time>2020-08-08T09:03:51.000Z</time>
      </trkpt>
      <trkpt lat="43.68384" lon="3.71923">
        <ele>262.00416221729</ele>
        <time>2020-08-08T09:04:05.000Z</time>
      </trkpt>
      <trkpt lat="43.68383" lon="3.71925">
        <ele>261.58750044444</ele>
        <time>2020-08-08T09:04:08.000Z</time>
      </trkpt>
      <trkpt lat="43.68381" lon="3.71927">
        <ele>261</ele>
        <time>2020-08-08T09:04:13.000Z</time>
      </trkpt>
      <trkpt lat="43.68375" lon="3.71929">
        <ele>260.84050361906</ele>
        <time>2020-08-08T09:04:16.000Z</time>
      </trkpt>
      <trkpt lat="43.68373" lon="3.7193">
        <ele>260.63063995992</ele>
        <time>2020-08-08T09:04:17.000Z</time>
      </trkpt>
      <trkpt lat="43.68372" lon="3.71931">
        <ele>260.42077630079</ele>
        <time>2020-08-08T09:04:18.000Z</time>
      </trkpt>
      <trkpt lat="43.68369" lon="3.71931">
        <ele>260.21091264165</ele>
        <time>2020-08-08T09:04:19.000Z</time>
      </trkpt>
      <trkpt lat="43.68368" lon="3.71933">
        <ele>260.00104898251</ele>
        <time>2020-08-08T09:04:20.000Z</time>
      </trkpt>
      <trkpt lat="43.68367" lon="3.71935">
        <ele>259.79118532338</ele>
        <time>2020-08-08T09:04:21.000Z</time>
      </trkpt>
      <trkpt lat="43.68365" lon="3.71937">
        <ele>259.58132166424</ele>
        <time>2020-08-08T09:04:22.000Z</time>
      </trkpt>
      <trkpt lat="43.68363" lon="3.71939">
        <ele>259.37145800511</ele>
        <time>2020-08-08T09:04:23.000Z</time>
      </trkpt>
      <trkpt lat="43.68362" lon="3.71941">
        <ele>259.16159434597</ele>
        <time>2020-08-08T09:04:24.000Z</time>
      </trkpt>
      <trkpt lat="43.6836" lon="3.71943">
        <ele>258.93287844358</ele>
        <time>2020-08-08T09:04:25.000Z</time>
      </trkpt>
      <trkpt lat="43.68358" lon="3.71946">
        <ele>258.6410496498</ele>
        <time>2020-08-08T09:04:26.000Z</time>
      </trkpt>
      <trkpt lat="43.68355" lon="3.71949">
        <ele>258.34922085603</ele>
        <time>2020-08-08T09:04:27.000Z</time>
      </trkpt>
      <trkpt lat="43.68353" lon="3.71951">
        <ele>258.05739206226</ele>
        <time>2020-08-08T09:04:28.000Z</time>
      </trkpt>
      <trkpt lat="43.68352" lon="3.71954">
        <ele>257.47373447471</ele>
        <time>2020-08-08T09:04:30.000Z</time>
      </trkpt>
      <trkpt lat="43.68353" lon="3.71957">
        <ele>256.89007688716</ele>
        <time>2020-08-08T09:04:32.000Z</time>
      </trkpt>
      <trkpt lat="43.68355" lon="3.71958">
        <ele>256.30641929961</ele>
        <time>2020-08-08T09:04:34.000Z</time>
      </trkpt>
      <trkpt lat="43.68358" lon="3.71959">
        <ele>255.80452609054</ele>
        <time>2020-08-08T09:04:36.000Z</time>
      </trkpt>
      <trkpt lat="43.6836" lon="3.71959">
        <ele>255.59876477366</ele>
        <time>2020-08-08T09:04:37.000Z</time>
      </trkpt>
      <trkpt lat="43.68362" lon="3.71959">
        <ele>255.39300345679</ele>
        <time>2020-08-08T09:04:38.000Z</time>
      </trkpt>
      <trkpt lat="43.68364" lon="3.71959">
        <ele>255.18724213992</ele>
        <time>2020-08-08T09:04:39.000Z</time>
      </trkpt>
      <trkpt lat="43.68366" lon="3.71959">
        <ele>254.98148082304</ele>
        <time>2020-08-08T09:04:40.000Z</time>
      </trkpt>
      <trkpt lat="43.68368" lon="3.71958">
        <ele>254.77571950617</ele>
        <time>2020-08-08T09:04:41.000Z</time>
      </trkpt>
      <trkpt lat="43.6837" lon="3.71958">
        <ele>254.5699581893</ele>
        <time>2020-08-08T09:04:42.000Z</time>
      </trkpt>
      <trkpt lat="43.68372" lon="3.71958">
        <ele>254.36419687243</ele>
        <time>2020-08-08T09:04:43.000Z</time>
      </trkpt>
      <trkpt lat="43.68375" lon="3.71959">
        <ele>254.15843555556</ele>
        <time>2020-08-08T09:04:44.000Z</time>
      </trkpt>
      <trkpt lat="43.68377" lon="3.71959">
        <ele>253.95399936</ele>
        <time>2020-08-08T09:04:45.000Z</time>
      </trkpt>
      <trkpt lat="43.68379" lon="3.71961">
        <ele>253.75399936</ele>
        <time>2020-08-08T09:04:46.000Z</time>
      </trkpt>
      <trkpt lat="43.68381" lon="3.71962">
        <ele>253.55399936</ele>
        <time>2020-08-08T09:04:47.000Z</time>
      </trkpt>
      <trkpt lat="43.68384" lon="3.71964">
        <ele>253.35399936</ele>
        <time>2020-08-08T09:04:48.000Z</time>
      </trkpt>
      <trkpt lat="43.68387" lon="3.71965">
        <ele>253.15399936</ele>
        <time>2020-08-08T09:04:49.000Z</time>
      </trkpt>
      <trkpt lat="43.6839" lon="3.71966">
        <ele>252.95399936</ele>
        <time>2020-08-08T09:04:50.000Z</time>
      </trkpt>
      <trkpt lat="43.68394" lon="3.71966">
        <ele>252.75399936</ele>
        <time>2020-08-08T09:04:51.000Z</time>
      </trkpt>
      <trkpt lat="43.68397" lon="3.71967">
        <ele>252.55399936</ele>
        <time>2020-08-08T09:04:52.000Z</time>
      </trkpt>
      <trkpt lat="43.68401" lon="3.71968">
        <ele>252.35399936</ele>
        <time>2020-08-08T09:04:53.000Z</time>
      </trkpt>
      <trkpt lat="43.68404" lon="3.71968">
        <ele>252.15399936</ele>
        <time>2020-08-08T09:04:54.000Z</time>
      </trkpt>
      <trkpt lat="43.68408" lon="3.71969">
        <ele>251.95399936</ele>
        <time>2020-08-08T09:04:55.000Z</time>
      </trkpt>
      <trkpt lat="43.68412" lon="3.7197">
        <ele>251.75399936</ele>
        <time>2020-08-08T09:04:56.000Z</time>
      </trkpt>
      <trkpt lat="43.68416" lon="3.71971">
        <ele>251.55399936</ele>
        <time>2020-08-08T09:04:57.000Z</time>
      </trkpt>
      <trkpt lat="43.68419" lon="3.71971">
        <ele>251.35399936</ele>
        <time>2020-08-08T09:04:58.000Z</time>
      </trkpt>
      <trkpt lat="43.68422" lon="3.71971">
        <ele>251.15399936</ele>
        <time>2020-08-08T09:04:59.000Z</time>
      </trkpt>
      <trkpt lat="43.68425" lon="3.71971">
        <ele>250.95399936</ele>
        <time>2020-08-08T09:05:00.000Z</time>
      </trkpt>
      <trkpt lat="43.68427" lon="3.71971">
        <ele>250.75399936</ele>
        <time>2020-08-08T09:05:01.000Z</time>
      </trkpt>
      <trkpt lat="43.6843" lon="3.71971">
        <ele>250.55399936</ele>
        <time>2020-08-08T09:05:02.000Z</time>
      </trkpt>
      <trkpt lat="43.68432" lon="3.71971">
        <ele>250.35399936</ele>
        <time>2020-08-08T09:05:03.000Z</time>
      </trkpt>
      <trkpt lat="43.68434" lon="3.71971">
        <ele>250.15399936</ele>
        <time>2020-08-08T09:05:04.000Z</time>
      </trkpt>
      <trkpt lat="43.68436" lon="3.71971">
        <ele>249.97699968</ele>
        <time>2020-08-08T09:05:05.000Z</time>
      </trkpt>
      <trkpt lat="43.6844" lon="3.71972">
        <ele>249.77699968</ele>
        <time>2020-08-08T09:05:07.000Z</time>
      </trkpt>
      <trkpt lat="43.68442" lon="3.71971">
        <ele>249.67699968</ele>
        <time>2020-08-08T09:05:08.000Z</time>
      </trkpt>
      <trkpt lat="43.68444" lon="3.71971">
        <ele>249.57699968</ele>
        <time>2020-08-08T09:05:09.000Z</time>
      </trkpt>
      <trkpt lat="43.68447" lon="3.71971">
        <ele>249.47699968</ele>
        <time>2020-08-08T09:05:10.000Z</time>
      </trkpt>
      <trkpt lat="43.68449" lon="3.71972">
        <ele>249.37699968</ele>
        <time>2020-08-08T09:05:11.000Z</time>
      </trkpt>
      <trkpt lat="43.68451" lon="3.71972">
        <ele>249.27699968</ele>
        <time>2020-08-08T09:05:12.000Z</time>
      </trkpt>
      <trkpt lat="43.68454" lon="3.71973">
        <ele>249.17699968</ele>
        <time>2020-08-08T09:05:13.000Z</time>
      </trkpt>
      <trkpt lat="43.68456" lon="3.71973">
        <ele>249.07699968</ele>
        <time>2020-08-08T09:05:14.000Z</time>
      </trkpt>
      <trkpt lat="43.68459" lon="3.71973">
        <ele>248.95409120697</ele>
        <time>2020-08-08T09:05:15.000Z</time>
      </trkpt>
      <trkpt lat="43.68461" lon="3.71973">
        <ele>248.75449053605</ele>
        <time>2020-08-08T09:05:16.000Z</time>
      </trkpt>
      <trkpt lat="43.68464" lon="3.71974">
        <ele>247.55688651057</ele>
        <time>2020-08-08T09:05:22.000Z</time>
      </trkpt>
      <trkpt lat="43.68465" lon="3.71972">
        <ele>245.86062184871</ele>
        <time>2020-08-08T09:05:29.000Z</time>
      </trkpt>
      <trkpt lat="43.68466" lon="3.71973">
        <ele>244.97798164879</ele>
        <time>2020-08-08T09:05:33.000Z</time>
      </trkpt>
      <trkpt lat="43.6847" lon="3.71976">
        <ele>239.03302682223</ele>
        <time>2020-08-08T09:06:27.000Z</time>
      </trkpt>
      <trkpt lat="43.68471" lon="3.71977">
        <ele>238.89639677732</ele>
        <time>2020-08-08T09:06:28.000Z</time>
      </trkpt>
      <trkpt lat="43.6847" lon="3.71979">
        <ele>238</ele>
        <time>2020-08-08T09:06:34.000Z</time>
      </trkpt>
      <trkpt lat="43.68471" lon="3.71984">
        <ele>237.04285630694</ele>
        <time>2020-08-08T09:06:41.000Z</time>
      </trkpt>
      <trkpt lat="43.68471" lon="3.71986">
        <ele>236.85412319941</ele>
        <time>2020-08-08T09:06:42.000Z</time>
      </trkpt>
      <trkpt lat="43.68471" lon="3.7199">
        <ele>236.43128993237</ele>
        <time>2020-08-08T09:06:44.000Z</time>
      </trkpt>
      <trkpt lat="43.68473" lon="3.71993">
        <ele>235.79704003182</ele>
        <time>2020-08-08T09:06:47.000Z</time>
      </trkpt>
      <trkpt lat="43.68474" lon="3.71997">
        <ele>235.37420676479</ele>
        <time>2020-08-08T09:06:49.000Z</time>
      </trkpt>
      <trkpt lat="43.68474" lon="3.72001">
        <ele>234.86756078146</ele>
        <time>2020-08-08T09:06:51.000Z</time>
      </trkpt>
      <trkpt lat="43.68474" lon="3.72">
        <ele>232</ele>
        <time>2020-08-08T09:06:56.000Z</time>
      </trkpt>
      <trkpt lat="43.68482" lon="3.71996">
        <ele>226.00522360168</ele>
        <time>2020-08-08T09:07:19.000Z</time>
      </trkpt>
      <trkpt lat="43.68482" lon="3.71997">
        <ele>225.95402295468</ele>
        <time>2020-08-08T09:07:25.000Z</time>
      </trkpt>
      <trkpt lat="43.68485" lon="3.72">
        <ele>225.03448204835</ele>
        <time>2020-08-08T09:07:33.000Z</time>
      </trkpt>
      <trkpt lat="43.68487" lon="3.72002">
        <ele>223.86257986475</ele>
        <time>2020-08-08T09:07:36.000Z</time>
      </trkpt>
      <trkpt lat="43.68489" lon="3.72004">
        <ele>223.01691333068</ele>
        <time>2020-08-08T09:07:38.000Z</time>
      </trkpt>
      <trkpt lat="43.68491" lon="3.72005">
        <ele>222.17124679662</ele>
        <time>2020-08-08T09:07:40.000Z</time>
      </trkpt>
      <trkpt lat="43.68492" lon="3.72008">
        <ele>221.32558026255</ele>
        <time>2020-08-08T09:07:42.000Z</time>
      </trkpt>
      <trkpt lat="43.68493" lon="3.72011">
        <ele>220.86688277056</ele>
        <time>2020-08-08T09:07:44.000Z</time>
      </trkpt>
      <trkpt lat="43.68495" lon="3.72013">
        <ele>220.65043255411</ele>
        <time>2020-08-08T09:07:46.000Z</time>
      </trkpt>
      <trkpt lat="43.68497" lon="3.72014">
        <ele>220.32575722944</ele>
        <time>2020-08-08T09:07:49.000Z</time>
      </trkpt>
      <trkpt lat="43.68497" lon="3.72013">
        <ele>220.00108190476</ele>
        <time>2020-08-08T09:07:52.000Z</time>
      </trkpt>
      <trkpt lat="43.68497" lon="3.72009">
        <ele>217.09698068965</ele>
        <time>2020-08-08T09:08:01.000Z</time>
      </trkpt>
      <trkpt lat="43.68498" lon="3.72007">
        <ele>215.82980994829</ele>
        <time>2020-08-08T09:08:05.000Z</time>
      </trkpt>
      <trkpt lat="43.68501" lon="3.72006">
        <ele>214.56131014719</ele>
        <time>2020-08-08T09:08:09.000Z</time>
      </trkpt>
      <trkpt lat="43.68502" lon="3.72005">
        <ele>214</ele>
        <time>2020-08-08T09:08:13.000Z</time>
      </trkpt>
      <trkpt lat="43.68503" lon="3.72004">
        <ele>214</ele>
        <time>2020-08-08T09:08:17.000Z</time>
      </trkpt>
      <trkpt lat="43.68509" lon="3.72006">
        <ele>214</ele>
        <time>2020-08-08T09:08:21.000Z</time>
      </trkpt>
      <trkpt lat="43.68511" lon="3.72008">
        <ele>214</ele>
        <time>2020-08-08T09:08:22.000Z</time>
      </trkpt>
      <trkpt lat="43.68512" lon="3.7201">
        <ele>214</ele>
        <time>2020-08-08T09:08:23.000Z</time>
      </trkpt>
      <trkpt lat="43.68512" lon="3.72014">
        <ele>214</ele>
        <time>2020-08-08T09:08:25.000Z</time>
      </trkpt>
      <trkpt lat="43.68512" lon="3.72018">
        <ele>213.72262708935</ele>
        <time>2020-08-08T09:08:33.000Z</time>
      </trkpt>
      <trkpt lat="43.68511" lon="3.72022">
        <ele>213</ele>
        <time>2020-08-08T09:08:35.000Z</time>
      </trkpt>
      <trkpt lat="43.68511" lon="3.72025">
        <ele>213</ele>
        <time>2020-08-08T09:08:37.000Z</time>
      </trkpt>
      <trkpt lat="43.68511" lon="3.72028">
        <ele>213</ele>
        <time>2020-08-08T09:08:39.000Z</time>
      </trkpt>
      <trkpt lat="43.68513" lon="3.7203">
        <ele>213</ele>
        <time>2020-08-08T09:08:44.000Z</time>
      </trkpt>
      <trkpt lat="43.68513" lon="3.72034">
        <ele>213</ele>
        <time>2020-08-08T09:08:47.000Z</time>
      </trkpt>
      <trkpt lat="43.68513" lon="3.72034">
        <ele>213</ele>
        <time>2020-08-08T09:08:52.000Z</time>
      </trkpt>
      <trkpt lat="43.68514" lon="3.7204">
        <ele>212.0599988736</ele>
        <time>2020-08-08T09:08:57.000Z</time>
      </trkpt>
      <trkpt lat="43.68515" lon="3.72043">
        <ele>211.89941728226</ele>
        <time>2020-08-08T09:08:58.000Z</time>
      </trkpt>
      <trkpt lat="43.68514" lon="3.72045">
        <ele>211.60787182076</ele>
        <time>2020-08-08T09:09:00.000Z</time>
      </trkpt>
      <trkpt lat="43.68513" lon="3.72046">
        <ele>211.02478089775</ele>
        <time>2020-08-08T09:09:04.000Z</time>
      </trkpt>
      <trkpt lat="43.68511" lon="3.72056">
        <ele>210.01442276923</ele>
        <time>2020-08-08T09:09:25.000Z</time>
      </trkpt>
      <trkpt lat="43.68511" lon="3.72059">
        <ele>209.64308421775</ele>
        <time>2020-08-08T09:09:27.000Z</time>
      </trkpt>
      <trkpt lat="43.68512" lon="3.72062">
        <ele>209.22069787685</ele>
        <time>2020-08-08T09:09:29.000Z</time>
      </trkpt>
      <trkpt lat="43.68512" lon="3.72066">
        <ele>208.79831153595</ele>
        <time>2020-08-08T09:09:31.000Z</time>
      </trkpt>
      <trkpt lat="43.68512" lon="3.72069">
        <ele>208.37592519504</ele>
        <time>2020-08-08T09:09:33.000Z</time>
      </trkpt>
      <trkpt lat="43.68512" lon="3.72073">
        <ele>207.93573696038</ele>
        <time>2020-08-08T09:09:35.000Z</time>
      </trkpt>
      <trkpt lat="43.68512" lon="3.72076">
        <ele>207.05939729019</ele>
        <time>2020-08-08T09:09:38.000Z</time>
      </trkpt>
      <trkpt lat="43.68513" lon="3.7208">
        <ele>206.47517084339</ele>
        <time>2020-08-08T09:09:40.000Z</time>
      </trkpt>
      <trkpt lat="43.68514" lon="3.72085">
        <ele>205.8909443966</ele>
        <time>2020-08-08T09:09:42.000Z</time>
      </trkpt>
      <trkpt lat="43.68515" lon="3.72087">
        <ele>205.5988311732</ele>
        <time>2020-08-08T09:09:43.000Z</time>
      </trkpt>
      <trkpt lat="43.68515" lon="3.7209">
        <ele>205.30671794981</ele>
        <time>2020-08-08T09:09:44.000Z</time>
      </trkpt>
      <trkpt lat="43.68515" lon="3.72094">
        <ele>205</ele>
        <time>2020-08-08T09:09:46.000Z</time>
      </trkpt>
      <trkpt lat="43.68516" lon="3.72094">
        <ele>205</ele>
        <time>2020-08-08T09:09:50.000Z</time>
      </trkpt>
      <trkpt lat="43.68517" lon="3.72103">
        <ele>202.87226969432</ele>
        <time>2020-08-08T09:09:56.000Z</time>
      </trkpt>
      <trkpt lat="43.68517" lon="3.72108">
        <ele>202.21724786026</ele>
        <time>2020-08-08T09:09:58.000Z</time>
      </trkpt>
      <trkpt lat="43.68519" lon="3.72112">
        <ele>201.5622260262</ele>
        <time>2020-08-08T09:10:00.000Z</time>
      </trkpt>
      <trkpt lat="43.6852" lon="3.72115">
        <ele>201.23471510917</ele>
        <time>2020-08-08T09:10:01.000Z</time>
      </trkpt>
      <trkpt lat="43.6852" lon="3.72118">
        <ele>200.90720419214</ele>
        <time>2020-08-08T09:10:02.000Z</time>
      </trkpt>
      <trkpt lat="43.6852" lon="3.72121">
        <ele>200.57969327511</ele>
        <time>2020-08-08T09:10:03.000Z</time>
      </trkpt>
      <trkpt lat="43.68521" lon="3.72123">
        <ele>200.25218235808</ele>
        <time>2020-08-08T09:10:04.000Z</time>
      </trkpt>
      <trkpt lat="43.68521" lon="3.72126">
        <ele>199.93294365262</ele>
        <time>2020-08-08T09:10:05.000Z</time>
      </trkpt>
      <trkpt lat="43.68521" lon="3.7213">
        <ele>199.64139837245</ele>
        <time>2020-08-08T09:10:06.000Z</time>
      </trkpt>
      <trkpt lat="43.68521" lon="3.72133">
        <ele>199.34985309228</ele>
        <time>2020-08-08T09:10:07.000Z</time>
      </trkpt>
      <trkpt lat="43.68521" lon="3.72137">
        <ele>199.05830781211</ele>
        <time>2020-08-08T09:10:08.000Z</time>
      </trkpt>
      <trkpt lat="43.68521" lon="3.7214">
        <ele>198.76676253194</ele>
        <time>2020-08-08T09:10:09.000Z</time>
      </trkpt>
      <trkpt lat="43.6852" lon="3.72144">
        <ele>198.47521725177</ele>
        <time>2020-08-08T09:10:10.000Z</time>
      </trkpt>
      <trkpt lat="43.6852" lon="3.72147">
        <ele>198.1836719716</ele>
        <time>2020-08-08T09:10:11.000Z</time>
      </trkpt>
      <trkpt lat="43.68519" lon="3.7215">
        <ele>197.89212669143</ele>
        <time>2020-08-08T09:10:12.000Z</time>
      </trkpt>
      <trkpt lat="43.68518" lon="3.72154">
        <ele>197.60058141126</ele>
        <time>2020-08-08T09:10:13.000Z</time>
      </trkpt>
      <trkpt lat="43.68517" lon="3.72158">
        <ele>197.30903613109</ele>
        <time>2020-08-08T09:10:14.000Z</time>
      </trkpt>
      <trkpt lat="43.68514" lon="3.72163">
        <ele>197.01749085092</ele>
        <time>2020-08-08T09:10:15.000Z</time>
      </trkpt>
      <trkpt lat="43.6851" lon="3.72166">
        <ele>196.61276783101</ele>
        <time>2020-08-08T09:10:16.000Z</time>
      </trkpt>
      <trkpt lat="43.68506" lon="3.72167">
        <ele>196.20082151981</ele>
        <time>2020-08-08T09:10:17.000Z</time>
      </trkpt>
      <trkpt lat="43.68503" lon="3.72168">
        <ele>195.78887520861</ele>
        <time>2020-08-08T09:10:18.000Z</time>
      </trkpt>
      <trkpt lat="43.68501" lon="3.72169">
        <ele>195.37692889741</ele>
        <time>2020-08-08T09:10:19.000Z</time>
      </trkpt>
      <trkpt lat="43.68498" lon="3.72169">
        <ele>194.96498258621</ele>
        <time>2020-08-08T09:10:20.000Z</time>
      </trkpt>
      <trkpt lat="43.68496" lon="3.7217">
        <ele>194.553036275</ele>
        <time>2020-08-08T09:10:21.000Z</time>
      </trkpt>
      <trkpt lat="43.68494" lon="3.7217">
        <ele>194.1410899638</ele>
        <time>2020-08-08T09:10:22.000Z</time>
      </trkpt>
      <trkpt lat="43.68492" lon="3.72171">
        <ele>193.7291436526</ele>
        <time>2020-08-08T09:10:23.000Z</time>
      </trkpt>
      <trkpt lat="43.6849" lon="3.72171">
        <ele>193.3171973414</ele>
        <time>2020-08-08T09:10:24.000Z</time>
      </trkpt>
      <trkpt lat="43.68488" lon="3.72172">
        <ele>192.90688125533</ele>
        <time>2020-08-08T09:10:25.000Z</time>
      </trkpt>
      <trkpt lat="43.68485" lon="3.72173">
        <ele>192.09716430647</ele>
        <time>2020-08-08T09:10:27.000Z</time>
      </trkpt>
      <trkpt lat="43.68486" lon="3.72172">
        <ele>190.0728719343</ele>
        <time>2020-08-08T09:10:32.000Z</time>
      </trkpt>
      <trkpt lat="43.68483" lon="3.72174">
        <ele>185.09959951112</ele>
        <time>2020-08-08T09:10:47.000Z</time>
      </trkpt>
      <trkpt lat="43.68482" lon="3.72174">
        <ele>184.78856080456</ele>
        <time>2020-08-08T09:10:48.000Z</time>
      </trkpt>
      <trkpt lat="43.68479" lon="3.72174">
        <ele>184.17569072909</ele>
        <time>2020-08-08T09:10:50.000Z</time>
      </trkpt>
      <trkpt lat="43.68476" lon="3.72175">
        <ele>183.56282065362</ele>
        <time>2020-08-08T09:10:52.000Z</time>
      </trkpt>
      <trkpt lat="43.68473" lon="3.72178">
        <ele>182.94995057816</ele>
        <time>2020-08-08T09:10:54.000Z</time>
      </trkpt>
      <trkpt lat="43.68472" lon="3.7218">
        <ele>182.64351554042</ele>
        <time>2020-08-08T09:10:55.000Z</time>
      </trkpt>
      <trkpt lat="43.68471" lon="3.72183">
        <ele>182.33708050269</ele>
        <time>2020-08-08T09:10:56.000Z</time>
      </trkpt>
      <trkpt lat="43.6847" lon="3.72185">
        <ele>182.03064546496</ele>
        <time>2020-08-08T09:10:57.000Z</time>
      </trkpt>
      <trkpt lat="43.68468" lon="3.72187">
        <ele>181.73054066621</ele>
        <time>2020-08-08T09:10:58.000Z</time>
      </trkpt>
      <trkpt lat="43.68467" lon="3.72189">
        <ele>181.43113927737</ele>
        <time>2020-08-08T09:10:59.000Z</time>
      </trkpt>
      <trkpt lat="43.68465" lon="3.7219">
        <ele>181.13173788854</ele>
        <time>2020-08-08T09:11:00.000Z</time>
      </trkpt>
      <trkpt lat="43.68462" lon="3.72191">
        <ele>180.8323364997</ele>
        <time>2020-08-08T09:11:01.000Z</time>
      </trkpt>
      <trkpt lat="43.6846" lon="3.72192">
        <ele>180.53293511086</ele>
        <time>2020-08-08T09:11:02.000Z</time>
      </trkpt>
      <trkpt lat="43.68457" lon="3.72194">
        <ele>180.23353372202</ele>
        <time>2020-08-08T09:11:03.000Z</time>
      </trkpt>
      <trkpt lat="43.68454" lon="3.72197">
        <ele>179.93413233318</ele>
        <time>2020-08-08T09:11:04.000Z</time>
      </trkpt>
      <trkpt lat="43.6845" lon="3.72201">
        <ele>179.63473094434</ele>
        <time>2020-08-08T09:11:05.000Z</time>
      </trkpt>
      <trkpt lat="43.68447" lon="3.72204">
        <ele>179.3353295555</ele>
        <time>2020-08-08T09:11:06.000Z</time>
      </trkpt>
      <trkpt lat="43.68445" lon="3.72205">
        <ele>179.03592816666</ele>
        <time>2020-08-08T09:11:07.000Z</time>
      </trkpt>
      <trkpt lat="43.68443" lon="3.72203">
        <ele>178.63748724614</ele>
        <time>2020-08-08T09:11:08.000Z</time>
      </trkpt>
      <trkpt lat="43.68441" lon="3.72201">
        <ele>178.22554093494</ele>
        <time>2020-08-08T09:11:09.000Z</time>
      </trkpt>
      <trkpt lat="43.68437" lon="3.722">
        <ele>177.81359462374</ele>
        <time>2020-08-08T09:11:10.000Z</time>
      </trkpt>
      <trkpt lat="43.68433" lon="3.72198">
        <ele>177.40164831254</ele>
        <time>2020-08-08T09:11:11.000Z</time>
      </trkpt>
      <trkpt lat="43.68429" lon="3.72197">
        <ele>176.98970200133</ele>
        <time>2020-08-08T09:11:12.000Z</time>
      </trkpt>
      <trkpt lat="43.68426" lon="3.722">
        <ele>176.57775569013</ele>
        <time>2020-08-08T09:11:13.000Z</time>
      </trkpt>
      <trkpt lat="43.68422" lon="3.72203">
        <ele>176.16580937893</ele>
        <time>2020-08-08T09:11:14.000Z</time>
      </trkpt>
      <trkpt lat="43.68417" lon="3.72206">
        <ele>175.75386306773</ele>
        <time>2020-08-08T09:11:15.000Z</time>
      </trkpt>
      <trkpt lat="43.68413" lon="3.72208">
        <ele>175.34191675653</ele>
        <time>2020-08-08T09:11:16.000Z</time>
      </trkpt>
      <trkpt lat="43.68409" lon="3.7221">
        <ele>174.98289769523</ele>
        <time>2020-08-08T09:11:17.000Z</time>
      </trkpt>
      <trkpt lat="43.68405" lon="3.72212">
        <ele>174.88229400872</ele>
        <time>2020-08-08T09:11:18.000Z</time>
      </trkpt>
      <trkpt lat="43.68402" lon="3.72213">
        <ele>174.78169032222</ele>
        <time>2020-08-08T09:11:19.000Z</time>
      </trkpt>
      <trkpt lat="43.68392" lon="3.72217">
        <ele>174.4798792627</ele>
        <time>2020-08-08T09:11:22.000Z</time>
      </trkpt>
      <trkpt lat="43.68381" lon="3.72221">
        <ele>174.17806820318</ele>
        <time>2020-08-08T09:11:25.000Z</time>
      </trkpt>
      <trkpt lat="43.68373" lon="3.72226">
        <ele>173.63320007431</ele>
        <time>2020-08-08T09:11:28.000Z</time>
      </trkpt>
      <trkpt lat="43.68361" lon="3.72231">
        <ele>172.7385684367</ele>
        <time>2020-08-08T09:11:31.000Z</time>
      </trkpt>
      <trkpt lat="43.68356" lon="3.72233">
        <ele>172.44035789083</ele>
        <time>2020-08-08T09:11:32.000Z</time>
      </trkpt>
      <trkpt lat="43.68352" lon="3.72236">
        <ele>172.14214734496</ele>
        <time>2020-08-08T09:11:33.000Z</time>
      </trkpt>
      <trkpt lat="43.68347" lon="3.72238">
        <ele>171.84393679909</ele>
        <time>2020-08-08T09:11:34.000Z</time>
      </trkpt>
      <trkpt lat="43.68343" lon="3.72241">
        <ele>171.54572625322</ele>
        <time>2020-08-08T09:11:35.000Z</time>
      </trkpt>
      <trkpt lat="43.68339" lon="3.72243">
        <ele>171.24751570735</ele>
        <time>2020-08-08T09:11:36.000Z</time>
      </trkpt>
      <trkpt lat="43.68335" lon="3.72245">
        <ele>170.94869308568</ele>
        <time>2020-08-08T09:11:37.000Z</time>
      </trkpt>
      <trkpt lat="43.68332" lon="3.72246">
        <ele>170.64688202616</ele>
        <time>2020-08-08T09:11:38.000Z</time>
      </trkpt>
      <trkpt lat="43.68329" lon="3.72247">
        <ele>170.34507096665</ele>
        <time>2020-08-08T09:11:39.000Z</time>
      </trkpt>
      <trkpt lat="43.68325" lon="3.72249">
        <ele>170.04325990713</ele>
        <time>2020-08-08T09:11:40.000Z</time>
      </trkpt>
      <trkpt lat="43.68322" lon="3.72251">
        <ele>169.74144884761</ele>
        <time>2020-08-08T09:11:41.000Z</time>
      </trkpt>
      <trkpt lat="43.68318" lon="3.72253">
        <ele>169.4396377881</ele>
        <time>2020-08-08T09:11:42.000Z</time>
      </trkpt>
      <trkpt lat="43.68315" lon="3.72255">
        <ele>169.13782672858</ele>
        <time>2020-08-08T09:11:43.000Z</time>
      </trkpt>
      <trkpt lat="43.68311" lon="3.72257">
        <ele>168.83601566906</ele>
        <time>2020-08-08T09:11:44.000Z</time>
      </trkpt>
      <trkpt lat="43.68307" lon="3.72259">
        <ele>168.53420460955</ele>
        <time>2020-08-08T09:11:45.000Z</time>
      </trkpt>
      <trkpt lat="43.68303" lon="3.72262">
        <ele>168.23239355003</ele>
        <time>2020-08-08T09:11:46.000Z</time>
      </trkpt>
      <trkpt lat="43.68298" lon="3.72265">
        <ele>167.90908964427</ele>
        <time>2020-08-08T09:11:47.000Z</time>
      </trkpt>
      <trkpt lat="43.68294" lon="3.72269">
        <ele>167.51383272727</ele>
        <time>2020-08-08T09:11:48.000Z</time>
      </trkpt>
      <trkpt lat="43.68289" lon="3.72272">
        <ele>167.11857581028</ele>
        <time>2020-08-08T09:11:49.000Z</time>
      </trkpt>
      <trkpt lat="43.68284" lon="3.72274">
        <ele>166.72331889328</ele>
        <time>2020-08-08T09:11:50.000Z</time>
      </trkpt>
      <trkpt lat="43.68281" lon="3.72276">
        <ele>166.32806197628</ele>
        <time>2020-08-08T09:11:51.000Z</time>
      </trkpt>
      <trkpt lat="43.68277" lon="3.72279">
        <ele>165.93280505929</ele>
        <time>2020-08-08T09:11:52.000Z</time>
      </trkpt>
      <trkpt lat="43.68274" lon="3.72283">
        <ele>165.53754814229</ele>
        <time>2020-08-08T09:11:53.000Z</time>
      </trkpt>
      <trkpt lat="43.6827" lon="3.72286">
        <ele>165.1422912253</ele>
        <time>2020-08-08T09:11:54.000Z</time>
      </trkpt>
      <trkpt lat="43.68266" lon="3.72289">
        <ele>164.7470343083</ele>
        <time>2020-08-08T09:11:55.000Z</time>
      </trkpt>
      <trkpt lat="43.68262" lon="3.72293">
        <ele>164.3517773913</ele>
        <time>2020-08-08T09:11:56.000Z</time>
      </trkpt>
      <trkpt lat="43.68258" lon="3.72295">
        <ele>163.96659821862</ele>
        <time>2020-08-08T09:11:57.000Z</time>
      </trkpt>
      <trkpt lat="43.68255" lon="3.72298">
        <ele>163.66295449393</ele>
        <time>2020-08-08T09:11:58.000Z</time>
      </trkpt>
      <trkpt lat="43.68252" lon="3.72301">
        <ele>163.35931076923</ele>
        <time>2020-08-08T09:11:59.000Z</time>
      </trkpt>
      <trkpt lat="43.6825" lon="3.72305">
        <ele>163.05566704453</ele>
        <time>2020-08-08T09:12:00.000Z</time>
      </trkpt>
      <trkpt lat="43.68248" lon="3.72309">
        <ele>162.75202331984</ele>
        <time>2020-08-08T09:12:01.000Z</time>
      </trkpt>
      <trkpt lat="43.68246" lon="3.72313">
        <ele>162.44837959514</ele>
        <time>2020-08-08T09:12:02.000Z</time>
      </trkpt>
      <trkpt lat="43.68244" lon="3.72316">
        <ele>162.14473587045</ele>
        <time>2020-08-08T09:12:03.000Z</time>
      </trkpt>
      <trkpt lat="43.68242" lon="3.7232">
        <ele>161.84109214575</ele>
        <time>2020-08-08T09:12:04.000Z</time>
      </trkpt>
      <trkpt lat="43.68241" lon="3.72323">
        <ele>161.53744842105</ele>
        <time>2020-08-08T09:12:05.000Z</time>
      </trkpt>
      <trkpt lat="43.6824" lon="3.72328">
        <ele>161.23380469636</ele>
        <time>2020-08-08T09:12:06.000Z</time>
      </trkpt>
      <trkpt lat="43.68239" lon="3.72332">
        <ele>160.90799872</ele>
        <time>2020-08-08T09:12:07.000Z</time>
      </trkpt>
      <trkpt lat="43.68237" lon="3.72337">
        <ele>160.50799872</ele>
        <time>2020-08-08T09:12:08.000Z</time>
      </trkpt>
      <trkpt lat="43.68235" lon="3.72342">
        <ele>160.10799872</ele>
        <time>2020-08-08T09:12:09.000Z</time>
      </trkpt>
      <trkpt lat="43.68233" lon="3.72346">
        <ele>159.70799872</ele>
        <time>2020-08-08T09:12:10.000Z</time>
      </trkpt>
      <trkpt lat="43.68231" lon="3.72351">
        <ele>159.30799872</ele>
        <time>2020-08-08T09:12:11.000Z</time>
      </trkpt>
      <trkpt lat="43.68229" lon="3.72355">
        <ele>158.90799872</ele>
        <time>2020-08-08T09:12:12.000Z</time>
      </trkpt>
      <trkpt lat="43.68227" lon="3.72358">
        <ele>158.50799872</ele>
        <time>2020-08-08T09:12:13.000Z</time>
      </trkpt>
      <trkpt lat="43.68225" lon="3.72362">
        <ele>158.10799872</ele>
        <time>2020-08-08T09:12:14.000Z</time>
      </trkpt>
      <trkpt lat="43.68224" lon="3.72365">
        <ele>157.70799872</ele>
        <time>2020-08-08T09:12:15.000Z</time>
      </trkpt>
      <trkpt lat="43.68222" lon="3.72368">
        <ele>157.30799872</ele>
        <time>2020-08-08T09:12:16.000Z</time>
      </trkpt>
      <trkpt lat="43.68221" lon="3.7237">
        <ele>156.63173580408</ele>
        <time>2020-08-08T09:12:18.000Z</time>
      </trkpt>
      <trkpt lat="43.68218" lon="3.72371">
        <ele>155.73353278497</ele>
        <time>2020-08-08T09:12:21.000Z</time>
      </trkpt>
      <trkpt lat="43.68215" lon="3.72371">
        <ele>155.13473077223</ele>
        <time>2020-08-08T09:12:23.000Z</time>
      </trkpt>
      <trkpt lat="43.68214" lon="3.72373">
        <ele>154.23652775312</ele>
        <time>2020-08-08T09:12:26.000Z</time>
      </trkpt>
      <trkpt lat="43.68212" lon="3.72377">
        <ele>153.75751551584</ele>
        <time>2020-08-08T09:12:28.000Z</time>
      </trkpt>
      <trkpt lat="43.68211" lon="3.72379">
        <ele>153.55711458573</ele>
        <time>2020-08-08T09:12:29.000Z</time>
      </trkpt>
      <trkpt lat="43.6821" lon="3.72383">
        <ele>153.15631272549</ele>
        <time>2020-08-08T09:12:31.000Z</time>
      </trkpt>
      <trkpt lat="43.68209" lon="3.72385">
        <ele>152.95591179537</ele>
        <time>2020-08-08T09:12:32.000Z</time>
      </trkpt>
      <trkpt lat="43.68208" lon="3.72388">
        <ele>152.75551086526</ele>
        <time>2020-08-08T09:12:33.000Z</time>
      </trkpt>
      <trkpt lat="43.68206" lon="3.72391">
        <ele>152.55510993514</ele>
        <time>2020-08-08T09:12:34.000Z</time>
      </trkpt>
      <trkpt lat="43.68205" lon="3.72393">
        <ele>152.35470900502</ele>
        <time>2020-08-08T09:12:35.000Z</time>
      </trkpt>
      <trkpt lat="43.68204" lon="3.72396">
        <ele>152.15430807491</ele>
        <time>2020-08-08T09:12:36.000Z</time>
      </trkpt>
      <trkpt lat="43.68202" lon="3.72399">
        <ele>151.93313860465</ele>
        <time>2020-08-08T09:12:37.000Z</time>
      </trkpt>
      <trkpt lat="43.68201" lon="3.72402">
        <ele>151.64244093023</ele>
        <time>2020-08-08T09:12:38.000Z</time>
      </trkpt>
      <trkpt lat="43.682" lon="3.72406">
        <ele>151.35174325581</ele>
        <time>2020-08-08T09:12:39.000Z</time>
      </trkpt>
      <trkpt lat="43.68199" lon="3.7241">
        <ele>151.0610455814</ele>
        <time>2020-08-08T09:12:40.000Z</time>
      </trkpt>
      <trkpt lat="43.68198" lon="3.72413">
        <ele>150.77034790698</ele>
        <time>2020-08-08T09:12:41.000Z</time>
      </trkpt>
      <trkpt lat="43.68197" lon="3.72417">
        <ele>150.47965023256</ele>
        <time>2020-08-08T09:12:42.000Z</time>
      </trkpt>
      <trkpt lat="43.68196" lon="3.72421">
        <ele>150.18895255814</ele>
        <time>2020-08-08T09:12:43.000Z</time>
      </trkpt>
      <trkpt lat="43.68196" lon="3.72424">
        <ele>149.89825488372</ele>
        <time>2020-08-08T09:12:44.000Z</time>
      </trkpt>
      <trkpt lat="43.68195" lon="3.72427">
        <ele>149.6075572093</ele>
        <time>2020-08-08T09:12:45.000Z</time>
      </trkpt>
      <trkpt lat="43.68194" lon="3.72431">
        <ele>149.31685953488</ele>
        <time>2020-08-08T09:12:46.000Z</time>
      </trkpt>
      <trkpt lat="43.68193" lon="3.72434">
        <ele>149.02616186047</ele>
        <time>2020-08-08T09:12:47.000Z</time>
      </trkpt>
      <trkpt lat="43.68192" lon="3.72438">
        <ele>148.62396561983</ele>
        <time>2020-08-08T09:12:48.000Z</time>
      </trkpt>
      <trkpt lat="43.68191" lon="3.72441">
        <ele>148.21074247934</ele>
        <time>2020-08-08T09:12:49.000Z</time>
      </trkpt>
      <trkpt lat="43.68189" lon="3.72446">
        <ele>147.79751933884</ele>
        <time>2020-08-08T09:12:50.000Z</time>
      </trkpt>
      <trkpt lat="43.68187" lon="3.7245">
        <ele>147.38429619835</ele>
        <time>2020-08-08T09:12:51.000Z</time>
      </trkpt>
      <trkpt lat="43.68185" lon="3.72454">
        <ele>146.97107305785</ele>
        <time>2020-08-08T09:12:52.000Z</time>
      </trkpt>
      <trkpt lat="43.68183" lon="3.72458">
        <ele>146.55784991735</ele>
        <time>2020-08-08T09:12:53.000Z</time>
      </trkpt>
      <trkpt lat="43.6818" lon="3.72463">
        <ele>146.14462677686</ele>
        <time>2020-08-08T09:12:54.000Z</time>
      </trkpt>
      <trkpt lat="43.68178" lon="3.72468">
        <ele>145.73140363636</ele>
        <time>2020-08-08T09:12:55.000Z</time>
      </trkpt>
      <trkpt lat="43.68175" lon="3.72473">
        <ele>145.31818049587</ele>
        <time>2020-08-08T09:12:56.000Z</time>
      </trkpt>
      <trkpt lat="43.68172" lon="3.72478">
        <ele>144.93099904</ele>
        <time>2020-08-08T09:12:57.000Z</time>
      </trkpt>
      <trkpt lat="43.68169" lon="3.72482">
        <ele>144.63099904</ele>
        <time>2020-08-08T09:12:58.000Z</time>
      </trkpt>
      <trkpt lat="43.68166" lon="3.72487">
        <ele>144.33099904</ele>
        <time>2020-08-08T09:12:59.000Z</time>
      </trkpt>
      <trkpt lat="43.68163" lon="3.72492">
        <ele>144.03099904</ele>
        <time>2020-08-08T09:13:00.000Z</time>
      </trkpt>
      <trkpt lat="43.6816" lon="3.72496">
        <ele>143.73099904</ele>
        <time>2020-08-08T09:13:01.000Z</time>
      </trkpt>
      <trkpt lat="43.68157" lon="3.725">
        <ele>143.43099904</ele>
        <time>2020-08-08T09:13:02.000Z</time>
      </trkpt>
      <trkpt lat="43.68155" lon="3.72505">
        <ele>143.13099904</ele>
        <time>2020-08-08T09:13:03.000Z</time>
      </trkpt>
      <trkpt lat="43.68152" lon="3.72509">
        <ele>142.83099904</ele>
        <time>2020-08-08T09:13:04.000Z</time>
      </trkpt>
      <trkpt lat="43.68149" lon="3.72513">
        <ele>142.53099904</ele>
        <time>2020-08-08T09:13:05.000Z</time>
      </trkpt>
      <trkpt lat="43.68146" lon="3.72517">
        <ele>142.23099904</ele>
        <time>2020-08-08T09:13:06.000Z</time>
      </trkpt>
      <trkpt lat="43.68143" lon="3.72521">
        <ele>141.88658626488</ele>
        <time>2020-08-08T09:13:07.000Z</time>
      </trkpt>
      <trkpt lat="43.68141" lon="3.72525">
        <ele>141.39348992916</ele>
        <time>2020-08-08T09:13:08.000Z</time>
      </trkpt>
      <trkpt lat="43.68138" lon="3.7253">
        <ele>140.90039359344</ele>
        <time>2020-08-08T09:13:09.000Z</time>
      </trkpt>
      <trkpt lat="43.68136" lon="3.72535">
        <ele>140.40729725772</ele>
        <time>2020-08-08T09:13:10.000Z</time>
      </trkpt>
      <trkpt lat="43.68133" lon="3.72541">
        <ele>139.914200922</ele>
        <time>2020-08-08T09:13:11.000Z</time>
      </trkpt>
      <trkpt lat="43.68131" lon="3.72545">
        <ele>139.42110458628</ele>
        <time>2020-08-08T09:13:12.000Z</time>
      </trkpt>
      <trkpt lat="43.68129" lon="3.72548">
        <ele>138.92800825057</ele>
        <time>2020-08-08T09:13:13.000Z</time>
      </trkpt>
      <trkpt lat="43.68129" lon="3.72551">
        <ele>136.94767627907</ele>
        <time>2020-08-08T09:13:17.000Z</time>
      </trkpt>
      <trkpt lat="43.6813" lon="3.72551">
        <ele>134.04069953488</ele>
        <time>2020-08-08T09:13:22.000Z</time>
      </trkpt>
      <trkpt lat="43.68123" lon="3.72557">
        <ele>132.91693852085</ele>
        <time>2020-08-08T09:13:28.000Z</time>
      </trkpt>
      <trkpt lat="43.68122" lon="3.7256">
        <ele>132.69835936232</ele>
        <time>2020-08-08T09:13:29.000Z</time>
      </trkpt>
      <trkpt lat="43.6812" lon="3.72563">
        <ele>132.47978020379</ele>
        <time>2020-08-08T09:13:30.000Z</time>
      </trkpt>
      <trkpt lat="43.68118" lon="3.72566">
        <ele>132.26120104526</ele>
        <time>2020-08-08T09:13:31.000Z</time>
      </trkpt>
      <trkpt lat="43.68115" lon="3.72569">
        <ele>132.04262188673</ele>
        <time>2020-08-08T09:13:32.000Z</time>
      </trkpt>
      <trkpt lat="43.68113" lon="3.72573">
        <ele>131.8240427282</ele>
        <time>2020-08-08T09:13:33.000Z</time>
      </trkpt>
      <trkpt lat="43.68111" lon="3.72577">
        <ele>131.60546356967</ele>
        <time>2020-08-08T09:13:34.000Z</time>
      </trkpt>
      <trkpt lat="43.68108" lon="3.72582">
        <ele>131.38688441114</ele>
        <time>2020-08-08T09:13:35.000Z</time>
      </trkpt>
      <trkpt lat="43.68105" lon="3.72586">
        <ele>131.16830525261</ele>
        <time>2020-08-08T09:13:36.000Z</time>
      </trkpt>
      <trkpt lat="43.68102" lon="3.7259">
        <ele>130.9776478842</ele>
        <time>2020-08-08T09:13:37.000Z</time>
      </trkpt>
      <trkpt lat="43.68099" lon="3.72592">
        <ele>130.88046612415</ele>
        <time>2020-08-08T09:13:38.000Z</time>
      </trkpt>
      <trkpt lat="43.68096" lon="3.72593">
        <ele>130.78328436409</ele>
        <time>2020-08-08T09:13:39.000Z</time>
      </trkpt>
      <trkpt lat="43.68094" lon="3.72591">
        <ele>130.68610260404</ele>
        <time>2020-08-08T09:13:40.000Z</time>
      </trkpt>
      <trkpt lat="43.68094" lon="3.72588">
        <ele>130.58892084398</ele>
        <time>2020-08-08T09:13:41.000Z</time>
      </trkpt>
      <trkpt lat="43.68093" lon="3.72586">
        <ele>130.49173908392</ele>
        <time>2020-08-08T09:13:42.000Z</time>
      </trkpt>
      <trkpt lat="43.68093" lon="3.72583">
        <ele>130.39455732387</ele>
        <time>2020-08-08T09:13:43.000Z</time>
      </trkpt>
      <trkpt lat="43.68093" lon="3.72581">
        <ele>130.29737556381</ele>
        <time>2020-08-08T09:13:44.000Z</time>
      </trkpt>
      <trkpt lat="43.68095" lon="3.72576">
        <ele>130.1030120437</ele>
        <time>2020-08-08T09:13:46.000Z</time>
      </trkpt>
      <trkpt lat="43.68096" lon="3.72573">
        <ele>130.00583028364</ele>
        <time>2020-08-08T09:13:47.000Z</time>
      </trkpt>
      <trkpt lat="43.68096" lon="3.7257">
        <ele>130.09680804225</ele>
        <time>2020-08-08T09:13:48.000Z</time>
      </trkpt>
      <trkpt lat="43.68097" lon="3.72568">
        <ele>130.19979462005</ele>
        <time>2020-08-08T09:13:49.000Z</time>
      </trkpt>
      <trkpt lat="43.68098" lon="3.72566">
        <ele>130.30278119785</ele>
        <time>2020-08-08T09:13:50.000Z</time>
      </trkpt>
      <trkpt lat="43.68099" lon="3.72563">
        <ele>130.40576777565</ele>
        <time>2020-08-08T09:13:51.000Z</time>
      </trkpt>
      <trkpt lat="43.681" lon="3.72561">
        <ele>130.50875435345</ele>
        <time>2020-08-08T09:13:52.000Z</time>
      </trkpt>
      <trkpt lat="43.68101" lon="3.72559">
        <ele>130.61174093125</ele>
        <time>2020-08-08T09:13:53.000Z</time>
      </trkpt>
      <trkpt lat="43.68102" lon="3.72557">
        <ele>130.71472750905</ele>
        <time>2020-08-08T09:13:54.000Z</time>
      </trkpt>
      <trkpt lat="43.68103" lon="3.72555">
        <ele>130.81771408685</ele>
        <time>2020-08-08T09:13:55.000Z</time>
      </trkpt>
      <trkpt lat="43.68104" lon="3.72553">
        <ele>130.92070066465</ele>
        <time>2020-08-08T09:13:56.000Z</time>
      </trkpt>
      <trkpt lat="43.68106" lon="3.72551">
        <ele>131.02300032</ele>
        <time>2020-08-08T09:13:57.000Z</time>
      </trkpt>
      <trkpt lat="43.68107" lon="3.72548">
        <ele>131.12300032</ele>
        <time>2020-08-08T09:13:58.000Z</time>
      </trkpt>
      <trkpt lat="43.68108" lon="3.72544">
        <ele>131.32300032</ele>
        <time>2020-08-08T09:14:00.000Z</time>
      </trkpt>
      <trkpt lat="43.6811" lon="3.7254">
        <ele>131.52300032</ele>
        <time>2020-08-08T09:14:02.000Z</time>
      </trkpt>
      <trkpt lat="43.68111" lon="3.72535">
        <ele>131.72300032</ele>
        <time>2020-08-08T09:14:04.000Z</time>
      </trkpt>
      <trkpt lat="43.68111" lon="3.72532">
        <ele>131.92300032</ele>
        <time>2020-08-08T09:14:06.000Z</time>
      </trkpt>
      <trkpt lat="43.68111" lon="3.72528">
        <ele>132.133696</ele>
        <time>2020-08-08T09:14:08.000Z</time>
      </trkpt>
      <trkpt lat="43.6811" lon="3.72524">
        <ele>132.35108730435</ele>
        <time>2020-08-08T09:14:10.000Z</time>
      </trkpt>
      <trkpt lat="43.6811" lon="3.72524">
        <ele>133</ele>
        <time>2020-08-08T09:14:16.000Z</time>
      </trkpt>
      <trkpt lat="43.68113" lon="3.72539">
        <ele>133</ele>
        <time>2020-08-08T09:15:43.000Z</time>
      </trkpt>
      <trkpt lat="43.68112" lon="3.72543">
        <ele>132.9270615997</ele>
        <time>2020-08-08T09:15:44.000Z</time>
      </trkpt>
      <trkpt lat="43.6811" lon="3.72546">
        <ele>132.82135328295</ele>
        <time>2020-08-08T09:15:45.000Z</time>
      </trkpt>
      <trkpt lat="43.68109" lon="3.72549">
        <ele>132.71564496619</ele>
        <time>2020-08-08T09:15:46.000Z</time>
      </trkpt>
      <trkpt lat="43.68108" lon="3.72553">
        <ele>132.60993664943</ele>
        <time>2020-08-08T09:15:47.000Z</time>
      </trkpt>
      <trkpt lat="43.68106" lon="3.72556">
        <ele>132.50422833267</ele>
        <time>2020-08-08T09:15:48.000Z</time>
      </trkpt>
      <trkpt lat="43.68104" lon="3.72559">
        <ele>132.39852001591</ele>
        <time>2020-08-08T09:15:49.000Z</time>
      </trkpt>
      <trkpt lat="43.68103" lon="3.72563">
        <ele>132.29281169915</ele>
        <time>2020-08-08T09:15:50.000Z</time>
      </trkpt>
      <trkpt lat="43.68101" lon="3.72566">
        <ele>132.1871033824</ele>
        <time>2020-08-08T09:15:51.000Z</time>
      </trkpt>
      <trkpt lat="43.68099" lon="3.72569">
        <ele>132.08139506564</ele>
        <time>2020-08-08T09:15:52.000Z</time>
      </trkpt>
      <trkpt lat="43.68098" lon="3.72572">
        <ele>131.97762614786</ele>
        <time>2020-08-08T09:15:53.000Z</time>
      </trkpt>
      <trkpt lat="43.68097" lon="3.72575">
        <ele>131.88034988327</ele>
        <time>2020-08-08T09:15:54.000Z</time>
      </trkpt>
      <trkpt lat="43.68096" lon="3.72579">
        <ele>131.78307361868</ele>
        <time>2020-08-08T09:15:55.000Z</time>
      </trkpt>
      <trkpt lat="43.68095" lon="3.72582">
        <ele>131.68579735409</ele>
        <time>2020-08-08T09:15:56.000Z</time>
      </trkpt>
      <trkpt lat="43.68095" lon="3.72585">
        <ele>131.58852108949</ele>
        <time>2020-08-08T09:15:57.000Z</time>
      </trkpt>
      <trkpt lat="43.68095" lon="3.72588">
        <ele>131.4912448249</ele>
        <time>2020-08-08T09:15:58.000Z</time>
      </trkpt>
      <trkpt lat="43.68096" lon="3.7259">
        <ele>131.39396856031</ele>
        <time>2020-08-08T09:15:59.000Z</time>
      </trkpt>
      <trkpt lat="43.681" lon="3.72591">
        <ele>131.19941603113</ele>
        <time>2020-08-08T09:16:01.000Z</time>
      </trkpt>
      <trkpt lat="43.68102" lon="3.72589">
        <ele>131.10213976654</ele>
        <time>2020-08-08T09:16:02.000Z</time>
      </trkpt>
      <trkpt lat="43.68105" lon="3.72586">
        <ele>131.00486350195</ele>
        <time>2020-08-08T09:16:03.000Z</time>
      </trkpt>
      <trkpt lat="43.68107" lon="3.72584">
        <ele>130.90226304527</ele>
        <time>2020-08-08T09:16:04.000Z</time>
      </trkpt>
      <trkpt lat="43.68108" lon="3.7258">
        <ele>130.79938238683</ele>
        <time>2020-08-08T09:16:05.000Z</time>
      </trkpt>
      <trkpt lat="43.6811" lon="3.72577">
        <ele>130.69650172839</ele>
        <time>2020-08-08T09:16:06.000Z</time>
      </trkpt>
      <trkpt lat="43.68112" lon="3.72575">
        <ele>130.59362106996</ele>
        <time>2020-08-08T09:16:07.000Z</time>
      </trkpt>
      <trkpt lat="43.68113" lon="3.72572">
        <ele>130.49074041152</ele>
        <time>2020-08-08T09:16:08.000Z</time>
      </trkpt>
      <trkpt lat="43.68115" lon="3.72569">
        <ele>130.38785975309</ele>
        <time>2020-08-08T09:16:09.000Z</time>
      </trkpt>
      <trkpt lat="43.68117" lon="3.72566">
        <ele>130.28497909465</ele>
        <time>2020-08-08T09:16:10.000Z</time>
      </trkpt>
      <trkpt lat="43.68118" lon="3.72563">
        <ele>130.18209843621</ele>
        <time>2020-08-08T09:16:11.000Z</time>
      </trkpt>
      <trkpt lat="43.6812" lon="3.72561">
        <ele>130.07921777778</ele>
        <time>2020-08-08T09:16:12.000Z</time>
      </trkpt>
      <trkpt lat="43.68122" lon="3.72558">
        <ele>129.93195175893</ele>
        <time>2020-08-08T09:16:13.000Z</time>
      </trkpt>
      <trkpt lat="43.68123" lon="3.72556">
        <ele>129.6360939575</ele>
        <time>2020-08-08T09:16:14.000Z</time>
      </trkpt>
      <trkpt lat="43.68124" lon="3.72553">
        <ele>129.34023615606</ele>
        <time>2020-08-08T09:16:15.000Z</time>
      </trkpt>
      <trkpt lat="43.68126" lon="3.72551">
        <ele>129.04437835463</ele>
        <time>2020-08-08T09:16:16.000Z</time>
      </trkpt>
      <trkpt lat="43.68129" lon="3.72551">
        <ele>128.45266275177</ele>
        <time>2020-08-08T09:16:18.000Z</time>
      </trkpt>
      <trkpt lat="43.68131" lon="3.72552">
        <ele>128.15680495034</ele>
        <time>2020-08-08T09:16:19.000Z</time>
      </trkpt>
      <trkpt lat="43.68132" lon="3.72554">
        <ele>127.86094714891</ele>
        <time>2020-08-08T09:16:20.000Z</time>
      </trkpt>
      <trkpt lat="43.68132" lon="3.72558">
        <ele>127.56508934748</ele>
        <time>2020-08-08T09:16:21.000Z</time>
      </trkpt>
      <trkpt lat="43.68132" lon="3.72564">
        <ele>127.26923154605</ele>
        <time>2020-08-08T09:16:22.000Z</time>
      </trkpt>
      <trkpt lat="43.68131" lon="3.72571">
        <ele>126.99092774193</ele>
        <time>2020-08-08T09:16:23.000Z</time>
      </trkpt>
      <trkpt lat="43.68129" lon="3.72578">
        <ele>126.89012129032</ele>
        <time>2020-08-08T09:16:24.000Z</time>
      </trkpt>
      <trkpt lat="43.68128" lon="3.72585">
        <ele>126.78931483871</ele>
        <time>2020-08-08T09:16:25.000Z</time>
      </trkpt>
      <trkpt lat="43.68126" lon="3.72592">
        <ele>126.6885083871</ele>
        <time>2020-08-08T09:16:26.000Z</time>
      </trkpt>
      <trkpt lat="43.68124" lon="3.72599">
        <ele>126.58770193548</ele>
        <time>2020-08-08T09:16:27.000Z</time>
      </trkpt>
      <trkpt lat="43.68121" lon="3.72605">
        <ele>126.48689548387</ele>
        <time>2020-08-08T09:16:28.000Z</time>
      </trkpt>
      <trkpt lat="43.68119" lon="3.72612">
        <ele>126.38608903226</ele>
        <time>2020-08-08T09:16:29.000Z</time>
      </trkpt>
      <trkpt lat="43.68116" lon="3.72617">
        <ele>126.28528258065</ele>
        <time>2020-08-08T09:16:30.000Z</time>
      </trkpt>
      <trkpt lat="43.68114" lon="3.72622">
        <ele>126.18447612903</ele>
        <time>2020-08-08T09:16:31.000Z</time>
      </trkpt>
      <trkpt lat="43.68113" lon="3.72627">
        <ele>126.08366967742</ele>
        <time>2020-08-08T09:16:32.000Z</time>
      </trkpt>
      <trkpt lat="43.68111" lon="3.72632">
        <ele>125.96579539045</ele>
        <time>2020-08-08T09:16:33.000Z</time>
      </trkpt>
      <trkpt lat="43.68111" lon="3.72637">
        <ele>125.76458801744</ele>
        <time>2020-08-08T09:16:34.000Z</time>
      </trkpt>
      <trkpt lat="43.6811" lon="3.72643">
        <ele>125.56338064443</ele>
        <time>2020-08-08T09:16:35.000Z</time>
      </trkpt>
      <trkpt lat="43.68109" lon="3.72649">
        <ele>125.36217327142</ele>
        <time>2020-08-08T09:16:36.000Z</time>
      </trkpt>
      <trkpt lat="43.68109" lon="3.72655">
        <ele>125.16096589841</ele>
        <time>2020-08-08T09:16:37.000Z</time>
      </trkpt>
      <trkpt lat="43.68108" lon="3.72659">
        <ele>124.9597585254</ele>
        <time>2020-08-08T09:16:38.000Z</time>
      </trkpt>
      <trkpt lat="43.68106" lon="3.72663">
        <ele>124.75855115239</ele>
        <time>2020-08-08T09:16:39.000Z</time>
      </trkpt>
      <trkpt lat="43.68104" lon="3.72666">
        <ele>124.55734377938</ele>
        <time>2020-08-08T09:16:40.000Z</time>
      </trkpt>
      <trkpt lat="43.68101" lon="3.72669">
        <ele>124.35613640636</ele>
        <time>2020-08-08T09:16:41.000Z</time>
      </trkpt>
      <trkpt lat="43.68098" lon="3.72671">
        <ele>124.15492903336</ele>
        <time>2020-08-08T09:16:42.000Z</time>
      </trkpt>
      <trkpt lat="43.68095" lon="3.72674">
        <ele>123.97699968</ele>
        <time>2020-08-08T09:16:43.000Z</time>
      </trkpt>
      <trkpt lat="43.68091" lon="3.72677">
        <ele>123.87699968</ele>
        <time>2020-08-08T09:16:44.000Z</time>
      </trkpt>
      <trkpt lat="43.68088" lon="3.72679">
        <ele>123.77699968</ele>
        <time>2020-08-08T09:16:45.000Z</time>
      </trkpt>
      <trkpt lat="43.68084" lon="3.72682">
        <ele>123.67699968</ele>
        <time>2020-08-08T09:16:46.000Z</time>
      </trkpt>
      <trkpt lat="43.68081" lon="3.72685">
        <ele>123.57699968</ele>
        <time>2020-08-08T09:16:47.000Z</time>
      </trkpt>
      <trkpt lat="43.68078" lon="3.72688">
        <ele>123.47699968</ele>
        <time>2020-08-08T09:16:48.000Z</time>
      </trkpt>
      <trkpt lat="43.68075" lon="3.72691">
        <ele>123.37699968</ele>
        <time>2020-08-08T09:16:49.000Z</time>
      </trkpt>
      <trkpt lat="43.68072" lon="3.72693">
        <ele>123.27699968</ele>
        <time>2020-08-08T09:16:50.000Z</time>
      </trkpt>
      <trkpt lat="43.68069" lon="3.72696">
        <ele>123.17699968</ele>
        <time>2020-08-08T09:16:51.000Z</time>
      </trkpt>
      <trkpt lat="43.68066" lon="3.72698">
        <ele>123.07699968</ele>
        <time>2020-08-08T09:16:52.000Z</time>
      </trkpt>
      <trkpt lat="43.68063" lon="3.72701">
        <ele>123</ele>
        <time>2020-08-08T09:16:53.000Z</time>
      </trkpt>
      <trkpt lat="43.6806" lon="3.72703">
        <ele>123</ele>
        <time>2020-08-08T09:16:54.000Z</time>
      </trkpt>
      <trkpt lat="43.68057" lon="3.72705">
        <ele>123</ele>
        <time>2020-08-08T09:16:55.000Z</time>
      </trkpt>
      <trkpt lat="43.68055" lon="3.72707">
        <ele>123</ele>
        <time>2020-08-08T09:16:56.000Z</time>
      </trkpt>
      <trkpt lat="43.68052" lon="3.72708">
        <ele>123</ele>
        <time>2020-08-08T09:16:57.000Z</time>
      </trkpt>
      <trkpt lat="43.6805" lon="3.7271">
        <ele>123</ele>
        <time>2020-08-08T09:16:58.000Z</time>
      </trkpt>
      <trkpt lat="43.68047" lon="3.72711">
        <ele>123</ele>
        <time>2020-08-08T09:16:59.000Z</time>
      </trkpt>
      <trkpt lat="43.68044" lon="3.72712">
        <ele>123</ele>
        <time>2020-08-08T09:17:00.000Z</time>
      </trkpt>
      <trkpt lat="43.68042" lon="3.72713">
        <ele>123</ele>
        <time>2020-08-08T09:17:01.000Z</time>
      </trkpt>
      <trkpt lat="43.68039" lon="3.72714">
        <ele>123</ele>
        <time>2020-08-08T09:17:02.000Z</time>
      </trkpt>
      <trkpt lat="43.68036" lon="3.72715">
        <ele>122.98092337349</ele>
        <time>2020-08-08T09:17:03.000Z</time>
      </trkpt>
      <trkpt lat="43.68034" lon="3.72715">
        <ele>122.88052176707</ele>
        <time>2020-08-08T09:17:04.000Z</time>
      </trkpt>
      <trkpt lat="43.68031" lon="3.72716">
        <ele>122.78012016064</ele>
        <time>2020-08-08T09:17:05.000Z</time>
      </trkpt>
      <trkpt lat="43.68028" lon="3.72718">
        <ele>122.67971855422</ele>
        <time>2020-08-08T09:17:06.000Z</time>
      </trkpt>
      <trkpt lat="43.68026" lon="3.7272">
        <ele>122.57931694779</ele>
        <time>2020-08-08T09:17:07.000Z</time>
      </trkpt>
      <trkpt lat="43.68023" lon="3.72721">
        <ele>122.47891534136</ele>
        <time>2020-08-08T09:17:08.000Z</time>
      </trkpt>
      <trkpt lat="43.68021" lon="3.72723">
        <ele>122.37851373494</ele>
        <time>2020-08-08T09:17:09.000Z</time>
      </trkpt>
      <trkpt lat="43.68018" lon="3.72724">
        <ele>122.27811212851</ele>
        <time>2020-08-08T09:17:10.000Z</time>
      </trkpt>
      <trkpt lat="43.68015" lon="3.72725">
        <ele>122.17771052209</ele>
        <time>2020-08-08T09:17:11.000Z</time>
      </trkpt>
      <trkpt lat="43.68013" lon="3.72727">
        <ele>122.07730891566</ele>
        <time>2020-08-08T09:17:12.000Z</time>
      </trkpt>
      <trkpt lat="43.6801" lon="3.72728">
        <ele>122.02300032</ele>
        <time>2020-08-08T09:17:13.000Z</time>
      </trkpt>
      <trkpt lat="43.68007" lon="3.72729">
        <ele>122.12300032</ele>
        <time>2020-08-08T09:17:14.000Z</time>
      </trkpt>
      <trkpt lat="43.68004" lon="3.7273">
        <ele>122.22300032</ele>
        <time>2020-08-08T09:17:15.000Z</time>
      </trkpt>
      <trkpt lat="43.68001" lon="3.72731">
        <ele>122.32300032</ele>
        <time>2020-08-08T09:17:16.000Z</time>
      </trkpt>
      <trkpt lat="43.67998" lon="3.72732">
        <ele>122.42300032</ele>
        <time>2020-08-08T09:17:17.000Z</time>
      </trkpt>
      <trkpt lat="43.67995" lon="3.72732">
        <ele>122.52300032</ele>
        <time>2020-08-08T09:17:18.000Z</time>
      </trkpt>
      <trkpt lat="43.67992" lon="3.72733">
        <ele>122.62300032</ele>
        <time>2020-08-08T09:17:19.000Z</time>
      </trkpt>
      <trkpt lat="43.67989" lon="3.72733">
        <ele>122.72300032</ele>
        <time>2020-08-08T09:17:20.000Z</time>
      </trkpt>
      <trkpt lat="43.67986" lon="3.72733">
        <ele>122.82300032</ele>
        <time>2020-08-08T09:17:21.000Z</time>
      </trkpt>
      <trkpt lat="43.67984" lon="3.72734">
        <ele>122.92300032</ele>
        <time>2020-08-08T09:17:22.000Z</time>
      </trkpt>
      <trkpt lat="43.67982" lon="3.72734">
        <ele>122.97709131474</ele>
        <time>2020-08-08T09:17:23.000Z</time>
      </trkpt>
      <trkpt lat="43.6798" lon="3.72735">
        <ele>122.87748972112</ele>
        <time>2020-08-08T09:17:24.000Z</time>
      </trkpt>
      <trkpt lat="43.67977" lon="3.72736">
        <ele>122.77788812749</ele>
        <time>2020-08-08T09:17:25.000Z</time>
      </trkpt>
      <trkpt lat="43.67975" lon="3.72737">
        <ele>122.67828653387</ele>
        <time>2020-08-08T09:17:26.000Z</time>
      </trkpt>
      <trkpt lat="43.67972" lon="3.72738">
        <ele>122.57868494024</ele>
        <time>2020-08-08T09:17:27.000Z</time>
      </trkpt>
      <trkpt lat="43.67969" lon="3.7274">
        <ele>122.47908334661</ele>
        <time>2020-08-08T09:17:28.000Z</time>
      </trkpt>
      <trkpt lat="43.67966" lon="3.72741">
        <ele>122.37948175299</ele>
        <time>2020-08-08T09:17:29.000Z</time>
      </trkpt>
      <trkpt lat="43.67963" lon="3.72744">
        <ele>122.27988015936</ele>
        <time>2020-08-08T09:17:30.000Z</time>
      </trkpt>
      <trkpt lat="43.67961" lon="3.72747">
        <ele>122.18027856574</ele>
        <time>2020-08-08T09:17:31.000Z</time>
      </trkpt>
      <trkpt lat="43.67958" lon="3.72749">
        <ele>122.08067697211</ele>
        <time>2020-08-08T09:17:32.000Z</time>
      </trkpt>
      <trkpt lat="43.67956" lon="3.72752">
        <ele>121.98092337349</ele>
        <time>2020-08-08T09:17:33.000Z</time>
      </trkpt>
      <trkpt lat="43.67954" lon="3.72754">
        <ele>121.88052176707</ele>
        <time>2020-08-08T09:17:34.000Z</time>
      </trkpt>
      <trkpt lat="43.67952" lon="3.72757">
        <ele>121.78012016064</ele>
        <time>2020-08-08T09:17:35.000Z</time>
      </trkpt>
      <trkpt lat="43.6795" lon="3.7276">
        <ele>121.67971855422</ele>
        <time>2020-08-08T09:17:36.000Z</time>
      </trkpt>
      <trkpt lat="43.67947" lon="3.72763">
        <ele>121.57931694779</ele>
        <time>2020-08-08T09:17:37.000Z</time>
      </trkpt>
      <trkpt lat="43.67945" lon="3.72766">
        <ele>121.47891534136</ele>
        <time>2020-08-08T09:17:38.000Z</time>
      </trkpt>
      <trkpt lat="43.67943" lon="3.72769">
        <ele>121.37851373494</ele>
        <time>2020-08-08T09:17:39.000Z</time>
      </trkpt>
      <trkpt lat="43.67941" lon="3.72772">
        <ele>121.27811212851</ele>
        <time>2020-08-08T09:17:40.000Z</time>
      </trkpt>
      <trkpt lat="43.6794" lon="3.72774">
        <ele>121.17771052209</ele>
        <time>2020-08-08T09:17:41.000Z</time>
      </trkpt>
      <trkpt lat="43.67938" lon="3.72777">
        <ele>121.07730891566</ele>
        <time>2020-08-08T09:17:42.000Z</time>
      </trkpt>
      <trkpt lat="43.67936" lon="3.7278">
        <ele>120.95399936</ele>
        <time>2020-08-08T09:17:43.000Z</time>
      </trkpt>
      <trkpt lat="43.67935" lon="3.72783">
        <ele>120.75399936</ele>
        <time>2020-08-08T09:17:44.000Z</time>
      </trkpt>
      <trkpt lat="43.67933" lon="3.72786">
        <ele>120.55399936</ele>
        <time>2020-08-08T09:17:45.000Z</time>
      </trkpt>
      <trkpt lat="43.67931" lon="3.72789">
        <ele>120.35399936</ele>
        <time>2020-08-08T09:17:46.000Z</time>
      </trkpt>
      <trkpt lat="43.67929" lon="3.72793">
        <ele>120.15399936</ele>
        <time>2020-08-08T09:17:47.000Z</time>
      </trkpt>
      <trkpt lat="43.67927" lon="3.72796">
        <ele>119.95399936</ele>
        <time>2020-08-08T09:17:48.000Z</time>
      </trkpt>
      <trkpt lat="43.67925" lon="3.72799">
        <ele>119.75399936</ele>
        <time>2020-08-08T09:17:49.000Z</time>
      </trkpt>
      <trkpt lat="43.67924" lon="3.72803">
        <ele>119.55399936</ele>
        <time>2020-08-08T09:17:50.000Z</time>
      </trkpt>
      <trkpt lat="43.67923" lon="3.72805">
        <ele>119.35399936</ele>
        <time>2020-08-08T09:17:51.000Z</time>
      </trkpt>
      <trkpt lat="43.67923" lon="3.72809">
        <ele>119.15399936</ele>
        <time>2020-08-08T09:17:52.000Z</time>
      </trkpt>
      <trkpt lat="43.67922" lon="3.72813">
        <ele>118.97699968</ele>
        <time>2020-08-08T09:17:53.000Z</time>
      </trkpt>
      <trkpt lat="43.67923" lon="3.72817">
        <ele>118.87699968</ele>
        <time>2020-08-08T09:17:54.000Z</time>
      </trkpt>
      <trkpt lat="43.67923" lon="3.72822">
        <ele>118.77699968</ele>
        <time>2020-08-08T09:17:55.000Z</time>
      </trkpt>
      <trkpt lat="43.67925" lon="3.72827">
        <ele>118.67699968</ele>
        <time>2020-08-08T09:17:56.000Z</time>
      </trkpt>
      <trkpt lat="43.67927" lon="3.72831">
        <ele>118.57699968</ele>
        <time>2020-08-08T09:17:57.000Z</time>
      </trkpt>
      <trkpt lat="43.67928" lon="3.72834">
        <ele>118.47699968</ele>
        <time>2020-08-08T09:17:58.000Z</time>
      </trkpt>
      <trkpt lat="43.67928" lon="3.72838">
        <ele>118.37699968</ele>
        <time>2020-08-08T09:17:59.000Z</time>
      </trkpt>
      <trkpt lat="43.67929" lon="3.72843">
        <ele>118.27699968</ele>
        <time>2020-08-08T09:18:00.000Z</time>
      </trkpt>
      <trkpt lat="43.67929" lon="3.72847">
        <ele>118.17699968</ele>
        <time>2020-08-08T09:18:01.000Z</time>
      </trkpt>
      <trkpt lat="43.6793" lon="3.72853">
        <ele>118.07699968</ele>
        <time>2020-08-08T09:18:02.000Z</time>
      </trkpt>
      <trkpt lat="43.6793" lon="3.72858">
        <ele>117.93127394422</ele>
        <time>2020-08-08T09:18:03.000Z</time>
      </trkpt>
      <trkpt lat="43.67931" lon="3.72878">
        <ele>117.03485960159</ele>
        <time>2020-08-08T09:18:06.000Z</time>
      </trkpt>
      <trkpt lat="43.67929" lon="3.72892">
        <ele>116.43725003984</ele>
        <time>2020-08-08T09:18:08.000Z</time>
      </trkpt>
      <trkpt lat="43.67928" lon="3.72898">
        <ele>116.13844525896</ele>
        <time>2020-08-08T09:18:09.000Z</time>
      </trkpt>
      <trkpt lat="43.67928" lon="3.72902">
        <ele>115.83964047809</ele>
        <time>2020-08-08T09:18:10.000Z</time>
      </trkpt>
      <trkpt lat="43.67927" lon="3.72906">
        <ele>115.54083569721</ele>
        <time>2020-08-08T09:18:11.000Z</time>
      </trkpt>
      <trkpt lat="43.67925" lon="3.72909">
        <ele>115.24203091633</ele>
        <time>2020-08-08T09:18:12.000Z</time>
      </trkpt>
      <trkpt lat="43.67922" lon="3.7291">
        <ele>114.94282757762</ele>
        <time>2020-08-08T09:18:13.000Z</time>
      </trkpt>
      <trkpt lat="43.67918" lon="3.7291">
        <ele>114.64192515923</ele>
        <time>2020-08-08T09:18:14.000Z</time>
      </trkpt>
      <trkpt lat="43.67914" lon="3.72909">
        <ele>114.34102274084</ele>
        <time>2020-08-08T09:18:15.000Z</time>
      </trkpt>
      <trkpt lat="43.6791" lon="3.72908">
        <ele>114.04012032245</ele>
        <time>2020-08-08T09:18:16.000Z</time>
      </trkpt>
      <trkpt lat="43.67905" lon="3.72908">
        <ele>113.73921790406</ele>
        <time>2020-08-08T09:18:17.000Z</time>
      </trkpt>
      <trkpt lat="43.67901" lon="3.72909">
        <ele>113.43831548567</ele>
        <time>2020-08-08T09:18:18.000Z</time>
      </trkpt>
      <trkpt lat="43.67896" lon="3.72909">
        <ele>113.13741306728</ele>
        <time>2020-08-08T09:18:19.000Z</time>
      </trkpt>
      <trkpt lat="43.67892" lon="3.7291">
        <ele>112.8365106489</ele>
        <time>2020-08-08T09:18:20.000Z</time>
      </trkpt>
      <trkpt lat="43.67888" lon="3.7291">
        <ele>112.53560823051</ele>
        <time>2020-08-08T09:18:21.000Z</time>
      </trkpt>
      <trkpt lat="43.67884" lon="3.72909">
        <ele>112.23470581212</ele>
        <time>2020-08-08T09:18:22.000Z</time>
      </trkpt>
      <trkpt lat="43.67881" lon="3.72909">
        <ele>111.95595719491</ele>
        <time>2020-08-08T09:18:23.000Z</time>
      </trkpt>
      <trkpt lat="43.67878" lon="3.72909">
        <ele>111.75575680233</ele>
        <time>2020-08-08T09:18:24.000Z</time>
      </trkpt>
      <trkpt lat="43.67875" lon="3.72909">
        <ele>111.55555640974</ele>
        <time>2020-08-08T09:18:25.000Z</time>
      </trkpt>
      <trkpt lat="43.67871" lon="3.72909">
        <ele>111.35535601716</ele>
        <time>2020-08-08T09:18:26.000Z</time>
      </trkpt>
      <trkpt lat="43.67868" lon="3.72909">
        <ele>111.15515562457</ele>
        <time>2020-08-08T09:18:27.000Z</time>
      </trkpt>
      <trkpt lat="43.67865" lon="3.72909">
        <ele>110.95495523199</ele>
        <time>2020-08-08T09:18:28.000Z</time>
      </trkpt>
      <trkpt lat="43.67861" lon="3.72909">
        <ele>110.7547548394</ele>
        <time>2020-08-08T09:18:29.000Z</time>
      </trkpt>
      <trkpt lat="43.67857" lon="3.72909">
        <ele>110.55455444682</ele>
        <time>2020-08-08T09:18:30.000Z</time>
      </trkpt>
      <trkpt lat="43.67853" lon="3.72909">
        <ele>110.35435405423</ele>
        <time>2020-08-08T09:18:31.000Z</time>
      </trkpt>
      <trkpt lat="43.6785" lon="3.72909">
        <ele>110.15415366165</ele>
        <time>2020-08-08T09:18:32.000Z</time>
      </trkpt>
      <trkpt lat="43.67846" lon="3.72909">
        <ele>109.95409120697</ele>
        <time>2020-08-08T09:18:33.000Z</time>
      </trkpt>
      <trkpt lat="43.67842" lon="3.72909">
        <ele>109.75449053605</ele>
        <time>2020-08-08T09:18:34.000Z</time>
      </trkpt>
      <trkpt lat="43.67838" lon="3.72908">
        <ele>109.55488986514</ele>
        <time>2020-08-08T09:18:35.000Z</time>
      </trkpt>
      <trkpt lat="43.67835" lon="3.72907">
        <ele>109.35528919423</ele>
        <time>2020-08-08T09:18:36.000Z</time>
      </trkpt>
      <trkpt lat="43.67831" lon="3.72907">
        <ele>109.15568852331</ele>
        <time>2020-08-08T09:18:37.000Z</time>
      </trkpt>
      <trkpt lat="43.67827" lon="3.72907">
        <ele>108.9560878524</ele>
        <time>2020-08-08T09:18:38.000Z</time>
      </trkpt>
      <trkpt lat="43.67823" lon="3.72906">
        <ele>108.75648718148</ele>
        <time>2020-08-08T09:18:39.000Z</time>
      </trkpt>
      <trkpt lat="43.67819" lon="3.72905">
        <ele>108.55688651057</ele>
        <time>2020-08-08T09:18:40.000Z</time>
      </trkpt>
      <trkpt lat="43.67816" lon="3.72904">
        <ele>108.35728583966</ele>
        <time>2020-08-08T09:18:41.000Z</time>
      </trkpt>
      <trkpt lat="43.67812" lon="3.72904">
        <ele>108.15768516874</ele>
        <time>2020-08-08T09:18:42.000Z</time>
      </trkpt>
      <trkpt lat="43.67809" lon="3.72904">
        <ele>108</ele>
        <time>2020-08-08T09:18:43.000Z</time>
      </trkpt>
      <trkpt lat="43.67805" lon="3.72904">
        <ele>108</ele>
        <time>2020-08-08T09:18:44.000Z</time>
      </trkpt>
      <trkpt lat="43.67801" lon="3.72904">
        <ele>108</ele>
        <time>2020-08-08T09:18:45.000Z</time>
      </trkpt>
      <trkpt lat="43.67797" lon="3.72904">
        <ele>108</ele>
        <time>2020-08-08T09:18:46.000Z</time>
      </trkpt>
      <trkpt lat="43.67793" lon="3.72904">
        <ele>108</ele>
        <time>2020-08-08T09:18:47.000Z</time>
      </trkpt>
      <trkpt lat="43.6779" lon="3.72903">
        <ele>108</ele>
        <time>2020-08-08T09:18:48.000Z</time>
      </trkpt>
      <trkpt lat="43.67786" lon="3.72903">
        <ele>108</ele>
        <time>2020-08-08T09:18:49.000Z</time>
      </trkpt>
      <trkpt lat="43.67783" lon="3.72902">
        <ele>108</ele>
        <time>2020-08-08T09:18:50.000Z</time>
      </trkpt>
      <trkpt lat="43.6778" lon="3.72902">
        <ele>108</ele>
        <time>2020-08-08T09:18:51.000Z</time>
      </trkpt>
      <trkpt lat="43.67777" lon="3.72901">
        <ele>108</ele>
        <time>2020-08-08T09:18:52.000Z</time>
      </trkpt>
      <trkpt lat="43.67774" lon="3.72901">
        <ele>108</ele>
        <time>2020-08-08T09:18:53.000Z</time>
      </trkpt>
      <trkpt lat="43.67771" lon="3.72901">
        <ele>108</ele>
        <time>2020-08-08T09:18:54.000Z</time>
      </trkpt>
      <trkpt lat="43.67769" lon="3.72901">
        <ele>108</ele>
        <time>2020-08-08T09:18:55.000Z</time>
      </trkpt>
      <trkpt lat="43.67765" lon="3.729">
        <ele>108</ele>
        <time>2020-08-08T09:18:56.000Z</time>
      </trkpt>
      <trkpt lat="43.67762" lon="3.729">
        <ele>108</ele>
        <time>2020-08-08T09:18:57.000Z</time>
      </trkpt>
      <trkpt lat="43.67759" lon="3.72899">
        <ele>108</ele>
        <time>2020-08-08T09:18:58.000Z</time>
      </trkpt>
      <trkpt lat="43.67755" lon="3.72899">
        <ele>108</ele>
        <time>2020-08-08T09:18:59.000Z</time>
      </trkpt>
      <trkpt lat="43.67752" lon="3.729">
        <ele>108</ele>
        <time>2020-08-08T09:19:00.000Z</time>
      </trkpt>
      <trkpt lat="43.67749" lon="3.729">
        <ele>108</ele>
        <time>2020-08-08T09:19:01.000Z</time>
      </trkpt>
      <trkpt lat="43.67745" lon="3.729">
        <ele>108</ele>
        <time>2020-08-08T09:19:02.000Z</time>
      </trkpt>
      <trkpt lat="43.6774" lon="3.72899">
        <ele>107.95525229572</ele>
        <time>2020-08-08T09:19:03.000Z</time>
      </trkpt>
      <trkpt lat="43.67736" lon="3.72897">
        <ele>107.76069976654</ele>
        <time>2020-08-08T09:19:04.000Z</time>
      </trkpt>
      <trkpt lat="43.67732" lon="3.72895">
        <ele>107.56614723735</ele>
        <time>2020-08-08T09:19:05.000Z</time>
      </trkpt>
      <trkpt lat="43.67727" lon="3.72893">
        <ele>107.37159470817</ele>
        <time>2020-08-08T09:19:06.000Z</time>
      </trkpt>
      <trkpt lat="43.67723" lon="3.7289">
        <ele>107.17704217899</ele>
        <time>2020-08-08T09:19:07.000Z</time>
      </trkpt>
      <trkpt lat="43.67718" lon="3.72886">
        <ele>106.98248964981</ele>
        <time>2020-08-08T09:19:08.000Z</time>
      </trkpt>
      <trkpt lat="43.67714" lon="3.72883">
        <ele>106.78793712062</ele>
        <time>2020-08-08T09:19:09.000Z</time>
      </trkpt>
      <trkpt lat="43.6771" lon="3.7288">
        <ele>106.59338459144</ele>
        <time>2020-08-08T09:19:10.000Z</time>
      </trkpt>
      <trkpt lat="43.67705" lon="3.72877">
        <ele>106.39883206226</ele>
        <time>2020-08-08T09:19:11.000Z</time>
      </trkpt>
      <trkpt lat="43.67701" lon="3.72874">
        <ele>106.20427953307</ele>
        <time>2020-08-08T09:19:12.000Z</time>
      </trkpt>
      <trkpt lat="43.67696" lon="3.72871">
        <ele>106.00972700389</ele>
        <time>2020-08-08T09:19:13.000Z</time>
      </trkpt>
      <trkpt lat="43.67692" lon="3.72868">
        <ele>105.90266360656</ele>
        <time>2020-08-08T09:19:14.000Z</time>
      </trkpt>
      <trkpt lat="43.67687" lon="3.72864">
        <ele>105.80020459016</ele>
        <time>2020-08-08T09:19:15.000Z</time>
      </trkpt>
      <trkpt lat="43.67683" lon="3.72861">
        <ele>105.69774557377</ele>
        <time>2020-08-08T09:19:16.000Z</time>
      </trkpt>
      <trkpt lat="43.67678" lon="3.72858">
        <ele>105.59528655738</ele>
        <time>2020-08-08T09:19:17.000Z</time>
      </trkpt>
      <trkpt lat="43.67674" lon="3.72856">
        <ele>105.49282754098</ele>
        <time>2020-08-08T09:19:18.000Z</time>
      </trkpt>
      <trkpt lat="43.67669" lon="3.72853">
        <ele>105.39036852459</ele>
        <time>2020-08-08T09:19:19.000Z</time>
      </trkpt>
      <trkpt lat="43.67665" lon="3.72851">
        <ele>105.2879095082</ele>
        <time>2020-08-08T09:19:20.000Z</time>
      </trkpt>
      <trkpt lat="43.67661" lon="3.72849">
        <ele>105.1854504918</ele>
        <time>2020-08-08T09:19:21.000Z</time>
      </trkpt>
      <trkpt lat="43.67657" lon="3.72846">
        <ele>105.08299147541</ele>
        <time>2020-08-08T09:19:22.000Z</time>
      </trkpt>
      <trkpt lat="43.67653" lon="3.72844">
        <ele>104.98146309665</ele>
        <time>2020-08-08T09:19:23.000Z</time>
      </trkpt>
      <trkpt lat="43.67649" lon="3.72841">
        <ele>104.88390209058</ele>
        <time>2020-08-08T09:19:24.000Z</time>
      </trkpt>
      <trkpt lat="43.67645" lon="3.72839">
        <ele>104.78634108452</ele>
        <time>2020-08-08T09:19:25.000Z</time>
      </trkpt>
      <trkpt lat="43.67641" lon="3.72837">
        <ele>104.68878007845</ele>
        <time>2020-08-08T09:19:26.000Z</time>
      </trkpt>
      <trkpt lat="43.67637" lon="3.72836">
        <ele>104.59121907238</ele>
        <time>2020-08-08T09:19:27.000Z</time>
      </trkpt>
      <trkpt lat="43.67632" lon="3.72834">
        <ele>104.49365806631</ele>
        <time>2020-08-08T09:19:28.000Z</time>
      </trkpt>
      <trkpt lat="43.67628" lon="3.72833">
        <ele>104.39609706024</ele>
        <time>2020-08-08T09:19:29.000Z</time>
      </trkpt>
      <trkpt lat="43.67623" lon="3.72832">
        <ele>104.29853605418</ele>
        <time>2020-08-08T09:19:30.000Z</time>
      </trkpt>
      <trkpt lat="43.67619" lon="3.72831">
        <ele>104.20097504811</ele>
        <time>2020-08-08T09:19:31.000Z</time>
      </trkpt>
      <trkpt lat="43.67614" lon="3.72829">
        <ele>104.10341404204</ele>
        <time>2020-08-08T09:19:32.000Z</time>
      </trkpt>
      <trkpt lat="43.6761" lon="3.72828">
        <ele>104.00585303597</ele>
        <time>2020-08-08T09:19:33.000Z</time>
      </trkpt>
      <trkpt lat="43.67606" lon="3.72827">
        <ele>103.90319195775</ele>
        <time>2020-08-08T09:19:34.000Z</time>
      </trkpt>
      <trkpt lat="43.67602" lon="3.72826">
        <ele>103.80020537995</ele>
        <time>2020-08-08T09:19:35.000Z</time>
      </trkpt>
      <trkpt lat="43.67598" lon="3.72824">
        <ele>103.69721880215</ele>
        <time>2020-08-08T09:19:36.000Z</time>
      </trkpt>
      <trkpt lat="43.67594" lon="3.72822">
        <ele>103.59423222435</ele>
        <time>2020-08-08T09:19:37.000Z</time>
      </trkpt>
      <trkpt lat="43.6759" lon="3.72821">
        <ele>103.49124564655</ele>
        <time>2020-08-08T09:19:38.000Z</time>
      </trkpt>
      <trkpt lat="43.67585" lon="3.7282">
        <ele>103.38825906875</ele>
        <time>2020-08-08T09:19:39.000Z</time>
      </trkpt>
      <trkpt lat="43.6758" lon="3.72821">
        <ele>103.28527249095</ele>
        <time>2020-08-08T09:19:40.000Z</time>
      </trkpt>
      <trkpt lat="43.67576" lon="3.72821">
        <ele>103.18228591315</ele>
        <time>2020-08-08T09:19:41.000Z</time>
      </trkpt>
      <trkpt lat="43.67571" lon="3.72822">
        <ele>103.07929933535</ele>
        <time>2020-08-08T09:19:42.000Z</time>
      </trkpt>
      <trkpt lat="43.67567" lon="3.72823">
        <ele>102.97699968</ele>
        <time>2020-08-08T09:19:43.000Z</time>
      </trkpt>
      <trkpt lat="43.67563" lon="3.72824">
        <ele>102.87699968</ele>
        <time>2020-08-08T09:19:44.000Z</time>
      </trkpt>
      <trkpt lat="43.67558" lon="3.72825">
        <ele>102.77699968</ele>
        <time>2020-08-08T09:19:45.000Z</time>
      </trkpt>
      <trkpt lat="43.67554" lon="3.72825">
        <ele>102.67699968</ele>
        <time>2020-08-08T09:19:46.000Z</time>
      </trkpt>
      <trkpt lat="43.67549" lon="3.72824">
        <ele>102.57699968</ele>
        <time>2020-08-08T09:19:47.000Z</time>
      </trkpt>
      <trkpt lat="43.67545" lon="3.72824">
        <ele>102.47699968</ele>
        <time>2020-08-08T09:19:48.000Z</time>
      </trkpt>
      <trkpt lat="43.6754" lon="3.72823">
        <ele>102.37699968</ele>
        <time>2020-08-08T09:19:49.000Z</time>
      </trkpt>
      <trkpt lat="43.67535" lon="3.72823">
        <ele>102.27699968</ele>
        <time>2020-08-08T09:19:50.000Z</time>
      </trkpt>
      <trkpt lat="43.67531" lon="3.72823">
        <ele>102.17699968</ele>
        <time>2020-08-08T09:19:51.000Z</time>
      </trkpt>
      <trkpt lat="43.67527" lon="3.72823">
        <ele>102.07699968</ele>
        <time>2020-08-08T09:19:52.000Z</time>
      </trkpt>
      <trkpt lat="43.67522" lon="3.72824">
        <ele>101.97699968</ele>
        <time>2020-08-08T09:19:53.000Z</time>
      </trkpt>
      <trkpt lat="43.67517" lon="3.72824">
        <ele>101.87699968</ele>
        <time>2020-08-08T09:19:54.000Z</time>
      </trkpt>
      <trkpt lat="43.67513" lon="3.72824">
        <ele>101.77699968</ele>
        <time>2020-08-08T09:19:55.000Z</time>
      </trkpt>
      <trkpt lat="43.67508" lon="3.72825">
        <ele>101.67699968</ele>
        <time>2020-08-08T09:19:56.000Z</time>
      </trkpt>
      <trkpt lat="43.67504" lon="3.72825">
        <ele>101.57699968</ele>
        <time>2020-08-08T09:19:57.000Z</time>
      </trkpt>
      <trkpt lat="43.67499" lon="3.72825">
        <ele>101.47699968</ele>
        <time>2020-08-08T09:19:58.000Z</time>
      </trkpt>
      <trkpt lat="43.67495" lon="3.72825">
        <ele>101.37699968</ele>
        <time>2020-08-08T09:19:59.000Z</time>
      </trkpt>
      <trkpt lat="43.6749" lon="3.72825">
        <ele>101.27699968</ele>
        <time>2020-08-08T09:20:00.000Z</time>
      </trkpt>
      <trkpt lat="43.67486" lon="3.72825">
        <ele>101.17699968</ele>
        <time>2020-08-08T09:20:01.000Z</time>
      </trkpt>
      <trkpt lat="43.67481" lon="3.72825">
        <ele>101.07699968</ele>
        <time>2020-08-08T09:20:02.000Z</time>
      </trkpt>
      <trkpt lat="43.67477" lon="3.72825">
        <ele>100.97699968</ele>
        <time>2020-08-08T09:20:03.000Z</time>
      </trkpt>
      <trkpt lat="43.67472" lon="3.72825">
        <ele>100.87699968</ele>
        <time>2020-08-08T09:20:04.000Z</time>
      </trkpt>
      <trkpt lat="43.67468" lon="3.72825">
        <ele>100.77699968</ele>
        <time>2020-08-08T09:20:05.000Z</time>
      </trkpt>
      <trkpt lat="43.67463" lon="3.72824">
        <ele>100.67699968</ele>
        <time>2020-08-08T09:20:06.000Z</time>
      </trkpt>
      <trkpt lat="43.67459" lon="3.72824">
        <ele>100.57699968</ele>
        <time>2020-08-08T09:20:07.000Z</time>
      </trkpt>
      <trkpt lat="43.67455" lon="3.72824">
        <ele>100.47699968</ele>
        <time>2020-08-08T09:20:08.000Z</time>
      </trkpt>
      <trkpt lat="43.6745" lon="3.72824">
        <ele>100.37699968</ele>
        <time>2020-08-08T09:20:09.000Z</time>
      </trkpt>
      <trkpt lat="43.67446" lon="3.72823">
        <ele>100.27699968</ele>
        <time>2020-08-08T09:20:10.000Z</time>
      </trkpt>
      <trkpt lat="43.67441" lon="3.72823">
        <ele>100.17699968</ele>
        <time>2020-08-08T09:20:11.000Z</time>
      </trkpt>
      <trkpt lat="43.67437" lon="3.72822">
        <ele>100.07699968</ele>
        <time>2020-08-08T09:20:12.000Z</time>
      </trkpt>
      <trkpt lat="43.67432" lon="3.72822">
        <ele>99.97699968</ele>
        <time>2020-08-08T09:20:13.000Z</time>
      </trkpt>
      <trkpt lat="43.67428" lon="3.72822">
        <ele>99.87699968</ele>
        <time>2020-08-08T09:20:14.000Z</time>
      </trkpt>
      <trkpt lat="43.67424" lon="3.72823">
        <ele>99.77699968</ele>
        <time>2020-08-08T09:20:15.000Z</time>
      </trkpt>
      <trkpt lat="43.67419" lon="3.72823">
        <ele>99.67699968</ele>
        <time>2020-08-08T09:20:16.000Z</time>
      </trkpt>
      <trkpt lat="43.67415" lon="3.72824">
        <ele>99.57699968</ele>
        <time>2020-08-08T09:20:17.000Z</time>
      </trkpt>
      <trkpt lat="43.6741" lon="3.72825">
        <ele>99.47699968</ele>
        <time>2020-08-08T09:20:18.000Z</time>
      </trkpt>
      <trkpt lat="43.67406" lon="3.72825">
        <ele>99.37699968</ele>
        <time>2020-08-08T09:20:19.000Z</time>
      </trkpt>
      <trkpt lat="43.67401" lon="3.72826">
        <ele>99.27699968</ele>
        <time>2020-08-08T09:20:20.000Z</time>
      </trkpt>
      <trkpt lat="43.67397" lon="3.72826">
        <ele>99.17699968</ele>
        <time>2020-08-08T09:20:21.000Z</time>
      </trkpt>
      <trkpt lat="43.67393" lon="3.72826">
        <ele>99.07699968</ele>
        <time>2020-08-08T09:20:22.000Z</time>
      </trkpt>
      <trkpt lat="43.67389" lon="3.72827">
        <ele>99</ele>
        <time>2020-08-08T09:20:23.000Z</time>
      </trkpt>
      <trkpt lat="43.67385" lon="3.72826">
        <ele>99</ele>
        <time>2020-08-08T09:20:24.000Z</time>
      </trkpt>
      <trkpt lat="43.67381" lon="3.72826">
        <ele>99</ele>
        <time>2020-08-08T09:20:25.000Z</time>
      </trkpt>
      <trkpt lat="43.67377" lon="3.72826">
        <ele>99</ele>
        <time>2020-08-08T09:20:26.000Z</time>
      </trkpt>
      <trkpt lat="43.67374" lon="3.72826">
        <ele>99</ele>
        <time>2020-08-08T09:20:27.000Z</time>
      </trkpt>
      <trkpt lat="43.6737" lon="3.72825">
        <ele>99</ele>
        <time>2020-08-08T09:20:28.000Z</time>
      </trkpt>
      <trkpt lat="43.67367" lon="3.72825">
        <ele>99</ele>
        <time>2020-08-08T09:20:29.000Z</time>
      </trkpt>
      <trkpt lat="43.67363" lon="3.72825">
        <ele>99</ele>
        <time>2020-08-08T09:20:30.000Z</time>
      </trkpt>
      <trkpt lat="43.67359" lon="3.72824">
        <ele>99</ele>
        <time>2020-08-08T09:20:31.000Z</time>
      </trkpt>
      <trkpt lat="43.67355" lon="3.72824">
        <ele>99</ele>
        <time>2020-08-08T09:20:32.000Z</time>
      </trkpt>
      <trkpt lat="43.67351" lon="3.72824">
        <ele>99</ele>
        <time>2020-08-08T09:20:33.000Z</time>
      </trkpt>
      <trkpt lat="43.67347" lon="3.72824">
        <ele>99</ele>
        <time>2020-08-08T09:20:34.000Z</time>
      </trkpt>
      <trkpt lat="43.67342" lon="3.72824">
        <ele>99</ele>
        <time>2020-08-08T09:20:35.000Z</time>
      </trkpt>
      <trkpt lat="43.67337" lon="3.72824">
        <ele>99</ele>
        <time>2020-08-08T09:20:36.000Z</time>
      </trkpt>
      <trkpt lat="43.67333" lon="3.72825">
        <ele>99</ele>
        <time>2020-08-08T09:20:37.000Z</time>
      </trkpt>
      <trkpt lat="43.67328" lon="3.72826">
        <ele>99</ele>
        <time>2020-08-08T09:20:38.000Z</time>
      </trkpt>
      <trkpt lat="43.67324" lon="3.72827">
        <ele>99</ele>
        <time>2020-08-08T09:20:39.000Z</time>
      </trkpt>
      <trkpt lat="43.6732" lon="3.72828">
        <ele>99</ele>
        <time>2020-08-08T09:20:40.000Z</time>
      </trkpt>
      <trkpt lat="43.67317" lon="3.72829">
        <ele>99</ele>
        <time>2020-08-08T09:20:41.000Z</time>
      </trkpt>
      <trkpt lat="43.67314" lon="3.7283">
        <ele>99</ele>
        <time>2020-08-08T09:20:42.000Z</time>
      </trkpt>
      <trkpt lat="43.67311" lon="3.7283">
        <ele>99.02300032</ele>
        <time>2020-08-08T09:20:43.000Z</time>
      </trkpt>
      <trkpt lat="43.67308" lon="3.7283">
        <ele>99.12300032</ele>
        <time>2020-08-08T09:20:44.000Z</time>
      </trkpt>
      <trkpt lat="43.67306" lon="3.7283">
        <ele>99.22300032</ele>
        <time>2020-08-08T09:20:45.000Z</time>
      </trkpt>
      <trkpt lat="43.67304" lon="3.72832">
        <ele>99.32300032</ele>
        <time>2020-08-08T09:20:46.000Z</time>
      </trkpt>
      <trkpt lat="43.67302" lon="3.72834">
        <ele>99.42300032</ele>
        <time>2020-08-08T09:20:47.000Z</time>
      </trkpt>
      <trkpt lat="43.67301" lon="3.72836">
        <ele>99.52300032</ele>
        <time>2020-08-08T09:20:48.000Z</time>
      </trkpt>
      <trkpt lat="43.673" lon="3.72838">
        <ele>99.62300032</ele>
        <time>2020-08-08T09:20:49.000Z</time>
      </trkpt>
      <trkpt lat="43.67298" lon="3.7284">
        <ele>99.72300032</ele>
        <time>2020-08-08T09:20:50.000Z</time>
      </trkpt>
      <trkpt lat="43.67296" lon="3.72844">
        <ele>99.92300032</ele>
        <time>2020-08-08T09:20:52.000Z</time>
      </trkpt>
      <trkpt lat="43.67294" lon="3.72846">
        <ele>100.02300032</ele>
        <time>2020-08-08T09:20:53.000Z</time>
      </trkpt>
      <trkpt lat="43.67292" lon="3.72847">
        <ele>100.12300032</ele>
        <time>2020-08-08T09:20:54.000Z</time>
      </trkpt>
      <trkpt lat="43.6729" lon="3.72849">
        <ele>100.22300032</ele>
        <time>2020-08-08T09:20:55.000Z</time>
      </trkpt>
      <trkpt lat="43.67288" lon="3.72851">
        <ele>100.32300032</ele>
        <time>2020-08-08T09:20:56.000Z</time>
      </trkpt>
      <trkpt lat="43.67286" lon="3.72853">
        <ele>100.42300032</ele>
        <time>2020-08-08T09:20:57.000Z</time>
      </trkpt>
      <trkpt lat="43.67284" lon="3.72855">
        <ele>100.52300032</ele>
        <time>2020-08-08T09:20:58.000Z</time>
      </trkpt>
      <trkpt lat="43.67282" lon="3.72856">
        <ele>100.62300032</ele>
        <time>2020-08-08T09:20:59.000Z</time>
      </trkpt>
      <trkpt lat="43.67281" lon="3.72858">
        <ele>100.72300032</ele>
        <time>2020-08-08T09:21:00.000Z</time>
      </trkpt>
      <trkpt lat="43.67279" lon="3.7286">
        <ele>100.82300032</ele>
        <time>2020-08-08T09:21:01.000Z</time>
      </trkpt>
      <trkpt lat="43.67278" lon="3.72862">
        <ele>100.92300032</ele>
        <time>2020-08-08T09:21:02.000Z</time>
      </trkpt>
      <trkpt lat="43.67276" lon="3.72864">
        <ele>101.02300032</ele>
        <time>2020-08-08T09:21:03.000Z</time>
      </trkpt>
      <trkpt lat="43.67275" lon="3.72866">
        <ele>101.12300032</ele>
        <time>2020-08-08T09:21:04.000Z</time>
      </trkpt>
      <trkpt lat="43.67272" lon="3.72869">
        <ele>101.32300032</ele>
        <time>2020-08-08T09:21:06.000Z</time>
      </trkpt>
      <trkpt lat="43.6727" lon="3.72872">
        <ele>101.52300032</ele>
        <time>2020-08-08T09:21:08.000Z</time>
      </trkpt>
      <trkpt lat="43.67267" lon="3.72875">
        <ele>101.72300032</ele>
        <time>2020-08-08T09:21:10.000Z</time>
      </trkpt>
      <trkpt lat="43.67265" lon="3.72878">
        <ele>101.92300032</ele>
        <time>2020-08-08T09:21:12.000Z</time>
      </trkpt>
      <trkpt lat="43.67262" lon="3.72881">
        <ele>102.24600064</ele>
        <time>2020-08-08T09:21:14.000Z</time>
      </trkpt>
      <trkpt lat="43.6726" lon="3.72884">
        <ele>102.64600064</ele>
        <time>2020-08-08T09:21:16.000Z</time>
      </trkpt>
      <trkpt lat="43.67258" lon="3.72887">
        <ele>103.04600064</ele>
        <time>2020-08-08T09:21:18.000Z</time>
      </trkpt>
      <trkpt lat="43.67256" lon="3.7289">
        <ele>103.44600064</ele>
        <time>2020-08-08T09:21:20.000Z</time>
      </trkpt>
      <trkpt lat="43.67254" lon="3.72892">
        <ele>103.84600064</ele>
        <time>2020-08-08T09:21:22.000Z</time>
      </trkpt>
      <trkpt lat="43.67252" lon="3.72894">
        <ele>104.24600064</ele>
        <time>2020-08-08T09:21:24.000Z</time>
      </trkpt>
      <trkpt lat="43.6725" lon="3.72896">
        <ele>104.64600064</ele>
        <time>2020-08-08T09:21:26.000Z</time>
      </trkpt>
      <trkpt lat="43.67249" lon="3.72899">
        <ele>105.04600064</ele>
        <time>2020-08-08T09:21:28.000Z</time>
      </trkpt>
      <trkpt lat="43.67247" lon="3.72901">
        <ele>105.44600064</ele>
        <time>2020-08-08T09:21:30.000Z</time>
      </trkpt>
      <trkpt lat="43.67246" lon="3.72903">
        <ele>105.84600064</ele>
        <time>2020-08-08T09:21:32.000Z</time>
      </trkpt>
      <trkpt lat="43.67244" lon="3.72906">
        <ele>106</ele>
        <time>2020-08-08T09:21:34.000Z</time>
      </trkpt>
      <trkpt lat="43.67243" lon="3.72909">
        <ele>106</ele>
        <time>2020-08-08T09:21:36.000Z</time>
      </trkpt>
      <trkpt lat="43.67244" lon="3.7291">
        <ele>106</ele>
        <time>2020-08-08T09:21:42.000Z</time>
      </trkpt>
      <trkpt lat="43.67251" lon="3.72921">
        <ele>107.99924504169</ele>
        <time>2020-08-08T09:22:35.000Z</time>
      </trkpt>
      <trkpt lat="43.67253" lon="3.72922">
        <ele>108.29611162938</ele>
        <time>2020-08-08T09:22:38.000Z</time>
      </trkpt>
      <trkpt lat="43.67255" lon="3.72923">
        <ele>108.59521460758</ele>
        <time>2020-08-08T09:22:41.000Z</time>
      </trkpt>
      <trkpt lat="43.67258" lon="3.72924">
        <ele>108.99401857852</ele>
        <time>2020-08-08T09:22:45.000Z</time>
      </trkpt>
      <trkpt lat="43.6726" lon="3.72925">
        <ele>109</ele>
        <time>2020-08-08T09:22:48.000Z</time>
      </trkpt>
      <trkpt lat="43.6726" lon="3.72926">
        <ele>109</ele>
        <time>2020-08-08T09:22:54.000Z</time>
      </trkpt>
      <trkpt lat="43.67264" lon="3.72925">
        <ele>109.97617192342</ele>
        <time>2020-08-08T09:23:07.000Z</time>
      </trkpt>
      <trkpt lat="43.67267" lon="3.72925">
        <ele>110.17777783798</ele>
        <time>2020-08-08T09:23:09.000Z</time>
      </trkpt>
      <trkpt lat="43.6727" lon="3.72925">
        <ele>110.38941812128</ele>
        <time>2020-08-08T09:23:11.000Z</time>
      </trkpt>
      <trkpt lat="43.67273" lon="3.72925">
        <ele>110.60105840459</ele>
        <time>2020-08-08T09:23:13.000Z</time>
      </trkpt>
      <trkpt lat="43.67275" lon="3.72925">
        <ele>110.8126986879</ele>
        <time>2020-08-08T09:23:15.000Z</time>
      </trkpt>
      <trkpt lat="43.67278" lon="3.72925">
        <ele>111.06900096</ele>
        <time>2020-08-08T09:23:17.000Z</time>
      </trkpt>
      <trkpt lat="43.67281" lon="3.72925">
        <ele>111.66900096</ele>
        <time>2020-08-08T09:23:19.000Z</time>
      </trkpt>
      <trkpt lat="43.67284" lon="3.72925">
        <ele>112.26900096</ele>
        <time>2020-08-08T09:23:21.000Z</time>
      </trkpt>
      <trkpt lat="43.67286" lon="3.72925">
        <ele>112.86900096</ele>
        <time>2020-08-08T09:23:23.000Z</time>
      </trkpt>
      <trkpt lat="43.67289" lon="3.72925">
        <ele>113.46900096</ele>
        <time>2020-08-08T09:23:25.000Z</time>
      </trkpt>
      <trkpt lat="43.67292" lon="3.72926">
        <ele>114.04600064</ele>
        <time>2020-08-08T09:23:27.000Z</time>
      </trkpt>
      <trkpt lat="43.67294" lon="3.72926">
        <ele>114.44600064</ele>
        <time>2020-08-08T09:23:29.000Z</time>
      </trkpt>
      <trkpt lat="43.67297" lon="3.72927">
        <ele>114.84600064</ele>
        <time>2020-08-08T09:23:31.000Z</time>
      </trkpt>
      <trkpt lat="43.673" lon="3.72927">
        <ele>115.24600064</ele>
        <time>2020-08-08T09:23:33.000Z</time>
      </trkpt>
      <trkpt lat="43.67303" lon="3.72927">
        <ele>115.64600064</ele>
        <time>2020-08-08T09:23:35.000Z</time>
      </trkpt>
      <trkpt lat="43.67305" lon="3.72928">
        <ele>116.04600064</ele>
        <time>2020-08-08T09:23:37.000Z</time>
      </trkpt>
      <trkpt lat="43.67308" lon="3.72929">
        <ele>116.44600064</ele>
        <time>2020-08-08T09:23:39.000Z</time>
      </trkpt>
      <trkpt lat="43.67311" lon="3.7293">
        <ele>116.84600064</ele>
        <time>2020-08-08T09:23:41.000Z</time>
      </trkpt>
      <trkpt lat="43.67314" lon="3.72931">
        <ele>117.24600064</ele>
        <time>2020-08-08T09:23:43.000Z</time>
      </trkpt>
      <trkpt lat="43.67316" lon="3.72933">
        <ele>117.64600064</ele>
        <time>2020-08-08T09:23:45.000Z</time>
      </trkpt>
      <trkpt lat="43.67319" lon="3.72934">
        <ele>118.04600064</ele>
        <time>2020-08-08T09:23:47.000Z</time>
      </trkpt>
      <trkpt lat="43.67321" lon="3.72936">
        <ele>118.44600064</ele>
        <time>2020-08-08T09:23:49.000Z</time>
      </trkpt>
      <trkpt lat="43.67324" lon="3.72938">
        <ele>118.84600064</ele>
        <time>2020-08-08T09:23:51.000Z</time>
      </trkpt>
      <trkpt lat="43.67326" lon="3.72939">
        <ele>119.24600064</ele>
        <time>2020-08-08T09:23:53.000Z</time>
      </trkpt>
      <trkpt lat="43.67329" lon="3.72941">
        <ele>119.64600064</ele>
        <time>2020-08-08T09:23:55.000Z</time>
      </trkpt>
      <trkpt lat="43.67331" lon="3.72943">
        <ele>120.02300032</ele>
        <time>2020-08-08T09:23:57.000Z</time>
      </trkpt>
      <trkpt lat="43.67333" lon="3.72945">
        <ele>120.22300032</ele>
        <time>2020-08-08T09:23:59.000Z</time>
      </trkpt>
      <trkpt lat="43.67336" lon="3.72947">
        <ele>120.42300032</ele>
        <time>2020-08-08T09:24:01.000Z</time>
      </trkpt>
      <trkpt lat="43.67338" lon="3.7295">
        <ele>120.62300032</ele>
        <time>2020-08-08T09:24:03.000Z</time>
      </trkpt>
      <trkpt lat="43.6734" lon="3.72952">
        <ele>120.82300032</ele>
        <time>2020-08-08T09:24:05.000Z</time>
      </trkpt>
      <trkpt lat="43.67343" lon="3.72954">
        <ele>121.04600064</ele>
        <time>2020-08-08T09:24:07.000Z</time>
      </trkpt>
      <trkpt lat="43.67346" lon="3.72956">
        <ele>121.44600064</ele>
        <time>2020-08-08T09:24:09.000Z</time>
      </trkpt>
      <trkpt lat="43.67347" lon="3.72958">
        <ele>121.64600064</ele>
        <time>2020-08-08T09:24:10.000Z</time>
      </trkpt>
      <trkpt lat="43.67349" lon="3.72959">
        <ele>121.84600064</ele>
        <time>2020-08-08T09:24:11.000Z</time>
      </trkpt>
      <trkpt lat="43.67352" lon="3.72962">
        <ele>122.24600064</ele>
        <time>2020-08-08T09:24:13.000Z</time>
      </trkpt>
      <trkpt lat="43.67354" lon="3.72964">
        <ele>122.64600064</ele>
        <time>2020-08-08T09:24:15.000Z</time>
      </trkpt>
      <trkpt lat="43.67357" lon="3.72966">
        <ele>123.02290868526</ele>
        <time>2020-08-08T09:24:17.000Z</time>
      </trkpt>
      <trkpt lat="43.6736" lon="3.72968">
        <ele>123.22211187251</ele>
        <time>2020-08-08T09:24:19.000Z</time>
      </trkpt>
      <trkpt lat="43.67363" lon="3.72969">
        <ele>123.42131505976</ele>
        <time>2020-08-08T09:24:21.000Z</time>
      </trkpt>
      <trkpt lat="43.67366" lon="3.7297">
        <ele>123.62051824701</ele>
        <time>2020-08-08T09:24:23.000Z</time>
      </trkpt>
      <trkpt lat="43.67369" lon="3.72972">
        <ele>123.81972143426</ele>
        <time>2020-08-08T09:24:25.000Z</time>
      </trkpt>
      <trkpt lat="43.67372" lon="3.72974">
        <ele>124.01907662651</ele>
        <time>2020-08-08T09:24:27.000Z</time>
      </trkpt>
      <trkpt lat="43.67374" lon="3.72975">
        <ele>124.11947823293</ele>
        <time>2020-08-08T09:24:28.000Z</time>
      </trkpt>
      <trkpt lat="43.67376" lon="3.72976">
        <ele>124.21987983936</ele>
        <time>2020-08-08T09:24:29.000Z</time>
      </trkpt>
      <trkpt lat="43.67379" lon="3.72978">
        <ele>124.42068305221</ele>
        <time>2020-08-08T09:24:31.000Z</time>
      </trkpt>
      <trkpt lat="43.67382" lon="3.72979">
        <ele>124.62148626506</ele>
        <time>2020-08-08T09:24:33.000Z</time>
      </trkpt>
      <trkpt lat="43.67385" lon="3.7298">
        <ele>124.82228947791</ele>
        <time>2020-08-08T09:24:35.000Z</time>
      </trkpt>
      <trkpt lat="43.67387" lon="3.72981">
        <ele>125.02300032</ele>
        <time>2020-08-08T09:24:37.000Z</time>
      </trkpt>
      <trkpt lat="43.67389" lon="3.72982">
        <ele>125.22300032</ele>
        <time>2020-08-08T09:24:39.000Z</time>
      </trkpt>
      <trkpt lat="43.67392" lon="3.72983">
        <ele>125.42300032</ele>
        <time>2020-08-08T09:24:41.000Z</time>
      </trkpt>
      <trkpt lat="43.67395" lon="3.72985">
        <ele>125.62300032</ele>
        <time>2020-08-08T09:24:43.000Z</time>
      </trkpt>
      <trkpt lat="43.67398" lon="3.72986">
        <ele>125.82300032</ele>
        <time>2020-08-08T09:24:45.000Z</time>
      </trkpt>
      <trkpt lat="43.674" lon="3.72987">
        <ele>125.92300032</ele>
        <time>2020-08-08T09:24:46.000Z</time>
      </trkpt>
      <trkpt lat="43.67402" lon="3.72987">
        <ele>126.02300032</ele>
        <time>2020-08-08T09:24:47.000Z</time>
      </trkpt>
      <trkpt lat="43.67404" lon="3.72988">
        <ele>126.12300032</ele>
        <time>2020-08-08T09:24:48.000Z</time>
      </trkpt>
      <trkpt lat="43.67406" lon="3.72989">
        <ele>126.22300032</ele>
        <time>2020-08-08T09:24:49.000Z</time>
      </trkpt>
      <trkpt lat="43.67408" lon="3.72989">
        <ele>126.32300032</ele>
        <time>2020-08-08T09:24:50.000Z</time>
      </trkpt>
      <trkpt lat="43.6741" lon="3.7299">
        <ele>126.42300032</ele>
        <time>2020-08-08T09:24:51.000Z</time>
      </trkpt>
      <trkpt lat="43.67412" lon="3.72991">
        <ele>126.52300032</ele>
        <time>2020-08-08T09:24:52.000Z</time>
      </trkpt>
      <trkpt lat="43.67414" lon="3.72992">
        <ele>126.62300032</ele>
        <time>2020-08-08T09:24:53.000Z</time>
      </trkpt>
      <trkpt lat="43.67416" lon="3.72993">
        <ele>126.72300032</ele>
        <time>2020-08-08T09:24:54.000Z</time>
      </trkpt>
      <trkpt lat="43.67418" lon="3.72994">
        <ele>126.82300032</ele>
        <time>2020-08-08T09:24:55.000Z</time>
      </trkpt>
      <trkpt lat="43.67421" lon="3.72994">
        <ele>126.92300032</ele>
        <time>2020-08-08T09:24:56.000Z</time>
      </trkpt>
      <trkpt lat="43.67423" lon="3.72995">
        <ele>127</ele>
        <time>2020-08-08T09:24:57.000Z</time>
      </trkpt>
      <trkpt lat="43.67425" lon="3.72996">
        <ele>127</ele>
        <time>2020-08-08T09:24:58.000Z</time>
      </trkpt>
      <trkpt lat="43.67427" lon="3.72997">
        <ele>127</ele>
        <time>2020-08-08T09:24:59.000Z</time>
      </trkpt>
      <trkpt lat="43.6743" lon="3.72997">
        <ele>127</ele>
        <time>2020-08-08T09:25:00.000Z</time>
      </trkpt>
      <trkpt lat="43.67432" lon="3.72998">
        <ele>127</ele>
        <time>2020-08-08T09:25:01.000Z</time>
      </trkpt>
      <trkpt lat="43.67435" lon="3.72999">
        <ele>127</ele>
        <time>2020-08-08T09:25:02.000Z</time>
      </trkpt>
      <trkpt lat="43.67437" lon="3.72999">
        <ele>127</ele>
        <time>2020-08-08T09:25:03.000Z</time>
      </trkpt>
      <trkpt lat="43.6744" lon="3.73">
        <ele>127</ele>
        <time>2020-08-08T09:25:04.000Z</time>
      </trkpt>
      <trkpt lat="43.67442" lon="3.73001">
        <ele>127</ele>
        <time>2020-08-08T09:25:05.000Z</time>
      </trkpt>
      <trkpt lat="43.67445" lon="3.73001">
        <ele>127</ele>
        <time>2020-08-08T09:25:06.000Z</time>
      </trkpt>
      <trkpt lat="43.67447" lon="3.73002">
        <ele>127</ele>
        <time>2020-08-08T09:25:07.000Z</time>
      </trkpt>
      <trkpt lat="43.6745" lon="3.73004">
        <ele>127</ele>
        <time>2020-08-08T09:25:08.000Z</time>
      </trkpt>
      <trkpt lat="43.67453" lon="3.73005">
        <ele>127</ele>
        <time>2020-08-08T09:25:09.000Z</time>
      </trkpt>
      <trkpt lat="43.67455" lon="3.73006">
        <ele>127</ele>
        <time>2020-08-08T09:25:10.000Z</time>
      </trkpt>
      <trkpt lat="43.67458" lon="3.73008">
        <ele>127</ele>
        <time>2020-08-08T09:25:11.000Z</time>
      </trkpt>
      <trkpt lat="43.67461" lon="3.73009">
        <ele>127</ele>
        <time>2020-08-08T09:25:12.000Z</time>
      </trkpt>
      <trkpt lat="43.67463" lon="3.73011">
        <ele>127</ele>
        <time>2020-08-08T09:25:13.000Z</time>
      </trkpt>
      <trkpt lat="43.67466" lon="3.73012">
        <ele>127</ele>
        <time>2020-08-08T09:25:14.000Z</time>
      </trkpt>
      <trkpt lat="43.67469" lon="3.73013">
        <ele>127</ele>
        <time>2020-08-08T09:25:15.000Z</time>
      </trkpt>
      <trkpt lat="43.67471" lon="3.73015">
        <ele>127</ele>
        <time>2020-08-08T09:25:16.000Z</time>
      </trkpt>
      <trkpt lat="43.67474" lon="3.73016">
        <ele>127</ele>
        <time>2020-08-08T09:25:17.000Z</time>
      </trkpt>
      <trkpt lat="43.67476" lon="3.73018">
        <ele>127.09400859504</ele>
        <time>2020-08-08T09:25:18.000Z</time>
      </trkpt>
      <trkpt lat="43.67478" lon="3.73019">
        <ele>127.19731438016</ele>
        <time>2020-08-08T09:25:19.000Z</time>
      </trkpt>
      <trkpt lat="43.67481" lon="3.73021">
        <ele>127.30062016529</ele>
        <time>2020-08-08T09:25:20.000Z</time>
      </trkpt>
      <trkpt lat="43.67483" lon="3.73022">
        <ele>127.40392595041</ele>
        <time>2020-08-08T09:25:21.000Z</time>
      </trkpt>
      <trkpt lat="43.67485" lon="3.73024">
        <ele>127.50723173554</ele>
        <time>2020-08-08T09:25:22.000Z</time>
      </trkpt>
      <trkpt lat="43.67488" lon="3.73026">
        <ele>127.61053752066</ele>
        <time>2020-08-08T09:25:23.000Z</time>
      </trkpt>
      <trkpt lat="43.6749" lon="3.73027">
        <ele>127.71384330579</ele>
        <time>2020-08-08T09:25:24.000Z</time>
      </trkpt>
      <trkpt lat="43.67492" lon="3.73029">
        <ele>127.81714909091</ele>
        <time>2020-08-08T09:25:25.000Z</time>
      </trkpt>
      <trkpt lat="43.67495" lon="3.7303">
        <ele>127.92045487603</ele>
        <time>2020-08-08T09:25:26.000Z</time>
      </trkpt>
      <trkpt lat="43.67497" lon="3.73032">
        <ele>128.02300032</ele>
        <time>2020-08-08T09:25:27.000Z</time>
      </trkpt>
      <trkpt lat="43.67499" lon="3.73035">
        <ele>128.12300032</ele>
        <time>2020-08-08T09:25:28.000Z</time>
      </trkpt>
      <trkpt lat="43.67501" lon="3.73037">
        <ele>128.22300032</ele>
        <time>2020-08-08T09:25:29.000Z</time>
      </trkpt>
      <trkpt lat="43.67503" lon="3.7304">
        <ele>128.32300032</ele>
        <time>2020-08-08T09:25:30.000Z</time>
      </trkpt>
      <trkpt lat="43.67505" lon="3.73042">
        <ele>128.42300032</ele>
        <time>2020-08-08T09:25:31.000Z</time>
      </trkpt>
      <trkpt lat="43.67506" lon="3.73045">
        <ele>128.52300032</ele>
        <time>2020-08-08T09:25:32.000Z</time>
      </trkpt>
      <trkpt lat="43.67508" lon="3.73049">
        <ele>128.62300032</ele>
        <time>2020-08-08T09:25:33.000Z</time>
      </trkpt>
      <trkpt lat="43.67509" lon="3.73052">
        <ele>128.72300032</ele>
        <time>2020-08-08T09:25:34.000Z</time>
      </trkpt>
      <trkpt lat="43.67509" lon="3.73055">
        <ele>128.82300032</ele>
        <time>2020-08-08T09:25:35.000Z</time>
      </trkpt>
      <trkpt lat="43.67509" lon="3.73059">
        <ele>128.92300032</ele>
        <time>2020-08-08T09:25:36.000Z</time>
      </trkpt>
      <trkpt lat="43.67509" lon="3.73062">
        <ele>129.0223521158</ele>
        <time>2020-08-08T09:25:37.000Z</time>
      </trkpt>
      <trkpt lat="43.67508" lon="3.73066">
        <ele>129.11953387585</ele>
        <time>2020-08-08T09:25:38.000Z</time>
      </trkpt>
      <trkpt lat="43.67507" lon="3.73069">
        <ele>129.21671563591</ele>
        <time>2020-08-08T09:25:39.000Z</time>
      </trkpt>
      <trkpt lat="43.67507" lon="3.73072">
        <ele>129.31389739596</ele>
        <time>2020-08-08T09:25:40.000Z</time>
      </trkpt>
      <trkpt lat="43.67506" lon="3.73074">
        <ele>129.41107915602</ele>
        <time>2020-08-08T09:25:41.000Z</time>
      </trkpt>
      <trkpt lat="43.67505" lon="3.73077">
        <ele>129.50826091608</ele>
        <time>2020-08-08T09:25:42.000Z</time>
      </trkpt>
      <trkpt lat="43.67505" lon="3.7308">
        <ele>129.60544267613</ele>
        <time>2020-08-08T09:25:43.000Z</time>
      </trkpt>
      <trkpt lat="43.67504" lon="3.73082">
        <ele>129.70262443619</ele>
        <time>2020-08-08T09:25:44.000Z</time>
      </trkpt>
      <trkpt lat="43.67504" lon="3.73085">
        <ele>129.79980619625</ele>
        <time>2020-08-08T09:25:45.000Z</time>
      </trkpt>
      <trkpt lat="43.67503" lon="3.73087">
        <ele>129.8969879563</ele>
        <time>2020-08-08T09:25:46.000Z</time>
      </trkpt>
      <trkpt lat="43.67503" lon="3.7309">
        <ele>129.99416971636</ele>
        <time>2020-08-08T09:25:47.000Z</time>
      </trkpt>
      <trkpt lat="43.67502" lon="3.73094">
        <ele>130.59938386014</ele>
        <time>2020-08-08T09:25:49.000Z</time>
      </trkpt>
      <trkpt lat="43.67502" lon="3.73099">
        <ele>131.21730332694</ele>
        <time>2020-08-08T09:25:51.000Z</time>
      </trkpt>
      <trkpt lat="43.67501" lon="3.73104">
        <ele>131.83522279375</ele>
        <time>2020-08-08T09:25:53.000Z</time>
      </trkpt>
      <trkpt lat="43.675" lon="3.73108">
        <ele>132.45314226055</ele>
        <time>2020-08-08T09:25:55.000Z</time>
      </trkpt>
      <trkpt lat="43.675" lon="3.73113">
        <ele>133.04600064</ele>
        <time>2020-08-08T09:25:57.000Z</time>
      </trkpt>
      <trkpt lat="43.67499" lon="3.73117">
        <ele>133.44600064</ele>
        <time>2020-08-08T09:25:59.000Z</time>
      </trkpt>
      <trkpt lat="43.67499" lon="3.73121">
        <ele>133.84600064</ele>
        <time>2020-08-08T09:26:01.000Z</time>
      </trkpt>
      <trkpt lat="43.67498" lon="3.73125">
        <ele>134.24600064</ele>
        <time>2020-08-08T09:26:03.000Z</time>
      </trkpt>
      <trkpt lat="43.67498" lon="3.73129">
        <ele>134.64600064</ele>
        <time>2020-08-08T09:26:05.000Z</time>
      </trkpt>
      <trkpt lat="43.67497" lon="3.73132">
        <ele>135.04600064</ele>
        <time>2020-08-08T09:26:07.000Z</time>
      </trkpt>
      <trkpt lat="43.67496" lon="3.73136">
        <ele>135.44600064</ele>
        <time>2020-08-08T09:26:09.000Z</time>
      </trkpt>
      <trkpt lat="43.67496" lon="3.7314">
        <ele>135.84600064</ele>
        <time>2020-08-08T09:26:11.000Z</time>
      </trkpt>
      <trkpt lat="43.67495" lon="3.73144">
        <ele>136.24600064</ele>
        <time>2020-08-08T09:26:13.000Z</time>
      </trkpt>
      <trkpt lat="43.67495" lon="3.73148">
        <ele>136.64600064</ele>
        <time>2020-08-08T09:26:15.000Z</time>
      </trkpt>
      <trkpt lat="43.67495" lon="3.73152">
        <ele>137.04600064</ele>
        <time>2020-08-08T09:26:17.000Z</time>
      </trkpt>
      <trkpt lat="43.67495" lon="3.73156">
        <ele>137.44600064</ele>
        <time>2020-08-08T09:26:19.000Z</time>
      </trkpt>
      <trkpt lat="43.67495" lon="3.7316">
        <ele>137.84600064</ele>
        <time>2020-08-08T09:26:21.000Z</time>
      </trkpt>
      <trkpt lat="43.67495" lon="3.73164">
        <ele>138.24600064</ele>
        <time>2020-08-08T09:26:23.000Z</time>
      </trkpt>
      <trkpt lat="43.67495" lon="3.73168">
        <ele>138.64600064</ele>
        <time>2020-08-08T09:26:25.000Z</time>
      </trkpt>
      <trkpt lat="43.67494" lon="3.73171">
        <ele>139.04470423159</ele>
        <time>2020-08-08T09:26:27.000Z</time>
      </trkpt>
      <trkpt lat="43.67494" lon="3.73175">
        <ele>139.43343127182</ele>
        <time>2020-08-08T09:26:29.000Z</time>
      </trkpt>
      <trkpt lat="43.67493" lon="3.73179">
        <ele>139.82215831204</ele>
        <time>2020-08-08T09:26:31.000Z</time>
      </trkpt>
      <trkpt lat="43.67493" lon="3.73182">
        <ele>140.21088535227</ele>
        <time>2020-08-08T09:26:33.000Z</time>
      </trkpt>
      <trkpt lat="43.67493" lon="3.73186">
        <ele>140.59961239249</ele>
        <time>2020-08-08T09:26:35.000Z</time>
      </trkpt>
      <trkpt lat="43.67492" lon="3.7319">
        <ele>140.98833943272</ele>
        <time>2020-08-08T09:26:37.000Z</time>
      </trkpt>
      <trkpt lat="43.67492" lon="3.73194">
        <ele>141.19979462005</ele>
        <time>2020-08-08T09:26:39.000Z</time>
      </trkpt>
      <trkpt lat="43.67492" lon="3.73198">
        <ele>141.40576777565</ele>
        <time>2020-08-08T09:26:41.000Z</time>
      </trkpt>
      <trkpt lat="43.67492" lon="3.73201">
        <ele>141.61174093125</ele>
        <time>2020-08-08T09:26:43.000Z</time>
      </trkpt>
      <trkpt lat="43.67492" lon="3.73204">
        <ele>141.81771408685</ele>
        <time>2020-08-08T09:26:45.000Z</time>
      </trkpt>
      <trkpt lat="43.67492" lon="3.73208">
        <ele>142.0223521158</ele>
        <time>2020-08-08T09:26:47.000Z</time>
      </trkpt>
      <trkpt lat="43.67492" lon="3.73212">
        <ele>142.21671563591</ele>
        <time>2020-08-08T09:26:49.000Z</time>
      </trkpt>
      <trkpt lat="43.67494" lon="3.73215">
        <ele>142.41107915602</ele>
        <time>2020-08-08T09:26:51.000Z</time>
      </trkpt>
      <trkpt lat="43.67496" lon="3.73218">
        <ele>142.60544267613</ele>
        <time>2020-08-08T09:26:53.000Z</time>
      </trkpt>
      <trkpt lat="43.67498" lon="3.7322">
        <ele>142.79980619625</ele>
        <time>2020-08-08T09:26:55.000Z</time>
      </trkpt>
      <trkpt lat="43.675" lon="3.73222">
        <ele>142.99416971636</ele>
        <time>2020-08-08T09:26:57.000Z</time>
      </trkpt>
      <trkpt lat="43.67502" lon="3.73224">
        <ele>143.19979462005</ele>
        <time>2020-08-08T09:26:59.000Z</time>
      </trkpt>
      <trkpt lat="43.67504" lon="3.73226">
        <ele>143.40576777565</ele>
        <time>2020-08-08T09:27:01.000Z</time>
      </trkpt>
      <trkpt lat="43.67505" lon="3.73228">
        <ele>143.61174093125</ele>
        <time>2020-08-08T09:27:03.000Z</time>
      </trkpt>
      <trkpt lat="43.67507" lon="3.73228">
        <ele>143.81771408685</ele>
        <time>2020-08-08T09:27:05.000Z</time>
      </trkpt>
      <trkpt lat="43.67508" lon="3.73228">
        <ele>144</ele>
        <time>2020-08-08T09:27:10.000Z</time>
      </trkpt>
      <trkpt lat="43.67513" lon="3.73229">
        <ele>144</ele>
        <time>2020-08-08T09:27:25.000Z</time>
      </trkpt>
      <trkpt lat="43.67515" lon="3.7323">
        <ele>144</ele>
        <time>2020-08-08T09:27:26.000Z</time>
      </trkpt>
      <trkpt lat="43.67516" lon="3.73232">
        <ele>144</ele>
        <time>2020-08-08T09:27:27.000Z</time>
      </trkpt>
      <trkpt lat="43.67518" lon="3.73233">
        <ele>144</ele>
        <time>2020-08-08T09:27:28.000Z</time>
      </trkpt>
      <trkpt lat="43.67521" lon="3.73234">
        <ele>144</ele>
        <time>2020-08-08T09:27:29.000Z</time>
      </trkpt>
      <trkpt lat="43.67523" lon="3.73234">
        <ele>144</ele>
        <time>2020-08-08T09:27:30.000Z</time>
      </trkpt>
      <trkpt lat="43.67525" lon="3.73235">
        <ele>144</ele>
        <time>2020-08-08T09:27:31.000Z</time>
      </trkpt>
      <trkpt lat="43.67528" lon="3.73236">
        <ele>144</ele>
        <time>2020-08-08T09:27:32.000Z</time>
      </trkpt>
      <trkpt lat="43.6753" lon="3.73237">
        <ele>144</ele>
        <time>2020-08-08T09:27:33.000Z</time>
      </trkpt>
      <trkpt lat="43.67533" lon="3.73238">
        <ele>144</ele>
        <time>2020-08-08T09:27:34.000Z</time>
      </trkpt>
      <trkpt lat="43.67536" lon="3.73239">
        <ele>144</ele>
        <time>2020-08-08T09:27:35.000Z</time>
      </trkpt>
      <trkpt lat="43.67538" lon="3.73241">
        <ele>144</ele>
        <time>2020-08-08T09:27:36.000Z</time>
      </trkpt>
      <trkpt lat="43.67541" lon="3.73242">
        <ele>144</ele>
        <time>2020-08-08T09:27:37.000Z</time>
      </trkpt>
      <trkpt lat="43.67543" lon="3.73244">
        <ele>144</ele>
        <time>2020-08-08T09:27:38.000Z</time>
      </trkpt>
      <trkpt lat="43.67546" lon="3.73245">
        <ele>144</ele>
        <time>2020-08-08T09:27:39.000Z</time>
      </trkpt>
      <trkpt lat="43.67548" lon="3.73247">
        <ele>144</ele>
        <time>2020-08-08T09:27:40.000Z</time>
      </trkpt>
      <trkpt lat="43.67551" lon="3.73248">
        <ele>144</ele>
        <time>2020-08-08T09:27:41.000Z</time>
      </trkpt>
      <trkpt lat="43.67553" lon="3.73249">
        <ele>144</ele>
        <time>2020-08-08T09:27:42.000Z</time>
      </trkpt>
      <trkpt lat="43.67556" lon="3.73251">
        <ele>144</ele>
        <time>2020-08-08T09:27:43.000Z</time>
      </trkpt>
      <trkpt lat="43.67559" lon="3.73253">
        <ele>144</ele>
        <time>2020-08-08T09:27:44.000Z</time>
      </trkpt>
      <trkpt lat="43.67561" lon="3.73255">
        <ele>144</ele>
        <time>2020-08-08T09:27:45.000Z</time>
      </trkpt>
      <trkpt lat="43.67564" lon="3.73256">
        <ele>144.09680804225</ele>
        <time>2020-08-08T09:27:46.000Z</time>
      </trkpt>
      <trkpt lat="43.67566" lon="3.73258">
        <ele>144.19979462005</ele>
        <time>2020-08-08T09:27:47.000Z</time>
      </trkpt>
      <trkpt lat="43.67568" lon="3.7326">
        <ele>144.30278119785</ele>
        <time>2020-08-08T09:27:48.000Z</time>
      </trkpt>
      <trkpt lat="43.67571" lon="3.73262">
        <ele>144.40576777565</ele>
        <time>2020-08-08T09:27:49.000Z</time>
      </trkpt>
      <trkpt lat="43.67573" lon="3.73264">
        <ele>144.50875435345</ele>
        <time>2020-08-08T09:27:50.000Z</time>
      </trkpt>
      <trkpt lat="43.67575" lon="3.73266">
        <ele>144.61174093125</ele>
        <time>2020-08-08T09:27:51.000Z</time>
      </trkpt>
      <trkpt lat="43.67578" lon="3.73268">
        <ele>144.71472750905</ele>
        <time>2020-08-08T09:27:52.000Z</time>
      </trkpt>
      <trkpt lat="43.67581" lon="3.73271">
        <ele>144.81771408685</ele>
        <time>2020-08-08T09:27:53.000Z</time>
      </trkpt>
      <trkpt lat="43.67583" lon="3.73273">
        <ele>144.92070066465</ele>
        <time>2020-08-08T09:27:54.000Z</time>
      </trkpt>
      <trkpt lat="43.67586" lon="3.73277">
        <ele>144.97699968</ele>
        <time>2020-08-08T09:27:55.000Z</time>
      </trkpt>
      <trkpt lat="43.67589" lon="3.7328">
        <ele>144.87699968</ele>
        <time>2020-08-08T09:27:56.000Z</time>
      </trkpt>
      <trkpt lat="43.67592" lon="3.73284">
        <ele>144.77699968</ele>
        <time>2020-08-08T09:27:57.000Z</time>
      </trkpt>
      <trkpt lat="43.67596" lon="3.73289">
        <ele>144.67699968</ele>
        <time>2020-08-08T09:27:58.000Z</time>
      </trkpt>
      <trkpt lat="43.67599" lon="3.73294">
        <ele>144.57699968</ele>
        <time>2020-08-08T09:27:59.000Z</time>
      </trkpt>
      <trkpt lat="43.67602" lon="3.733">
        <ele>144.47699968</ele>
        <time>2020-08-08T09:28:00.000Z</time>
      </trkpt>
      <trkpt lat="43.67605" lon="3.73307">
        <ele>144.37699968</ele>
        <time>2020-08-08T09:28:01.000Z</time>
      </trkpt>
      <trkpt lat="43.67608" lon="3.73313">
        <ele>144.27699968</ele>
        <time>2020-08-08T09:28:02.000Z</time>
      </trkpt>
      <trkpt lat="43.67612" lon="3.7332">
        <ele>144.17699968</ele>
        <time>2020-08-08T09:28:03.000Z</time>
      </trkpt>
      <trkpt lat="43.67615" lon="3.73326">
        <ele>144.07699968</ele>
        <time>2020-08-08T09:28:04.000Z</time>
      </trkpt>
      <trkpt lat="43.67619" lon="3.73333">
        <ele>143.97769125814</ele>
        <time>2020-08-08T09:28:05.000Z</time>
      </trkpt>
      <trkpt lat="43.67622" lon="3.73339">
        <ele>143.88069807777</ele>
        <time>2020-08-08T09:28:06.000Z</time>
      </trkpt>
      <trkpt lat="43.67626" lon="3.73345">
        <ele>143.7837048974</ele>
        <time>2020-08-08T09:28:07.000Z</time>
      </trkpt>
      <trkpt lat="43.67628" lon="3.73352">
        <ele>143.68671171702</ele>
        <time>2020-08-08T09:28:08.000Z</time>
      </trkpt>
      <trkpt lat="43.6763" lon="3.73358">
        <ele>143.58971853665</ele>
        <time>2020-08-08T09:28:09.000Z</time>
      </trkpt>
      <trkpt lat="43.67632" lon="3.73366">
        <ele>143.49272535628</ele>
        <time>2020-08-08T09:28:10.000Z</time>
      </trkpt>
      <trkpt lat="43.67633" lon="3.73375">
        <ele>143.39573217591</ele>
        <time>2020-08-08T09:28:11.000Z</time>
      </trkpt>
      <trkpt lat="43.67634" lon="3.73384">
        <ele>143.29873899554</ele>
        <time>2020-08-08T09:28:12.000Z</time>
      </trkpt>
      <trkpt lat="43.67634" lon="3.73394">
        <ele>143.20174581517</ele>
        <time>2020-08-08T09:28:13.000Z</time>
      </trkpt>
      <trkpt lat="43.67635" lon="3.73403">
        <ele>143.1047526348</ele>
        <time>2020-08-08T09:28:14.000Z</time>
      </trkpt>
      <trkpt lat="43.67636" lon="3.73413">
        <ele>143.00775945443</ele>
        <time>2020-08-08T09:28:15.000Z</time>
      </trkpt>
      <trkpt lat="43.67637" lon="3.73422">
        <ele>142.71865434248</ele>
        <time>2020-08-08T09:28:16.000Z</time>
      </trkpt>
      <trkpt lat="43.67638" lon="3.73431">
        <ele>142.41284384517</ele>
        <time>2020-08-08T09:28:17.000Z</time>
      </trkpt>
      <trkpt lat="43.67639" lon="3.7344">
        <ele>142.10703334786</ele>
        <time>2020-08-08T09:28:18.000Z</time>
      </trkpt>
      <trkpt lat="43.67641" lon="3.73449">
        <ele>141.80122285055</ele>
        <time>2020-08-08T09:28:19.000Z</time>
      </trkpt>
      <trkpt lat="43.67642" lon="3.73457">
        <ele>141.49541235324</ele>
        <time>2020-08-08T09:28:20.000Z</time>
      </trkpt>
      <trkpt lat="43.67644" lon="3.73466">
        <ele>141.18960185593</ele>
        <time>2020-08-08T09:28:21.000Z</time>
      </trkpt>
      <trkpt lat="43.67646" lon="3.73474">
        <ele>140.88379135863</ele>
        <time>2020-08-08T09:28:22.000Z</time>
      </trkpt>
      <trkpt lat="43.67648" lon="3.73483">
        <ele>140.57798086132</ele>
        <time>2020-08-08T09:28:23.000Z</time>
      </trkpt>
      <trkpt lat="43.6765" lon="3.73491">
        <ele>140.27217036401</ele>
        <time>2020-08-08T09:28:24.000Z</time>
      </trkpt>
      <trkpt lat="43.67652" lon="3.73498">
        <ele>139.96659821862</ele>
        <time>2020-08-08T09:28:25.000Z</time>
      </trkpt>
      <trkpt lat="43.67655" lon="3.73504">
        <ele>139.66295449393</ele>
        <time>2020-08-08T09:28:26.000Z</time>
      </trkpt>
      <trkpt lat="43.67658" lon="3.73513">
        <ele>139.35931076923</ele>
        <time>2020-08-08T09:28:27.000Z</time>
      </trkpt>
      <trkpt lat="43.67661" lon="3.73521">
        <ele>139.05566704453</ele>
        <time>2020-08-08T09:28:28.000Z</time>
      </trkpt>
      <trkpt lat="43.67664" lon="3.73529">
        <ele>138.75202331984</ele>
        <time>2020-08-08T09:28:29.000Z</time>
      </trkpt>
      <trkpt lat="43.67668" lon="3.73538">
        <ele>138.44837959514</ele>
        <time>2020-08-08T09:28:30.000Z</time>
      </trkpt>
      <trkpt lat="43.67672" lon="3.73547">
        <ele>138.14473587045</ele>
        <time>2020-08-08T09:28:31.000Z</time>
      </trkpt>
      <trkpt lat="43.67677" lon="3.73555">
        <ele>137.84109214575</ele>
        <time>2020-08-08T09:28:32.000Z</time>
      </trkpt>
      <trkpt lat="43.67684" lon="3.73562">
        <ele>137.53744842105</ele>
        <time>2020-08-08T09:28:33.000Z</time>
      </trkpt>
      <trkpt lat="43.6769" lon="3.73569">
        <ele>137.23380469636</ele>
        <time>2020-08-08T09:28:34.000Z</time>
      </trkpt>
      <trkpt lat="43.67695" lon="3.73576">
        <ele>136.95533921222</ele>
        <time>2020-08-08T09:28:35.000Z</time>
      </trkpt>
      <trkpt lat="43.67701" lon="3.73581">
        <ele>136.76116457559</ele>
        <time>2020-08-08T09:28:36.000Z</time>
      </trkpt>
      <trkpt lat="43.67707" lon="3.73586">
        <ele>136.56698993896</ele>
        <time>2020-08-08T09:28:37.000Z</time>
      </trkpt>
      <trkpt lat="43.67713" lon="3.73591">
        <ele>136.37281530233</ele>
        <time>2020-08-08T09:28:38.000Z</time>
      </trkpt>
      <trkpt lat="43.67719" lon="3.73596">
        <ele>136.1786406657</ele>
        <time>2020-08-08T09:28:39.000Z</time>
      </trkpt>
      <trkpt lat="43.67725" lon="3.736">
        <ele>135.98446602907</ele>
        <time>2020-08-08T09:28:40.000Z</time>
      </trkpt>
      <trkpt lat="43.67731" lon="3.73604">
        <ele>135.79029139244</ele>
        <time>2020-08-08T09:28:41.000Z</time>
      </trkpt>
      <trkpt lat="43.67737" lon="3.73608">
        <ele>135.59611675581</ele>
        <time>2020-08-08T09:28:42.000Z</time>
      </trkpt>
      <trkpt lat="43.67743" lon="3.73611">
        <ele>135.40194211918</ele>
        <time>2020-08-08T09:28:43.000Z</time>
      </trkpt>
      <trkpt lat="43.67748" lon="3.73615">
        <ele>135.20776748255</ele>
        <time>2020-08-08T09:28:44.000Z</time>
      </trkpt>
      <trkpt lat="43.67754" lon="3.73619">
        <ele>135.01359284592</ele>
        <time>2020-08-08T09:28:45.000Z</time>
      </trkpt>
      <trkpt lat="43.67759" lon="3.73623">
        <ele>134.61649591191</ele>
        <time>2020-08-08T09:28:46.000Z</time>
      </trkpt>
      <trkpt lat="43.67764" lon="3.73627">
        <ele>134.20412450581</ele>
        <time>2020-08-08T09:28:47.000Z</time>
      </trkpt>
      <trkpt lat="43.67769" lon="3.73631">
        <ele>133.79175309971</ele>
        <time>2020-08-08T09:28:48.000Z</time>
      </trkpt>
      <trkpt lat="43.67774" lon="3.73635">
        <ele>133.37938169361</ele>
        <time>2020-08-08T09:28:49.000Z</time>
      </trkpt>
      <trkpt lat="43.6778" lon="3.7364">
        <ele>132.96701028751</ele>
        <time>2020-08-08T09:28:50.000Z</time>
      </trkpt>
      <trkpt lat="43.67786" lon="3.73644">
        <ele>132.55463888141</ele>
        <time>2020-08-08T09:28:51.000Z</time>
      </trkpt>
      <trkpt lat="43.67792" lon="3.73648">
        <ele>132.14226747531</ele>
        <time>2020-08-08T09:28:52.000Z</time>
      </trkpt>
      <trkpt lat="43.67797" lon="3.73652">
        <ele>131.72989606921</ele>
        <time>2020-08-08T09:28:53.000Z</time>
      </trkpt>
      <trkpt lat="43.67801" lon="3.73656">
        <ele>131.31752466311</ele>
        <time>2020-08-08T09:28:54.000Z</time>
      </trkpt>
      <trkpt lat="43.67804" lon="3.7366">
        <ele>130.95529576841</ele>
        <time>2020-08-08T09:28:55.000Z</time>
      </trkpt>
      <trkpt lat="43.67806" lon="3.73664">
        <ele>130.7609322483</ele>
        <time>2020-08-08T09:28:56.000Z</time>
      </trkpt>
      <trkpt lat="43.67807" lon="3.73667">
        <ele>130.56656872818</ele>
        <time>2020-08-08T09:28:57.000Z</time>
      </trkpt>
      <trkpt lat="43.67809" lon="3.7367">
        <ele>130.37220520807</ele>
        <time>2020-08-08T09:28:58.000Z</time>
      </trkpt>
      <trkpt lat="43.6781" lon="3.73674">
        <ele>130.17784168796</ele>
        <time>2020-08-08T09:28:59.000Z</time>
      </trkpt>
      <trkpt lat="43.67811" lon="3.73679">
        <ele>129.98347816785</ele>
        <time>2020-08-08T09:29:00.000Z</time>
      </trkpt>
      <trkpt lat="43.67813" lon="3.73684">
        <ele>129.78911464773</ele>
        <time>2020-08-08T09:29:01.000Z</time>
      </trkpt>
      <trkpt lat="43.67816" lon="3.73688">
        <ele>129.59475112762</ele>
        <time>2020-08-08T09:29:02.000Z</time>
      </trkpt>
      <trkpt lat="43.6782" lon="3.73691">
        <ele>129.40038760751</ele>
        <time>2020-08-08T09:29:03.000Z</time>
      </trkpt>
      <trkpt lat="43.67824" lon="3.73695">
        <ele>129.20602408739</ele>
        <time>2020-08-08T09:29:04.000Z</time>
      </trkpt>
      <trkpt lat="43.67828" lon="3.73698">
        <ele>129.01166056728</ele>
        <time>2020-08-08T09:29:05.000Z</time>
      </trkpt>
      <trkpt lat="43.67832" lon="3.73702">
        <ele>128.62512219338</ele>
        <time>2020-08-08T09:29:06.000Z</time>
      </trkpt>
      <trkpt lat="43.67836" lon="3.73706">
        <ele>128.22631873138</ele>
        <time>2020-08-08T09:29:07.000Z</time>
      </trkpt>
      <trkpt lat="43.6784" lon="3.73711">
        <ele>127.82751526939</ele>
        <time>2020-08-08T09:29:08.000Z</time>
      </trkpt>
      <trkpt lat="43.67845" lon="3.73715">
        <ele>127.42871180739</ele>
        <time>2020-08-08T09:29:09.000Z</time>
      </trkpt>
      <trkpt lat="43.67849" lon="3.73719">
        <ele>127.02990834539</ele>
        <time>2020-08-08T09:29:10.000Z</time>
      </trkpt>
      <trkpt lat="43.67853" lon="3.73724">
        <ele>126.6311048834</ele>
        <time>2020-08-08T09:29:11.000Z</time>
      </trkpt>
      <trkpt lat="43.67856" lon="3.73729">
        <ele>126.2323014214</ele>
        <time>2020-08-08T09:29:12.000Z</time>
      </trkpt>
      <trkpt lat="43.6786" lon="3.73734">
        <ele>125.8334979594</ele>
        <time>2020-08-08T09:29:13.000Z</time>
      </trkpt>
      <trkpt lat="43.67863" lon="3.73739">
        <ele>125.43469449741</ele>
        <time>2020-08-08T09:29:14.000Z</time>
      </trkpt>
      <trkpt lat="43.67867" lon="3.73744">
        <ele>125.03589103541</ele>
        <time>2020-08-08T09:29:15.000Z</time>
      </trkpt>
      <trkpt lat="43.6787" lon="3.73749">
        <ele>124.81198280992</ele>
        <time>2020-08-08T09:29:16.000Z</time>
      </trkpt>
      <trkpt lat="43.67873" lon="3.73754">
        <ele>124.60537123967</ele>
        <time>2020-08-08T09:29:17.000Z</time>
      </trkpt>
      <trkpt lat="43.67876" lon="3.73758">
        <ele>124.39875966942</ele>
        <time>2020-08-08T09:29:18.000Z</time>
      </trkpt>
      <trkpt lat="43.67879" lon="3.73763">
        <ele>124.19214809917</ele>
        <time>2020-08-08T09:29:19.000Z</time>
      </trkpt>
      <trkpt lat="43.67881" lon="3.73767">
        <ele>123.98553652893</ele>
        <time>2020-08-08T09:29:20.000Z</time>
      </trkpt>
      <trkpt lat="43.67883" lon="3.73771">
        <ele>123.77892495868</ele>
        <time>2020-08-08T09:29:21.000Z</time>
      </trkpt>
      <trkpt lat="43.67885" lon="3.73775">
        <ele>123.57231338843</ele>
        <time>2020-08-08T09:29:22.000Z</time>
      </trkpt>
      <trkpt lat="43.67886" lon="3.73778">
        <ele>123.36570181818</ele>
        <time>2020-08-08T09:29:23.000Z</time>
      </trkpt>
      <trkpt lat="43.67887" lon="3.73782">
        <ele>123.15909024793</ele>
        <time>2020-08-08T09:29:24.000Z</time>
      </trkpt>
      <trkpt lat="43.67889" lon="3.73786">
        <ele>123</ele>
        <time>2020-08-08T09:29:25.000Z</time>
      </trkpt>
      <trkpt lat="43.6789" lon="3.73789">
        <ele>123</ele>
        <time>2020-08-08T09:29:26.000Z</time>
      </trkpt>
      <trkpt lat="43.67892" lon="3.73793">
        <ele>123</ele>
        <time>2020-08-08T09:29:27.000Z</time>
      </trkpt>
      <trkpt lat="43.67893" lon="3.73797">
        <ele>123</ele>
        <time>2020-08-08T09:29:28.000Z</time>
      </trkpt>
      <trkpt lat="43.67894" lon="3.73801">
        <ele>123</ele>
        <time>2020-08-08T09:29:29.000Z</time>
      </trkpt>
      <trkpt lat="43.67896" lon="3.73804">
        <ele>123</ele>
        <time>2020-08-08T09:29:30.000Z</time>
      </trkpt>
      <trkpt lat="43.67897" lon="3.73808">
        <ele>123</ele>
        <time>2020-08-08T09:29:31.000Z</time>
      </trkpt>
      <trkpt lat="43.67898" lon="3.73812">
        <ele>123</ele>
        <time>2020-08-08T09:29:32.000Z</time>
      </trkpt>
      <trkpt lat="43.679" lon="3.73816">
        <ele>123</ele>
        <time>2020-08-08T09:29:33.000Z</time>
      </trkpt>
      <trkpt lat="43.67901" lon="3.7382">
        <ele>123</ele>
        <time>2020-08-08T09:29:34.000Z</time>
      </trkpt>
      <trkpt lat="43.67902" lon="3.73824">
        <ele>123</ele>
        <time>2020-08-08T09:29:35.000Z</time>
      </trkpt>
      <trkpt lat="43.67903" lon="3.73828">
        <ele>123</ele>
        <time>2020-08-08T09:29:36.000Z</time>
      </trkpt>
      <trkpt lat="43.67904" lon="3.73832">
        <ele>123</ele>
        <time>2020-08-08T09:29:37.000Z</time>
      </trkpt>
      <trkpt lat="43.67905" lon="3.73836">
        <ele>123</ele>
        <time>2020-08-08T09:29:38.000Z</time>
      </trkpt>
      <trkpt lat="43.67906" lon="3.7384">
        <ele>123</ele>
        <time>2020-08-08T09:29:39.000Z</time>
      </trkpt>
      <trkpt lat="43.67907" lon="3.73844">
        <ele>123</ele>
        <time>2020-08-08T09:29:40.000Z</time>
      </trkpt>
      <trkpt lat="43.67908" lon="3.73848">
        <ele>123</ele>
        <time>2020-08-08T09:29:41.000Z</time>
      </trkpt>
      <trkpt lat="43.67909" lon="3.73851">
        <ele>123</ele>
        <time>2020-08-08T09:29:42.000Z</time>
      </trkpt>
      <trkpt lat="43.6791" lon="3.73855">
        <ele>123</ele>
        <time>2020-08-08T09:29:43.000Z</time>
      </trkpt>
      <trkpt lat="43.67911" lon="3.73859">
        <ele>123</ele>
        <time>2020-08-08T09:29:44.000Z</time>
      </trkpt>
      <trkpt lat="43.67913" lon="3.73863">
        <ele>123</ele>
        <time>2020-08-08T09:29:45.000Z</time>
      </trkpt>
      <trkpt lat="43.67914" lon="3.73867">
        <ele>123.09494327181</ele>
        <time>2020-08-08T09:29:46.000Z</time>
      </trkpt>
      <trkpt lat="43.67915" lon="3.73872">
        <ele>123.1981424803</ele>
        <time>2020-08-08T09:29:47.000Z</time>
      </trkpt>
      <trkpt lat="43.67916" lon="3.73876">
        <ele>123.30134168878</ele>
        <time>2020-08-08T09:29:48.000Z</time>
      </trkpt>
      <trkpt lat="43.67917" lon="3.7388">
        <ele>123.40454089727</ele>
        <time>2020-08-08T09:29:49.000Z</time>
      </trkpt>
      <trkpt lat="43.67918" lon="3.73884">
        <ele>123.50774010576</ele>
        <time>2020-08-08T09:29:50.000Z</time>
      </trkpt>
      <trkpt lat="43.67919" lon="3.73887">
        <ele>123.61093931424</ele>
        <time>2020-08-08T09:29:51.000Z</time>
      </trkpt>
      <trkpt lat="43.6792" lon="3.73889">
        <ele>123.71413852273</ele>
        <time>2020-08-08T09:29:52.000Z</time>
      </trkpt>
      <trkpt lat="43.67921" lon="3.73894">
        <ele>123.9205369397</ele>
        <time>2020-08-08T09:29:54.000Z</time>
      </trkpt>
      <trkpt lat="43.67922" lon="3.73898">
        <ele>124</ele>
        <time>2020-08-08T09:29:56.000Z</time>
      </trkpt>
      <trkpt lat="43.67923" lon="3.73902">
        <ele>124</ele>
        <time>2020-08-08T09:29:58.000Z</time>
      </trkpt>
      <trkpt lat="43.67923" lon="3.73905">
        <ele>124</ele>
        <time>2020-08-08T09:30:00.000Z</time>
      </trkpt>
      <trkpt lat="43.67921" lon="3.73902">
        <ele>124</ele>
        <time>2020-08-08T09:30:03.000Z</time>
      </trkpt>
      <trkpt lat="43.67921" lon="3.73899">
        <ele>124</ele>
        <time>2020-08-08T09:30:04.000Z</time>
      </trkpt>
      <trkpt lat="43.67921" lon="3.73896">
        <ele>124</ele>
        <time>2020-08-08T09:30:05.000Z</time>
      </trkpt>
      <trkpt lat="43.6792" lon="3.73893">
        <ele>124</ele>
        <time>2020-08-08T09:30:06.000Z</time>
      </trkpt>
      <trkpt lat="43.6792" lon="3.7389">
        <ele>124</ele>
        <time>2020-08-08T09:30:07.000Z</time>
      </trkpt>
      <trkpt lat="43.67918" lon="3.73887">
        <ele>124</ele>
        <time>2020-08-08T09:30:08.000Z</time>
      </trkpt>
      <trkpt lat="43.67917" lon="3.73883">
        <ele>124</ele>
        <time>2020-08-08T09:30:09.000Z</time>
      </trkpt>
      <trkpt lat="43.67916" lon="3.73879">
        <ele>124</ele>
        <time>2020-08-08T09:30:10.000Z</time>
      </trkpt>
      <trkpt lat="43.67915" lon="3.73875">
        <ele>124</ele>
        <time>2020-08-08T09:30:11.000Z</time>
      </trkpt>
      <trkpt lat="43.67915" lon="3.7387">
        <ele>124</ele>
        <time>2020-08-08T09:30:12.000Z</time>
      </trkpt>
      <trkpt lat="43.67915" lon="3.73865">
        <ele>124</ele>
        <time>2020-08-08T09:30:13.000Z</time>
      </trkpt>
      <trkpt lat="43.67917" lon="3.73861">
        <ele>124</ele>
        <time>2020-08-08T09:30:14.000Z</time>
      </trkpt>
      <trkpt lat="43.67918" lon="3.73857">
        <ele>124.02300032</ele>
        <time>2020-08-08T09:30:15.000Z</time>
      </trkpt>
      <trkpt lat="43.6792" lon="3.73853">
        <ele>124.12300032</ele>
        <time>2020-08-08T09:30:16.000Z</time>
      </trkpt>
      <trkpt lat="43.67922" lon="3.7385">
        <ele>124.22300032</ele>
        <time>2020-08-08T09:30:17.000Z</time>
      </trkpt>
      <trkpt lat="43.67924" lon="3.73846">
        <ele>124.32300032</ele>
        <time>2020-08-08T09:30:18.000Z</time>
      </trkpt>
      <trkpt lat="43.67927" lon="3.73843">
        <ele>124.42300032</ele>
        <time>2020-08-08T09:30:19.000Z</time>
      </trkpt>
      <trkpt lat="43.67929" lon="3.7384">
        <ele>124.52300032</ele>
        <time>2020-08-08T09:30:20.000Z</time>
      </trkpt>
      <trkpt lat="43.67932" lon="3.73837">
        <ele>124.62300032</ele>
        <time>2020-08-08T09:30:21.000Z</time>
      </trkpt>
      <trkpt lat="43.67935" lon="3.73834">
        <ele>124.72300032</ele>
        <time>2020-08-08T09:30:22.000Z</time>
      </trkpt>
      <trkpt lat="43.67938" lon="3.73832">
        <ele>124.82300032</ele>
        <time>2020-08-08T09:30:23.000Z</time>
      </trkpt>
      <trkpt lat="43.67941" lon="3.7383">
        <ele>124.92300032</ele>
        <time>2020-08-08T09:30:24.000Z</time>
      </trkpt>
      <trkpt lat="43.67944" lon="3.73829">
        <ele>125.02300032</ele>
        <time>2020-08-08T09:30:25.000Z</time>
      </trkpt>
      <trkpt lat="43.67947" lon="3.73828">
        <ele>125.12300032</ele>
        <time>2020-08-08T09:30:26.000Z</time>
      </trkpt>
      <trkpt lat="43.6795" lon="3.73827">
        <ele>125.22300032</ele>
        <time>2020-08-08T09:30:27.000Z</time>
      </trkpt>
      <trkpt lat="43.67953" lon="3.73826">
        <ele>125.32300032</ele>
        <time>2020-08-08T09:30:28.000Z</time>
      </trkpt>
      <trkpt lat="43.67956" lon="3.73826">
        <ele>125.42300032</ele>
        <time>2020-08-08T09:30:29.000Z</time>
      </trkpt>
      <trkpt lat="43.67959" lon="3.73825">
        <ele>125.52300032</ele>
        <time>2020-08-08T09:30:30.000Z</time>
      </trkpt>
      <trkpt lat="43.67962" lon="3.73824">
        <ele>125.62300032</ele>
        <time>2020-08-08T09:30:31.000Z</time>
      </trkpt>
      <trkpt lat="43.67965" lon="3.73824">
        <ele>125.72300032</ele>
        <time>2020-08-08T09:30:32.000Z</time>
      </trkpt>
      <trkpt lat="43.67968" lon="3.73823">
        <ele>125.82300032</ele>
        <time>2020-08-08T09:30:33.000Z</time>
      </trkpt>
      <trkpt lat="43.67971" lon="3.73823">
        <ele>125.92300032</ele>
        <time>2020-08-08T09:30:34.000Z</time>
      </trkpt>
      <trkpt lat="43.67974" lon="3.73824">
        <ele>126</ele>
        <time>2020-08-08T09:30:35.000Z</time>
      </trkpt>
      <trkpt lat="43.67978" lon="3.73824">
        <ele>126</ele>
        <time>2020-08-08T09:30:36.000Z</time>
      </trkpt>
      <trkpt lat="43.67981" lon="3.73824">
        <ele>126</ele>
        <time>2020-08-08T09:30:37.000Z</time>
      </trkpt>
      <trkpt lat="43.67985" lon="3.73824">
        <ele>126</ele>
        <time>2020-08-08T09:30:38.000Z</time>
      </trkpt>
      <trkpt lat="43.67988" lon="3.73823">
        <ele>126</ele>
        <time>2020-08-08T09:30:39.000Z</time>
      </trkpt>
      <trkpt lat="43.67992" lon="3.73822">
        <ele>126</ele>
        <time>2020-08-08T09:30:40.000Z</time>
      </trkpt>
      <trkpt lat="43.67996" lon="3.73821">
        <ele>126</ele>
        <time>2020-08-08T09:30:41.000Z</time>
      </trkpt>
      <trkpt lat="43.67999" lon="3.73819">
        <ele>126</ele>
        <time>2020-08-08T09:30:42.000Z</time>
      </trkpt>
      <trkpt lat="43.68003" lon="3.73817">
        <ele>126</ele>
        <time>2020-08-08T09:30:43.000Z</time>
      </trkpt>
      <trkpt lat="43.68008" lon="3.73815">
        <ele>126</ele>
        <time>2020-08-08T09:30:44.000Z</time>
      </trkpt>
      <trkpt lat="43.68012" lon="3.73813">
        <ele>125.97779891892</ele>
        <time>2020-08-08T09:30:45.000Z</time>
      </trkpt>
      <trkpt lat="43.68017" lon="3.73811">
        <ele>125.88127382239</ele>
        <time>2020-08-08T09:30:46.000Z</time>
      </trkpt>
      <trkpt lat="43.68022" lon="3.7381">
        <ele>125.78474872587</ele>
        <time>2020-08-08T09:30:47.000Z</time>
      </trkpt>
      <trkpt lat="43.68027" lon="3.73809">
        <ele>125.68822362934</ele>
        <time>2020-08-08T09:30:48.000Z</time>
      </trkpt>
      <trkpt lat="43.68032" lon="3.73808">
        <ele>125.59169853282</ele>
        <time>2020-08-08T09:30:49.000Z</time>
      </trkpt>
      <trkpt lat="43.68037" lon="3.73807">
        <ele>125.49517343629</ele>
        <time>2020-08-08T09:30:50.000Z</time>
      </trkpt>
      <trkpt lat="43.68042" lon="3.73806">
        <ele>125.39864833977</ele>
        <time>2020-08-08T09:30:51.000Z</time>
      </trkpt>
      <trkpt lat="43.68047" lon="3.73804">
        <ele>125.30212324324</ele>
        <time>2020-08-08T09:30:52.000Z</time>
      </trkpt>
      <trkpt lat="43.68053" lon="3.73804">
        <ele>125.20559814672</ele>
        <time>2020-08-08T09:30:53.000Z</time>
      </trkpt>
      <trkpt lat="43.68058" lon="3.73804">
        <ele>125.10907305019</ele>
        <time>2020-08-08T09:30:54.000Z</time>
      </trkpt>
      <trkpt lat="43.68064" lon="3.73805">
        <ele>125.01254795367</ele>
        <time>2020-08-08T09:30:55.000Z</time>
      </trkpt>
      <trkpt lat="43.68069" lon="3.73806">
        <ele>124.90975070539</ele>
        <time>2020-08-08T09:30:56.000Z</time>
      </trkpt>
      <trkpt lat="43.68075" lon="3.73808">
        <ele>124.80601626556</ele>
        <time>2020-08-08T09:30:57.000Z</time>
      </trkpt>
      <trkpt lat="43.68081" lon="3.73811">
        <ele>124.70228182573</ele>
        <time>2020-08-08T09:30:58.000Z</time>
      </trkpt>
      <trkpt lat="43.68087" lon="3.73813">
        <ele>124.59854738589</ele>
        <time>2020-08-08T09:30:59.000Z</time>
      </trkpt>
      <trkpt lat="43.68092" lon="3.73816">
        <ele>124.49481294606</ele>
        <time>2020-08-08T09:31:00.000Z</time>
      </trkpt>
      <trkpt lat="43.68096" lon="3.7382">
        <ele>124.39107850622</ele>
        <time>2020-08-08T09:31:01.000Z</time>
      </trkpt>
      <trkpt lat="43.681" lon="3.73821">
        <ele>124.28734406639</ele>
        <time>2020-08-08T09:31:02.000Z</time>
      </trkpt>
      <trkpt lat="43.68103" lon="3.73822">
        <ele>124.18360962656</ele>
        <time>2020-08-08T09:31:03.000Z</time>
      </trkpt>
      <trkpt lat="43.68106" lon="3.73822">
        <ele>124.07987518672</ele>
        <time>2020-08-08T09:31:04.000Z</time>
      </trkpt>
      <trkpt lat="43.68109" lon="3.73822">
        <ele>124.02300032</ele>
        <time>2020-08-08T09:31:05.000Z</time>
      </trkpt>
      <trkpt lat="43.68112" lon="3.73821">
        <ele>124.12300032</ele>
        <time>2020-08-08T09:31:06.000Z</time>
      </trkpt>
      <trkpt lat="43.68114" lon="3.7382">
        <ele>124.22300032</ele>
        <time>2020-08-08T09:31:07.000Z</time>
      </trkpt>
      <trkpt lat="43.68116" lon="3.73819">
        <ele>124.32300032</ele>
        <time>2020-08-08T09:31:08.000Z</time>
      </trkpt>
      <trkpt lat="43.68119" lon="3.73819">
        <ele>124.42300032</ele>
        <time>2020-08-08T09:31:09.000Z</time>
      </trkpt>
      <trkpt lat="43.68121" lon="3.73819">
        <ele>124.52300032</ele>
        <time>2020-08-08T09:31:10.000Z</time>
      </trkpt>
      <trkpt lat="43.68123" lon="3.7382">
        <ele>124.62300032</ele>
        <time>2020-08-08T09:31:11.000Z</time>
      </trkpt>
      <trkpt lat="43.68126" lon="3.73821">
        <ele>124.72300032</ele>
        <time>2020-08-08T09:31:12.000Z</time>
      </trkpt>
      <trkpt lat="43.68128" lon="3.73821">
        <ele>124.82300032</ele>
        <time>2020-08-08T09:31:13.000Z</time>
      </trkpt>
      <trkpt lat="43.68131" lon="3.73821">
        <ele>124.92300032</ele>
        <time>2020-08-08T09:31:14.000Z</time>
      </trkpt>
      <trkpt lat="43.68133" lon="3.73821">
        <ele>125</ele>
        <time>2020-08-08T09:31:15.000Z</time>
      </trkpt>
      <trkpt lat="43.68135" lon="3.73821">
        <ele>125</ele>
        <time>2020-08-08T09:31:16.000Z</time>
      </trkpt>
      <trkpt lat="43.68137" lon="3.73822">
        <ele>125</ele>
        <time>2020-08-08T09:31:17.000Z</time>
      </trkpt>
      <trkpt lat="43.68139" lon="3.73824">
        <ele>125</ele>
        <time>2020-08-08T09:31:18.000Z</time>
      </trkpt>
      <trkpt lat="43.68142" lon="3.73825">
        <ele>125</ele>
        <time>2020-08-08T09:31:19.000Z</time>
      </trkpt>
      <trkpt lat="43.68144" lon="3.73826">
        <ele>125</ele>
        <time>2020-08-08T09:31:20.000Z</time>
      </trkpt>
      <trkpt lat="43.68147" lon="3.73828">
        <ele>125</ele>
        <time>2020-08-08T09:31:21.000Z</time>
      </trkpt>
      <trkpt lat="43.6815" lon="3.7383">
        <ele>125</ele>
        <time>2020-08-08T09:31:22.000Z</time>
      </trkpt>
      <trkpt lat="43.68152" lon="3.73833">
        <ele>125</ele>
        <time>2020-08-08T09:31:23.000Z</time>
      </trkpt>
      <trkpt lat="43.68155" lon="3.73835">
        <ele>125</ele>
        <time>2020-08-08T09:31:24.000Z</time>
      </trkpt>
      <trkpt lat="43.68158" lon="3.73838">
        <ele>125</ele>
        <time>2020-08-08T09:31:25.000Z</time>
      </trkpt>
      <trkpt lat="43.68161" lon="3.73841">
        <ele>125</ele>
        <time>2020-08-08T09:31:26.000Z</time>
      </trkpt>
      <trkpt lat="43.68163" lon="3.73844">
        <ele>125</ele>
        <time>2020-08-08T09:31:27.000Z</time>
      </trkpt>
      <trkpt lat="43.68166" lon="3.73847">
        <ele>125</ele>
        <time>2020-08-08T09:31:28.000Z</time>
      </trkpt>
      <trkpt lat="43.68168" lon="3.7385">
        <ele>125</ele>
        <time>2020-08-08T09:31:29.000Z</time>
      </trkpt>
      <trkpt lat="43.68171" lon="3.73854">
        <ele>125</ele>
        <time>2020-08-08T09:31:30.000Z</time>
      </trkpt>
      <trkpt lat="43.68173" lon="3.73857">
        <ele>125</ele>
        <time>2020-08-08T09:31:31.000Z</time>
      </trkpt>
      <trkpt lat="43.68176" lon="3.7386">
        <ele>125</ele>
        <time>2020-08-08T09:31:32.000Z</time>
      </trkpt>
      <trkpt lat="43.68179" lon="3.73862">
        <ele>125</ele>
        <time>2020-08-08T09:31:33.000Z</time>
      </trkpt>
      <trkpt lat="43.68182" lon="3.73865">
        <ele>125</ele>
        <time>2020-08-08T09:31:34.000Z</time>
      </trkpt>
      <trkpt lat="43.68185" lon="3.73867">
        <ele>125</ele>
        <time>2020-08-08T09:31:35.000Z</time>
      </trkpt>
      <trkpt lat="43.68187" lon="3.73871">
        <ele>125</ele>
        <time>2020-08-08T09:31:36.000Z</time>
      </trkpt>
      <trkpt lat="43.6819" lon="3.73874">
        <ele>125</ele>
        <time>2020-08-08T09:31:37.000Z</time>
      </trkpt>
      <trkpt lat="43.68192" lon="3.73877">
        <ele>125</ele>
        <time>2020-08-08T09:31:38.000Z</time>
      </trkpt>
      <trkpt lat="43.68194" lon="3.7388">
        <ele>125</ele>
        <time>2020-08-08T09:31:39.000Z</time>
      </trkpt>
      <trkpt lat="43.68197" lon="3.73883">
        <ele>125</ele>
        <time>2020-08-08T09:31:40.000Z</time>
      </trkpt>
      <trkpt lat="43.68199" lon="3.73886">
        <ele>125</ele>
        <time>2020-08-08T09:31:41.000Z</time>
      </trkpt>
      <trkpt lat="43.68202" lon="3.73888">
        <ele>125</ele>
        <time>2020-08-08T09:31:42.000Z</time>
      </trkpt>
      <trkpt lat="43.68204" lon="3.73891">
        <ele>125</ele>
        <time>2020-08-08T09:31:43.000Z</time>
      </trkpt>
      <trkpt lat="43.68207" lon="3.73894">
        <ele>125</ele>
        <time>2020-08-08T09:31:44.000Z</time>
      </trkpt>
      <trkpt lat="43.68209" lon="3.73897">
        <ele>125.02295439652</ele>
        <time>2020-08-08T09:31:45.000Z</time>
      </trkpt>
      <trkpt lat="43.68211" lon="3.739">
        <ele>125.12275473197</ele>
        <time>2020-08-08T09:31:46.000Z</time>
      </trkpt>
      <trkpt lat="43.68214" lon="3.73903">
        <ele>125.22255506743</ele>
        <time>2020-08-08T09:31:47.000Z</time>
      </trkpt>
      <trkpt lat="43.68216" lon="3.73906">
        <ele>125.32235540289</ele>
        <time>2020-08-08T09:31:48.000Z</time>
      </trkpt>
      <trkpt lat="43.68218" lon="3.73908">
        <ele>125.42215573834</ele>
        <time>2020-08-08T09:31:49.000Z</time>
      </trkpt>
      <trkpt lat="43.6822" lon="3.73911">
        <ele>125.5219560738</ele>
        <time>2020-08-08T09:31:50.000Z</time>
      </trkpt>
      <trkpt lat="43.68222" lon="3.73914">
        <ele>125.62175640926</ele>
        <time>2020-08-08T09:31:51.000Z</time>
      </trkpt>
      <trkpt lat="43.68224" lon="3.73917">
        <ele>125.72155674471</ele>
        <time>2020-08-08T09:31:52.000Z</time>
      </trkpt>
      <trkpt lat="43.68227" lon="3.7392">
        <ele>125.82135708017</ele>
        <time>2020-08-08T09:31:53.000Z</time>
      </trkpt>
      <trkpt lat="43.68229" lon="3.73923">
        <ele>125.92115741563</ele>
        <time>2020-08-08T09:31:54.000Z</time>
      </trkpt>
      <trkpt lat="43.68231" lon="3.73926">
        <ele>126.02104177702</ele>
        <time>2020-08-08T09:31:55.000Z</time>
      </trkpt>
      <trkpt lat="43.68234" lon="3.73928">
        <ele>126.12124224208</ele>
        <time>2020-08-08T09:31:56.000Z</time>
      </trkpt>
      <trkpt lat="43.68237" lon="3.73929">
        <ele>126.22144270714</ele>
        <time>2020-08-08T09:31:57.000Z</time>
      </trkpt>
      <trkpt lat="43.6824" lon="3.7393">
        <ele>126.3216431722</ele>
        <time>2020-08-08T09:31:58.000Z</time>
      </trkpt>
      <trkpt lat="43.68243" lon="3.73931">
        <ele>126.42184363725</ele>
        <time>2020-08-08T09:31:59.000Z</time>
      </trkpt>
      <trkpt lat="43.68246" lon="3.73931">
        <ele>126.52204410231</ele>
        <time>2020-08-08T09:32:00.000Z</time>
      </trkpt>
      <trkpt lat="43.68248" lon="3.73931">
        <ele>126.62224456737</ele>
        <time>2020-08-08T09:32:01.000Z</time>
      </trkpt>
      <trkpt lat="43.6825" lon="3.73932">
        <ele>126.72244503243</ele>
        <time>2020-08-08T09:32:02.000Z</time>
      </trkpt>
      <trkpt lat="43.68252" lon="3.73933">
        <ele>126.82264549749</ele>
        <time>2020-08-08T09:32:03.000Z</time>
      </trkpt>
      <trkpt lat="43.68254" lon="3.73934">
        <ele>127</ele>
        <time>2020-08-08T09:32:09.000Z</time>
      </trkpt>
      <trkpt lat="43.6826" lon="3.73937">
        <ele>127</ele>
        <time>2020-08-08T09:32:36.000Z</time>
      </trkpt>
      <trkpt lat="43.68262" lon="3.73937">
        <ele>127</ele>
        <time>2020-08-08T09:32:37.000Z</time>
      </trkpt>
      <trkpt lat="43.68265" lon="3.73938">
        <ele>127</ele>
        <time>2020-08-08T09:32:38.000Z</time>
      </trkpt>
      <trkpt lat="43.68267" lon="3.73938">
        <ele>127</ele>
        <time>2020-08-08T09:32:39.000Z</time>
      </trkpt>
      <trkpt lat="43.68269" lon="3.73939">
        <ele>127</ele>
        <time>2020-08-08T09:32:40.000Z</time>
      </trkpt>
      <trkpt lat="43.68271" lon="3.7394">
        <ele>127</ele>
        <time>2020-08-08T09:32:41.000Z</time>
      </trkpt>
      <trkpt lat="43.68274" lon="3.73939">
        <ele>127</ele>
        <time>2020-08-08T09:32:43.000Z</time>
      </trkpt>
      <trkpt lat="43.68277" lon="3.73939">
        <ele>127</ele>
        <time>2020-08-08T09:32:45.000Z</time>
      </trkpt>
      <trkpt lat="43.68279" lon="3.73938">
        <ele>127.04474770428</ele>
        <time>2020-08-08T09:32:46.000Z</time>
      </trkpt>
      <trkpt lat="43.68282" lon="3.73936">
        <ele>127.43385276265</ele>
        <time>2020-08-08T09:32:48.000Z</time>
      </trkpt>
      <trkpt lat="43.68284" lon="3.73933">
        <ele>127.82295782101</ele>
        <time>2020-08-08T09:32:50.000Z</time>
      </trkpt>
      <trkpt lat="43.68287" lon="3.73931">
        <ele>128.21206287938</ele>
        <time>2020-08-08T09:32:52.000Z</time>
      </trkpt>
      <trkpt lat="43.6829" lon="3.7393">
        <ele>128.60116793774</ele>
        <time>2020-08-08T09:32:54.000Z</time>
      </trkpt>
      <trkpt lat="43.68294" lon="3.73929">
        <ele>128.99027299611</ele>
        <time>2020-08-08T09:32:56.000Z</time>
      </trkpt>
      <trkpt lat="43.68296" lon="3.73928">
        <ele>129.60185283951</ele>
        <time>2020-08-08T09:32:58.000Z</time>
      </trkpt>
      <trkpt lat="43.68299" lon="3.73927">
        <ele>130.21913679012</ele>
        <time>2020-08-08T09:33:00.000Z</time>
      </trkpt>
      <trkpt lat="43.68302" lon="3.73925">
        <ele>130.83642074074</ele>
        <time>2020-08-08T09:33:02.000Z</time>
      </trkpt>
      <trkpt lat="43.68304" lon="3.73924">
        <ele>131.45370469136</ele>
        <time>2020-08-08T09:33:04.000Z</time>
      </trkpt>
      <trkpt lat="43.68306" lon="3.73923">
        <ele>132</ele>
        <time>2020-08-08T09:33:06.000Z</time>
      </trkpt>
      <trkpt lat="43.68309" lon="3.73924">
        <ele>132</ele>
        <time>2020-08-08T09:33:08.000Z</time>
      </trkpt>
      <trkpt lat="43.6831" lon="3.73925">
        <ele>132</ele>
        <time>2020-08-08T09:33:09.000Z</time>
      </trkpt>
      <trkpt lat="43.68313" lon="3.73929">
        <ele>132</ele>
        <time>2020-08-08T09:33:10.000Z</time>
      </trkpt>
      <trkpt lat="43.68316" lon="3.73933">
        <ele>132</ele>
        <time>2020-08-08T09:33:11.000Z</time>
      </trkpt>
      <trkpt lat="43.68318" lon="3.73939">
        <ele>132</ele>
        <time>2020-08-08T09:33:12.000Z</time>
      </trkpt>
      <trkpt lat="43.6832" lon="3.73943">
        <ele>132</ele>
        <time>2020-08-08T09:33:13.000Z</time>
      </trkpt>
      <trkpt lat="43.68322" lon="3.73944">
        <ele>132</ele>
        <time>2020-08-08T09:33:14.000Z</time>
      </trkpt>
      <trkpt lat="43.68324" lon="3.73945">
        <ele>132</ele>
        <time>2020-08-08T09:33:15.000Z</time>
      </trkpt>
      <trkpt lat="43.68326" lon="3.73946">
        <ele>132</ele>
        <time>2020-08-08T09:33:16.000Z</time>
      </trkpt>
      <trkpt lat="43.68328" lon="3.73949">
        <ele>132</ele>
        <time>2020-08-08T09:33:17.000Z</time>
      </trkpt>
      <trkpt lat="43.68329" lon="3.73951">
        <ele>132</ele>
        <time>2020-08-08T09:33:18.000Z</time>
      </trkpt>
      <trkpt lat="43.6833" lon="3.73953">
        <ele>132</ele>
        <time>2020-08-08T09:33:19.000Z</time>
      </trkpt>
      <trkpt lat="43.68332" lon="3.73956">
        <ele>132</ele>
        <time>2020-08-08T09:33:20.000Z</time>
      </trkpt>
      <trkpt lat="43.68333" lon="3.73959">
        <ele>132</ele>
        <time>2020-08-08T09:33:21.000Z</time>
      </trkpt>
      <trkpt lat="43.68334" lon="3.73963">
        <ele>132</ele>
        <time>2020-08-08T09:33:22.000Z</time>
      </trkpt>
      <trkpt lat="43.68335" lon="3.73967">
        <ele>132</ele>
        <time>2020-08-08T09:33:23.000Z</time>
      </trkpt>
      <trkpt lat="43.68337" lon="3.73972">
        <ele>132</ele>
        <time>2020-08-08T09:33:24.000Z</time>
      </trkpt>
      <trkpt lat="43.6834" lon="3.73977">
        <ele>132</ele>
        <time>2020-08-08T09:33:25.000Z</time>
      </trkpt>
      <trkpt lat="43.68343" lon="3.73982">
        <ele>132</ele>
        <time>2020-08-08T09:33:26.000Z</time>
      </trkpt>
      <trkpt lat="43.68347" lon="3.73987">
        <ele>132</ele>
        <time>2020-08-08T09:33:27.000Z</time>
      </trkpt>
      <trkpt lat="43.68351" lon="3.73991">
        <ele>132</ele>
        <time>2020-08-08T09:33:28.000Z</time>
      </trkpt>
      <trkpt lat="43.68353" lon="3.73995">
        <ele>132</ele>
        <time>2020-08-08T09:33:29.000Z</time>
      </trkpt>
      <trkpt lat="43.68354" lon="3.73998">
        <ele>132</ele>
        <time>2020-08-08T09:33:30.000Z</time>
      </trkpt>
      <trkpt lat="43.68356" lon="3.74002">
        <ele>132</ele>
        <time>2020-08-08T09:33:31.000Z</time>
      </trkpt>
      <trkpt lat="43.68358" lon="3.74005">
        <ele>132</ele>
        <time>2020-08-08T09:33:32.000Z</time>
      </trkpt>
      <trkpt lat="43.6836" lon="3.74008">
        <ele>132</ele>
        <time>2020-08-08T09:33:33.000Z</time>
      </trkpt>
      <trkpt lat="43.68361" lon="3.74011">
        <ele>132</ele>
        <time>2020-08-08T09:33:34.000Z</time>
      </trkpt>
      <trkpt lat="43.68363" lon="3.74015">
        <ele>132</ele>
        <time>2020-08-08T09:33:35.000Z</time>
      </trkpt>
      <trkpt lat="43.68365" lon="3.74018">
        <ele>132</ele>
        <time>2020-08-08T09:33:36.000Z</time>
      </trkpt>
      <trkpt lat="43.68367" lon="3.74021">
        <ele>132</ele>
        <time>2020-08-08T09:33:37.000Z</time>
      </trkpt>
      <trkpt lat="43.68369" lon="3.74024">
        <ele>132</ele>
        <time>2020-08-08T09:33:38.000Z</time>
      </trkpt>
      <trkpt lat="43.68371" lon="3.74026">
        <ele>132</ele>
        <time>2020-08-08T09:33:39.000Z</time>
      </trkpt>
      <trkpt lat="43.68372" lon="3.74029">
        <ele>132</ele>
        <time>2020-08-08T09:33:40.000Z</time>
      </trkpt>
      <trkpt lat="43.68374" lon="3.74031">
        <ele>132</ele>
        <time>2020-08-08T09:33:41.000Z</time>
      </trkpt>
      <trkpt lat="43.68376" lon="3.74034">
        <ele>132</ele>
        <time>2020-08-08T09:33:42.000Z</time>
      </trkpt>
      <trkpt lat="43.68378" lon="3.74037">
        <ele>132</ele>
        <time>2020-08-08T09:33:43.000Z</time>
      </trkpt>
      <trkpt lat="43.6838" lon="3.74041">
        <ele>132</ele>
        <time>2020-08-08T09:33:44.000Z</time>
      </trkpt>
      <trkpt lat="43.68383" lon="3.74043">
        <ele>132</ele>
        <time>2020-08-08T09:33:45.000Z</time>
      </trkpt>
      <trkpt lat="43.68386" lon="3.74046">
        <ele>132</ele>
        <time>2020-08-08T09:33:46.000Z</time>
      </trkpt>
      <trkpt lat="43.68388" lon="3.74049">
        <ele>132</ele>
        <time>2020-08-08T09:33:47.000Z</time>
      </trkpt>
      <trkpt lat="43.68389" lon="3.74053">
        <ele>132</ele>
        <time>2020-08-08T09:33:48.000Z</time>
      </trkpt>
      <trkpt lat="43.6839" lon="3.74055">
        <ele>132</ele>
        <time>2020-08-08T09:33:49.000Z</time>
      </trkpt>
      <trkpt lat="43.68391" lon="3.74058">
        <ele>132</ele>
        <time>2020-08-08T09:33:51.000Z</time>
      </trkpt>
      <trkpt lat="43.68391" lon="3.74058">
        <ele>131.98688729647</ele>
        <time>2020-08-08T09:33:56.000Z</time>
      </trkpt>
      <trkpt lat="43.6839" lon="3.74062">
        <ele>131.02070436171</ele>
        <time>2020-08-08T09:34:10.000Z</time>
      </trkpt>
      <trkpt lat="43.68389" lon="3.74063">
        <ele>130.92736870896</ele>
        <time>2020-08-08T09:34:11.000Z</time>
      </trkpt>
      <trkpt lat="43.68386" lon="3.74066">
        <ele>130.71684225135</ele>
        <time>2020-08-08T09:34:13.000Z</time>
      </trkpt>
      <trkpt lat="43.68386" lon="3.74068">
        <ele>130.61157902254</ele>
        <time>2020-08-08T09:34:14.000Z</time>
      </trkpt>
      <trkpt lat="43.68385" lon="3.74072">
        <ele>130.50631579373</ele>
        <time>2020-08-08T09:34:15.000Z</time>
      </trkpt>
      <trkpt lat="43.68383" lon="3.74076">
        <ele>130.40105256492</ele>
        <time>2020-08-08T09:34:16.000Z</time>
      </trkpt>
      <trkpt lat="43.68382" lon="3.7408">
        <ele>130.29578933611</ele>
        <time>2020-08-08T09:34:17.000Z</time>
      </trkpt>
      <trkpt lat="43.6838" lon="3.74084">
        <ele>130.1905261073</ele>
        <time>2020-08-08T09:34:18.000Z</time>
      </trkpt>
      <trkpt lat="43.68378" lon="3.74089">
        <ele>130.08526287849</ele>
        <time>2020-08-08T09:34:19.000Z</time>
      </trkpt>
      <trkpt lat="43.68377" lon="3.74093">
        <ele>130</ele>
        <time>2020-08-08T09:34:20.000Z</time>
      </trkpt>
      <trkpt lat="43.68376" lon="3.74098">
        <ele>130</ele>
        <time>2020-08-08T09:34:21.000Z</time>
      </trkpt>
      <trkpt lat="43.68376" lon="3.74102">
        <ele>130</ele>
        <time>2020-08-08T09:34:22.000Z</time>
      </trkpt>
      <trkpt lat="43.68376" lon="3.74107">
        <ele>130</ele>
        <time>2020-08-08T09:34:23.000Z</time>
      </trkpt>
      <trkpt lat="43.68376" lon="3.74111">
        <ele>130</ele>
        <time>2020-08-08T09:34:24.000Z</time>
      </trkpt>
      <trkpt lat="43.68376" lon="3.74115">
        <ele>130</ele>
        <time>2020-08-08T09:34:25.000Z</time>
      </trkpt>
      <trkpt lat="43.68376" lon="3.74119">
        <ele>130</ele>
        <time>2020-08-08T09:34:26.000Z</time>
      </trkpt>
      <trkpt lat="43.68375" lon="3.74124">
        <ele>130</ele>
        <time>2020-08-08T09:34:27.000Z</time>
      </trkpt>
      <trkpt lat="43.68375" lon="3.74127">
        <ele>130</ele>
        <time>2020-08-08T09:34:28.000Z</time>
      </trkpt>
      <trkpt lat="43.68374" lon="3.74131">
        <ele>130</ele>
        <time>2020-08-08T09:34:29.000Z</time>
      </trkpt>
      <trkpt lat="43.68374" lon="3.74135">
        <ele>130</ele>
        <time>2020-08-08T09:34:30.000Z</time>
      </trkpt>
      <trkpt lat="43.68374" lon="3.74139">
        <ele>130.09773695473</ele>
        <time>2020-08-08T09:34:31.000Z</time>
      </trkpt>
      <trkpt lat="43.68373" lon="3.74143">
        <ele>130.20061761317</ele>
        <time>2020-08-08T09:34:32.000Z</time>
      </trkpt>
      <trkpt lat="43.68372" lon="3.74147">
        <ele>130.30349827161</ele>
        <time>2020-08-08T09:34:33.000Z</time>
      </trkpt>
      <trkpt lat="43.68371" lon="3.7415">
        <ele>130.40637893004</ele>
        <time>2020-08-08T09:34:34.000Z</time>
      </trkpt>
      <trkpt lat="43.6837" lon="3.74153">
        <ele>130.50925958848</ele>
        <time>2020-08-08T09:34:35.000Z</time>
      </trkpt>
      <trkpt lat="43.6837" lon="3.74156">
        <ele>130.61214024691</ele>
        <time>2020-08-08T09:34:36.000Z</time>
      </trkpt>
      <trkpt lat="43.6837" lon="3.7416">
        <ele>130.81790156379</ele>
        <time>2020-08-08T09:34:38.000Z</time>
      </trkpt>
      <trkpt lat="43.68372" lon="3.74162">
        <ele>130.92078222222</ele>
        <time>2020-08-08T09:34:39.000Z</time>
      </trkpt>
      <trkpt lat="43.68373" lon="3.74164">
        <ele>131.04461748373</ele>
        <time>2020-08-08T09:34:40.000Z</time>
      </trkpt>
      <trkpt lat="43.68374" lon="3.74166">
        <ele>131.23860384447</ele>
        <time>2020-08-08T09:34:41.000Z</time>
      </trkpt>
      <trkpt lat="43.68375" lon="3.74169">
        <ele>131.43259020521</ele>
        <time>2020-08-08T09:34:42.000Z</time>
      </trkpt>
      <trkpt lat="43.68376" lon="3.74171">
        <ele>131.62657656595</ele>
        <time>2020-08-08T09:34:43.000Z</time>
      </trkpt>
      <trkpt lat="43.68377" lon="3.74173">
        <ele>131.82056292669</ele>
        <time>2020-08-08T09:34:44.000Z</time>
      </trkpt>
      <trkpt lat="43.68377" lon="3.74176">
        <ele>132.01454928743</ele>
        <time>2020-08-08T09:34:45.000Z</time>
      </trkpt>
      <trkpt lat="43.68378" lon="3.74178">
        <ele>132.20853564818</ele>
        <time>2020-08-08T09:34:46.000Z</time>
      </trkpt>
      <trkpt lat="43.68379" lon="3.74183">
        <ele>132.59650836966</ele>
        <time>2020-08-08T09:34:48.000Z</time>
      </trkpt>
      <trkpt lat="43.6838" lon="3.74187">
        <ele>132.98448109114</ele>
        <time>2020-08-08T09:34:50.000Z</time>
      </trkpt>
      <trkpt lat="43.68381" lon="3.7419">
        <ele>133.18988654362</ele>
        <time>2020-08-08T09:34:51.000Z</time>
      </trkpt>
      <trkpt lat="43.68381" lon="3.74193">
        <ele>133.39628496059</ele>
        <time>2020-08-08T09:34:52.000Z</time>
      </trkpt>
      <trkpt lat="43.68381" lon="3.74195">
        <ele>133.60268337756</ele>
        <time>2020-08-08T09:34:53.000Z</time>
      </trkpt>
      <trkpt lat="43.68382" lon="3.742">
        <ele>134.01548021151</ele>
        <time>2020-08-08T09:34:55.000Z</time>
      </trkpt>
      <trkpt lat="43.68384" lon="3.74202">
        <ele>134.22187862848</ele>
        <time>2020-08-08T09:34:56.000Z</time>
      </trkpt>
      <trkpt lat="43.68385" lon="3.74204">
        <ele>134.42827704546</ele>
        <time>2020-08-08T09:34:57.000Z</time>
      </trkpt>
      <trkpt lat="43.68387" lon="3.74205">
        <ele>134.63467546243</ele>
        <time>2020-08-08T09:34:58.000Z</time>
      </trkpt>
      <trkpt lat="43.68389" lon="3.74207">
        <ele>134.84107387941</ele>
        <time>2020-08-08T09:34:59.000Z</time>
      </trkpt>
      <trkpt lat="43.68391" lon="3.74207">
        <ele>135</ele>
        <time>2020-08-08T09:35:00.000Z</time>
      </trkpt>
      <trkpt lat="43.68393" lon="3.74208">
        <ele>135</ele>
        <time>2020-08-08T09:35:01.000Z</time>
      </trkpt>
      <trkpt lat="43.68395" lon="3.74209">
        <ele>135</ele>
        <time>2020-08-08T09:35:02.000Z</time>
      </trkpt>
      <trkpt lat="43.68398" lon="3.7421">
        <ele>135</ele>
        <time>2020-08-08T09:35:03.000Z</time>
      </trkpt>
      <trkpt lat="43.684" lon="3.74211">
        <ele>135</ele>
        <time>2020-08-08T09:35:04.000Z</time>
      </trkpt>
      <trkpt lat="43.68402" lon="3.74211">
        <ele>135</ele>
        <time>2020-08-08T09:35:05.000Z</time>
      </trkpt>
      <trkpt lat="43.68404" lon="3.74211">
        <ele>135</ele>
        <time>2020-08-08T09:35:06.000Z</time>
      </trkpt>
      <trkpt lat="43.68406" lon="3.74211">
        <ele>135</ele>
        <time>2020-08-08T09:35:07.000Z</time>
      </trkpt>
      <trkpt lat="43.68409" lon="3.74211">
        <ele>135</ele>
        <time>2020-08-08T09:35:08.000Z</time>
      </trkpt>
      <trkpt lat="43.68412" lon="3.7421">
        <ele>135</ele>
        <time>2020-08-08T09:35:09.000Z</time>
      </trkpt>
      <trkpt lat="43.68416" lon="3.74208">
        <ele>134.95409120697</ele>
        <time>2020-08-08T09:35:10.000Z</time>
      </trkpt>
      <trkpt lat="43.6842" lon="3.74206">
        <ele>134.75449053605</ele>
        <time>2020-08-08T09:35:11.000Z</time>
      </trkpt>
      <trkpt lat="43.68424" lon="3.74203">
        <ele>134.55488986514</ele>
        <time>2020-08-08T09:35:12.000Z</time>
      </trkpt>
      <trkpt lat="43.68429" lon="3.74201">
        <ele>134.35528919423</ele>
        <time>2020-08-08T09:35:13.000Z</time>
      </trkpt>
      <trkpt lat="43.68434" lon="3.742">
        <ele>134.15568852331</ele>
        <time>2020-08-08T09:35:14.000Z</time>
      </trkpt>
      <trkpt lat="43.68439" lon="3.74198">
        <ele>133.9560878524</ele>
        <time>2020-08-08T09:35:15.000Z</time>
      </trkpt>
      <trkpt lat="43.68444" lon="3.74196">
        <ele>133.75648718148</ele>
        <time>2020-08-08T09:35:16.000Z</time>
      </trkpt>
      <trkpt lat="43.6845" lon="3.74193">
        <ele>133.55688651057</ele>
        <time>2020-08-08T09:35:17.000Z</time>
      </trkpt>
      <trkpt lat="43.68455" lon="3.7419">
        <ele>133.35728583966</ele>
        <time>2020-08-08T09:35:18.000Z</time>
      </trkpt>
      <trkpt lat="43.68461" lon="3.74189">
        <ele>133.15768516874</ele>
        <time>2020-08-08T09:35:19.000Z</time>
      </trkpt>
      <trkpt lat="43.68467" lon="3.74189">
        <ele>133.0210207209</ele>
        <time>2020-08-08T09:35:20.000Z</time>
      </trkpt>
      <trkpt lat="43.68472" lon="3.74191">
        <ele>133.12112091719</ele>
        <time>2020-08-08T09:35:21.000Z</time>
      </trkpt>
      <trkpt lat="43.68477" lon="3.74194">
        <ele>133.22122111349</ele>
        <time>2020-08-08T09:35:22.000Z</time>
      </trkpt>
      <trkpt lat="43.6848" lon="3.74197">
        <ele>133.32132130978</ele>
        <time>2020-08-08T09:35:23.000Z</time>
      </trkpt>
      <trkpt lat="43.68484" lon="3.742">
        <ele>133.42142150607</ele>
        <time>2020-08-08T09:35:24.000Z</time>
      </trkpt>
      <trkpt lat="43.68487" lon="3.74204">
        <ele>133.52152170236</ele>
        <time>2020-08-08T09:35:25.000Z</time>
      </trkpt>
      <trkpt lat="43.68489" lon="3.74207">
        <ele>133.62162189866</ele>
        <time>2020-08-08T09:35:26.000Z</time>
      </trkpt>
      <trkpt lat="43.68492" lon="3.7421">
        <ele>133.72172209495</ele>
        <time>2020-08-08T09:35:27.000Z</time>
      </trkpt>
      <trkpt lat="43.68494" lon="3.74214">
        <ele>133.82182229124</ele>
        <time>2020-08-08T09:35:28.000Z</time>
      </trkpt>
      <trkpt lat="43.68496" lon="3.74217">
        <ele>133.92192248753</ele>
        <time>2020-08-08T09:35:29.000Z</time>
      </trkpt>
      <trkpt lat="43.68499" lon="3.74219">
        <ele>134.0219348285</ele>
        <time>2020-08-08T09:35:30.000Z</time>
      </trkpt>
      <trkpt lat="43.68501" lon="3.74222">
        <ele>134.12163569399</ele>
        <time>2020-08-08T09:35:31.000Z</time>
      </trkpt>
      <trkpt lat="43.68503" lon="3.74224">
        <ele>134.22133655949</ele>
        <time>2020-08-08T09:35:32.000Z</time>
      </trkpt>
      <trkpt lat="43.68505" lon="3.74226">
        <ele>134.32103742499</ele>
        <time>2020-08-08T09:35:33.000Z</time>
      </trkpt>
      <trkpt lat="43.68507" lon="3.74228">
        <ele>134.42073829049</ele>
        <time>2020-08-08T09:35:34.000Z</time>
      </trkpt>
      <trkpt lat="43.68509" lon="3.7423">
        <ele>134.52043915599</ele>
        <time>2020-08-08T09:35:35.000Z</time>
      </trkpt>
      <trkpt lat="43.68511" lon="3.74232">
        <ele>134.62014002149</ele>
        <time>2020-08-08T09:35:36.000Z</time>
      </trkpt>
      <trkpt lat="43.68513" lon="3.74233">
        <ele>134.71984088699</ele>
        <time>2020-08-08T09:35:37.000Z</time>
      </trkpt>
      <trkpt lat="43.68514" lon="3.74234">
        <ele>134.81954175249</ele>
        <time>2020-08-08T09:35:38.000Z</time>
      </trkpt>
      <trkpt lat="43.68516" lon="3.74235">
        <ele>134.91924261799</ele>
        <time>2020-08-08T09:35:39.000Z</time>
      </trkpt>
      <trkpt lat="43.68518" lon="3.74237">
        <ele>135.03650394328</ele>
        <time>2020-08-08T09:35:40.000Z</time>
      </trkpt>
      <trkpt lat="43.68521" lon="3.7424">
        <ele>135.42074950632</ele>
        <time>2020-08-08T09:35:42.000Z</time>
      </trkpt>
      <trkpt lat="43.68523" lon="3.74242">
        <ele>135.80499506936</ele>
        <time>2020-08-08T09:35:44.000Z</time>
      </trkpt>
      <trkpt lat="43.68526" lon="3.74245">
        <ele>136.1892406324</ele>
        <time>2020-08-08T09:35:46.000Z</time>
      </trkpt>
      <trkpt lat="43.68527" lon="3.74246">
        <ele>136.38136341392</ele>
        <time>2020-08-08T09:35:47.000Z</time>
      </trkpt>
      <trkpt lat="43.68529" lon="3.74247">
        <ele>136.57348619544</ele>
        <time>2020-08-08T09:35:48.000Z</time>
      </trkpt>
      <trkpt lat="43.68531" lon="3.74249">
        <ele>136.76560897696</ele>
        <time>2020-08-08T09:35:49.000Z</time>
      </trkpt>
      <trkpt lat="43.68533" lon="3.7425">
        <ele>136.95773175848</ele>
        <time>2020-08-08T09:35:50.000Z</time>
      </trkpt>
      <trkpt lat="43.68535" lon="3.74251">
        <ele>137.08167480462</ele>
        <time>2020-08-08T09:35:51.000Z</time>
      </trkpt>
      <trkpt lat="43.68538" lon="3.74253">
        <ele>137.29109909891</ele>
        <time>2020-08-08T09:35:53.000Z</time>
      </trkpt>
      <trkpt lat="43.6854" lon="3.74254">
        <ele>137.39581124605</ele>
        <time>2020-08-08T09:35:54.000Z</time>
      </trkpt>
      <trkpt lat="43.68541" lon="3.74255">
        <ele>137.5005233932</ele>
        <time>2020-08-08T09:35:55.000Z</time>
      </trkpt>
      <trkpt lat="43.68543" lon="3.74256">
        <ele>137.60523554034</ele>
        <time>2020-08-08T09:35:56.000Z</time>
      </trkpt>
      <trkpt lat="43.68545" lon="3.74258">
        <ele>137.70994768749</ele>
        <time>2020-08-08T09:35:57.000Z</time>
      </trkpt>
      <trkpt lat="43.68547" lon="3.74259">
        <ele>137.81465983463</ele>
        <time>2020-08-08T09:35:58.000Z</time>
      </trkpt>
      <trkpt lat="43.68549" lon="3.74261">
        <ele>137.91937198178</ele>
        <time>2020-08-08T09:35:59.000Z</time>
      </trkpt>
      <trkpt lat="43.68551" lon="3.74262">
        <ele>138.02300032</ele>
        <time>2020-08-08T09:36:00.000Z</time>
      </trkpt>
      <trkpt lat="43.68553" lon="3.74263">
        <ele>138.12300032</ele>
        <time>2020-08-08T09:36:01.000Z</time>
      </trkpt>
      <trkpt lat="43.68555" lon="3.74264">
        <ele>138.22300032</ele>
        <time>2020-08-08T09:36:02.000Z</time>
      </trkpt>
      <trkpt lat="43.68557" lon="3.74265">
        <ele>138.32300032</ele>
        <time>2020-08-08T09:36:03.000Z</time>
      </trkpt>
      <trkpt lat="43.68558" lon="3.74267">
        <ele>138.42300032</ele>
        <time>2020-08-08T09:36:04.000Z</time>
      </trkpt>
      <trkpt lat="43.6856" lon="3.74268">
        <ele>138.52300032</ele>
        <time>2020-08-08T09:36:05.000Z</time>
      </trkpt>
      <trkpt lat="43.68562" lon="3.7427">
        <ele>138.62300032</ele>
        <time>2020-08-08T09:36:06.000Z</time>
      </trkpt>
      <trkpt lat="43.68564" lon="3.74271">
        <ele>138.72300032</ele>
        <time>2020-08-08T09:36:07.000Z</time>
      </trkpt>
      <trkpt lat="43.68566" lon="3.74272">
        <ele>138.82300032</ele>
        <time>2020-08-08T09:36:08.000Z</time>
      </trkpt>
      <trkpt lat="43.68568" lon="3.74272">
        <ele>138.92300032</ele>
        <time>2020-08-08T09:36:09.000Z</time>
      </trkpt>
      <trkpt lat="43.6857" lon="3.74274">
        <ele>139.02300032</ele>
        <time>2020-08-08T09:36:10.000Z</time>
      </trkpt>
      <trkpt lat="43.68572" lon="3.74275">
        <ele>139.12300032</ele>
        <time>2020-08-08T09:36:11.000Z</time>
      </trkpt>
      <trkpt lat="43.68574" lon="3.74276">
        <ele>139.22300032</ele>
        <time>2020-08-08T09:36:12.000Z</time>
      </trkpt>
      <trkpt lat="43.68575" lon="3.74277">
        <ele>139.32300032</ele>
        <time>2020-08-08T09:36:13.000Z</time>
      </trkpt>
      <trkpt lat="43.68577" lon="3.74278">
        <ele>139.42300032</ele>
        <time>2020-08-08T09:36:14.000Z</time>
      </trkpt>
      <trkpt lat="43.68579" lon="3.7428">
        <ele>139.52300032</ele>
        <time>2020-08-08T09:36:15.000Z</time>
      </trkpt>
      <trkpt lat="43.68581" lon="3.74281">
        <ele>139.62300032</ele>
        <time>2020-08-08T09:36:16.000Z</time>
      </trkpt>
      <trkpt lat="43.68583" lon="3.74282">
        <ele>139.72300032</ele>
        <time>2020-08-08T09:36:17.000Z</time>
      </trkpt>
      <trkpt lat="43.68585" lon="3.74284">
        <ele>139.82300032</ele>
        <time>2020-08-08T09:36:18.000Z</time>
      </trkpt>
      <trkpt lat="43.68587" lon="3.74285">
        <ele>139.92300032</ele>
        <time>2020-08-08T09:36:19.000Z</time>
      </trkpt>
      <trkpt lat="43.68589" lon="3.74287">
        <ele>140.02290868526</ele>
        <time>2020-08-08T09:36:20.000Z</time>
      </trkpt>
      <trkpt lat="43.68592" lon="3.74288">
        <ele>140.12251027888</ele>
        <time>2020-08-08T09:36:21.000Z</time>
      </trkpt>
      <trkpt lat="43.68594" lon="3.7429">
        <ele>140.22211187251</ele>
        <time>2020-08-08T09:36:22.000Z</time>
      </trkpt>
      <trkpt lat="43.68596" lon="3.74292">
        <ele>140.32171346614</ele>
        <time>2020-08-08T09:36:23.000Z</time>
      </trkpt>
      <trkpt lat="43.68598" lon="3.74294">
        <ele>140.42131505976</ele>
        <time>2020-08-08T09:36:24.000Z</time>
      </trkpt>
      <trkpt lat="43.68601" lon="3.74296">
        <ele>140.52091665339</ele>
        <time>2020-08-08T09:36:25.000Z</time>
      </trkpt>
      <trkpt lat="43.68603" lon="3.74298">
        <ele>140.62051824701</ele>
        <time>2020-08-08T09:36:26.000Z</time>
      </trkpt>
      <trkpt lat="43.68605" lon="3.743">
        <ele>140.72011984064</ele>
        <time>2020-08-08T09:36:27.000Z</time>
      </trkpt>
      <trkpt lat="43.68607" lon="3.74302">
        <ele>140.81972143426</ele>
        <time>2020-08-08T09:36:28.000Z</time>
      </trkpt>
      <trkpt lat="43.68609" lon="3.74304">
        <ele>140.91932302789</ele>
        <time>2020-08-08T09:36:29.000Z</time>
      </trkpt>
      <trkpt lat="43.68611" lon="3.74307">
        <ele>141.01907662651</ele>
        <time>2020-08-08T09:36:30.000Z</time>
      </trkpt>
      <trkpt lat="43.68613" lon="3.74309">
        <ele>141.11947823293</ele>
        <time>2020-08-08T09:36:31.000Z</time>
      </trkpt>
      <trkpt lat="43.68616" lon="3.74311">
        <ele>141.21987983936</ele>
        <time>2020-08-08T09:36:32.000Z</time>
      </trkpt>
      <trkpt lat="43.68618" lon="3.74314">
        <ele>141.32028144578</ele>
        <time>2020-08-08T09:36:33.000Z</time>
      </trkpt>
      <trkpt lat="43.6862" lon="3.74316">
        <ele>141.42068305221</ele>
        <time>2020-08-08T09:36:34.000Z</time>
      </trkpt>
      <trkpt lat="43.68623" lon="3.74319">
        <ele>141.52108465864</ele>
        <time>2020-08-08T09:36:35.000Z</time>
      </trkpt>
      <trkpt lat="43.68625" lon="3.74321">
        <ele>141.62148626506</ele>
        <time>2020-08-08T09:36:36.000Z</time>
      </trkpt>
      <trkpt lat="43.68627" lon="3.74323">
        <ele>141.72188787149</ele>
        <time>2020-08-08T09:36:37.000Z</time>
      </trkpt>
      <trkpt lat="43.6863" lon="3.74326">
        <ele>141.82228947791</ele>
        <time>2020-08-08T09:36:38.000Z</time>
      </trkpt>
      <trkpt lat="43.68632" lon="3.74328">
        <ele>141.92269108434</ele>
        <time>2020-08-08T09:36:39.000Z</time>
      </trkpt>
      <trkpt lat="43.68634" lon="3.7433">
        <ele>142.02281777778</ele>
        <time>2020-08-08T09:36:40.000Z</time>
      </trkpt>
      <trkpt lat="43.68636" lon="3.74331">
        <ele>142.12202412698</ele>
        <time>2020-08-08T09:36:41.000Z</time>
      </trkpt>
      <trkpt lat="43.68638" lon="3.74333">
        <ele>142.22123047619</ele>
        <time>2020-08-08T09:36:42.000Z</time>
      </trkpt>
      <trkpt lat="43.6864" lon="3.74334">
        <ele>142.3204368254</ele>
        <time>2020-08-08T09:36:43.000Z</time>
      </trkpt>
      <trkpt lat="43.68642" lon="3.74336">
        <ele>142.4196431746</ele>
        <time>2020-08-08T09:36:44.000Z</time>
      </trkpt>
      <trkpt lat="43.68644" lon="3.74338">
        <ele>142.51884952381</ele>
        <time>2020-08-08T09:36:45.000Z</time>
      </trkpt>
      <trkpt lat="43.68646" lon="3.74339">
        <ele>142.61805587302</ele>
        <time>2020-08-08T09:36:46.000Z</time>
      </trkpt>
      <trkpt lat="43.68648" lon="3.74341">
        <ele>142.71726222222</ele>
        <time>2020-08-08T09:36:47.000Z</time>
      </trkpt>
      <trkpt lat="43.6865" lon="3.74342">
        <ele>142.81646857143</ele>
        <time>2020-08-08T09:36:48.000Z</time>
      </trkpt>
      <trkpt lat="43.68652" lon="3.74343">
        <ele>142.91567492064</ele>
        <time>2020-08-08T09:36:49.000Z</time>
      </trkpt>
      <trkpt lat="43.68654" lon="3.74344">
        <ele>143.01512129032</ele>
        <time>2020-08-08T09:36:50.000Z</time>
      </trkpt>
      <trkpt lat="43.68656" lon="3.74345">
        <ele>143.11592774193</ele>
        <time>2020-08-08T09:36:51.000Z</time>
      </trkpt>
      <trkpt lat="43.68657" lon="3.74346">
        <ele>143.21673419355</ele>
        <time>2020-08-08T09:36:52.000Z</time>
      </trkpt>
      <trkpt lat="43.68659" lon="3.74348">
        <ele>143.31754064516</ele>
        <time>2020-08-08T09:36:53.000Z</time>
      </trkpt>
      <trkpt lat="43.68661" lon="3.74349">
        <ele>143.41834709677</ele>
        <time>2020-08-08T09:36:54.000Z</time>
      </trkpt>
      <trkpt lat="43.68663" lon="3.7435">
        <ele>143.51915354839</ele>
        <time>2020-08-08T09:36:55.000Z</time>
      </trkpt>
      <trkpt lat="43.68665" lon="3.74351">
        <ele>143.61996</ele>
        <time>2020-08-08T09:36:56.000Z</time>
      </trkpt>
      <trkpt lat="43.68666" lon="3.74353">
        <ele>143.72076645161</ele>
        <time>2020-08-08T09:36:57.000Z</time>
      </trkpt>
      <trkpt lat="43.68668" lon="3.74354">
        <ele>143.82157290323</ele>
        <time>2020-08-08T09:36:58.000Z</time>
      </trkpt>
      <trkpt lat="43.6867" lon="3.74355">
        <ele>143.92237935484</ele>
        <time>2020-08-08T09:36:59.000Z</time>
      </trkpt>
      <trkpt lat="43.68672" lon="3.74356">
        <ele>144.04600064</ele>
        <time>2020-08-08T09:37:00.000Z</time>
      </trkpt>
      <trkpt lat="43.68674" lon="3.74358">
        <ele>144.24600064</ele>
        <time>2020-08-08T09:37:01.000Z</time>
      </trkpt>
      <trkpt lat="43.68675" lon="3.74359">
        <ele>144.44600064</ele>
        <time>2020-08-08T09:37:02.000Z</time>
      </trkpt>
      <trkpt lat="43.68677" lon="3.74361">
        <ele>144.64600064</ele>
        <time>2020-08-08T09:37:03.000Z</time>
      </trkpt>
      <trkpt lat="43.68679" lon="3.74362">
        <ele>144.84600064</ele>
        <time>2020-08-08T09:37:04.000Z</time>
      </trkpt>
      <trkpt lat="43.68681" lon="3.74363">
        <ele>145.04600064</ele>
        <time>2020-08-08T09:37:05.000Z</time>
      </trkpt>
      <trkpt lat="43.68683" lon="3.74365">
        <ele>145.24600064</ele>
        <time>2020-08-08T09:37:06.000Z</time>
      </trkpt>
      <trkpt lat="43.68685" lon="3.74366">
        <ele>145.44600064</ele>
        <time>2020-08-08T09:37:07.000Z</time>
      </trkpt>
      <trkpt lat="43.68686" lon="3.74367">
        <ele>145.64600064</ele>
        <time>2020-08-08T09:37:08.000Z</time>
      </trkpt>
      <trkpt lat="43.68688" lon="3.74368">
        <ele>145.84600064</ele>
        <time>2020-08-08T09:37:09.000Z</time>
      </trkpt>
      <trkpt lat="43.6869" lon="3.7437">
        <ele>146.02228713178</ele>
        <time>2020-08-08T09:37:10.000Z</time>
      </trkpt>
      <trkpt lat="43.68691" lon="3.74371">
        <ele>146.11918635659</ele>
        <time>2020-08-08T09:37:11.000Z</time>
      </trkpt>
      <trkpt lat="43.68693" lon="3.74373">
        <ele>146.21608558139</ele>
        <time>2020-08-08T09:37:12.000Z</time>
      </trkpt>
      <trkpt lat="43.68694" lon="3.74375">
        <ele>146.3129848062</ele>
        <time>2020-08-08T09:37:13.000Z</time>
      </trkpt>
      <trkpt lat="43.68698" lon="3.74376">
        <ele>146.50678325581</ele>
        <time>2020-08-08T09:37:15.000Z</time>
      </trkpt>
      <trkpt lat="43.687" lon="3.74378">
        <ele>146.70058170543</ele>
        <time>2020-08-08T09:37:17.000Z</time>
      </trkpt>
      <trkpt lat="43.68703" lon="3.74378">
        <ele>146.89438015504</ele>
        <time>2020-08-08T09:37:19.000Z</time>
      </trkpt>
      <trkpt lat="43.68706" lon="3.74379">
        <ele>147.09400859504</ele>
        <time>2020-08-08T09:37:21.000Z</time>
      </trkpt>
      <trkpt lat="43.68709" lon="3.7438">
        <ele>147.30062016529</ele>
        <time>2020-08-08T09:37:23.000Z</time>
      </trkpt>
      <trkpt lat="43.68712" lon="3.74381">
        <ele>147.50723173554</ele>
        <time>2020-08-08T09:37:25.000Z</time>
      </trkpt>
      <trkpt lat="43.68714" lon="3.74383">
        <ele>147.71384330578</ele>
        <time>2020-08-08T09:37:27.000Z</time>
      </trkpt>
      <trkpt lat="43.68717" lon="3.74384">
        <ele>147.92045487603</ele>
        <time>2020-08-08T09:37:29.000Z</time>
      </trkpt>
      <trkpt lat="43.6872" lon="3.74386">
        <ele>148.23930023346</ele>
        <time>2020-08-08T09:37:31.000Z</time>
      </trkpt>
      <trkpt lat="43.68721" lon="3.7439">
        <ele>148.62840529183</ele>
        <time>2020-08-08T09:37:33.000Z</time>
      </trkpt>
      <trkpt lat="43.68723" lon="3.74392">
        <ele>149.0175103502</ele>
        <time>2020-08-08T09:37:35.000Z</time>
      </trkpt>
      <trkpt lat="43.68725" lon="3.74391">
        <ele>149.40661540856</ele>
        <time>2020-08-08T09:37:37.000Z</time>
      </trkpt>
      <trkpt lat="43.68728" lon="3.7439">
        <ele>149.79572046693</ele>
        <time>2020-08-08T09:37:39.000Z</time>
      </trkpt>
      <trkpt lat="43.68731" lon="3.7439">
        <ele>150.2932108642</ele>
        <time>2020-08-08T09:37:41.000Z</time>
      </trkpt>
      <trkpt lat="43.68733" lon="3.74393">
        <ele>150.91049481481</ele>
        <time>2020-08-08T09:37:43.000Z</time>
      </trkpt>
      <trkpt lat="43.68735" lon="3.74395">
        <ele>151.52777876543</ele>
        <time>2020-08-08T09:37:45.000Z</time>
      </trkpt>
      <trkpt lat="43.68738" lon="3.74395">
        <ele>152.14506271605</ele>
        <time>2020-08-08T09:37:47.000Z</time>
      </trkpt>
      <trkpt lat="43.68741" lon="3.74395">
        <ele>152.76234666667</ele>
        <time>2020-08-08T09:37:49.000Z</time>
      </trkpt>
      <trkpt lat="43.68743" lon="3.74398">
        <ele>153.12300032</ele>
        <time>2020-08-08T09:37:51.000Z</time>
      </trkpt>
      <trkpt lat="43.68744" lon="3.74402">
        <ele>153.32300032</ele>
        <time>2020-08-08T09:37:53.000Z</time>
      </trkpt>
      <trkpt lat="43.68747" lon="3.74402">
        <ele>153.52300032</ele>
        <time>2020-08-08T09:37:55.000Z</time>
      </trkpt>
      <trkpt lat="43.6875" lon="3.74401">
        <ele>153.72300032</ele>
        <time>2020-08-08T09:37:57.000Z</time>
      </trkpt>
      <trkpt lat="43.68753" lon="3.744">
        <ele>153.92300032</ele>
        <time>2020-08-08T09:37:59.000Z</time>
      </trkpt>
      <trkpt lat="43.68756" lon="3.74402">
        <ele>154.24502055777</ele>
        <time>2020-08-08T09:38:01.000Z</time>
      </trkpt>
      <trkpt lat="43.68757" lon="3.74405">
        <ele>154.64342693227</ele>
        <time>2020-08-08T09:38:03.000Z</time>
      </trkpt>
      <trkpt lat="43.6876" lon="3.74406">
        <ele>155.04183330677</ele>
        <time>2020-08-08T09:38:05.000Z</time>
      </trkpt>
      <trkpt lat="43.68763" lon="3.74405">
        <ele>155.44023968127</ele>
        <time>2020-08-08T09:38:07.000Z</time>
      </trkpt>
      <trkpt lat="43.68766" lon="3.74406">
        <ele>155.83864605578</ele>
        <time>2020-08-08T09:38:09.000Z</time>
      </trkpt>
      <trkpt lat="43.68767" lon="3.7441">
        <ele>156.3584346988</ele>
        <time>2020-08-08T09:38:11.000Z</time>
      </trkpt>
      <trkpt lat="43.68768" lon="3.74413">
        <ele>156.96084433735</ele>
        <time>2020-08-08T09:38:13.000Z</time>
      </trkpt>
      <trkpt lat="43.68771" lon="3.74414">
        <ele>157.5632539759</ele>
        <time>2020-08-08T09:38:15.000Z</time>
      </trkpt>
      <trkpt lat="43.68774" lon="3.74415">
        <ele>158.16566361446</ele>
        <time>2020-08-08T09:38:17.000Z</time>
      </trkpt>
      <trkpt lat="43.68774" lon="3.74419">
        <ele>158.76807325301</ele>
        <time>2020-08-08T09:38:19.000Z</time>
      </trkpt>
      <trkpt lat="43.68774" lon="3.74422">
        <ele>159.24600064</ele>
        <time>2020-08-08T09:38:21.000Z</time>
      </trkpt>
      <trkpt lat="43.68776" lon="3.74424">
        <ele>159.64600064</ele>
        <time>2020-08-08T09:38:23.000Z</time>
      </trkpt>
      <trkpt lat="43.68779" lon="3.74426">
        <ele>160.04600064</ele>
        <time>2020-08-08T09:38:25.000Z</time>
      </trkpt>
      <trkpt lat="43.68779" lon="3.7443">
        <ele>160.44600064</ele>
        <time>2020-08-08T09:38:27.000Z</time>
      </trkpt>
      <trkpt lat="43.68779" lon="3.74434">
        <ele>160.84600064</ele>
        <time>2020-08-08T09:38:29.000Z</time>
      </trkpt>
      <trkpt lat="43.68781" lon="3.74436">
        <ele>161.24600064</ele>
        <time>2020-08-08T09:38:31.000Z</time>
      </trkpt>
      <trkpt lat="43.68784" lon="3.74436">
        <ele>161.64600064</ele>
        <time>2020-08-08T09:38:33.000Z</time>
      </trkpt>
      <trkpt lat="43.68787" lon="3.74439">
        <ele>162.04600064</ele>
        <time>2020-08-08T09:38:35.000Z</time>
      </trkpt>
      <trkpt lat="43.68788" lon="3.74443">
        <ele>162.44600064</ele>
        <time>2020-08-08T09:38:37.000Z</time>
      </trkpt>
      <trkpt lat="43.6879" lon="3.74443">
        <ele>162.84600064</ele>
        <time>2020-08-08T09:38:39.000Z</time>
      </trkpt>
      <trkpt lat="43.68794" lon="3.74443">
        <ele>163.36900096</ele>
        <time>2020-08-08T09:38:41.000Z</time>
      </trkpt>
      <trkpt lat="43.68796" lon="3.74444">
        <ele>163.96900096</ele>
        <time>2020-08-08T09:38:43.000Z</time>
      </trkpt>
      <trkpt lat="43.68797" lon="3.74448">
        <ele>164.56900096</ele>
        <time>2020-08-08T09:38:45.000Z</time>
      </trkpt>
      <trkpt lat="43.68798" lon="3.7445">
        <ele>165.16900096</ele>
        <time>2020-08-08T09:38:47.000Z</time>
      </trkpt>
      <trkpt lat="43.68801" lon="3.7445">
        <ele>165.76900096</ele>
        <time>2020-08-08T09:38:49.000Z</time>
      </trkpt>
      <trkpt lat="43.68804" lon="3.74451">
        <ele>166.24600064</ele>
        <time>2020-08-08T09:38:51.000Z</time>
      </trkpt>
      <trkpt lat="43.68806" lon="3.74453">
        <ele>166.64600064</ele>
        <time>2020-08-08T09:38:53.000Z</time>
      </trkpt>
      <trkpt lat="43.68806" lon="3.74457">
        <ele>167.04600064</ele>
        <time>2020-08-08T09:38:55.000Z</time>
      </trkpt>
      <trkpt lat="43.68806" lon="3.7446">
        <ele>167.44600064</ele>
        <time>2020-08-08T09:38:57.000Z</time>
      </trkpt>
      <trkpt lat="43.68808" lon="3.7446">
        <ele>168</ele>
        <time>2020-08-08T09:39:00.000Z</time>
      </trkpt>
      <trkpt lat="43.68808" lon="3.7446">
        <ele>168</ele>
        <time>2020-08-08T09:39:04.000Z</time>
      </trkpt>
      <trkpt lat="43.6881" lon="3.74464">
        <ele>168</ele>
        <time>2020-08-08T09:39:11.000Z</time>
      </trkpt>
      <trkpt lat="43.6881" lon="3.74466">
        <ele>168.35206686955</ele>
        <time>2020-08-08T09:39:13.000Z</time>
      </trkpt>
      <trkpt lat="43.68811" lon="3.74469">
        <ele>168.98833474952</ele>
        <time>2020-08-08T09:39:16.000Z</time>
      </trkpt>
      <trkpt lat="43.68812" lon="3.74472">
        <ele>169.6246026295</ele>
        <time>2020-08-08T09:39:19.000Z</time>
      </trkpt>
      <trkpt lat="43.68812" lon="3.74474">
        <ele>170.24600064</ele>
        <time>2020-08-08T09:39:22.000Z</time>
      </trkpt>
      <trkpt lat="43.68813" lon="3.74478">
        <ele>170.84600064</ele>
        <time>2020-08-08T09:39:25.000Z</time>
      </trkpt>
      <trkpt lat="43.68812" lon="3.7448">
        <ele>171.24600064</ele>
        <time>2020-08-08T09:39:27.000Z</time>
      </trkpt>
      <trkpt lat="43.6881" lon="3.74482">
        <ele>171.64600064</ele>
        <time>2020-08-08T09:39:29.000Z</time>
      </trkpt>
      <trkpt lat="43.68809" lon="3.74484">
        <ele>172.17323973116</ele>
        <time>2020-08-08T09:39:32.000Z</time>
      </trkpt>
      <trkpt lat="43.68808" lon="3.74485">
        <ele>173</ele>
        <time>2020-08-08T09:39:38.000Z</time>
      </trkpt>
      <trkpt lat="43.68814" lon="3.74484">
        <ele>173</ele>
        <time>2020-08-08T09:39:47.000Z</time>
      </trkpt>
      <trkpt lat="43.68816" lon="3.74484">
        <ele>173.14752490872</ele>
        <time>2020-08-08T09:39:48.000Z</time>
      </trkpt>
      <trkpt lat="43.68819" lon="3.74487">
        <ele>173.56902079425</ele>
        <time>2020-08-08T09:39:50.000Z</time>
      </trkpt>
      <trkpt lat="43.6882" lon="3.7449">
        <ele>173.99051667977</ele>
        <time>2020-08-08T09:39:52.000Z</time>
      </trkpt>
      <trkpt lat="43.68822" lon="3.7449">
        <ele>174.62276050806</ele>
        <time>2020-08-08T09:39:55.000Z</time>
      </trkpt>
      <trkpt lat="43.68824" lon="3.74489">
        <ele>175.02046753713</ele>
        <time>2020-08-08T09:39:57.000Z</time>
      </trkpt>
      <trkpt lat="43.68826" lon="3.74491">
        <ele>175.21539943261</ele>
        <time>2020-08-08T09:39:59.000Z</time>
      </trkpt>
      <trkpt lat="43.68827" lon="3.74495">
        <ele>175.41033132808</ele>
        <time>2020-08-08T09:40:01.000Z</time>
      </trkpt>
      <trkpt lat="43.68828" lon="3.74498">
        <ele>175.60526322356</ele>
        <time>2020-08-08T09:40:03.000Z</time>
      </trkpt>
      <trkpt lat="43.6883" lon="3.74498">
        <ele>175.80019511903</ele>
        <time>2020-08-08T09:40:05.000Z</time>
      </trkpt>
      <trkpt lat="43.68833" lon="3.74498">
        <ele>175.9951270145</ele>
        <time>2020-08-08T09:40:07.000Z</time>
      </trkpt>
      <trkpt lat="43.68835" lon="3.74501">
        <ele>176.40123522634</ele>
        <time>2020-08-08T09:40:09.000Z</time>
      </trkpt>
      <trkpt lat="43.68836" lon="3.74504">
        <ele>176.81275786008</ele>
        <time>2020-08-08T09:40:11.000Z</time>
      </trkpt>
      <trkpt lat="43.68838" lon="3.74505">
        <ele>177.22428049383</ele>
        <time>2020-08-08T09:40:13.000Z</time>
      </trkpt>
      <trkpt lat="43.68841" lon="3.74504">
        <ele>177.63580312757</ele>
        <time>2020-08-08T09:40:15.000Z</time>
      </trkpt>
      <trkpt lat="43.68843" lon="3.74507">
        <ele>178.04600064</ele>
        <time>2020-08-08T09:40:17.000Z</time>
      </trkpt>
      <trkpt lat="43.68845" lon="3.74509">
        <ele>178.44600064</ele>
        <time>2020-08-08T09:40:19.000Z</time>
      </trkpt>
      <trkpt lat="43.68848" lon="3.74507">
        <ele>178.84600064</ele>
        <time>2020-08-08T09:40:21.000Z</time>
      </trkpt>
      <trkpt lat="43.68851" lon="3.74507">
        <ele>179.24600064</ele>
        <time>2020-08-08T09:40:23.000Z</time>
      </trkpt>
      <trkpt lat="43.68853" lon="3.74509">
        <ele>179.64600064</ele>
        <time>2020-08-08T09:40:25.000Z</time>
      </trkpt>
      <trkpt lat="43.68856" lon="3.74508">
        <ele>180.36900096</ele>
        <time>2020-08-08T09:40:28.000Z</time>
      </trkpt>
      <trkpt lat="43.68859" lon="3.74508">
        <ele>180.96900096</ele>
        <time>2020-08-08T09:40:30.000Z</time>
      </trkpt>
      <trkpt lat="43.6886" lon="3.7451">
        <ele>181.56900096</ele>
        <time>2020-08-08T09:40:32.000Z</time>
      </trkpt>
      <trkpt lat="43.68863" lon="3.7451">
        <ele>182.16900096</ele>
        <time>2020-08-08T09:40:34.000Z</time>
      </trkpt>
      <trkpt lat="43.68865" lon="3.7451">
        <ele>182.76900096</ele>
        <time>2020-08-08T09:40:36.000Z</time>
      </trkpt>
      <trkpt lat="43.68867" lon="3.74511">
        <ele>183.12300032</ele>
        <time>2020-08-08T09:40:38.000Z</time>
      </trkpt>
      <trkpt lat="43.68868" lon="3.74515">
        <ele>183.32300032</ele>
        <time>2020-08-08T09:40:40.000Z</time>
      </trkpt>
      <trkpt lat="43.68869" lon="3.74518">
        <ele>183.52300032</ele>
        <time>2020-08-08T09:40:42.000Z</time>
      </trkpt>
      <trkpt lat="43.6887" lon="3.74521">
        <ele>183.72300032</ele>
        <time>2020-08-08T09:40:44.000Z</time>
      </trkpt>
      <trkpt lat="43.6887" lon="3.74525">
        <ele>183.92300032</ele>
        <time>2020-08-08T09:40:46.000Z</time>
      </trkpt>
      <trkpt lat="43.68871" lon="3.74528">
        <ele>184.12300032</ele>
        <time>2020-08-08T09:40:48.000Z</time>
      </trkpt>
      <trkpt lat="43.68872" lon="3.74532">
        <ele>184.32300032</ele>
        <time>2020-08-08T09:40:50.000Z</time>
      </trkpt>
      <trkpt lat="43.68872" lon="3.74537">
        <ele>184.52300032</ele>
        <time>2020-08-08T09:40:52.000Z</time>
      </trkpt>
      <trkpt lat="43.68874" lon="3.74541">
        <ele>184.72300032</ele>
        <time>2020-08-08T09:40:54.000Z</time>
      </trkpt>
      <trkpt lat="43.68874" lon="3.74544">
        <ele>184.82300032</ele>
        <time>2020-08-08T09:40:55.000Z</time>
      </trkpt>
      <trkpt lat="43.68875" lon="3.74547">
        <ele>184.92300032</ele>
        <time>2020-08-08T09:40:56.000Z</time>
      </trkpt>
      <trkpt lat="43.68875" lon="3.7455">
        <ele>184.97699968</ele>
        <time>2020-08-08T09:40:57.000Z</time>
      </trkpt>
      <trkpt lat="43.68876" lon="3.74553">
        <ele>184.87699968</ele>
        <time>2020-08-08T09:40:58.000Z</time>
      </trkpt>
      <trkpt lat="43.68876" lon="3.74556">
        <ele>184.77699968</ele>
        <time>2020-08-08T09:40:59.000Z</time>
      </trkpt>
      <trkpt lat="43.68876" lon="3.74558">
        <ele>184.67699968</ele>
        <time>2020-08-08T09:41:00.000Z</time>
      </trkpt>
      <trkpt lat="43.68877" lon="3.74561">
        <ele>184.57699968</ele>
        <time>2020-08-08T09:41:01.000Z</time>
      </trkpt>
      <trkpt lat="43.68878" lon="3.74564">
        <ele>184.47699968</ele>
        <time>2020-08-08T09:41:02.000Z</time>
      </trkpt>
      <trkpt lat="43.68878" lon="3.74568">
        <ele>184.37699968</ele>
        <time>2020-08-08T09:41:03.000Z</time>
      </trkpt>
      <trkpt lat="43.68879" lon="3.74571">
        <ele>184.27699968</ele>
        <time>2020-08-08T09:41:04.000Z</time>
      </trkpt>
      <trkpt lat="43.68879" lon="3.74574">
        <ele>184.17699968</ele>
        <time>2020-08-08T09:41:05.000Z</time>
      </trkpt>
      <trkpt lat="43.68879" lon="3.74578">
        <ele>184.07699968</ele>
        <time>2020-08-08T09:41:06.000Z</time>
      </trkpt>
      <trkpt lat="43.6888" lon="3.74581">
        <ele>184</ele>
        <time>2020-08-08T09:41:07.000Z</time>
      </trkpt>
      <trkpt lat="43.6888" lon="3.74585">
        <ele>184</ele>
        <time>2020-08-08T09:41:08.000Z</time>
      </trkpt>
      <trkpt lat="43.6888" lon="3.74589">
        <ele>184</ele>
        <time>2020-08-08T09:41:09.000Z</time>
      </trkpt>
      <trkpt lat="43.68881" lon="3.74592">
        <ele>184</ele>
        <time>2020-08-08T09:41:10.000Z</time>
      </trkpt>
      <trkpt lat="43.68882" lon="3.74596">
        <ele>184</ele>
        <time>2020-08-08T09:41:11.000Z</time>
      </trkpt>
      <trkpt lat="43.68883" lon="3.746">
        <ele>184</ele>
        <time>2020-08-08T09:41:12.000Z</time>
      </trkpt>
      <trkpt lat="43.68885" lon="3.74603">
        <ele>184</ele>
        <time>2020-08-08T09:41:13.000Z</time>
      </trkpt>
      <trkpt lat="43.68886" lon="3.74605">
        <ele>184</ele>
        <time>2020-08-08T09:41:14.000Z</time>
      </trkpt>
      <trkpt lat="43.68889" lon="3.74607">
        <ele>184</ele>
        <time>2020-08-08T09:41:15.000Z</time>
      </trkpt>
      <trkpt lat="43.68891" lon="3.74609">
        <ele>184</ele>
        <time>2020-08-08T09:41:16.000Z</time>
      </trkpt>
      <trkpt lat="43.68894" lon="3.7461">
        <ele>184.01907662651</ele>
        <time>2020-08-08T09:41:17.000Z</time>
      </trkpt>
      <trkpt lat="43.68896" lon="3.74611">
        <ele>184.11947823293</ele>
        <time>2020-08-08T09:41:18.000Z</time>
      </trkpt>
      <trkpt lat="43.68899" lon="3.74612">
        <ele>184.21987983936</ele>
        <time>2020-08-08T09:41:19.000Z</time>
      </trkpt>
      <trkpt lat="43.68901" lon="3.74613">
        <ele>184.32028144578</ele>
        <time>2020-08-08T09:41:20.000Z</time>
      </trkpt>
      <trkpt lat="43.68903" lon="3.74614">
        <ele>184.42068305221</ele>
        <time>2020-08-08T09:41:21.000Z</time>
      </trkpt>
      <trkpt lat="43.68906" lon="3.74614">
        <ele>184.52108465864</ele>
        <time>2020-08-08T09:41:22.000Z</time>
      </trkpt>
      <trkpt lat="43.68908" lon="3.74614">
        <ele>184.62148626506</ele>
        <time>2020-08-08T09:41:23.000Z</time>
      </trkpt>
      <trkpt lat="43.6891" lon="3.74614">
        <ele>184.72188787149</ele>
        <time>2020-08-08T09:41:24.000Z</time>
      </trkpt>
      <trkpt lat="43.68913" lon="3.74614">
        <ele>184.82228947791</ele>
        <time>2020-08-08T09:41:25.000Z</time>
      </trkpt>
      <trkpt lat="43.68915" lon="3.74614">
        <ele>184.92269108434</ele>
        <time>2020-08-08T09:41:26.000Z</time>
      </trkpt>
      <trkpt lat="43.68917" lon="3.74614">
        <ele>185.02300032</ele>
        <time>2020-08-08T09:41:27.000Z</time>
      </trkpt>
      <trkpt lat="43.68919" lon="3.74614">
        <ele>185.12300032</ele>
        <time>2020-08-08T09:41:28.000Z</time>
      </trkpt>
      <trkpt lat="43.68921" lon="3.74613">
        <ele>185.22300032</ele>
        <time>2020-08-08T09:41:29.000Z</time>
      </trkpt>
      <trkpt lat="43.68923" lon="3.74612">
        <ele>185.32300032</ele>
        <time>2020-08-08T09:41:30.000Z</time>
      </trkpt>
      <trkpt lat="43.68925" lon="3.74611">
        <ele>185.42300032</ele>
        <time>2020-08-08T09:41:31.000Z</time>
      </trkpt>
      <trkpt lat="43.68927" lon="3.74609">
        <ele>185.52300032</ele>
        <time>2020-08-08T09:41:32.000Z</time>
      </trkpt>
      <trkpt lat="43.68929" lon="3.74607">
        <ele>185.62300032</ele>
        <time>2020-08-08T09:41:33.000Z</time>
      </trkpt>
      <trkpt lat="43.68932" lon="3.74606">
        <ele>185.72300032</ele>
        <time>2020-08-08T09:41:34.000Z</time>
      </trkpt>
      <trkpt lat="43.68934" lon="3.74605">
        <ele>185.82300032</ele>
        <time>2020-08-08T09:41:35.000Z</time>
      </trkpt>
      <trkpt lat="43.68936" lon="3.74604">
        <ele>185.92300032</ele>
        <time>2020-08-08T09:41:36.000Z</time>
      </trkpt>
      <trkpt lat="43.68938" lon="3.74602">
        <ele>186.04545517787</ele>
        <time>2020-08-08T09:41:37.000Z</time>
      </trkpt>
      <trkpt lat="43.6894" lon="3.74601">
        <ele>186.24308363636</ele>
        <time>2020-08-08T09:41:38.000Z</time>
      </trkpt>
      <trkpt lat="43.68943" lon="3.746">
        <ele>186.44071209486</ele>
        <time>2020-08-08T09:41:39.000Z</time>
      </trkpt>
      <trkpt lat="43.68945" lon="3.746">
        <ele>186.63834055336</ele>
        <time>2020-08-08T09:41:40.000Z</time>
      </trkpt>
      <trkpt lat="43.68948" lon="3.74599">
        <ele>186.83596901186</ele>
        <time>2020-08-08T09:41:41.000Z</time>
      </trkpt>
      <trkpt lat="43.6895" lon="3.74598">
        <ele>187.03359747036</ele>
        <time>2020-08-08T09:41:42.000Z</time>
      </trkpt>
      <trkpt lat="43.68952" lon="3.74597">
        <ele>187.23122592885</ele>
        <time>2020-08-08T09:41:43.000Z</time>
      </trkpt>
      <trkpt lat="43.68955" lon="3.74596">
        <ele>187.42885438735</ele>
        <time>2020-08-08T09:41:44.000Z</time>
      </trkpt>
      <trkpt lat="43.68957" lon="3.74595">
        <ele>187.62648284585</ele>
        <time>2020-08-08T09:41:45.000Z</time>
      </trkpt>
      <trkpt lat="43.68959" lon="3.74594">
        <ele>187.82411130435</ele>
        <time>2020-08-08T09:41:46.000Z</time>
      </trkpt>
      <trkpt lat="43.68961" lon="3.74592">
        <ele>188</ele>
        <time>2020-08-08T09:41:47.000Z</time>
      </trkpt>
      <trkpt lat="43.68963" lon="3.74591">
        <ele>188</ele>
        <time>2020-08-08T09:41:48.000Z</time>
      </trkpt>
      <trkpt lat="43.68965" lon="3.74589">
        <ele>188</ele>
        <time>2020-08-08T09:41:49.000Z</time>
      </trkpt>
      <trkpt lat="43.68968" lon="3.74588">
        <ele>188</ele>
        <time>2020-08-08T09:41:50.000Z</time>
      </trkpt>
      <trkpt lat="43.6897" lon="3.74588">
        <ele>188</ele>
        <time>2020-08-08T09:41:51.000Z</time>
      </trkpt>
      <trkpt lat="43.68972" lon="3.74588">
        <ele>188</ele>
        <time>2020-08-08T09:41:52.000Z</time>
      </trkpt>
      <trkpt lat="43.68974" lon="3.74589">
        <ele>188</ele>
        <time>2020-08-08T09:41:53.000Z</time>
      </trkpt>
      <trkpt lat="43.68976" lon="3.7459">
        <ele>188</ele>
        <time>2020-08-08T09:41:54.000Z</time>
      </trkpt>
      <trkpt lat="43.68978" lon="3.74592">
        <ele>188</ele>
        <time>2020-08-08T09:41:55.000Z</time>
      </trkpt>
      <trkpt lat="43.6898" lon="3.74594">
        <ele>188</ele>
        <time>2020-08-08T09:41:56.000Z</time>
      </trkpt>
      <trkpt lat="43.68982" lon="3.74596">
        <ele>188</ele>
        <time>2020-08-08T09:41:57.000Z</time>
      </trkpt>
      <trkpt lat="43.68985" lon="3.74597">
        <ele>188</ele>
        <time>2020-08-08T09:41:58.000Z</time>
      </trkpt>
      <trkpt lat="43.68988" lon="3.74599">
        <ele>188</ele>
        <time>2020-08-08T09:41:59.000Z</time>
      </trkpt>
      <trkpt lat="43.6899" lon="3.74601">
        <ele>188</ele>
        <time>2020-08-08T09:42:00.000Z</time>
      </trkpt>
      <trkpt lat="43.68992" lon="3.74602">
        <ele>188</ele>
        <time>2020-08-08T09:42:01.000Z</time>
      </trkpt>
      <trkpt lat="43.68994" lon="3.74603">
        <ele>188</ele>
        <time>2020-08-08T09:42:08.000Z</time>
      </trkpt>
    </trkseg>
  </trk>
</gpx>